<?xml version="1.0" encoding="UTF-8" standalone="no" ?>
<gpx xmlns="http://www.topografix.com/GPX/1/1" xmlns:xsi="http://www.w3.org/2001/XMLSchema-instance" xsi:schemaLocation="http://www.topografix.com/GPX/1/1 http://www.topografix.com/GPX/1/1/gpx.xsd" version="1.1" creator="VisuGPX - https://www.visugpx.com">
  <metadata>
    <name>Marche matinale</name>
  </metadata>
  <trk>
    <name><![CDATA[Marche matinale_1]]></name>
    <trkseg>
      <trkpt lat="45.84466" lon="1.22296">
        <ele>278.2</ele>
        <time>2024-10-21T06:55:17Z</time>
      </trkpt>
      <trkpt lat="45.84465" lon="1.223">
        <ele>278.3</ele>
        <time>2024-10-21T06:55:18Z</time>
      </trkpt>
      <trkpt lat="45.84464" lon="1.223">
        <ele>278.3</ele>
        <time>2024-10-21T06:55:19Z</time>
      </trkpt>
      <trkpt lat="45.84462" lon="1.22296">
        <ele>278.4</ele>
        <time>2024-10-21T06:55:20Z</time>
      </trkpt>
      <trkpt lat="45.84462" lon="1.22296">
        <ele>278.4</ele>
        <time>2024-10-21T06:55:21Z</time>
      </trkpt>
      <trkpt lat="45.84462" lon="1.22293">
        <ele>278.5</ele>
        <time>2024-10-21T06:55:22Z</time>
      </trkpt>
      <trkpt lat="45.84462" lon="1.22293">
        <ele>278.5</ele>
        <time>2024-10-21T06:55:23Z</time>
      </trkpt>
      <trkpt lat="45.84462" lon="1.22293">
        <ele>278.5</ele>
        <time>2024-10-21T06:55:24Z</time>
      </trkpt>
      <trkpt lat="45.84463" lon="1.22292">
        <ele>278.6</ele>
        <time>2024-10-21T06:55:25Z</time>
      </trkpt>
      <trkpt lat="45.84463" lon="1.22293">
        <ele>278.6</ele>
        <time>2024-10-21T06:55:26Z</time>
      </trkpt>
      <trkpt lat="45.84463" lon="1.22293">
        <ele>278.6</ele>
        <time>2024-10-21T06:55:27Z</time>
      </trkpt>
      <trkpt lat="45.84464" lon="1.22293">
        <ele>278.6</ele>
        <time>2024-10-21T06:55:28Z</time>
      </trkpt>
      <trkpt lat="45.84465" lon="1.22293">
        <ele>278.7</ele>
        <time>2024-10-21T06:55:29Z</time>
      </trkpt>
      <trkpt lat="45.84466" lon="1.22293">
        <ele>278.7</ele>
        <time>2024-10-21T06:55:30Z</time>
      </trkpt>
      <trkpt lat="45.84468" lon="1.22294">
        <ele>278.8</ele>
        <time>2024-10-21T06:55:31Z</time>
      </trkpt>
      <trkpt lat="45.84469" lon="1.22295">
        <ele>278.9</ele>
        <time>2024-10-21T06:55:32Z</time>
      </trkpt>
      <trkpt lat="45.8447" lon="1.22296">
        <ele>278.9</ele>
        <time>2024-10-21T06:55:33Z</time>
      </trkpt>
      <trkpt lat="45.84472" lon="1.22297">
        <ele>279.1</ele>
        <time>2024-10-21T06:55:34Z</time>
      </trkpt>
      <trkpt lat="45.84472" lon="1.22297">
        <ele>279.1</ele>
        <time>2024-10-21T06:55:35Z</time>
      </trkpt>
      <trkpt lat="45.84473" lon="1.22297">
        <ele>279.1</ele>
        <time>2024-10-21T06:55:36Z</time>
      </trkpt>
      <trkpt lat="45.84475" lon="1.22298">
        <ele>279.3</ele>
        <time>2024-10-21T06:55:37Z</time>
      </trkpt>
      <trkpt lat="45.84477" lon="1.22299">
        <ele>279.3</ele>
        <time>2024-10-21T06:55:38Z</time>
      </trkpt>
      <trkpt lat="45.84477" lon="1.22299">
        <ele>279.4</ele>
        <time>2024-10-21T06:55:39Z</time>
      </trkpt>
      <trkpt lat="45.84478" lon="1.22299">
        <ele>279.5</ele>
        <time>2024-10-21T06:55:40Z</time>
      </trkpt>
      <trkpt lat="45.84479" lon="1.223">
        <ele>279.5</ele>
        <time>2024-10-21T06:55:41Z</time>
      </trkpt>
      <trkpt lat="45.8448" lon="1.223">
        <ele>279.6</ele>
        <time>2024-10-21T06:55:42Z</time>
      </trkpt>
      <trkpt lat="45.84482" lon="1.22302">
        <ele>279.8</ele>
        <time>2024-10-21T06:55:43Z</time>
      </trkpt>
      <trkpt lat="45.84483" lon="1.22302">
        <ele>279.8</ele>
        <time>2024-10-21T06:55:44Z</time>
      </trkpt>
      <trkpt lat="45.84484" lon="1.22303">
        <ele>279.9</ele>
        <time>2024-10-21T06:55:45Z</time>
      </trkpt>
      <trkpt lat="45.84485" lon="1.22303">
        <ele>280</ele>
        <time>2024-10-21T06:55:46Z</time>
      </trkpt>
      <trkpt lat="45.84486" lon="1.22303">
        <ele>280</ele>
        <time>2024-10-21T06:55:47Z</time>
      </trkpt>
      <trkpt lat="45.84488" lon="1.22305">
        <ele>280.2</ele>
        <time>2024-10-21T06:55:48Z</time>
      </trkpt>
      <trkpt lat="45.84488" lon="1.22305">
        <ele>280.2</ele>
        <time>2024-10-21T06:55:49Z</time>
      </trkpt>
      <trkpt lat="45.8449" lon="1.22305">
        <ele>280.3</ele>
        <time>2024-10-21T06:55:50Z</time>
      </trkpt>
      <trkpt lat="45.84491" lon="1.22305">
        <ele>280.4</ele>
        <time>2024-10-21T06:55:51Z</time>
      </trkpt>
      <trkpt lat="45.84492" lon="1.22306">
        <ele>280.5</ele>
        <time>2024-10-21T06:55:52Z</time>
      </trkpt>
      <trkpt lat="45.84493" lon="1.22308">
        <ele>280.6</ele>
        <time>2024-10-21T06:55:53Z</time>
      </trkpt>
      <trkpt lat="45.84494" lon="1.2231">
        <ele>280.8</ele>
        <time>2024-10-21T06:55:55Z</time>
      </trkpt>
      <trkpt lat="45.84495" lon="1.22311">
        <ele>280.9</ele>
        <time>2024-10-21T06:55:56Z</time>
      </trkpt>
      <trkpt lat="45.84497" lon="1.22313">
        <ele>281</ele>
        <time>2024-10-21T06:55:57Z</time>
      </trkpt>
      <trkpt lat="45.84497" lon="1.22314">
        <ele>281.1</ele>
        <time>2024-10-21T06:55:58Z</time>
      </trkpt>
      <trkpt lat="45.84497" lon="1.22315">
        <ele>281.1</ele>
        <time>2024-10-21T06:55:59Z</time>
      </trkpt>
      <trkpt lat="45.84498" lon="1.2232">
        <ele>281</ele>
        <time>2024-10-21T06:56:00Z</time>
      </trkpt>
      <trkpt lat="45.84498" lon="1.22322">
        <ele>280.9</ele>
        <time>2024-10-21T06:56:01Z</time>
      </trkpt>
      <trkpt lat="45.84497" lon="1.22325">
        <ele>280.7</ele>
        <time>2024-10-21T06:56:02Z</time>
      </trkpt>
      <trkpt lat="45.84497" lon="1.22326">
        <ele>280.6</ele>
        <time>2024-10-21T06:56:03Z</time>
      </trkpt>
      <trkpt lat="45.84496" lon="1.22328">
        <ele>280.5</ele>
        <time>2024-10-21T06:56:04Z</time>
      </trkpt>
      <trkpt lat="45.84495" lon="1.22329">
        <ele>280.4</ele>
        <time>2024-10-21T06:56:05Z</time>
      </trkpt>
      <trkpt lat="45.84494" lon="1.22331">
        <ele>280.3</ele>
        <time>2024-10-21T06:56:06Z</time>
      </trkpt>
      <trkpt lat="45.84493" lon="1.22332">
        <ele>280.2</ele>
        <time>2024-10-21T06:56:07Z</time>
      </trkpt>
      <trkpt lat="45.84492" lon="1.22333">
        <ele>280.1</ele>
        <time>2024-10-21T06:56:08Z</time>
      </trkpt>
      <trkpt lat="45.84491" lon="1.22334">
        <ele>280</ele>
        <time>2024-10-21T06:56:09Z</time>
      </trkpt>
      <trkpt lat="45.84491" lon="1.22336">
        <ele>279.9</ele>
        <time>2024-10-21T06:56:10Z</time>
      </trkpt>
      <trkpt lat="45.8449" lon="1.22337">
        <ele>279.8</ele>
        <time>2024-10-21T06:56:11Z</time>
      </trkpt>
      <trkpt lat="45.84489" lon="1.22339">
        <ele>279.8</ele>
        <time>2024-10-21T06:56:12Z</time>
      </trkpt>
      <trkpt lat="45.84488" lon="1.2234">
        <ele>279.7</ele>
        <time>2024-10-21T06:56:13Z</time>
      </trkpt>
      <trkpt lat="45.84487" lon="1.22341">
        <ele>279.6</ele>
        <time>2024-10-21T06:56:14Z</time>
      </trkpt>
      <trkpt lat="45.84486" lon="1.22343">
        <ele>279.4</ele>
        <time>2024-10-21T06:56:15Z</time>
      </trkpt>
      <trkpt lat="45.84485" lon="1.22344">
        <ele>279.4</ele>
        <time>2024-10-21T06:56:16Z</time>
      </trkpt>
      <trkpt lat="45.84484" lon="1.22345">
        <ele>279.3</ele>
        <time>2024-10-21T06:56:17Z</time>
      </trkpt>
      <trkpt lat="45.84483" lon="1.22347">
        <ele>279.2</ele>
        <time>2024-10-21T06:56:18Z</time>
      </trkpt>
      <trkpt lat="45.84482" lon="1.22348">
        <ele>279.1</ele>
        <time>2024-10-21T06:56:19Z</time>
      </trkpt>
      <trkpt lat="45.84482" lon="1.22349">
        <ele>279</ele>
        <time>2024-10-21T06:56:20Z</time>
      </trkpt>
      <trkpt lat="45.84481" lon="1.22352">
        <ele>278.9</ele>
        <time>2024-10-21T06:56:21Z</time>
      </trkpt>
      <trkpt lat="45.8448" lon="1.22353">
        <ele>278.8</ele>
        <time>2024-10-21T06:56:22Z</time>
      </trkpt>
      <trkpt lat="45.8448" lon="1.22354">
        <ele>278.8</ele>
        <time>2024-10-21T06:56:23Z</time>
      </trkpt>
      <trkpt lat="45.8448" lon="1.22356">
        <ele>278.8</ele>
        <time>2024-10-21T06:56:24Z</time>
      </trkpt>
      <trkpt lat="45.84482" lon="1.22359">
        <ele>278.8</ele>
        <time>2024-10-21T06:56:25Z</time>
      </trkpt>
      <trkpt lat="45.84483" lon="1.2236">
        <ele>278.8</ele>
        <time>2024-10-21T06:56:27Z</time>
      </trkpt>
      <trkpt lat="45.84485" lon="1.22361">
        <ele>278.9</ele>
        <time>2024-10-21T06:56:28Z</time>
      </trkpt>
      <trkpt lat="45.84486" lon="1.22362">
        <ele>278.9</ele>
        <time>2024-10-21T06:56:29Z</time>
      </trkpt>
      <trkpt lat="45.8449" lon="1.22361">
        <ele>278.9</ele>
        <time>2024-10-21T06:56:30Z</time>
      </trkpt>
      <trkpt lat="45.8449" lon="1.22362">
        <ele>279</ele>
        <time>2024-10-21T06:56:31Z</time>
      </trkpt>
      <trkpt lat="45.84492" lon="1.22362">
        <ele>279</ele>
        <time>2024-10-21T06:56:32Z</time>
      </trkpt>
      <trkpt lat="45.84493" lon="1.22362">
        <ele>279</ele>
        <time>2024-10-21T06:56:33Z</time>
      </trkpt>
      <trkpt lat="45.84495" lon="1.22362">
        <ele>279</ele>
        <time>2024-10-21T06:56:34Z</time>
      </trkpt>
      <trkpt lat="45.84497" lon="1.22362">
        <ele>279</ele>
        <time>2024-10-21T06:56:35Z</time>
      </trkpt>
      <trkpt lat="45.84499" lon="1.22362">
        <ele>279</ele>
        <time>2024-10-21T06:56:36Z</time>
      </trkpt>
      <trkpt lat="45.84499" lon="1.22363">
        <ele>279</ele>
        <time>2024-10-21T06:56:37Z</time>
      </trkpt>
      <trkpt lat="45.845" lon="1.22363">
        <ele>279.1</ele>
        <time>2024-10-21T06:56:38Z</time>
      </trkpt>
      <trkpt lat="45.84502" lon="1.22364">
        <ele>279.1</ele>
        <time>2024-10-21T06:56:39Z</time>
      </trkpt>
      <trkpt lat="45.84503" lon="1.22364">
        <ele>279.1</ele>
        <time>2024-10-21T06:56:40Z</time>
      </trkpt>
      <trkpt lat="45.84503" lon="1.22364">
        <ele>279.1</ele>
        <time>2024-10-21T06:56:41Z</time>
      </trkpt>
      <trkpt lat="45.84504" lon="1.22364">
        <ele>279.1</ele>
        <time>2024-10-21T06:56:42Z</time>
      </trkpt>
      <trkpt lat="45.84506" lon="1.22365">
        <ele>279.1</ele>
        <time>2024-10-21T06:56:43Z</time>
      </trkpt>
      <trkpt lat="45.84507" lon="1.22365">
        <ele>279.1</ele>
        <time>2024-10-21T06:56:44Z</time>
      </trkpt>
      <trkpt lat="45.84509" lon="1.22364">
        <ele>279.2</ele>
        <time>2024-10-21T06:56:45Z</time>
      </trkpt>
      <trkpt lat="45.8451" lon="1.22364">
        <ele>279.2</ele>
        <time>2024-10-21T06:56:46Z</time>
      </trkpt>
      <trkpt lat="45.84512" lon="1.22365">
        <ele>279.2</ele>
        <time>2024-10-21T06:56:47Z</time>
      </trkpt>
      <trkpt lat="45.84513" lon="1.22365">
        <ele>279.2</ele>
        <time>2024-10-21T06:56:48Z</time>
      </trkpt>
      <trkpt lat="45.84514" lon="1.22365">
        <ele>279.2</ele>
        <time>2024-10-21T06:56:49Z</time>
      </trkpt>
      <trkpt lat="45.84516" lon="1.22363">
        <ele>279.3</ele>
        <time>2024-10-21T06:56:50Z</time>
      </trkpt>
      <trkpt lat="45.84517" lon="1.22362">
        <ele>279.3</ele>
        <time>2024-10-21T06:56:51Z</time>
      </trkpt>
      <trkpt lat="45.84519" lon="1.22362">
        <ele>279.3</ele>
        <time>2024-10-21T06:56:52Z</time>
      </trkpt>
      <trkpt lat="45.8452" lon="1.22362">
        <ele>279.3</ele>
        <time>2024-10-21T06:56:53Z</time>
      </trkpt>
      <trkpt lat="45.84521" lon="1.22362">
        <ele>279.3</ele>
        <time>2024-10-21T06:56:54Z</time>
      </trkpt>
      <trkpt lat="45.84523" lon="1.22363">
        <ele>279.4</ele>
        <time>2024-10-21T06:56:55Z</time>
      </trkpt>
      <trkpt lat="45.84524" lon="1.22363">
        <ele>279.4</ele>
        <time>2024-10-21T06:56:56Z</time>
      </trkpt>
      <trkpt lat="45.84526" lon="1.22364">
        <ele>279.4</ele>
        <time>2024-10-21T06:56:57Z</time>
      </trkpt>
      <trkpt lat="45.84527" lon="1.22364">
        <ele>279.4</ele>
        <time>2024-10-21T06:56:58Z</time>
      </trkpt>
      <trkpt lat="45.84528" lon="1.22364">
        <ele>279.4</ele>
        <time>2024-10-21T06:56:59Z</time>
      </trkpt>
      <trkpt lat="45.84529" lon="1.22363">
        <ele>279.4</ele>
        <time>2024-10-21T06:57:00Z</time>
      </trkpt>
      <trkpt lat="45.8453" lon="1.22363">
        <ele>279.4</ele>
        <time>2024-10-21T06:57:01Z</time>
      </trkpt>
      <trkpt lat="45.84531" lon="1.22362">
        <ele>279.5</ele>
        <time>2024-10-21T06:57:02Z</time>
      </trkpt>
      <trkpt lat="45.84533" lon="1.22361">
        <ele>279.5</ele>
        <time>2024-10-21T06:57:03Z</time>
      </trkpt>
      <trkpt lat="45.84534" lon="1.2236">
        <ele>279.5</ele>
        <time>2024-10-21T06:57:04Z</time>
      </trkpt>
      <trkpt lat="45.84534" lon="1.22359">
        <ele>279.5</ele>
        <time>2024-10-21T06:57:05Z</time>
      </trkpt>
      <trkpt lat="45.84535" lon="1.22358">
        <ele>279.5</ele>
        <time>2024-10-21T06:57:06Z</time>
      </trkpt>
      <trkpt lat="45.84536" lon="1.22357">
        <ele>279.5</ele>
        <time>2024-10-21T06:57:07Z</time>
      </trkpt>
      <trkpt lat="45.84536" lon="1.22356">
        <ele>279.5</ele>
        <time>2024-10-21T06:57:08Z</time>
      </trkpt>
      <trkpt lat="45.84537" lon="1.22355">
        <ele>279.6</ele>
        <time>2024-10-21T06:57:09Z</time>
      </trkpt>
      <trkpt lat="45.84537" lon="1.22352">
        <ele>279.6</ele>
        <time>2024-10-21T06:57:10Z</time>
      </trkpt>
      <trkpt lat="45.84537" lon="1.22351">
        <ele>279.6</ele>
        <time>2024-10-21T06:57:11Z</time>
      </trkpt>
      <trkpt lat="45.84537" lon="1.2235">
        <ele>279.6</ele>
        <time>2024-10-21T06:57:12Z</time>
      </trkpt>
      <trkpt lat="45.84537" lon="1.22348">
        <ele>279.6</ele>
        <time>2024-10-21T06:57:13Z</time>
      </trkpt>
      <trkpt lat="45.84537" lon="1.22347">
        <ele>279.6</ele>
        <time>2024-10-21T06:57:14Z</time>
      </trkpt>
      <trkpt lat="45.84538" lon="1.22345">
        <ele>279.6</ele>
        <time>2024-10-21T06:57:15Z</time>
      </trkpt>
      <trkpt lat="45.84538" lon="1.22344">
        <ele>279.7</ele>
        <time>2024-10-21T06:57:16Z</time>
      </trkpt>
      <trkpt lat="45.84538" lon="1.22342">
        <ele>279.7</ele>
        <time>2024-10-21T06:57:17Z</time>
      </trkpt>
      <trkpt lat="45.84538" lon="1.2234">
        <ele>279.7</ele>
        <time>2024-10-21T06:57:18Z</time>
      </trkpt>
      <trkpt lat="45.84538" lon="1.22338">
        <ele>279.7</ele>
        <time>2024-10-21T06:57:19Z</time>
      </trkpt>
      <trkpt lat="45.84538" lon="1.22337">
        <ele>279.7</ele>
        <time>2024-10-21T06:57:20Z</time>
      </trkpt>
      <trkpt lat="45.84539" lon="1.22336">
        <ele>279.8</ele>
        <time>2024-10-21T06:57:21Z</time>
      </trkpt>
      <trkpt lat="45.84539" lon="1.22335">
        <ele>279.8</ele>
        <time>2024-10-21T06:57:22Z</time>
      </trkpt>
      <trkpt lat="45.8454" lon="1.22333">
        <ele>279.8</ele>
        <time>2024-10-21T06:57:23Z</time>
      </trkpt>
      <trkpt lat="45.84541" lon="1.22332">
        <ele>279.8</ele>
        <time>2024-10-21T06:57:24Z</time>
      </trkpt>
      <trkpt lat="45.84543" lon="1.22332">
        <ele>279.9</ele>
        <time>2024-10-21T06:57:25Z</time>
      </trkpt>
      <trkpt lat="45.84543" lon="1.22333">
        <ele>279.9</ele>
        <time>2024-10-21T06:57:26Z</time>
      </trkpt>
      <trkpt lat="45.84544" lon="1.22332">
        <ele>279.9</ele>
        <time>2024-10-21T06:57:27Z</time>
      </trkpt>
      <trkpt lat="45.84545" lon="1.22332">
        <ele>279.9</ele>
        <time>2024-10-21T06:57:28Z</time>
      </trkpt>
      <trkpt lat="45.84546" lon="1.22331">
        <ele>279.9</ele>
        <time>2024-10-21T06:57:29Z</time>
      </trkpt>
      <trkpt lat="45.84547" lon="1.2233">
        <ele>279.9</ele>
        <time>2024-10-21T06:57:30Z</time>
      </trkpt>
      <trkpt lat="45.84547" lon="1.22329">
        <ele>280</ele>
        <time>2024-10-21T06:57:31Z</time>
      </trkpt>
      <trkpt lat="45.84548" lon="1.22328">
        <ele>280</ele>
        <time>2024-10-21T06:57:32Z</time>
      </trkpt>
      <trkpt lat="45.8455" lon="1.22326">
        <ele>280</ele>
        <time>2024-10-21T06:57:33Z</time>
      </trkpt>
      <trkpt lat="45.84551" lon="1.22326">
        <ele>280</ele>
        <time>2024-10-21T06:57:34Z</time>
      </trkpt>
      <trkpt lat="45.84551" lon="1.22325">
        <ele>280.1</ele>
        <time>2024-10-21T06:57:35Z</time>
      </trkpt>
      <trkpt lat="45.84553" lon="1.22323">
        <ele>280.1</ele>
        <time>2024-10-21T06:57:36Z</time>
      </trkpt>
      <trkpt lat="45.84554" lon="1.22323">
        <ele>280.1</ele>
        <time>2024-10-21T06:57:37Z</time>
      </trkpt>
      <trkpt lat="45.84554" lon="1.22322">
        <ele>280.2</ele>
        <time>2024-10-21T06:57:38Z</time>
      </trkpt>
      <trkpt lat="45.84556" lon="1.22321">
        <ele>280.2</ele>
        <time>2024-10-21T06:57:39Z</time>
      </trkpt>
      <trkpt lat="45.84557" lon="1.22318">
        <ele>280.2</ele>
        <time>2024-10-21T06:57:40Z</time>
      </trkpt>
      <trkpt lat="45.84559" lon="1.22317">
        <ele>280.3</ele>
        <time>2024-10-21T06:57:41Z</time>
      </trkpt>
      <trkpt lat="45.84559" lon="1.22316">
        <ele>280.3</ele>
        <time>2024-10-21T06:57:42Z</time>
      </trkpt>
      <trkpt lat="45.8456" lon="1.22316">
        <ele>280.3</ele>
        <time>2024-10-21T06:57:43Z</time>
      </trkpt>
      <trkpt lat="45.84562" lon="1.22315">
        <ele>280.4</ele>
        <time>2024-10-21T06:57:44Z</time>
      </trkpt>
      <trkpt lat="45.84564" lon="1.22314">
        <ele>280.4</ele>
        <time>2024-10-21T06:57:45Z</time>
      </trkpt>
      <trkpt lat="45.84566" lon="1.22313">
        <ele>280.5</ele>
        <time>2024-10-21T06:57:46Z</time>
      </trkpt>
      <trkpt lat="45.84567" lon="1.22313">
        <ele>280.5</ele>
        <time>2024-10-21T06:57:47Z</time>
      </trkpt>
      <trkpt lat="45.84568" lon="1.22312">
        <ele>280.5</ele>
        <time>2024-10-21T06:57:48Z</time>
      </trkpt>
      <trkpt lat="45.84569" lon="1.22311">
        <ele>280.6</ele>
        <time>2024-10-21T06:57:49Z</time>
      </trkpt>
      <trkpt lat="45.84571" lon="1.22312">
        <ele>280.6</ele>
        <time>2024-10-21T06:57:50Z</time>
      </trkpt>
      <trkpt lat="45.84572" lon="1.22311">
        <ele>280.7</ele>
        <time>2024-10-21T06:57:51Z</time>
      </trkpt>
      <trkpt lat="45.84573" lon="1.2231">
        <ele>280.7</ele>
        <time>2024-10-21T06:57:52Z</time>
      </trkpt>
      <trkpt lat="45.84574" lon="1.2231">
        <ele>280.8</ele>
        <time>2024-10-21T06:57:53Z</time>
      </trkpt>
      <trkpt lat="45.84575" lon="1.2231">
        <ele>280.8</ele>
        <time>2024-10-21T06:57:54Z</time>
      </trkpt>
      <trkpt lat="45.84576" lon="1.2231">
        <ele>280.8</ele>
        <time>2024-10-21T06:57:55Z</time>
      </trkpt>
      <trkpt lat="45.84577" lon="1.22311">
        <ele>280.9</ele>
        <time>2024-10-21T06:57:56Z</time>
      </trkpt>
      <trkpt lat="45.84578" lon="1.2231">
        <ele>280.9</ele>
        <time>2024-10-21T06:57:57Z</time>
      </trkpt>
      <trkpt lat="45.8458" lon="1.2231">
        <ele>281</ele>
        <time>2024-10-21T06:57:58Z</time>
      </trkpt>
      <trkpt lat="45.84582" lon="1.22309">
        <ele>281.1</ele>
        <time>2024-10-21T06:57:59Z</time>
      </trkpt>
      <trkpt lat="45.84583" lon="1.22308">
        <ele>281.2</ele>
        <time>2024-10-21T06:58:00Z</time>
      </trkpt>
      <trkpt lat="45.84585" lon="1.22306">
        <ele>281.4</ele>
        <time>2024-10-21T06:58:01Z</time>
      </trkpt>
      <trkpt lat="45.84586" lon="1.22305">
        <ele>281.5</ele>
        <time>2024-10-21T06:58:02Z</time>
      </trkpt>
      <trkpt lat="45.84587" lon="1.22304">
        <ele>281.6</ele>
        <time>2024-10-21T06:58:03Z</time>
      </trkpt>
      <trkpt lat="45.84589" lon="1.22304">
        <ele>281.7</ele>
        <time>2024-10-21T06:58:04Z</time>
      </trkpt>
      <trkpt lat="45.8459" lon="1.22301">
        <ele>281.9</ele>
        <time>2024-10-21T06:58:05Z</time>
      </trkpt>
      <trkpt lat="45.8459" lon="1.22301">
        <ele>282</ele>
        <time>2024-10-21T06:58:06Z</time>
      </trkpt>
      <trkpt lat="45.84592" lon="1.22301">
        <ele>282.2</ele>
        <time>2024-10-21T06:58:07Z</time>
      </trkpt>
      <trkpt lat="45.84593" lon="1.22301">
        <ele>282.3</ele>
        <time>2024-10-21T06:58:08Z</time>
      </trkpt>
      <trkpt lat="45.84594" lon="1.22301">
        <ele>282.4</ele>
        <time>2024-10-21T06:58:09Z</time>
      </trkpt>
      <trkpt lat="45.84595" lon="1.223">
        <ele>282.5</ele>
        <time>2024-10-21T06:58:10Z</time>
      </trkpt>
      <trkpt lat="45.84596" lon="1.223">
        <ele>282.6</ele>
        <time>2024-10-21T06:58:11Z</time>
      </trkpt>
      <trkpt lat="45.84597" lon="1.223">
        <ele>282.7</ele>
        <time>2024-10-21T06:58:12Z</time>
      </trkpt>
      <trkpt lat="45.84599" lon="1.22301">
        <ele>282.9</ele>
        <time>2024-10-21T06:58:13Z</time>
      </trkpt>
      <trkpt lat="45.846" lon="1.22302">
        <ele>283.1</ele>
        <time>2024-10-21T06:58:14Z</time>
      </trkpt>
      <trkpt lat="45.84602" lon="1.22302">
        <ele>283.3</ele>
        <time>2024-10-21T06:58:15Z</time>
      </trkpt>
      <trkpt lat="45.84603" lon="1.22302">
        <ele>283.4</ele>
        <time>2024-10-21T06:58:16Z</time>
      </trkpt>
      <trkpt lat="45.84604" lon="1.22303">
        <ele>283.5</ele>
        <time>2024-10-21T06:58:17Z</time>
      </trkpt>
      <trkpt lat="45.84605" lon="1.22304">
        <ele>283.8</ele>
        <time>2024-10-21T06:58:18Z</time>
      </trkpt>
      <trkpt lat="45.84607" lon="1.22305">
        <ele>283.9</ele>
        <time>2024-10-21T06:58:19Z</time>
      </trkpt>
      <trkpt lat="45.84608" lon="1.22305">
        <ele>284.1</ele>
        <time>2024-10-21T06:58:20Z</time>
      </trkpt>
      <trkpt lat="45.84609" lon="1.22304">
        <ele>284.2</ele>
        <time>2024-10-21T06:58:21Z</time>
      </trkpt>
      <trkpt lat="45.84611" lon="1.22303">
        <ele>284.4</ele>
        <time>2024-10-21T06:58:22Z</time>
      </trkpt>
      <trkpt lat="45.84612" lon="1.22303">
        <ele>284.5</ele>
        <time>2024-10-21T06:58:23Z</time>
      </trkpt>
      <trkpt lat="45.84613" lon="1.22303">
        <ele>284.6</ele>
        <time>2024-10-21T06:58:24Z</time>
      </trkpt>
      <trkpt lat="45.84614" lon="1.22303">
        <ele>284.8</ele>
        <time>2024-10-21T06:58:25Z</time>
      </trkpt>
      <trkpt lat="45.84615" lon="1.22303">
        <ele>284.8</ele>
        <time>2024-10-21T06:58:26Z</time>
      </trkpt>
      <trkpt lat="45.84615" lon="1.22302">
        <ele>284.9</ele>
        <time>2024-10-21T06:58:27Z</time>
      </trkpt>
      <trkpt lat="45.84616" lon="1.22301">
        <ele>285</ele>
        <time>2024-10-21T06:58:28Z</time>
      </trkpt>
      <trkpt lat="45.84616" lon="1.22301">
        <ele>285</ele>
        <time>2024-10-21T06:58:29Z</time>
      </trkpt>
      <trkpt lat="45.84616" lon="1.223">
        <ele>285.1</ele>
        <time>2024-10-21T06:58:30Z</time>
      </trkpt>
      <trkpt lat="45.84617" lon="1.22299">
        <ele>285.2</ele>
        <time>2024-10-21T06:58:31Z</time>
      </trkpt>
      <trkpt lat="45.84619" lon="1.22298">
        <ele>285.4</ele>
        <time>2024-10-21T06:58:32Z</time>
      </trkpt>
      <trkpt lat="45.8462" lon="1.22297">
        <ele>285.5</ele>
        <time>2024-10-21T06:58:34Z</time>
      </trkpt>
      <trkpt lat="45.84621" lon="1.22295">
        <ele>285.6</ele>
        <time>2024-10-21T06:58:35Z</time>
      </trkpt>
      <trkpt lat="45.84621" lon="1.22294">
        <ele>285.7</ele>
        <time>2024-10-21T06:58:36Z</time>
      </trkpt>
      <trkpt lat="45.84622" lon="1.22292">
        <ele>285.8</ele>
        <time>2024-10-21T06:58:37Z</time>
      </trkpt>
      <trkpt lat="45.84622" lon="1.22291">
        <ele>285.9</ele>
        <time>2024-10-21T06:58:38Z</time>
      </trkpt>
      <trkpt lat="45.84622" lon="1.2229">
        <ele>285.9</ele>
        <time>2024-10-21T06:58:39Z</time>
      </trkpt>
      <trkpt lat="45.84623" lon="1.22289">
        <ele>286</ele>
        <time>2024-10-21T06:58:40Z</time>
      </trkpt>
      <trkpt lat="45.84623" lon="1.22288">
        <ele>286</ele>
        <time>2024-10-21T06:58:41Z</time>
      </trkpt>
      <trkpt lat="45.84624" lon="1.22285">
        <ele>286.2</ele>
        <time>2024-10-21T06:58:42Z</time>
      </trkpt>
      <trkpt lat="45.84624" lon="1.22284">
        <ele>286.2</ele>
        <time>2024-10-21T06:58:44Z</time>
      </trkpt>
      <trkpt lat="45.84625" lon="1.2228">
        <ele>286.4</ele>
        <time>2024-10-21T06:58:45Z</time>
      </trkpt>
      <trkpt lat="45.84625" lon="1.22279">
        <ele>286.4</ele>
        <time>2024-10-21T06:58:46Z</time>
      </trkpt>
      <trkpt lat="45.84625" lon="1.22277">
        <ele>286.5</ele>
        <time>2024-10-21T06:58:47Z</time>
      </trkpt>
      <trkpt lat="45.84626" lon="1.22276">
        <ele>286.6</ele>
        <time>2024-10-21T06:58:48Z</time>
      </trkpt>
      <trkpt lat="45.84626" lon="1.22274">
        <ele>286.7</ele>
        <time>2024-10-21T06:58:49Z</time>
      </trkpt>
      <trkpt lat="45.84627" lon="1.22272">
        <ele>286.8</ele>
        <time>2024-10-21T06:58:50Z</time>
      </trkpt>
      <trkpt lat="45.84627" lon="1.22271">
        <ele>286.8</ele>
        <time>2024-10-21T06:58:51Z</time>
      </trkpt>
      <trkpt lat="45.84627" lon="1.2227">
        <ele>286.8</ele>
        <time>2024-10-21T06:58:52Z</time>
      </trkpt>
      <trkpt lat="45.84628" lon="1.22267">
        <ele>286.9</ele>
        <time>2024-10-21T06:58:53Z</time>
      </trkpt>
      <trkpt lat="45.84628" lon="1.22265">
        <ele>287</ele>
        <time>2024-10-21T06:58:54Z</time>
      </trkpt>
      <trkpt lat="45.84629" lon="1.22264">
        <ele>287</ele>
        <time>2024-10-21T06:58:55Z</time>
      </trkpt>
      <trkpt lat="45.84629" lon="1.22263">
        <ele>287.1</ele>
        <time>2024-10-21T06:58:56Z</time>
      </trkpt>
      <trkpt lat="45.8463" lon="1.22262">
        <ele>287.1</ele>
        <time>2024-10-21T06:58:57Z</time>
      </trkpt>
      <trkpt lat="45.84631" lon="1.22261">
        <ele>287.2</ele>
        <time>2024-10-21T06:58:58Z</time>
      </trkpt>
      <trkpt lat="45.84632" lon="1.2226">
        <ele>287.2</ele>
        <time>2024-10-21T06:58:59Z</time>
      </trkpt>
      <trkpt lat="45.84633" lon="1.22259">
        <ele>287.3</ele>
        <time>2024-10-21T06:59:00Z</time>
      </trkpt>
      <trkpt lat="45.84634" lon="1.22256">
        <ele>287.4</ele>
        <time>2024-10-21T06:59:01Z</time>
      </trkpt>
      <trkpt lat="45.84634" lon="1.22256">
        <ele>287.4</ele>
        <time>2024-10-21T06:59:02Z</time>
      </trkpt>
      <trkpt lat="45.84635" lon="1.22255">
        <ele>287.4</ele>
        <time>2024-10-21T06:59:03Z</time>
      </trkpt>
      <trkpt lat="45.84636" lon="1.22254">
        <ele>287.5</ele>
        <time>2024-10-21T06:59:04Z</time>
      </trkpt>
      <trkpt lat="45.84638" lon="1.22255">
        <ele>287.5</ele>
        <time>2024-10-21T06:59:05Z</time>
      </trkpt>
      <trkpt lat="45.84638" lon="1.22254">
        <ele>287.6</ele>
        <time>2024-10-21T06:59:06Z</time>
      </trkpt>
      <trkpt lat="45.84639" lon="1.22253">
        <ele>287.6</ele>
        <time>2024-10-21T06:59:07Z</time>
      </trkpt>
      <trkpt lat="45.8464" lon="1.22252">
        <ele>287.6</ele>
        <time>2024-10-21T06:59:08Z</time>
      </trkpt>
      <trkpt lat="45.84642" lon="1.22249">
        <ele>287.7</ele>
        <time>2024-10-21T06:59:09Z</time>
      </trkpt>
      <trkpt lat="45.84642" lon="1.22249">
        <ele>287.7</ele>
        <time>2024-10-21T06:59:10Z</time>
      </trkpt>
      <trkpt lat="45.84643" lon="1.22249">
        <ele>287.8</ele>
        <time>2024-10-21T06:59:11Z</time>
      </trkpt>
      <trkpt lat="45.84643" lon="1.22248">
        <ele>287.8</ele>
        <time>2024-10-21T06:59:12Z</time>
      </trkpt>
      <trkpt lat="45.84645" lon="1.22246">
        <ele>287.9</ele>
        <time>2024-10-21T06:59:13Z</time>
      </trkpt>
      <trkpt lat="45.84646" lon="1.22245">
        <ele>287.9</ele>
        <time>2024-10-21T06:59:14Z</time>
      </trkpt>
      <trkpt lat="45.84647" lon="1.22244">
        <ele>288</ele>
        <time>2024-10-21T06:59:15Z</time>
      </trkpt>
      <trkpt lat="45.84649" lon="1.22242">
        <ele>288</ele>
        <time>2024-10-21T06:59:16Z</time>
      </trkpt>
      <trkpt lat="45.84649" lon="1.22241">
        <ele>288.1</ele>
        <time>2024-10-21T06:59:18Z</time>
      </trkpt>
      <trkpt lat="45.8465" lon="1.2224">
        <ele>288.1</ele>
        <time>2024-10-21T06:59:19Z</time>
      </trkpt>
      <trkpt lat="45.84652" lon="1.22239">
        <ele>288.2</ele>
        <time>2024-10-21T06:59:20Z</time>
      </trkpt>
      <trkpt lat="45.84653" lon="1.22239">
        <ele>288.2</ele>
        <time>2024-10-21T06:59:21Z</time>
      </trkpt>
      <trkpt lat="45.84654" lon="1.22238">
        <ele>288.2</ele>
        <time>2024-10-21T06:59:22Z</time>
      </trkpt>
      <trkpt lat="45.84655" lon="1.22238">
        <ele>288.3</ele>
        <time>2024-10-21T06:59:23Z</time>
      </trkpt>
      <trkpt lat="45.84656" lon="1.22237">
        <ele>288.3</ele>
        <time>2024-10-21T06:59:24Z</time>
      </trkpt>
      <trkpt lat="45.84658" lon="1.22236">
        <ele>288.4</ele>
        <time>2024-10-21T06:59:25Z</time>
      </trkpt>
      <trkpt lat="45.84659" lon="1.22235">
        <ele>288.4</ele>
        <time>2024-10-21T06:59:26Z</time>
      </trkpt>
      <trkpt lat="45.8466" lon="1.22235">
        <ele>288.5</ele>
        <time>2024-10-21T06:59:27Z</time>
      </trkpt>
      <trkpt lat="45.84661" lon="1.22235">
        <ele>288.5</ele>
        <time>2024-10-21T06:59:28Z</time>
      </trkpt>
      <trkpt lat="45.8466" lon="1.22234">
        <ele>288.5</ele>
        <time>2024-10-21T06:59:29Z</time>
      </trkpt>
      <trkpt lat="45.8466" lon="1.22232">
        <ele>288.6</ele>
        <time>2024-10-21T06:59:30Z</time>
      </trkpt>
      <trkpt lat="45.84661" lon="1.22231">
        <ele>288.6</ele>
        <time>2024-10-21T06:59:31Z</time>
      </trkpt>
      <trkpt lat="45.84662" lon="1.22231">
        <ele>288.7</ele>
        <time>2024-10-21T06:59:32Z</time>
      </trkpt>
      <trkpt lat="45.84663" lon="1.22231">
        <ele>288.7</ele>
        <time>2024-10-21T06:59:33Z</time>
      </trkpt>
      <trkpt lat="45.84665" lon="1.22231">
        <ele>288.8</ele>
        <time>2024-10-21T06:59:34Z</time>
      </trkpt>
      <trkpt lat="45.84665" lon="1.2223">
        <ele>288.9</ele>
        <time>2024-10-21T06:59:36Z</time>
      </trkpt>
      <trkpt lat="45.84666" lon="1.2223">
        <ele>288.9</ele>
        <time>2024-10-21T06:59:37Z</time>
      </trkpt>
      <trkpt lat="45.84667" lon="1.22229">
        <ele>289</ele>
        <time>2024-10-21T06:59:38Z</time>
      </trkpt>
      <trkpt lat="45.84668" lon="1.22229">
        <ele>289</ele>
        <time>2024-10-21T06:59:39Z</time>
      </trkpt>
      <trkpt lat="45.84669" lon="1.22227">
        <ele>289.1</ele>
        <time>2024-10-21T06:59:40Z</time>
      </trkpt>
      <trkpt lat="45.8467" lon="1.22227">
        <ele>289.1</ele>
        <time>2024-10-21T06:59:41Z</time>
      </trkpt>
      <trkpt lat="45.84671" lon="1.22226">
        <ele>289.2</ele>
        <time>2024-10-21T06:59:42Z</time>
      </trkpt>
      <trkpt lat="45.84672" lon="1.22224">
        <ele>289.3</ele>
        <time>2024-10-21T06:59:43Z</time>
      </trkpt>
      <trkpt lat="45.84673" lon="1.22223">
        <ele>289.4</ele>
        <time>2024-10-21T06:59:44Z</time>
      </trkpt>
      <trkpt lat="45.84673" lon="1.22221">
        <ele>289.4</ele>
        <time>2024-10-21T06:59:45Z</time>
      </trkpt>
      <trkpt lat="45.84674" lon="1.2222">
        <ele>289.5</ele>
        <time>2024-10-21T06:59:46Z</time>
      </trkpt>
      <trkpt lat="45.84674" lon="1.22219">
        <ele>289.5</ele>
        <time>2024-10-21T06:59:47Z</time>
      </trkpt>
      <trkpt lat="45.84675" lon="1.22218">
        <ele>289.6</ele>
        <time>2024-10-21T06:59:48Z</time>
      </trkpt>
      <trkpt lat="45.84675" lon="1.22217">
        <ele>289.6</ele>
        <time>2024-10-21T06:59:49Z</time>
      </trkpt>
      <trkpt lat="45.84677" lon="1.22216">
        <ele>289.8</ele>
        <time>2024-10-21T06:59:50Z</time>
      </trkpt>
      <trkpt lat="45.84677" lon="1.22214">
        <ele>289.8</ele>
        <time>2024-10-21T06:59:51Z</time>
      </trkpt>
      <trkpt lat="45.84678" lon="1.22213">
        <ele>289.9</ele>
        <time>2024-10-21T06:59:52Z</time>
      </trkpt>
      <trkpt lat="45.84679" lon="1.22212">
        <ele>290</ele>
        <time>2024-10-21T06:59:53Z</time>
      </trkpt>
      <trkpt lat="45.84679" lon="1.22211">
        <ele>290.1</ele>
        <time>2024-10-21T06:59:54Z</time>
      </trkpt>
      <trkpt lat="45.8468" lon="1.2221">
        <ele>290.1</ele>
        <time>2024-10-21T06:59:55Z</time>
      </trkpt>
      <trkpt lat="45.8468" lon="1.22209">
        <ele>290.2</ele>
        <time>2024-10-21T06:59:56Z</time>
      </trkpt>
      <trkpt lat="45.84681" lon="1.22208">
        <ele>290.2</ele>
        <time>2024-10-21T06:59:57Z</time>
      </trkpt>
      <trkpt lat="45.84681" lon="1.22207">
        <ele>290.3</ele>
        <time>2024-10-21T06:59:58Z</time>
      </trkpt>
      <trkpt lat="45.84682" lon="1.22204">
        <ele>290.5</ele>
        <time>2024-10-21T06:59:59Z</time>
      </trkpt>
      <trkpt lat="45.84682" lon="1.22204">
        <ele>290.5</ele>
        <time>2024-10-21T07:00:00Z</time>
      </trkpt>
      <trkpt lat="45.84683" lon="1.22203">
        <ele>290.5</ele>
        <time>2024-10-21T07:00:01Z</time>
      </trkpt>
      <trkpt lat="45.84683" lon="1.22202">
        <ele>290.6</ele>
        <time>2024-10-21T07:00:02Z</time>
      </trkpt>
      <trkpt lat="45.84685" lon="1.22199">
        <ele>290.8</ele>
        <time>2024-10-21T07:00:03Z</time>
      </trkpt>
      <trkpt lat="45.84685" lon="1.22198">
        <ele>290.8</ele>
        <time>2024-10-21T07:00:04Z</time>
      </trkpt>
      <trkpt lat="45.84686" lon="1.22197">
        <ele>290.9</ele>
        <time>2024-10-21T07:00:05Z</time>
      </trkpt>
      <trkpt lat="45.84687" lon="1.22196">
        <ele>291</ele>
        <time>2024-10-21T07:00:06Z</time>
      </trkpt>
      <trkpt lat="45.84687" lon="1.22195">
        <ele>291.1</ele>
        <time>2024-10-21T07:00:07Z</time>
      </trkpt>
      <trkpt lat="45.84688" lon="1.22193">
        <ele>291.1</ele>
        <time>2024-10-21T07:00:08Z</time>
      </trkpt>
      <trkpt lat="45.84688" lon="1.22192">
        <ele>291.2</ele>
        <time>2024-10-21T07:00:09Z</time>
      </trkpt>
      <trkpt lat="45.84689" lon="1.22191">
        <ele>291.3</ele>
        <time>2024-10-21T07:00:10Z</time>
      </trkpt>
      <trkpt lat="45.84689" lon="1.2219">
        <ele>291.4</ele>
        <time>2024-10-21T07:00:11Z</time>
      </trkpt>
      <trkpt lat="45.8469" lon="1.22189">
        <ele>291.4</ele>
        <time>2024-10-21T07:00:12Z</time>
      </trkpt>
      <trkpt lat="45.84691" lon="1.22187">
        <ele>291.5</ele>
        <time>2024-10-21T07:00:13Z</time>
      </trkpt>
      <trkpt lat="45.84691" lon="1.22186">
        <ele>291.6</ele>
        <time>2024-10-21T07:00:14Z</time>
      </trkpt>
      <trkpt lat="45.84691" lon="1.22184">
        <ele>291.7</ele>
        <time>2024-10-21T07:00:15Z</time>
      </trkpt>
      <trkpt lat="45.84692" lon="1.22183">
        <ele>291.7</ele>
        <time>2024-10-21T07:00:16Z</time>
      </trkpt>
      <trkpt lat="45.84692" lon="1.22182">
        <ele>291.8</ele>
        <time>2024-10-21T07:00:17Z</time>
      </trkpt>
      <trkpt lat="45.84693" lon="1.2218">
        <ele>291.9</ele>
        <time>2024-10-21T07:00:18Z</time>
      </trkpt>
      <trkpt lat="45.84693" lon="1.22179">
        <ele>292</ele>
        <time>2024-10-21T07:00:19Z</time>
      </trkpt>
      <trkpt lat="45.84694" lon="1.22177">
        <ele>292.1</ele>
        <time>2024-10-21T07:00:20Z</time>
      </trkpt>
      <trkpt lat="45.84694" lon="1.22177">
        <ele>292.1</ele>
        <time>2024-10-21T07:00:21Z</time>
      </trkpt>
      <trkpt lat="45.84695" lon="1.22176">
        <ele>292.2</ele>
        <time>2024-10-21T07:00:22Z</time>
      </trkpt>
      <trkpt lat="45.84696" lon="1.22174">
        <ele>292.3</ele>
        <time>2024-10-21T07:00:23Z</time>
      </trkpt>
      <trkpt lat="45.84696" lon="1.22173">
        <ele>292.4</ele>
        <time>2024-10-21T07:00:24Z</time>
      </trkpt>
      <trkpt lat="45.84697" lon="1.22172">
        <ele>292.5</ele>
        <time>2024-10-21T07:00:25Z</time>
      </trkpt>
      <trkpt lat="45.84697" lon="1.2217">
        <ele>292.5</ele>
        <time>2024-10-21T07:00:26Z</time>
      </trkpt>
      <trkpt lat="45.84698" lon="1.22169">
        <ele>292.6</ele>
        <time>2024-10-21T07:00:27Z</time>
      </trkpt>
      <trkpt lat="45.84699" lon="1.22167">
        <ele>292.7</ele>
        <time>2024-10-21T07:00:28Z</time>
      </trkpt>
      <trkpt lat="45.847" lon="1.22166">
        <ele>292.7</ele>
        <time>2024-10-21T07:00:29Z</time>
      </trkpt>
      <trkpt lat="45.847" lon="1.22165">
        <ele>292.8</ele>
        <time>2024-10-21T07:00:30Z</time>
      </trkpt>
      <trkpt lat="45.84701" lon="1.22163">
        <ele>292.8</ele>
        <time>2024-10-21T07:00:31Z</time>
      </trkpt>
      <trkpt lat="45.84701" lon="1.22162">
        <ele>292.9</ele>
        <time>2024-10-21T07:00:32Z</time>
      </trkpt>
      <trkpt lat="45.84702" lon="1.22161">
        <ele>292.9</ele>
        <time>2024-10-21T07:00:33Z</time>
      </trkpt>
      <trkpt lat="45.84703" lon="1.22159">
        <ele>293</ele>
        <time>2024-10-21T07:00:34Z</time>
      </trkpt>
      <trkpt lat="45.84703" lon="1.22158">
        <ele>293</ele>
        <time>2024-10-21T07:00:35Z</time>
      </trkpt>
      <trkpt lat="45.84703" lon="1.22157">
        <ele>293.1</ele>
        <time>2024-10-21T07:00:36Z</time>
      </trkpt>
      <trkpt lat="45.84704" lon="1.22156">
        <ele>293.2</ele>
        <time>2024-10-21T07:00:37Z</time>
      </trkpt>
      <trkpt lat="45.84705" lon="1.22154">
        <ele>293.3</ele>
        <time>2024-10-21T07:00:38Z</time>
      </trkpt>
      <trkpt lat="45.84705" lon="1.22153">
        <ele>293.4</ele>
        <time>2024-10-21T07:00:39Z</time>
      </trkpt>
      <trkpt lat="45.84706" lon="1.22152">
        <ele>293.5</ele>
        <time>2024-10-21T07:00:40Z</time>
      </trkpt>
      <trkpt lat="45.84706" lon="1.22151">
        <ele>293.6</ele>
        <time>2024-10-21T07:00:41Z</time>
      </trkpt>
      <trkpt lat="45.84707" lon="1.2215">
        <ele>293.7</ele>
        <time>2024-10-21T07:00:42Z</time>
      </trkpt>
      <trkpt lat="45.84708" lon="1.22148">
        <ele>293.8</ele>
        <time>2024-10-21T07:00:43Z</time>
      </trkpt>
      <trkpt lat="45.84708" lon="1.22148">
        <ele>293.8</ele>
        <time>2024-10-21T07:00:44Z</time>
      </trkpt>
      <trkpt lat="45.84709" lon="1.22147">
        <ele>293.9</ele>
        <time>2024-10-21T07:00:45Z</time>
      </trkpt>
      <trkpt lat="45.84709" lon="1.22147">
        <ele>293.9</ele>
        <time>2024-10-21T07:00:46Z</time>
      </trkpt>
      <trkpt lat="45.84709" lon="1.22146">
        <ele>293.9</ele>
        <time>2024-10-21T07:00:47Z</time>
      </trkpt>
      <trkpt lat="45.84711" lon="1.22145">
        <ele>294</ele>
        <time>2024-10-21T07:00:48Z</time>
      </trkpt>
      <trkpt lat="45.84712" lon="1.22144">
        <ele>294</ele>
        <time>2024-10-21T07:00:49Z</time>
      </trkpt>
      <trkpt lat="45.84713" lon="1.22144">
        <ele>294.1</ele>
        <time>2024-10-21T07:00:50Z</time>
      </trkpt>
      <trkpt lat="45.84715" lon="1.22144">
        <ele>294.1</ele>
        <time>2024-10-21T07:00:51Z</time>
      </trkpt>
      <trkpt lat="45.84716" lon="1.22144">
        <ele>294.1</ele>
        <time>2024-10-21T07:00:52Z</time>
      </trkpt>
      <trkpt lat="45.84717" lon="1.22144">
        <ele>294.1</ele>
        <time>2024-10-21T07:00:53Z</time>
      </trkpt>
      <trkpt lat="45.84719" lon="1.22145">
        <ele>294.2</ele>
        <time>2024-10-21T07:00:54Z</time>
      </trkpt>
      <trkpt lat="45.8472" lon="1.22147">
        <ele>294.2</ele>
        <time>2024-10-21T07:00:55Z</time>
      </trkpt>
      <trkpt lat="45.84722" lon="1.22148">
        <ele>294.2</ele>
        <time>2024-10-21T07:00:56Z</time>
      </trkpt>
      <trkpt lat="45.84722" lon="1.22149">
        <ele>294.2</ele>
        <time>2024-10-21T07:00:57Z</time>
      </trkpt>
      <trkpt lat="45.84723" lon="1.22149">
        <ele>294.2</ele>
        <time>2024-10-21T07:00:58Z</time>
      </trkpt>
      <trkpt lat="45.84725" lon="1.22151">
        <ele>294.2</ele>
        <time>2024-10-21T07:00:59Z</time>
      </trkpt>
      <trkpt lat="45.84725" lon="1.22152">
        <ele>294.2</ele>
        <time>2024-10-21T07:01:00Z</time>
      </trkpt>
      <trkpt lat="45.84726" lon="1.22153">
        <ele>294.2</ele>
        <time>2024-10-21T07:01:01Z</time>
      </trkpt>
      <trkpt lat="45.84727" lon="1.22154">
        <ele>294.2</ele>
        <time>2024-10-21T07:01:02Z</time>
      </trkpt>
      <trkpt lat="45.84729" lon="1.22154">
        <ele>294.2</ele>
        <time>2024-10-21T07:01:03Z</time>
      </trkpt>
      <trkpt lat="45.8473" lon="1.22155">
        <ele>294.2</ele>
        <time>2024-10-21T07:01:04Z</time>
      </trkpt>
      <trkpt lat="45.84731" lon="1.22158">
        <ele>294.2</ele>
        <time>2024-10-21T07:01:05Z</time>
      </trkpt>
      <trkpt lat="45.84731" lon="1.22159">
        <ele>294.2</ele>
        <time>2024-10-21T07:01:06Z</time>
      </trkpt>
      <trkpt lat="45.84733" lon="1.22159">
        <ele>294.2</ele>
        <time>2024-10-21T07:01:07Z</time>
      </trkpt>
      <trkpt lat="45.84734" lon="1.2216">
        <ele>294.2</ele>
        <time>2024-10-21T07:01:08Z</time>
      </trkpt>
      <trkpt lat="45.84735" lon="1.2216">
        <ele>294.2</ele>
        <time>2024-10-21T07:01:09Z</time>
      </trkpt>
      <trkpt lat="45.84737" lon="1.2216">
        <ele>294.1</ele>
        <time>2024-10-21T07:01:10Z</time>
      </trkpt>
      <trkpt lat="45.84738" lon="1.2216">
        <ele>294.1</ele>
        <time>2024-10-21T07:01:11Z</time>
      </trkpt>
      <trkpt lat="45.84739" lon="1.22161">
        <ele>294.1</ele>
        <time>2024-10-21T07:01:12Z</time>
      </trkpt>
      <trkpt lat="45.8474" lon="1.22161">
        <ele>294.1</ele>
        <time>2024-10-21T07:01:13Z</time>
      </trkpt>
      <trkpt lat="45.84742" lon="1.22163">
        <ele>294</ele>
        <time>2024-10-21T07:01:14Z</time>
      </trkpt>
      <trkpt lat="45.84743" lon="1.22164">
        <ele>294</ele>
        <time>2024-10-21T07:01:15Z</time>
      </trkpt>
      <trkpt lat="45.84743" lon="1.22164">
        <ele>294</ele>
        <time>2024-10-21T07:01:16Z</time>
      </trkpt>
      <trkpt lat="45.84746" lon="1.22165">
        <ele>293.9</ele>
        <time>2024-10-21T07:01:17Z</time>
      </trkpt>
      <trkpt lat="45.84746" lon="1.22165">
        <ele>293.9</ele>
        <time>2024-10-21T07:01:18Z</time>
      </trkpt>
      <trkpt lat="45.84747" lon="1.22166">
        <ele>293.9</ele>
        <time>2024-10-21T07:01:19Z</time>
      </trkpt>
      <trkpt lat="45.84749" lon="1.22166">
        <ele>293.8</ele>
        <time>2024-10-21T07:01:20Z</time>
      </trkpt>
      <trkpt lat="45.8475" lon="1.22166">
        <ele>293.8</ele>
        <time>2024-10-21T07:01:21Z</time>
      </trkpt>
      <trkpt lat="45.84753" lon="1.22165">
        <ele>293.7</ele>
        <time>2024-10-21T07:01:22Z</time>
      </trkpt>
      <trkpt lat="45.84754" lon="1.22165">
        <ele>293.7</ele>
        <time>2024-10-21T07:01:23Z</time>
      </trkpt>
      <trkpt lat="45.84755" lon="1.22164">
        <ele>293.7</ele>
        <time>2024-10-21T07:01:24Z</time>
      </trkpt>
      <trkpt lat="45.84756" lon="1.22164">
        <ele>293.7</ele>
        <time>2024-10-21T07:01:26Z</time>
      </trkpt>
      <trkpt lat="45.84756" lon="1.22163">
        <ele>293.6</ele>
        <time>2024-10-21T07:01:27Z</time>
      </trkpt>
      <trkpt lat="45.84757" lon="1.22161">
        <ele>293.6</ele>
        <time>2024-10-21T07:01:28Z</time>
      </trkpt>
      <trkpt lat="45.84758" lon="1.22159">
        <ele>293.6</ele>
        <time>2024-10-21T07:01:29Z</time>
      </trkpt>
      <trkpt lat="45.84758" lon="1.22157">
        <ele>293.6</ele>
        <time>2024-10-21T07:01:30Z</time>
      </trkpt>
      <trkpt lat="45.84758" lon="1.22157">
        <ele>293.6</ele>
        <time>2024-10-21T07:01:31Z</time>
      </trkpt>
      <trkpt lat="45.84759" lon="1.22155">
        <ele>293.5</ele>
        <time>2024-10-21T07:01:32Z</time>
      </trkpt>
      <trkpt lat="45.8476" lon="1.22153">
        <ele>293.5</ele>
        <time>2024-10-21T07:01:33Z</time>
      </trkpt>
      <trkpt lat="45.8476" lon="1.22152">
        <ele>293.5</ele>
        <time>2024-10-21T07:01:34Z</time>
      </trkpt>
      <trkpt lat="45.84761" lon="1.22151">
        <ele>293.5</ele>
        <time>2024-10-21T07:01:35Z</time>
      </trkpt>
      <trkpt lat="45.8476" lon="1.22151">
        <ele>293.5</ele>
        <time>2024-10-21T07:01:36Z</time>
      </trkpt>
      <trkpt lat="45.8476" lon="1.22151">
        <ele>293.5</ele>
        <time>2024-10-21T07:01:37Z</time>
      </trkpt>
      <trkpt lat="45.8476" lon="1.2215">
        <ele>293.5</ele>
        <time>2024-10-21T07:01:38Z</time>
      </trkpt>
      <trkpt lat="45.84761" lon="1.2215">
        <ele>293.5</ele>
        <time>2024-10-21T07:01:39Z</time>
      </trkpt>
      <trkpt lat="45.84761" lon="1.22149">
        <ele>293.5</ele>
        <time>2024-10-21T07:01:40Z</time>
      </trkpt>
      <trkpt lat="45.84761" lon="1.22149">
        <ele>293.5</ele>
        <time>2024-10-21T07:01:41Z</time>
      </trkpt>
      <trkpt lat="45.84762" lon="1.22149">
        <ele>293.5</ele>
        <time>2024-10-21T07:01:42Z</time>
      </trkpt>
      <trkpt lat="45.84763" lon="1.22149">
        <ele>293.5</ele>
        <time>2024-10-21T07:01:43Z</time>
      </trkpt>
      <trkpt lat="45.84764" lon="1.22149">
        <ele>293.4</ele>
        <time>2024-10-21T07:01:44Z</time>
      </trkpt>
      <trkpt lat="45.84763" lon="1.22151">
        <ele>293.4</ele>
        <time>2024-10-21T07:01:45Z</time>
      </trkpt>
      <trkpt lat="45.84763" lon="1.22152">
        <ele>293.4</ele>
        <time>2024-10-21T07:01:46Z</time>
      </trkpt>
      <trkpt lat="45.84764" lon="1.22153">
        <ele>293.4</ele>
        <time>2024-10-21T07:01:47Z</time>
      </trkpt>
      <trkpt lat="45.84764" lon="1.22154">
        <ele>293.4</ele>
        <time>2024-10-21T07:01:48Z</time>
      </trkpt>
      <trkpt lat="45.84765" lon="1.22154">
        <ele>293.4</ele>
        <time>2024-10-21T07:01:49Z</time>
      </trkpt>
      <trkpt lat="45.84765" lon="1.22154">
        <ele>293.4</ele>
        <time>2024-10-21T07:01:50Z</time>
      </trkpt>
      <trkpt lat="45.84765" lon="1.22153">
        <ele>293.4</ele>
        <time>2024-10-21T07:01:51Z</time>
      </trkpt>
      <trkpt lat="45.84765" lon="1.22153">
        <ele>293.4</ele>
        <time>2024-10-21T07:01:52Z</time>
      </trkpt>
      <trkpt lat="45.84766" lon="1.22152">
        <ele>293.4</ele>
        <time>2024-10-21T07:01:53Z</time>
      </trkpt>
      <trkpt lat="45.84766" lon="1.22152">
        <ele>293.4</ele>
        <time>2024-10-21T07:01:54Z</time>
      </trkpt>
      <trkpt lat="45.84767" lon="1.22152">
        <ele>293.4</ele>
        <time>2024-10-21T07:01:55Z</time>
      </trkpt>
      <trkpt lat="45.84769" lon="1.2215">
        <ele>293.3</ele>
        <time>2024-10-21T07:01:56Z</time>
      </trkpt>
      <trkpt lat="45.8477" lon="1.22149">
        <ele>293.3</ele>
        <time>2024-10-21T07:01:57Z</time>
      </trkpt>
      <trkpt lat="45.84772" lon="1.22149">
        <ele>293.3</ele>
        <time>2024-10-21T07:01:58Z</time>
      </trkpt>
      <trkpt lat="45.84773" lon="1.22149">
        <ele>293.3</ele>
        <time>2024-10-21T07:01:59Z</time>
      </trkpt>
      <trkpt lat="45.84774" lon="1.22149">
        <ele>293.3</ele>
        <time>2024-10-21T07:02:00Z</time>
      </trkpt>
      <trkpt lat="45.84775" lon="1.22149">
        <ele>293.2</ele>
        <time>2024-10-21T07:02:01Z</time>
      </trkpt>
      <trkpt lat="45.84776" lon="1.22149">
        <ele>293.2</ele>
        <time>2024-10-21T07:02:02Z</time>
      </trkpt>
      <trkpt lat="45.84777" lon="1.22149">
        <ele>293.2</ele>
        <time>2024-10-21T07:02:03Z</time>
      </trkpt>
      <trkpt lat="45.84778" lon="1.2215">
        <ele>293.2</ele>
        <time>2024-10-21T07:02:04Z</time>
      </trkpt>
      <trkpt lat="45.84779" lon="1.22151">
        <ele>293.1</ele>
        <time>2024-10-21T07:02:05Z</time>
      </trkpt>
      <trkpt lat="45.84781" lon="1.22151">
        <ele>293.1</ele>
        <time>2024-10-21T07:02:06Z</time>
      </trkpt>
      <trkpt lat="45.84782" lon="1.22152">
        <ele>293.1</ele>
        <time>2024-10-21T07:02:07Z</time>
      </trkpt>
      <trkpt lat="45.84783" lon="1.22154">
        <ele>293</ele>
        <time>2024-10-21T07:02:08Z</time>
      </trkpt>
      <trkpt lat="45.84785" lon="1.22155">
        <ele>293</ele>
        <time>2024-10-21T07:02:09Z</time>
      </trkpt>
      <trkpt lat="45.84786" lon="1.22157">
        <ele>293</ele>
        <time>2024-10-21T07:02:10Z</time>
      </trkpt>
      <trkpt lat="45.84787" lon="1.22158">
        <ele>292.9</ele>
        <time>2024-10-21T07:02:11Z</time>
      </trkpt>
      <trkpt lat="45.84789" lon="1.22158">
        <ele>292.9</ele>
        <time>2024-10-21T07:02:12Z</time>
      </trkpt>
      <trkpt lat="45.8479" lon="1.22159">
        <ele>292.9</ele>
        <time>2024-10-21T07:02:13Z</time>
      </trkpt>
      <trkpt lat="45.84792" lon="1.22159">
        <ele>292.9</ele>
        <time>2024-10-21T07:02:14Z</time>
      </trkpt>
      <trkpt lat="45.84794" lon="1.2216">
        <ele>292.8</ele>
        <time>2024-10-21T07:02:15Z</time>
      </trkpt>
      <trkpt lat="45.84795" lon="1.22161">
        <ele>292.8</ele>
        <time>2024-10-21T07:02:16Z</time>
      </trkpt>
      <trkpt lat="45.84797" lon="1.22161">
        <ele>292.8</ele>
        <time>2024-10-21T07:02:17Z</time>
      </trkpt>
      <trkpt lat="45.84798" lon="1.22162">
        <ele>292.8</ele>
        <time>2024-10-21T07:02:18Z</time>
      </trkpt>
      <trkpt lat="45.84799" lon="1.22163">
        <ele>292.8</ele>
        <time>2024-10-21T07:02:19Z</time>
      </trkpt>
      <trkpt lat="45.84801" lon="1.22164">
        <ele>292.8</ele>
        <time>2024-10-21T07:02:20Z</time>
      </trkpt>
      <trkpt lat="45.84802" lon="1.22165">
        <ele>292.8</ele>
        <time>2024-10-21T07:02:21Z</time>
      </trkpt>
      <trkpt lat="45.84803" lon="1.22166">
        <ele>292.8</ele>
        <time>2024-10-21T07:02:22Z</time>
      </trkpt>
      <trkpt lat="45.84805" lon="1.22167">
        <ele>292.8</ele>
        <time>2024-10-21T07:02:23Z</time>
      </trkpt>
      <trkpt lat="45.84806" lon="1.22169">
        <ele>292.8</ele>
        <time>2024-10-21T07:02:24Z</time>
      </trkpt>
      <trkpt lat="45.84808" lon="1.2217">
        <ele>292.8</ele>
        <time>2024-10-21T07:02:25Z</time>
      </trkpt>
      <trkpt lat="45.8481" lon="1.22173">
        <ele>292.9</ele>
        <time>2024-10-21T07:02:26Z</time>
      </trkpt>
      <trkpt lat="45.8481" lon="1.22174">
        <ele>292.9</ele>
        <time>2024-10-21T07:02:27Z</time>
      </trkpt>
      <trkpt lat="45.84811" lon="1.22176">
        <ele>293</ele>
        <time>2024-10-21T07:02:28Z</time>
      </trkpt>
      <trkpt lat="45.84812" lon="1.22178">
        <ele>293</ele>
        <time>2024-10-21T07:02:29Z</time>
      </trkpt>
      <trkpt lat="45.84813" lon="1.2218">
        <ele>293.1</ele>
        <time>2024-10-21T07:02:30Z</time>
      </trkpt>
      <trkpt lat="45.84814" lon="1.22181">
        <ele>293.1</ele>
        <time>2024-10-21T07:02:31Z</time>
      </trkpt>
      <trkpt lat="45.84816" lon="1.22183">
        <ele>293.1</ele>
        <time>2024-10-21T07:02:32Z</time>
      </trkpt>
      <trkpt lat="45.84817" lon="1.22183">
        <ele>293.2</ele>
        <time>2024-10-21T07:02:33Z</time>
      </trkpt>
      <trkpt lat="45.84817" lon="1.22184">
        <ele>293.2</ele>
        <time>2024-10-21T07:02:34Z</time>
      </trkpt>
      <trkpt lat="45.84819" lon="1.22186">
        <ele>293.2</ele>
        <time>2024-10-21T07:02:35Z</time>
      </trkpt>
      <trkpt lat="45.8482" lon="1.22186">
        <ele>293.3</ele>
        <time>2024-10-21T07:02:36Z</time>
      </trkpt>
      <trkpt lat="45.84821" lon="1.22186">
        <ele>293.3</ele>
        <time>2024-10-21T07:02:37Z</time>
      </trkpt>
      <trkpt lat="45.84822" lon="1.22187">
        <ele>293.3</ele>
        <time>2024-10-21T07:02:38Z</time>
      </trkpt>
      <trkpt lat="45.84824" lon="1.22188">
        <ele>293.4</ele>
        <time>2024-10-21T07:02:39Z</time>
      </trkpt>
      <trkpt lat="45.84825" lon="1.22188">
        <ele>293.4</ele>
        <time>2024-10-21T07:02:40Z</time>
      </trkpt>
      <trkpt lat="45.84826" lon="1.22188">
        <ele>293.4</ele>
        <time>2024-10-21T07:02:41Z</time>
      </trkpt>
      <trkpt lat="45.84825" lon="1.22186">
        <ele>293.5</ele>
        <time>2024-10-21T07:02:42Z</time>
      </trkpt>
      <trkpt lat="45.84824" lon="1.22186">
        <ele>293.5</ele>
        <time>2024-10-21T07:02:43Z</time>
      </trkpt>
      <trkpt lat="45.84824" lon="1.22187">
        <ele>293.5</ele>
        <time>2024-10-21T07:02:44Z</time>
      </trkpt>
      <trkpt lat="45.84824" lon="1.22186">
        <ele>293.5</ele>
        <time>2024-10-21T07:02:45Z</time>
      </trkpt>
      <trkpt lat="45.84824" lon="1.22185">
        <ele>293.5</ele>
        <time>2024-10-21T07:02:46Z</time>
      </trkpt>
      <trkpt lat="45.84824" lon="1.22183">
        <ele>293.6</ele>
        <time>2024-10-21T07:02:47Z</time>
      </trkpt>
      <trkpt lat="45.84824" lon="1.22179">
        <ele>293.7</ele>
        <time>2024-10-21T07:02:48Z</time>
      </trkpt>
      <trkpt lat="45.84824" lon="1.22178">
        <ele>293.7</ele>
        <time>2024-10-21T07:02:49Z</time>
      </trkpt>
      <trkpt lat="45.84823" lon="1.22173">
        <ele>293.8</ele>
        <time>2024-10-21T07:02:50Z</time>
      </trkpt>
      <trkpt lat="45.84823" lon="1.22172">
        <ele>293.8</ele>
        <time>2024-10-21T07:02:51Z</time>
      </trkpt>
      <trkpt lat="45.84823" lon="1.2217">
        <ele>293.9</ele>
        <time>2024-10-21T07:02:52Z</time>
      </trkpt>
      <trkpt lat="45.84823" lon="1.22168">
        <ele>293.9</ele>
        <time>2024-10-21T07:02:53Z</time>
      </trkpt>
      <trkpt lat="45.84823" lon="1.22166">
        <ele>294</ele>
        <time>2024-10-21T07:02:54Z</time>
      </trkpt>
      <trkpt lat="45.84823" lon="1.22163">
        <ele>294</ele>
        <time>2024-10-21T07:02:55Z</time>
      </trkpt>
      <trkpt lat="45.84823" lon="1.22162">
        <ele>294.1</ele>
        <time>2024-10-21T07:02:56Z</time>
      </trkpt>
      <trkpt lat="45.84823" lon="1.22161">
        <ele>294.1</ele>
        <time>2024-10-21T07:02:57Z</time>
      </trkpt>
      <trkpt lat="45.84823" lon="1.22159">
        <ele>294.1</ele>
        <time>2024-10-21T07:02:58Z</time>
      </trkpt>
      <trkpt lat="45.84823" lon="1.22157">
        <ele>294.2</ele>
        <time>2024-10-21T07:02:59Z</time>
      </trkpt>
      <trkpt lat="45.84824" lon="1.22155">
        <ele>294.2</ele>
        <time>2024-10-21T07:03:00Z</time>
      </trkpt>
      <trkpt lat="45.84825" lon="1.22153">
        <ele>294.3</ele>
        <time>2024-10-21T07:03:01Z</time>
      </trkpt>
      <trkpt lat="45.84825" lon="1.22153">
        <ele>294.3</ele>
        <time>2024-10-21T07:03:02Z</time>
      </trkpt>
      <trkpt lat="45.84825" lon="1.22151">
        <ele>294.3</ele>
        <time>2024-10-21T07:03:03Z</time>
      </trkpt>
      <trkpt lat="45.84826" lon="1.2215">
        <ele>294.4</ele>
        <time>2024-10-21T07:03:04Z</time>
      </trkpt>
      <trkpt lat="45.84826" lon="1.22148">
        <ele>294.4</ele>
        <time>2024-10-21T07:03:05Z</time>
      </trkpt>
      <trkpt lat="45.84827" lon="1.22147">
        <ele>294.5</ele>
        <time>2024-10-21T07:03:06Z</time>
      </trkpt>
      <trkpt lat="45.84826" lon="1.22146">
        <ele>294.5</ele>
        <time>2024-10-21T07:03:07Z</time>
      </trkpt>
      <trkpt lat="45.84826" lon="1.22146">
        <ele>294.5</ele>
        <time>2024-10-21T07:03:08Z</time>
      </trkpt>
      <trkpt lat="45.84826" lon="1.22146">
        <ele>294.5</ele>
        <time>2024-10-21T07:03:09Z</time>
      </trkpt>
      <trkpt lat="45.84826" lon="1.22147">
        <ele>294.5</ele>
        <time>2024-10-21T07:03:10Z</time>
      </trkpt>
      <trkpt lat="45.84827" lon="1.22147">
        <ele>294.6</ele>
        <time>2024-10-21T07:03:11Z</time>
      </trkpt>
      <trkpt lat="45.84826" lon="1.22147">
        <ele>294.6</ele>
        <time>2024-10-21T07:03:12Z</time>
      </trkpt>
      <trkpt lat="45.84826" lon="1.22147">
        <ele>294.6</ele>
        <time>2024-10-21T07:03:13Z</time>
      </trkpt>
      <trkpt lat="45.84826" lon="1.22147">
        <ele>294.6</ele>
        <time>2024-10-21T07:03:14Z</time>
      </trkpt>
      <trkpt lat="45.84826" lon="1.22147">
        <ele>294.6</ele>
        <time>2024-10-21T07:03:15Z</time>
      </trkpt>
      <trkpt lat="45.84826" lon="1.22147">
        <ele>294.6</ele>
        <time>2024-10-21T07:03:16Z</time>
      </trkpt>
      <trkpt lat="45.84826" lon="1.22147">
        <ele>294.6</ele>
        <time>2024-10-21T07:03:17Z</time>
      </trkpt>
      <trkpt lat="45.84826" lon="1.22147">
        <ele>294.6</ele>
        <time>2024-10-21T07:03:18Z</time>
      </trkpt>
      <trkpt lat="45.84826" lon="1.22146">
        <ele>294.6</ele>
        <time>2024-10-21T07:03:19Z</time>
      </trkpt>
      <trkpt lat="45.84826" lon="1.22146">
        <ele>294.6</ele>
        <time>2024-10-21T07:03:20Z</time>
      </trkpt>
      <trkpt lat="45.84826" lon="1.22145">
        <ele>294.6</ele>
        <time>2024-10-21T07:03:22Z</time>
      </trkpt>
      <trkpt lat="45.84826" lon="1.22145">
        <ele>294.7</ele>
        <time>2024-10-21T07:03:23Z</time>
      </trkpt>
      <trkpt lat="45.84826" lon="1.22144">
        <ele>294.7</ele>
        <time>2024-10-21T07:03:24Z</time>
      </trkpt>
      <trkpt lat="45.84827" lon="1.22142">
        <ele>294.8</ele>
        <time>2024-10-21T07:03:25Z</time>
      </trkpt>
      <trkpt lat="45.84827" lon="1.22142">
        <ele>294.8</ele>
        <time>2024-10-21T07:03:26Z</time>
      </trkpt>
      <trkpt lat="45.84828" lon="1.2214">
        <ele>294.9</ele>
        <time>2024-10-21T07:03:27Z</time>
      </trkpt>
      <trkpt lat="45.84828" lon="1.2214">
        <ele>294.9</ele>
        <time>2024-10-21T07:03:28Z</time>
      </trkpt>
      <trkpt lat="45.84828" lon="1.2214">
        <ele>294.9</ele>
        <time>2024-10-21T07:03:29Z</time>
      </trkpt>
      <trkpt lat="45.84828" lon="1.2214">
        <ele>294.9</ele>
        <time>2024-10-21T07:03:30Z</time>
      </trkpt>
      <trkpt lat="45.84828" lon="1.2214">
        <ele>294.9</ele>
        <time>2024-10-21T07:03:31Z</time>
      </trkpt>
      <trkpt lat="45.84828" lon="1.22139">
        <ele>294.9</ele>
        <time>2024-10-21T07:03:32Z</time>
      </trkpt>
      <trkpt lat="45.84828" lon="1.22139">
        <ele>294.9</ele>
        <time>2024-10-21T07:03:33Z</time>
      </trkpt>
      <trkpt lat="45.84829" lon="1.22138">
        <ele>295</ele>
        <time>2024-10-21T07:03:34Z</time>
      </trkpt>
      <trkpt lat="45.84829" lon="1.22137">
        <ele>295</ele>
        <time>2024-10-21T07:03:35Z</time>
      </trkpt>
      <trkpt lat="45.8483" lon="1.22136">
        <ele>295.1</ele>
        <time>2024-10-21T07:03:36Z</time>
      </trkpt>
      <trkpt lat="45.8483" lon="1.22136">
        <ele>295.2</ele>
        <time>2024-10-21T07:03:37Z</time>
      </trkpt>
      <trkpt lat="45.84831" lon="1.22135">
        <ele>295.2</ele>
        <time>2024-10-21T07:03:38Z</time>
      </trkpt>
      <trkpt lat="45.84832" lon="1.22134">
        <ele>295.3</ele>
        <time>2024-10-21T07:03:39Z</time>
      </trkpt>
      <trkpt lat="45.84834" lon="1.22131">
        <ele>295.5</ele>
        <time>2024-10-21T07:03:40Z</time>
      </trkpt>
      <trkpt lat="45.84834" lon="1.2213">
        <ele>295.6</ele>
        <time>2024-10-21T07:03:41Z</time>
      </trkpt>
      <trkpt lat="45.84835" lon="1.22127">
        <ele>295.8</ele>
        <time>2024-10-21T07:03:42Z</time>
      </trkpt>
      <trkpt lat="45.84836" lon="1.22125">
        <ele>295.9</ele>
        <time>2024-10-21T07:03:43Z</time>
      </trkpt>
      <trkpt lat="45.84837" lon="1.2212">
        <ele>296.3</ele>
        <time>2024-10-21T07:03:44Z</time>
      </trkpt>
      <trkpt lat="45.84838" lon="1.22118">
        <ele>296.4</ele>
        <time>2024-10-21T07:03:45Z</time>
      </trkpt>
      <trkpt lat="45.84839" lon="1.22116">
        <ele>296.6</ele>
        <time>2024-10-21T07:03:47Z</time>
      </trkpt>
      <trkpt lat="45.8484" lon="1.22115">
        <ele>296.7</ele>
        <time>2024-10-21T07:03:48Z</time>
      </trkpt>
      <trkpt lat="45.8484" lon="1.22114">
        <ele>296.8</ele>
        <time>2024-10-21T07:03:49Z</time>
      </trkpt>
      <trkpt lat="45.84841" lon="1.22112">
        <ele>296.9</ele>
        <time>2024-10-21T07:03:50Z</time>
      </trkpt>
      <trkpt lat="45.84841" lon="1.2211">
        <ele>297</ele>
        <time>2024-10-21T07:03:51Z</time>
      </trkpt>
      <trkpt lat="45.84841" lon="1.22109">
        <ele>297.1</ele>
        <time>2024-10-21T07:03:52Z</time>
      </trkpt>
      <trkpt lat="45.84842" lon="1.22107">
        <ele>297.3</ele>
        <time>2024-10-21T07:03:53Z</time>
      </trkpt>
      <trkpt lat="45.84842" lon="1.22106">
        <ele>297.4</ele>
        <time>2024-10-21T07:03:54Z</time>
      </trkpt>
      <trkpt lat="45.84843" lon="1.22104">
        <ele>297.5</ele>
        <time>2024-10-21T07:03:55Z</time>
      </trkpt>
      <trkpt lat="45.84843" lon="1.22103">
        <ele>297.6</ele>
        <time>2024-10-21T07:03:56Z</time>
      </trkpt>
      <trkpt lat="45.84844" lon="1.22102">
        <ele>297.7</ele>
        <time>2024-10-21T07:03:57Z</time>
      </trkpt>
      <trkpt lat="45.84845" lon="1.22099">
        <ele>297.9</ele>
        <time>2024-10-21T07:03:58Z</time>
      </trkpt>
      <trkpt lat="45.84845" lon="1.22098">
        <ele>298</ele>
        <time>2024-10-21T07:03:59Z</time>
      </trkpt>
      <trkpt lat="45.84846" lon="1.22097">
        <ele>298.1</ele>
        <time>2024-10-21T07:04:00Z</time>
      </trkpt>
      <trkpt lat="45.84846" lon="1.22096">
        <ele>298.2</ele>
        <time>2024-10-21T07:04:01Z</time>
      </trkpt>
      <trkpt lat="45.84847" lon="1.22095">
        <ele>298.3</ele>
        <time>2024-10-21T07:04:02Z</time>
      </trkpt>
      <trkpt lat="45.84847" lon="1.22093">
        <ele>298.4</ele>
        <time>2024-10-21T07:04:03Z</time>
      </trkpt>
      <trkpt lat="45.84848" lon="1.22092">
        <ele>298.5</ele>
        <time>2024-10-21T07:04:04Z</time>
      </trkpt>
      <trkpt lat="45.84848" lon="1.2209">
        <ele>298.6</ele>
        <time>2024-10-21T07:04:05Z</time>
      </trkpt>
      <trkpt lat="45.84849" lon="1.22088">
        <ele>298.8</ele>
        <time>2024-10-21T07:04:06Z</time>
      </trkpt>
      <trkpt lat="45.84849" lon="1.22086">
        <ele>298.9</ele>
        <time>2024-10-21T07:04:07Z</time>
      </trkpt>
      <trkpt lat="45.8485" lon="1.22083">
        <ele>299.2</ele>
        <time>2024-10-21T07:04:08Z</time>
      </trkpt>
      <trkpt lat="45.8485" lon="1.22082">
        <ele>299.2</ele>
        <time>2024-10-21T07:04:09Z</time>
      </trkpt>
      <trkpt lat="45.84851" lon="1.2208">
        <ele>299.3</ele>
        <time>2024-10-21T07:04:10Z</time>
      </trkpt>
      <trkpt lat="45.84851" lon="1.22078">
        <ele>299.5</ele>
        <time>2024-10-21T07:04:11Z</time>
      </trkpt>
      <trkpt lat="45.84852" lon="1.22077">
        <ele>299.6</ele>
        <time>2024-10-21T07:04:12Z</time>
      </trkpt>
      <trkpt lat="45.84853" lon="1.22074">
        <ele>299.8</ele>
        <time>2024-10-21T07:04:13Z</time>
      </trkpt>
      <trkpt lat="45.84853" lon="1.22073">
        <ele>299.9</ele>
        <time>2024-10-21T07:04:14Z</time>
      </trkpt>
      <trkpt lat="45.84854" lon="1.22072">
        <ele>300</ele>
        <time>2024-10-21T07:04:15Z</time>
      </trkpt>
      <trkpt lat="45.84854" lon="1.22071">
        <ele>300.1</ele>
        <time>2024-10-21T07:04:16Z</time>
      </trkpt>
      <trkpt lat="45.84854" lon="1.22069">
        <ele>300.2</ele>
        <time>2024-10-21T07:04:17Z</time>
      </trkpt>
      <trkpt lat="45.84855" lon="1.22067">
        <ele>300.3</ele>
        <time>2024-10-21T07:04:18Z</time>
      </trkpt>
      <trkpt lat="45.84856" lon="1.22065">
        <ele>300.5</ele>
        <time>2024-10-21T07:04:19Z</time>
      </trkpt>
      <trkpt lat="45.84856" lon="1.22063">
        <ele>300.6</ele>
        <time>2024-10-21T07:04:20Z</time>
      </trkpt>
      <trkpt lat="45.84857" lon="1.22062">
        <ele>300.7</ele>
        <time>2024-10-21T07:04:21Z</time>
      </trkpt>
      <trkpt lat="45.84857" lon="1.22061">
        <ele>300.8</ele>
        <time>2024-10-21T07:04:22Z</time>
      </trkpt>
      <trkpt lat="45.84858" lon="1.22059">
        <ele>300.9</ele>
        <time>2024-10-21T07:04:23Z</time>
      </trkpt>
      <trkpt lat="45.84858" lon="1.22058">
        <ele>301</ele>
        <time>2024-10-21T07:04:24Z</time>
      </trkpt>
      <trkpt lat="45.84859" lon="1.22057">
        <ele>301.1</ele>
        <time>2024-10-21T07:04:25Z</time>
      </trkpt>
      <trkpt lat="45.84859" lon="1.22055">
        <ele>301.2</ele>
        <time>2024-10-21T07:04:26Z</time>
      </trkpt>
      <trkpt lat="45.8486" lon="1.22054">
        <ele>301.3</ele>
        <time>2024-10-21T07:04:27Z</time>
      </trkpt>
      <trkpt lat="45.84861" lon="1.22053">
        <ele>301.4</ele>
        <time>2024-10-21T07:04:28Z</time>
      </trkpt>
      <trkpt lat="45.84861" lon="1.22052">
        <ele>301.5</ele>
        <time>2024-10-21T07:04:29Z</time>
      </trkpt>
      <trkpt lat="45.84862" lon="1.2205">
        <ele>301.6</ele>
        <time>2024-10-21T07:04:30Z</time>
      </trkpt>
      <trkpt lat="45.84862" lon="1.22048">
        <ele>301.7</ele>
        <time>2024-10-21T07:04:31Z</time>
      </trkpt>
      <trkpt lat="45.84863" lon="1.22047">
        <ele>301.8</ele>
        <time>2024-10-21T07:04:32Z</time>
      </trkpt>
      <trkpt lat="45.84863" lon="1.22046">
        <ele>301.8</ele>
        <time>2024-10-21T07:04:33Z</time>
      </trkpt>
      <trkpt lat="45.84861" lon="1.22043">
        <ele>302</ele>
        <time>2024-10-21T07:04:34Z</time>
      </trkpt>
      <trkpt lat="45.8486" lon="1.22041">
        <ele>302.1</ele>
        <time>2024-10-21T07:04:35Z</time>
      </trkpt>
      <trkpt lat="45.8486" lon="1.22041">
        <ele>302.2</ele>
        <time>2024-10-21T07:04:36Z</time>
      </trkpt>
      <trkpt lat="45.84859" lon="1.2204">
        <ele>302.3</ele>
        <time>2024-10-21T07:04:37Z</time>
      </trkpt>
      <trkpt lat="45.84858" lon="1.22039">
        <ele>302.4</ele>
        <time>2024-10-21T07:04:38Z</time>
      </trkpt>
      <trkpt lat="45.84857" lon="1.22038">
        <ele>302.5</ele>
        <time>2024-10-21T07:04:39Z</time>
      </trkpt>
      <trkpt lat="45.84856" lon="1.22035">
        <ele>302.7</ele>
        <time>2024-10-21T07:04:40Z</time>
      </trkpt>
      <trkpt lat="45.84855" lon="1.22034">
        <ele>302.8</ele>
        <time>2024-10-21T07:04:41Z</time>
      </trkpt>
      <trkpt lat="45.84855" lon="1.22033">
        <ele>302.9</ele>
        <time>2024-10-21T07:04:42Z</time>
      </trkpt>
      <trkpt lat="45.84854" lon="1.22032">
        <ele>302.9</ele>
        <time>2024-10-21T07:04:43Z</time>
      </trkpt>
      <trkpt lat="45.84854" lon="1.22031">
        <ele>303</ele>
        <time>2024-10-21T07:04:44Z</time>
      </trkpt>
      <trkpt lat="45.84853" lon="1.22029">
        <ele>303.2</ele>
        <time>2024-10-21T07:04:45Z</time>
      </trkpt>
      <trkpt lat="45.84853" lon="1.22028">
        <ele>303.2</ele>
        <time>2024-10-21T07:04:46Z</time>
      </trkpt>
      <trkpt lat="45.84853" lon="1.22027">
        <ele>303.3</ele>
        <time>2024-10-21T07:04:47Z</time>
      </trkpt>
      <trkpt lat="45.84852" lon="1.22026">
        <ele>303.4</ele>
        <time>2024-10-21T07:04:48Z</time>
      </trkpt>
      <trkpt lat="45.84852" lon="1.22024">
        <ele>303.5</ele>
        <time>2024-10-21T07:04:49Z</time>
      </trkpt>
      <trkpt lat="45.84851" lon="1.22023">
        <ele>303.6</ele>
        <time>2024-10-21T07:04:50Z</time>
      </trkpt>
      <trkpt lat="45.84851" lon="1.22022">
        <ele>303.7</ele>
        <time>2024-10-21T07:04:51Z</time>
      </trkpt>
      <trkpt lat="45.84851" lon="1.2202">
        <ele>303.8</ele>
        <time>2024-10-21T07:04:52Z</time>
      </trkpt>
      <trkpt lat="45.84851" lon="1.22019">
        <ele>303.9</ele>
        <time>2024-10-21T07:04:53Z</time>
      </trkpt>
      <trkpt lat="45.84851" lon="1.22018">
        <ele>304</ele>
        <time>2024-10-21T07:04:54Z</time>
      </trkpt>
      <trkpt lat="45.8485" lon="1.22015">
        <ele>304.3</ele>
        <time>2024-10-21T07:04:55Z</time>
      </trkpt>
      <trkpt lat="45.8485" lon="1.22014">
        <ele>304.4</ele>
        <time>2024-10-21T07:04:56Z</time>
      </trkpt>
      <trkpt lat="45.84849" lon="1.22012">
        <ele>304.5</ele>
        <time>2024-10-21T07:04:57Z</time>
      </trkpt>
      <trkpt lat="45.84849" lon="1.22011">
        <ele>304.6</ele>
        <time>2024-10-21T07:04:58Z</time>
      </trkpt>
      <trkpt lat="45.84848" lon="1.22007">
        <ele>305</ele>
        <time>2024-10-21T07:04:59Z</time>
      </trkpt>
      <trkpt lat="45.84848" lon="1.22005">
        <ele>305.2</ele>
        <time>2024-10-21T07:05:00Z</time>
      </trkpt>
      <trkpt lat="45.84848" lon="1.22004">
        <ele>305.3</ele>
        <time>2024-10-21T07:05:01Z</time>
      </trkpt>
      <trkpt lat="45.84848" lon="1.22002">
        <ele>305.5</ele>
        <time>2024-10-21T07:05:02Z</time>
      </trkpt>
      <trkpt lat="45.84847" lon="1.22001">
        <ele>305.6</ele>
        <time>2024-10-21T07:05:03Z</time>
      </trkpt>
      <trkpt lat="45.84847" lon="1.21997">
        <ele>306</ele>
        <time>2024-10-21T07:05:04Z</time>
      </trkpt>
      <trkpt lat="45.84847" lon="1.21996">
        <ele>306.1</ele>
        <time>2024-10-21T07:05:05Z</time>
      </trkpt>
      <trkpt lat="45.84847" lon="1.21996">
        <ele>306.2</ele>
        <time>2024-10-21T07:05:06Z</time>
      </trkpt>
      <trkpt lat="45.84847" lon="1.21994">
        <ele>306.3</ele>
        <time>2024-10-21T07:05:07Z</time>
      </trkpt>
      <trkpt lat="45.84847" lon="1.21993">
        <ele>306.5</ele>
        <time>2024-10-21T07:05:08Z</time>
      </trkpt>
      <trkpt lat="45.84846" lon="1.21991">
        <ele>306.7</ele>
        <time>2024-10-21T07:05:09Z</time>
      </trkpt>
      <trkpt lat="45.84846" lon="1.2199">
        <ele>306.8</ele>
        <time>2024-10-21T07:05:10Z</time>
      </trkpt>
      <trkpt lat="45.84846" lon="1.21988">
        <ele>307</ele>
        <time>2024-10-21T07:05:11Z</time>
      </trkpt>
      <trkpt lat="45.84846" lon="1.21987">
        <ele>307.2</ele>
        <time>2024-10-21T07:05:12Z</time>
      </trkpt>
      <trkpt lat="45.84846" lon="1.21986">
        <ele>307.3</ele>
        <time>2024-10-21T07:05:13Z</time>
      </trkpt>
      <trkpt lat="45.84846" lon="1.21984">
        <ele>307.5</ele>
        <time>2024-10-21T07:05:14Z</time>
      </trkpt>
      <trkpt lat="45.84846" lon="1.21982">
        <ele>307.7</ele>
        <time>2024-10-21T07:05:15Z</time>
      </trkpt>
      <trkpt lat="45.84846" lon="1.2198">
        <ele>308</ele>
        <time>2024-10-21T07:05:16Z</time>
      </trkpt>
      <trkpt lat="45.84846" lon="1.21979">
        <ele>308.1</ele>
        <time>2024-10-21T07:05:17Z</time>
      </trkpt>
      <trkpt lat="45.84846" lon="1.21977">
        <ele>308.3</ele>
        <time>2024-10-21T07:05:18Z</time>
      </trkpt>
      <trkpt lat="45.84846" lon="1.21976">
        <ele>308.5</ele>
        <time>2024-10-21T07:05:19Z</time>
      </trkpt>
      <trkpt lat="45.84846" lon="1.21974">
        <ele>308.6</ele>
        <time>2024-10-21T07:05:20Z</time>
      </trkpt>
      <trkpt lat="45.84846" lon="1.21972">
        <ele>308.7</ele>
        <time>2024-10-21T07:05:21Z</time>
      </trkpt>
      <trkpt lat="45.84846" lon="1.21971">
        <ele>308.9</ele>
        <time>2024-10-21T07:05:22Z</time>
      </trkpt>
      <trkpt lat="45.84846" lon="1.21969">
        <ele>309</ele>
        <time>2024-10-21T07:05:23Z</time>
      </trkpt>
      <trkpt lat="45.84846" lon="1.21967">
        <ele>309.2</ele>
        <time>2024-10-21T07:05:24Z</time>
      </trkpt>
      <trkpt lat="45.84846" lon="1.21966">
        <ele>309.3</ele>
        <time>2024-10-21T07:05:25Z</time>
      </trkpt>
      <trkpt lat="45.84846" lon="1.21964">
        <ele>309.5</ele>
        <time>2024-10-21T07:05:26Z</time>
      </trkpt>
      <trkpt lat="45.84847" lon="1.21963">
        <ele>309.6</ele>
        <time>2024-10-21T07:05:27Z</time>
      </trkpt>
      <trkpt lat="45.84847" lon="1.21961">
        <ele>309.7</ele>
        <time>2024-10-21T07:05:28Z</time>
      </trkpt>
      <trkpt lat="45.84847" lon="1.2196">
        <ele>309.9</ele>
        <time>2024-10-21T07:05:29Z</time>
      </trkpt>
      <trkpt lat="45.84847" lon="1.21958">
        <ele>310</ele>
        <time>2024-10-21T07:05:30Z</time>
      </trkpt>
      <trkpt lat="45.84847" lon="1.21957">
        <ele>310.1</ele>
        <time>2024-10-21T07:05:31Z</time>
      </trkpt>
      <trkpt lat="45.84847" lon="1.21956">
        <ele>310.3</ele>
        <time>2024-10-21T07:05:32Z</time>
      </trkpt>
      <trkpt lat="45.84848" lon="1.21954">
        <ele>310.4</ele>
        <time>2024-10-21T07:05:33Z</time>
      </trkpt>
      <trkpt lat="45.84848" lon="1.21953">
        <ele>310.5</ele>
        <time>2024-10-21T07:05:34Z</time>
      </trkpt>
      <trkpt lat="45.84849" lon="1.21952">
        <ele>310.6</ele>
        <time>2024-10-21T07:05:35Z</time>
      </trkpt>
      <trkpt lat="45.84849" lon="1.21951">
        <ele>310.7</ele>
        <time>2024-10-21T07:05:36Z</time>
      </trkpt>
      <trkpt lat="45.84849" lon="1.21951">
        <ele>310.8</ele>
        <time>2024-10-21T07:05:37Z</time>
      </trkpt>
      <trkpt lat="45.84848" lon="1.21953">
        <ele>311</ele>
        <time>2024-10-21T07:05:38Z</time>
      </trkpt>
      <trkpt lat="45.84848" lon="1.21954">
        <ele>311</ele>
        <time>2024-10-21T07:05:39Z</time>
      </trkpt>
      <trkpt lat="45.84848" lon="1.21954">
        <ele>311.1</ele>
        <time>2024-10-21T07:05:40Z</time>
      </trkpt>
      <trkpt lat="45.84848" lon="1.21954">
        <ele>311.1</ele>
        <time>2024-10-21T07:05:41Z</time>
      </trkpt>
      <trkpt lat="45.84848" lon="1.21955">
        <ele>311.1</ele>
        <time>2024-10-21T07:05:42Z</time>
      </trkpt>
      <trkpt lat="45.84848" lon="1.21955">
        <ele>311.2</ele>
        <time>2024-10-21T07:05:43Z</time>
      </trkpt>
      <trkpt lat="45.84848" lon="1.21954">
        <ele>311.3</ele>
        <time>2024-10-21T07:05:44Z</time>
      </trkpt>
      <trkpt lat="45.84849" lon="1.21952">
        <ele>311.4</ele>
        <time>2024-10-21T07:05:45Z</time>
      </trkpt>
      <trkpt lat="45.84849" lon="1.21951">
        <ele>311.5</ele>
        <time>2024-10-21T07:05:46Z</time>
      </trkpt>
      <trkpt lat="45.84849" lon="1.2195">
        <ele>311.7</ele>
        <time>2024-10-21T07:05:47Z</time>
      </trkpt>
      <trkpt lat="45.84849" lon="1.21948">
        <ele>311.8</ele>
        <time>2024-10-21T07:05:48Z</time>
      </trkpt>
      <trkpt lat="45.8485" lon="1.21947">
        <ele>311.9</ele>
        <time>2024-10-21T07:05:49Z</time>
      </trkpt>
      <trkpt lat="45.8485" lon="1.21946">
        <ele>312</ele>
        <time>2024-10-21T07:05:50Z</time>
      </trkpt>
      <trkpt lat="45.8485" lon="1.21944">
        <ele>312.1</ele>
        <time>2024-10-21T07:05:51Z</time>
      </trkpt>
      <trkpt lat="45.8485" lon="1.21943">
        <ele>312.3</ele>
        <time>2024-10-21T07:05:52Z</time>
      </trkpt>
      <trkpt lat="45.8485" lon="1.21941">
        <ele>312.4</ele>
        <time>2024-10-21T07:05:53Z</time>
      </trkpt>
      <trkpt lat="45.84851" lon="1.2194">
        <ele>312.5</ele>
        <time>2024-10-21T07:05:54Z</time>
      </trkpt>
      <trkpt lat="45.84851" lon="1.21938">
        <ele>312.7</ele>
        <time>2024-10-21T07:05:55Z</time>
      </trkpt>
      <trkpt lat="45.84851" lon="1.21937">
        <ele>312.7</ele>
        <time>2024-10-21T07:05:56Z</time>
      </trkpt>
      <trkpt lat="45.84851" lon="1.21936">
        <ele>312.8</ele>
        <time>2024-10-21T07:05:57Z</time>
      </trkpt>
      <trkpt lat="45.84851" lon="1.21934">
        <ele>313</ele>
        <time>2024-10-21T07:05:58Z</time>
      </trkpt>
      <trkpt lat="45.84851" lon="1.21934">
        <ele>313</ele>
        <time>2024-10-21T07:05:59Z</time>
      </trkpt>
      <trkpt lat="45.84852" lon="1.21932">
        <ele>313.1</ele>
        <time>2024-10-21T07:06:00Z</time>
      </trkpt>
      <trkpt lat="45.84853" lon="1.21932">
        <ele>313.2</ele>
        <time>2024-10-21T07:06:01Z</time>
      </trkpt>
      <trkpt lat="45.84853" lon="1.21931">
        <ele>313.3</ele>
        <time>2024-10-21T07:06:02Z</time>
      </trkpt>
      <trkpt lat="45.84853" lon="1.21932">
        <ele>313.3</ele>
        <time>2024-10-21T07:06:03Z</time>
      </trkpt>
      <trkpt lat="45.84853" lon="1.21932">
        <ele>313.3</ele>
        <time>2024-10-21T07:06:04Z</time>
      </trkpt>
      <trkpt lat="45.84853" lon="1.21931">
        <ele>313.4</ele>
        <time>2024-10-21T07:06:05Z</time>
      </trkpt>
      <trkpt lat="45.84853" lon="1.21931">
        <ele>313.4</ele>
        <time>2024-10-21T07:06:06Z</time>
      </trkpt>
      <trkpt lat="45.84854" lon="1.2193">
        <ele>313.5</ele>
        <time>2024-10-21T07:06:07Z</time>
      </trkpt>
      <trkpt lat="45.84854" lon="1.21929">
        <ele>313.6</ele>
        <time>2024-10-21T07:06:08Z</time>
      </trkpt>
      <trkpt lat="45.84854" lon="1.21928">
        <ele>313.6</ele>
        <time>2024-10-21T07:06:09Z</time>
      </trkpt>
      <trkpt lat="45.84854" lon="1.21928">
        <ele>313.6</ele>
        <time>2024-10-21T07:06:10Z</time>
      </trkpt>
      <trkpt lat="45.84854" lon="1.21928">
        <ele>313.7</ele>
        <time>2024-10-21T07:06:11Z</time>
      </trkpt>
      <trkpt lat="45.84854" lon="1.21926">
        <ele>313.9</ele>
        <time>2024-10-21T07:06:12Z</time>
      </trkpt>
      <trkpt lat="45.84855" lon="1.21922">
        <ele>314.2</ele>
        <time>2024-10-21T07:06:13Z</time>
      </trkpt>
      <trkpt lat="45.84855" lon="1.21921">
        <ele>314.3</ele>
        <time>2024-10-21T07:06:14Z</time>
      </trkpt>
      <trkpt lat="45.84856" lon="1.21918">
        <ele>314.4</ele>
        <time>2024-10-21T07:06:15Z</time>
      </trkpt>
      <trkpt lat="45.84856" lon="1.21916">
        <ele>314.6</ele>
        <time>2024-10-21T07:06:16Z</time>
      </trkpt>
      <trkpt lat="45.84857" lon="1.21913">
        <ele>314.8</ele>
        <time>2024-10-21T07:06:17Z</time>
      </trkpt>
      <trkpt lat="45.84858" lon="1.21912">
        <ele>315</ele>
        <time>2024-10-21T07:06:18Z</time>
      </trkpt>
      <trkpt lat="45.84858" lon="1.21912">
        <ele>315</ele>
        <time>2024-10-21T07:06:19Z</time>
      </trkpt>
      <trkpt lat="45.84858" lon="1.2191">
        <ele>315.1</ele>
        <time>2024-10-21T07:06:20Z</time>
      </trkpt>
      <trkpt lat="45.8486" lon="1.21909">
        <ele>315.3</ele>
        <time>2024-10-21T07:06:21Z</time>
      </trkpt>
      <trkpt lat="45.84861" lon="1.21909">
        <ele>315.4</ele>
        <time>2024-10-21T07:06:22Z</time>
      </trkpt>
      <trkpt lat="45.84861" lon="1.21908">
        <ele>315.5</ele>
        <time>2024-10-21T07:06:23Z</time>
      </trkpt>
      <trkpt lat="45.84862" lon="1.21907">
        <ele>315.6</ele>
        <time>2024-10-21T07:06:24Z</time>
      </trkpt>
      <trkpt lat="45.84863" lon="1.21904">
        <ele>315.9</ele>
        <time>2024-10-21T07:06:25Z</time>
      </trkpt>
      <trkpt lat="45.84864" lon="1.21903">
        <ele>316</ele>
        <time>2024-10-21T07:06:27Z</time>
      </trkpt>
      <trkpt lat="45.84864" lon="1.21902">
        <ele>316.1</ele>
        <time>2024-10-21T07:06:28Z</time>
      </trkpt>
      <trkpt lat="45.84865" lon="1.219">
        <ele>316.2</ele>
        <time>2024-10-21T07:06:29Z</time>
      </trkpt>
      <trkpt lat="45.84865" lon="1.21899">
        <ele>316.3</ele>
        <time>2024-10-21T07:06:30Z</time>
      </trkpt>
      <trkpt lat="45.84866" lon="1.21897">
        <ele>316.4</ele>
        <time>2024-10-21T07:06:31Z</time>
      </trkpt>
      <trkpt lat="45.84866" lon="1.21897">
        <ele>316.5</ele>
        <time>2024-10-21T07:06:32Z</time>
      </trkpt>
      <trkpt lat="45.84867" lon="1.21895">
        <ele>316.6</ele>
        <time>2024-10-21T07:06:33Z</time>
      </trkpt>
      <trkpt lat="45.84868" lon="1.21894">
        <ele>316.7</ele>
        <time>2024-10-21T07:06:34Z</time>
      </trkpt>
      <trkpt lat="45.84868" lon="1.21893">
        <ele>316.8</ele>
        <time>2024-10-21T07:06:35Z</time>
      </trkpt>
      <trkpt lat="45.84869" lon="1.21892">
        <ele>317</ele>
        <time>2024-10-21T07:06:36Z</time>
      </trkpt>
      <trkpt lat="45.8487" lon="1.21891">
        <ele>317</ele>
        <time>2024-10-21T07:06:37Z</time>
      </trkpt>
      <trkpt lat="45.8487" lon="1.21889">
        <ele>317.1</ele>
        <time>2024-10-21T07:06:38Z</time>
      </trkpt>
      <trkpt lat="45.84871" lon="1.21889">
        <ele>317.2</ele>
        <time>2024-10-21T07:06:39Z</time>
      </trkpt>
      <trkpt lat="45.84871" lon="1.21887">
        <ele>317.3</ele>
        <time>2024-10-21T07:06:40Z</time>
      </trkpt>
      <trkpt lat="45.84872" lon="1.21886">
        <ele>317.4</ele>
        <time>2024-10-21T07:06:41Z</time>
      </trkpt>
      <trkpt lat="45.84873" lon="1.21885">
        <ele>317.5</ele>
        <time>2024-10-21T07:06:42Z</time>
      </trkpt>
      <trkpt lat="45.84873" lon="1.21884">
        <ele>317.6</ele>
        <time>2024-10-21T07:06:43Z</time>
      </trkpt>
      <trkpt lat="45.84874" lon="1.21883">
        <ele>317.7</ele>
        <time>2024-10-21T07:06:44Z</time>
      </trkpt>
      <trkpt lat="45.84875" lon="1.21882">
        <ele>317.8</ele>
        <time>2024-10-21T07:06:45Z</time>
      </trkpt>
      <trkpt lat="45.84876" lon="1.21879">
        <ele>318</ele>
        <time>2024-10-21T07:06:46Z</time>
      </trkpt>
      <trkpt lat="45.84876" lon="1.21879">
        <ele>318</ele>
        <time>2024-10-21T07:06:47Z</time>
      </trkpt>
      <trkpt lat="45.84877" lon="1.21878">
        <ele>318.1</ele>
        <time>2024-10-21T07:06:48Z</time>
      </trkpt>
      <trkpt lat="45.84877" lon="1.21877">
        <ele>318.2</ele>
        <time>2024-10-21T07:06:49Z</time>
      </trkpt>
      <trkpt lat="45.84878" lon="1.21875">
        <ele>318.3</ele>
        <time>2024-10-21T07:06:50Z</time>
      </trkpt>
      <trkpt lat="45.84879" lon="1.21873">
        <ele>318.5</ele>
        <time>2024-10-21T07:06:51Z</time>
      </trkpt>
      <trkpt lat="45.84879" lon="1.21872">
        <ele>318.6</ele>
        <time>2024-10-21T07:06:52Z</time>
      </trkpt>
      <trkpt lat="45.8488" lon="1.2187">
        <ele>318.7</ele>
        <time>2024-10-21T07:06:53Z</time>
      </trkpt>
      <trkpt lat="45.8488" lon="1.21869">
        <ele>318.8</ele>
        <time>2024-10-21T07:06:54Z</time>
      </trkpt>
      <trkpt lat="45.84881" lon="1.21866">
        <ele>319</ele>
        <time>2024-10-21T07:06:55Z</time>
      </trkpt>
      <trkpt lat="45.84881" lon="1.21865">
        <ele>319.1</ele>
        <time>2024-10-21T07:06:56Z</time>
      </trkpt>
      <trkpt lat="45.84882" lon="1.21864">
        <ele>319.1</ele>
        <time>2024-10-21T07:06:57Z</time>
      </trkpt>
      <trkpt lat="45.84882" lon="1.21862">
        <ele>319.2</ele>
        <time>2024-10-21T07:06:58Z</time>
      </trkpt>
      <trkpt lat="45.84883" lon="1.21859">
        <ele>319.4</ele>
        <time>2024-10-21T07:06:59Z</time>
      </trkpt>
      <trkpt lat="45.84883" lon="1.21857">
        <ele>319.6</ele>
        <time>2024-10-21T07:07:01Z</time>
      </trkpt>
      <trkpt lat="45.84883" lon="1.21856">
        <ele>319.6</ele>
        <time>2024-10-21T07:07:02Z</time>
      </trkpt>
      <trkpt lat="45.84884" lon="1.21854">
        <ele>319.7</ele>
        <time>2024-10-21T07:07:03Z</time>
      </trkpt>
      <trkpt lat="45.84884" lon="1.21853">
        <ele>319.8</ele>
        <time>2024-10-21T07:07:04Z</time>
      </trkpt>
      <trkpt lat="45.84884" lon="1.21851">
        <ele>319.9</ele>
        <time>2024-10-21T07:07:05Z</time>
      </trkpt>
      <trkpt lat="45.84884" lon="1.21849">
        <ele>320</ele>
        <time>2024-10-21T07:07:06Z</time>
      </trkpt>
      <trkpt lat="45.84884" lon="1.21848">
        <ele>320.1</ele>
        <time>2024-10-21T07:07:07Z</time>
      </trkpt>
      <trkpt lat="45.84885" lon="1.21847">
        <ele>320.1</ele>
        <time>2024-10-21T07:07:08Z</time>
      </trkpt>
      <trkpt lat="45.84885" lon="1.21845">
        <ele>320.2</ele>
        <time>2024-10-21T07:07:09Z</time>
      </trkpt>
      <trkpt lat="45.84885" lon="1.21844">
        <ele>320.3</ele>
        <time>2024-10-21T07:07:10Z</time>
      </trkpt>
      <trkpt lat="45.84886" lon="1.21842">
        <ele>320.4</ele>
        <time>2024-10-21T07:07:11Z</time>
      </trkpt>
      <trkpt lat="45.84886" lon="1.21841">
        <ele>320.5</ele>
        <time>2024-10-21T07:07:12Z</time>
      </trkpt>
      <trkpt lat="45.84887" lon="1.21839">
        <ele>320.6</ele>
        <time>2024-10-21T07:07:13Z</time>
      </trkpt>
      <trkpt lat="45.84888" lon="1.21838">
        <ele>320.7</ele>
        <time>2024-10-21T07:07:14Z</time>
      </trkpt>
      <trkpt lat="45.84888" lon="1.21837">
        <ele>320.9</ele>
        <time>2024-10-21T07:07:15Z</time>
      </trkpt>
      <trkpt lat="45.84891" lon="1.21836">
        <ele>321</ele>
        <time>2024-10-21T07:07:16Z</time>
      </trkpt>
      <trkpt lat="45.84891" lon="1.21836">
        <ele>321.1</ele>
        <time>2024-10-21T07:07:17Z</time>
      </trkpt>
      <trkpt lat="45.84892" lon="1.21836">
        <ele>321.1</ele>
        <time>2024-10-21T07:07:18Z</time>
      </trkpt>
      <trkpt lat="45.84894" lon="1.21837">
        <ele>321.2</ele>
        <time>2024-10-21T07:07:19Z</time>
      </trkpt>
      <trkpt lat="45.84895" lon="1.21837">
        <ele>321.3</ele>
        <time>2024-10-21T07:07:20Z</time>
      </trkpt>
      <trkpt lat="45.84897" lon="1.21838">
        <ele>321.4</ele>
        <time>2024-10-21T07:07:21Z</time>
      </trkpt>
      <trkpt lat="45.84898" lon="1.21838">
        <ele>321.5</ele>
        <time>2024-10-21T07:07:22Z</time>
      </trkpt>
      <trkpt lat="45.84898" lon="1.21839">
        <ele>321.5</ele>
        <time>2024-10-21T07:07:23Z</time>
      </trkpt>
      <trkpt lat="45.849" lon="1.2184">
        <ele>321.7</ele>
        <time>2024-10-21T07:07:24Z</time>
      </trkpt>
      <trkpt lat="45.84901" lon="1.2184">
        <ele>321.7</ele>
        <time>2024-10-21T07:07:25Z</time>
      </trkpt>
      <trkpt lat="45.84902" lon="1.21841">
        <ele>321.8</ele>
        <time>2024-10-21T07:07:26Z</time>
      </trkpt>
      <trkpt lat="45.84903" lon="1.21841">
        <ele>321.9</ele>
        <time>2024-10-21T07:07:27Z</time>
      </trkpt>
      <trkpt lat="45.84904" lon="1.21842">
        <ele>322</ele>
        <time>2024-10-21T07:07:28Z</time>
      </trkpt>
      <trkpt lat="45.84906" lon="1.21844">
        <ele>322.2</ele>
        <time>2024-10-21T07:07:29Z</time>
      </trkpt>
      <trkpt lat="45.84907" lon="1.21845">
        <ele>322.3</ele>
        <time>2024-10-21T07:07:31Z</time>
      </trkpt>
      <trkpt lat="45.84908" lon="1.21846">
        <ele>322.3</ele>
        <time>2024-10-21T07:07:32Z</time>
      </trkpt>
      <trkpt lat="45.84909" lon="1.21846">
        <ele>322.4</ele>
        <time>2024-10-21T07:07:33Z</time>
      </trkpt>
      <trkpt lat="45.8491" lon="1.21847">
        <ele>322.5</ele>
        <time>2024-10-21T07:07:34Z</time>
      </trkpt>
      <trkpt lat="45.84911" lon="1.21848">
        <ele>322.5</ele>
        <time>2024-10-21T07:07:35Z</time>
      </trkpt>
      <trkpt lat="45.84911" lon="1.21849">
        <ele>322.6</ele>
        <time>2024-10-21T07:07:36Z</time>
      </trkpt>
      <trkpt lat="45.84912" lon="1.2185">
        <ele>322.7</ele>
        <time>2024-10-21T07:07:37Z</time>
      </trkpt>
      <trkpt lat="45.84913" lon="1.21851">
        <ele>322.7</ele>
        <time>2024-10-21T07:07:38Z</time>
      </trkpt>
      <trkpt lat="45.84914" lon="1.21852">
        <ele>322.8</ele>
        <time>2024-10-21T07:07:39Z</time>
      </trkpt>
      <trkpt lat="45.84914" lon="1.21853">
        <ele>322.9</ele>
        <time>2024-10-21T07:07:40Z</time>
      </trkpt>
      <trkpt lat="45.84916" lon="1.21856">
        <ele>323</ele>
        <time>2024-10-21T07:07:41Z</time>
      </trkpt>
      <trkpt lat="45.84917" lon="1.21858">
        <ele>323.1</ele>
        <time>2024-10-21T07:07:43Z</time>
      </trkpt>
      <trkpt lat="45.84917" lon="1.21859">
        <ele>323.1</ele>
        <time>2024-10-21T07:07:44Z</time>
      </trkpt>
      <trkpt lat="45.84919" lon="1.21862">
        <ele>323.3</ele>
        <time>2024-10-21T07:07:45Z</time>
      </trkpt>
      <trkpt lat="45.8492" lon="1.21863">
        <ele>323.3</ele>
        <time>2024-10-21T07:07:47Z</time>
      </trkpt>
      <trkpt lat="45.84921" lon="1.21864">
        <ele>323.4</ele>
        <time>2024-10-21T07:07:48Z</time>
      </trkpt>
      <trkpt lat="45.84921" lon="1.21865">
        <ele>323.4</ele>
        <time>2024-10-21T07:07:49Z</time>
      </trkpt>
      <trkpt lat="45.84922" lon="1.21865">
        <ele>323.4</ele>
        <time>2024-10-21T07:07:50Z</time>
      </trkpt>
      <trkpt lat="45.84923" lon="1.21867">
        <ele>323.5</ele>
        <time>2024-10-21T07:07:51Z</time>
      </trkpt>
      <trkpt lat="45.84924" lon="1.21868">
        <ele>323.5</ele>
        <time>2024-10-21T07:07:52Z</time>
      </trkpt>
      <trkpt lat="45.84924" lon="1.21869">
        <ele>323.6</ele>
        <time>2024-10-21T07:07:53Z</time>
      </trkpt>
      <trkpt lat="45.84926" lon="1.21871">
        <ele>323.7</ele>
        <time>2024-10-21T07:07:54Z</time>
      </trkpt>
      <trkpt lat="45.84927" lon="1.21872">
        <ele>323.7</ele>
        <time>2024-10-21T07:07:55Z</time>
      </trkpt>
      <trkpt lat="45.84927" lon="1.21873">
        <ele>323.7</ele>
        <time>2024-10-21T07:07:56Z</time>
      </trkpt>
      <trkpt lat="45.84927" lon="1.21874">
        <ele>323.8</ele>
        <time>2024-10-21T07:07:57Z</time>
      </trkpt>
      <trkpt lat="45.84928" lon="1.21875">
        <ele>323.8</ele>
        <time>2024-10-21T07:07:58Z</time>
      </trkpt>
      <trkpt lat="45.84929" lon="1.21876">
        <ele>323.8</ele>
        <time>2024-10-21T07:07:59Z</time>
      </trkpt>
      <trkpt lat="45.8493" lon="1.21877">
        <ele>323.9</ele>
        <time>2024-10-21T07:08:00Z</time>
      </trkpt>
      <trkpt lat="45.84931" lon="1.21879">
        <ele>323.9</ele>
        <time>2024-10-21T07:08:01Z</time>
      </trkpt>
      <trkpt lat="45.84931" lon="1.2188">
        <ele>323.9</ele>
        <time>2024-10-21T07:08:02Z</time>
      </trkpt>
      <trkpt lat="45.84932" lon="1.21882">
        <ele>324</ele>
        <time>2024-10-21T07:08:03Z</time>
      </trkpt>
      <trkpt lat="45.84933" lon="1.21884">
        <ele>324</ele>
        <time>2024-10-21T07:08:04Z</time>
      </trkpt>
      <trkpt lat="45.84933" lon="1.21885">
        <ele>324</ele>
        <time>2024-10-21T07:08:05Z</time>
      </trkpt>
      <trkpt lat="45.84934" lon="1.21886">
        <ele>324</ele>
        <time>2024-10-21T07:08:06Z</time>
      </trkpt>
      <trkpt lat="45.84934" lon="1.21888">
        <ele>324</ele>
        <time>2024-10-21T07:08:07Z</time>
      </trkpt>
      <trkpt lat="45.84936" lon="1.2189">
        <ele>324</ele>
        <time>2024-10-21T07:08:08Z</time>
      </trkpt>
      <trkpt lat="45.84937" lon="1.21891">
        <ele>324</ele>
        <time>2024-10-21T07:08:09Z</time>
      </trkpt>
      <trkpt lat="45.84937" lon="1.21892">
        <ele>324</ele>
        <time>2024-10-21T07:08:10Z</time>
      </trkpt>
      <trkpt lat="45.84939" lon="1.21897">
        <ele>324</ele>
        <time>2024-10-21T07:08:11Z</time>
      </trkpt>
      <trkpt lat="45.8494" lon="1.21899">
        <ele>324</ele>
        <time>2024-10-21T07:08:13Z</time>
      </trkpt>
      <trkpt lat="45.84941" lon="1.219">
        <ele>324</ele>
        <time>2024-10-21T07:08:14Z</time>
      </trkpt>
      <trkpt lat="45.84943" lon="1.21903">
        <ele>323.9</ele>
        <time>2024-10-21T07:08:15Z</time>
      </trkpt>
      <trkpt lat="45.84943" lon="1.21905">
        <ele>323.9</ele>
        <time>2024-10-21T07:08:16Z</time>
      </trkpt>
      <trkpt lat="45.84944" lon="1.21907">
        <ele>323.9</ele>
        <time>2024-10-21T07:08:17Z</time>
      </trkpt>
      <trkpt lat="45.84945" lon="1.2191">
        <ele>323.8</ele>
        <time>2024-10-21T07:08:18Z</time>
      </trkpt>
      <trkpt lat="45.84946" lon="1.2191">
        <ele>323.8</ele>
        <time>2024-10-21T07:08:19Z</time>
      </trkpt>
      <trkpt lat="45.84948" lon="1.21913">
        <ele>323.8</ele>
        <time>2024-10-21T07:08:20Z</time>
      </trkpt>
      <trkpt lat="45.84948" lon="1.21915">
        <ele>323.7</ele>
        <time>2024-10-21T07:08:21Z</time>
      </trkpt>
      <trkpt lat="45.84949" lon="1.21917">
        <ele>323.7</ele>
        <time>2024-10-21T07:08:22Z</time>
      </trkpt>
      <trkpt lat="45.84951" lon="1.21918">
        <ele>323.7</ele>
        <time>2024-10-21T07:08:23Z</time>
      </trkpt>
      <trkpt lat="45.84952" lon="1.21919">
        <ele>323.7</ele>
        <time>2024-10-21T07:08:24Z</time>
      </trkpt>
      <trkpt lat="45.84952" lon="1.21919">
        <ele>323.7</ele>
        <time>2024-10-21T07:08:25Z</time>
      </trkpt>
      <trkpt lat="45.84953" lon="1.21921">
        <ele>323.7</ele>
        <time>2024-10-21T07:08:26Z</time>
      </trkpt>
      <trkpt lat="45.84953" lon="1.21924">
        <ele>323.7</ele>
        <time>2024-10-21T07:08:27Z</time>
      </trkpt>
      <trkpt lat="45.84954" lon="1.21925">
        <ele>323.7</ele>
        <time>2024-10-21T07:08:28Z</time>
      </trkpt>
      <trkpt lat="45.84955" lon="1.21926">
        <ele>323.7</ele>
        <time>2024-10-21T07:08:29Z</time>
      </trkpt>
      <trkpt lat="45.84956" lon="1.21926">
        <ele>323.7</ele>
        <time>2024-10-21T07:08:30Z</time>
      </trkpt>
      <trkpt lat="45.84957" lon="1.21927">
        <ele>323.7</ele>
        <time>2024-10-21T07:08:31Z</time>
      </trkpt>
      <trkpt lat="45.84957" lon="1.21929">
        <ele>323.7</ele>
        <time>2024-10-21T07:08:32Z</time>
      </trkpt>
      <trkpt lat="45.84957" lon="1.2193">
        <ele>323.7</ele>
        <time>2024-10-21T07:08:33Z</time>
      </trkpt>
      <trkpt lat="45.84958" lon="1.21931">
        <ele>323.7</ele>
        <time>2024-10-21T07:08:34Z</time>
      </trkpt>
      <trkpt lat="45.8496" lon="1.21933">
        <ele>323.7</ele>
        <time>2024-10-21T07:08:35Z</time>
      </trkpt>
      <trkpt lat="45.8496" lon="1.21936">
        <ele>323.9</ele>
        <time>2024-10-21T07:08:37Z</time>
      </trkpt>
      <trkpt lat="45.8496" lon="1.21937">
        <ele>323.9</ele>
        <time>2024-10-21T07:08:38Z</time>
      </trkpt>
      <trkpt lat="45.84961" lon="1.2194">
        <ele>324</ele>
        <time>2024-10-21T07:08:39Z</time>
      </trkpt>
      <trkpt lat="45.84961" lon="1.21942">
        <ele>324.1</ele>
        <time>2024-10-21T07:08:40Z</time>
      </trkpt>
      <trkpt lat="45.84962" lon="1.21943">
        <ele>324.2</ele>
        <time>2024-10-21T07:08:41Z</time>
      </trkpt>
      <trkpt lat="45.84962" lon="1.21944">
        <ele>324.2</ele>
        <time>2024-10-21T07:08:43Z</time>
      </trkpt>
      <trkpt lat="45.84963" lon="1.21945">
        <ele>324.3</ele>
        <time>2024-10-21T07:08:44Z</time>
      </trkpt>
      <trkpt lat="45.84965" lon="1.21945">
        <ele>324.3</ele>
        <time>2024-10-21T07:08:45Z</time>
      </trkpt>
      <trkpt lat="45.84966" lon="1.21945">
        <ele>324.4</ele>
        <time>2024-10-21T07:08:46Z</time>
      </trkpt>
      <trkpt lat="45.84966" lon="1.21946">
        <ele>324.4</ele>
        <time>2024-10-21T07:08:47Z</time>
      </trkpt>
      <trkpt lat="45.84967" lon="1.21946">
        <ele>324.4</ele>
        <time>2024-10-21T07:08:48Z</time>
      </trkpt>
      <trkpt lat="45.84968" lon="1.21947">
        <ele>324.5</ele>
        <time>2024-10-21T07:08:49Z</time>
      </trkpt>
      <trkpt lat="45.84969" lon="1.21947">
        <ele>324.5</ele>
        <time>2024-10-21T07:08:50Z</time>
      </trkpt>
      <trkpt lat="45.84971" lon="1.21946">
        <ele>324.6</ele>
        <time>2024-10-21T07:08:51Z</time>
      </trkpt>
      <trkpt lat="45.84972" lon="1.21946">
        <ele>324.6</ele>
        <time>2024-10-21T07:08:52Z</time>
      </trkpt>
      <trkpt lat="45.84973" lon="1.21945">
        <ele>324.7</ele>
        <time>2024-10-21T07:08:53Z</time>
      </trkpt>
      <trkpt lat="45.84976" lon="1.21944">
        <ele>324.7</ele>
        <time>2024-10-21T07:08:54Z</time>
      </trkpt>
      <trkpt lat="45.84976" lon="1.21944">
        <ele>324.8</ele>
        <time>2024-10-21T07:08:55Z</time>
      </trkpt>
      <trkpt lat="45.84977" lon="1.21943">
        <ele>324.8</ele>
        <time>2024-10-21T07:08:56Z</time>
      </trkpt>
      <trkpt lat="45.84977" lon="1.21941">
        <ele>324.8</ele>
        <time>2024-10-21T07:08:57Z</time>
      </trkpt>
      <trkpt lat="45.84978" lon="1.21941">
        <ele>324.9</ele>
        <time>2024-10-21T07:08:58Z</time>
      </trkpt>
      <trkpt lat="45.8498" lon="1.21941">
        <ele>324.9</ele>
        <time>2024-10-21T07:08:59Z</time>
      </trkpt>
      <trkpt lat="45.84981" lon="1.21941">
        <ele>325</ele>
        <time>2024-10-21T07:09:00Z</time>
      </trkpt>
      <trkpt lat="45.8498" lon="1.2194">
        <ele>325</ele>
        <time>2024-10-21T07:09:01Z</time>
      </trkpt>
      <trkpt lat="45.84982" lon="1.21939">
        <ele>325</ele>
        <time>2024-10-21T07:09:02Z</time>
      </trkpt>
      <trkpt lat="45.84982" lon="1.21936">
        <ele>325.1</ele>
        <time>2024-10-21T07:09:03Z</time>
      </trkpt>
      <trkpt lat="45.84983" lon="1.21936">
        <ele>325.2</ele>
        <time>2024-10-21T07:09:05Z</time>
      </trkpt>
      <trkpt lat="45.84985" lon="1.21935">
        <ele>325.2</ele>
        <time>2024-10-21T07:09:06Z</time>
      </trkpt>
      <trkpt lat="45.84987" lon="1.21934">
        <ele>325.3</ele>
        <time>2024-10-21T07:09:07Z</time>
      </trkpt>
      <trkpt lat="45.84986" lon="1.21934">
        <ele>325.3</ele>
        <time>2024-10-21T07:09:08Z</time>
      </trkpt>
      <trkpt lat="45.84986" lon="1.21934">
        <ele>325.3</ele>
        <time>2024-10-21T07:09:09Z</time>
      </trkpt>
      <trkpt lat="45.84986" lon="1.21936">
        <ele>325.4</ele>
        <time>2024-10-21T07:09:10Z</time>
      </trkpt>
      <trkpt lat="45.84987" lon="1.21937">
        <ele>325.4</ele>
        <time>2024-10-21T07:09:11Z</time>
      </trkpt>
      <trkpt lat="45.84988" lon="1.21938">
        <ele>325.4</ele>
        <time>2024-10-21T07:09:12Z</time>
      </trkpt>
      <trkpt lat="45.84989" lon="1.21938">
        <ele>325.5</ele>
        <time>2024-10-21T07:09:13Z</time>
      </trkpt>
      <trkpt lat="45.8499" lon="1.21938">
        <ele>325.5</ele>
        <time>2024-10-21T07:09:14Z</time>
      </trkpt>
      <trkpt lat="45.8499" lon="1.21939">
        <ele>325.5</ele>
        <time>2024-10-21T07:09:15Z</time>
      </trkpt>
      <trkpt lat="45.84991" lon="1.21939">
        <ele>325.5</ele>
        <time>2024-10-21T07:09:16Z</time>
      </trkpt>
      <trkpt lat="45.84992" lon="1.21939">
        <ele>325.6</ele>
        <time>2024-10-21T07:09:17Z</time>
      </trkpt>
      <trkpt lat="45.84994" lon="1.2194">
        <ele>325.6</ele>
        <time>2024-10-21T07:09:18Z</time>
      </trkpt>
      <trkpt lat="45.84995" lon="1.21941">
        <ele>325.6</ele>
        <time>2024-10-21T07:09:19Z</time>
      </trkpt>
      <trkpt lat="45.84995" lon="1.21941">
        <ele>325.7</ele>
        <time>2024-10-21T07:09:20Z</time>
      </trkpt>
      <trkpt lat="45.84998" lon="1.21944">
        <ele>325.7</ele>
        <time>2024-10-21T07:09:21Z</time>
      </trkpt>
      <trkpt lat="45.84998" lon="1.21945">
        <ele>325.7</ele>
        <time>2024-10-21T07:09:22Z</time>
      </trkpt>
      <trkpt lat="45.84999" lon="1.21946">
        <ele>325.7</ele>
        <time>2024-10-21T07:09:23Z</time>
      </trkpt>
      <trkpt lat="45.85001" lon="1.21948">
        <ele>325.7</ele>
        <time>2024-10-21T07:09:24Z</time>
      </trkpt>
      <trkpt lat="45.85003" lon="1.21952">
        <ele>325.7</ele>
        <time>2024-10-21T07:09:25Z</time>
      </trkpt>
      <trkpt lat="45.85004" lon="1.21953">
        <ele>325.7</ele>
        <time>2024-10-21T07:09:26Z</time>
      </trkpt>
      <trkpt lat="45.85006" lon="1.21956">
        <ele>325.7</ele>
        <time>2024-10-21T07:09:27Z</time>
      </trkpt>
      <trkpt lat="45.85006" lon="1.21957">
        <ele>325.7</ele>
        <time>2024-10-21T07:09:28Z</time>
      </trkpt>
      <trkpt lat="45.85008" lon="1.21958">
        <ele>325.6</ele>
        <time>2024-10-21T07:09:29Z</time>
      </trkpt>
      <trkpt lat="45.85009" lon="1.21959">
        <ele>325.6</ele>
        <time>2024-10-21T07:09:30Z</time>
      </trkpt>
      <trkpt lat="45.8501" lon="1.2196">
        <ele>325.6</ele>
        <time>2024-10-21T07:09:31Z</time>
      </trkpt>
      <trkpt lat="45.85011" lon="1.21962">
        <ele>325.6</ele>
        <time>2024-10-21T07:09:32Z</time>
      </trkpt>
      <trkpt lat="45.85012" lon="1.21963">
        <ele>325.5</ele>
        <time>2024-10-21T07:09:33Z</time>
      </trkpt>
      <trkpt lat="45.85013" lon="1.21965">
        <ele>325.5</ele>
        <time>2024-10-21T07:09:34Z</time>
      </trkpt>
      <trkpt lat="45.85014" lon="1.21969">
        <ele>325.4</ele>
        <time>2024-10-21T07:09:35Z</time>
      </trkpt>
      <trkpt lat="45.85014" lon="1.2197">
        <ele>325.4</ele>
        <time>2024-10-21T07:09:36Z</time>
      </trkpt>
      <trkpt lat="45.85015" lon="1.21972">
        <ele>325.4</ele>
        <time>2024-10-21T07:09:37Z</time>
      </trkpt>
      <trkpt lat="45.85016" lon="1.21973">
        <ele>325.3</ele>
        <time>2024-10-21T07:09:38Z</time>
      </trkpt>
      <trkpt lat="45.85016" lon="1.21974">
        <ele>325.3</ele>
        <time>2024-10-21T07:09:39Z</time>
      </trkpt>
      <trkpt lat="45.85017" lon="1.21976">
        <ele>325.3</ele>
        <time>2024-10-21T07:09:40Z</time>
      </trkpt>
      <trkpt lat="45.85018" lon="1.21978">
        <ele>325.2</ele>
        <time>2024-10-21T07:09:41Z</time>
      </trkpt>
      <trkpt lat="45.85019" lon="1.2198">
        <ele>325.1</ele>
        <time>2024-10-21T07:09:42Z</time>
      </trkpt>
      <trkpt lat="45.8502" lon="1.2198">
        <ele>325.1</ele>
        <time>2024-10-21T07:09:43Z</time>
      </trkpt>
      <trkpt lat="45.85021" lon="1.21981">
        <ele>325.1</ele>
        <time>2024-10-21T07:09:44Z</time>
      </trkpt>
      <trkpt lat="45.85021" lon="1.21983">
        <ele>325.1</ele>
        <time>2024-10-21T07:09:45Z</time>
      </trkpt>
      <trkpt lat="45.85022" lon="1.21985">
        <ele>325</ele>
        <time>2024-10-21T07:09:46Z</time>
      </trkpt>
      <trkpt lat="45.85023" lon="1.21986">
        <ele>325</ele>
        <time>2024-10-21T07:09:47Z</time>
      </trkpt>
      <trkpt lat="45.85024" lon="1.21987">
        <ele>324.9</ele>
        <time>2024-10-21T07:09:48Z</time>
      </trkpt>
      <trkpt lat="45.85024" lon="1.21988">
        <ele>324.9</ele>
        <time>2024-10-21T07:09:49Z</time>
      </trkpt>
      <trkpt lat="45.85025" lon="1.21989">
        <ele>324.9</ele>
        <time>2024-10-21T07:09:50Z</time>
      </trkpt>
      <trkpt lat="45.85027" lon="1.21991">
        <ele>324.8</ele>
        <time>2024-10-21T07:09:51Z</time>
      </trkpt>
      <trkpt lat="45.85028" lon="1.21992">
        <ele>324.8</ele>
        <time>2024-10-21T07:09:52Z</time>
      </trkpt>
      <trkpt lat="45.85029" lon="1.21993">
        <ele>324.7</ele>
        <time>2024-10-21T07:09:53Z</time>
      </trkpt>
      <trkpt lat="45.8503" lon="1.21994">
        <ele>324.7</ele>
        <time>2024-10-21T07:09:54Z</time>
      </trkpt>
      <trkpt lat="45.85031" lon="1.21994">
        <ele>324.6</ele>
        <time>2024-10-21T07:09:55Z</time>
      </trkpt>
      <trkpt lat="45.85032" lon="1.21995">
        <ele>324.6</ele>
        <time>2024-10-21T07:09:56Z</time>
      </trkpt>
      <trkpt lat="45.85033" lon="1.21996">
        <ele>324.6</ele>
        <time>2024-10-21T07:09:57Z</time>
      </trkpt>
      <trkpt lat="45.85034" lon="1.21996">
        <ele>324.5</ele>
        <time>2024-10-21T07:09:58Z</time>
      </trkpt>
      <trkpt lat="45.85035" lon="1.21997">
        <ele>324.5</ele>
        <time>2024-10-21T07:09:59Z</time>
      </trkpt>
      <trkpt lat="45.85036" lon="1.21998">
        <ele>324.4</ele>
        <time>2024-10-21T07:10:00Z</time>
      </trkpt>
      <trkpt lat="45.85037" lon="1.21999">
        <ele>324.4</ele>
        <time>2024-10-21T07:10:01Z</time>
      </trkpt>
      <trkpt lat="45.85038" lon="1.22">
        <ele>324.3</ele>
        <time>2024-10-21T07:10:02Z</time>
      </trkpt>
      <trkpt lat="45.8504" lon="1.22002">
        <ele>324.3</ele>
        <time>2024-10-21T07:10:03Z</time>
      </trkpt>
      <trkpt lat="45.8504" lon="1.22002">
        <ele>324.3</ele>
        <time>2024-10-21T07:10:04Z</time>
      </trkpt>
      <trkpt lat="45.85041" lon="1.22003">
        <ele>324.2</ele>
        <time>2024-10-21T07:10:05Z</time>
      </trkpt>
      <trkpt lat="45.85043" lon="1.22005">
        <ele>324.1</ele>
        <time>2024-10-21T07:10:06Z</time>
      </trkpt>
      <trkpt lat="45.85044" lon="1.22006">
        <ele>324.1</ele>
        <time>2024-10-21T07:10:07Z</time>
      </trkpt>
      <trkpt lat="45.85044" lon="1.22006">
        <ele>324.1</ele>
        <time>2024-10-21T07:10:08Z</time>
      </trkpt>
      <trkpt lat="45.85046" lon="1.22008">
        <ele>324</ele>
        <time>2024-10-21T07:10:09Z</time>
      </trkpt>
      <trkpt lat="45.85047" lon="1.22009">
        <ele>324</ele>
        <time>2024-10-21T07:10:10Z</time>
      </trkpt>
      <trkpt lat="45.85048" lon="1.22011">
        <ele>323.9</ele>
        <time>2024-10-21T07:10:11Z</time>
      </trkpt>
      <trkpt lat="45.85049" lon="1.22012">
        <ele>323.8</ele>
        <time>2024-10-21T07:10:12Z</time>
      </trkpt>
      <trkpt lat="45.85049" lon="1.22013">
        <ele>323.8</ele>
        <time>2024-10-21T07:10:13Z</time>
      </trkpt>
      <trkpt lat="45.8505" lon="1.22014">
        <ele>323.8</ele>
        <time>2024-10-21T07:10:14Z</time>
      </trkpt>
      <trkpt lat="45.85051" lon="1.22016">
        <ele>323.7</ele>
        <time>2024-10-21T07:10:15Z</time>
      </trkpt>
      <trkpt lat="45.85052" lon="1.22017">
        <ele>323.6</ele>
        <time>2024-10-21T07:10:16Z</time>
      </trkpt>
      <trkpt lat="45.85053" lon="1.22019">
        <ele>323.5</ele>
        <time>2024-10-21T07:10:17Z</time>
      </trkpt>
      <trkpt lat="45.85053" lon="1.22021">
        <ele>323.5</ele>
        <time>2024-10-21T07:10:18Z</time>
      </trkpt>
      <trkpt lat="45.85054" lon="1.22023">
        <ele>323.4</ele>
        <time>2024-10-21T07:10:19Z</time>
      </trkpt>
      <trkpt lat="45.85054" lon="1.22025">
        <ele>323.3</ele>
        <time>2024-10-21T07:10:20Z</time>
      </trkpt>
      <trkpt lat="45.85055" lon="1.22027">
        <ele>323.2</ele>
        <time>2024-10-21T07:10:21Z</time>
      </trkpt>
      <trkpt lat="45.85055" lon="1.22028">
        <ele>323.2</ele>
        <time>2024-10-21T07:10:22Z</time>
      </trkpt>
      <trkpt lat="45.85055" lon="1.22029">
        <ele>323.1</ele>
        <time>2024-10-21T07:10:23Z</time>
      </trkpt>
      <trkpt lat="45.85056" lon="1.22031">
        <ele>323</ele>
        <time>2024-10-21T07:10:24Z</time>
      </trkpt>
      <trkpt lat="45.85056" lon="1.22033">
        <ele>322.9</ele>
        <time>2024-10-21T07:10:25Z</time>
      </trkpt>
      <trkpt lat="45.85057" lon="1.22034">
        <ele>322.9</ele>
        <time>2024-10-21T07:10:26Z</time>
      </trkpt>
      <trkpt lat="45.85058" lon="1.22035">
        <ele>322.8</ele>
        <time>2024-10-21T07:10:27Z</time>
      </trkpt>
      <trkpt lat="45.85059" lon="1.22036">
        <ele>322.7</ele>
        <time>2024-10-21T07:10:28Z</time>
      </trkpt>
      <trkpt lat="45.8506" lon="1.22036">
        <ele>322.7</ele>
        <time>2024-10-21T07:10:29Z</time>
      </trkpt>
      <trkpt lat="45.85063" lon="1.22037">
        <ele>322.5</ele>
        <time>2024-10-21T07:10:30Z</time>
      </trkpt>
      <trkpt lat="45.85063" lon="1.22036">
        <ele>322.5</ele>
        <time>2024-10-21T07:10:31Z</time>
      </trkpt>
      <trkpt lat="45.85064" lon="1.22035">
        <ele>322.5</ele>
        <time>2024-10-21T07:10:32Z</time>
      </trkpt>
      <trkpt lat="45.85064" lon="1.22034">
        <ele>322.5</ele>
        <time>2024-10-21T07:10:33Z</time>
      </trkpt>
      <trkpt lat="45.85065" lon="1.22032">
        <ele>322.5</ele>
        <time>2024-10-21T07:10:34Z</time>
      </trkpt>
      <trkpt lat="45.85066" lon="1.22031">
        <ele>322.5</ele>
        <time>2024-10-21T07:10:35Z</time>
      </trkpt>
      <trkpt lat="45.85067" lon="1.22028">
        <ele>322.5</ele>
        <time>2024-10-21T07:10:36Z</time>
      </trkpt>
      <trkpt lat="45.85068" lon="1.22027">
        <ele>322.5</ele>
        <time>2024-10-21T07:10:37Z</time>
      </trkpt>
      <trkpt lat="45.85068" lon="1.22026">
        <ele>322.5</ele>
        <time>2024-10-21T07:10:38Z</time>
      </trkpt>
      <trkpt lat="45.8507" lon="1.22024">
        <ele>322.5</ele>
        <time>2024-10-21T07:10:39Z</time>
      </trkpt>
      <trkpt lat="45.8507" lon="1.22024">
        <ele>322.5</ele>
        <time>2024-10-21T07:10:40Z</time>
      </trkpt>
      <trkpt lat="45.85071" lon="1.22023">
        <ele>322.5</ele>
        <time>2024-10-21T07:10:41Z</time>
      </trkpt>
      <trkpt lat="45.85072" lon="1.22021">
        <ele>322.6</ele>
        <time>2024-10-21T07:10:42Z</time>
      </trkpt>
      <trkpt lat="45.85073" lon="1.2202">
        <ele>322.6</ele>
        <time>2024-10-21T07:10:43Z</time>
      </trkpt>
      <trkpt lat="45.85074" lon="1.22019">
        <ele>322.6</ele>
        <time>2024-10-21T07:10:44Z</time>
      </trkpt>
      <trkpt lat="45.85076" lon="1.22016">
        <ele>322.7</ele>
        <time>2024-10-21T07:10:45Z</time>
      </trkpt>
      <trkpt lat="45.85077" lon="1.22015">
        <ele>322.7</ele>
        <time>2024-10-21T07:10:47Z</time>
      </trkpt>
      <trkpt lat="45.85078" lon="1.22014">
        <ele>322.8</ele>
        <time>2024-10-21T07:10:48Z</time>
      </trkpt>
      <trkpt lat="45.85079" lon="1.22014">
        <ele>322.9</ele>
        <time>2024-10-21T07:10:49Z</time>
      </trkpt>
      <trkpt lat="45.8508" lon="1.22013">
        <ele>322.9</ele>
        <time>2024-10-21T07:10:50Z</time>
      </trkpt>
      <trkpt lat="45.85082" lon="1.22011">
        <ele>323.1</ele>
        <time>2024-10-21T07:10:51Z</time>
      </trkpt>
      <trkpt lat="45.85083" lon="1.2201">
        <ele>323.1</ele>
        <time>2024-10-21T07:10:53Z</time>
      </trkpt>
      <trkpt lat="45.85084" lon="1.22009">
        <ele>323.2</ele>
        <time>2024-10-21T07:10:54Z</time>
      </trkpt>
      <trkpt lat="45.85085" lon="1.22007">
        <ele>323.4</ele>
        <time>2024-10-21T07:10:55Z</time>
      </trkpt>
      <trkpt lat="45.85086" lon="1.22006">
        <ele>323.4</ele>
        <time>2024-10-21T07:10:56Z</time>
      </trkpt>
      <trkpt lat="45.85086" lon="1.22005">
        <ele>323.5</ele>
        <time>2024-10-21T07:10:57Z</time>
      </trkpt>
      <trkpt lat="45.85087" lon="1.22003">
        <ele>323.6</ele>
        <time>2024-10-21T07:10:58Z</time>
      </trkpt>
      <trkpt lat="45.85088" lon="1.22002">
        <ele>323.6</ele>
        <time>2024-10-21T07:10:59Z</time>
      </trkpt>
      <trkpt lat="45.85089" lon="1.22001">
        <ele>323.7</ele>
        <time>2024-10-21T07:11:00Z</time>
      </trkpt>
      <trkpt lat="45.85089" lon="1.22">
        <ele>323.8</ele>
        <time>2024-10-21T07:11:01Z</time>
      </trkpt>
      <trkpt lat="45.8509" lon="1.21998">
        <ele>323.9</ele>
        <time>2024-10-21T07:11:02Z</time>
      </trkpt>
      <trkpt lat="45.8509" lon="1.21998">
        <ele>323.9</ele>
        <time>2024-10-21T07:11:03Z</time>
      </trkpt>
      <trkpt lat="45.8509" lon="1.21998">
        <ele>323.9</ele>
        <time>2024-10-21T07:11:04Z</time>
      </trkpt>
      <trkpt lat="45.85091" lon="1.21998">
        <ele>324</ele>
        <time>2024-10-21T07:11:05Z</time>
      </trkpt>
      <trkpt lat="45.85091" lon="1.21998">
        <ele>324</ele>
        <time>2024-10-21T07:11:06Z</time>
      </trkpt>
      <trkpt lat="45.85091" lon="1.21998">
        <ele>324</ele>
        <time>2024-10-21T07:11:07Z</time>
      </trkpt>
      <trkpt lat="45.85091" lon="1.21998">
        <ele>324</ele>
        <time>2024-10-21T07:11:08Z</time>
      </trkpt>
      <trkpt lat="45.8509" lon="1.21998">
        <ele>324</ele>
        <time>2024-10-21T07:11:09Z</time>
      </trkpt>
      <trkpt lat="45.85089" lon="1.21998">
        <ele>324</ele>
        <time>2024-10-21T07:11:10Z</time>
      </trkpt>
      <trkpt lat="45.85088" lon="1.21998">
        <ele>324</ele>
        <time>2024-10-21T07:11:11Z</time>
      </trkpt>
      <trkpt lat="45.85087" lon="1.21998">
        <ele>324</ele>
        <time>2024-10-21T07:11:12Z</time>
      </trkpt>
      <trkpt lat="45.85087" lon="1.21997">
        <ele>324</ele>
        <time>2024-10-21T07:11:13Z</time>
      </trkpt>
      <trkpt lat="45.85087" lon="1.21997">
        <ele>324</ele>
        <time>2024-10-21T07:11:14Z</time>
      </trkpt>
      <trkpt lat="45.85086" lon="1.21997">
        <ele>324</ele>
        <time>2024-10-21T07:11:15Z</time>
      </trkpt>
      <trkpt lat="45.85085" lon="1.21995">
        <ele>324</ele>
        <time>2024-10-21T07:11:16Z</time>
      </trkpt>
      <trkpt lat="45.85084" lon="1.21994">
        <ele>324</ele>
        <time>2024-10-21T07:11:17Z</time>
      </trkpt>
      <trkpt lat="45.85084" lon="1.21994">
        <ele>324</ele>
        <time>2024-10-21T07:11:18Z</time>
      </trkpt>
      <trkpt lat="45.85084" lon="1.21994">
        <ele>324</ele>
        <time>2024-10-21T07:11:19Z</time>
      </trkpt>
      <trkpt lat="45.85084" lon="1.21994">
        <ele>324</ele>
        <time>2024-10-21T07:11:20Z</time>
      </trkpt>
      <trkpt lat="45.85084" lon="1.21994">
        <ele>324.1</ele>
        <time>2024-10-21T07:11:21Z</time>
      </trkpt>
      <trkpt lat="45.85084" lon="1.21993">
        <ele>324.1</ele>
        <time>2024-10-21T07:11:22Z</time>
      </trkpt>
      <trkpt lat="45.85083" lon="1.21993">
        <ele>324.1</ele>
        <time>2024-10-21T07:11:23Z</time>
      </trkpt>
      <trkpt lat="45.85083" lon="1.21993">
        <ele>324.1</ele>
        <time>2024-10-21T07:11:24Z</time>
      </trkpt>
      <trkpt lat="45.85083" lon="1.21993">
        <ele>324.1</ele>
        <time>2024-10-21T07:11:25Z</time>
      </trkpt>
      <trkpt lat="45.85083" lon="1.21993">
        <ele>324.1</ele>
        <time>2024-10-21T07:11:26Z</time>
      </trkpt>
      <trkpt lat="45.85083" lon="1.21993">
        <ele>324.1</ele>
        <time>2024-10-21T07:11:27Z</time>
      </trkpt>
      <trkpt lat="45.85083" lon="1.21992">
        <ele>324.1</ele>
        <time>2024-10-21T07:11:28Z</time>
      </trkpt>
      <trkpt lat="45.85083" lon="1.21992">
        <ele>324.1</ele>
        <time>2024-10-21T07:11:29Z</time>
      </trkpt>
      <trkpt lat="45.85082" lon="1.21992">
        <ele>324.1</ele>
        <time>2024-10-21T07:11:30Z</time>
      </trkpt>
      <trkpt lat="45.85082" lon="1.21992">
        <ele>324.1</ele>
        <time>2024-10-21T07:11:31Z</time>
      </trkpt>
      <trkpt lat="45.85082" lon="1.21992">
        <ele>324.1</ele>
        <time>2024-10-21T07:11:32Z</time>
      </trkpt>
      <trkpt lat="45.85082" lon="1.21992">
        <ele>324.1</ele>
        <time>2024-10-21T07:11:33Z</time>
      </trkpt>
      <trkpt lat="45.85082" lon="1.21991">
        <ele>324.1</ele>
        <time>2024-10-21T07:11:34Z</time>
      </trkpt>
      <trkpt lat="45.85082" lon="1.21991">
        <ele>324.1</ele>
        <time>2024-10-21T07:11:35Z</time>
      </trkpt>
      <trkpt lat="45.8508" lon="1.21992">
        <ele>324.1</ele>
        <time>2024-10-21T07:11:36Z</time>
      </trkpt>
      <trkpt lat="45.85079" lon="1.21991">
        <ele>324.1</ele>
        <time>2024-10-21T07:11:37Z</time>
      </trkpt>
      <trkpt lat="45.85078" lon="1.21991">
        <ele>324.2</ele>
        <time>2024-10-21T07:11:38Z</time>
      </trkpt>
      <trkpt lat="45.85077" lon="1.2199">
        <ele>324.2</ele>
        <time>2024-10-21T07:11:39Z</time>
      </trkpt>
      <trkpt lat="45.85076" lon="1.21989">
        <ele>324.2</ele>
        <time>2024-10-21T07:11:40Z</time>
      </trkpt>
      <trkpt lat="45.85075" lon="1.21988">
        <ele>324.3</ele>
        <time>2024-10-21T07:11:41Z</time>
      </trkpt>
      <trkpt lat="45.85075" lon="1.21988">
        <ele>324.3</ele>
        <time>2024-10-21T07:11:42Z</time>
      </trkpt>
      <trkpt lat="45.85074" lon="1.21987">
        <ele>324.3</ele>
        <time>2024-10-21T07:11:43Z</time>
      </trkpt>
      <trkpt lat="45.85073" lon="1.21986">
        <ele>324.4</ele>
        <time>2024-10-21T07:11:44Z</time>
      </trkpt>
      <trkpt lat="45.85072" lon="1.21985">
        <ele>324.4</ele>
        <time>2024-10-21T07:11:45Z</time>
      </trkpt>
      <trkpt lat="45.85071" lon="1.21983">
        <ele>324.5</ele>
        <time>2024-10-21T07:11:46Z</time>
      </trkpt>
      <trkpt lat="45.85071" lon="1.21983">
        <ele>324.5</ele>
        <time>2024-10-21T07:11:47Z</time>
      </trkpt>
      <trkpt lat="45.8507" lon="1.21981">
        <ele>324.6</ele>
        <time>2024-10-21T07:11:48Z</time>
      </trkpt>
      <trkpt lat="45.8507" lon="1.21981">
        <ele>324.6</ele>
        <time>2024-10-21T07:11:49Z</time>
      </trkpt>
      <trkpt lat="45.85068" lon="1.21979">
        <ele>324.7</ele>
        <time>2024-10-21T07:11:50Z</time>
      </trkpt>
      <trkpt lat="45.85068" lon="1.21979">
        <ele>324.7</ele>
        <time>2024-10-21T07:11:51Z</time>
      </trkpt>
      <trkpt lat="45.85067" lon="1.21978">
        <ele>324.8</ele>
        <time>2024-10-21T07:11:52Z</time>
      </trkpt>
      <trkpt lat="45.85066" lon="1.21977">
        <ele>324.8</ele>
        <time>2024-10-21T07:11:53Z</time>
      </trkpt>
      <trkpt lat="45.85066" lon="1.21976">
        <ele>324.8</ele>
        <time>2024-10-21T07:11:54Z</time>
      </trkpt>
      <trkpt lat="45.85065" lon="1.21975">
        <ele>324.9</ele>
        <time>2024-10-21T07:11:55Z</time>
      </trkpt>
      <trkpt lat="45.85064" lon="1.21976">
        <ele>324.9</ele>
        <time>2024-10-21T07:11:56Z</time>
      </trkpt>
      <trkpt lat="45.85062" lon="1.21975">
        <ele>325</ele>
        <time>2024-10-21T07:11:57Z</time>
      </trkpt>
      <trkpt lat="45.85062" lon="1.21973">
        <ele>325</ele>
        <time>2024-10-21T07:11:59Z</time>
      </trkpt>
      <trkpt lat="45.85061" lon="1.21972">
        <ele>325</ele>
        <time>2024-10-21T07:12:00Z</time>
      </trkpt>
      <trkpt lat="45.8506" lon="1.21971">
        <ele>325.1</ele>
        <time>2024-10-21T07:12:01Z</time>
      </trkpt>
      <trkpt lat="45.8506" lon="1.2197">
        <ele>325.1</ele>
        <time>2024-10-21T07:12:02Z</time>
      </trkpt>
      <trkpt lat="45.85059" lon="1.21969">
        <ele>325.1</ele>
        <time>2024-10-21T07:12:03Z</time>
      </trkpt>
      <trkpt lat="45.85059" lon="1.2197">
        <ele>325.1</ele>
        <time>2024-10-21T07:12:04Z</time>
      </trkpt>
      <trkpt lat="45.85059" lon="1.21971">
        <ele>325.1</ele>
        <time>2024-10-21T07:12:05Z</time>
      </trkpt>
      <trkpt lat="45.85058" lon="1.2197">
        <ele>325.2</ele>
        <time>2024-10-21T07:12:06Z</time>
      </trkpt>
      <trkpt lat="45.85058" lon="1.21969">
        <ele>325.2</ele>
        <time>2024-10-21T07:12:07Z</time>
      </trkpt>
      <trkpt lat="45.85058" lon="1.21968">
        <ele>325.3</ele>
        <time>2024-10-21T07:12:08Z</time>
      </trkpt>
      <trkpt lat="45.85059" lon="1.21966">
        <ele>325.4</ele>
        <time>2024-10-21T07:12:09Z</time>
      </trkpt>
      <trkpt lat="45.8506" lon="1.21965">
        <ele>325.5</ele>
        <time>2024-10-21T07:12:10Z</time>
      </trkpt>
      <trkpt lat="45.85061" lon="1.21963">
        <ele>325.6</ele>
        <time>2024-10-21T07:12:11Z</time>
      </trkpt>
      <trkpt lat="45.85062" lon="1.21961">
        <ele>325.8</ele>
        <time>2024-10-21T07:12:12Z</time>
      </trkpt>
      <trkpt lat="45.85063" lon="1.21958">
        <ele>326</ele>
        <time>2024-10-21T07:12:13Z</time>
      </trkpt>
      <trkpt lat="45.85063" lon="1.21957">
        <ele>326.1</ele>
        <time>2024-10-21T07:12:14Z</time>
      </trkpt>
      <trkpt lat="45.85064" lon="1.21956">
        <ele>326.2</ele>
        <time>2024-10-21T07:12:15Z</time>
      </trkpt>
      <trkpt lat="45.85064" lon="1.21953">
        <ele>326.3</ele>
        <time>2024-10-21T07:12:17Z</time>
      </trkpt>
      <trkpt lat="45.85064" lon="1.21952">
        <ele>326.4</ele>
        <time>2024-10-21T07:12:18Z</time>
      </trkpt>
      <trkpt lat="45.85064" lon="1.2195">
        <ele>326.6</ele>
        <time>2024-10-21T07:12:19Z</time>
      </trkpt>
      <trkpt lat="45.85065" lon="1.21948">
        <ele>326.7</ele>
        <time>2024-10-21T07:12:20Z</time>
      </trkpt>
      <trkpt lat="45.85066" lon="1.21947">
        <ele>326.8</ele>
        <time>2024-10-21T07:12:21Z</time>
      </trkpt>
      <trkpt lat="45.85067" lon="1.21945">
        <ele>326.9</ele>
        <time>2024-10-21T07:12:22Z</time>
      </trkpt>
      <trkpt lat="45.85067" lon="1.21944">
        <ele>327</ele>
        <time>2024-10-21T07:12:23Z</time>
      </trkpt>
      <trkpt lat="45.85068" lon="1.21943">
        <ele>327.1</ele>
        <time>2024-10-21T07:12:24Z</time>
      </trkpt>
      <trkpt lat="45.85069" lon="1.21942">
        <ele>327.2</ele>
        <time>2024-10-21T07:12:25Z</time>
      </trkpt>
      <trkpt lat="45.85069" lon="1.21941">
        <ele>327.3</ele>
        <time>2024-10-21T07:12:26Z</time>
      </trkpt>
      <trkpt lat="45.8507" lon="1.21939">
        <ele>327.4</ele>
        <time>2024-10-21T07:12:27Z</time>
      </trkpt>
      <trkpt lat="45.85071" lon="1.21938">
        <ele>327.5</ele>
        <time>2024-10-21T07:12:28Z</time>
      </trkpt>
      <trkpt lat="45.85071" lon="1.21936">
        <ele>327.6</ele>
        <time>2024-10-21T07:12:29Z</time>
      </trkpt>
      <trkpt lat="45.85072" lon="1.21935">
        <ele>327.7</ele>
        <time>2024-10-21T07:12:30Z</time>
      </trkpt>
      <trkpt lat="45.85073" lon="1.21934">
        <ele>327.8</ele>
        <time>2024-10-21T07:12:31Z</time>
      </trkpt>
      <trkpt lat="45.85074" lon="1.21933">
        <ele>327.9</ele>
        <time>2024-10-21T07:12:32Z</time>
      </trkpt>
      <trkpt lat="45.85075" lon="1.21931">
        <ele>328</ele>
        <time>2024-10-21T07:12:33Z</time>
      </trkpt>
      <trkpt lat="45.85076" lon="1.21929">
        <ele>328.1</ele>
        <time>2024-10-21T07:12:34Z</time>
      </trkpt>
      <trkpt lat="45.85076" lon="1.21928">
        <ele>328.2</ele>
        <time>2024-10-21T07:12:35Z</time>
      </trkpt>
      <trkpt lat="45.85077" lon="1.21927">
        <ele>328.3</ele>
        <time>2024-10-21T07:12:36Z</time>
      </trkpt>
      <trkpt lat="45.85078" lon="1.21925">
        <ele>328.4</ele>
        <time>2024-10-21T07:12:37Z</time>
      </trkpt>
      <trkpt lat="45.85078" lon="1.21923">
        <ele>328.5</ele>
        <time>2024-10-21T07:12:38Z</time>
      </trkpt>
      <trkpt lat="45.8508" lon="1.21921">
        <ele>328.7</ele>
        <time>2024-10-21T07:12:39Z</time>
      </trkpt>
      <trkpt lat="45.8508" lon="1.2192">
        <ele>328.8</ele>
        <time>2024-10-21T07:12:40Z</time>
      </trkpt>
      <trkpt lat="45.85081" lon="1.21919">
        <ele>328.9</ele>
        <time>2024-10-21T07:12:41Z</time>
      </trkpt>
      <trkpt lat="45.85082" lon="1.21916">
        <ele>329.1</ele>
        <time>2024-10-21T07:12:42Z</time>
      </trkpt>
      <trkpt lat="45.85083" lon="1.21915">
        <ele>329.1</ele>
        <time>2024-10-21T07:12:43Z</time>
      </trkpt>
      <trkpt lat="45.85083" lon="1.21915">
        <ele>329.2</ele>
        <time>2024-10-21T07:12:44Z</time>
      </trkpt>
      <trkpt lat="45.85085" lon="1.21912">
        <ele>329.4</ele>
        <time>2024-10-21T07:12:45Z</time>
      </trkpt>
      <trkpt lat="45.85085" lon="1.21911">
        <ele>329.4</ele>
        <time>2024-10-21T07:12:46Z</time>
      </trkpt>
      <trkpt lat="45.85086" lon="1.2191">
        <ele>329.5</ele>
        <time>2024-10-21T07:12:47Z</time>
      </trkpt>
      <trkpt lat="45.85086" lon="1.21909">
        <ele>329.6</ele>
        <time>2024-10-21T07:12:48Z</time>
      </trkpt>
      <trkpt lat="45.85087" lon="1.21907">
        <ele>329.8</ele>
        <time>2024-10-21T07:12:49Z</time>
      </trkpt>
      <trkpt lat="45.85088" lon="1.21904">
        <ele>330</ele>
        <time>2024-10-21T07:12:50Z</time>
      </trkpt>
      <trkpt lat="45.85088" lon="1.21903">
        <ele>330</ele>
        <time>2024-10-21T07:12:51Z</time>
      </trkpt>
      <trkpt lat="45.85088" lon="1.21902">
        <ele>330.1</ele>
        <time>2024-10-21T07:12:52Z</time>
      </trkpt>
      <trkpt lat="45.85089" lon="1.21899">
        <ele>330.3</ele>
        <time>2024-10-21T07:12:53Z</time>
      </trkpt>
      <trkpt lat="45.8509" lon="1.21898">
        <ele>330.4</ele>
        <time>2024-10-21T07:12:54Z</time>
      </trkpt>
      <trkpt lat="45.8509" lon="1.21897">
        <ele>330.5</ele>
        <time>2024-10-21T07:12:55Z</time>
      </trkpt>
      <trkpt lat="45.8509" lon="1.21894">
        <ele>330.6</ele>
        <time>2024-10-21T07:12:56Z</time>
      </trkpt>
      <trkpt lat="45.8509" lon="1.21893">
        <ele>330.7</ele>
        <time>2024-10-21T07:12:57Z</time>
      </trkpt>
      <trkpt lat="45.85091" lon="1.21892">
        <ele>330.8</ele>
        <time>2024-10-21T07:12:58Z</time>
      </trkpt>
      <trkpt lat="45.85091" lon="1.2189">
        <ele>330.9</ele>
        <time>2024-10-21T07:12:59Z</time>
      </trkpt>
      <trkpt lat="45.85091" lon="1.21888">
        <ele>331</ele>
        <time>2024-10-21T07:13:00Z</time>
      </trkpt>
      <trkpt lat="45.85092" lon="1.21887">
        <ele>331.1</ele>
        <time>2024-10-21T07:13:01Z</time>
      </trkpt>
      <trkpt lat="45.85093" lon="1.21885">
        <ele>331.2</ele>
        <time>2024-10-21T07:13:02Z</time>
      </trkpt>
      <trkpt lat="45.85093" lon="1.21882">
        <ele>331.4</ele>
        <time>2024-10-21T07:13:03Z</time>
      </trkpt>
      <trkpt lat="45.85094" lon="1.21879">
        <ele>331.6</ele>
        <time>2024-10-21T07:13:05Z</time>
      </trkpt>
      <trkpt lat="45.85094" lon="1.21878">
        <ele>331.7</ele>
        <time>2024-10-21T07:13:06Z</time>
      </trkpt>
      <trkpt lat="45.85095" lon="1.21877">
        <ele>331.8</ele>
        <time>2024-10-21T07:13:07Z</time>
      </trkpt>
      <trkpt lat="45.85095" lon="1.21876">
        <ele>331.8</ele>
        <time>2024-10-21T07:13:08Z</time>
      </trkpt>
      <trkpt lat="45.85096" lon="1.21874">
        <ele>332</ele>
        <time>2024-10-21T07:13:09Z</time>
      </trkpt>
      <trkpt lat="45.85096" lon="1.21873">
        <ele>332.1</ele>
        <time>2024-10-21T07:13:10Z</time>
      </trkpt>
      <trkpt lat="45.85096" lon="1.2187">
        <ele>332.2</ele>
        <time>2024-10-21T07:13:11Z</time>
      </trkpt>
      <trkpt lat="45.85096" lon="1.21869">
        <ele>332.3</ele>
        <time>2024-10-21T07:13:12Z</time>
      </trkpt>
      <trkpt lat="45.85096" lon="1.21867">
        <ele>332.4</ele>
        <time>2024-10-21T07:13:13Z</time>
      </trkpt>
      <trkpt lat="45.85096" lon="1.21866">
        <ele>332.5</ele>
        <time>2024-10-21T07:13:14Z</time>
      </trkpt>
      <trkpt lat="45.85096" lon="1.21864">
        <ele>332.6</ele>
        <time>2024-10-21T07:13:15Z</time>
      </trkpt>
      <trkpt lat="45.85096" lon="1.21863">
        <ele>332.7</ele>
        <time>2024-10-21T07:13:16Z</time>
      </trkpt>
      <trkpt lat="45.85096" lon="1.21861">
        <ele>332.8</ele>
        <time>2024-10-21T07:13:17Z</time>
      </trkpt>
      <trkpt lat="45.85095" lon="1.21859">
        <ele>332.8</ele>
        <time>2024-10-21T07:13:18Z</time>
      </trkpt>
      <trkpt lat="45.85095" lon="1.21858">
        <ele>332.9</ele>
        <time>2024-10-21T07:13:19Z</time>
      </trkpt>
      <trkpt lat="45.85094" lon="1.21856">
        <ele>333</ele>
        <time>2024-10-21T07:13:20Z</time>
      </trkpt>
      <trkpt lat="45.85093" lon="1.21855">
        <ele>333</ele>
        <time>2024-10-21T07:13:21Z</time>
      </trkpt>
      <trkpt lat="45.85092" lon="1.21854">
        <ele>333.1</ele>
        <time>2024-10-21T07:13:22Z</time>
      </trkpt>
      <trkpt lat="45.85092" lon="1.21853">
        <ele>333.1</ele>
        <time>2024-10-21T07:13:23Z</time>
      </trkpt>
      <trkpt lat="45.85091" lon="1.21852">
        <ele>333.2</ele>
        <time>2024-10-21T07:13:24Z</time>
      </trkpt>
      <trkpt lat="45.8509" lon="1.2185">
        <ele>333.2</ele>
        <time>2024-10-21T07:13:25Z</time>
      </trkpt>
      <trkpt lat="45.85088" lon="1.21848">
        <ele>333.3</ele>
        <time>2024-10-21T07:13:26Z</time>
      </trkpt>
      <trkpt lat="45.85088" lon="1.21847">
        <ele>333.3</ele>
        <time>2024-10-21T07:13:27Z</time>
      </trkpt>
      <trkpt lat="45.85087" lon="1.21846">
        <ele>333.4</ele>
        <time>2024-10-21T07:13:28Z</time>
      </trkpt>
      <trkpt lat="45.85086" lon="1.21843">
        <ele>333.5</ele>
        <time>2024-10-21T07:13:29Z</time>
      </trkpt>
      <trkpt lat="45.85086" lon="1.21842">
        <ele>333.5</ele>
        <time>2024-10-21T07:13:30Z</time>
      </trkpt>
      <trkpt lat="45.85085" lon="1.21841">
        <ele>333.5</ele>
        <time>2024-10-21T07:13:31Z</time>
      </trkpt>
      <trkpt lat="45.85085" lon="1.21839">
        <ele>333.6</ele>
        <time>2024-10-21T07:13:32Z</time>
      </trkpt>
      <trkpt lat="45.85084" lon="1.21838">
        <ele>333.6</ele>
        <time>2024-10-21T07:13:33Z</time>
      </trkpt>
      <trkpt lat="45.85083" lon="1.21835">
        <ele>333.7</ele>
        <time>2024-10-21T07:13:34Z</time>
      </trkpt>
      <trkpt lat="45.85083" lon="1.21834">
        <ele>333.7</ele>
        <time>2024-10-21T07:13:35Z</time>
      </trkpt>
      <trkpt lat="45.85082" lon="1.21833">
        <ele>333.8</ele>
        <time>2024-10-21T07:13:36Z</time>
      </trkpt>
      <trkpt lat="45.85081" lon="1.21831">
        <ele>333.8</ele>
        <time>2024-10-21T07:13:37Z</time>
      </trkpt>
      <trkpt lat="45.8508" lon="1.2183">
        <ele>333.9</ele>
        <time>2024-10-21T07:13:38Z</time>
      </trkpt>
      <trkpt lat="45.85079" lon="1.21829">
        <ele>333.9</ele>
        <time>2024-10-21T07:13:39Z</time>
      </trkpt>
      <trkpt lat="45.85078" lon="1.21827">
        <ele>334</ele>
        <time>2024-10-21T07:13:40Z</time>
      </trkpt>
      <trkpt lat="45.85077" lon="1.21826">
        <ele>334</ele>
        <time>2024-10-21T07:13:41Z</time>
      </trkpt>
      <trkpt lat="45.85077" lon="1.21825">
        <ele>334</ele>
        <time>2024-10-21T07:13:42Z</time>
      </trkpt>
      <trkpt lat="45.85076" lon="1.21823">
        <ele>334</ele>
        <time>2024-10-21T07:13:43Z</time>
      </trkpt>
      <trkpt lat="45.85076" lon="1.21822">
        <ele>334.1</ele>
        <time>2024-10-21T07:13:44Z</time>
      </trkpt>
      <trkpt lat="45.85075" lon="1.21821">
        <ele>334.1</ele>
        <time>2024-10-21T07:13:45Z</time>
      </trkpt>
      <trkpt lat="45.85074" lon="1.21819">
        <ele>334.1</ele>
        <time>2024-10-21T07:13:46Z</time>
      </trkpt>
      <trkpt lat="45.85073" lon="1.21817">
        <ele>334.2</ele>
        <time>2024-10-21T07:13:47Z</time>
      </trkpt>
      <trkpt lat="45.85073" lon="1.21816">
        <ele>334.2</ele>
        <time>2024-10-21T07:13:48Z</time>
      </trkpt>
      <trkpt lat="45.85072" lon="1.21815">
        <ele>334.2</ele>
        <time>2024-10-21T07:13:49Z</time>
      </trkpt>
      <trkpt lat="45.85071" lon="1.21814">
        <ele>334.2</ele>
        <time>2024-10-21T07:13:50Z</time>
      </trkpt>
      <trkpt lat="45.85069" lon="1.21812">
        <ele>334.3</ele>
        <time>2024-10-21T07:13:51Z</time>
      </trkpt>
      <trkpt lat="45.85069" lon="1.2181">
        <ele>334.3</ele>
        <time>2024-10-21T07:13:52Z</time>
      </trkpt>
      <trkpt lat="45.85069" lon="1.2181">
        <ele>334.3</ele>
        <time>2024-10-21T07:13:53Z</time>
      </trkpt>
      <trkpt lat="45.85068" lon="1.21809">
        <ele>334.3</ele>
        <time>2024-10-21T07:13:54Z</time>
      </trkpt>
      <trkpt lat="45.85067" lon="1.21807">
        <ele>334.4</ele>
        <time>2024-10-21T07:13:55Z</time>
      </trkpt>
      <trkpt lat="45.85066" lon="1.21806">
        <ele>334.4</ele>
        <time>2024-10-21T07:13:56Z</time>
      </trkpt>
      <trkpt lat="45.85065" lon="1.21804">
        <ele>334.4</ele>
        <time>2024-10-21T07:13:57Z</time>
      </trkpt>
      <trkpt lat="45.85064" lon="1.21801">
        <ele>334.5</ele>
        <time>2024-10-21T07:13:58Z</time>
      </trkpt>
      <trkpt lat="45.85063" lon="1.218">
        <ele>334.5</ele>
        <time>2024-10-21T07:13:59Z</time>
      </trkpt>
      <trkpt lat="45.85063" lon="1.218">
        <ele>334.5</ele>
        <time>2024-10-21T07:14:00Z</time>
      </trkpt>
      <trkpt lat="45.85062" lon="1.21798">
        <ele>334.5</ele>
        <time>2024-10-21T07:14:01Z</time>
      </trkpt>
      <trkpt lat="45.85061" lon="1.21797">
        <ele>334.5</ele>
        <time>2024-10-21T07:14:02Z</time>
      </trkpt>
      <trkpt lat="45.85059" lon="1.21794">
        <ele>334.6</ele>
        <time>2024-10-21T07:14:03Z</time>
      </trkpt>
      <trkpt lat="45.85059" lon="1.21793">
        <ele>334.6</ele>
        <time>2024-10-21T07:14:04Z</time>
      </trkpt>
      <trkpt lat="45.85058" lon="1.21792">
        <ele>334.6</ele>
        <time>2024-10-21T07:14:05Z</time>
      </trkpt>
      <trkpt lat="45.85058" lon="1.21791">
        <ele>334.6</ele>
        <time>2024-10-21T07:14:06Z</time>
      </trkpt>
      <trkpt lat="45.85057" lon="1.21789">
        <ele>334.6</ele>
        <time>2024-10-21T07:14:07Z</time>
      </trkpt>
      <trkpt lat="45.85056" lon="1.21787">
        <ele>334.7</ele>
        <time>2024-10-21T07:14:08Z</time>
      </trkpt>
      <trkpt lat="45.85055" lon="1.21786">
        <ele>334.7</ele>
        <time>2024-10-21T07:14:09Z</time>
      </trkpt>
      <trkpt lat="45.85054" lon="1.21786">
        <ele>334.7</ele>
        <time>2024-10-21T07:14:10Z</time>
      </trkpt>
      <trkpt lat="45.85053" lon="1.21785">
        <ele>334.7</ele>
        <time>2024-10-21T07:14:11Z</time>
      </trkpt>
      <trkpt lat="45.85052" lon="1.21783">
        <ele>334.8</ele>
        <time>2024-10-21T07:14:12Z</time>
      </trkpt>
      <trkpt lat="45.8505" lon="1.21782">
        <ele>334.8</ele>
        <time>2024-10-21T07:14:13Z</time>
      </trkpt>
      <trkpt lat="45.85049" lon="1.21781">
        <ele>334.8</ele>
        <time>2024-10-21T07:14:14Z</time>
      </trkpt>
      <trkpt lat="45.85049" lon="1.2178">
        <ele>334.8</ele>
        <time>2024-10-21T07:14:15Z</time>
      </trkpt>
      <trkpt lat="45.85047" lon="1.21779">
        <ele>334.9</ele>
        <time>2024-10-21T07:14:16Z</time>
      </trkpt>
      <trkpt lat="45.85046" lon="1.21777">
        <ele>334.9</ele>
        <time>2024-10-21T07:14:17Z</time>
      </trkpt>
      <trkpt lat="45.85045" lon="1.21776">
        <ele>334.9</ele>
        <time>2024-10-21T07:14:18Z</time>
      </trkpt>
      <trkpt lat="45.85044" lon="1.21775">
        <ele>334.9</ele>
        <time>2024-10-21T07:14:19Z</time>
      </trkpt>
      <trkpt lat="45.85043" lon="1.21774">
        <ele>335</ele>
        <time>2024-10-21T07:14:20Z</time>
      </trkpt>
      <trkpt lat="45.85043" lon="1.21773">
        <ele>335</ele>
        <time>2024-10-21T07:14:21Z</time>
      </trkpt>
      <trkpt lat="45.85041" lon="1.21771">
        <ele>335</ele>
        <time>2024-10-21T07:14:22Z</time>
      </trkpt>
      <trkpt lat="45.85041" lon="1.2177">
        <ele>335</ele>
        <time>2024-10-21T07:14:23Z</time>
      </trkpt>
      <trkpt lat="45.8504" lon="1.21769">
        <ele>335.1</ele>
        <time>2024-10-21T07:14:24Z</time>
      </trkpt>
      <trkpt lat="45.85039" lon="1.21769">
        <ele>335.1</ele>
        <time>2024-10-21T07:14:25Z</time>
      </trkpt>
      <trkpt lat="45.85038" lon="1.21769">
        <ele>335.1</ele>
        <time>2024-10-21T07:14:26Z</time>
      </trkpt>
      <trkpt lat="45.85037" lon="1.21769">
        <ele>335.1</ele>
        <time>2024-10-21T07:14:27Z</time>
      </trkpt>
      <trkpt lat="45.85036" lon="1.21768">
        <ele>335.1</ele>
        <time>2024-10-21T07:14:28Z</time>
      </trkpt>
      <trkpt lat="45.85035" lon="1.21767">
        <ele>335.2</ele>
        <time>2024-10-21T07:14:29Z</time>
      </trkpt>
      <trkpt lat="45.85034" lon="1.21767">
        <ele>335.2</ele>
        <time>2024-10-21T07:14:30Z</time>
      </trkpt>
      <trkpt lat="45.85032" lon="1.21766">
        <ele>335.2</ele>
        <time>2024-10-21T07:14:31Z</time>
      </trkpt>
      <trkpt lat="45.85031" lon="1.21765">
        <ele>335.3</ele>
        <time>2024-10-21T07:14:33Z</time>
      </trkpt>
      <trkpt lat="45.8503" lon="1.21762">
        <ele>335.3</ele>
        <time>2024-10-21T07:14:34Z</time>
      </trkpt>
      <trkpt lat="45.85029" lon="1.21761">
        <ele>335.3</ele>
        <time>2024-10-21T07:14:35Z</time>
      </trkpt>
      <trkpt lat="45.85028" lon="1.21759">
        <ele>335.3</ele>
        <time>2024-10-21T07:14:36Z</time>
      </trkpt>
      <trkpt lat="45.85028" lon="1.21757">
        <ele>335.4</ele>
        <time>2024-10-21T07:14:37Z</time>
      </trkpt>
      <trkpt lat="45.85027" lon="1.21755">
        <ele>335.4</ele>
        <time>2024-10-21T07:14:38Z</time>
      </trkpt>
      <trkpt lat="45.85027" lon="1.21753">
        <ele>335.4</ele>
        <time>2024-10-21T07:14:39Z</time>
      </trkpt>
      <trkpt lat="45.85026" lon="1.2175">
        <ele>335.4</ele>
        <time>2024-10-21T07:14:40Z</time>
      </trkpt>
      <trkpt lat="45.85025" lon="1.21749">
        <ele>335.5</ele>
        <time>2024-10-21T07:14:41Z</time>
      </trkpt>
      <trkpt lat="45.85025" lon="1.21748">
        <ele>335.5</ele>
        <time>2024-10-21T07:14:42Z</time>
      </trkpt>
      <trkpt lat="45.85024" lon="1.21746">
        <ele>335.5</ele>
        <time>2024-10-21T07:14:43Z</time>
      </trkpt>
      <trkpt lat="45.85023" lon="1.21744">
        <ele>335.5</ele>
        <time>2024-10-21T07:14:44Z</time>
      </trkpt>
      <trkpt lat="45.85023" lon="1.21743">
        <ele>335.5</ele>
        <time>2024-10-21T07:14:45Z</time>
      </trkpt>
      <trkpt lat="45.85022" lon="1.21741">
        <ele>335.5</ele>
        <time>2024-10-21T07:14:46Z</time>
      </trkpt>
      <trkpt lat="45.85021" lon="1.21739">
        <ele>335.6</ele>
        <time>2024-10-21T07:14:47Z</time>
      </trkpt>
      <trkpt lat="45.8502" lon="1.21738">
        <ele>335.6</ele>
        <time>2024-10-21T07:14:48Z</time>
      </trkpt>
      <trkpt lat="45.8502" lon="1.21736">
        <ele>335.6</ele>
        <time>2024-10-21T07:14:49Z</time>
      </trkpt>
      <trkpt lat="45.85019" lon="1.21735">
        <ele>335.6</ele>
        <time>2024-10-21T07:14:50Z</time>
      </trkpt>
      <trkpt lat="45.85018" lon="1.21733">
        <ele>335.6</ele>
        <time>2024-10-21T07:14:51Z</time>
      </trkpt>
      <trkpt lat="45.85018" lon="1.21732">
        <ele>335.6</ele>
        <time>2024-10-21T07:14:52Z</time>
      </trkpt>
      <trkpt lat="45.85017" lon="1.2173">
        <ele>335.6</ele>
        <time>2024-10-21T07:14:53Z</time>
      </trkpt>
      <trkpt lat="45.85016" lon="1.21728">
        <ele>335.7</ele>
        <time>2024-10-21T07:14:54Z</time>
      </trkpt>
      <trkpt lat="45.85016" lon="1.21726">
        <ele>335.7</ele>
        <time>2024-10-21T07:14:55Z</time>
      </trkpt>
      <trkpt lat="45.85016" lon="1.21725">
        <ele>335.7</ele>
        <time>2024-10-21T07:14:56Z</time>
      </trkpt>
      <trkpt lat="45.85015" lon="1.21723">
        <ele>335.7</ele>
        <time>2024-10-21T07:14:57Z</time>
      </trkpt>
      <trkpt lat="45.85014" lon="1.21722">
        <ele>335.7</ele>
        <time>2024-10-21T07:14:58Z</time>
      </trkpt>
      <trkpt lat="45.85013" lon="1.21719">
        <ele>335.7</ele>
        <time>2024-10-21T07:14:59Z</time>
      </trkpt>
      <trkpt lat="45.85013" lon="1.21718">
        <ele>335.7</ele>
        <time>2024-10-21T07:15:00Z</time>
      </trkpt>
      <trkpt lat="45.85012" lon="1.21717">
        <ele>335.7</ele>
        <time>2024-10-21T07:15:01Z</time>
      </trkpt>
      <trkpt lat="45.85011" lon="1.21715">
        <ele>335.7</ele>
        <time>2024-10-21T07:15:02Z</time>
      </trkpt>
      <trkpt lat="45.85011" lon="1.21713">
        <ele>335.7</ele>
        <time>2024-10-21T07:15:03Z</time>
      </trkpt>
      <trkpt lat="45.85011" lon="1.21712">
        <ele>335.7</ele>
        <time>2024-10-21T07:15:04Z</time>
      </trkpt>
      <trkpt lat="45.85012" lon="1.2171">
        <ele>335.7</ele>
        <time>2024-10-21T07:15:05Z</time>
      </trkpt>
      <trkpt lat="45.85011" lon="1.21709">
        <ele>335.7</ele>
        <time>2024-10-21T07:15:06Z</time>
      </trkpt>
      <trkpt lat="45.8501" lon="1.21707">
        <ele>335.7</ele>
        <time>2024-10-21T07:15:07Z</time>
      </trkpt>
      <trkpt lat="45.85009" lon="1.21707">
        <ele>335.7</ele>
        <time>2024-10-21T07:15:08Z</time>
      </trkpt>
      <trkpt lat="45.85009" lon="1.21712">
        <ele>335.8</ele>
        <time>2024-10-21T07:15:09Z</time>
      </trkpt>
      <trkpt lat="45.85009" lon="1.21716">
        <ele>335.8</ele>
        <time>2024-10-21T07:15:10Z</time>
      </trkpt>
      <trkpt lat="45.8501" lon="1.21716">
        <ele>335.8</ele>
        <time>2024-10-21T07:15:11Z</time>
      </trkpt>
      <trkpt lat="45.85011" lon="1.21716">
        <ele>335.8</ele>
        <time>2024-10-21T07:15:12Z</time>
      </trkpt>
      <trkpt lat="45.85012" lon="1.21716">
        <ele>335.8</ele>
        <time>2024-10-21T07:15:13Z</time>
      </trkpt>
      <trkpt lat="45.85012" lon="1.21715">
        <ele>335.8</ele>
        <time>2024-10-21T07:15:14Z</time>
      </trkpt>
      <trkpt lat="45.85011" lon="1.21712">
        <ele>335.8</ele>
        <time>2024-10-21T07:15:15Z</time>
      </trkpt>
      <trkpt lat="45.85011" lon="1.21711">
        <ele>335.8</ele>
        <time>2024-10-21T07:15:16Z</time>
      </trkpt>
      <trkpt lat="45.8501" lon="1.2171">
        <ele>335.8</ele>
        <time>2024-10-21T07:15:17Z</time>
      </trkpt>
      <trkpt lat="45.85009" lon="1.21709">
        <ele>335.8</ele>
        <time>2024-10-21T07:15:18Z</time>
      </trkpt>
      <trkpt lat="45.85008" lon="1.21707">
        <ele>335.8</ele>
        <time>2024-10-21T07:15:19Z</time>
      </trkpt>
      <trkpt lat="45.85007" lon="1.21705">
        <ele>335.8</ele>
        <time>2024-10-21T07:15:20Z</time>
      </trkpt>
      <trkpt lat="45.85007" lon="1.21704">
        <ele>335.8</ele>
        <time>2024-10-21T07:15:21Z</time>
      </trkpt>
      <trkpt lat="45.85005" lon="1.21702">
        <ele>335.8</ele>
        <time>2024-10-21T07:15:22Z</time>
      </trkpt>
      <trkpt lat="45.85005" lon="1.217">
        <ele>335.8</ele>
        <time>2024-10-21T07:15:23Z</time>
      </trkpt>
      <trkpt lat="45.85004" lon="1.21699">
        <ele>335.8</ele>
        <time>2024-10-21T07:15:24Z</time>
      </trkpt>
      <trkpt lat="45.85003" lon="1.21697">
        <ele>335.8</ele>
        <time>2024-10-21T07:15:25Z</time>
      </trkpt>
      <trkpt lat="45.85002" lon="1.21695">
        <ele>335.8</ele>
        <time>2024-10-21T07:15:26Z</time>
      </trkpt>
      <trkpt lat="45.85001" lon="1.21693">
        <ele>335.8</ele>
        <time>2024-10-21T07:15:27Z</time>
      </trkpt>
      <trkpt lat="45.85" lon="1.21691">
        <ele>335.8</ele>
        <time>2024-10-21T07:15:28Z</time>
      </trkpt>
      <trkpt lat="45.85" lon="1.21689">
        <ele>335.8</ele>
        <time>2024-10-21T07:15:29Z</time>
      </trkpt>
      <trkpt lat="45.84999" lon="1.21687">
        <ele>335.7</ele>
        <time>2024-10-21T07:15:30Z</time>
      </trkpt>
      <trkpt lat="45.84998" lon="1.21686">
        <ele>335.7</ele>
        <time>2024-10-21T07:15:31Z</time>
      </trkpt>
      <trkpt lat="45.84998" lon="1.21684">
        <ele>335.7</ele>
        <time>2024-10-21T07:15:32Z</time>
      </trkpt>
      <trkpt lat="45.84997" lon="1.21682">
        <ele>335.7</ele>
        <time>2024-10-21T07:15:33Z</time>
      </trkpt>
      <trkpt lat="45.84996" lon="1.2168">
        <ele>335.7</ele>
        <time>2024-10-21T07:15:34Z</time>
      </trkpt>
      <trkpt lat="45.84995" lon="1.21678">
        <ele>335.6</ele>
        <time>2024-10-21T07:15:35Z</time>
      </trkpt>
      <trkpt lat="45.84994" lon="1.21675">
        <ele>335.6</ele>
        <time>2024-10-21T07:15:36Z</time>
      </trkpt>
      <trkpt lat="45.84993" lon="1.21674">
        <ele>335.6</ele>
        <time>2024-10-21T07:15:37Z</time>
      </trkpt>
      <trkpt lat="45.84993" lon="1.21673">
        <ele>335.6</ele>
        <time>2024-10-21T07:15:38Z</time>
      </trkpt>
      <trkpt lat="45.84992" lon="1.21672">
        <ele>335.5</ele>
        <time>2024-10-21T07:15:39Z</time>
      </trkpt>
      <trkpt lat="45.84991" lon="1.21671">
        <ele>335.5</ele>
        <time>2024-10-21T07:15:40Z</time>
      </trkpt>
      <trkpt lat="45.84989" lon="1.21669">
        <ele>335.4</ele>
        <time>2024-10-21T07:15:41Z</time>
      </trkpt>
      <trkpt lat="45.84988" lon="1.21667">
        <ele>335.4</ele>
        <time>2024-10-21T07:15:42Z</time>
      </trkpt>
      <trkpt lat="45.84987" lon="1.21666">
        <ele>335.4</ele>
        <time>2024-10-21T07:15:43Z</time>
      </trkpt>
      <trkpt lat="45.84986" lon="1.21664">
        <ele>335.3</ele>
        <time>2024-10-21T07:15:44Z</time>
      </trkpt>
      <trkpt lat="45.84985" lon="1.21663">
        <ele>335.3</ele>
        <time>2024-10-21T07:15:45Z</time>
      </trkpt>
      <trkpt lat="45.84983" lon="1.21661">
        <ele>335.2</ele>
        <time>2024-10-21T07:15:46Z</time>
      </trkpt>
      <trkpt lat="45.84982" lon="1.2166">
        <ele>335.2</ele>
        <time>2024-10-21T07:15:47Z</time>
      </trkpt>
      <trkpt lat="45.84981" lon="1.21658">
        <ele>335.1</ele>
        <time>2024-10-21T07:15:48Z</time>
      </trkpt>
      <trkpt lat="45.8498" lon="1.21657">
        <ele>335.1</ele>
        <time>2024-10-21T07:15:49Z</time>
      </trkpt>
      <trkpt lat="45.84979" lon="1.21655">
        <ele>335</ele>
        <time>2024-10-21T07:15:50Z</time>
      </trkpt>
      <trkpt lat="45.84978" lon="1.21654">
        <ele>335</ele>
        <time>2024-10-21T07:15:51Z</time>
      </trkpt>
      <trkpt lat="45.84977" lon="1.21652">
        <ele>335</ele>
        <time>2024-10-21T07:15:52Z</time>
      </trkpt>
      <trkpt lat="45.84975" lon="1.2165">
        <ele>334.9</ele>
        <time>2024-10-21T07:15:53Z</time>
      </trkpt>
      <trkpt lat="45.84974" lon="1.21649">
        <ele>334.9</ele>
        <time>2024-10-21T07:15:54Z</time>
      </trkpt>
      <trkpt lat="45.84973" lon="1.21648">
        <ele>334.8</ele>
        <time>2024-10-21T07:15:55Z</time>
      </trkpt>
      <trkpt lat="45.84972" lon="1.21646">
        <ele>334.8</ele>
        <time>2024-10-21T07:15:56Z</time>
      </trkpt>
      <trkpt lat="45.84971" lon="1.21644">
        <ele>334.7</ele>
        <time>2024-10-21T07:15:57Z</time>
      </trkpt>
      <trkpt lat="45.8497" lon="1.21642">
        <ele>334.7</ele>
        <time>2024-10-21T07:15:58Z</time>
      </trkpt>
      <trkpt lat="45.8497" lon="1.21641">
        <ele>334.7</ele>
        <time>2024-10-21T07:15:59Z</time>
      </trkpt>
      <trkpt lat="45.84969" lon="1.21639">
        <ele>334.6</ele>
        <time>2024-10-21T07:16:00Z</time>
      </trkpt>
      <trkpt lat="45.84968" lon="1.21637">
        <ele>334.6</ele>
        <time>2024-10-21T07:16:01Z</time>
      </trkpt>
      <trkpt lat="45.84967" lon="1.21636">
        <ele>334.6</ele>
        <time>2024-10-21T07:16:02Z</time>
      </trkpt>
      <trkpt lat="45.84966" lon="1.21634">
        <ele>334.5</ele>
        <time>2024-10-21T07:16:03Z</time>
      </trkpt>
      <trkpt lat="45.84965" lon="1.21633">
        <ele>334.5</ele>
        <time>2024-10-21T07:16:04Z</time>
      </trkpt>
      <trkpt lat="45.84964" lon="1.21632">
        <ele>334.5</ele>
        <time>2024-10-21T07:16:05Z</time>
      </trkpt>
      <trkpt lat="45.84963" lon="1.21631">
        <ele>334.4</ele>
        <time>2024-10-21T07:16:06Z</time>
      </trkpt>
      <trkpt lat="45.84962" lon="1.2163">
        <ele>334.4</ele>
        <time>2024-10-21T07:16:07Z</time>
      </trkpt>
      <trkpt lat="45.84961" lon="1.21628">
        <ele>334.4</ele>
        <time>2024-10-21T07:16:08Z</time>
      </trkpt>
      <trkpt lat="45.8496" lon="1.21627">
        <ele>334.3</ele>
        <time>2024-10-21T07:16:09Z</time>
      </trkpt>
      <trkpt lat="45.84959" lon="1.21626">
        <ele>334.3</ele>
        <time>2024-10-21T07:16:10Z</time>
      </trkpt>
      <trkpt lat="45.84957" lon="1.21624">
        <ele>334.3</ele>
        <time>2024-10-21T07:16:11Z</time>
      </trkpt>
      <trkpt lat="45.84956" lon="1.21623">
        <ele>334.3</ele>
        <time>2024-10-21T07:16:12Z</time>
      </trkpt>
      <trkpt lat="45.84955" lon="1.21621">
        <ele>334.2</ele>
        <time>2024-10-21T07:16:13Z</time>
      </trkpt>
      <trkpt lat="45.84954" lon="1.21621">
        <ele>334.2</ele>
        <time>2024-10-21T07:16:14Z</time>
      </trkpt>
      <trkpt lat="45.84953" lon="1.2162">
        <ele>334.2</ele>
        <time>2024-10-21T07:16:15Z</time>
      </trkpt>
      <trkpt lat="45.84952" lon="1.21619">
        <ele>334.1</ele>
        <time>2024-10-21T07:16:16Z</time>
      </trkpt>
      <trkpt lat="45.84951" lon="1.21618">
        <ele>334.1</ele>
        <time>2024-10-21T07:16:17Z</time>
      </trkpt>
      <trkpt lat="45.8495" lon="1.21617">
        <ele>334.1</ele>
        <time>2024-10-21T07:16:18Z</time>
      </trkpt>
      <trkpt lat="45.84948" lon="1.21615">
        <ele>334.1</ele>
        <time>2024-10-21T07:16:19Z</time>
      </trkpt>
      <trkpt lat="45.84948" lon="1.21615">
        <ele>334.1</ele>
        <time>2024-10-21T07:16:20Z</time>
      </trkpt>
      <trkpt lat="45.84947" lon="1.21614">
        <ele>334</ele>
        <time>2024-10-21T07:16:21Z</time>
      </trkpt>
      <trkpt lat="45.84946" lon="1.21612">
        <ele>334</ele>
        <time>2024-10-21T07:16:22Z</time>
      </trkpt>
      <trkpt lat="45.84945" lon="1.2161">
        <ele>334</ele>
        <time>2024-10-21T07:16:23Z</time>
      </trkpt>
      <trkpt lat="45.84945" lon="1.21609">
        <ele>334</ele>
        <time>2024-10-21T07:16:24Z</time>
      </trkpt>
      <trkpt lat="45.84944" lon="1.21608">
        <ele>334</ele>
        <time>2024-10-21T07:16:25Z</time>
      </trkpt>
      <trkpt lat="45.84943" lon="1.21606">
        <ele>333.9</ele>
        <time>2024-10-21T07:16:26Z</time>
      </trkpt>
      <trkpt lat="45.84942" lon="1.21603">
        <ele>333.9</ele>
        <time>2024-10-21T07:16:27Z</time>
      </trkpt>
      <trkpt lat="45.84941" lon="1.21602">
        <ele>333.9</ele>
        <time>2024-10-21T07:16:28Z</time>
      </trkpt>
      <trkpt lat="45.84941" lon="1.21602">
        <ele>333.9</ele>
        <time>2024-10-21T07:16:29Z</time>
      </trkpt>
      <trkpt lat="45.8494" lon="1.216">
        <ele>333.8</ele>
        <time>2024-10-21T07:16:30Z</time>
      </trkpt>
      <trkpt lat="45.84939" lon="1.21599">
        <ele>333.8</ele>
        <time>2024-10-21T07:16:31Z</time>
      </trkpt>
      <trkpt lat="45.84938" lon="1.21596">
        <ele>333.8</ele>
        <time>2024-10-21T07:16:32Z</time>
      </trkpt>
      <trkpt lat="45.84938" lon="1.21595">
        <ele>333.7</ele>
        <time>2024-10-21T07:16:33Z</time>
      </trkpt>
      <trkpt lat="45.84937" lon="1.21594">
        <ele>333.7</ele>
        <time>2024-10-21T07:16:34Z</time>
      </trkpt>
      <trkpt lat="45.84936" lon="1.21592">
        <ele>333.7</ele>
        <time>2024-10-21T07:16:35Z</time>
      </trkpt>
      <trkpt lat="45.84935" lon="1.21591">
        <ele>333.7</ele>
        <time>2024-10-21T07:16:36Z</time>
      </trkpt>
      <trkpt lat="45.84935" lon="1.2159">
        <ele>333.6</ele>
        <time>2024-10-21T07:16:37Z</time>
      </trkpt>
      <trkpt lat="45.84933" lon="1.21587">
        <ele>333.6</ele>
        <time>2024-10-21T07:16:38Z</time>
      </trkpt>
      <trkpt lat="45.84933" lon="1.21586">
        <ele>333.6</ele>
        <time>2024-10-21T07:16:39Z</time>
      </trkpt>
      <trkpt lat="45.84932" lon="1.21585">
        <ele>333.5</ele>
        <time>2024-10-21T07:16:40Z</time>
      </trkpt>
      <trkpt lat="45.84931" lon="1.21583">
        <ele>333.5</ele>
        <time>2024-10-21T07:16:41Z</time>
      </trkpt>
      <trkpt lat="45.8493" lon="1.21582">
        <ele>333.5</ele>
        <time>2024-10-21T07:16:42Z</time>
      </trkpt>
      <trkpt lat="45.8493" lon="1.21581">
        <ele>333.5</ele>
        <time>2024-10-21T07:16:43Z</time>
      </trkpt>
      <trkpt lat="45.84929" lon="1.21578">
        <ele>333.4</ele>
        <time>2024-10-21T07:16:44Z</time>
      </trkpt>
      <trkpt lat="45.84928" lon="1.21578">
        <ele>333.4</ele>
        <time>2024-10-21T07:16:45Z</time>
      </trkpt>
      <trkpt lat="45.84928" lon="1.21577">
        <ele>333.4</ele>
        <time>2024-10-21T07:16:46Z</time>
      </trkpt>
      <trkpt lat="45.84926" lon="1.21574">
        <ele>333.3</ele>
        <time>2024-10-21T07:16:47Z</time>
      </trkpt>
      <trkpt lat="45.84925" lon="1.21572">
        <ele>333.3</ele>
        <time>2024-10-21T07:16:48Z</time>
      </trkpt>
      <trkpt lat="45.84925" lon="1.21571">
        <ele>333.2</ele>
        <time>2024-10-21T07:16:49Z</time>
      </trkpt>
      <trkpt lat="45.84923" lon="1.21569">
        <ele>333.2</ele>
        <time>2024-10-21T07:16:51Z</time>
      </trkpt>
      <trkpt lat="45.84923" lon="1.21568">
        <ele>333.1</ele>
        <time>2024-10-21T07:16:52Z</time>
      </trkpt>
      <trkpt lat="45.84922" lon="1.21565">
        <ele>333.1</ele>
        <time>2024-10-21T07:16:53Z</time>
      </trkpt>
      <trkpt lat="45.84921" lon="1.21564">
        <ele>333</ele>
        <time>2024-10-21T07:16:54Z</time>
      </trkpt>
      <trkpt lat="45.84921" lon="1.21563">
        <ele>333</ele>
        <time>2024-10-21T07:16:55Z</time>
      </trkpt>
      <trkpt lat="45.8492" lon="1.21561">
        <ele>332.9</ele>
        <time>2024-10-21T07:16:56Z</time>
      </trkpt>
      <trkpt lat="45.84919" lon="1.2156">
        <ele>332.9</ele>
        <time>2024-10-21T07:16:57Z</time>
      </trkpt>
      <trkpt lat="45.84919" lon="1.21559">
        <ele>332.9</ele>
        <time>2024-10-21T07:16:58Z</time>
      </trkpt>
      <trkpt lat="45.84917" lon="1.21557">
        <ele>332.8</ele>
        <time>2024-10-21T07:16:59Z</time>
      </trkpt>
      <trkpt lat="45.84916" lon="1.21556">
        <ele>332.8</ele>
        <time>2024-10-21T07:17:00Z</time>
      </trkpt>
      <trkpt lat="45.84916" lon="1.21555">
        <ele>332.8</ele>
        <time>2024-10-21T07:17:01Z</time>
      </trkpt>
      <trkpt lat="45.84914" lon="1.21553">
        <ele>332.7</ele>
        <time>2024-10-21T07:17:02Z</time>
      </trkpt>
      <trkpt lat="45.84914" lon="1.21552">
        <ele>332.7</ele>
        <time>2024-10-21T07:17:03Z</time>
      </trkpt>
      <trkpt lat="45.84913" lon="1.21551">
        <ele>332.6</ele>
        <time>2024-10-21T07:17:04Z</time>
      </trkpt>
      <trkpt lat="45.84912" lon="1.21549">
        <ele>332.6</ele>
        <time>2024-10-21T07:17:05Z</time>
      </trkpt>
      <trkpt lat="45.84911" lon="1.21547">
        <ele>332.5</ele>
        <time>2024-10-21T07:17:06Z</time>
      </trkpt>
      <trkpt lat="45.8491" lon="1.21545">
        <ele>332.4</ele>
        <time>2024-10-21T07:17:07Z</time>
      </trkpt>
      <trkpt lat="45.84909" lon="1.21544">
        <ele>332.4</ele>
        <time>2024-10-21T07:17:08Z</time>
      </trkpt>
      <trkpt lat="45.84909" lon="1.21543">
        <ele>332.4</ele>
        <time>2024-10-21T07:17:09Z</time>
      </trkpt>
      <trkpt lat="45.84908" lon="1.21542">
        <ele>332.3</ele>
        <time>2024-10-21T07:17:10Z</time>
      </trkpt>
      <trkpt lat="45.84906" lon="1.2154">
        <ele>332.2</ele>
        <time>2024-10-21T07:17:11Z</time>
      </trkpt>
      <trkpt lat="45.84905" lon="1.21537">
        <ele>332.2</ele>
        <time>2024-10-21T07:17:12Z</time>
      </trkpt>
      <trkpt lat="45.84904" lon="1.21537">
        <ele>332.1</ele>
        <time>2024-10-21T07:17:13Z</time>
      </trkpt>
      <trkpt lat="45.84904" lon="1.21536">
        <ele>332.1</ele>
        <time>2024-10-21T07:17:14Z</time>
      </trkpt>
      <trkpt lat="45.84903" lon="1.21534">
        <ele>332</ele>
        <time>2024-10-21T07:17:15Z</time>
      </trkpt>
      <trkpt lat="45.84902" lon="1.21532">
        <ele>332</ele>
        <time>2024-10-21T07:17:16Z</time>
      </trkpt>
      <trkpt lat="45.84901" lon="1.2153">
        <ele>331.9</ele>
        <time>2024-10-21T07:17:17Z</time>
      </trkpt>
      <trkpt lat="45.84901" lon="1.21529">
        <ele>331.9</ele>
        <time>2024-10-21T07:17:18Z</time>
      </trkpt>
      <trkpt lat="45.849" lon="1.21527">
        <ele>331.8</ele>
        <time>2024-10-21T07:17:19Z</time>
      </trkpt>
      <trkpt lat="45.84899" lon="1.21526">
        <ele>331.8</ele>
        <time>2024-10-21T07:17:20Z</time>
      </trkpt>
      <trkpt lat="45.84898" lon="1.21524">
        <ele>331.7</ele>
        <time>2024-10-21T07:17:21Z</time>
      </trkpt>
      <trkpt lat="45.84898" lon="1.21523">
        <ele>331.6</ele>
        <time>2024-10-21T07:17:22Z</time>
      </trkpt>
      <trkpt lat="45.84897" lon="1.21521">
        <ele>331.6</ele>
        <time>2024-10-21T07:17:23Z</time>
      </trkpt>
      <trkpt lat="45.84896" lon="1.2152">
        <ele>331.5</ele>
        <time>2024-10-21T07:17:24Z</time>
      </trkpt>
      <trkpt lat="45.84896" lon="1.21519">
        <ele>331.5</ele>
        <time>2024-10-21T07:17:25Z</time>
      </trkpt>
      <trkpt lat="45.84895" lon="1.21518">
        <ele>331.4</ele>
        <time>2024-10-21T07:17:26Z</time>
      </trkpt>
      <trkpt lat="45.84895" lon="1.21518">
        <ele>331.4</ele>
        <time>2024-10-21T07:17:27Z</time>
      </trkpt>
      <trkpt lat="45.84894" lon="1.21517">
        <ele>331.4</ele>
        <time>2024-10-21T07:17:28Z</time>
      </trkpt>
      <trkpt lat="45.84895" lon="1.21516">
        <ele>331.3</ele>
        <time>2024-10-21T07:17:29Z</time>
      </trkpt>
      <trkpt lat="45.84894" lon="1.21514">
        <ele>331.3</ele>
        <time>2024-10-21T07:17:30Z</time>
      </trkpt>
      <trkpt lat="45.84893" lon="1.21512">
        <ele>331.2</ele>
        <time>2024-10-21T07:17:31Z</time>
      </trkpt>
      <trkpt lat="45.84893" lon="1.21511">
        <ele>331.1</ele>
        <time>2024-10-21T07:17:32Z</time>
      </trkpt>
      <trkpt lat="45.84892" lon="1.2151">
        <ele>331.1</ele>
        <time>2024-10-21T07:17:33Z</time>
      </trkpt>
      <trkpt lat="45.84892" lon="1.21508">
        <ele>331</ele>
        <time>2024-10-21T07:17:34Z</time>
      </trkpt>
      <trkpt lat="45.84892" lon="1.21507">
        <ele>331</ele>
        <time>2024-10-21T07:17:35Z</time>
      </trkpt>
      <trkpt lat="45.84892" lon="1.21505">
        <ele>330.9</ele>
        <time>2024-10-21T07:17:36Z</time>
      </trkpt>
      <trkpt lat="45.84891" lon="1.21505">
        <ele>330.9</ele>
        <time>2024-10-21T07:17:37Z</time>
      </trkpt>
      <trkpt lat="45.84891" lon="1.21504">
        <ele>330.9</ele>
        <time>2024-10-21T07:17:38Z</time>
      </trkpt>
      <trkpt lat="45.84891" lon="1.21504">
        <ele>330.8</ele>
        <time>2024-10-21T07:17:39Z</time>
      </trkpt>
      <trkpt lat="45.84891" lon="1.21504">
        <ele>330.8</ele>
        <time>2024-10-21T07:17:40Z</time>
      </trkpt>
      <trkpt lat="45.84891" lon="1.21504">
        <ele>330.8</ele>
        <time>2024-10-21T07:17:41Z</time>
      </trkpt>
      <trkpt lat="45.84891" lon="1.21504">
        <ele>330.8</ele>
        <time>2024-10-21T07:17:42Z</time>
      </trkpt>
      <trkpt lat="45.84891" lon="1.21504">
        <ele>330.8</ele>
        <time>2024-10-21T07:17:43Z</time>
      </trkpt>
      <trkpt lat="45.84891" lon="1.21503">
        <ele>330.8</ele>
        <time>2024-10-21T07:17:44Z</time>
      </trkpt>
      <trkpt lat="45.84891" lon="1.21503">
        <ele>330.8</ele>
        <time>2024-10-21T07:17:45Z</time>
      </trkpt>
      <trkpt lat="45.84891" lon="1.21503">
        <ele>330.8</ele>
        <time>2024-10-21T07:17:46Z</time>
      </trkpt>
      <trkpt lat="45.84891" lon="1.21503">
        <ele>330.8</ele>
        <time>2024-10-21T07:17:47Z</time>
      </trkpt>
      <trkpt lat="45.84891" lon="1.21503">
        <ele>330.8</ele>
        <time>2024-10-21T07:17:48Z</time>
      </trkpt>
      <trkpt lat="45.84891" lon="1.21503">
        <ele>330.8</ele>
        <time>2024-10-21T07:17:49Z</time>
      </trkpt>
      <trkpt lat="45.84891" lon="1.21503">
        <ele>330.8</ele>
        <time>2024-10-21T07:17:50Z</time>
      </trkpt>
      <trkpt lat="45.84891" lon="1.21503">
        <ele>330.8</ele>
        <time>2024-10-21T07:17:51Z</time>
      </trkpt>
      <trkpt lat="45.84891" lon="1.21503">
        <ele>330.7</ele>
        <time>2024-10-21T07:17:52Z</time>
      </trkpt>
      <trkpt lat="45.84891" lon="1.21504">
        <ele>330.7</ele>
        <time>2024-10-21T07:17:53Z</time>
      </trkpt>
      <trkpt lat="45.84891" lon="1.21505">
        <ele>330.7</ele>
        <time>2024-10-21T07:17:54Z</time>
      </trkpt>
      <trkpt lat="45.84891" lon="1.21507">
        <ele>330.6</ele>
        <time>2024-10-21T07:17:55Z</time>
      </trkpt>
      <trkpt lat="45.84891" lon="1.21509">
        <ele>330.5</ele>
        <time>2024-10-21T07:17:56Z</time>
      </trkpt>
      <trkpt lat="45.8489" lon="1.2151">
        <ele>330.4</ele>
        <time>2024-10-21T07:17:57Z</time>
      </trkpt>
      <trkpt lat="45.84889" lon="1.21512">
        <ele>330.3</ele>
        <time>2024-10-21T07:17:58Z</time>
      </trkpt>
      <trkpt lat="45.84888" lon="1.21514">
        <ele>330.2</ele>
        <time>2024-10-21T07:17:59Z</time>
      </trkpt>
      <trkpt lat="45.84888" lon="1.21515">
        <ele>330.1</ele>
        <time>2024-10-21T07:18:00Z</time>
      </trkpt>
      <trkpt lat="45.84886" lon="1.21517">
        <ele>330</ele>
        <time>2024-10-21T07:18:01Z</time>
      </trkpt>
      <trkpt lat="45.84885" lon="1.21517">
        <ele>330</ele>
        <time>2024-10-21T07:18:02Z</time>
      </trkpt>
      <trkpt lat="45.84882" lon="1.21517">
        <ele>329.8</ele>
        <time>2024-10-21T07:18:03Z</time>
      </trkpt>
      <trkpt lat="45.84881" lon="1.21517">
        <ele>329.7</ele>
        <time>2024-10-21T07:18:05Z</time>
      </trkpt>
      <trkpt lat="45.84879" lon="1.21516">
        <ele>329.6</ele>
        <time>2024-10-21T07:18:06Z</time>
      </trkpt>
      <trkpt lat="45.84878" lon="1.21516">
        <ele>329.5</ele>
        <time>2024-10-21T07:18:07Z</time>
      </trkpt>
      <trkpt lat="45.84875" lon="1.21515">
        <ele>329.4</ele>
        <time>2024-10-21T07:18:08Z</time>
      </trkpt>
      <trkpt lat="45.84874" lon="1.21515">
        <ele>329.3</ele>
        <time>2024-10-21T07:18:09Z</time>
      </trkpt>
      <trkpt lat="45.84873" lon="1.21515">
        <ele>329.2</ele>
        <time>2024-10-21T07:18:10Z</time>
      </trkpt>
      <trkpt lat="45.84873" lon="1.21515">
        <ele>329.2</ele>
        <time>2024-10-21T07:18:11Z</time>
      </trkpt>
      <trkpt lat="45.84871" lon="1.21514">
        <ele>329.1</ele>
        <time>2024-10-21T07:18:12Z</time>
      </trkpt>
      <trkpt lat="45.84869" lon="1.21514">
        <ele>329</ele>
        <time>2024-10-21T07:18:13Z</time>
      </trkpt>
      <trkpt lat="45.84869" lon="1.21513">
        <ele>329</ele>
        <time>2024-10-21T07:18:14Z</time>
      </trkpt>
      <trkpt lat="45.84868" lon="1.21513">
        <ele>328.9</ele>
        <time>2024-10-21T07:18:15Z</time>
      </trkpt>
      <trkpt lat="45.84866" lon="1.21512">
        <ele>328.8</ele>
        <time>2024-10-21T07:18:16Z</time>
      </trkpt>
      <trkpt lat="45.84865" lon="1.21512">
        <ele>328.7</ele>
        <time>2024-10-21T07:18:17Z</time>
      </trkpt>
      <trkpt lat="45.84864" lon="1.21512">
        <ele>328.7</ele>
        <time>2024-10-21T07:18:18Z</time>
      </trkpt>
      <trkpt lat="45.84862" lon="1.21511">
        <ele>328.6</ele>
        <time>2024-10-21T07:18:19Z</time>
      </trkpt>
      <trkpt lat="45.84861" lon="1.21511">
        <ele>328.5</ele>
        <time>2024-10-21T07:18:20Z</time>
      </trkpt>
      <trkpt lat="45.8486" lon="1.21511">
        <ele>328.5</ele>
        <time>2024-10-21T07:18:21Z</time>
      </trkpt>
      <trkpt lat="45.84858" lon="1.21511">
        <ele>328.3</ele>
        <time>2024-10-21T07:18:22Z</time>
      </trkpt>
      <trkpt lat="45.84857" lon="1.21512">
        <ele>328.3</ele>
        <time>2024-10-21T07:18:23Z</time>
      </trkpt>
      <trkpt lat="45.84856" lon="1.21512">
        <ele>328.2</ele>
        <time>2024-10-21T07:18:24Z</time>
      </trkpt>
      <trkpt lat="45.84855" lon="1.21512">
        <ele>328.1</ele>
        <time>2024-10-21T07:18:25Z</time>
      </trkpt>
      <trkpt lat="45.84853" lon="1.21512">
        <ele>328</ele>
        <time>2024-10-21T07:18:26Z</time>
      </trkpt>
      <trkpt lat="45.84851" lon="1.21513">
        <ele>327.9</ele>
        <time>2024-10-21T07:18:27Z</time>
      </trkpt>
      <trkpt lat="45.8485" lon="1.21513">
        <ele>327.8</ele>
        <time>2024-10-21T07:18:28Z</time>
      </trkpt>
      <trkpt lat="45.84848" lon="1.21513">
        <ele>327.7</ele>
        <time>2024-10-21T07:18:29Z</time>
      </trkpt>
      <trkpt lat="45.84846" lon="1.21513">
        <ele>327.6</ele>
        <time>2024-10-21T07:18:30Z</time>
      </trkpt>
      <trkpt lat="45.84846" lon="1.21514">
        <ele>327.6</ele>
        <time>2024-10-21T07:18:31Z</time>
      </trkpt>
      <trkpt lat="45.84844" lon="1.21514">
        <ele>327.5</ele>
        <time>2024-10-21T07:18:32Z</time>
      </trkpt>
      <trkpt lat="45.84843" lon="1.21514">
        <ele>327.4</ele>
        <time>2024-10-21T07:18:33Z</time>
      </trkpt>
      <trkpt lat="45.84842" lon="1.21514">
        <ele>327.3</ele>
        <time>2024-10-21T07:18:35Z</time>
      </trkpt>
      <trkpt lat="45.8484" lon="1.21515">
        <ele>327.2</ele>
        <time>2024-10-21T07:18:36Z</time>
      </trkpt>
      <trkpt lat="45.84839" lon="1.21515">
        <ele>327.2</ele>
        <time>2024-10-21T07:18:37Z</time>
      </trkpt>
      <trkpt lat="45.84838" lon="1.21515">
        <ele>327.1</ele>
        <time>2024-10-21T07:18:38Z</time>
      </trkpt>
      <trkpt lat="45.84837" lon="1.21516">
        <ele>327</ele>
        <time>2024-10-21T07:18:39Z</time>
      </trkpt>
      <trkpt lat="45.84836" lon="1.21516">
        <ele>327</ele>
        <time>2024-10-21T07:18:40Z</time>
      </trkpt>
      <trkpt lat="45.84835" lon="1.21516">
        <ele>326.9</ele>
        <time>2024-10-21T07:18:41Z</time>
      </trkpt>
      <trkpt lat="45.84833" lon="1.21516">
        <ele>326.7</ele>
        <time>2024-10-21T07:18:42Z</time>
      </trkpt>
      <trkpt lat="45.84832" lon="1.21516">
        <ele>326.7</ele>
        <time>2024-10-21T07:18:43Z</time>
      </trkpt>
      <trkpt lat="45.84831" lon="1.21516">
        <ele>326.6</ele>
        <time>2024-10-21T07:18:44Z</time>
      </trkpt>
      <trkpt lat="45.8483" lon="1.21516">
        <ele>326.5</ele>
        <time>2024-10-21T07:18:45Z</time>
      </trkpt>
      <trkpt lat="45.84828" lon="1.21516">
        <ele>326.4</ele>
        <time>2024-10-21T07:18:46Z</time>
      </trkpt>
      <trkpt lat="45.84827" lon="1.21516">
        <ele>326.3</ele>
        <time>2024-10-21T07:18:47Z</time>
      </trkpt>
      <trkpt lat="45.84825" lon="1.21517">
        <ele>326.2</ele>
        <time>2024-10-21T07:18:48Z</time>
      </trkpt>
      <trkpt lat="45.84824" lon="1.21517">
        <ele>326.1</ele>
        <time>2024-10-21T07:18:49Z</time>
      </trkpt>
      <trkpt lat="45.84823" lon="1.21517">
        <ele>326</ele>
        <time>2024-10-21T07:18:50Z</time>
      </trkpt>
      <trkpt lat="45.84821" lon="1.21517">
        <ele>325.9</ele>
        <time>2024-10-21T07:18:51Z</time>
      </trkpt>
      <trkpt lat="45.8482" lon="1.21517">
        <ele>325.8</ele>
        <time>2024-10-21T07:18:52Z</time>
      </trkpt>
      <trkpt lat="45.84818" lon="1.21517">
        <ele>325.6</ele>
        <time>2024-10-21T07:18:53Z</time>
      </trkpt>
      <trkpt lat="45.84817" lon="1.21517">
        <ele>325.6</ele>
        <time>2024-10-21T07:18:54Z</time>
      </trkpt>
      <trkpt lat="45.84816" lon="1.21517">
        <ele>325.5</ele>
        <time>2024-10-21T07:18:55Z</time>
      </trkpt>
      <trkpt lat="45.84815" lon="1.21517">
        <ele>325.4</ele>
        <time>2024-10-21T07:18:56Z</time>
      </trkpt>
      <trkpt lat="45.84813" lon="1.21517">
        <ele>325.3</ele>
        <time>2024-10-21T07:18:57Z</time>
      </trkpt>
      <trkpt lat="45.8481" lon="1.21517">
        <ele>325.1</ele>
        <time>2024-10-21T07:18:58Z</time>
      </trkpt>
      <trkpt lat="45.8481" lon="1.21517">
        <ele>325</ele>
        <time>2024-10-21T07:18:59Z</time>
      </trkpt>
      <trkpt lat="45.84809" lon="1.21517">
        <ele>325</ele>
        <time>2024-10-21T07:19:00Z</time>
      </trkpt>
      <trkpt lat="45.84808" lon="1.21517">
        <ele>324.9</ele>
        <time>2024-10-21T07:19:01Z</time>
      </trkpt>
      <trkpt lat="45.84806" lon="1.21518">
        <ele>324.8</ele>
        <time>2024-10-21T07:19:02Z</time>
      </trkpt>
      <trkpt lat="45.84805" lon="1.21518">
        <ele>324.6</ele>
        <time>2024-10-21T07:19:03Z</time>
      </trkpt>
      <trkpt lat="45.84804" lon="1.21519">
        <ele>324.6</ele>
        <time>2024-10-21T07:19:04Z</time>
      </trkpt>
      <trkpt lat="45.84803" lon="1.21519">
        <ele>324.5</ele>
        <time>2024-10-21T07:19:05Z</time>
      </trkpt>
      <trkpt lat="45.84802" lon="1.21519">
        <ele>324.4</ele>
        <time>2024-10-21T07:19:06Z</time>
      </trkpt>
      <trkpt lat="45.848" lon="1.2152">
        <ele>324.3</ele>
        <time>2024-10-21T07:19:07Z</time>
      </trkpt>
      <trkpt lat="45.84798" lon="1.21519">
        <ele>324.1</ele>
        <time>2024-10-21T07:19:08Z</time>
      </trkpt>
      <trkpt lat="45.84796" lon="1.21519">
        <ele>324</ele>
        <time>2024-10-21T07:19:09Z</time>
      </trkpt>
      <trkpt lat="45.84795" lon="1.21519">
        <ele>323.9</ele>
        <time>2024-10-21T07:19:10Z</time>
      </trkpt>
      <trkpt lat="45.84795" lon="1.21519">
        <ele>323.9</ele>
        <time>2024-10-21T07:19:11Z</time>
      </trkpt>
      <trkpt lat="45.84793" lon="1.21519">
        <ele>323.7</ele>
        <time>2024-10-21T07:19:12Z</time>
      </trkpt>
      <trkpt lat="45.84792" lon="1.21518">
        <ele>323.6</ele>
        <time>2024-10-21T07:19:13Z</time>
      </trkpt>
      <trkpt lat="45.84791" lon="1.21518">
        <ele>323.5</ele>
        <time>2024-10-21T07:19:14Z</time>
      </trkpt>
      <trkpt lat="45.8479" lon="1.21517">
        <ele>323.4</ele>
        <time>2024-10-21T07:19:15Z</time>
      </trkpt>
      <trkpt lat="45.84789" lon="1.21517">
        <ele>323.4</ele>
        <time>2024-10-21T07:19:16Z</time>
      </trkpt>
      <trkpt lat="45.84787" lon="1.21517">
        <ele>323.2</ele>
        <time>2024-10-21T07:19:17Z</time>
      </trkpt>
      <trkpt lat="45.84786" lon="1.21517">
        <ele>323.1</ele>
        <time>2024-10-21T07:19:18Z</time>
      </trkpt>
      <trkpt lat="45.84784" lon="1.21517">
        <ele>323</ele>
        <time>2024-10-21T07:19:19Z</time>
      </trkpt>
      <trkpt lat="45.84783" lon="1.21518">
        <ele>322.9</ele>
        <time>2024-10-21T07:19:20Z</time>
      </trkpt>
      <trkpt lat="45.84782" lon="1.21518">
        <ele>322.8</ele>
        <time>2024-10-21T07:19:21Z</time>
      </trkpt>
      <trkpt lat="45.8478" lon="1.21519">
        <ele>322.6</ele>
        <time>2024-10-21T07:19:22Z</time>
      </trkpt>
      <trkpt lat="45.84779" lon="1.21519">
        <ele>322.5</ele>
        <time>2024-10-21T07:19:23Z</time>
      </trkpt>
      <trkpt lat="45.84776" lon="1.21519">
        <ele>322.3</ele>
        <time>2024-10-21T07:19:25Z</time>
      </trkpt>
      <trkpt lat="45.84775" lon="1.21519">
        <ele>322.2</ele>
        <time>2024-10-21T07:19:26Z</time>
      </trkpt>
      <trkpt lat="45.84775" lon="1.2152">
        <ele>322.1</ele>
        <time>2024-10-21T07:19:27Z</time>
      </trkpt>
      <trkpt lat="45.84774" lon="1.2152">
        <ele>322</ele>
        <time>2024-10-21T07:19:28Z</time>
      </trkpt>
      <trkpt lat="45.84773" lon="1.2152">
        <ele>321.9</ele>
        <time>2024-10-21T07:19:29Z</time>
      </trkpt>
      <trkpt lat="45.84771" lon="1.21521">
        <ele>321.8</ele>
        <time>2024-10-21T07:19:30Z</time>
      </trkpt>
      <trkpt lat="45.8477" lon="1.21521">
        <ele>321.7</ele>
        <time>2024-10-21T07:19:31Z</time>
      </trkpt>
      <trkpt lat="45.84769" lon="1.21521">
        <ele>321.6</ele>
        <time>2024-10-21T07:19:32Z</time>
      </trkpt>
      <trkpt lat="45.84768" lon="1.21521">
        <ele>321.5</ele>
        <time>2024-10-21T07:19:33Z</time>
      </trkpt>
      <trkpt lat="45.84766" lon="1.21521">
        <ele>321.3</ele>
        <time>2024-10-21T07:19:34Z</time>
      </trkpt>
      <trkpt lat="45.84765" lon="1.21521">
        <ele>321.3</ele>
        <time>2024-10-21T07:19:35Z</time>
      </trkpt>
      <trkpt lat="45.84764" lon="1.21521">
        <ele>321.2</ele>
        <time>2024-10-21T07:19:36Z</time>
      </trkpt>
      <trkpt lat="45.84763" lon="1.21522">
        <ele>321.1</ele>
        <time>2024-10-21T07:19:37Z</time>
      </trkpt>
      <trkpt lat="45.84762" lon="1.21522">
        <ele>321</ele>
        <time>2024-10-21T07:19:38Z</time>
      </trkpt>
      <trkpt lat="45.84761" lon="1.21523">
        <ele>320.9</ele>
        <time>2024-10-21T07:19:39Z</time>
      </trkpt>
      <trkpt lat="45.84759" lon="1.21523">
        <ele>320.8</ele>
        <time>2024-10-21T07:19:40Z</time>
      </trkpt>
      <trkpt lat="45.84758" lon="1.21523">
        <ele>320.6</ele>
        <time>2024-10-21T07:19:41Z</time>
      </trkpt>
      <trkpt lat="45.84756" lon="1.21523">
        <ele>320.5</ele>
        <time>2024-10-21T07:19:42Z</time>
      </trkpt>
      <trkpt lat="45.84754" lon="1.21524">
        <ele>320.3</ele>
        <time>2024-10-21T07:19:43Z</time>
      </trkpt>
      <trkpt lat="45.84751" lon="1.21524">
        <ele>320</ele>
        <time>2024-10-21T07:19:45Z</time>
      </trkpt>
      <trkpt lat="45.8475" lon="1.21524">
        <ele>319.9</ele>
        <time>2024-10-21T07:19:46Z</time>
      </trkpt>
      <trkpt lat="45.84748" lon="1.21525">
        <ele>319.8</ele>
        <time>2024-10-21T07:19:47Z</time>
      </trkpt>
      <trkpt lat="45.84747" lon="1.21525">
        <ele>319.7</ele>
        <time>2024-10-21T07:19:49Z</time>
      </trkpt>
      <trkpt lat="45.84746" lon="1.21526">
        <ele>319.6</ele>
        <time>2024-10-21T07:19:50Z</time>
      </trkpt>
      <trkpt lat="45.84744" lon="1.21526">
        <ele>319.5</ele>
        <time>2024-10-21T07:19:51Z</time>
      </trkpt>
      <trkpt lat="45.84743" lon="1.21526">
        <ele>319.3</ele>
        <time>2024-10-21T07:19:52Z</time>
      </trkpt>
      <trkpt lat="45.84741" lon="1.21526">
        <ele>319.2</ele>
        <time>2024-10-21T07:19:53Z</time>
      </trkpt>
      <trkpt lat="45.8474" lon="1.21526">
        <ele>319.1</ele>
        <time>2024-10-21T07:19:54Z</time>
      </trkpt>
      <trkpt lat="45.84738" lon="1.21527">
        <ele>319</ele>
        <time>2024-10-21T07:19:55Z</time>
      </trkpt>
      <trkpt lat="45.84737" lon="1.21527">
        <ele>318.9</ele>
        <time>2024-10-21T07:19:56Z</time>
      </trkpt>
      <trkpt lat="45.84735" lon="1.21528">
        <ele>318.7</ele>
        <time>2024-10-21T07:19:57Z</time>
      </trkpt>
      <trkpt lat="45.84734" lon="1.21529">
        <ele>318.6</ele>
        <time>2024-10-21T07:19:58Z</time>
      </trkpt>
      <trkpt lat="45.84733" lon="1.21529">
        <ele>318.5</ele>
        <time>2024-10-21T07:19:59Z</time>
      </trkpt>
      <trkpt lat="45.8473" lon="1.21531">
        <ele>318.3</ele>
        <time>2024-10-21T07:20:00Z</time>
      </trkpt>
      <trkpt lat="45.84729" lon="1.21532">
        <ele>318.2</ele>
        <time>2024-10-21T07:20:01Z</time>
      </trkpt>
      <trkpt lat="45.84728" lon="1.21532">
        <ele>318.1</ele>
        <time>2024-10-21T07:20:02Z</time>
      </trkpt>
      <trkpt lat="45.84725" lon="1.21533">
        <ele>317.9</ele>
        <time>2024-10-21T07:20:03Z</time>
      </trkpt>
      <trkpt lat="45.84724" lon="1.21534">
        <ele>317.8</ele>
        <time>2024-10-21T07:20:05Z</time>
      </trkpt>
      <trkpt lat="45.84724" lon="1.21535">
        <ele>317.7</ele>
        <time>2024-10-21T07:20:06Z</time>
      </trkpt>
      <trkpt lat="45.84723" lon="1.21536">
        <ele>317.6</ele>
        <time>2024-10-21T07:20:07Z</time>
      </trkpt>
      <trkpt lat="45.84722" lon="1.21537">
        <ele>317.6</ele>
        <time>2024-10-21T07:20:08Z</time>
      </trkpt>
      <trkpt lat="45.84721" lon="1.21537">
        <ele>317.5</ele>
        <time>2024-10-21T07:20:09Z</time>
      </trkpt>
      <trkpt lat="45.8472" lon="1.21537">
        <ele>317.4</ele>
        <time>2024-10-21T07:20:10Z</time>
      </trkpt>
      <trkpt lat="45.84717" lon="1.21538">
        <ele>317.2</ele>
        <time>2024-10-21T07:20:11Z</time>
      </trkpt>
      <trkpt lat="45.84717" lon="1.21539">
        <ele>317.1</ele>
        <time>2024-10-21T07:20:13Z</time>
      </trkpt>
      <trkpt lat="45.84715" lon="1.21539">
        <ele>317</ele>
        <time>2024-10-21T07:20:14Z</time>
      </trkpt>
      <trkpt lat="45.84713" lon="1.2154">
        <ele>316.9</ele>
        <time>2024-10-21T07:20:15Z</time>
      </trkpt>
      <trkpt lat="45.84713" lon="1.21541">
        <ele>316.8</ele>
        <time>2024-10-21T07:20:16Z</time>
      </trkpt>
      <trkpt lat="45.84712" lon="1.21541">
        <ele>316.8</ele>
        <time>2024-10-21T07:20:17Z</time>
      </trkpt>
      <trkpt lat="45.84712" lon="1.21542">
        <ele>316.7</ele>
        <time>2024-10-21T07:20:18Z</time>
      </trkpt>
      <trkpt lat="45.84711" lon="1.21542">
        <ele>316.7</ele>
        <time>2024-10-21T07:20:19Z</time>
      </trkpt>
      <trkpt lat="45.8471" lon="1.21542">
        <ele>316.6</ele>
        <time>2024-10-21T07:20:20Z</time>
      </trkpt>
      <trkpt lat="45.84709" lon="1.21543">
        <ele>316.5</ele>
        <time>2024-10-21T07:20:21Z</time>
      </trkpt>
      <trkpt lat="45.84708" lon="1.21543">
        <ele>316.4</ele>
        <time>2024-10-21T07:20:22Z</time>
      </trkpt>
      <trkpt lat="45.84707" lon="1.21543">
        <ele>316.3</ele>
        <time>2024-10-21T07:20:23Z</time>
      </trkpt>
      <trkpt lat="45.84704" lon="1.21544">
        <ele>316.2</ele>
        <time>2024-10-21T07:20:24Z</time>
      </trkpt>
      <trkpt lat="45.84704" lon="1.21544">
        <ele>316.1</ele>
        <time>2024-10-21T07:20:25Z</time>
      </trkpt>
      <trkpt lat="45.84703" lon="1.21544">
        <ele>316.1</ele>
        <time>2024-10-21T07:20:26Z</time>
      </trkpt>
      <trkpt lat="45.84701" lon="1.21544">
        <ele>315.9</ele>
        <time>2024-10-21T07:20:27Z</time>
      </trkpt>
      <trkpt lat="45.84699" lon="1.21545">
        <ele>315.8</ele>
        <time>2024-10-21T07:20:28Z</time>
      </trkpt>
      <trkpt lat="45.84698" lon="1.21545">
        <ele>315.7</ele>
        <time>2024-10-21T07:20:29Z</time>
      </trkpt>
      <trkpt lat="45.84696" lon="1.21545">
        <ele>315.6</ele>
        <time>2024-10-21T07:20:30Z</time>
      </trkpt>
      <trkpt lat="45.84694" lon="1.21546">
        <ele>315.5</ele>
        <time>2024-10-21T07:20:31Z</time>
      </trkpt>
      <trkpt lat="45.84693" lon="1.21546">
        <ele>315.4</ele>
        <time>2024-10-21T07:20:32Z</time>
      </trkpt>
      <trkpt lat="45.84692" lon="1.21546">
        <ele>315.4</ele>
        <time>2024-10-21T07:20:33Z</time>
      </trkpt>
      <trkpt lat="45.84691" lon="1.21547">
        <ele>315.3</ele>
        <time>2024-10-21T07:20:34Z</time>
      </trkpt>
      <trkpt lat="45.84691" lon="1.21547">
        <ele>315.3</ele>
        <time>2024-10-21T07:20:35Z</time>
      </trkpt>
      <trkpt lat="45.8469" lon="1.21547">
        <ele>315.2</ele>
        <time>2024-10-21T07:20:36Z</time>
      </trkpt>
      <trkpt lat="45.84689" lon="1.21547">
        <ele>315.1</ele>
        <time>2024-10-21T07:20:37Z</time>
      </trkpt>
      <trkpt lat="45.84688" lon="1.21548">
        <ele>315.1</ele>
        <time>2024-10-21T07:20:38Z</time>
      </trkpt>
      <trkpt lat="45.84686" lon="1.21548">
        <ele>315</ele>
        <time>2024-10-21T07:20:39Z</time>
      </trkpt>
      <trkpt lat="45.84686" lon="1.21547">
        <ele>314.9</ele>
        <time>2024-10-21T07:20:40Z</time>
      </trkpt>
      <trkpt lat="45.84687" lon="1.21545">
        <ele>314.9</ele>
        <time>2024-10-21T07:20:41Z</time>
      </trkpt>
      <trkpt lat="45.84686" lon="1.21545">
        <ele>314.8</ele>
        <time>2024-10-21T07:20:42Z</time>
      </trkpt>
      <trkpt lat="45.84685" lon="1.21544">
        <ele>314.8</ele>
        <time>2024-10-21T07:20:43Z</time>
      </trkpt>
      <trkpt lat="45.84684" lon="1.21546">
        <ele>314.6</ele>
        <time>2024-10-21T07:20:44Z</time>
      </trkpt>
      <trkpt lat="45.84683" lon="1.21547">
        <ele>314.6</ele>
        <time>2024-10-21T07:20:45Z</time>
      </trkpt>
      <trkpt lat="45.84682" lon="1.21548">
        <ele>314.5</ele>
        <time>2024-10-21T07:20:46Z</time>
      </trkpt>
      <trkpt lat="45.8468" lon="1.2155">
        <ele>314.3</ele>
        <time>2024-10-21T07:20:47Z</time>
      </trkpt>
      <trkpt lat="45.84679" lon="1.21551">
        <ele>314.3</ele>
        <time>2024-10-21T07:20:48Z</time>
      </trkpt>
      <trkpt lat="45.84679" lon="1.21551">
        <ele>314.3</ele>
        <time>2024-10-21T07:20:49Z</time>
      </trkpt>
      <trkpt lat="45.84678" lon="1.21551">
        <ele>314.2</ele>
        <time>2024-10-21T07:20:50Z</time>
      </trkpt>
      <trkpt lat="45.84677" lon="1.21552">
        <ele>314.1</ele>
        <time>2024-10-21T07:20:51Z</time>
      </trkpt>
      <trkpt lat="45.84675" lon="1.21554">
        <ele>314</ele>
        <time>2024-10-21T07:20:52Z</time>
      </trkpt>
      <trkpt lat="45.84674" lon="1.21554">
        <ele>313.9</ele>
        <time>2024-10-21T07:20:53Z</time>
      </trkpt>
      <trkpt lat="45.84672" lon="1.21557">
        <ele>313.7</ele>
        <time>2024-10-21T07:20:54Z</time>
      </trkpt>
      <trkpt lat="45.84671" lon="1.21558">
        <ele>313.6</ele>
        <time>2024-10-21T07:20:55Z</time>
      </trkpt>
      <trkpt lat="45.84668" lon="1.2156">
        <ele>313.4</ele>
        <time>2024-10-21T07:20:56Z</time>
      </trkpt>
      <trkpt lat="45.84666" lon="1.21561">
        <ele>313.3</ele>
        <time>2024-10-21T07:20:57Z</time>
      </trkpt>
      <trkpt lat="45.84664" lon="1.21562">
        <ele>313.2</ele>
        <time>2024-10-21T07:20:59Z</time>
      </trkpt>
      <trkpt lat="45.84662" lon="1.21562">
        <ele>313</ele>
        <time>2024-10-21T07:21:00Z</time>
      </trkpt>
      <trkpt lat="45.84661" lon="1.21563">
        <ele>313</ele>
        <time>2024-10-21T07:21:01Z</time>
      </trkpt>
      <trkpt lat="45.8466" lon="1.21563">
        <ele>312.9</ele>
        <time>2024-10-21T07:21:02Z</time>
      </trkpt>
      <trkpt lat="45.84658" lon="1.21564">
        <ele>312.8</ele>
        <time>2024-10-21T07:21:03Z</time>
      </trkpt>
      <trkpt lat="45.84657" lon="1.21565">
        <ele>312.7</ele>
        <time>2024-10-21T07:21:04Z</time>
      </trkpt>
      <trkpt lat="45.84655" lon="1.21566">
        <ele>312.5</ele>
        <time>2024-10-21T07:21:05Z</time>
      </trkpt>
      <trkpt lat="45.84654" lon="1.21567">
        <ele>312.4</ele>
        <time>2024-10-21T07:21:06Z</time>
      </trkpt>
      <trkpt lat="45.84652" lon="1.21568">
        <ele>312.3</ele>
        <time>2024-10-21T07:21:07Z</time>
      </trkpt>
      <trkpt lat="45.84651" lon="1.21568">
        <ele>312.2</ele>
        <time>2024-10-21T07:21:08Z</time>
      </trkpt>
      <trkpt lat="45.84649" lon="1.21569">
        <ele>312.1</ele>
        <time>2024-10-21T07:21:09Z</time>
      </trkpt>
      <trkpt lat="45.84647" lon="1.2157">
        <ele>312</ele>
        <time>2024-10-21T07:21:10Z</time>
      </trkpt>
      <trkpt lat="45.84646" lon="1.21571">
        <ele>311.9</ele>
        <time>2024-10-21T07:21:11Z</time>
      </trkpt>
      <trkpt lat="45.84645" lon="1.21572">
        <ele>311.8</ele>
        <time>2024-10-21T07:21:12Z</time>
      </trkpt>
      <trkpt lat="45.84643" lon="1.21571">
        <ele>311.7</ele>
        <time>2024-10-21T07:21:13Z</time>
      </trkpt>
      <trkpt lat="45.84642" lon="1.2157">
        <ele>311.7</ele>
        <time>2024-10-21T07:21:14Z</time>
      </trkpt>
      <trkpt lat="45.84641" lon="1.21569">
        <ele>311.7</ele>
        <time>2024-10-21T07:21:15Z</time>
      </trkpt>
      <trkpt lat="45.8464" lon="1.21568">
        <ele>311.7</ele>
        <time>2024-10-21T07:21:16Z</time>
      </trkpt>
      <trkpt lat="45.84639" lon="1.21566">
        <ele>311.6</ele>
        <time>2024-10-21T07:21:17Z</time>
      </trkpt>
      <trkpt lat="45.84639" lon="1.21565">
        <ele>311.6</ele>
        <time>2024-10-21T07:21:18Z</time>
      </trkpt>
      <trkpt lat="45.84638" lon="1.21564">
        <ele>311.6</ele>
        <time>2024-10-21T07:21:19Z</time>
      </trkpt>
      <trkpt lat="45.84637" lon="1.21561">
        <ele>311.6</ele>
        <time>2024-10-21T07:21:20Z</time>
      </trkpt>
      <trkpt lat="45.84637" lon="1.2156">
        <ele>311.6</ele>
        <time>2024-10-21T07:21:21Z</time>
      </trkpt>
      <trkpt lat="45.84637" lon="1.21559">
        <ele>311.6</ele>
        <time>2024-10-21T07:21:22Z</time>
      </trkpt>
      <trkpt lat="45.84636" lon="1.21555">
        <ele>311.6</ele>
        <time>2024-10-21T07:21:23Z</time>
      </trkpt>
      <trkpt lat="45.84636" lon="1.21554">
        <ele>311.6</ele>
        <time>2024-10-21T07:21:24Z</time>
      </trkpt>
      <trkpt lat="45.84636" lon="1.21553">
        <ele>311.5</ele>
        <time>2024-10-21T07:21:25Z</time>
      </trkpt>
      <trkpt lat="45.84636" lon="1.21551">
        <ele>311.5</ele>
        <time>2024-10-21T07:21:26Z</time>
      </trkpt>
      <trkpt lat="45.84636" lon="1.21549">
        <ele>311.5</ele>
        <time>2024-10-21T07:21:27Z</time>
      </trkpt>
      <trkpt lat="45.84636" lon="1.21548">
        <ele>311.5</ele>
        <time>2024-10-21T07:21:28Z</time>
      </trkpt>
      <trkpt lat="45.84635" lon="1.21545">
        <ele>311.5</ele>
        <time>2024-10-21T07:21:29Z</time>
      </trkpt>
      <trkpt lat="45.84635" lon="1.21544">
        <ele>311.5</ele>
        <time>2024-10-21T07:21:30Z</time>
      </trkpt>
      <trkpt lat="45.84635" lon="1.21543">
        <ele>311.5</ele>
        <time>2024-10-21T07:21:31Z</time>
      </trkpt>
      <trkpt lat="45.84635" lon="1.21541">
        <ele>311.5</ele>
        <time>2024-10-21T07:21:32Z</time>
      </trkpt>
      <trkpt lat="45.84635" lon="1.2154">
        <ele>311.5</ele>
        <time>2024-10-21T07:21:33Z</time>
      </trkpt>
      <trkpt lat="45.84634" lon="1.21538">
        <ele>311.4</ele>
        <time>2024-10-21T07:21:34Z</time>
      </trkpt>
      <trkpt lat="45.84634" lon="1.21535">
        <ele>311.4</ele>
        <time>2024-10-21T07:21:35Z</time>
      </trkpt>
      <trkpt lat="45.84634" lon="1.21533">
        <ele>311.4</ele>
        <time>2024-10-21T07:21:36Z</time>
      </trkpt>
      <trkpt lat="45.84634" lon="1.21532">
        <ele>311.4</ele>
        <time>2024-10-21T07:21:37Z</time>
      </trkpt>
      <trkpt lat="45.84633" lon="1.21529">
        <ele>311.4</ele>
        <time>2024-10-21T07:21:38Z</time>
      </trkpt>
      <trkpt lat="45.84633" lon="1.21528">
        <ele>311.4</ele>
        <time>2024-10-21T07:21:39Z</time>
      </trkpt>
      <trkpt lat="45.84632" lon="1.21527">
        <ele>311.4</ele>
        <time>2024-10-21T07:21:40Z</time>
      </trkpt>
      <trkpt lat="45.84631" lon="1.21525">
        <ele>311.4</ele>
        <time>2024-10-21T07:21:41Z</time>
      </trkpt>
      <trkpt lat="45.84631" lon="1.21523">
        <ele>311.3</ele>
        <time>2024-10-21T07:21:42Z</time>
      </trkpt>
      <trkpt lat="45.84631" lon="1.21522">
        <ele>311.3</ele>
        <time>2024-10-21T07:21:43Z</time>
      </trkpt>
      <trkpt lat="45.8463" lon="1.2152">
        <ele>311.3</ele>
        <time>2024-10-21T07:21:44Z</time>
      </trkpt>
      <trkpt lat="45.8463" lon="1.21518">
        <ele>311.3</ele>
        <time>2024-10-21T07:21:45Z</time>
      </trkpt>
      <trkpt lat="45.84629" lon="1.21517">
        <ele>311.3</ele>
        <time>2024-10-21T07:21:46Z</time>
      </trkpt>
      <trkpt lat="45.84629" lon="1.21516">
        <ele>311.3</ele>
        <time>2024-10-21T07:21:47Z</time>
      </trkpt>
      <trkpt lat="45.84628" lon="1.21514">
        <ele>311.3</ele>
        <time>2024-10-21T07:21:48Z</time>
      </trkpt>
      <trkpt lat="45.84628" lon="1.21513">
        <ele>311.2</ele>
        <time>2024-10-21T07:21:49Z</time>
      </trkpt>
      <trkpt lat="45.84627" lon="1.21511">
        <ele>311.2</ele>
        <time>2024-10-21T07:21:50Z</time>
      </trkpt>
      <trkpt lat="45.84626" lon="1.2151">
        <ele>311.2</ele>
        <time>2024-10-21T07:21:51Z</time>
      </trkpt>
      <trkpt lat="45.84625" lon="1.21507">
        <ele>311.2</ele>
        <time>2024-10-21T07:21:52Z</time>
      </trkpt>
      <trkpt lat="45.84625" lon="1.21506">
        <ele>311.2</ele>
        <time>2024-10-21T07:21:53Z</time>
      </trkpt>
      <trkpt lat="45.84625" lon="1.21505">
        <ele>311.2</ele>
        <time>2024-10-21T07:21:54Z</time>
      </trkpt>
      <trkpt lat="45.84624" lon="1.21502">
        <ele>311.1</ele>
        <time>2024-10-21T07:21:55Z</time>
      </trkpt>
      <trkpt lat="45.84623" lon="1.21501">
        <ele>311.1</ele>
        <time>2024-10-21T07:21:57Z</time>
      </trkpt>
      <trkpt lat="45.84622" lon="1.21498">
        <ele>311.1</ele>
        <time>2024-10-21T07:21:58Z</time>
      </trkpt>
      <trkpt lat="45.84622" lon="1.21497">
        <ele>311.1</ele>
        <time>2024-10-21T07:21:59Z</time>
      </trkpt>
      <trkpt lat="45.84621" lon="1.21496">
        <ele>311.1</ele>
        <time>2024-10-21T07:22:00Z</time>
      </trkpt>
      <trkpt lat="45.8462" lon="1.21493">
        <ele>311</ele>
        <time>2024-10-21T07:22:01Z</time>
      </trkpt>
      <trkpt lat="45.8462" lon="1.21492">
        <ele>311</ele>
        <time>2024-10-21T07:22:02Z</time>
      </trkpt>
      <trkpt lat="45.8462" lon="1.21491">
        <ele>311</ele>
        <time>2024-10-21T07:22:03Z</time>
      </trkpt>
      <trkpt lat="45.84619" lon="1.21489">
        <ele>311</ele>
        <time>2024-10-21T07:22:04Z</time>
      </trkpt>
      <trkpt lat="45.84618" lon="1.21487">
        <ele>311</ele>
        <time>2024-10-21T07:22:05Z</time>
      </trkpt>
      <trkpt lat="45.84618" lon="1.21485">
        <ele>310.9</ele>
        <time>2024-10-21T07:22:06Z</time>
      </trkpt>
      <trkpt lat="45.84617" lon="1.21483">
        <ele>310.9</ele>
        <time>2024-10-21T07:22:07Z</time>
      </trkpt>
      <trkpt lat="45.84616" lon="1.21481">
        <ele>310.9</ele>
        <time>2024-10-21T07:22:08Z</time>
      </trkpt>
      <trkpt lat="45.84616" lon="1.21479">
        <ele>310.9</ele>
        <time>2024-10-21T07:22:09Z</time>
      </trkpt>
      <trkpt lat="45.84615" lon="1.21478">
        <ele>310.9</ele>
        <time>2024-10-21T07:22:10Z</time>
      </trkpt>
      <trkpt lat="45.84614" lon="1.21476">
        <ele>310.9</ele>
        <time>2024-10-21T07:22:11Z</time>
      </trkpt>
      <trkpt lat="45.84613" lon="1.21473">
        <ele>310.8</ele>
        <time>2024-10-21T07:22:12Z</time>
      </trkpt>
      <trkpt lat="45.84613" lon="1.21472">
        <ele>310.8</ele>
        <time>2024-10-21T07:22:13Z</time>
      </trkpt>
      <trkpt lat="45.84613" lon="1.21471">
        <ele>310.8</ele>
        <time>2024-10-21T07:22:14Z</time>
      </trkpt>
      <trkpt lat="45.84613" lon="1.21468">
        <ele>310.8</ele>
        <time>2024-10-21T07:22:15Z</time>
      </trkpt>
      <trkpt lat="45.84614" lon="1.21467">
        <ele>310.8</ele>
        <time>2024-10-21T07:22:16Z</time>
      </trkpt>
      <trkpt lat="45.84614" lon="1.21465">
        <ele>310.8</ele>
        <time>2024-10-21T07:22:17Z</time>
      </trkpt>
      <trkpt lat="45.84615" lon="1.21462">
        <ele>310.8</ele>
        <time>2024-10-21T07:22:18Z</time>
      </trkpt>
      <trkpt lat="45.84615" lon="1.21461">
        <ele>310.8</ele>
        <time>2024-10-21T07:22:19Z</time>
      </trkpt>
      <trkpt lat="45.84615" lon="1.2146">
        <ele>310.8</ele>
        <time>2024-10-21T07:22:20Z</time>
      </trkpt>
      <trkpt lat="45.84615" lon="1.21458">
        <ele>310.8</ele>
        <time>2024-10-21T07:22:21Z</time>
      </trkpt>
      <trkpt lat="45.84615" lon="1.21456">
        <ele>310.7</ele>
        <time>2024-10-21T07:22:22Z</time>
      </trkpt>
      <trkpt lat="45.84615" lon="1.21455">
        <ele>310.7</ele>
        <time>2024-10-21T07:22:23Z</time>
      </trkpt>
      <trkpt lat="45.84615" lon="1.21453">
        <ele>310.7</ele>
        <time>2024-10-21T07:22:24Z</time>
      </trkpt>
      <trkpt lat="45.84615" lon="1.2145">
        <ele>310.7</ele>
        <time>2024-10-21T07:22:25Z</time>
      </trkpt>
      <trkpt lat="45.84614" lon="1.21449">
        <ele>310.7</ele>
        <time>2024-10-21T07:22:26Z</time>
      </trkpt>
      <trkpt lat="45.84614" lon="1.21448">
        <ele>310.7</ele>
        <time>2024-10-21T07:22:27Z</time>
      </trkpt>
      <trkpt lat="45.84614" lon="1.21446">
        <ele>310.7</ele>
        <time>2024-10-21T07:22:28Z</time>
      </trkpt>
      <trkpt lat="45.84613" lon="1.21444">
        <ele>310.6</ele>
        <time>2024-10-21T07:22:29Z</time>
      </trkpt>
      <trkpt lat="45.84613" lon="1.21442">
        <ele>310.6</ele>
        <time>2024-10-21T07:22:30Z</time>
      </trkpt>
      <trkpt lat="45.84613" lon="1.21441">
        <ele>310.6</ele>
        <time>2024-10-21T07:22:31Z</time>
      </trkpt>
      <trkpt lat="45.84613" lon="1.21439">
        <ele>310.5</ele>
        <time>2024-10-21T07:22:32Z</time>
      </trkpt>
      <trkpt lat="45.84613" lon="1.21437">
        <ele>310.5</ele>
        <time>2024-10-21T07:22:33Z</time>
      </trkpt>
      <trkpt lat="45.84613" lon="1.21435">
        <ele>310.5</ele>
        <time>2024-10-21T07:22:34Z</time>
      </trkpt>
      <trkpt lat="45.84613" lon="1.21433">
        <ele>310.4</ele>
        <time>2024-10-21T07:22:35Z</time>
      </trkpt>
      <trkpt lat="45.84613" lon="1.21432">
        <ele>310.4</ele>
        <time>2024-10-21T07:22:36Z</time>
      </trkpt>
      <trkpt lat="45.84613" lon="1.2143">
        <ele>310.3</ele>
        <time>2024-10-21T07:22:37Z</time>
      </trkpt>
      <trkpt lat="45.84613" lon="1.21428">
        <ele>310.3</ele>
        <time>2024-10-21T07:22:38Z</time>
      </trkpt>
      <trkpt lat="45.84613" lon="1.21426">
        <ele>310.2</ele>
        <time>2024-10-21T07:22:39Z</time>
      </trkpt>
      <trkpt lat="45.84613" lon="1.21423">
        <ele>310.1</ele>
        <time>2024-10-21T07:22:40Z</time>
      </trkpt>
      <trkpt lat="45.84613" lon="1.21422">
        <ele>310.1</ele>
        <time>2024-10-21T07:22:41Z</time>
      </trkpt>
      <trkpt lat="45.84613" lon="1.2142">
        <ele>310</ele>
        <time>2024-10-21T07:22:42Z</time>
      </trkpt>
      <trkpt lat="45.84612" lon="1.21417">
        <ele>309.9</ele>
        <time>2024-10-21T07:22:43Z</time>
      </trkpt>
      <trkpt lat="45.84612" lon="1.21417">
        <ele>309.9</ele>
        <time>2024-10-21T07:22:44Z</time>
      </trkpt>
      <trkpt lat="45.84612" lon="1.21414">
        <ele>309.7</ele>
        <time>2024-10-21T07:22:45Z</time>
      </trkpt>
      <trkpt lat="45.84612" lon="1.21414">
        <ele>309.7</ele>
        <time>2024-10-21T07:22:46Z</time>
      </trkpt>
      <trkpt lat="45.84612" lon="1.21413">
        <ele>309.7</ele>
        <time>2024-10-21T07:22:47Z</time>
      </trkpt>
      <trkpt lat="45.84612" lon="1.21413">
        <ele>309.6</ele>
        <time>2024-10-21T07:22:48Z</time>
      </trkpt>
      <trkpt lat="45.84613" lon="1.21412">
        <ele>309.6</ele>
        <time>2024-10-21T07:22:49Z</time>
      </trkpt>
      <trkpt lat="45.84614" lon="1.21411">
        <ele>309.5</ele>
        <time>2024-10-21T07:22:50Z</time>
      </trkpt>
      <trkpt lat="45.84613" lon="1.21411">
        <ele>309.5</ele>
        <time>2024-10-21T07:22:51Z</time>
      </trkpt>
      <trkpt lat="45.84611" lon="1.21412">
        <ele>309.3</ele>
        <time>2024-10-21T07:22:52Z</time>
      </trkpt>
      <trkpt lat="45.8461" lon="1.21413">
        <ele>309.2</ele>
        <time>2024-10-21T07:22:53Z</time>
      </trkpt>
      <trkpt lat="45.8461" lon="1.21413">
        <ele>309.2</ele>
        <time>2024-10-21T07:22:54Z</time>
      </trkpt>
      <trkpt lat="45.8461" lon="1.21414">
        <ele>309.2</ele>
        <time>2024-10-21T07:22:55Z</time>
      </trkpt>
      <trkpt lat="45.84609" lon="1.21414">
        <ele>309.1</ele>
        <time>2024-10-21T07:22:56Z</time>
      </trkpt>
      <trkpt lat="45.8461" lon="1.21414">
        <ele>309.1</ele>
        <time>2024-10-21T07:22:57Z</time>
      </trkpt>
      <trkpt lat="45.8461" lon="1.21414">
        <ele>309.1</ele>
        <time>2024-10-21T07:22:58Z</time>
      </trkpt>
      <trkpt lat="45.8461" lon="1.21414">
        <ele>309.1</ele>
        <time>2024-10-21T07:22:59Z</time>
      </trkpt>
      <trkpt lat="45.84609" lon="1.21415">
        <ele>309.1</ele>
        <time>2024-10-21T07:23:00Z</time>
      </trkpt>
      <trkpt lat="45.8461" lon="1.21415">
        <ele>309.1</ele>
        <time>2024-10-21T07:23:01Z</time>
      </trkpt>
      <trkpt lat="45.8461" lon="1.21415">
        <ele>309</ele>
        <time>2024-10-21T07:23:02Z</time>
      </trkpt>
      <trkpt lat="45.8461" lon="1.21415">
        <ele>309</ele>
        <time>2024-10-21T07:23:03Z</time>
      </trkpt>
      <trkpt lat="45.84609" lon="1.21413">
        <ele>308.9</ele>
        <time>2024-10-21T07:23:04Z</time>
      </trkpt>
      <trkpt lat="45.84608" lon="1.21411">
        <ele>308.8</ele>
        <time>2024-10-21T07:23:05Z</time>
      </trkpt>
      <trkpt lat="45.84607" lon="1.21409">
        <ele>308.6</ele>
        <time>2024-10-21T07:23:06Z</time>
      </trkpt>
      <trkpt lat="45.84607" lon="1.2141">
        <ele>308.6</ele>
        <time>2024-10-21T07:23:08Z</time>
      </trkpt>
      <trkpt lat="45.84606" lon="1.2141">
        <ele>308.5</ele>
        <time>2024-10-21T07:23:09Z</time>
      </trkpt>
      <trkpt lat="45.84606" lon="1.2141">
        <ele>308.4</ele>
        <time>2024-10-21T07:23:10Z</time>
      </trkpt>
      <trkpt lat="45.84605" lon="1.21409">
        <ele>308.3</ele>
        <time>2024-10-21T07:23:11Z</time>
      </trkpt>
      <trkpt lat="45.84604" lon="1.21408">
        <ele>308.3</ele>
        <time>2024-10-21T07:23:12Z</time>
      </trkpt>
      <trkpt lat="45.84603" lon="1.21407">
        <ele>308.2</ele>
        <time>2024-10-21T07:23:13Z</time>
      </trkpt>
      <trkpt lat="45.84603" lon="1.21406">
        <ele>308.1</ele>
        <time>2024-10-21T07:23:14Z</time>
      </trkpt>
      <trkpt lat="45.84603" lon="1.21404">
        <ele>308</ele>
        <time>2024-10-21T07:23:15Z</time>
      </trkpt>
      <trkpt lat="45.84603" lon="1.21403">
        <ele>307.9</ele>
        <time>2024-10-21T07:23:16Z</time>
      </trkpt>
      <trkpt lat="45.84604" lon="1.214">
        <ele>307.7</ele>
        <time>2024-10-21T07:23:17Z</time>
      </trkpt>
      <trkpt lat="45.84604" lon="1.21398">
        <ele>307.6</ele>
        <time>2024-10-21T07:23:18Z</time>
      </trkpt>
      <trkpt lat="45.84604" lon="1.21397">
        <ele>307.5</ele>
        <time>2024-10-21T07:23:19Z</time>
      </trkpt>
      <trkpt lat="45.84606" lon="1.21393">
        <ele>307.2</ele>
        <time>2024-10-21T07:23:20Z</time>
      </trkpt>
      <trkpt lat="45.84606" lon="1.21392">
        <ele>307.1</ele>
        <time>2024-10-21T07:23:21Z</time>
      </trkpt>
      <trkpt lat="45.84606" lon="1.21392">
        <ele>307</ele>
        <time>2024-10-21T07:23:22Z</time>
      </trkpt>
      <trkpt lat="45.84605" lon="1.21391">
        <ele>307</ele>
        <time>2024-10-21T07:23:23Z</time>
      </trkpt>
      <trkpt lat="45.84605" lon="1.2139">
        <ele>306.9</ele>
        <time>2024-10-21T07:23:24Z</time>
      </trkpt>
      <trkpt lat="45.84605" lon="1.21386">
        <ele>306.7</ele>
        <time>2024-10-21T07:23:25Z</time>
      </trkpt>
      <trkpt lat="45.84605" lon="1.21385">
        <ele>306.6</ele>
        <time>2024-10-21T07:23:26Z</time>
      </trkpt>
      <trkpt lat="45.84605" lon="1.21384">
        <ele>306.5</ele>
        <time>2024-10-21T07:23:27Z</time>
      </trkpt>
      <trkpt lat="45.84605" lon="1.21382">
        <ele>306.4</ele>
        <time>2024-10-21T07:23:28Z</time>
      </trkpt>
      <trkpt lat="45.84605" lon="1.2138">
        <ele>306.3</ele>
        <time>2024-10-21T07:23:29Z</time>
      </trkpt>
      <trkpt lat="45.84605" lon="1.21378">
        <ele>306.1</ele>
        <time>2024-10-21T07:23:30Z</time>
      </trkpt>
      <trkpt lat="45.84606" lon="1.21376">
        <ele>305.9</ele>
        <time>2024-10-21T07:23:31Z</time>
      </trkpt>
      <trkpt lat="45.84606" lon="1.21373">
        <ele>305.7</ele>
        <time>2024-10-21T07:23:32Z</time>
      </trkpt>
      <trkpt lat="45.84607" lon="1.21371">
        <ele>305.6</ele>
        <time>2024-10-21T07:23:33Z</time>
      </trkpt>
      <trkpt lat="45.84608" lon="1.2137">
        <ele>305.5</ele>
        <time>2024-10-21T07:23:34Z</time>
      </trkpt>
      <trkpt lat="45.84609" lon="1.21369">
        <ele>305.4</ele>
        <time>2024-10-21T07:23:35Z</time>
      </trkpt>
      <trkpt lat="45.84609" lon="1.21367">
        <ele>305.3</ele>
        <time>2024-10-21T07:23:36Z</time>
      </trkpt>
      <trkpt lat="45.84609" lon="1.21365">
        <ele>305.1</ele>
        <time>2024-10-21T07:23:37Z</time>
      </trkpt>
      <trkpt lat="45.84609" lon="1.21362">
        <ele>304.9</ele>
        <time>2024-10-21T07:23:38Z</time>
      </trkpt>
      <trkpt lat="45.84609" lon="1.21361">
        <ele>304.8</ele>
        <time>2024-10-21T07:23:40Z</time>
      </trkpt>
      <trkpt lat="45.84608" lon="1.21359">
        <ele>304.7</ele>
        <time>2024-10-21T07:23:41Z</time>
      </trkpt>
      <trkpt lat="45.84608" lon="1.21357">
        <ele>304.6</ele>
        <time>2024-10-21T07:23:42Z</time>
      </trkpt>
      <trkpt lat="45.84608" lon="1.21354">
        <ele>304.4</ele>
        <time>2024-10-21T07:23:43Z</time>
      </trkpt>
      <trkpt lat="45.84608" lon="1.21354">
        <ele>304.4</ele>
        <time>2024-10-21T07:23:44Z</time>
      </trkpt>
      <trkpt lat="45.84608" lon="1.21353">
        <ele>304.2</ele>
        <time>2024-10-21T07:23:45Z</time>
      </trkpt>
      <trkpt lat="45.84607" lon="1.21353">
        <ele>304.2</ele>
        <time>2024-10-21T07:23:46Z</time>
      </trkpt>
      <trkpt lat="45.84607" lon="1.21352">
        <ele>304.1</ele>
        <time>2024-10-21T07:23:47Z</time>
      </trkpt>
      <trkpt lat="45.84606" lon="1.2135">
        <ele>303.9</ele>
        <time>2024-10-21T07:23:48Z</time>
      </trkpt>
      <trkpt lat="45.84606" lon="1.21348">
        <ele>303.8</ele>
        <time>2024-10-21T07:23:49Z</time>
      </trkpt>
      <trkpt lat="45.84606" lon="1.21347">
        <ele>303.7</ele>
        <time>2024-10-21T07:23:50Z</time>
      </trkpt>
      <trkpt lat="45.84605" lon="1.21347">
        <ele>303.6</ele>
        <time>2024-10-21T07:23:51Z</time>
      </trkpt>
      <trkpt lat="45.84604" lon="1.21346">
        <ele>303.5</ele>
        <time>2024-10-21T07:23:52Z</time>
      </trkpt>
      <trkpt lat="45.84603" lon="1.21346">
        <ele>303.4</ele>
        <time>2024-10-21T07:23:53Z</time>
      </trkpt>
      <trkpt lat="45.84602" lon="1.21346">
        <ele>303.2</ele>
        <time>2024-10-21T07:23:54Z</time>
      </trkpt>
      <trkpt lat="45.84601" lon="1.21345">
        <ele>303.1</ele>
        <time>2024-10-21T07:23:55Z</time>
      </trkpt>
      <trkpt lat="45.84601" lon="1.21344">
        <ele>303</ele>
        <time>2024-10-21T07:23:56Z</time>
      </trkpt>
      <trkpt lat="45.846" lon="1.21343">
        <ele>302.9</ele>
        <time>2024-10-21T07:23:57Z</time>
      </trkpt>
      <trkpt lat="45.846" lon="1.21343">
        <ele>302.8</ele>
        <time>2024-10-21T07:23:58Z</time>
      </trkpt>
      <trkpt lat="45.84599" lon="1.21342">
        <ele>302.7</ele>
        <time>2024-10-21T07:23:59Z</time>
      </trkpt>
      <trkpt lat="45.84598" lon="1.21341">
        <ele>302.6</ele>
        <time>2024-10-21T07:24:00Z</time>
      </trkpt>
      <trkpt lat="45.84598" lon="1.21341">
        <ele>302.5</ele>
        <time>2024-10-21T07:24:01Z</time>
      </trkpt>
      <trkpt lat="45.84597" lon="1.2134">
        <ele>302.4</ele>
        <time>2024-10-21T07:24:02Z</time>
      </trkpt>
      <trkpt lat="45.84596" lon="1.2134">
        <ele>302.3</ele>
        <time>2024-10-21T07:24:03Z</time>
      </trkpt>
      <trkpt lat="45.84595" lon="1.21339">
        <ele>302.1</ele>
        <time>2024-10-21T07:24:04Z</time>
      </trkpt>
      <trkpt lat="45.84594" lon="1.21339">
        <ele>302</ele>
        <time>2024-10-21T07:24:05Z</time>
      </trkpt>
      <trkpt lat="45.84594" lon="1.21338">
        <ele>302</ele>
        <time>2024-10-21T07:24:06Z</time>
      </trkpt>
      <trkpt lat="45.84593" lon="1.21338">
        <ele>301.8</ele>
        <time>2024-10-21T07:24:07Z</time>
      </trkpt>
      <trkpt lat="45.84592" lon="1.21337">
        <ele>301.7</ele>
        <time>2024-10-21T07:24:08Z</time>
      </trkpt>
      <trkpt lat="45.84591" lon="1.21337">
        <ele>301.6</ele>
        <time>2024-10-21T07:24:09Z</time>
      </trkpt>
      <trkpt lat="45.84591" lon="1.21337">
        <ele>301.5</ele>
        <time>2024-10-21T07:24:10Z</time>
      </trkpt>
      <trkpt lat="45.84591" lon="1.21336">
        <ele>301.5</ele>
        <time>2024-10-21T07:24:11Z</time>
      </trkpt>
      <trkpt lat="45.84591" lon="1.21336">
        <ele>301.4</ele>
        <time>2024-10-21T07:24:12Z</time>
      </trkpt>
      <trkpt lat="45.8459" lon="1.21336">
        <ele>301.4</ele>
        <time>2024-10-21T07:24:13Z</time>
      </trkpt>
      <trkpt lat="45.84589" lon="1.21335">
        <ele>301.2</ele>
        <time>2024-10-21T07:24:14Z</time>
      </trkpt>
      <trkpt lat="45.84588" lon="1.21334">
        <ele>301</ele>
        <time>2024-10-21T07:24:15Z</time>
      </trkpt>
      <trkpt lat="45.84587" lon="1.21334">
        <ele>300.9</ele>
        <time>2024-10-21T07:24:16Z</time>
      </trkpt>
      <trkpt lat="45.84587" lon="1.21334">
        <ele>300.8</ele>
        <time>2024-10-21T07:24:17Z</time>
      </trkpt>
      <trkpt lat="45.84586" lon="1.21333">
        <ele>300.7</ele>
        <time>2024-10-21T07:24:18Z</time>
      </trkpt>
      <trkpt lat="45.84585" lon="1.21332">
        <ele>300.5</ele>
        <time>2024-10-21T07:24:19Z</time>
      </trkpt>
      <trkpt lat="45.84583" lon="1.21331">
        <ele>300.3</ele>
        <time>2024-10-21T07:24:20Z</time>
      </trkpt>
      <trkpt lat="45.84581" lon="1.21329">
        <ele>299.9</ele>
        <time>2024-10-21T07:24:21Z</time>
      </trkpt>
      <trkpt lat="45.8458" lon="1.21328">
        <ele>299.8</ele>
        <time>2024-10-21T07:24:22Z</time>
      </trkpt>
      <trkpt lat="45.84578" lon="1.21325">
        <ele>299.3</ele>
        <time>2024-10-21T07:24:23Z</time>
      </trkpt>
      <trkpt lat="45.84574" lon="1.21322">
        <ele>298.7</ele>
        <time>2024-10-21T07:24:24Z</time>
      </trkpt>
      <trkpt lat="45.84573" lon="1.21321">
        <ele>298.4</ele>
        <time>2024-10-21T07:24:25Z</time>
      </trkpt>
      <trkpt lat="45.8457" lon="1.21318">
        <ele>297.9</ele>
        <time>2024-10-21T07:24:26Z</time>
      </trkpt>
      <trkpt lat="45.84569" lon="1.21317">
        <ele>297.7</ele>
        <time>2024-10-21T07:24:27Z</time>
      </trkpt>
      <trkpt lat="45.84566" lon="1.21315">
        <ele>297.2</ele>
        <time>2024-10-21T07:24:28Z</time>
      </trkpt>
      <trkpt lat="45.84565" lon="1.21313">
        <ele>297</ele>
        <time>2024-10-21T07:24:30Z</time>
      </trkpt>
      <trkpt lat="45.84563" lon="1.21312">
        <ele>296.7</ele>
        <time>2024-10-21T07:24:31Z</time>
      </trkpt>
      <trkpt lat="45.84563" lon="1.2131">
        <ele>296.5</ele>
        <time>2024-10-21T07:24:32Z</time>
      </trkpt>
      <trkpt lat="45.84562" lon="1.21308">
        <ele>296.2</ele>
        <time>2024-10-21T07:24:33Z</time>
      </trkpt>
      <trkpt lat="45.84561" lon="1.21307">
        <ele>296</ele>
        <time>2024-10-21T07:24:34Z</time>
      </trkpt>
      <trkpt lat="45.8456" lon="1.21305">
        <ele>295.8</ele>
        <time>2024-10-21T07:24:35Z</time>
      </trkpt>
      <trkpt lat="45.8456" lon="1.21302">
        <ele>295.5</ele>
        <time>2024-10-21T07:24:36Z</time>
      </trkpt>
      <trkpt lat="45.84561" lon="1.21301">
        <ele>295.3</ele>
        <time>2024-10-21T07:24:37Z</time>
      </trkpt>
      <trkpt lat="45.84561" lon="1.213">
        <ele>295.2</ele>
        <time>2024-10-21T07:24:38Z</time>
      </trkpt>
      <trkpt lat="45.84562" lon="1.21298">
        <ele>295</ele>
        <time>2024-10-21T07:24:39Z</time>
      </trkpt>
      <trkpt lat="45.84562" lon="1.21297">
        <ele>294.9</ele>
        <time>2024-10-21T07:24:40Z</time>
      </trkpt>
      <trkpt lat="45.84564" lon="1.21296">
        <ele>294.7</ele>
        <time>2024-10-21T07:24:41Z</time>
      </trkpt>
      <trkpt lat="45.84564" lon="1.21294">
        <ele>294.5</ele>
        <time>2024-10-21T07:24:42Z</time>
      </trkpt>
      <trkpt lat="45.84565" lon="1.21294">
        <ele>294.3</ele>
        <time>2024-10-21T07:24:43Z</time>
      </trkpt>
      <trkpt lat="45.84566" lon="1.21292">
        <ele>294.1</ele>
        <time>2024-10-21T07:24:44Z</time>
      </trkpt>
      <trkpt lat="45.84567" lon="1.21291">
        <ele>293.9</ele>
        <time>2024-10-21T07:24:46Z</time>
      </trkpt>
      <trkpt lat="45.84567" lon="1.21289">
        <ele>293.8</ele>
        <time>2024-10-21T07:24:47Z</time>
      </trkpt>
      <trkpt lat="45.84568" lon="1.21287">
        <ele>293.6</ele>
        <time>2024-10-21T07:24:48Z</time>
      </trkpt>
      <trkpt lat="45.84568" lon="1.21286">
        <ele>293.5</ele>
        <time>2024-10-21T07:24:49Z</time>
      </trkpt>
      <trkpt lat="45.84569" lon="1.21285">
        <ele>293.4</ele>
        <time>2024-10-21T07:24:50Z</time>
      </trkpt>
      <trkpt lat="45.8457" lon="1.21283">
        <ele>293.2</ele>
        <time>2024-10-21T07:24:51Z</time>
      </trkpt>
      <trkpt lat="45.84571" lon="1.21283">
        <ele>293.1</ele>
        <time>2024-10-21T07:24:52Z</time>
      </trkpt>
      <trkpt lat="45.84572" lon="1.21282">
        <ele>293</ele>
        <time>2024-10-21T07:24:53Z</time>
      </trkpt>
      <trkpt lat="45.84572" lon="1.21282">
        <ele>292.9</ele>
        <time>2024-10-21T07:24:54Z</time>
      </trkpt>
      <trkpt lat="45.84576" lon="1.21281">
        <ele>292.6</ele>
        <time>2024-10-21T07:24:55Z</time>
      </trkpt>
      <trkpt lat="45.84577" lon="1.2128">
        <ele>292.5</ele>
        <time>2024-10-21T07:24:56Z</time>
      </trkpt>
      <trkpt lat="45.84578" lon="1.2128">
        <ele>292.4</ele>
        <time>2024-10-21T07:24:57Z</time>
      </trkpt>
      <trkpt lat="45.8458" lon="1.21279">
        <ele>292.3</ele>
        <time>2024-10-21T07:24:58Z</time>
      </trkpt>
      <trkpt lat="45.84581" lon="1.21278">
        <ele>292.2</ele>
        <time>2024-10-21T07:24:59Z</time>
      </trkpt>
      <trkpt lat="45.84582" lon="1.21277">
        <ele>292.1</ele>
        <time>2024-10-21T07:25:00Z</time>
      </trkpt>
      <trkpt lat="45.84584" lon="1.21276">
        <ele>292</ele>
        <time>2024-10-21T07:25:01Z</time>
      </trkpt>
      <trkpt lat="45.84585" lon="1.21275">
        <ele>292</ele>
        <time>2024-10-21T07:25:02Z</time>
      </trkpt>
      <trkpt lat="45.84586" lon="1.21275">
        <ele>291.9</ele>
        <time>2024-10-21T07:25:03Z</time>
      </trkpt>
      <trkpt lat="45.84587" lon="1.21274">
        <ele>291.9</ele>
        <time>2024-10-21T07:25:04Z</time>
      </trkpt>
      <trkpt lat="45.84589" lon="1.21273">
        <ele>291.8</ele>
        <time>2024-10-21T07:25:05Z</time>
      </trkpt>
      <trkpt lat="45.84591" lon="1.21272">
        <ele>291.7</ele>
        <time>2024-10-21T07:25:06Z</time>
      </trkpt>
      <trkpt lat="45.84592" lon="1.21272">
        <ele>291.7</ele>
        <time>2024-10-21T07:25:07Z</time>
      </trkpt>
      <trkpt lat="45.84594" lon="1.21271">
        <ele>291.6</ele>
        <time>2024-10-21T07:25:08Z</time>
      </trkpt>
      <trkpt lat="45.84595" lon="1.2127">
        <ele>291.6</ele>
        <time>2024-10-21T07:25:09Z</time>
      </trkpt>
      <trkpt lat="45.84597" lon="1.21269">
        <ele>291.5</ele>
        <time>2024-10-21T07:25:10Z</time>
      </trkpt>
      <trkpt lat="45.84599" lon="1.21268">
        <ele>291.5</ele>
        <time>2024-10-21T07:25:11Z</time>
      </trkpt>
      <trkpt lat="45.846" lon="1.21268">
        <ele>291.5</ele>
        <time>2024-10-21T07:25:12Z</time>
      </trkpt>
      <trkpt lat="45.84601" lon="1.21267">
        <ele>291.5</ele>
        <time>2024-10-21T07:25:13Z</time>
      </trkpt>
      <trkpt lat="45.84603" lon="1.21266">
        <ele>291.4</ele>
        <time>2024-10-21T07:25:14Z</time>
      </trkpt>
      <trkpt lat="45.84604" lon="1.21266">
        <ele>291.4</ele>
        <time>2024-10-21T07:25:15Z</time>
      </trkpt>
      <trkpt lat="45.84606" lon="1.21265">
        <ele>291.4</ele>
        <time>2024-10-21T07:25:16Z</time>
      </trkpt>
      <trkpt lat="45.84607" lon="1.21265">
        <ele>291.4</ele>
        <time>2024-10-21T07:25:17Z</time>
      </trkpt>
      <trkpt lat="45.84609" lon="1.21264">
        <ele>291.3</ele>
        <time>2024-10-21T07:25:18Z</time>
      </trkpt>
      <trkpt lat="45.8461" lon="1.21264">
        <ele>291.3</ele>
        <time>2024-10-21T07:25:19Z</time>
      </trkpt>
      <trkpt lat="45.84612" lon="1.21264">
        <ele>291.3</ele>
        <time>2024-10-21T07:25:20Z</time>
      </trkpt>
      <trkpt lat="45.84613" lon="1.21263">
        <ele>291.3</ele>
        <time>2024-10-21T07:25:21Z</time>
      </trkpt>
      <trkpt lat="45.84615" lon="1.21263">
        <ele>291.3</ele>
        <time>2024-10-21T07:25:22Z</time>
      </trkpt>
      <trkpt lat="45.84616" lon="1.21263">
        <ele>291.3</ele>
        <time>2024-10-21T07:25:23Z</time>
      </trkpt>
      <trkpt lat="45.84617" lon="1.21263">
        <ele>291.3</ele>
        <time>2024-10-21T07:25:24Z</time>
      </trkpt>
      <trkpt lat="45.84619" lon="1.21264">
        <ele>291.3</ele>
        <time>2024-10-21T07:25:25Z</time>
      </trkpt>
      <trkpt lat="45.84621" lon="1.21263">
        <ele>291.3</ele>
        <time>2024-10-21T07:25:26Z</time>
      </trkpt>
      <trkpt lat="45.84623" lon="1.21264">
        <ele>291.2</ele>
        <time>2024-10-21T07:25:27Z</time>
      </trkpt>
      <trkpt lat="45.84624" lon="1.21264">
        <ele>291.2</ele>
        <time>2024-10-21T07:25:28Z</time>
      </trkpt>
      <trkpt lat="45.84624" lon="1.21264">
        <ele>291.2</ele>
        <time>2024-10-21T07:25:29Z</time>
      </trkpt>
      <trkpt lat="45.84626" lon="1.21264">
        <ele>291.2</ele>
        <time>2024-10-21T07:25:30Z</time>
      </trkpt>
      <trkpt lat="45.84628" lon="1.21264">
        <ele>291.3</ele>
        <time>2024-10-21T07:25:31Z</time>
      </trkpt>
      <trkpt lat="45.84629" lon="1.21263">
        <ele>291.3</ele>
        <time>2024-10-21T07:25:32Z</time>
      </trkpt>
      <trkpt lat="45.8463" lon="1.21262">
        <ele>291.3</ele>
        <time>2024-10-21T07:25:33Z</time>
      </trkpt>
      <trkpt lat="45.84631" lon="1.21262">
        <ele>291.3</ele>
        <time>2024-10-21T07:25:34Z</time>
      </trkpt>
      <trkpt lat="45.84632" lon="1.21261">
        <ele>291.3</ele>
        <time>2024-10-21T07:25:35Z</time>
      </trkpt>
      <trkpt lat="45.84634" lon="1.2126">
        <ele>291.3</ele>
        <time>2024-10-21T07:25:36Z</time>
      </trkpt>
      <trkpt lat="45.84635" lon="1.21259">
        <ele>291.3</ele>
        <time>2024-10-21T07:25:37Z</time>
      </trkpt>
      <trkpt lat="45.84635" lon="1.21258">
        <ele>291.3</ele>
        <time>2024-10-21T07:25:38Z</time>
      </trkpt>
      <trkpt lat="45.84636" lon="1.21257">
        <ele>291.3</ele>
        <time>2024-10-21T07:25:39Z</time>
      </trkpt>
      <trkpt lat="45.84637" lon="1.21257">
        <ele>291.3</ele>
        <time>2024-10-21T07:25:40Z</time>
      </trkpt>
      <trkpt lat="45.84639" lon="1.21255">
        <ele>291.3</ele>
        <time>2024-10-21T07:25:41Z</time>
      </trkpt>
      <trkpt lat="45.84639" lon="1.21254">
        <ele>291.3</ele>
        <time>2024-10-21T07:25:42Z</time>
      </trkpt>
      <trkpt lat="45.84639" lon="1.21253">
        <ele>291.3</ele>
        <time>2024-10-21T07:25:43Z</time>
      </trkpt>
      <trkpt lat="45.84639" lon="1.21253">
        <ele>291.3</ele>
        <time>2024-10-21T07:25:44Z</time>
      </trkpt>
      <trkpt lat="45.8464" lon="1.21252">
        <ele>291.4</ele>
        <time>2024-10-21T07:25:45Z</time>
      </trkpt>
      <trkpt lat="45.84641" lon="1.21251">
        <ele>291.4</ele>
        <time>2024-10-21T07:25:46Z</time>
      </trkpt>
      <trkpt lat="45.84642" lon="1.2125">
        <ele>291.4</ele>
        <time>2024-10-21T07:25:47Z</time>
      </trkpt>
      <trkpt lat="45.84643" lon="1.21249">
        <ele>291.4</ele>
        <time>2024-10-21T07:25:48Z</time>
      </trkpt>
      <trkpt lat="45.84644" lon="1.21248">
        <ele>291.4</ele>
        <time>2024-10-21T07:25:49Z</time>
      </trkpt>
      <trkpt lat="45.84644" lon="1.21248">
        <ele>291.4</ele>
        <time>2024-10-21T07:25:50Z</time>
      </trkpt>
      <trkpt lat="45.84645" lon="1.21247">
        <ele>291.4</ele>
        <time>2024-10-21T07:25:51Z</time>
      </trkpt>
      <trkpt lat="45.84645" lon="1.21247">
        <ele>291.4</ele>
        <time>2024-10-21T07:25:52Z</time>
      </trkpt>
      <trkpt lat="45.84645" lon="1.21247">
        <ele>291.4</ele>
        <time>2024-10-21T07:25:53Z</time>
      </trkpt>
      <trkpt lat="45.84646" lon="1.21247">
        <ele>291.4</ele>
        <time>2024-10-21T07:25:54Z</time>
      </trkpt>
      <trkpt lat="45.84646" lon="1.21247">
        <ele>291.4</ele>
        <time>2024-10-21T07:25:55Z</time>
      </trkpt>
      <trkpt lat="45.84647" lon="1.21247">
        <ele>291.4</ele>
        <time>2024-10-21T07:25:56Z</time>
      </trkpt>
      <trkpt lat="45.84647" lon="1.21247">
        <ele>291.4</ele>
        <time>2024-10-21T07:25:57Z</time>
      </trkpt>
      <trkpt lat="45.84648" lon="1.21247">
        <ele>291.4</ele>
        <time>2024-10-21T07:25:58Z</time>
      </trkpt>
      <trkpt lat="45.84649" lon="1.21247">
        <ele>291.4</ele>
        <time>2024-10-21T07:25:59Z</time>
      </trkpt>
      <trkpt lat="45.8465" lon="1.21247">
        <ele>291.4</ele>
        <time>2024-10-21T07:26:00Z</time>
      </trkpt>
      <trkpt lat="45.84652" lon="1.21247">
        <ele>291.4</ele>
        <time>2024-10-21T07:26:01Z</time>
      </trkpt>
      <trkpt lat="45.84653" lon="1.21247">
        <ele>291.4</ele>
        <time>2024-10-21T07:26:02Z</time>
      </trkpt>
      <trkpt lat="45.84654" lon="1.21247">
        <ele>291.4</ele>
        <time>2024-10-21T07:26:03Z</time>
      </trkpt>
      <trkpt lat="45.84656" lon="1.21247">
        <ele>291.4</ele>
        <time>2024-10-21T07:26:04Z</time>
      </trkpt>
      <trkpt lat="45.84657" lon="1.21247">
        <ele>291.3</ele>
        <time>2024-10-21T07:26:05Z</time>
      </trkpt>
      <trkpt lat="45.84659" lon="1.21247">
        <ele>291.3</ele>
        <time>2024-10-21T07:26:06Z</time>
      </trkpt>
      <trkpt lat="45.84659" lon="1.21246">
        <ele>291.3</ele>
        <time>2024-10-21T07:26:07Z</time>
      </trkpt>
      <trkpt lat="45.8466" lon="1.21245">
        <ele>291.3</ele>
        <time>2024-10-21T07:26:08Z</time>
      </trkpt>
      <trkpt lat="45.8466" lon="1.21243">
        <ele>291.2</ele>
        <time>2024-10-21T07:26:09Z</time>
      </trkpt>
      <trkpt lat="45.8466" lon="1.21242">
        <ele>291.2</ele>
        <time>2024-10-21T07:26:10Z</time>
      </trkpt>
      <trkpt lat="45.8466" lon="1.2124">
        <ele>291.1</ele>
        <time>2024-10-21T07:26:11Z</time>
      </trkpt>
      <trkpt lat="45.84659" lon="1.21239">
        <ele>291.1</ele>
        <time>2024-10-21T07:26:12Z</time>
      </trkpt>
      <trkpt lat="45.84659" lon="1.21238">
        <ele>291.1</ele>
        <time>2024-10-21T07:26:13Z</time>
      </trkpt>
      <trkpt lat="45.84659" lon="1.21236">
        <ele>291</ele>
        <time>2024-10-21T07:26:14Z</time>
      </trkpt>
      <trkpt lat="45.84659" lon="1.21235">
        <ele>291</ele>
        <time>2024-10-21T07:26:15Z</time>
      </trkpt>
      <trkpt lat="45.84659" lon="1.21233">
        <ele>290.9</ele>
        <time>2024-10-21T07:26:16Z</time>
      </trkpt>
      <trkpt lat="45.8466" lon="1.21232">
        <ele>290.8</ele>
        <time>2024-10-21T07:26:17Z</time>
      </trkpt>
      <trkpt lat="45.84661" lon="1.21231">
        <ele>290.7</ele>
        <time>2024-10-21T07:26:18Z</time>
      </trkpt>
      <trkpt lat="45.84663" lon="1.21229">
        <ele>290.6</ele>
        <time>2024-10-21T07:26:19Z</time>
      </trkpt>
      <trkpt lat="45.84664" lon="1.21229">
        <ele>290.5</ele>
        <time>2024-10-21T07:26:20Z</time>
      </trkpt>
      <trkpt lat="45.84664" lon="1.21228">
        <ele>290.5</ele>
        <time>2024-10-21T07:26:21Z</time>
      </trkpt>
      <trkpt lat="45.84665" lon="1.21228">
        <ele>290.4</ele>
        <time>2024-10-21T07:26:22Z</time>
      </trkpt>
      <trkpt lat="45.84667" lon="1.21228">
        <ele>290.3</ele>
        <time>2024-10-21T07:26:23Z</time>
      </trkpt>
      <trkpt lat="45.84667" lon="1.21228">
        <ele>290.3</ele>
        <time>2024-10-21T07:26:24Z</time>
      </trkpt>
      <trkpt lat="45.84668" lon="1.21228">
        <ele>290.2</ele>
        <time>2024-10-21T07:26:25Z</time>
      </trkpt>
      <trkpt lat="45.84668" lon="1.21228">
        <ele>290.1</ele>
        <time>2024-10-21T07:26:26Z</time>
      </trkpt>
      <trkpt lat="45.84669" lon="1.21227">
        <ele>290.1</ele>
        <time>2024-10-21T07:26:27Z</time>
      </trkpt>
      <trkpt lat="45.84669" lon="1.21226">
        <ele>290</ele>
        <time>2024-10-21T07:26:28Z</time>
      </trkpt>
      <trkpt lat="45.8467" lon="1.21225">
        <ele>290</ele>
        <time>2024-10-21T07:26:29Z</time>
      </trkpt>
      <trkpt lat="45.8467" lon="1.21224">
        <ele>289.9</ele>
        <time>2024-10-21T07:26:30Z</time>
      </trkpt>
      <trkpt lat="45.84671" lon="1.21222">
        <ele>289.8</ele>
        <time>2024-10-21T07:26:31Z</time>
      </trkpt>
      <trkpt lat="45.84672" lon="1.21221">
        <ele>289.7</ele>
        <time>2024-10-21T07:26:32Z</time>
      </trkpt>
      <trkpt lat="45.84672" lon="1.2122">
        <ele>289.6</ele>
        <time>2024-10-21T07:26:33Z</time>
      </trkpt>
      <trkpt lat="45.84673" lon="1.21218">
        <ele>289.5</ele>
        <time>2024-10-21T07:26:34Z</time>
      </trkpt>
      <trkpt lat="45.84674" lon="1.21215">
        <ele>289.4</ele>
        <time>2024-10-21T07:26:35Z</time>
      </trkpt>
      <trkpt lat="45.84674" lon="1.21215">
        <ele>289.4</ele>
        <time>2024-10-21T07:26:36Z</time>
      </trkpt>
      <trkpt lat="45.84673" lon="1.21216">
        <ele>289.3</ele>
        <time>2024-10-21T07:26:37Z</time>
      </trkpt>
      <trkpt lat="45.84673" lon="1.21215">
        <ele>289.3</ele>
        <time>2024-10-21T07:26:38Z</time>
      </trkpt>
      <trkpt lat="45.84674" lon="1.21213">
        <ele>289.3</ele>
        <time>2024-10-21T07:26:39Z</time>
      </trkpt>
      <trkpt lat="45.84676" lon="1.21211">
        <ele>289.3</ele>
        <time>2024-10-21T07:26:40Z</time>
      </trkpt>
      <trkpt lat="45.84677" lon="1.21209">
        <ele>289.3</ele>
        <time>2024-10-21T07:26:42Z</time>
      </trkpt>
      <trkpt lat="45.84678" lon="1.21209">
        <ele>289.3</ele>
        <time>2024-10-21T07:26:43Z</time>
      </trkpt>
      <trkpt lat="45.84677" lon="1.21211">
        <ele>289.3</ele>
        <time>2024-10-21T07:26:44Z</time>
      </trkpt>
      <trkpt lat="45.84676" lon="1.21212">
        <ele>289.3</ele>
        <time>2024-10-21T07:26:45Z</time>
      </trkpt>
      <trkpt lat="45.84677" lon="1.21211">
        <ele>289.3</ele>
        <time>2024-10-21T07:26:46Z</time>
      </trkpt>
      <trkpt lat="45.84677" lon="1.21211">
        <ele>289.3</ele>
        <time>2024-10-21T07:26:48Z</time>
      </trkpt>
      <trkpt lat="45.84678" lon="1.21211">
        <ele>289.4</ele>
        <time>2024-10-21T07:26:49Z</time>
      </trkpt>
      <trkpt lat="45.84679" lon="1.21211">
        <ele>289.4</ele>
        <time>2024-10-21T07:26:50Z</time>
      </trkpt>
      <trkpt lat="45.84681" lon="1.21211">
        <ele>289.4</ele>
        <time>2024-10-21T07:26:51Z</time>
      </trkpt>
      <trkpt lat="45.84681" lon="1.21211">
        <ele>289.4</ele>
        <time>2024-10-21T07:26:52Z</time>
      </trkpt>
      <trkpt lat="45.84682" lon="1.21211">
        <ele>289.4</ele>
        <time>2024-10-21T07:26:53Z</time>
      </trkpt>
      <trkpt lat="45.84683" lon="1.21211">
        <ele>289.5</ele>
        <time>2024-10-21T07:26:54Z</time>
      </trkpt>
      <trkpt lat="45.84684" lon="1.21209">
        <ele>289.5</ele>
        <time>2024-10-21T07:26:55Z</time>
      </trkpt>
      <trkpt lat="45.84685" lon="1.21207">
        <ele>289.6</ele>
        <time>2024-10-21T07:26:56Z</time>
      </trkpt>
      <trkpt lat="45.84686" lon="1.21205">
        <ele>289.6</ele>
        <time>2024-10-21T07:26:57Z</time>
      </trkpt>
      <trkpt lat="45.84687" lon="1.21204">
        <ele>289.7</ele>
        <time>2024-10-21T07:26:58Z</time>
      </trkpt>
      <trkpt lat="45.84687" lon="1.21202">
        <ele>289.7</ele>
        <time>2024-10-21T07:26:59Z</time>
      </trkpt>
      <trkpt lat="45.84688" lon="1.212">
        <ele>289.7</ele>
        <time>2024-10-21T07:27:00Z</time>
      </trkpt>
      <trkpt lat="45.84689" lon="1.21198">
        <ele>289.8</ele>
        <time>2024-10-21T07:27:01Z</time>
      </trkpt>
      <trkpt lat="45.84689" lon="1.21197">
        <ele>289.8</ele>
        <time>2024-10-21T07:27:02Z</time>
      </trkpt>
      <trkpt lat="45.8469" lon="1.21196">
        <ele>289.9</ele>
        <time>2024-10-21T07:27:03Z</time>
      </trkpt>
      <trkpt lat="45.8469" lon="1.21194">
        <ele>289.9</ele>
        <time>2024-10-21T07:27:04Z</time>
      </trkpt>
      <trkpt lat="45.84691" lon="1.21193">
        <ele>289.9</ele>
        <time>2024-10-21T07:27:05Z</time>
      </trkpt>
      <trkpt lat="45.84691" lon="1.21191">
        <ele>290</ele>
        <time>2024-10-21T07:27:06Z</time>
      </trkpt>
      <trkpt lat="45.84692" lon="1.2119">
        <ele>290</ele>
        <time>2024-10-21T07:27:07Z</time>
      </trkpt>
      <trkpt lat="45.84693" lon="1.21189">
        <ele>290</ele>
        <time>2024-10-21T07:27:08Z</time>
      </trkpt>
      <trkpt lat="45.84695" lon="1.21187">
        <ele>290.1</ele>
        <time>2024-10-21T07:27:09Z</time>
      </trkpt>
      <trkpt lat="45.84695" lon="1.21187">
        <ele>290.1</ele>
        <time>2024-10-21T07:27:10Z</time>
      </trkpt>
      <trkpt lat="45.84695" lon="1.21186">
        <ele>290.1</ele>
        <time>2024-10-21T07:27:11Z</time>
      </trkpt>
      <trkpt lat="45.84696" lon="1.21186">
        <ele>290.1</ele>
        <time>2024-10-21T07:27:12Z</time>
      </trkpt>
      <trkpt lat="45.84697" lon="1.21184">
        <ele>290.1</ele>
        <time>2024-10-21T07:27:13Z</time>
      </trkpt>
      <trkpt lat="45.84697" lon="1.21184">
        <ele>290.1</ele>
        <time>2024-10-21T07:27:14Z</time>
      </trkpt>
      <trkpt lat="45.84698" lon="1.21183">
        <ele>290.2</ele>
        <time>2024-10-21T07:27:15Z</time>
      </trkpt>
      <trkpt lat="45.84699" lon="1.21182">
        <ele>290.2</ele>
        <time>2024-10-21T07:27:16Z</time>
      </trkpt>
      <trkpt lat="45.847" lon="1.2118">
        <ele>290.2</ele>
        <time>2024-10-21T07:27:17Z</time>
      </trkpt>
      <trkpt lat="45.847" lon="1.21179">
        <ele>290.2</ele>
        <time>2024-10-21T07:27:18Z</time>
      </trkpt>
      <trkpt lat="45.847" lon="1.21177">
        <ele>290.2</ele>
        <time>2024-10-21T07:27:19Z</time>
      </trkpt>
      <trkpt lat="45.847" lon="1.21176">
        <ele>290.2</ele>
        <time>2024-10-21T07:27:20Z</time>
      </trkpt>
      <trkpt lat="45.847" lon="1.21175">
        <ele>290.3</ele>
        <time>2024-10-21T07:27:21Z</time>
      </trkpt>
      <trkpt lat="45.84701" lon="1.21173">
        <ele>290.3</ele>
        <time>2024-10-21T07:27:22Z</time>
      </trkpt>
      <trkpt lat="45.84701" lon="1.21172">
        <ele>290.3</ele>
        <time>2024-10-21T07:27:23Z</time>
      </trkpt>
      <trkpt lat="45.84702" lon="1.21171">
        <ele>290.3</ele>
        <time>2024-10-21T07:27:24Z</time>
      </trkpt>
      <trkpt lat="45.84702" lon="1.21169">
        <ele>290.3</ele>
        <time>2024-10-21T07:27:25Z</time>
      </trkpt>
      <trkpt lat="45.84703" lon="1.21167">
        <ele>290.4</ele>
        <time>2024-10-21T07:27:26Z</time>
      </trkpt>
      <trkpt lat="45.84704" lon="1.21166">
        <ele>290.4</ele>
        <time>2024-10-21T07:27:27Z</time>
      </trkpt>
      <trkpt lat="45.84704" lon="1.21166">
        <ele>290.4</ele>
        <time>2024-10-21T07:27:28Z</time>
      </trkpt>
      <trkpt lat="45.84705" lon="1.21165">
        <ele>290.4</ele>
        <time>2024-10-21T07:27:29Z</time>
      </trkpt>
      <trkpt lat="45.84705" lon="1.21163">
        <ele>290.4</ele>
        <time>2024-10-21T07:27:30Z</time>
      </trkpt>
      <trkpt lat="45.84706" lon="1.21162">
        <ele>290.4</ele>
        <time>2024-10-21T07:27:31Z</time>
      </trkpt>
      <trkpt lat="45.84706" lon="1.21161">
        <ele>290.4</ele>
        <time>2024-10-21T07:27:32Z</time>
      </trkpt>
      <trkpt lat="45.84706" lon="1.2116">
        <ele>290.5</ele>
        <time>2024-10-21T07:27:33Z</time>
      </trkpt>
      <trkpt lat="45.84706" lon="1.21159">
        <ele>290.5</ele>
        <time>2024-10-21T07:27:34Z</time>
      </trkpt>
      <trkpt lat="45.84706" lon="1.21159">
        <ele>290.5</ele>
        <time>2024-10-21T07:27:35Z</time>
      </trkpt>
      <trkpt lat="45.84707" lon="1.21159">
        <ele>290.5</ele>
        <time>2024-10-21T07:27:36Z</time>
      </trkpt>
      <trkpt lat="45.84708" lon="1.21158">
        <ele>290.5</ele>
        <time>2024-10-21T07:27:37Z</time>
      </trkpt>
      <trkpt lat="45.84708" lon="1.21157">
        <ele>290.5</ele>
        <time>2024-10-21T07:27:38Z</time>
      </trkpt>
      <trkpt lat="45.84709" lon="1.21156">
        <ele>290.6</ele>
        <time>2024-10-21T07:27:39Z</time>
      </trkpt>
      <trkpt lat="45.8471" lon="1.21155">
        <ele>290.6</ele>
        <time>2024-10-21T07:27:40Z</time>
      </trkpt>
      <trkpt lat="45.84711" lon="1.21154">
        <ele>290.6</ele>
        <time>2024-10-21T07:27:41Z</time>
      </trkpt>
      <trkpt lat="45.84712" lon="1.21152">
        <ele>290.7</ele>
        <time>2024-10-21T07:27:42Z</time>
      </trkpt>
      <trkpt lat="45.84713" lon="1.21148">
        <ele>290.7</ele>
        <time>2024-10-21T07:27:43Z</time>
      </trkpt>
      <trkpt lat="45.84714" lon="1.21147">
        <ele>290.8</ele>
        <time>2024-10-21T07:27:44Z</time>
      </trkpt>
      <trkpt lat="45.84716" lon="1.21144">
        <ele>290.9</ele>
        <time>2024-10-21T07:27:45Z</time>
      </trkpt>
      <trkpt lat="45.84717" lon="1.21143">
        <ele>290.9</ele>
        <time>2024-10-21T07:27:46Z</time>
      </trkpt>
      <trkpt lat="45.84717" lon="1.21141">
        <ele>291</ele>
        <time>2024-10-21T07:27:47Z</time>
      </trkpt>
      <trkpt lat="45.84718" lon="1.2114">
        <ele>291</ele>
        <time>2024-10-21T07:27:48Z</time>
      </trkpt>
      <trkpt lat="45.8472" lon="1.21138">
        <ele>291.1</ele>
        <time>2024-10-21T07:27:49Z</time>
      </trkpt>
      <trkpt lat="45.8472" lon="1.21137">
        <ele>291.2</ele>
        <time>2024-10-21T07:27:50Z</time>
      </trkpt>
      <trkpt lat="45.84721" lon="1.21136">
        <ele>291.2</ele>
        <time>2024-10-21T07:27:51Z</time>
      </trkpt>
      <trkpt lat="45.84722" lon="1.21137">
        <ele>291.3</ele>
        <time>2024-10-21T07:27:52Z</time>
      </trkpt>
      <trkpt lat="45.84723" lon="1.21136">
        <ele>291.3</ele>
        <time>2024-10-21T07:27:53Z</time>
      </trkpt>
      <trkpt lat="45.84724" lon="1.21135">
        <ele>291.4</ele>
        <time>2024-10-21T07:27:54Z</time>
      </trkpt>
      <trkpt lat="45.84726" lon="1.21134">
        <ele>291.5</ele>
        <time>2024-10-21T07:27:55Z</time>
      </trkpt>
      <trkpt lat="45.84726" lon="1.21133">
        <ele>291.5</ele>
        <time>2024-10-21T07:27:56Z</time>
      </trkpt>
      <trkpt lat="45.84727" lon="1.21132">
        <ele>291.6</ele>
        <time>2024-10-21T07:27:57Z</time>
      </trkpt>
      <trkpt lat="45.84727" lon="1.21132">
        <ele>291.6</ele>
        <time>2024-10-21T07:27:58Z</time>
      </trkpt>
      <trkpt lat="45.84727" lon="1.21131">
        <ele>291.6</ele>
        <time>2024-10-21T07:27:59Z</time>
      </trkpt>
      <trkpt lat="45.84728" lon="1.2113">
        <ele>291.7</ele>
        <time>2024-10-21T07:28:00Z</time>
      </trkpt>
      <trkpt lat="45.84729" lon="1.21128">
        <ele>291.8</ele>
        <time>2024-10-21T07:28:01Z</time>
      </trkpt>
      <trkpt lat="45.8473" lon="1.21126">
        <ele>291.9</ele>
        <time>2024-10-21T07:28:02Z</time>
      </trkpt>
      <trkpt lat="45.8473" lon="1.21125">
        <ele>291.9</ele>
        <time>2024-10-21T07:28:03Z</time>
      </trkpt>
      <trkpt lat="45.84731" lon="1.21125">
        <ele>291.9</ele>
        <time>2024-10-21T07:28:04Z</time>
      </trkpt>
      <trkpt lat="45.84731" lon="1.21125">
        <ele>291.9</ele>
        <time>2024-10-21T07:28:05Z</time>
      </trkpt>
      <trkpt lat="45.84732" lon="1.21126">
        <ele>292</ele>
        <time>2024-10-21T07:28:06Z</time>
      </trkpt>
      <trkpt lat="45.84732" lon="1.21126">
        <ele>292</ele>
        <time>2024-10-21T07:28:07Z</time>
      </trkpt>
      <trkpt lat="45.84733" lon="1.21126">
        <ele>292</ele>
        <time>2024-10-21T07:28:08Z</time>
      </trkpt>
      <trkpt lat="45.84733" lon="1.21125">
        <ele>292.1</ele>
        <time>2024-10-21T07:28:09Z</time>
      </trkpt>
      <trkpt lat="45.84733" lon="1.21124">
        <ele>292.1</ele>
        <time>2024-10-21T07:28:10Z</time>
      </trkpt>
      <trkpt lat="45.84734" lon="1.21122">
        <ele>292.1</ele>
        <time>2024-10-21T07:28:11Z</time>
      </trkpt>
      <trkpt lat="45.84734" lon="1.21121">
        <ele>292.2</ele>
        <time>2024-10-21T07:28:12Z</time>
      </trkpt>
      <trkpt lat="45.84735" lon="1.2112">
        <ele>292.2</ele>
        <time>2024-10-21T07:28:13Z</time>
      </trkpt>
      <trkpt lat="45.84735" lon="1.21119">
        <ele>292.2</ele>
        <time>2024-10-21T07:28:14Z</time>
      </trkpt>
      <trkpt lat="45.84736" lon="1.21118">
        <ele>292.3</ele>
        <time>2024-10-21T07:28:15Z</time>
      </trkpt>
      <trkpt lat="45.84737" lon="1.21116">
        <ele>292.3</ele>
        <time>2024-10-21T07:28:16Z</time>
      </trkpt>
      <trkpt lat="45.84738" lon="1.21115">
        <ele>292.4</ele>
        <time>2024-10-21T07:28:17Z</time>
      </trkpt>
      <trkpt lat="45.84739" lon="1.21115">
        <ele>292.4</ele>
        <time>2024-10-21T07:28:18Z</time>
      </trkpt>
      <trkpt lat="45.8474" lon="1.21114">
        <ele>292.4</ele>
        <time>2024-10-21T07:28:19Z</time>
      </trkpt>
      <trkpt lat="45.84741" lon="1.21113">
        <ele>292.5</ele>
        <time>2024-10-21T07:28:20Z</time>
      </trkpt>
      <trkpt lat="45.84743" lon="1.21111">
        <ele>292.5</ele>
        <time>2024-10-21T07:28:21Z</time>
      </trkpt>
      <trkpt lat="45.84744" lon="1.2111">
        <ele>292.6</ele>
        <time>2024-10-21T07:28:22Z</time>
      </trkpt>
      <trkpt lat="45.84745" lon="1.21109">
        <ele>292.6</ele>
        <time>2024-10-21T07:28:23Z</time>
      </trkpt>
      <trkpt lat="45.84746" lon="1.21109">
        <ele>292.6</ele>
        <time>2024-10-21T07:28:24Z</time>
      </trkpt>
      <trkpt lat="45.84747" lon="1.21108">
        <ele>292.6</ele>
        <time>2024-10-21T07:28:25Z</time>
      </trkpt>
      <trkpt lat="45.84748" lon="1.21107">
        <ele>292.7</ele>
        <time>2024-10-21T07:28:26Z</time>
      </trkpt>
      <trkpt lat="45.84749" lon="1.21106">
        <ele>292.7</ele>
        <time>2024-10-21T07:28:27Z</time>
      </trkpt>
      <trkpt lat="45.8475" lon="1.21105">
        <ele>292.7</ele>
        <time>2024-10-21T07:28:28Z</time>
      </trkpt>
      <trkpt lat="45.84751" lon="1.21104">
        <ele>292.8</ele>
        <time>2024-10-21T07:28:29Z</time>
      </trkpt>
      <trkpt lat="45.84752" lon="1.21103">
        <ele>292.8</ele>
        <time>2024-10-21T07:28:30Z</time>
      </trkpt>
      <trkpt lat="45.84754" lon="1.21102">
        <ele>292.9</ele>
        <time>2024-10-21T07:28:31Z</time>
      </trkpt>
      <trkpt lat="45.84755" lon="1.21101">
        <ele>292.9</ele>
        <time>2024-10-21T07:28:32Z</time>
      </trkpt>
      <trkpt lat="45.84756" lon="1.211">
        <ele>292.9</ele>
        <time>2024-10-21T07:28:33Z</time>
      </trkpt>
      <trkpt lat="45.84758" lon="1.21099">
        <ele>293</ele>
        <time>2024-10-21T07:28:34Z</time>
      </trkpt>
      <trkpt lat="45.84759" lon="1.21099">
        <ele>293.1</ele>
        <time>2024-10-21T07:28:36Z</time>
      </trkpt>
      <trkpt lat="45.84761" lon="1.211">
        <ele>293.2</ele>
        <time>2024-10-21T07:28:37Z</time>
      </trkpt>
      <trkpt lat="45.84763" lon="1.211">
        <ele>293.3</ele>
        <time>2024-10-21T07:28:38Z</time>
      </trkpt>
      <trkpt lat="45.84764" lon="1.21101">
        <ele>293.3</ele>
        <time>2024-10-21T07:28:39Z</time>
      </trkpt>
      <trkpt lat="45.84765" lon="1.21101">
        <ele>293.4</ele>
        <time>2024-10-21T07:28:40Z</time>
      </trkpt>
      <trkpt lat="45.84766" lon="1.21101">
        <ele>293.5</ele>
        <time>2024-10-21T07:28:41Z</time>
      </trkpt>
      <trkpt lat="45.84768" lon="1.211">
        <ele>293.6</ele>
        <time>2024-10-21T07:28:42Z</time>
      </trkpt>
      <trkpt lat="45.8477" lon="1.211">
        <ele>293.7</ele>
        <time>2024-10-21T07:28:43Z</time>
      </trkpt>
      <trkpt lat="45.84771" lon="1.21099">
        <ele>293.7</ele>
        <time>2024-10-21T07:28:44Z</time>
      </trkpt>
      <trkpt lat="45.84771" lon="1.21099">
        <ele>293.8</ele>
        <time>2024-10-21T07:28:45Z</time>
      </trkpt>
      <trkpt lat="45.84773" lon="1.21099">
        <ele>293.9</ele>
        <time>2024-10-21T07:28:46Z</time>
      </trkpt>
      <trkpt lat="45.84774" lon="1.21099">
        <ele>294</ele>
        <time>2024-10-21T07:28:47Z</time>
      </trkpt>
      <trkpt lat="45.84774" lon="1.21099">
        <ele>294</ele>
        <time>2024-10-21T07:28:48Z</time>
      </trkpt>
      <trkpt lat="45.84776" lon="1.21099">
        <ele>294.2</ele>
        <time>2024-10-21T07:28:49Z</time>
      </trkpt>
      <trkpt lat="45.84777" lon="1.21098">
        <ele>294.2</ele>
        <time>2024-10-21T07:28:50Z</time>
      </trkpt>
      <trkpt lat="45.84778" lon="1.21098">
        <ele>294.3</ele>
        <time>2024-10-21T07:28:51Z</time>
      </trkpt>
      <trkpt lat="45.84778" lon="1.21098">
        <ele>294.3</ele>
        <time>2024-10-21T07:28:52Z</time>
      </trkpt>
      <trkpt lat="45.84779" lon="1.21098">
        <ele>294.4</ele>
        <time>2024-10-21T07:28:53Z</time>
      </trkpt>
      <trkpt lat="45.8478" lon="1.21097">
        <ele>294.5</ele>
        <time>2024-10-21T07:28:54Z</time>
      </trkpt>
      <trkpt lat="45.84781" lon="1.21097">
        <ele>294.6</ele>
        <time>2024-10-21T07:28:55Z</time>
      </trkpt>
      <trkpt lat="45.84781" lon="1.21097">
        <ele>294.6</ele>
        <time>2024-10-21T07:28:56Z</time>
      </trkpt>
      <trkpt lat="45.84783" lon="1.21097">
        <ele>294.7</ele>
        <time>2024-10-21T07:28:57Z</time>
      </trkpt>
      <trkpt lat="45.84784" lon="1.21097">
        <ele>294.8</ele>
        <time>2024-10-21T07:28:58Z</time>
      </trkpt>
      <trkpt lat="45.84784" lon="1.21097">
        <ele>294.8</ele>
        <time>2024-10-21T07:28:59Z</time>
      </trkpt>
      <trkpt lat="45.84785" lon="1.21097">
        <ele>294.9</ele>
        <time>2024-10-21T07:29:00Z</time>
      </trkpt>
      <trkpt lat="45.84785" lon="1.21097">
        <ele>295</ele>
        <time>2024-10-21T07:29:01Z</time>
      </trkpt>
      <trkpt lat="45.84786" lon="1.21097">
        <ele>295</ele>
        <time>2024-10-21T07:29:02Z</time>
      </trkpt>
      <trkpt lat="45.84786" lon="1.21097">
        <ele>295</ele>
        <time>2024-10-21T07:29:03Z</time>
      </trkpt>
      <trkpt lat="45.84787" lon="1.21097">
        <ele>295.1</ele>
        <time>2024-10-21T07:29:04Z</time>
      </trkpt>
      <trkpt lat="45.84788" lon="1.21095">
        <ele>295.3</ele>
        <time>2024-10-21T07:29:05Z</time>
      </trkpt>
      <trkpt lat="45.84789" lon="1.21094">
        <ele>295.3</ele>
        <time>2024-10-21T07:29:06Z</time>
      </trkpt>
      <trkpt lat="45.8479" lon="1.21093">
        <ele>295.4</ele>
        <time>2024-10-21T07:29:07Z</time>
      </trkpt>
      <trkpt lat="45.84792" lon="1.21092">
        <ele>295.6</ele>
        <time>2024-10-21T07:29:08Z</time>
      </trkpt>
      <trkpt lat="45.84792" lon="1.21091">
        <ele>295.6</ele>
        <time>2024-10-21T07:29:09Z</time>
      </trkpt>
      <trkpt lat="45.84793" lon="1.21091">
        <ele>295.7</ele>
        <time>2024-10-21T07:29:10Z</time>
      </trkpt>
      <trkpt lat="45.84796" lon="1.21093">
        <ele>295.9</ele>
        <time>2024-10-21T07:29:11Z</time>
      </trkpt>
      <trkpt lat="45.84798" lon="1.21094">
        <ele>296</ele>
        <time>2024-10-21T07:29:12Z</time>
      </trkpt>
      <trkpt lat="45.84798" lon="1.21095">
        <ele>296.1</ele>
        <time>2024-10-21T07:29:13Z</time>
      </trkpt>
      <trkpt lat="45.848" lon="1.21095">
        <ele>296.2</ele>
        <time>2024-10-21T07:29:14Z</time>
      </trkpt>
      <trkpt lat="45.84801" lon="1.21095">
        <ele>296.3</ele>
        <time>2024-10-21T07:29:15Z</time>
      </trkpt>
      <trkpt lat="45.84802" lon="1.21095">
        <ele>296.3</ele>
        <time>2024-10-21T07:29:16Z</time>
      </trkpt>
      <trkpt lat="45.84803" lon="1.21096">
        <ele>296.4</ele>
        <time>2024-10-21T07:29:17Z</time>
      </trkpt>
      <trkpt lat="45.84804" lon="1.21096">
        <ele>296.4</ele>
        <time>2024-10-21T07:29:18Z</time>
      </trkpt>
      <trkpt lat="45.84805" lon="1.21096">
        <ele>296.5</ele>
        <time>2024-10-21T07:29:19Z</time>
      </trkpt>
      <trkpt lat="45.84806" lon="1.21096">
        <ele>296.5</ele>
        <time>2024-10-21T07:29:20Z</time>
      </trkpt>
      <trkpt lat="45.84807" lon="1.21096">
        <ele>296.6</ele>
        <time>2024-10-21T07:29:21Z</time>
      </trkpt>
      <trkpt lat="45.84808" lon="1.21096">
        <ele>296.6</ele>
        <time>2024-10-21T07:29:22Z</time>
      </trkpt>
      <trkpt lat="45.84808" lon="1.21093">
        <ele>296.7</ele>
        <time>2024-10-21T07:29:23Z</time>
      </trkpt>
      <trkpt lat="45.84809" lon="1.21091">
        <ele>296.8</ele>
        <time>2024-10-21T07:29:24Z</time>
      </trkpt>
      <trkpt lat="45.84809" lon="1.2109">
        <ele>296.8</ele>
        <time>2024-10-21T07:29:25Z</time>
      </trkpt>
      <trkpt lat="45.8481" lon="1.21088">
        <ele>296.9</ele>
        <time>2024-10-21T07:29:26Z</time>
      </trkpt>
      <trkpt lat="45.84811" lon="1.21087">
        <ele>296.9</ele>
        <time>2024-10-21T07:29:27Z</time>
      </trkpt>
      <trkpt lat="45.84812" lon="1.21086">
        <ele>297</ele>
        <time>2024-10-21T07:29:28Z</time>
      </trkpt>
      <trkpt lat="45.84813" lon="1.21086">
        <ele>297</ele>
        <time>2024-10-21T07:29:29Z</time>
      </trkpt>
      <trkpt lat="45.84814" lon="1.21086">
        <ele>297.1</ele>
        <time>2024-10-21T07:29:30Z</time>
      </trkpt>
      <trkpt lat="45.84816" lon="1.21086">
        <ele>297.1</ele>
        <time>2024-10-21T07:29:31Z</time>
      </trkpt>
      <trkpt lat="45.84817" lon="1.21085">
        <ele>297.2</ele>
        <time>2024-10-21T07:29:32Z</time>
      </trkpt>
      <trkpt lat="45.84818" lon="1.21085">
        <ele>297.2</ele>
        <time>2024-10-21T07:29:33Z</time>
      </trkpt>
      <trkpt lat="45.84819" lon="1.21085">
        <ele>297.3</ele>
        <time>2024-10-21T07:29:34Z</time>
      </trkpt>
      <trkpt lat="45.84821" lon="1.21086">
        <ele>297.3</ele>
        <time>2024-10-21T07:29:35Z</time>
      </trkpt>
      <trkpt lat="45.84821" lon="1.21087">
        <ele>297.4</ele>
        <time>2024-10-21T07:29:36Z</time>
      </trkpt>
      <trkpt lat="45.84821" lon="1.21088">
        <ele>297.4</ele>
        <time>2024-10-21T07:29:37Z</time>
      </trkpt>
      <trkpt lat="45.84821" lon="1.21088">
        <ele>297.4</ele>
        <time>2024-10-21T07:29:38Z</time>
      </trkpt>
      <trkpt lat="45.84821" lon="1.21087">
        <ele>297.4</ele>
        <time>2024-10-21T07:29:39Z</time>
      </trkpt>
      <trkpt lat="45.84822" lon="1.21088">
        <ele>297.4</ele>
        <time>2024-10-21T07:29:40Z</time>
      </trkpt>
      <trkpt lat="45.84822" lon="1.21088">
        <ele>297.4</ele>
        <time>2024-10-21T07:29:41Z</time>
      </trkpt>
      <trkpt lat="45.84822" lon="1.21088">
        <ele>297.4</ele>
        <time>2024-10-21T07:29:42Z</time>
      </trkpt>
      <trkpt lat="45.84822" lon="1.21089">
        <ele>297.4</ele>
        <time>2024-10-21T07:29:43Z</time>
      </trkpt>
      <trkpt lat="45.84823" lon="1.2109">
        <ele>297.5</ele>
        <time>2024-10-21T07:29:44Z</time>
      </trkpt>
      <trkpt lat="45.84824" lon="1.21091">
        <ele>297.5</ele>
        <time>2024-10-21T07:29:45Z</time>
      </trkpt>
      <trkpt lat="45.84824" lon="1.21092">
        <ele>297.5</ele>
        <time>2024-10-21T07:29:46Z</time>
      </trkpt>
      <trkpt lat="45.84825" lon="1.21093">
        <ele>297.6</ele>
        <time>2024-10-21T07:29:47Z</time>
      </trkpt>
      <trkpt lat="45.84828" lon="1.21095">
        <ele>297.7</ele>
        <time>2024-10-21T07:29:48Z</time>
      </trkpt>
      <trkpt lat="45.84828" lon="1.21096">
        <ele>297.7</ele>
        <time>2024-10-21T07:29:49Z</time>
      </trkpt>
      <trkpt lat="45.8483" lon="1.21097">
        <ele>297.8</ele>
        <time>2024-10-21T07:29:50Z</time>
      </trkpt>
      <trkpt lat="45.84831" lon="1.21098">
        <ele>297.8</ele>
        <time>2024-10-21T07:29:51Z</time>
      </trkpt>
      <trkpt lat="45.84834" lon="1.21099">
        <ele>297.9</ele>
        <time>2024-10-21T07:29:52Z</time>
      </trkpt>
      <trkpt lat="45.84834" lon="1.21099">
        <ele>297.9</ele>
        <time>2024-10-21T07:29:53Z</time>
      </trkpt>
      <trkpt lat="45.84835" lon="1.21099">
        <ele>297.9</ele>
        <time>2024-10-21T07:29:54Z</time>
      </trkpt>
      <trkpt lat="45.84837" lon="1.21099">
        <ele>297.9</ele>
        <time>2024-10-21T07:29:55Z</time>
      </trkpt>
      <trkpt lat="45.84839" lon="1.21099">
        <ele>298</ele>
        <time>2024-10-21T07:29:56Z</time>
      </trkpt>
      <trkpt lat="45.8484" lon="1.21099">
        <ele>298</ele>
        <time>2024-10-21T07:29:57Z</time>
      </trkpt>
      <trkpt lat="45.84841" lon="1.21097">
        <ele>298</ele>
        <time>2024-10-21T07:29:58Z</time>
      </trkpt>
      <trkpt lat="45.84841" lon="1.21097">
        <ele>298</ele>
        <time>2024-10-21T07:29:59Z</time>
      </trkpt>
      <trkpt lat="45.84842" lon="1.21097">
        <ele>298</ele>
        <time>2024-10-21T07:30:00Z</time>
      </trkpt>
      <trkpt lat="45.84843" lon="1.21096">
        <ele>298</ele>
        <time>2024-10-21T07:30:01Z</time>
      </trkpt>
      <trkpt lat="45.84844" lon="1.21096">
        <ele>298.1</ele>
        <time>2024-10-21T07:30:02Z</time>
      </trkpt>
      <trkpt lat="45.84844" lon="1.21095">
        <ele>298.1</ele>
        <time>2024-10-21T07:30:03Z</time>
      </trkpt>
      <trkpt lat="45.84843" lon="1.21095">
        <ele>298.1</ele>
        <time>2024-10-21T07:30:04Z</time>
      </trkpt>
      <trkpt lat="45.84843" lon="1.21096">
        <ele>298.1</ele>
        <time>2024-10-21T07:30:05Z</time>
      </trkpt>
      <trkpt lat="45.84842" lon="1.21097">
        <ele>298.1</ele>
        <time>2024-10-21T07:30:06Z</time>
      </trkpt>
      <trkpt lat="45.84842" lon="1.21097">
        <ele>298.1</ele>
        <time>2024-10-21T07:30:08Z</time>
      </trkpt>
      <trkpt lat="45.84841" lon="1.21097">
        <ele>298.1</ele>
        <time>2024-10-21T07:30:09Z</time>
      </trkpt>
      <trkpt lat="45.84842" lon="1.21097">
        <ele>298.1</ele>
        <time>2024-10-21T07:30:10Z</time>
      </trkpt>
      <trkpt lat="45.84842" lon="1.21097">
        <ele>298.1</ele>
        <time>2024-10-21T07:30:11Z</time>
      </trkpt>
      <trkpt lat="45.84842" lon="1.21097">
        <ele>298.1</ele>
        <time>2024-10-21T07:30:12Z</time>
      </trkpt>
      <trkpt lat="45.84842" lon="1.21097">
        <ele>298.1</ele>
        <time>2024-10-21T07:30:13Z</time>
      </trkpt>
      <trkpt lat="45.84843" lon="1.21097">
        <ele>298.1</ele>
        <time>2024-10-21T07:30:14Z</time>
      </trkpt>
      <trkpt lat="45.84843" lon="1.21097">
        <ele>298.1</ele>
        <time>2024-10-21T07:30:15Z</time>
      </trkpt>
      <trkpt lat="45.84843" lon="1.21097">
        <ele>298.1</ele>
        <time>2024-10-21T07:30:16Z</time>
      </trkpt>
      <trkpt lat="45.84843" lon="1.21098">
        <ele>298.1</ele>
        <time>2024-10-21T07:30:17Z</time>
      </trkpt>
      <trkpt lat="45.84843" lon="1.21098">
        <ele>298.1</ele>
        <time>2024-10-21T07:30:18Z</time>
      </trkpt>
      <trkpt lat="45.84844" lon="1.21098">
        <ele>298.1</ele>
        <time>2024-10-21T07:30:19Z</time>
      </trkpt>
      <trkpt lat="45.84844" lon="1.21098">
        <ele>298.1</ele>
        <time>2024-10-21T07:30:20Z</time>
      </trkpt>
      <trkpt lat="45.84844" lon="1.21098">
        <ele>298.1</ele>
        <time>2024-10-21T07:30:21Z</time>
      </trkpt>
      <trkpt lat="45.84844" lon="1.21098">
        <ele>298.1</ele>
        <time>2024-10-21T07:30:22Z</time>
      </trkpt>
      <trkpt lat="45.84845" lon="1.21098">
        <ele>298.1</ele>
        <time>2024-10-21T07:30:23Z</time>
      </trkpt>
      <trkpt lat="45.84845" lon="1.21098">
        <ele>298.1</ele>
        <time>2024-10-21T07:30:24Z</time>
      </trkpt>
      <trkpt lat="45.84845" lon="1.21098">
        <ele>298.1</ele>
        <time>2024-10-21T07:30:25Z</time>
      </trkpt>
      <trkpt lat="45.84844" lon="1.21097">
        <ele>298.1</ele>
        <time>2024-10-21T07:30:26Z</time>
      </trkpt>
      <trkpt lat="45.84844" lon="1.21096">
        <ele>298.1</ele>
        <time>2024-10-21T07:30:27Z</time>
      </trkpt>
      <trkpt lat="45.84846" lon="1.21096">
        <ele>298.1</ele>
        <time>2024-10-21T07:30:28Z</time>
      </trkpt>
      <trkpt lat="45.84848" lon="1.21097">
        <ele>298.1</ele>
        <time>2024-10-21T07:30:29Z</time>
      </trkpt>
      <trkpt lat="45.84849" lon="1.21097">
        <ele>298.1</ele>
        <time>2024-10-21T07:30:30Z</time>
      </trkpt>
      <trkpt lat="45.84848" lon="1.21096">
        <ele>298.1</ele>
        <time>2024-10-21T07:30:31Z</time>
      </trkpt>
      <trkpt lat="45.84849" lon="1.21095">
        <ele>298.1</ele>
        <time>2024-10-21T07:30:32Z</time>
      </trkpt>
      <trkpt lat="45.84849" lon="1.21094">
        <ele>298.1</ele>
        <time>2024-10-21T07:30:33Z</time>
      </trkpt>
      <trkpt lat="45.8485" lon="1.21094">
        <ele>298.1</ele>
        <time>2024-10-21T07:30:34Z</time>
      </trkpt>
      <trkpt lat="45.84853" lon="1.21095">
        <ele>298.1</ele>
        <time>2024-10-21T07:30:35Z</time>
      </trkpt>
      <trkpt lat="45.84854" lon="1.21096">
        <ele>298.1</ele>
        <time>2024-10-21T07:30:36Z</time>
      </trkpt>
      <trkpt lat="45.84856" lon="1.21098">
        <ele>298.1</ele>
        <time>2024-10-21T07:30:37Z</time>
      </trkpt>
      <trkpt lat="45.84858" lon="1.21098">
        <ele>298.1</ele>
        <time>2024-10-21T07:30:38Z</time>
      </trkpt>
      <trkpt lat="45.8486" lon="1.211">
        <ele>298.1</ele>
        <time>2024-10-21T07:30:39Z</time>
      </trkpt>
      <trkpt lat="45.84861" lon="1.21101">
        <ele>298.1</ele>
        <time>2024-10-21T07:30:40Z</time>
      </trkpt>
      <trkpt lat="45.84864" lon="1.21103">
        <ele>298.1</ele>
        <time>2024-10-21T07:30:41Z</time>
      </trkpt>
      <trkpt lat="45.84864" lon="1.21103">
        <ele>298.1</ele>
        <time>2024-10-21T07:30:42Z</time>
      </trkpt>
      <trkpt lat="45.84867" lon="1.21104">
        <ele>298.1</ele>
        <time>2024-10-21T07:30:43Z</time>
      </trkpt>
      <trkpt lat="45.84868" lon="1.21105">
        <ele>298.1</ele>
        <time>2024-10-21T07:30:44Z</time>
      </trkpt>
      <trkpt lat="45.84869" lon="1.21105">
        <ele>298.1</ele>
        <time>2024-10-21T07:30:45Z</time>
      </trkpt>
      <trkpt lat="45.8487" lon="1.21105">
        <ele>298.1</ele>
        <time>2024-10-21T07:30:46Z</time>
      </trkpt>
      <trkpt lat="45.84871" lon="1.21105">
        <ele>298.1</ele>
        <time>2024-10-21T07:30:47Z</time>
      </trkpt>
      <trkpt lat="45.84872" lon="1.21105">
        <ele>298.1</ele>
        <time>2024-10-21T07:30:48Z</time>
      </trkpt>
      <trkpt lat="45.84873" lon="1.21106">
        <ele>298.1</ele>
        <time>2024-10-21T07:30:49Z</time>
      </trkpt>
      <trkpt lat="45.84874" lon="1.21107">
        <ele>298.1</ele>
        <time>2024-10-21T07:30:50Z</time>
      </trkpt>
      <trkpt lat="45.84876" lon="1.21109">
        <ele>298.1</ele>
        <time>2024-10-21T07:30:51Z</time>
      </trkpt>
      <trkpt lat="45.84877" lon="1.2111">
        <ele>298.1</ele>
        <time>2024-10-21T07:30:52Z</time>
      </trkpt>
      <trkpt lat="45.84878" lon="1.21112">
        <ele>298.1</ele>
        <time>2024-10-21T07:30:53Z</time>
      </trkpt>
      <trkpt lat="45.8488" lon="1.21113">
        <ele>298.1</ele>
        <time>2024-10-21T07:30:54Z</time>
      </trkpt>
      <trkpt lat="45.84881" lon="1.21115">
        <ele>298.1</ele>
        <time>2024-10-21T07:30:55Z</time>
      </trkpt>
      <trkpt lat="45.84882" lon="1.21117">
        <ele>298.2</ele>
        <time>2024-10-21T07:30:56Z</time>
      </trkpt>
      <trkpt lat="45.84883" lon="1.21118">
        <ele>298.2</ele>
        <time>2024-10-21T07:30:57Z</time>
      </trkpt>
      <trkpt lat="45.84884" lon="1.21119">
        <ele>298.2</ele>
        <time>2024-10-21T07:30:58Z</time>
      </trkpt>
      <trkpt lat="45.84886" lon="1.2112">
        <ele>298.2</ele>
        <time>2024-10-21T07:30:59Z</time>
      </trkpt>
      <trkpt lat="45.84887" lon="1.21121">
        <ele>298.3</ele>
        <time>2024-10-21T07:31:00Z</time>
      </trkpt>
      <trkpt lat="45.84888" lon="1.21122">
        <ele>298.3</ele>
        <time>2024-10-21T07:31:01Z</time>
      </trkpt>
      <trkpt lat="45.84889" lon="1.21123">
        <ele>298.3</ele>
        <time>2024-10-21T07:31:02Z</time>
      </trkpt>
      <trkpt lat="45.84891" lon="1.21124">
        <ele>298.4</ele>
        <time>2024-10-21T07:31:03Z</time>
      </trkpt>
      <trkpt lat="45.84892" lon="1.21124">
        <ele>298.4</ele>
        <time>2024-10-21T07:31:04Z</time>
      </trkpt>
      <trkpt lat="45.84893" lon="1.21124">
        <ele>298.4</ele>
        <time>2024-10-21T07:31:05Z</time>
      </trkpt>
      <trkpt lat="45.84894" lon="1.21121">
        <ele>298.5</ele>
        <time>2024-10-21T07:31:06Z</time>
      </trkpt>
      <trkpt lat="45.84894" lon="1.2112">
        <ele>298.5</ele>
        <time>2024-10-21T07:31:07Z</time>
      </trkpt>
      <trkpt lat="45.84895" lon="1.21119">
        <ele>298.5</ele>
        <time>2024-10-21T07:31:08Z</time>
      </trkpt>
      <trkpt lat="45.84895" lon="1.21117">
        <ele>298.6</ele>
        <time>2024-10-21T07:31:09Z</time>
      </trkpt>
      <trkpt lat="45.84896" lon="1.21116">
        <ele>298.6</ele>
        <time>2024-10-21T07:31:10Z</time>
      </trkpt>
      <trkpt lat="45.84897" lon="1.21115">
        <ele>298.7</ele>
        <time>2024-10-21T07:31:11Z</time>
      </trkpt>
      <trkpt lat="45.84898" lon="1.21115">
        <ele>298.7</ele>
        <time>2024-10-21T07:31:12Z</time>
      </trkpt>
      <trkpt lat="45.84898" lon="1.21116">
        <ele>298.7</ele>
        <time>2024-10-21T07:31:13Z</time>
      </trkpt>
      <trkpt lat="45.84899" lon="1.21116">
        <ele>298.8</ele>
        <time>2024-10-21T07:31:14Z</time>
      </trkpt>
      <trkpt lat="45.849" lon="1.21117">
        <ele>298.8</ele>
        <time>2024-10-21T07:31:15Z</time>
      </trkpt>
      <trkpt lat="45.849" lon="1.21118">
        <ele>298.8</ele>
        <time>2024-10-21T07:31:16Z</time>
      </trkpt>
      <trkpt lat="45.84901" lon="1.21121">
        <ele>298.9</ele>
        <time>2024-10-21T07:31:17Z</time>
      </trkpt>
      <trkpt lat="45.84901" lon="1.21121">
        <ele>298.9</ele>
        <time>2024-10-21T07:31:18Z</time>
      </trkpt>
      <trkpt lat="45.84901" lon="1.21121">
        <ele>298.9</ele>
        <time>2024-10-21T07:31:19Z</time>
      </trkpt>
      <trkpt lat="45.84901" lon="1.21122">
        <ele>299</ele>
        <time>2024-10-21T07:31:20Z</time>
      </trkpt>
      <trkpt lat="45.84902" lon="1.21123">
        <ele>299</ele>
        <time>2024-10-21T07:31:21Z</time>
      </trkpt>
      <trkpt lat="45.84902" lon="1.21124">
        <ele>299</ele>
        <time>2024-10-21T07:31:22Z</time>
      </trkpt>
      <trkpt lat="45.84903" lon="1.21123">
        <ele>299.1</ele>
        <time>2024-10-21T07:31:23Z</time>
      </trkpt>
      <trkpt lat="45.84903" lon="1.21123">
        <ele>299.1</ele>
        <time>2024-10-21T07:31:24Z</time>
      </trkpt>
      <trkpt lat="45.84904" lon="1.21122">
        <ele>299.2</ele>
        <time>2024-10-21T07:31:25Z</time>
      </trkpt>
      <trkpt lat="45.84905" lon="1.21122">
        <ele>299.2</ele>
        <time>2024-10-21T07:31:26Z</time>
      </trkpt>
      <trkpt lat="45.84908" lon="1.21122">
        <ele>299.3</ele>
        <time>2024-10-21T07:31:27Z</time>
      </trkpt>
      <trkpt lat="45.84908" lon="1.21122">
        <ele>299.3</ele>
        <time>2024-10-21T07:31:28Z</time>
      </trkpt>
      <trkpt lat="45.84909" lon="1.21123">
        <ele>299.4</ele>
        <time>2024-10-21T07:31:29Z</time>
      </trkpt>
      <trkpt lat="45.8491" lon="1.21123">
        <ele>299.5</ele>
        <time>2024-10-21T07:31:30Z</time>
      </trkpt>
      <trkpt lat="45.84912" lon="1.21123">
        <ele>299.6</ele>
        <time>2024-10-21T07:31:31Z</time>
      </trkpt>
      <trkpt lat="45.84913" lon="1.21122">
        <ele>299.7</ele>
        <time>2024-10-21T07:31:32Z</time>
      </trkpt>
      <trkpt lat="45.84914" lon="1.21122">
        <ele>299.7</ele>
        <time>2024-10-21T07:31:33Z</time>
      </trkpt>
      <trkpt lat="45.84916" lon="1.21122">
        <ele>299.8</ele>
        <time>2024-10-21T07:31:34Z</time>
      </trkpt>
      <trkpt lat="45.84917" lon="1.21122">
        <ele>299.9</ele>
        <time>2024-10-21T07:31:35Z</time>
      </trkpt>
      <trkpt lat="45.84918" lon="1.21121">
        <ele>299.9</ele>
        <time>2024-10-21T07:31:36Z</time>
      </trkpt>
      <trkpt lat="45.84919" lon="1.21122">
        <ele>300</ele>
        <time>2024-10-21T07:31:37Z</time>
      </trkpt>
      <trkpt lat="45.84921" lon="1.21123">
        <ele>300.1</ele>
        <time>2024-10-21T07:31:38Z</time>
      </trkpt>
      <trkpt lat="45.84922" lon="1.21123">
        <ele>300.1</ele>
        <time>2024-10-21T07:31:39Z</time>
      </trkpt>
      <trkpt lat="45.84922" lon="1.21123">
        <ele>300.1</ele>
        <time>2024-10-21T07:31:40Z</time>
      </trkpt>
      <trkpt lat="45.84922" lon="1.21122">
        <ele>300.1</ele>
        <time>2024-10-21T07:31:41Z</time>
      </trkpt>
      <trkpt lat="45.84922" lon="1.21122">
        <ele>300.2</ele>
        <time>2024-10-21T07:31:42Z</time>
      </trkpt>
      <trkpt lat="45.84921" lon="1.21122">
        <ele>300.2</ele>
        <time>2024-10-21T07:31:43Z</time>
      </trkpt>
      <trkpt lat="45.84921" lon="1.21123">
        <ele>300.2</ele>
        <time>2024-10-21T07:31:44Z</time>
      </trkpt>
      <trkpt lat="45.84921" lon="1.21124">
        <ele>300.2</ele>
        <time>2024-10-21T07:31:45Z</time>
      </trkpt>
      <trkpt lat="45.84921" lon="1.21125">
        <ele>300.3</ele>
        <time>2024-10-21T07:31:46Z</time>
      </trkpt>
      <trkpt lat="45.84921" lon="1.21125">
        <ele>300.3</ele>
        <time>2024-10-21T07:31:47Z</time>
      </trkpt>
      <trkpt lat="45.84921" lon="1.21126">
        <ele>300.3</ele>
        <time>2024-10-21T07:31:48Z</time>
      </trkpt>
      <trkpt lat="45.84922" lon="1.21127">
        <ele>300.3</ele>
        <time>2024-10-21T07:31:49Z</time>
      </trkpt>
      <trkpt lat="45.84922" lon="1.21127">
        <ele>300.3</ele>
        <time>2024-10-21T07:31:50Z</time>
      </trkpt>
      <trkpt lat="45.84923" lon="1.21127">
        <ele>300.4</ele>
        <time>2024-10-21T07:31:51Z</time>
      </trkpt>
      <trkpt lat="45.84925" lon="1.21127">
        <ele>300.4</ele>
        <time>2024-10-21T07:31:52Z</time>
      </trkpt>
      <trkpt lat="45.84928" lon="1.21128">
        <ele>300.5</ele>
        <time>2024-10-21T07:31:53Z</time>
      </trkpt>
      <trkpt lat="45.84929" lon="1.21128">
        <ele>300.5</ele>
        <time>2024-10-21T07:31:54Z</time>
      </trkpt>
      <trkpt lat="45.84931" lon="1.21128">
        <ele>300.6</ele>
        <time>2024-10-21T07:31:55Z</time>
      </trkpt>
      <trkpt lat="45.84932" lon="1.21128">
        <ele>300.6</ele>
        <time>2024-10-21T07:31:56Z</time>
      </trkpt>
      <trkpt lat="45.84932" lon="1.21128">
        <ele>300.6</ele>
        <time>2024-10-21T07:31:57Z</time>
      </trkpt>
      <trkpt lat="45.84934" lon="1.21127">
        <ele>300.6</ele>
        <time>2024-10-21T07:31:58Z</time>
      </trkpt>
      <trkpt lat="45.84935" lon="1.21126">
        <ele>300.6</ele>
        <time>2024-10-21T07:31:59Z</time>
      </trkpt>
      <trkpt lat="45.84936" lon="1.21126">
        <ele>300.6</ele>
        <time>2024-10-21T07:32:00Z</time>
      </trkpt>
      <trkpt lat="45.84937" lon="1.21126">
        <ele>300.6</ele>
        <time>2024-10-21T07:32:01Z</time>
      </trkpt>
      <trkpt lat="45.84938" lon="1.21126">
        <ele>300.6</ele>
        <time>2024-10-21T07:32:02Z</time>
      </trkpt>
      <trkpt lat="45.8494" lon="1.21125">
        <ele>300.6</ele>
        <time>2024-10-21T07:32:03Z</time>
      </trkpt>
      <trkpt lat="45.84941" lon="1.21125">
        <ele>300.5</ele>
        <time>2024-10-21T07:32:04Z</time>
      </trkpt>
      <trkpt lat="45.84944" lon="1.21124">
        <ele>300.5</ele>
        <time>2024-10-21T07:32:06Z</time>
      </trkpt>
      <trkpt lat="45.84945" lon="1.21124">
        <ele>300.5</ele>
        <time>2024-10-21T07:32:07Z</time>
      </trkpt>
      <trkpt lat="45.84945" lon="1.21124">
        <ele>300.5</ele>
        <time>2024-10-21T07:32:08Z</time>
      </trkpt>
      <trkpt lat="45.84946" lon="1.21125">
        <ele>300.5</ele>
        <time>2024-10-21T07:32:09Z</time>
      </trkpt>
      <trkpt lat="45.84946" lon="1.21127">
        <ele>300.5</ele>
        <time>2024-10-21T07:32:10Z</time>
      </trkpt>
      <trkpt lat="45.84946" lon="1.21127">
        <ele>300.5</ele>
        <time>2024-10-21T07:32:11Z</time>
      </trkpt>
      <trkpt lat="45.84946" lon="1.21126">
        <ele>300.5</ele>
        <time>2024-10-21T07:32:12Z</time>
      </trkpt>
      <trkpt lat="45.84946" lon="1.21125">
        <ele>300.5</ele>
        <time>2024-10-21T07:32:13Z</time>
      </trkpt>
      <trkpt lat="45.84947" lon="1.21125">
        <ele>300.4</ele>
        <time>2024-10-21T07:32:14Z</time>
      </trkpt>
      <trkpt lat="45.84948" lon="1.21126">
        <ele>300.4</ele>
        <time>2024-10-21T07:32:15Z</time>
      </trkpt>
      <trkpt lat="45.84949" lon="1.21127">
        <ele>300.4</ele>
        <time>2024-10-21T07:32:16Z</time>
      </trkpt>
      <trkpt lat="45.84952" lon="1.21129">
        <ele>300.4</ele>
        <time>2024-10-21T07:32:17Z</time>
      </trkpt>
      <trkpt lat="45.84952" lon="1.21129">
        <ele>300.4</ele>
        <time>2024-10-21T07:32:18Z</time>
      </trkpt>
      <trkpt lat="45.84953" lon="1.2113">
        <ele>300.4</ele>
        <time>2024-10-21T07:32:19Z</time>
      </trkpt>
      <trkpt lat="45.84954" lon="1.2113">
        <ele>300.4</ele>
        <time>2024-10-21T07:32:20Z</time>
      </trkpt>
      <trkpt lat="45.84955" lon="1.21129">
        <ele>300.4</ele>
        <time>2024-10-21T07:32:21Z</time>
      </trkpt>
      <trkpt lat="45.84956" lon="1.21128">
        <ele>300.4</ele>
        <time>2024-10-21T07:32:22Z</time>
      </trkpt>
      <trkpt lat="45.84958" lon="1.21126">
        <ele>300.4</ele>
        <time>2024-10-21T07:32:23Z</time>
      </trkpt>
      <trkpt lat="45.84959" lon="1.21126">
        <ele>300.4</ele>
        <time>2024-10-21T07:32:24Z</time>
      </trkpt>
      <trkpt lat="45.8496" lon="1.21125">
        <ele>300.4</ele>
        <time>2024-10-21T07:32:25Z</time>
      </trkpt>
      <trkpt lat="45.84962" lon="1.21125">
        <ele>300.4</ele>
        <time>2024-10-21T07:32:26Z</time>
      </trkpt>
      <trkpt lat="45.84962" lon="1.21125">
        <ele>300.4</ele>
        <time>2024-10-21T07:32:27Z</time>
      </trkpt>
      <trkpt lat="45.84963" lon="1.21125">
        <ele>300.4</ele>
        <time>2024-10-21T07:32:28Z</time>
      </trkpt>
      <trkpt lat="45.84964" lon="1.21125">
        <ele>300.4</ele>
        <time>2024-10-21T07:32:29Z</time>
      </trkpt>
      <trkpt lat="45.84966" lon="1.21124">
        <ele>300.5</ele>
        <time>2024-10-21T07:32:30Z</time>
      </trkpt>
      <trkpt lat="45.84968" lon="1.21124">
        <ele>300.5</ele>
        <time>2024-10-21T07:32:32Z</time>
      </trkpt>
      <trkpt lat="45.84969" lon="1.21126">
        <ele>300.5</ele>
        <time>2024-10-21T07:32:33Z</time>
      </trkpt>
      <trkpt lat="45.84969" lon="1.21126">
        <ele>300.5</ele>
        <time>2024-10-21T07:32:34Z</time>
      </trkpt>
      <trkpt lat="45.8497" lon="1.21126">
        <ele>300.5</ele>
        <time>2024-10-21T07:32:35Z</time>
      </trkpt>
      <trkpt lat="45.84971" lon="1.21127">
        <ele>300.6</ele>
        <time>2024-10-21T07:32:36Z</time>
      </trkpt>
      <trkpt lat="45.84972" lon="1.21127">
        <ele>300.6</ele>
        <time>2024-10-21T07:32:37Z</time>
      </trkpt>
      <trkpt lat="45.84974" lon="1.21128">
        <ele>300.6</ele>
        <time>2024-10-21T07:32:38Z</time>
      </trkpt>
      <trkpt lat="45.84974" lon="1.21128">
        <ele>300.6</ele>
        <time>2024-10-21T07:32:39Z</time>
      </trkpt>
      <trkpt lat="45.84975" lon="1.21129">
        <ele>300.6</ele>
        <time>2024-10-21T07:32:40Z</time>
      </trkpt>
      <trkpt lat="45.84975" lon="1.21129">
        <ele>300.6</ele>
        <time>2024-10-21T07:32:41Z</time>
      </trkpt>
      <trkpt lat="45.84976" lon="1.21129">
        <ele>300.6</ele>
        <time>2024-10-21T07:32:42Z</time>
      </trkpt>
      <trkpt lat="45.84976" lon="1.21129">
        <ele>300.7</ele>
        <time>2024-10-21T07:32:43Z</time>
      </trkpt>
      <trkpt lat="45.84976" lon="1.21129">
        <ele>300.7</ele>
        <time>2024-10-21T07:32:44Z</time>
      </trkpt>
      <trkpt lat="45.84977" lon="1.21129">
        <ele>300.7</ele>
        <time>2024-10-21T07:32:45Z</time>
      </trkpt>
      <trkpt lat="45.84977" lon="1.21129">
        <ele>300.7</ele>
        <time>2024-10-21T07:32:46Z</time>
      </trkpt>
      <trkpt lat="45.84978" lon="1.2113">
        <ele>300.7</ele>
        <time>2024-10-21T07:32:47Z</time>
      </trkpt>
      <trkpt lat="45.84979" lon="1.2113">
        <ele>300.8</ele>
        <time>2024-10-21T07:32:48Z</time>
      </trkpt>
      <trkpt lat="45.84981" lon="1.21131">
        <ele>300.8</ele>
        <time>2024-10-21T07:32:49Z</time>
      </trkpt>
      <trkpt lat="45.84982" lon="1.21131">
        <ele>300.8</ele>
        <time>2024-10-21T07:32:50Z</time>
      </trkpt>
      <trkpt lat="45.84982" lon="1.21131">
        <ele>300.9</ele>
        <time>2024-10-21T07:32:51Z</time>
      </trkpt>
      <trkpt lat="45.84983" lon="1.21131">
        <ele>300.9</ele>
        <time>2024-10-21T07:32:52Z</time>
      </trkpt>
      <trkpt lat="45.84984" lon="1.21131">
        <ele>300.9</ele>
        <time>2024-10-21T07:32:53Z</time>
      </trkpt>
      <trkpt lat="45.84985" lon="1.21131">
        <ele>301</ele>
        <time>2024-10-21T07:32:54Z</time>
      </trkpt>
      <trkpt lat="45.84986" lon="1.2113">
        <ele>301</ele>
        <time>2024-10-21T07:32:55Z</time>
      </trkpt>
      <trkpt lat="45.84987" lon="1.2113">
        <ele>301</ele>
        <time>2024-10-21T07:32:56Z</time>
      </trkpt>
      <trkpt lat="45.84989" lon="1.21129">
        <ele>301.1</ele>
        <time>2024-10-21T07:32:57Z</time>
      </trkpt>
      <trkpt lat="45.84989" lon="1.21129">
        <ele>301.1</ele>
        <time>2024-10-21T07:32:58Z</time>
      </trkpt>
      <trkpt lat="45.8499" lon="1.21129">
        <ele>301.1</ele>
        <time>2024-10-21T07:32:59Z</time>
      </trkpt>
      <trkpt lat="45.8499" lon="1.21128">
        <ele>301.2</ele>
        <time>2024-10-21T07:33:00Z</time>
      </trkpt>
      <trkpt lat="45.84991" lon="1.21128">
        <ele>301.2</ele>
        <time>2024-10-21T07:33:01Z</time>
      </trkpt>
      <trkpt lat="45.84992" lon="1.21129">
        <ele>301.2</ele>
        <time>2024-10-21T07:33:02Z</time>
      </trkpt>
      <trkpt lat="45.84992" lon="1.2113">
        <ele>301.3</ele>
        <time>2024-10-21T07:33:03Z</time>
      </trkpt>
      <trkpt lat="45.84993" lon="1.2113">
        <ele>301.3</ele>
        <time>2024-10-21T07:33:04Z</time>
      </trkpt>
      <trkpt lat="45.84992" lon="1.21131">
        <ele>301.3</ele>
        <time>2024-10-21T07:33:05Z</time>
      </trkpt>
      <trkpt lat="45.84993" lon="1.21132">
        <ele>301.3</ele>
        <time>2024-10-21T07:33:06Z</time>
      </trkpt>
      <trkpt lat="45.84993" lon="1.21134">
        <ele>301.4</ele>
        <time>2024-10-21T07:33:07Z</time>
      </trkpt>
      <trkpt lat="45.84995" lon="1.21135">
        <ele>301.5</ele>
        <time>2024-10-21T07:33:08Z</time>
      </trkpt>
      <trkpt lat="45.84994" lon="1.21136">
        <ele>301.5</ele>
        <time>2024-10-21T07:33:09Z</time>
      </trkpt>
      <trkpt lat="45.84995" lon="1.21137">
        <ele>301.5</ele>
        <time>2024-10-21T07:33:10Z</time>
      </trkpt>
      <trkpt lat="45.84996" lon="1.21138">
        <ele>301.6</ele>
        <time>2024-10-21T07:33:11Z</time>
      </trkpt>
      <trkpt lat="45.84997" lon="1.21137">
        <ele>301.6</ele>
        <time>2024-10-21T07:33:12Z</time>
      </trkpt>
      <trkpt lat="45.84998" lon="1.21137">
        <ele>301.7</ele>
        <time>2024-10-21T07:33:13Z</time>
      </trkpt>
      <trkpt lat="45.84998" lon="1.21136">
        <ele>301.7</ele>
        <time>2024-10-21T07:33:14Z</time>
      </trkpt>
      <trkpt lat="45.84997" lon="1.21134">
        <ele>301.8</ele>
        <time>2024-10-21T07:33:15Z</time>
      </trkpt>
      <trkpt lat="45.84996" lon="1.21134">
        <ele>301.8</ele>
        <time>2024-10-21T07:33:16Z</time>
      </trkpt>
      <trkpt lat="45.84996" lon="1.21134">
        <ele>301.8</ele>
        <time>2024-10-21T07:33:17Z</time>
      </trkpt>
      <trkpt lat="45.84996" lon="1.21134">
        <ele>301.8</ele>
        <time>2024-10-21T07:33:18Z</time>
      </trkpt>
      <trkpt lat="45.84996" lon="1.21134">
        <ele>301.8</ele>
        <time>2024-10-21T07:33:19Z</time>
      </trkpt>
      <trkpt lat="45.84996" lon="1.21134">
        <ele>301.9</ele>
        <time>2024-10-21T07:33:20Z</time>
      </trkpt>
      <trkpt lat="45.84996" lon="1.21134">
        <ele>301.9</ele>
        <time>2024-10-21T07:33:21Z</time>
      </trkpt>
      <trkpt lat="45.84997" lon="1.21133">
        <ele>301.9</ele>
        <time>2024-10-21T07:33:22Z</time>
      </trkpt>
      <trkpt lat="45.84997" lon="1.21133">
        <ele>301.9</ele>
        <time>2024-10-21T07:33:23Z</time>
      </trkpt>
      <trkpt lat="45.84997" lon="1.21133">
        <ele>301.9</ele>
        <time>2024-10-21T07:33:24Z</time>
      </trkpt>
      <trkpt lat="45.84997" lon="1.21133">
        <ele>301.9</ele>
        <time>2024-10-21T07:33:25Z</time>
      </trkpt>
      <trkpt lat="45.84997" lon="1.21133">
        <ele>301.9</ele>
        <time>2024-10-21T07:33:26Z</time>
      </trkpt>
      <trkpt lat="45.84998" lon="1.21133">
        <ele>301.9</ele>
        <time>2024-10-21T07:33:27Z</time>
      </trkpt>
      <trkpt lat="45.84998" lon="1.21133">
        <ele>301.9</ele>
        <time>2024-10-21T07:33:28Z</time>
      </trkpt>
      <trkpt lat="45.84998" lon="1.21133">
        <ele>301.9</ele>
        <time>2024-10-21T07:33:29Z</time>
      </trkpt>
      <trkpt lat="45.84998" lon="1.21133">
        <ele>301.9</ele>
        <time>2024-10-21T07:33:30Z</time>
      </trkpt>
      <trkpt lat="45.84998" lon="1.21133">
        <ele>301.9</ele>
        <time>2024-10-21T07:33:31Z</time>
      </trkpt>
      <trkpt lat="45.84998" lon="1.21133">
        <ele>302</ele>
        <time>2024-10-21T07:33:32Z</time>
      </trkpt>
      <trkpt lat="45.84999" lon="1.21133">
        <ele>302</ele>
        <time>2024-10-21T07:33:33Z</time>
      </trkpt>
      <trkpt lat="45.84999" lon="1.21133">
        <ele>302</ele>
        <time>2024-10-21T07:33:34Z</time>
      </trkpt>
      <trkpt lat="45.84999" lon="1.21133">
        <ele>302</ele>
        <time>2024-10-21T07:33:35Z</time>
      </trkpt>
      <trkpt lat="45.84999" lon="1.21132">
        <ele>302</ele>
        <time>2024-10-21T07:33:36Z</time>
      </trkpt>
      <trkpt lat="45.84999" lon="1.21132">
        <ele>302</ele>
        <time>2024-10-21T07:33:37Z</time>
      </trkpt>
      <trkpt lat="45.85" lon="1.21132">
        <ele>302</ele>
        <time>2024-10-21T07:33:38Z</time>
      </trkpt>
      <trkpt lat="45.85" lon="1.21132">
        <ele>302</ele>
        <time>2024-10-21T07:33:39Z</time>
      </trkpt>
      <trkpt lat="45.85001" lon="1.21132">
        <ele>302.1</ele>
        <time>2024-10-21T07:33:40Z</time>
      </trkpt>
      <trkpt lat="45.85003" lon="1.21131">
        <ele>302.1</ele>
        <time>2024-10-21T07:33:41Z</time>
      </trkpt>
      <trkpt lat="45.85003" lon="1.21129">
        <ele>302.2</ele>
        <time>2024-10-21T07:33:42Z</time>
      </trkpt>
      <trkpt lat="45.85002" lon="1.21129">
        <ele>302.2</ele>
        <time>2024-10-21T07:33:43Z</time>
      </trkpt>
      <trkpt lat="45.85002" lon="1.21128">
        <ele>302.2</ele>
        <time>2024-10-21T07:33:44Z</time>
      </trkpt>
      <trkpt lat="45.85001" lon="1.21128">
        <ele>302.2</ele>
        <time>2024-10-21T07:33:45Z</time>
      </trkpt>
      <trkpt lat="45.85001" lon="1.21128">
        <ele>302.2</ele>
        <time>2024-10-21T07:33:46Z</time>
      </trkpt>
      <trkpt lat="45.85001" lon="1.21129">
        <ele>302.2</ele>
        <time>2024-10-21T07:33:47Z</time>
      </trkpt>
      <trkpt lat="45.85002" lon="1.21129">
        <ele>302.3</ele>
        <time>2024-10-21T07:33:48Z</time>
      </trkpt>
      <trkpt lat="45.85002" lon="1.2113">
        <ele>302.3</ele>
        <time>2024-10-21T07:33:49Z</time>
      </trkpt>
      <trkpt lat="45.85002" lon="1.2113">
        <ele>302.3</ele>
        <time>2024-10-21T07:33:50Z</time>
      </trkpt>
      <trkpt lat="45.85002" lon="1.2113">
        <ele>302.3</ele>
        <time>2024-10-21T07:33:52Z</time>
      </trkpt>
      <trkpt lat="45.85003" lon="1.21129">
        <ele>302.3</ele>
        <time>2024-10-21T07:33:53Z</time>
      </trkpt>
      <trkpt lat="45.85003" lon="1.21128">
        <ele>302.3</ele>
        <time>2024-10-21T07:33:54Z</time>
      </trkpt>
      <trkpt lat="45.85003" lon="1.21129">
        <ele>302.3</ele>
        <time>2024-10-21T07:33:55Z</time>
      </trkpt>
      <trkpt lat="45.85004" lon="1.21129">
        <ele>302.4</ele>
        <time>2024-10-21T07:33:56Z</time>
      </trkpt>
      <trkpt lat="45.85004" lon="1.21129">
        <ele>302.4</ele>
        <time>2024-10-21T07:33:57Z</time>
      </trkpt>
      <trkpt lat="45.85004" lon="1.2113">
        <ele>302.4</ele>
        <time>2024-10-21T07:33:58Z</time>
      </trkpt>
      <trkpt lat="45.85004" lon="1.2113">
        <ele>302.4</ele>
        <time>2024-10-21T07:33:59Z</time>
      </trkpt>
      <trkpt lat="45.85005" lon="1.2113">
        <ele>302.4</ele>
        <time>2024-10-21T07:34:00Z</time>
      </trkpt>
      <trkpt lat="45.85005" lon="1.2113">
        <ele>302.4</ele>
        <time>2024-10-21T07:34:01Z</time>
      </trkpt>
      <trkpt lat="45.85005" lon="1.2113">
        <ele>302.4</ele>
        <time>2024-10-21T07:34:02Z</time>
      </trkpt>
      <trkpt lat="45.85005" lon="1.2113">
        <ele>302.4</ele>
        <time>2024-10-21T07:34:03Z</time>
      </trkpt>
      <trkpt lat="45.85006" lon="1.21129">
        <ele>302.4</ele>
        <time>2024-10-21T07:34:04Z</time>
      </trkpt>
      <trkpt lat="45.85006" lon="1.2113">
        <ele>302.4</ele>
        <time>2024-10-21T07:34:05Z</time>
      </trkpt>
      <trkpt lat="45.85006" lon="1.2113">
        <ele>302.5</ele>
        <time>2024-10-21T07:34:06Z</time>
      </trkpt>
      <trkpt lat="45.85006" lon="1.2113">
        <ele>302.5</ele>
        <time>2024-10-21T07:34:07Z</time>
      </trkpt>
      <trkpt lat="45.85005" lon="1.2113">
        <ele>302.5</ele>
        <time>2024-10-21T07:34:08Z</time>
      </trkpt>
      <trkpt lat="45.85005" lon="1.2113">
        <ele>302.5</ele>
        <time>2024-10-21T07:34:09Z</time>
      </trkpt>
      <trkpt lat="45.85005" lon="1.2113">
        <ele>302.5</ele>
        <time>2024-10-21T07:34:10Z</time>
      </trkpt>
      <trkpt lat="45.85005" lon="1.2113">
        <ele>302.5</ele>
        <time>2024-10-21T07:34:11Z</time>
      </trkpt>
      <trkpt lat="45.85005" lon="1.2113">
        <ele>302.5</ele>
        <time>2024-10-21T07:34:12Z</time>
      </trkpt>
      <trkpt lat="45.85005" lon="1.2113">
        <ele>302.5</ele>
        <time>2024-10-21T07:34:13Z</time>
      </trkpt>
      <trkpt lat="45.85005" lon="1.2113">
        <ele>302.5</ele>
        <time>2024-10-21T07:34:14Z</time>
      </trkpt>
      <trkpt lat="45.85005" lon="1.21129">
        <ele>302.5</ele>
        <time>2024-10-21T07:34:15Z</time>
      </trkpt>
      <trkpt lat="45.85005" lon="1.21129">
        <ele>302.5</ele>
        <time>2024-10-21T07:34:16Z</time>
      </trkpt>
      <trkpt lat="45.85005" lon="1.21129">
        <ele>302.5</ele>
        <time>2024-10-21T07:34:17Z</time>
      </trkpt>
      <trkpt lat="45.85005" lon="1.21129">
        <ele>302.5</ele>
        <time>2024-10-21T07:34:18Z</time>
      </trkpt>
      <trkpt lat="45.85005" lon="1.21129">
        <ele>302.5</ele>
        <time>2024-10-21T07:34:19Z</time>
      </trkpt>
      <trkpt lat="45.85005" lon="1.21129">
        <ele>302.5</ele>
        <time>2024-10-21T07:34:20Z</time>
      </trkpt>
      <trkpt lat="45.85005" lon="1.21129">
        <ele>302.5</ele>
        <time>2024-10-21T07:34:21Z</time>
      </trkpt>
      <trkpt lat="45.85005" lon="1.21129">
        <ele>302.5</ele>
        <time>2024-10-21T07:34:22Z</time>
      </trkpt>
      <trkpt lat="45.85005" lon="1.21128">
        <ele>302.5</ele>
        <time>2024-10-21T07:34:23Z</time>
      </trkpt>
      <trkpt lat="45.85005" lon="1.21128">
        <ele>302.5</ele>
        <time>2024-10-21T07:34:24Z</time>
      </trkpt>
      <trkpt lat="45.85005" lon="1.21128">
        <ele>302.5</ele>
        <time>2024-10-21T07:34:26Z</time>
      </trkpt>
      <trkpt lat="45.85006" lon="1.21128">
        <ele>302.5</ele>
        <time>2024-10-21T07:34:27Z</time>
      </trkpt>
      <trkpt lat="45.85006" lon="1.21128">
        <ele>302.5</ele>
        <time>2024-10-21T07:34:28Z</time>
      </trkpt>
      <trkpt lat="45.85006" lon="1.21128">
        <ele>302.5</ele>
        <time>2024-10-21T07:34:29Z</time>
      </trkpt>
      <trkpt lat="45.85006" lon="1.21127">
        <ele>302.5</ele>
        <time>2024-10-21T07:34:30Z</time>
      </trkpt>
      <trkpt lat="45.85006" lon="1.21127">
        <ele>302.5</ele>
        <time>2024-10-21T07:34:32Z</time>
      </trkpt>
      <trkpt lat="45.85006" lon="1.21127">
        <ele>302.5</ele>
        <time>2024-10-21T07:34:33Z</time>
      </trkpt>
      <trkpt lat="45.85006" lon="1.21127">
        <ele>302.6</ele>
        <time>2024-10-21T07:34:34Z</time>
      </trkpt>
      <trkpt lat="45.85006" lon="1.21128">
        <ele>302.6</ele>
        <time>2024-10-21T07:34:35Z</time>
      </trkpt>
      <trkpt lat="45.85007" lon="1.21128">
        <ele>302.6</ele>
        <time>2024-10-21T07:34:36Z</time>
      </trkpt>
      <trkpt lat="45.85007" lon="1.21128">
        <ele>302.6</ele>
        <time>2024-10-21T07:34:37Z</time>
      </trkpt>
      <trkpt lat="45.85008" lon="1.21127">
        <ele>302.6</ele>
        <time>2024-10-21T07:34:38Z</time>
      </trkpt>
      <trkpt lat="45.85009" lon="1.21127">
        <ele>302.7</ele>
        <time>2024-10-21T07:34:39Z</time>
      </trkpt>
      <trkpt lat="45.8501" lon="1.21126">
        <ele>302.7</ele>
        <time>2024-10-21T07:34:40Z</time>
      </trkpt>
      <trkpt lat="45.85011" lon="1.21126">
        <ele>302.7</ele>
        <time>2024-10-21T07:34:41Z</time>
      </trkpt>
      <trkpt lat="45.85012" lon="1.21126">
        <ele>302.8</ele>
        <time>2024-10-21T07:34:42Z</time>
      </trkpt>
      <trkpt lat="45.85013" lon="1.21124">
        <ele>302.8</ele>
        <time>2024-10-21T07:34:43Z</time>
      </trkpt>
      <trkpt lat="45.85013" lon="1.21123">
        <ele>302.8</ele>
        <time>2024-10-21T07:34:44Z</time>
      </trkpt>
      <trkpt lat="45.85014" lon="1.21122">
        <ele>302.9</ele>
        <time>2024-10-21T07:34:45Z</time>
      </trkpt>
      <trkpt lat="45.85015" lon="1.21122">
        <ele>302.9</ele>
        <time>2024-10-21T07:34:46Z</time>
      </trkpt>
      <trkpt lat="45.85016" lon="1.21122">
        <ele>302.9</ele>
        <time>2024-10-21T07:34:47Z</time>
      </trkpt>
      <trkpt lat="45.85018" lon="1.21121">
        <ele>303</ele>
        <time>2024-10-21T07:34:48Z</time>
      </trkpt>
      <trkpt lat="45.85019" lon="1.21121">
        <ele>303.1</ele>
        <time>2024-10-21T07:34:49Z</time>
      </trkpt>
      <trkpt lat="45.85021" lon="1.21121">
        <ele>303.1</ele>
        <time>2024-10-21T07:34:50Z</time>
      </trkpt>
      <trkpt lat="45.85021" lon="1.21121">
        <ele>303.1</ele>
        <time>2024-10-21T07:34:51Z</time>
      </trkpt>
      <trkpt lat="45.85021" lon="1.21121">
        <ele>303.1</ele>
        <time>2024-10-21T07:34:52Z</time>
      </trkpt>
      <trkpt lat="45.85021" lon="1.21121">
        <ele>303.1</ele>
        <time>2024-10-21T07:34:53Z</time>
      </trkpt>
      <trkpt lat="45.85021" lon="1.21122">
        <ele>303.1</ele>
        <time>2024-10-21T07:34:54Z</time>
      </trkpt>
      <trkpt lat="45.85021" lon="1.21122">
        <ele>303.1</ele>
        <time>2024-10-21T07:34:55Z</time>
      </trkpt>
      <trkpt lat="45.85021" lon="1.21122">
        <ele>303.1</ele>
        <time>2024-10-21T07:34:56Z</time>
      </trkpt>
      <trkpt lat="45.85021" lon="1.21122">
        <ele>303.2</ele>
        <time>2024-10-21T07:34:57Z</time>
      </trkpt>
      <trkpt lat="45.85021" lon="1.21122">
        <ele>303.2</ele>
        <time>2024-10-21T07:34:58Z</time>
      </trkpt>
      <trkpt lat="45.85021" lon="1.21122">
        <ele>303.2</ele>
        <time>2024-10-21T07:34:59Z</time>
      </trkpt>
      <trkpt lat="45.85021" lon="1.21122">
        <ele>303.2</ele>
        <time>2024-10-21T07:35:00Z</time>
      </trkpt>
      <trkpt lat="45.85021" lon="1.21122">
        <ele>303.2</ele>
        <time>2024-10-21T07:35:01Z</time>
      </trkpt>
      <trkpt lat="45.85022" lon="1.21122">
        <ele>303.2</ele>
        <time>2024-10-21T07:35:02Z</time>
      </trkpt>
      <trkpt lat="45.85022" lon="1.21122">
        <ele>303.2</ele>
        <time>2024-10-21T07:35:03Z</time>
      </trkpt>
      <trkpt lat="45.85022" lon="1.21122">
        <ele>303.2</ele>
        <time>2024-10-21T07:35:04Z</time>
      </trkpt>
      <trkpt lat="45.85022" lon="1.21122">
        <ele>303.2</ele>
        <time>2024-10-21T07:35:05Z</time>
      </trkpt>
      <trkpt lat="45.85022" lon="1.21122">
        <ele>303.2</ele>
        <time>2024-10-21T07:35:06Z</time>
      </trkpt>
      <trkpt lat="45.85022" lon="1.21122">
        <ele>303.2</ele>
        <time>2024-10-21T07:35:07Z</time>
      </trkpt>
      <trkpt lat="45.85022" lon="1.21122">
        <ele>303.2</ele>
        <time>2024-10-21T07:35:08Z</time>
      </trkpt>
      <trkpt lat="45.85022" lon="1.21122">
        <ele>303.2</ele>
        <time>2024-10-21T07:35:09Z</time>
      </trkpt>
      <trkpt lat="45.85022" lon="1.21122">
        <ele>303.2</ele>
        <time>2024-10-21T07:35:10Z</time>
      </trkpt>
      <trkpt lat="45.85022" lon="1.21122">
        <ele>303.2</ele>
        <time>2024-10-21T07:35:11Z</time>
      </trkpt>
      <trkpt lat="45.85022" lon="1.21122">
        <ele>303.2</ele>
        <time>2024-10-21T07:35:12Z</time>
      </trkpt>
      <trkpt lat="45.85022" lon="1.21122">
        <ele>303.2</ele>
        <time>2024-10-21T07:35:13Z</time>
      </trkpt>
      <trkpt lat="45.85023" lon="1.21122">
        <ele>303.2</ele>
        <time>2024-10-21T07:35:14Z</time>
      </trkpt>
      <trkpt lat="45.85023" lon="1.21123">
        <ele>303.2</ele>
        <time>2024-10-21T07:35:15Z</time>
      </trkpt>
      <trkpt lat="45.85023" lon="1.21123">
        <ele>303.2</ele>
        <time>2024-10-21T07:35:16Z</time>
      </trkpt>
      <trkpt lat="45.85023" lon="1.21123">
        <ele>303.2</ele>
        <time>2024-10-21T07:35:17Z</time>
      </trkpt>
      <trkpt lat="45.85023" lon="1.21123">
        <ele>303.2</ele>
        <time>2024-10-21T07:35:18Z</time>
      </trkpt>
      <trkpt lat="45.85023" lon="1.21123">
        <ele>303.2</ele>
        <time>2024-10-21T07:35:20Z</time>
      </trkpt>
      <trkpt lat="45.85023" lon="1.21123">
        <ele>303.2</ele>
        <time>2024-10-21T07:35:21Z</time>
      </trkpt>
      <trkpt lat="45.85023" lon="1.21123">
        <ele>303.2</ele>
        <time>2024-10-21T07:35:22Z</time>
      </trkpt>
      <trkpt lat="45.85023" lon="1.21123">
        <ele>303.2</ele>
        <time>2024-10-21T07:35:23Z</time>
      </trkpt>
      <trkpt lat="45.85023" lon="1.21123">
        <ele>303.2</ele>
        <time>2024-10-21T07:35:24Z</time>
      </trkpt>
      <trkpt lat="45.85025" lon="1.21124">
        <ele>303.3</ele>
        <time>2024-10-21T07:35:25Z</time>
      </trkpt>
      <trkpt lat="45.85025" lon="1.21124">
        <ele>303.3</ele>
        <time>2024-10-21T07:35:26Z</time>
      </trkpt>
      <trkpt lat="45.85026" lon="1.21124">
        <ele>303.4</ele>
        <time>2024-10-21T07:35:27Z</time>
      </trkpt>
      <trkpt lat="45.85027" lon="1.21124">
        <ele>303.4</ele>
        <time>2024-10-21T07:35:28Z</time>
      </trkpt>
      <trkpt lat="45.8503" lon="1.21124">
        <ele>303.5</ele>
        <time>2024-10-21T07:35:29Z</time>
      </trkpt>
      <trkpt lat="45.8503" lon="1.21125">
        <ele>303.5</ele>
        <time>2024-10-21T07:35:30Z</time>
      </trkpt>
      <trkpt lat="45.8503" lon="1.21125">
        <ele>303.5</ele>
        <time>2024-10-21T07:35:31Z</time>
      </trkpt>
      <trkpt lat="45.85031" lon="1.21126">
        <ele>303.6</ele>
        <time>2024-10-21T07:35:32Z</time>
      </trkpt>
      <trkpt lat="45.85032" lon="1.21126">
        <ele>303.6</ele>
        <time>2024-10-21T07:35:33Z</time>
      </trkpt>
      <trkpt lat="45.85034" lon="1.21126">
        <ele>303.7</ele>
        <time>2024-10-21T07:35:34Z</time>
      </trkpt>
      <trkpt lat="45.85035" lon="1.21127">
        <ele>303.7</ele>
        <time>2024-10-21T07:35:35Z</time>
      </trkpt>
      <trkpt lat="45.85036" lon="1.21129">
        <ele>303.8</ele>
        <time>2024-10-21T07:35:36Z</time>
      </trkpt>
      <trkpt lat="45.85039" lon="1.21134">
        <ele>304</ele>
        <time>2024-10-21T07:35:37Z</time>
      </trkpt>
      <trkpt lat="45.8504" lon="1.21135">
        <ele>304.1</ele>
        <time>2024-10-21T07:35:38Z</time>
      </trkpt>
      <trkpt lat="45.85042" lon="1.21137">
        <ele>304.2</ele>
        <time>2024-10-21T07:35:39Z</time>
      </trkpt>
      <trkpt lat="45.85044" lon="1.21138">
        <ele>304.3</ele>
        <time>2024-10-21T07:35:40Z</time>
      </trkpt>
      <trkpt lat="45.85047" lon="1.21139">
        <ele>304.4</ele>
        <time>2024-10-21T07:35:41Z</time>
      </trkpt>
      <trkpt lat="45.85048" lon="1.21138">
        <ele>304.5</ele>
        <time>2024-10-21T07:35:42Z</time>
      </trkpt>
      <trkpt lat="45.8505" lon="1.21137">
        <ele>304.6</ele>
        <time>2024-10-21T07:35:43Z</time>
      </trkpt>
      <trkpt lat="45.85052" lon="1.21136">
        <ele>304.7</ele>
        <time>2024-10-21T07:35:44Z</time>
      </trkpt>
      <trkpt lat="45.85055" lon="1.21135">
        <ele>304.9</ele>
        <time>2024-10-21T07:35:45Z</time>
      </trkpt>
      <trkpt lat="45.85055" lon="1.21135">
        <ele>304.9</ele>
        <time>2024-10-21T07:35:46Z</time>
      </trkpt>
      <trkpt lat="45.85056" lon="1.21136">
        <ele>305</ele>
        <time>2024-10-21T07:35:47Z</time>
      </trkpt>
      <trkpt lat="45.85058" lon="1.21135">
        <ele>305</ele>
        <time>2024-10-21T07:35:48Z</time>
      </trkpt>
      <trkpt lat="45.85059" lon="1.21135">
        <ele>305.1</ele>
        <time>2024-10-21T07:35:49Z</time>
      </trkpt>
      <trkpt lat="45.8506" lon="1.21135">
        <ele>305.1</ele>
        <time>2024-10-21T07:35:50Z</time>
      </trkpt>
      <trkpt lat="45.8506" lon="1.21135">
        <ele>305.1</ele>
        <time>2024-10-21T07:35:51Z</time>
      </trkpt>
      <trkpt lat="45.85061" lon="1.21135">
        <ele>305.2</ele>
        <time>2024-10-21T07:35:52Z</time>
      </trkpt>
      <trkpt lat="45.85061" lon="1.21136">
        <ele>305.2</ele>
        <time>2024-10-21T07:35:53Z</time>
      </trkpt>
      <trkpt lat="45.85062" lon="1.21136">
        <ele>305.3</ele>
        <time>2024-10-21T07:35:54Z</time>
      </trkpt>
      <trkpt lat="45.85063" lon="1.21138">
        <ele>305.3</ele>
        <time>2024-10-21T07:35:55Z</time>
      </trkpt>
      <trkpt lat="45.85065" lon="1.2114">
        <ele>305.4</ele>
        <time>2024-10-21T07:35:56Z</time>
      </trkpt>
      <trkpt lat="45.85065" lon="1.21141">
        <ele>305.4</ele>
        <time>2024-10-21T07:35:57Z</time>
      </trkpt>
      <trkpt lat="45.85066" lon="1.21142">
        <ele>305.5</ele>
        <time>2024-10-21T07:35:58Z</time>
      </trkpt>
      <trkpt lat="45.85068" lon="1.21143">
        <ele>305.6</ele>
        <time>2024-10-21T07:35:59Z</time>
      </trkpt>
      <trkpt lat="45.85069" lon="1.21143">
        <ele>305.6</ele>
        <time>2024-10-21T07:36:00Z</time>
      </trkpt>
      <trkpt lat="45.85069" lon="1.21143">
        <ele>305.6</ele>
        <time>2024-10-21T07:36:01Z</time>
      </trkpt>
      <trkpt lat="45.85071" lon="1.21143">
        <ele>305.7</ele>
        <time>2024-10-21T07:36:02Z</time>
      </trkpt>
      <trkpt lat="45.85072" lon="1.21143">
        <ele>305.7</ele>
        <time>2024-10-21T07:36:03Z</time>
      </trkpt>
      <trkpt lat="45.85073" lon="1.21143">
        <ele>305.8</ele>
        <time>2024-10-21T07:36:04Z</time>
      </trkpt>
      <trkpt lat="45.85074" lon="1.21142">
        <ele>305.8</ele>
        <time>2024-10-21T07:36:05Z</time>
      </trkpt>
      <trkpt lat="45.85074" lon="1.21142">
        <ele>305.8</ele>
        <time>2024-10-21T07:36:06Z</time>
      </trkpt>
      <trkpt lat="45.85075" lon="1.21142">
        <ele>305.8</ele>
        <time>2024-10-21T07:36:07Z</time>
      </trkpt>
      <trkpt lat="45.85076" lon="1.21141">
        <ele>305.9</ele>
        <time>2024-10-21T07:36:08Z</time>
      </trkpt>
      <trkpt lat="45.85077" lon="1.2114">
        <ele>305.9</ele>
        <time>2024-10-21T07:36:09Z</time>
      </trkpt>
      <trkpt lat="45.85078" lon="1.21139">
        <ele>305.9</ele>
        <time>2024-10-21T07:36:10Z</time>
      </trkpt>
      <trkpt lat="45.85079" lon="1.21139">
        <ele>305.9</ele>
        <time>2024-10-21T07:36:11Z</time>
      </trkpt>
      <trkpt lat="45.8508" lon="1.21138">
        <ele>306</ele>
        <time>2024-10-21T07:36:12Z</time>
      </trkpt>
      <trkpt lat="45.8508" lon="1.21139">
        <ele>306</ele>
        <time>2024-10-21T07:36:13Z</time>
      </trkpt>
      <trkpt lat="45.8508" lon="1.21139">
        <ele>306</ele>
        <time>2024-10-21T07:36:14Z</time>
      </trkpt>
      <trkpt lat="45.85081" lon="1.21138">
        <ele>306</ele>
        <time>2024-10-21T07:36:15Z</time>
      </trkpt>
      <trkpt lat="45.85082" lon="1.21135">
        <ele>306.1</ele>
        <time>2024-10-21T07:36:16Z</time>
      </trkpt>
      <trkpt lat="45.85083" lon="1.21134">
        <ele>306.1</ele>
        <time>2024-10-21T07:36:17Z</time>
      </trkpt>
      <trkpt lat="45.85083" lon="1.21133">
        <ele>306.1</ele>
        <time>2024-10-21T07:36:18Z</time>
      </trkpt>
      <trkpt lat="45.85084" lon="1.21131">
        <ele>306.2</ele>
        <time>2024-10-21T07:36:19Z</time>
      </trkpt>
      <trkpt lat="45.85084" lon="1.2113">
        <ele>306.2</ele>
        <time>2024-10-21T07:36:20Z</time>
      </trkpt>
      <trkpt lat="45.85085" lon="1.21129">
        <ele>306.2</ele>
        <time>2024-10-21T07:36:21Z</time>
      </trkpt>
      <trkpt lat="45.85088" lon="1.21129">
        <ele>306.2</ele>
        <time>2024-10-21T07:36:22Z</time>
      </trkpt>
      <trkpt lat="45.85088" lon="1.21128">
        <ele>306.3</ele>
        <time>2024-10-21T07:36:23Z</time>
      </trkpt>
      <trkpt lat="45.85089" lon="1.21128">
        <ele>306.3</ele>
        <time>2024-10-21T07:36:24Z</time>
      </trkpt>
      <trkpt lat="45.85092" lon="1.21127">
        <ele>306.3</ele>
        <time>2024-10-21T07:36:25Z</time>
      </trkpt>
      <trkpt lat="45.85093" lon="1.21126">
        <ele>306.4</ele>
        <time>2024-10-21T07:36:26Z</time>
      </trkpt>
      <trkpt lat="45.85095" lon="1.21126">
        <ele>306.4</ele>
        <time>2024-10-21T07:36:27Z</time>
      </trkpt>
      <trkpt lat="45.85095" lon="1.21126">
        <ele>306.4</ele>
        <time>2024-10-21T07:36:28Z</time>
      </trkpt>
      <trkpt lat="45.85096" lon="1.21125">
        <ele>306.4</ele>
        <time>2024-10-21T07:36:29Z</time>
      </trkpt>
      <trkpt lat="45.85097" lon="1.21124">
        <ele>306.4</ele>
        <time>2024-10-21T07:36:30Z</time>
      </trkpt>
      <trkpt lat="45.85098" lon="1.21123">
        <ele>306.4</ele>
        <time>2024-10-21T07:36:31Z</time>
      </trkpt>
      <trkpt lat="45.85099" lon="1.21122">
        <ele>306.5</ele>
        <time>2024-10-21T07:36:32Z</time>
      </trkpt>
      <trkpt lat="45.851" lon="1.21121">
        <ele>306.5</ele>
        <time>2024-10-21T07:36:33Z</time>
      </trkpt>
      <trkpt lat="45.851" lon="1.21122">
        <ele>306.5</ele>
        <time>2024-10-21T07:36:34Z</time>
      </trkpt>
      <trkpt lat="45.851" lon="1.21122">
        <ele>306.5</ele>
        <time>2024-10-21T07:36:35Z</time>
      </trkpt>
      <trkpt lat="45.851" lon="1.21122">
        <ele>306.5</ele>
        <time>2024-10-21T07:36:36Z</time>
      </trkpt>
      <trkpt lat="45.85101" lon="1.21122">
        <ele>306.5</ele>
        <time>2024-10-21T07:36:37Z</time>
      </trkpt>
      <trkpt lat="45.85101" lon="1.21122">
        <ele>306.5</ele>
        <time>2024-10-21T07:36:38Z</time>
      </trkpt>
      <trkpt lat="45.85101" lon="1.21122">
        <ele>306.5</ele>
        <time>2024-10-21T07:36:39Z</time>
      </trkpt>
      <trkpt lat="45.85101" lon="1.21122">
        <ele>306.5</ele>
        <time>2024-10-21T07:36:40Z</time>
      </trkpt>
      <trkpt lat="45.85101" lon="1.21122">
        <ele>306.5</ele>
        <time>2024-10-21T07:36:41Z</time>
      </trkpt>
      <trkpt lat="45.85102" lon="1.21122">
        <ele>306.5</ele>
        <time>2024-10-21T07:36:42Z</time>
      </trkpt>
      <trkpt lat="45.85102" lon="1.21122">
        <ele>306.5</ele>
        <time>2024-10-21T07:36:43Z</time>
      </trkpt>
      <trkpt lat="45.85102" lon="1.21122">
        <ele>306.5</ele>
        <time>2024-10-21T07:36:44Z</time>
      </trkpt>
      <trkpt lat="45.85102" lon="1.21123">
        <ele>306.5</ele>
        <time>2024-10-21T07:36:45Z</time>
      </trkpt>
      <trkpt lat="45.85102" lon="1.21123">
        <ele>306.5</ele>
        <time>2024-10-21T07:36:46Z</time>
      </trkpt>
      <trkpt lat="45.85103" lon="1.21123">
        <ele>306.5</ele>
        <time>2024-10-21T07:36:47Z</time>
      </trkpt>
      <trkpt lat="45.85103" lon="1.21123">
        <ele>306.5</ele>
        <time>2024-10-21T07:36:48Z</time>
      </trkpt>
      <trkpt lat="45.85103" lon="1.21123">
        <ele>306.5</ele>
        <time>2024-10-21T07:36:49Z</time>
      </trkpt>
      <trkpt lat="45.85103" lon="1.21123">
        <ele>306.5</ele>
        <time>2024-10-21T07:36:50Z</time>
      </trkpt>
      <trkpt lat="45.85106" lon="1.21122">
        <ele>306.5</ele>
        <time>2024-10-21T07:36:51Z</time>
      </trkpt>
      <trkpt lat="45.85107" lon="1.21122">
        <ele>306.5</ele>
        <time>2024-10-21T07:36:52Z</time>
      </trkpt>
      <trkpt lat="45.85111" lon="1.21123">
        <ele>306.6</ele>
        <time>2024-10-21T07:36:53Z</time>
      </trkpt>
      <trkpt lat="45.85111" lon="1.21123">
        <ele>306.6</ele>
        <time>2024-10-21T07:36:54Z</time>
      </trkpt>
      <trkpt lat="45.8511" lon="1.21125">
        <ele>306.6</ele>
        <time>2024-10-21T07:36:55Z</time>
      </trkpt>
      <trkpt lat="45.8511" lon="1.21126">
        <ele>306.6</ele>
        <time>2024-10-21T07:36:56Z</time>
      </trkpt>
      <trkpt lat="45.85111" lon="1.21125">
        <ele>306.6</ele>
        <time>2024-10-21T07:36:57Z</time>
      </trkpt>
      <trkpt lat="45.85113" lon="1.21122">
        <ele>306.7</ele>
        <time>2024-10-21T07:36:58Z</time>
      </trkpt>
      <trkpt lat="45.85114" lon="1.21121">
        <ele>306.7</ele>
        <time>2024-10-21T07:37:00Z</time>
      </trkpt>
      <trkpt lat="45.85115" lon="1.21119">
        <ele>306.7</ele>
        <time>2024-10-21T07:37:01Z</time>
      </trkpt>
      <trkpt lat="45.85117" lon="1.21118">
        <ele>306.8</ele>
        <time>2024-10-21T07:37:02Z</time>
      </trkpt>
      <trkpt lat="45.85118" lon="1.21115">
        <ele>306.8</ele>
        <time>2024-10-21T07:37:03Z</time>
      </trkpt>
      <trkpt lat="45.85119" lon="1.21113">
        <ele>306.8</ele>
        <time>2024-10-21T07:37:04Z</time>
      </trkpt>
      <trkpt lat="45.8512" lon="1.21112">
        <ele>306.9</ele>
        <time>2024-10-21T07:37:05Z</time>
      </trkpt>
      <trkpt lat="45.85121" lon="1.2111">
        <ele>306.9</ele>
        <time>2024-10-21T07:37:06Z</time>
      </trkpt>
      <trkpt lat="45.85123" lon="1.2111">
        <ele>307</ele>
        <time>2024-10-21T07:37:07Z</time>
      </trkpt>
      <trkpt lat="45.85124" lon="1.2111">
        <ele>307</ele>
        <time>2024-10-21T07:37:08Z</time>
      </trkpt>
      <trkpt lat="45.85127" lon="1.21111">
        <ele>307.1</ele>
        <time>2024-10-21T07:37:09Z</time>
      </trkpt>
      <trkpt lat="45.85128" lon="1.21111">
        <ele>307.1</ele>
        <time>2024-10-21T07:37:10Z</time>
      </trkpt>
      <trkpt lat="45.85131" lon="1.21113">
        <ele>307.2</ele>
        <time>2024-10-21T07:37:11Z</time>
      </trkpt>
      <trkpt lat="45.85132" lon="1.21113">
        <ele>307.3</ele>
        <time>2024-10-21T07:37:12Z</time>
      </trkpt>
      <trkpt lat="45.85133" lon="1.21113">
        <ele>307.3</ele>
        <time>2024-10-21T07:37:13Z</time>
      </trkpt>
      <trkpt lat="45.85135" lon="1.21113">
        <ele>307.4</ele>
        <time>2024-10-21T07:37:14Z</time>
      </trkpt>
      <trkpt lat="45.85136" lon="1.21113">
        <ele>307.4</ele>
        <time>2024-10-21T07:37:15Z</time>
      </trkpt>
      <trkpt lat="45.85138" lon="1.21112">
        <ele>307.5</ele>
        <time>2024-10-21T07:37:16Z</time>
      </trkpt>
      <trkpt lat="45.85139" lon="1.21111">
        <ele>307.5</ele>
        <time>2024-10-21T07:37:17Z</time>
      </trkpt>
      <trkpt lat="45.85139" lon="1.21111">
        <ele>307.6</ele>
        <time>2024-10-21T07:37:18Z</time>
      </trkpt>
      <trkpt lat="45.85139" lon="1.21109">
        <ele>307.6</ele>
        <time>2024-10-21T07:37:19Z</time>
      </trkpt>
      <trkpt lat="45.85139" lon="1.21108">
        <ele>307.6</ele>
        <time>2024-10-21T07:37:20Z</time>
      </trkpt>
      <trkpt lat="45.8514" lon="1.21108">
        <ele>307.7</ele>
        <time>2024-10-21T07:37:21Z</time>
      </trkpt>
      <trkpt lat="45.85141" lon="1.21107">
        <ele>307.7</ele>
        <time>2024-10-21T07:37:22Z</time>
      </trkpt>
      <trkpt lat="45.85141" lon="1.21107">
        <ele>307.7</ele>
        <time>2024-10-21T07:37:23Z</time>
      </trkpt>
      <trkpt lat="45.8514" lon="1.21108">
        <ele>307.8</ele>
        <time>2024-10-21T07:37:24Z</time>
      </trkpt>
      <trkpt lat="45.85139" lon="1.21111">
        <ele>307.9</ele>
        <time>2024-10-21T07:37:25Z</time>
      </trkpt>
      <trkpt lat="45.85139" lon="1.21112">
        <ele>307.9</ele>
        <time>2024-10-21T07:37:26Z</time>
      </trkpt>
      <trkpt lat="45.8514" lon="1.21112">
        <ele>307.9</ele>
        <time>2024-10-21T07:37:27Z</time>
      </trkpt>
      <trkpt lat="45.85141" lon="1.21112">
        <ele>308</ele>
        <time>2024-10-21T07:37:28Z</time>
      </trkpt>
      <trkpt lat="45.85143" lon="1.2111">
        <ele>308</ele>
        <time>2024-10-21T07:37:29Z</time>
      </trkpt>
      <trkpt lat="45.85144" lon="1.21108">
        <ele>308.1</ele>
        <time>2024-10-21T07:37:30Z</time>
      </trkpt>
      <trkpt lat="45.85144" lon="1.21106">
        <ele>308.1</ele>
        <time>2024-10-21T07:37:32Z</time>
      </trkpt>
      <trkpt lat="45.85143" lon="1.21105">
        <ele>308.2</ele>
        <time>2024-10-21T07:37:33Z</time>
      </trkpt>
      <trkpt lat="45.85142" lon="1.21107">
        <ele>308.3</ele>
        <time>2024-10-21T07:37:34Z</time>
      </trkpt>
      <trkpt lat="45.85141" lon="1.21108">
        <ele>308.3</ele>
        <time>2024-10-21T07:37:35Z</time>
      </trkpt>
      <trkpt lat="45.85141" lon="1.21109">
        <ele>308.3</ele>
        <time>2024-10-21T07:37:36Z</time>
      </trkpt>
      <trkpt lat="45.85141" lon="1.21108">
        <ele>308.3</ele>
        <time>2024-10-21T07:37:37Z</time>
      </trkpt>
      <trkpt lat="45.85142" lon="1.21108">
        <ele>308.3</ele>
        <time>2024-10-21T07:37:38Z</time>
      </trkpt>
      <trkpt lat="45.85142" lon="1.21108">
        <ele>308.3</ele>
        <time>2024-10-21T07:37:39Z</time>
      </trkpt>
      <trkpt lat="45.85142" lon="1.21108">
        <ele>308.3</ele>
        <time>2024-10-21T07:37:40Z</time>
      </trkpt>
      <trkpt lat="45.85143" lon="1.21108">
        <ele>308.3</ele>
        <time>2024-10-21T07:37:41Z</time>
      </trkpt>
      <trkpt lat="45.85143" lon="1.21108">
        <ele>308.4</ele>
        <time>2024-10-21T07:37:42Z</time>
      </trkpt>
      <trkpt lat="45.85143" lon="1.21108">
        <ele>308.4</ele>
        <time>2024-10-21T07:37:43Z</time>
      </trkpt>
      <trkpt lat="45.85144" lon="1.21107">
        <ele>308.4</ele>
        <time>2024-10-21T07:37:44Z</time>
      </trkpt>
      <trkpt lat="45.85144" lon="1.21107">
        <ele>308.4</ele>
        <time>2024-10-21T07:37:45Z</time>
      </trkpt>
      <trkpt lat="45.85144" lon="1.21107">
        <ele>308.4</ele>
        <time>2024-10-21T07:37:46Z</time>
      </trkpt>
      <trkpt lat="45.85145" lon="1.21107">
        <ele>308.4</ele>
        <time>2024-10-21T07:37:47Z</time>
      </trkpt>
      <trkpt lat="45.85145" lon="1.21107">
        <ele>308.4</ele>
        <time>2024-10-21T07:37:48Z</time>
      </trkpt>
      <trkpt lat="45.85145" lon="1.21107">
        <ele>308.4</ele>
        <time>2024-10-21T07:37:49Z</time>
      </trkpt>
      <trkpt lat="45.85146" lon="1.21106">
        <ele>308.4</ele>
        <time>2024-10-21T07:37:50Z</time>
      </trkpt>
      <trkpt lat="45.85147" lon="1.21106">
        <ele>308.5</ele>
        <time>2024-10-21T07:37:51Z</time>
      </trkpt>
      <trkpt lat="45.85147" lon="1.21105">
        <ele>308.5</ele>
        <time>2024-10-21T07:37:52Z</time>
      </trkpt>
      <trkpt lat="45.85147" lon="1.21105">
        <ele>308.5</ele>
        <time>2024-10-21T07:37:53Z</time>
      </trkpt>
      <trkpt lat="45.85147" lon="1.21105">
        <ele>308.5</ele>
        <time>2024-10-21T07:37:54Z</time>
      </trkpt>
      <trkpt lat="45.85148" lon="1.21105">
        <ele>308.5</ele>
        <time>2024-10-21T07:37:55Z</time>
      </trkpt>
      <trkpt lat="45.85148" lon="1.21105">
        <ele>308.5</ele>
        <time>2024-10-21T07:37:56Z</time>
      </trkpt>
      <trkpt lat="45.85148" lon="1.21105">
        <ele>308.5</ele>
        <time>2024-10-21T07:37:57Z</time>
      </trkpt>
      <trkpt lat="45.85148" lon="1.21105">
        <ele>308.5</ele>
        <time>2024-10-21T07:37:58Z</time>
      </trkpt>
      <trkpt lat="45.85149" lon="1.21105">
        <ele>308.5</ele>
        <time>2024-10-21T07:37:59Z</time>
      </trkpt>
      <trkpt lat="45.85149" lon="1.21105">
        <ele>308.5</ele>
        <time>2024-10-21T07:38:00Z</time>
      </trkpt>
      <trkpt lat="45.85149" lon="1.21105">
        <ele>308.6</ele>
        <time>2024-10-21T07:38:01Z</time>
      </trkpt>
      <trkpt lat="45.85149" lon="1.21104">
        <ele>308.6</ele>
        <time>2024-10-21T07:38:02Z</time>
      </trkpt>
      <trkpt lat="45.8515" lon="1.21104">
        <ele>308.6</ele>
        <time>2024-10-21T07:38:03Z</time>
      </trkpt>
      <trkpt lat="45.8515" lon="1.21104">
        <ele>308.6</ele>
        <time>2024-10-21T07:38:04Z</time>
      </trkpt>
      <trkpt lat="45.8515" lon="1.21104">
        <ele>308.6</ele>
        <time>2024-10-21T07:38:05Z</time>
      </trkpt>
      <trkpt lat="45.85154" lon="1.21103">
        <ele>308.7</ele>
        <time>2024-10-21T07:38:06Z</time>
      </trkpt>
      <trkpt lat="45.85156" lon="1.21102">
        <ele>308.8</ele>
        <time>2024-10-21T07:38:07Z</time>
      </trkpt>
      <trkpt lat="45.85157" lon="1.21101">
        <ele>308.8</ele>
        <time>2024-10-21T07:38:08Z</time>
      </trkpt>
      <trkpt lat="45.85159" lon="1.21101">
        <ele>308.8</ele>
        <time>2024-10-21T07:38:09Z</time>
      </trkpt>
      <trkpt lat="45.8516" lon="1.211">
        <ele>308.9</ele>
        <time>2024-10-21T07:38:10Z</time>
      </trkpt>
      <trkpt lat="45.85161" lon="1.211">
        <ele>308.9</ele>
        <time>2024-10-21T07:38:11Z</time>
      </trkpt>
      <trkpt lat="45.85164" lon="1.21099">
        <ele>309</ele>
        <time>2024-10-21T07:38:12Z</time>
      </trkpt>
      <trkpt lat="45.85167" lon="1.21098">
        <ele>309.1</ele>
        <time>2024-10-21T07:38:13Z</time>
      </trkpt>
      <trkpt lat="45.85168" lon="1.21097">
        <ele>309.1</ele>
        <time>2024-10-21T07:38:14Z</time>
      </trkpt>
      <trkpt lat="45.85169" lon="1.21096">
        <ele>309.1</ele>
        <time>2024-10-21T07:38:15Z</time>
      </trkpt>
      <trkpt lat="45.85169" lon="1.21095">
        <ele>309.2</ele>
        <time>2024-10-21T07:38:16Z</time>
      </trkpt>
      <trkpt lat="45.85168" lon="1.21096">
        <ele>309.2</ele>
        <time>2024-10-21T07:38:17Z</time>
      </trkpt>
      <trkpt lat="45.85167" lon="1.21096">
        <ele>309.2</ele>
        <time>2024-10-21T07:38:18Z</time>
      </trkpt>
      <trkpt lat="45.85167" lon="1.21096">
        <ele>309.2</ele>
        <time>2024-10-21T07:38:19Z</time>
      </trkpt>
      <trkpt lat="45.85167" lon="1.21096">
        <ele>309.2</ele>
        <time>2024-10-21T07:38:20Z</time>
      </trkpt>
      <trkpt lat="45.85167" lon="1.21095">
        <ele>309.3</ele>
        <time>2024-10-21T07:38:21Z</time>
      </trkpt>
      <trkpt lat="45.85168" lon="1.21095">
        <ele>309.3</ele>
        <time>2024-10-21T07:38:22Z</time>
      </trkpt>
      <trkpt lat="45.85168" lon="1.21094">
        <ele>309.3</ele>
        <time>2024-10-21T07:38:23Z</time>
      </trkpt>
      <trkpt lat="45.85168" lon="1.21093">
        <ele>309.3</ele>
        <time>2024-10-21T07:38:24Z</time>
      </trkpt>
      <trkpt lat="45.85169" lon="1.21093">
        <ele>309.3</ele>
        <time>2024-10-21T07:38:25Z</time>
      </trkpt>
      <trkpt lat="45.85169" lon="1.21092">
        <ele>309.3</ele>
        <time>2024-10-21T07:38:26Z</time>
      </trkpt>
      <trkpt lat="45.85169" lon="1.21092">
        <ele>309.3</ele>
        <time>2024-10-21T07:38:27Z</time>
      </trkpt>
      <trkpt lat="45.85169" lon="1.21091">
        <ele>309.4</ele>
        <time>2024-10-21T07:38:28Z</time>
      </trkpt>
      <trkpt lat="45.85169" lon="1.21091">
        <ele>309.4</ele>
        <time>2024-10-21T07:38:29Z</time>
      </trkpt>
      <trkpt lat="45.85169" lon="1.2109">
        <ele>309.4</ele>
        <time>2024-10-21T07:38:30Z</time>
      </trkpt>
      <trkpt lat="45.85169" lon="1.21089">
        <ele>309.4</ele>
        <time>2024-10-21T07:38:31Z</time>
      </trkpt>
      <trkpt lat="45.85169" lon="1.21089">
        <ele>309.4</ele>
        <time>2024-10-21T07:38:32Z</time>
      </trkpt>
      <trkpt lat="45.85168" lon="1.21088">
        <ele>309.5</ele>
        <time>2024-10-21T07:38:33Z</time>
      </trkpt>
      <trkpt lat="45.85169" lon="1.21086">
        <ele>309.5</ele>
        <time>2024-10-21T07:38:34Z</time>
      </trkpt>
      <trkpt lat="45.8517" lon="1.21086">
        <ele>309.5</ele>
        <time>2024-10-21T07:38:35Z</time>
      </trkpt>
      <trkpt lat="45.85171" lon="1.21085">
        <ele>309.6</ele>
        <time>2024-10-21T07:38:36Z</time>
      </trkpt>
      <trkpt lat="45.85171" lon="1.21085">
        <ele>309.6</ele>
        <time>2024-10-21T07:38:37Z</time>
      </trkpt>
      <trkpt lat="45.85175" lon="1.21085">
        <ele>309.8</ele>
        <time>2024-10-21T07:38:38Z</time>
      </trkpt>
      <trkpt lat="45.85177" lon="1.21083">
        <ele>309.9</ele>
        <time>2024-10-21T07:38:39Z</time>
      </trkpt>
      <trkpt lat="45.85178" lon="1.21083">
        <ele>309.9</ele>
        <time>2024-10-21T07:38:40Z</time>
      </trkpt>
      <trkpt lat="45.85178" lon="1.21082">
        <ele>310</ele>
        <time>2024-10-21T07:38:41Z</time>
      </trkpt>
      <trkpt lat="45.8518" lon="1.21079">
        <ele>310.1</ele>
        <time>2024-10-21T07:38:42Z</time>
      </trkpt>
      <trkpt lat="45.85181" lon="1.21079">
        <ele>310.2</ele>
        <time>2024-10-21T07:38:44Z</time>
      </trkpt>
      <trkpt lat="45.85182" lon="1.21078">
        <ele>310.2</ele>
        <time>2024-10-21T07:38:45Z</time>
      </trkpt>
      <trkpt lat="45.85183" lon="1.21078">
        <ele>310.3</ele>
        <time>2024-10-21T07:38:46Z</time>
      </trkpt>
      <trkpt lat="45.85183" lon="1.21077">
        <ele>310.3</ele>
        <time>2024-10-21T07:38:47Z</time>
      </trkpt>
      <trkpt lat="45.85183" lon="1.21075">
        <ele>310.4</ele>
        <time>2024-10-21T07:38:48Z</time>
      </trkpt>
      <trkpt lat="45.85184" lon="1.21075">
        <ele>310.4</ele>
        <time>2024-10-21T07:38:49Z</time>
      </trkpt>
      <trkpt lat="45.85185" lon="1.21075">
        <ele>310.5</ele>
        <time>2024-10-21T07:38:50Z</time>
      </trkpt>
      <trkpt lat="45.85185" lon="1.21075">
        <ele>310.6</ele>
        <time>2024-10-21T07:38:51Z</time>
      </trkpt>
      <trkpt lat="45.85186" lon="1.21075">
        <ele>310.6</ele>
        <time>2024-10-21T07:38:52Z</time>
      </trkpt>
      <trkpt lat="45.85186" lon="1.21075">
        <ele>310.6</ele>
        <time>2024-10-21T07:38:53Z</time>
      </trkpt>
      <trkpt lat="45.85186" lon="1.21076">
        <ele>310.6</ele>
        <time>2024-10-21T07:38:54Z</time>
      </trkpt>
      <trkpt lat="45.85185" lon="1.21076">
        <ele>310.6</ele>
        <time>2024-10-21T07:38:55Z</time>
      </trkpt>
      <trkpt lat="45.85186" lon="1.21076">
        <ele>310.6</ele>
        <time>2024-10-21T07:38:56Z</time>
      </trkpt>
      <trkpt lat="45.85186" lon="1.21076">
        <ele>310.6</ele>
        <time>2024-10-21T07:38:57Z</time>
      </trkpt>
      <trkpt lat="45.85186" lon="1.21076">
        <ele>310.6</ele>
        <time>2024-10-21T07:38:58Z</time>
      </trkpt>
      <trkpt lat="45.85186" lon="1.21076">
        <ele>310.6</ele>
        <time>2024-10-21T07:38:59Z</time>
      </trkpt>
      <trkpt lat="45.85186" lon="1.21076">
        <ele>310.6</ele>
        <time>2024-10-21T07:39:00Z</time>
      </trkpt>
      <trkpt lat="45.85186" lon="1.21076">
        <ele>310.6</ele>
        <time>2024-10-21T07:39:01Z</time>
      </trkpt>
      <trkpt lat="45.85186" lon="1.21076">
        <ele>310.6</ele>
        <time>2024-10-21T07:39:02Z</time>
      </trkpt>
      <trkpt lat="45.85186" lon="1.21075">
        <ele>310.7</ele>
        <time>2024-10-21T07:39:03Z</time>
      </trkpt>
      <trkpt lat="45.85186" lon="1.21075">
        <ele>310.7</ele>
        <time>2024-10-21T07:39:04Z</time>
      </trkpt>
      <trkpt lat="45.85186" lon="1.21076">
        <ele>310.7</ele>
        <time>2024-10-21T07:39:05Z</time>
      </trkpt>
      <trkpt lat="45.85186" lon="1.21076">
        <ele>310.7</ele>
        <time>2024-10-21T07:39:06Z</time>
      </trkpt>
      <trkpt lat="45.85186" lon="1.21075">
        <ele>310.7</ele>
        <time>2024-10-21T07:39:07Z</time>
      </trkpt>
      <trkpt lat="45.85186" lon="1.21075">
        <ele>310.7</ele>
        <time>2024-10-21T07:39:08Z</time>
      </trkpt>
      <trkpt lat="45.85186" lon="1.21075">
        <ele>310.7</ele>
        <time>2024-10-21T07:39:09Z</time>
      </trkpt>
      <trkpt lat="45.85186" lon="1.21076">
        <ele>310.7</ele>
        <time>2024-10-21T07:39:10Z</time>
      </trkpt>
      <trkpt lat="45.85186" lon="1.21076">
        <ele>310.7</ele>
        <time>2024-10-21T07:39:11Z</time>
      </trkpt>
      <trkpt lat="45.85186" lon="1.21076">
        <ele>310.7</ele>
        <time>2024-10-21T07:39:12Z</time>
      </trkpt>
      <trkpt lat="45.85186" lon="1.21076">
        <ele>310.8</ele>
        <time>2024-10-21T07:39:13Z</time>
      </trkpt>
      <trkpt lat="45.85186" lon="1.21076">
        <ele>310.8</ele>
        <time>2024-10-21T07:39:14Z</time>
      </trkpt>
      <trkpt lat="45.85187" lon="1.21076">
        <ele>310.8</ele>
        <time>2024-10-21T07:39:15Z</time>
      </trkpt>
      <trkpt lat="45.85187" lon="1.21076">
        <ele>310.8</ele>
        <time>2024-10-21T07:39:16Z</time>
      </trkpt>
      <trkpt lat="45.85187" lon="1.21076">
        <ele>310.8</ele>
        <time>2024-10-21T07:39:17Z</time>
      </trkpt>
      <trkpt lat="45.85187" lon="1.21076">
        <ele>310.8</ele>
        <time>2024-10-21T07:39:18Z</time>
      </trkpt>
      <trkpt lat="45.85187" lon="1.21076">
        <ele>310.8</ele>
        <time>2024-10-21T07:39:19Z</time>
      </trkpt>
      <trkpt lat="45.85187" lon="1.21076">
        <ele>310.9</ele>
        <time>2024-10-21T07:39:20Z</time>
      </trkpt>
      <trkpt lat="45.85187" lon="1.21075">
        <ele>310.9</ele>
        <time>2024-10-21T07:39:21Z</time>
      </trkpt>
      <trkpt lat="45.85187" lon="1.21075">
        <ele>310.9</ele>
        <time>2024-10-21T07:39:22Z</time>
      </trkpt>
      <trkpt lat="45.85187" lon="1.21075">
        <ele>310.9</ele>
        <time>2024-10-21T07:39:23Z</time>
      </trkpt>
      <trkpt lat="45.85187" lon="1.21075">
        <ele>310.9</ele>
        <time>2024-10-21T07:39:24Z</time>
      </trkpt>
      <trkpt lat="45.85188" lon="1.21075">
        <ele>310.9</ele>
        <time>2024-10-21T07:39:25Z</time>
      </trkpt>
      <trkpt lat="45.85189" lon="1.21074">
        <ele>311</ele>
        <time>2024-10-21T07:39:26Z</time>
      </trkpt>
      <trkpt lat="45.8519" lon="1.21073">
        <ele>311.1</ele>
        <time>2024-10-21T07:39:27Z</time>
      </trkpt>
      <trkpt lat="45.8519" lon="1.21074">
        <ele>311.2</ele>
        <time>2024-10-21T07:39:28Z</time>
      </trkpt>
      <trkpt lat="45.85189" lon="1.21074">
        <ele>311.3</ele>
        <time>2024-10-21T07:39:29Z</time>
      </trkpt>
      <trkpt lat="45.85188" lon="1.21075">
        <ele>311.3</ele>
        <time>2024-10-21T07:39:30Z</time>
      </trkpt>
      <trkpt lat="45.85188" lon="1.21075">
        <ele>311.4</ele>
        <time>2024-10-21T07:39:31Z</time>
      </trkpt>
      <trkpt lat="45.85187" lon="1.21075">
        <ele>311.4</ele>
        <time>2024-10-21T07:39:32Z</time>
      </trkpt>
      <trkpt lat="45.85187" lon="1.21074">
        <ele>311.4</ele>
        <time>2024-10-21T07:39:33Z</time>
      </trkpt>
      <trkpt lat="45.85187" lon="1.21074">
        <ele>311.4</ele>
        <time>2024-10-21T07:39:34Z</time>
      </trkpt>
      <trkpt lat="45.85187" lon="1.21074">
        <ele>311.4</ele>
        <time>2024-10-21T07:39:35Z</time>
      </trkpt>
      <trkpt lat="45.85188" lon="1.21075">
        <ele>311.4</ele>
        <time>2024-10-21T07:39:36Z</time>
      </trkpt>
      <trkpt lat="45.85188" lon="1.21074">
        <ele>311.5</ele>
        <time>2024-10-21T07:39:37Z</time>
      </trkpt>
      <trkpt lat="45.85188" lon="1.21074">
        <ele>311.5</ele>
        <time>2024-10-21T07:39:38Z</time>
      </trkpt>
      <trkpt lat="45.85189" lon="1.21074">
        <ele>311.6</ele>
        <time>2024-10-21T07:39:39Z</time>
      </trkpt>
      <trkpt lat="45.85189" lon="1.21073">
        <ele>311.6</ele>
        <time>2024-10-21T07:39:40Z</time>
      </trkpt>
      <trkpt lat="45.8519" lon="1.21073">
        <ele>311.7</ele>
        <time>2024-10-21T07:39:41Z</time>
      </trkpt>
      <trkpt lat="45.85193" lon="1.21072">
        <ele>312</ele>
        <time>2024-10-21T07:39:42Z</time>
      </trkpt>
      <trkpt lat="45.85194" lon="1.21071">
        <ele>312.1</ele>
        <time>2024-10-21T07:39:43Z</time>
      </trkpt>
      <trkpt lat="45.85194" lon="1.21071">
        <ele>312.1</ele>
        <time>2024-10-21T07:39:44Z</time>
      </trkpt>
      <trkpt lat="45.85195" lon="1.21069">
        <ele>312.3</ele>
        <time>2024-10-21T07:39:45Z</time>
      </trkpt>
      <trkpt lat="45.85196" lon="1.21067">
        <ele>312.4</ele>
        <time>2024-10-21T07:39:46Z</time>
      </trkpt>
      <trkpt lat="45.85197" lon="1.21067">
        <ele>312.6</ele>
        <time>2024-10-21T07:39:47Z</time>
      </trkpt>
      <trkpt lat="45.85198" lon="1.21068">
        <ele>312.7</ele>
        <time>2024-10-21T07:39:48Z</time>
      </trkpt>
      <trkpt lat="45.85199" lon="1.21068">
        <ele>312.8</ele>
        <time>2024-10-21T07:39:49Z</time>
      </trkpt>
      <trkpt lat="45.852" lon="1.21069">
        <ele>312.9</ele>
        <time>2024-10-21T07:39:50Z</time>
      </trkpt>
      <trkpt lat="45.85201" lon="1.21069">
        <ele>313</ele>
        <time>2024-10-21T07:39:51Z</time>
      </trkpt>
      <trkpt lat="45.85202" lon="1.21069">
        <ele>313.1</ele>
        <time>2024-10-21T07:39:52Z</time>
      </trkpt>
      <trkpt lat="45.85203" lon="1.21069">
        <ele>313.2</ele>
        <time>2024-10-21T07:39:53Z</time>
      </trkpt>
      <trkpt lat="45.85203" lon="1.21068">
        <ele>313.2</ele>
        <time>2024-10-21T07:39:54Z</time>
      </trkpt>
      <trkpt lat="45.85203" lon="1.21068">
        <ele>313.2</ele>
        <time>2024-10-21T07:39:55Z</time>
      </trkpt>
      <trkpt lat="45.85203" lon="1.21068">
        <ele>313.3</ele>
        <time>2024-10-21T07:39:56Z</time>
      </trkpt>
      <trkpt lat="45.85204" lon="1.21068">
        <ele>313.3</ele>
        <time>2024-10-21T07:39:57Z</time>
      </trkpt>
      <trkpt lat="45.85204" lon="1.21067">
        <ele>313.4</ele>
        <time>2024-10-21T07:39:58Z</time>
      </trkpt>
      <trkpt lat="45.85205" lon="1.21067">
        <ele>313.4</ele>
        <time>2024-10-21T07:39:59Z</time>
      </trkpt>
      <trkpt lat="45.85206" lon="1.21066">
        <ele>313.5</ele>
        <time>2024-10-21T07:40:00Z</time>
      </trkpt>
      <trkpt lat="45.85206" lon="1.21066">
        <ele>313.6</ele>
        <time>2024-10-21T07:40:01Z</time>
      </trkpt>
      <trkpt lat="45.85206" lon="1.21065">
        <ele>313.6</ele>
        <time>2024-10-21T07:40:02Z</time>
      </trkpt>
      <trkpt lat="45.85207" lon="1.21065">
        <ele>313.7</ele>
        <time>2024-10-21T07:40:03Z</time>
      </trkpt>
      <trkpt lat="45.85207" lon="1.21065">
        <ele>313.7</ele>
        <time>2024-10-21T07:40:04Z</time>
      </trkpt>
      <trkpt lat="45.85208" lon="1.21065">
        <ele>313.8</ele>
        <time>2024-10-21T07:40:05Z</time>
      </trkpt>
      <trkpt lat="45.85209" lon="1.21065">
        <ele>313.9</ele>
        <time>2024-10-21T07:40:06Z</time>
      </trkpt>
      <trkpt lat="45.8521" lon="1.21066">
        <ele>314</ele>
        <time>2024-10-21T07:40:07Z</time>
      </trkpt>
      <trkpt lat="45.85211" lon="1.21067">
        <ele>314.1</ele>
        <time>2024-10-21T07:40:08Z</time>
      </trkpt>
      <trkpt lat="45.85212" lon="1.21068">
        <ele>314.2</ele>
        <time>2024-10-21T07:40:09Z</time>
      </trkpt>
      <trkpt lat="45.85213" lon="1.21067">
        <ele>314.4</ele>
        <time>2024-10-21T07:40:10Z</time>
      </trkpt>
      <trkpt lat="45.85215" lon="1.21063">
        <ele>314.5</ele>
        <time>2024-10-21T07:40:11Z</time>
      </trkpt>
      <trkpt lat="45.85216" lon="1.21061">
        <ele>314.5</ele>
        <time>2024-10-21T07:40:12Z</time>
      </trkpt>
      <trkpt lat="45.85215" lon="1.21059">
        <ele>314.5</ele>
        <time>2024-10-21T07:40:13Z</time>
      </trkpt>
      <trkpt lat="45.85215" lon="1.21059">
        <ele>314.5</ele>
        <time>2024-10-21T07:40:14Z</time>
      </trkpt>
      <trkpt lat="45.85214" lon="1.21059">
        <ele>314.5</ele>
        <time>2024-10-21T07:40:15Z</time>
      </trkpt>
      <trkpt lat="45.85214" lon="1.21059">
        <ele>314.5</ele>
        <time>2024-10-21T07:40:16Z</time>
      </trkpt>
      <trkpt lat="45.85214" lon="1.21059">
        <ele>314.5</ele>
        <time>2024-10-21T07:40:17Z</time>
      </trkpt>
      <trkpt lat="45.85214" lon="1.21059">
        <ele>314.5</ele>
        <time>2024-10-21T07:40:18Z</time>
      </trkpt>
      <trkpt lat="45.85214" lon="1.21059">
        <ele>314.5</ele>
        <time>2024-10-21T07:40:19Z</time>
      </trkpt>
      <trkpt lat="45.85214" lon="1.21059">
        <ele>314.5</ele>
        <time>2024-10-21T07:40:20Z</time>
      </trkpt>
      <trkpt lat="45.85214" lon="1.21059">
        <ele>314.5</ele>
        <time>2024-10-21T07:40:21Z</time>
      </trkpt>
      <trkpt lat="45.85214" lon="1.21059">
        <ele>314.5</ele>
        <time>2024-10-21T07:40:22Z</time>
      </trkpt>
      <trkpt lat="45.85214" lon="1.21059">
        <ele>314.5</ele>
        <time>2024-10-21T07:40:23Z</time>
      </trkpt>
      <trkpt lat="45.85214" lon="1.21059">
        <ele>314.5</ele>
        <time>2024-10-21T07:40:24Z</time>
      </trkpt>
      <trkpt lat="45.85214" lon="1.21059">
        <ele>314.5</ele>
        <time>2024-10-21T07:40:25Z</time>
      </trkpt>
      <trkpt lat="45.85215" lon="1.21059">
        <ele>314.5</ele>
        <time>2024-10-21T07:40:26Z</time>
      </trkpt>
      <trkpt lat="45.85215" lon="1.21058">
        <ele>314.5</ele>
        <time>2024-10-21T07:40:27Z</time>
      </trkpt>
      <trkpt lat="45.85215" lon="1.21058">
        <ele>314.5</ele>
        <time>2024-10-21T07:40:28Z</time>
      </trkpt>
      <trkpt lat="45.85215" lon="1.21058">
        <ele>314.5</ele>
        <time>2024-10-21T07:40:29Z</time>
      </trkpt>
      <trkpt lat="45.85215" lon="1.21058">
        <ele>314.6</ele>
        <time>2024-10-21T07:40:30Z</time>
      </trkpt>
      <trkpt lat="45.85214" lon="1.21058">
        <ele>314.6</ele>
        <time>2024-10-21T07:40:31Z</time>
      </trkpt>
      <trkpt lat="45.85214" lon="1.21058">
        <ele>314.6</ele>
        <time>2024-10-21T07:40:32Z</time>
      </trkpt>
      <trkpt lat="45.85214" lon="1.21058">
        <ele>314.6</ele>
        <time>2024-10-21T07:40:33Z</time>
      </trkpt>
      <trkpt lat="45.85214" lon="1.21058">
        <ele>314.6</ele>
        <time>2024-10-21T07:40:34Z</time>
      </trkpt>
      <trkpt lat="45.85214" lon="1.21058">
        <ele>314.6</ele>
        <time>2024-10-21T07:40:35Z</time>
      </trkpt>
      <trkpt lat="45.85214" lon="1.21058">
        <ele>314.6</ele>
        <time>2024-10-21T07:40:36Z</time>
      </trkpt>
      <trkpt lat="45.85214" lon="1.21058">
        <ele>314.6</ele>
        <time>2024-10-21T07:40:37Z</time>
      </trkpt>
      <trkpt lat="45.85214" lon="1.21058">
        <ele>314.6</ele>
        <time>2024-10-21T07:40:38Z</time>
      </trkpt>
      <trkpt lat="45.85214" lon="1.21058">
        <ele>314.6</ele>
        <time>2024-10-21T07:40:39Z</time>
      </trkpt>
      <trkpt lat="45.85215" lon="1.21058">
        <ele>314.6</ele>
        <time>2024-10-21T07:40:40Z</time>
      </trkpt>
      <trkpt lat="45.85215" lon="1.21059">
        <ele>314.6</ele>
        <time>2024-10-21T07:40:41Z</time>
      </trkpt>
      <trkpt lat="45.85216" lon="1.21059">
        <ele>314.6</ele>
        <time>2024-10-21T07:40:42Z</time>
      </trkpt>
      <trkpt lat="45.85216" lon="1.21059">
        <ele>314.6</ele>
        <time>2024-10-21T07:40:43Z</time>
      </trkpt>
      <trkpt lat="45.85218" lon="1.21058">
        <ele>314.6</ele>
        <time>2024-10-21T07:40:44Z</time>
      </trkpt>
      <trkpt lat="45.85221" lon="1.21056">
        <ele>314.6</ele>
        <time>2024-10-21T07:40:45Z</time>
      </trkpt>
      <trkpt lat="45.85221" lon="1.21055">
        <ele>314.6</ele>
        <time>2024-10-21T07:40:46Z</time>
      </trkpt>
      <trkpt lat="45.85223" lon="1.21054">
        <ele>314.6</ele>
        <time>2024-10-21T07:40:47Z</time>
      </trkpt>
      <trkpt lat="45.85224" lon="1.21053">
        <ele>314.6</ele>
        <time>2024-10-21T07:40:48Z</time>
      </trkpt>
      <trkpt lat="45.85225" lon="1.21051">
        <ele>314.6</ele>
        <time>2024-10-21T07:40:49Z</time>
      </trkpt>
      <trkpt lat="45.85227" lon="1.2105">
        <ele>314.6</ele>
        <time>2024-10-21T07:40:50Z</time>
      </trkpt>
      <trkpt lat="45.85229" lon="1.21048">
        <ele>314.6</ele>
        <time>2024-10-21T07:40:51Z</time>
      </trkpt>
      <trkpt lat="45.85231" lon="1.21047">
        <ele>314.6</ele>
        <time>2024-10-21T07:40:52Z</time>
      </trkpt>
      <trkpt lat="45.85233" lon="1.21047">
        <ele>314.6</ele>
        <time>2024-10-21T07:40:53Z</time>
      </trkpt>
      <trkpt lat="45.85235" lon="1.21044">
        <ele>314.6</ele>
        <time>2024-10-21T07:40:54Z</time>
      </trkpt>
      <trkpt lat="45.85235" lon="1.21042">
        <ele>314.6</ele>
        <time>2024-10-21T07:40:56Z</time>
      </trkpt>
      <trkpt lat="45.85236" lon="1.2104">
        <ele>314.6</ele>
        <time>2024-10-21T07:40:57Z</time>
      </trkpt>
      <trkpt lat="45.85236" lon="1.21038">
        <ele>314.6</ele>
        <time>2024-10-21T07:40:58Z</time>
      </trkpt>
      <trkpt lat="45.85236" lon="1.21036">
        <ele>314.6</ele>
        <time>2024-10-21T07:40:59Z</time>
      </trkpt>
      <trkpt lat="45.85236" lon="1.21034">
        <ele>314.6</ele>
        <time>2024-10-21T07:41:00Z</time>
      </trkpt>
      <trkpt lat="45.85237" lon="1.21033">
        <ele>314.6</ele>
        <time>2024-10-21T07:41:01Z</time>
      </trkpt>
      <trkpt lat="45.85237" lon="1.21032">
        <ele>314.7</ele>
        <time>2024-10-21T07:41:02Z</time>
      </trkpt>
      <trkpt lat="45.85237" lon="1.2103">
        <ele>314.7</ele>
        <time>2024-10-21T07:41:03Z</time>
      </trkpt>
      <trkpt lat="45.85237" lon="1.21028">
        <ele>314.7</ele>
        <time>2024-10-21T07:41:04Z</time>
      </trkpt>
      <trkpt lat="45.85237" lon="1.21026">
        <ele>314.7</ele>
        <time>2024-10-21T07:41:05Z</time>
      </trkpt>
      <trkpt lat="45.85237" lon="1.21025">
        <ele>314.8</ele>
        <time>2024-10-21T07:41:06Z</time>
      </trkpt>
      <trkpt lat="45.85237" lon="1.21024">
        <ele>314.8</ele>
        <time>2024-10-21T07:41:07Z</time>
      </trkpt>
      <trkpt lat="45.85237" lon="1.21024">
        <ele>314.8</ele>
        <time>2024-10-21T07:41:08Z</time>
      </trkpt>
      <trkpt lat="45.85237" lon="1.21023">
        <ele>314.8</ele>
        <time>2024-10-21T07:41:09Z</time>
      </trkpt>
      <trkpt lat="45.85237" lon="1.21023">
        <ele>314.8</ele>
        <time>2024-10-21T07:41:10Z</time>
      </trkpt>
      <trkpt lat="45.85237" lon="1.21023">
        <ele>314.8</ele>
        <time>2024-10-21T07:41:11Z</time>
      </trkpt>
      <trkpt lat="45.85237" lon="1.21023">
        <ele>314.8</ele>
        <time>2024-10-21T07:41:12Z</time>
      </trkpt>
      <trkpt lat="45.85237" lon="1.21022">
        <ele>314.8</ele>
        <time>2024-10-21T07:41:13Z</time>
      </trkpt>
      <trkpt lat="45.85237" lon="1.21022">
        <ele>314.8</ele>
        <time>2024-10-21T07:41:14Z</time>
      </trkpt>
      <trkpt lat="45.85237" lon="1.21022">
        <ele>314.8</ele>
        <time>2024-10-21T07:41:15Z</time>
      </trkpt>
      <trkpt lat="45.85237" lon="1.21021">
        <ele>314.8</ele>
        <time>2024-10-21T07:41:16Z</time>
      </trkpt>
      <trkpt lat="45.85237" lon="1.21021">
        <ele>314.8</ele>
        <time>2024-10-21T07:41:18Z</time>
      </trkpt>
      <trkpt lat="45.85236" lon="1.21021">
        <ele>314.9</ele>
        <time>2024-10-21T07:41:19Z</time>
      </trkpt>
      <trkpt lat="45.85236" lon="1.2102">
        <ele>314.9</ele>
        <time>2024-10-21T07:41:20Z</time>
      </trkpt>
      <trkpt lat="45.85236" lon="1.2102">
        <ele>314.9</ele>
        <time>2024-10-21T07:41:21Z</time>
      </trkpt>
      <trkpt lat="45.85236" lon="1.2102">
        <ele>314.9</ele>
        <time>2024-10-21T07:41:22Z</time>
      </trkpt>
      <trkpt lat="45.85236" lon="1.2102">
        <ele>314.9</ele>
        <time>2024-10-21T07:41:23Z</time>
      </trkpt>
      <trkpt lat="45.85236" lon="1.21019">
        <ele>314.9</ele>
        <time>2024-10-21T07:41:24Z</time>
      </trkpt>
      <trkpt lat="45.85236" lon="1.21019">
        <ele>314.9</ele>
        <time>2024-10-21T07:41:26Z</time>
      </trkpt>
      <trkpt lat="45.85236" lon="1.21019">
        <ele>314.9</ele>
        <time>2024-10-21T07:41:27Z</time>
      </trkpt>
      <trkpt lat="45.85236" lon="1.21018">
        <ele>314.9</ele>
        <time>2024-10-21T07:41:28Z</time>
      </trkpt>
      <trkpt lat="45.85237" lon="1.21014">
        <ele>315</ele>
        <time>2024-10-21T07:41:29Z</time>
      </trkpt>
      <trkpt lat="45.85237" lon="1.21013">
        <ele>315.1</ele>
        <time>2024-10-21T07:41:30Z</time>
      </trkpt>
      <trkpt lat="45.85238" lon="1.21011">
        <ele>315.1</ele>
        <time>2024-10-21T07:41:31Z</time>
      </trkpt>
      <trkpt lat="45.85239" lon="1.2101">
        <ele>315.2</ele>
        <time>2024-10-21T07:41:32Z</time>
      </trkpt>
      <trkpt lat="45.85241" lon="1.21008">
        <ele>315.3</ele>
        <time>2024-10-21T07:41:33Z</time>
      </trkpt>
      <trkpt lat="45.85242" lon="1.21006">
        <ele>315.3</ele>
        <time>2024-10-21T07:41:34Z</time>
      </trkpt>
      <trkpt lat="45.85243" lon="1.21004">
        <ele>315.4</ele>
        <time>2024-10-21T07:41:35Z</time>
      </trkpt>
      <trkpt lat="45.85244" lon="1.21002">
        <ele>315.5</ele>
        <time>2024-10-21T07:41:36Z</time>
      </trkpt>
      <trkpt lat="45.85245" lon="1.21">
        <ele>315.5</ele>
        <time>2024-10-21T07:41:37Z</time>
      </trkpt>
      <trkpt lat="45.85246" lon="1.20998">
        <ele>315.6</ele>
        <time>2024-10-21T07:41:38Z</time>
      </trkpt>
      <trkpt lat="45.85248" lon="1.20994">
        <ele>315.7</ele>
        <time>2024-10-21T07:41:39Z</time>
      </trkpt>
      <trkpt lat="45.85248" lon="1.20992">
        <ele>315.7</ele>
        <time>2024-10-21T07:41:40Z</time>
      </trkpt>
      <trkpt lat="45.85249" lon="1.2099">
        <ele>315.8</ele>
        <time>2024-10-21T07:41:41Z</time>
      </trkpt>
      <trkpt lat="45.85249" lon="1.2099">
        <ele>315.8</ele>
        <time>2024-10-21T07:41:42Z</time>
      </trkpt>
      <trkpt lat="45.8525" lon="1.20988">
        <ele>315.8</ele>
        <time>2024-10-21T07:41:43Z</time>
      </trkpt>
      <trkpt lat="45.85251" lon="1.20986">
        <ele>315.8</ele>
        <time>2024-10-21T07:41:44Z</time>
      </trkpt>
      <trkpt lat="45.85252" lon="1.20983">
        <ele>315.8</ele>
        <time>2024-10-21T07:41:45Z</time>
      </trkpt>
      <trkpt lat="45.85252" lon="1.20982">
        <ele>315.9</ele>
        <time>2024-10-21T07:41:46Z</time>
      </trkpt>
      <trkpt lat="45.85252" lon="1.2098">
        <ele>315.9</ele>
        <time>2024-10-21T07:41:47Z</time>
      </trkpt>
      <trkpt lat="45.85252" lon="1.20978">
        <ele>315.9</ele>
        <time>2024-10-21T07:41:48Z</time>
      </trkpt>
      <trkpt lat="45.85252" lon="1.20976">
        <ele>315.9</ele>
        <time>2024-10-21T07:41:49Z</time>
      </trkpt>
      <trkpt lat="45.85253" lon="1.20974">
        <ele>315.9</ele>
        <time>2024-10-21T07:41:50Z</time>
      </trkpt>
      <trkpt lat="45.85253" lon="1.20973">
        <ele>315.9</ele>
        <time>2024-10-21T07:41:51Z</time>
      </trkpt>
      <trkpt lat="45.85253" lon="1.20971">
        <ele>315.9</ele>
        <time>2024-10-21T07:41:52Z</time>
      </trkpt>
      <trkpt lat="45.85254" lon="1.2097">
        <ele>315.9</ele>
        <time>2024-10-21T07:41:53Z</time>
      </trkpt>
      <trkpt lat="45.85254" lon="1.20968">
        <ele>315.9</ele>
        <time>2024-10-21T07:41:54Z</time>
      </trkpt>
      <trkpt lat="45.85255" lon="1.20966">
        <ele>315.9</ele>
        <time>2024-10-21T07:41:55Z</time>
      </trkpt>
      <trkpt lat="45.85255" lon="1.20964">
        <ele>315.9</ele>
        <time>2024-10-21T07:41:56Z</time>
      </trkpt>
      <trkpt lat="45.85256" lon="1.20963">
        <ele>315.9</ele>
        <time>2024-10-21T07:41:57Z</time>
      </trkpt>
      <trkpt lat="45.85256" lon="1.20962">
        <ele>315.9</ele>
        <time>2024-10-21T07:41:58Z</time>
      </trkpt>
      <trkpt lat="45.85257" lon="1.2096">
        <ele>315.9</ele>
        <time>2024-10-21T07:41:59Z</time>
      </trkpt>
      <trkpt lat="45.85259" lon="1.20959">
        <ele>315.9</ele>
        <time>2024-10-21T07:42:00Z</time>
      </trkpt>
      <trkpt lat="45.85259" lon="1.20958">
        <ele>315.9</ele>
        <time>2024-10-21T07:42:01Z</time>
      </trkpt>
      <trkpt lat="45.8526" lon="1.20957">
        <ele>315.9</ele>
        <time>2024-10-21T07:42:02Z</time>
      </trkpt>
      <trkpt lat="45.85261" lon="1.20956">
        <ele>315.9</ele>
        <time>2024-10-21T07:42:03Z</time>
      </trkpt>
      <trkpt lat="45.85261" lon="1.20955">
        <ele>315.9</ele>
        <time>2024-10-21T07:42:04Z</time>
      </trkpt>
      <trkpt lat="45.85262" lon="1.20953">
        <ele>315.9</ele>
        <time>2024-10-21T07:42:05Z</time>
      </trkpt>
      <trkpt lat="45.85262" lon="1.20952">
        <ele>315.9</ele>
        <time>2024-10-21T07:42:06Z</time>
      </trkpt>
      <trkpt lat="45.85263" lon="1.2095">
        <ele>315.9</ele>
        <time>2024-10-21T07:42:07Z</time>
      </trkpt>
      <trkpt lat="45.85263" lon="1.2095">
        <ele>315.9</ele>
        <time>2024-10-21T07:42:08Z</time>
      </trkpt>
      <trkpt lat="45.85264" lon="1.20948">
        <ele>315.9</ele>
        <time>2024-10-21T07:42:09Z</time>
      </trkpt>
      <trkpt lat="45.85264" lon="1.20947">
        <ele>315.9</ele>
        <time>2024-10-21T07:42:10Z</time>
      </trkpt>
      <trkpt lat="45.85264" lon="1.20947">
        <ele>316</ele>
        <time>2024-10-21T07:42:11Z</time>
      </trkpt>
      <trkpt lat="45.85265" lon="1.20946">
        <ele>316</ele>
        <time>2024-10-21T07:42:12Z</time>
      </trkpt>
      <trkpt lat="45.85265" lon="1.20945">
        <ele>316</ele>
        <time>2024-10-21T07:42:13Z</time>
      </trkpt>
      <trkpt lat="45.85266" lon="1.20945">
        <ele>316</ele>
        <time>2024-10-21T07:42:14Z</time>
      </trkpt>
      <trkpt lat="45.85267" lon="1.20944">
        <ele>316</ele>
        <time>2024-10-21T07:42:15Z</time>
      </trkpt>
      <trkpt lat="45.85267" lon="1.20943">
        <ele>316</ele>
        <time>2024-10-21T07:42:16Z</time>
      </trkpt>
      <trkpt lat="45.85268" lon="1.20942">
        <ele>316</ele>
        <time>2024-10-21T07:42:17Z</time>
      </trkpt>
      <trkpt lat="45.85268" lon="1.20941">
        <ele>316</ele>
        <time>2024-10-21T07:42:18Z</time>
      </trkpt>
      <trkpt lat="45.85268" lon="1.20941">
        <ele>316.1</ele>
        <time>2024-10-21T07:42:19Z</time>
      </trkpt>
      <trkpt lat="45.85267" lon="1.2094">
        <ele>316.1</ele>
        <time>2024-10-21T07:42:20Z</time>
      </trkpt>
      <trkpt lat="45.85267" lon="1.20939">
        <ele>316.1</ele>
        <time>2024-10-21T07:42:21Z</time>
      </trkpt>
      <trkpt lat="45.85267" lon="1.20938">
        <ele>316.1</ele>
        <time>2024-10-21T07:42:22Z</time>
      </trkpt>
      <trkpt lat="45.85267" lon="1.20937">
        <ele>316.1</ele>
        <time>2024-10-21T07:42:23Z</time>
      </trkpt>
      <trkpt lat="45.85268" lon="1.20937">
        <ele>316.2</ele>
        <time>2024-10-21T07:42:24Z</time>
      </trkpt>
      <trkpt lat="45.85269" lon="1.20938">
        <ele>316.2</ele>
        <time>2024-10-21T07:42:25Z</time>
      </trkpt>
      <trkpt lat="45.85271" lon="1.20938">
        <ele>316.3</ele>
        <time>2024-10-21T07:42:26Z</time>
      </trkpt>
      <trkpt lat="45.85271" lon="1.20939">
        <ele>316.3</ele>
        <time>2024-10-21T07:42:27Z</time>
      </trkpt>
      <trkpt lat="45.85272" lon="1.20939">
        <ele>316.3</ele>
        <time>2024-10-21T07:42:28Z</time>
      </trkpt>
      <trkpt lat="45.85273" lon="1.20937">
        <ele>316.4</ele>
        <time>2024-10-21T07:42:29Z</time>
      </trkpt>
      <trkpt lat="45.85273" lon="1.20935">
        <ele>316.4</ele>
        <time>2024-10-21T07:42:30Z</time>
      </trkpt>
      <trkpt lat="45.85275" lon="1.20933">
        <ele>316.6</ele>
        <time>2024-10-21T07:42:31Z</time>
      </trkpt>
      <trkpt lat="45.85276" lon="1.20933">
        <ele>316.6</ele>
        <time>2024-10-21T07:42:32Z</time>
      </trkpt>
      <trkpt lat="45.85279" lon="1.20931">
        <ele>316.8</ele>
        <time>2024-10-21T07:42:33Z</time>
      </trkpt>
      <trkpt lat="45.8528" lon="1.20931">
        <ele>316.9</ele>
        <time>2024-10-21T07:42:34Z</time>
      </trkpt>
      <trkpt lat="45.85283" lon="1.20929">
        <ele>317</ele>
        <time>2024-10-21T07:42:35Z</time>
      </trkpt>
      <trkpt lat="45.85283" lon="1.20928">
        <ele>317.1</ele>
        <time>2024-10-21T07:42:36Z</time>
      </trkpt>
      <trkpt lat="45.85285" lon="1.20926">
        <ele>317.2</ele>
        <time>2024-10-21T07:42:37Z</time>
      </trkpt>
      <trkpt lat="45.85285" lon="1.20924">
        <ele>317.3</ele>
        <time>2024-10-21T07:42:38Z</time>
      </trkpt>
      <trkpt lat="45.85286" lon="1.20923">
        <ele>317.3</ele>
        <time>2024-10-21T07:42:39Z</time>
      </trkpt>
      <trkpt lat="45.85287" lon="1.20921">
        <ele>317.4</ele>
        <time>2024-10-21T07:42:40Z</time>
      </trkpt>
      <trkpt lat="45.85289" lon="1.2092">
        <ele>317.5</ele>
        <time>2024-10-21T07:42:41Z</time>
      </trkpt>
      <trkpt lat="45.8529" lon="1.20919">
        <ele>317.6</ele>
        <time>2024-10-21T07:42:42Z</time>
      </trkpt>
      <trkpt lat="45.85291" lon="1.20917">
        <ele>317.6</ele>
        <time>2024-10-21T07:42:43Z</time>
      </trkpt>
      <trkpt lat="45.85292" lon="1.20916">
        <ele>317.7</ele>
        <time>2024-10-21T07:42:44Z</time>
      </trkpt>
      <trkpt lat="45.85292" lon="1.20915">
        <ele>317.7</ele>
        <time>2024-10-21T07:42:45Z</time>
      </trkpt>
      <trkpt lat="45.85293" lon="1.20914">
        <ele>317.8</ele>
        <time>2024-10-21T07:42:46Z</time>
      </trkpt>
      <trkpt lat="45.85294" lon="1.20913">
        <ele>317.8</ele>
        <time>2024-10-21T07:42:47Z</time>
      </trkpt>
      <trkpt lat="45.85295" lon="1.20912">
        <ele>317.8</ele>
        <time>2024-10-21T07:42:48Z</time>
      </trkpt>
      <trkpt lat="45.85296" lon="1.20911">
        <ele>317.9</ele>
        <time>2024-10-21T07:42:49Z</time>
      </trkpt>
      <trkpt lat="45.85297" lon="1.20911">
        <ele>317.9</ele>
        <time>2024-10-21T07:42:50Z</time>
      </trkpt>
      <trkpt lat="45.85298" lon="1.2091">
        <ele>317.9</ele>
        <time>2024-10-21T07:42:51Z</time>
      </trkpt>
      <trkpt lat="45.85299" lon="1.20908">
        <ele>317.9</ele>
        <time>2024-10-21T07:42:52Z</time>
      </trkpt>
      <trkpt lat="45.853" lon="1.20907">
        <ele>317.9</ele>
        <time>2024-10-21T07:42:53Z</time>
      </trkpt>
      <trkpt lat="45.85301" lon="1.20906">
        <ele>317.9</ele>
        <time>2024-10-21T07:42:54Z</time>
      </trkpt>
      <trkpt lat="45.85301" lon="1.20905">
        <ele>318</ele>
        <time>2024-10-21T07:42:55Z</time>
      </trkpt>
      <trkpt lat="45.85302" lon="1.20904">
        <ele>318</ele>
        <time>2024-10-21T07:42:56Z</time>
      </trkpt>
      <trkpt lat="45.85302" lon="1.20902">
        <ele>318</ele>
        <time>2024-10-21T07:42:57Z</time>
      </trkpt>
      <trkpt lat="45.85303" lon="1.209">
        <ele>317.9</ele>
        <time>2024-10-21T07:42:58Z</time>
      </trkpt>
      <trkpt lat="45.85303" lon="1.20899">
        <ele>317.9</ele>
        <time>2024-10-21T07:42:59Z</time>
      </trkpt>
      <trkpt lat="45.85303" lon="1.20898">
        <ele>317.9</ele>
        <time>2024-10-21T07:43:00Z</time>
      </trkpt>
      <trkpt lat="45.85303" lon="1.20897">
        <ele>317.9</ele>
        <time>2024-10-21T07:43:01Z</time>
      </trkpt>
      <trkpt lat="45.85303" lon="1.20895">
        <ele>317.9</ele>
        <time>2024-10-21T07:43:02Z</time>
      </trkpt>
      <trkpt lat="45.85302" lon="1.20893">
        <ele>317.9</ele>
        <time>2024-10-21T07:43:03Z</time>
      </trkpt>
      <trkpt lat="45.85302" lon="1.20892">
        <ele>317.9</ele>
        <time>2024-10-21T07:43:04Z</time>
      </trkpt>
      <trkpt lat="45.85301" lon="1.20889">
        <ele>317.8</ele>
        <time>2024-10-21T07:43:05Z</time>
      </trkpt>
      <trkpt lat="45.85301" lon="1.20888">
        <ele>317.8</ele>
        <time>2024-10-21T07:43:06Z</time>
      </trkpt>
      <trkpt lat="45.853" lon="1.20887">
        <ele>317.8</ele>
        <time>2024-10-21T07:43:07Z</time>
      </trkpt>
      <trkpt lat="45.853" lon="1.20886">
        <ele>317.8</ele>
        <time>2024-10-21T07:43:08Z</time>
      </trkpt>
      <trkpt lat="45.85299" lon="1.20884">
        <ele>317.8</ele>
        <time>2024-10-21T07:43:09Z</time>
      </trkpt>
      <trkpt lat="45.85299" lon="1.20884">
        <ele>317.8</ele>
        <time>2024-10-21T07:43:10Z</time>
      </trkpt>
      <trkpt lat="45.85299" lon="1.20883">
        <ele>317.8</ele>
        <time>2024-10-21T07:43:11Z</time>
      </trkpt>
      <trkpt lat="45.85299" lon="1.20881">
        <ele>317.8</ele>
        <time>2024-10-21T07:43:12Z</time>
      </trkpt>
      <trkpt lat="45.85299" lon="1.20881">
        <ele>317.8</ele>
        <time>2024-10-21T07:43:13Z</time>
      </trkpt>
      <trkpt lat="45.85299" lon="1.2088">
        <ele>317.8</ele>
        <time>2024-10-21T07:43:14Z</time>
      </trkpt>
      <trkpt lat="45.85299" lon="1.20879">
        <ele>317.8</ele>
        <time>2024-10-21T07:43:15Z</time>
      </trkpt>
      <trkpt lat="45.85298" lon="1.20879">
        <ele>317.8</ele>
        <time>2024-10-21T07:43:16Z</time>
      </trkpt>
      <trkpt lat="45.85299" lon="1.20878">
        <ele>317.8</ele>
        <time>2024-10-21T07:43:17Z</time>
      </trkpt>
      <trkpt lat="45.85299" lon="1.20877">
        <ele>317.8</ele>
        <time>2024-10-21T07:43:18Z</time>
      </trkpt>
      <trkpt lat="45.853" lon="1.20878">
        <ele>317.8</ele>
        <time>2024-10-21T07:43:19Z</time>
      </trkpt>
      <trkpt lat="45.853" lon="1.20877">
        <ele>317.8</ele>
        <time>2024-10-21T07:43:20Z</time>
      </trkpt>
      <trkpt lat="45.85301" lon="1.20877">
        <ele>317.8</ele>
        <time>2024-10-21T07:43:21Z</time>
      </trkpt>
      <trkpt lat="45.85302" lon="1.20876">
        <ele>317.9</ele>
        <time>2024-10-21T07:43:22Z</time>
      </trkpt>
      <trkpt lat="45.85302" lon="1.20875">
        <ele>317.9</ele>
        <time>2024-10-21T07:43:23Z</time>
      </trkpt>
      <trkpt lat="45.85303" lon="1.20875">
        <ele>317.9</ele>
        <time>2024-10-21T07:43:24Z</time>
      </trkpt>
      <trkpt lat="45.85303" lon="1.20874">
        <ele>317.9</ele>
        <time>2024-10-21T07:43:25Z</time>
      </trkpt>
      <trkpt lat="45.85303" lon="1.20874">
        <ele>317.9</ele>
        <time>2024-10-21T07:43:26Z</time>
      </trkpt>
      <trkpt lat="45.85304" lon="1.20873">
        <ele>317.9</ele>
        <time>2024-10-21T07:43:27Z</time>
      </trkpt>
      <trkpt lat="45.85304" lon="1.20872">
        <ele>318</ele>
        <time>2024-10-21T07:43:28Z</time>
      </trkpt>
      <trkpt lat="45.85305" lon="1.2087">
        <ele>318</ele>
        <time>2024-10-21T07:43:29Z</time>
      </trkpt>
      <trkpt lat="45.85305" lon="1.20869">
        <ele>318.1</ele>
        <time>2024-10-21T07:43:30Z</time>
      </trkpt>
      <trkpt lat="45.85307" lon="1.20867">
        <ele>318.1</ele>
        <time>2024-10-21T07:43:31Z</time>
      </trkpt>
      <trkpt lat="45.85308" lon="1.20865">
        <ele>318.2</ele>
        <time>2024-10-21T07:43:32Z</time>
      </trkpt>
      <trkpt lat="45.85309" lon="1.20864">
        <ele>318.3</ele>
        <time>2024-10-21T07:43:33Z</time>
      </trkpt>
      <trkpt lat="45.8531" lon="1.20863">
        <ele>318.3</ele>
        <time>2024-10-21T07:43:34Z</time>
      </trkpt>
      <trkpt lat="45.85313" lon="1.20862">
        <ele>318.5</ele>
        <time>2024-10-21T07:43:35Z</time>
      </trkpt>
      <trkpt lat="45.85314" lon="1.20861">
        <ele>318.6</ele>
        <time>2024-10-21T07:43:36Z</time>
      </trkpt>
      <trkpt lat="45.85315" lon="1.2086">
        <ele>318.7</ele>
        <time>2024-10-21T07:43:37Z</time>
      </trkpt>
      <trkpt lat="45.85316" lon="1.20858">
        <ele>318.8</ele>
        <time>2024-10-21T07:43:38Z</time>
      </trkpt>
      <trkpt lat="45.85318" lon="1.20856">
        <ele>318.9</ele>
        <time>2024-10-21T07:43:39Z</time>
      </trkpt>
      <trkpt lat="45.85319" lon="1.20855">
        <ele>319</ele>
        <time>2024-10-21T07:43:40Z</time>
      </trkpt>
      <trkpt lat="45.85321" lon="1.20853">
        <ele>319.1</ele>
        <time>2024-10-21T07:43:41Z</time>
      </trkpt>
      <trkpt lat="45.85321" lon="1.20851">
        <ele>319.2</ele>
        <time>2024-10-21T07:43:42Z</time>
      </trkpt>
      <trkpt lat="45.85322" lon="1.20849">
        <ele>319.3</ele>
        <time>2024-10-21T07:43:43Z</time>
      </trkpt>
      <trkpt lat="45.85322" lon="1.20847">
        <ele>319.4</ele>
        <time>2024-10-21T07:43:44Z</time>
      </trkpt>
      <trkpt lat="45.85323" lon="1.20845">
        <ele>319.5</ele>
        <time>2024-10-21T07:43:45Z</time>
      </trkpt>
      <trkpt lat="45.85324" lon="1.20843">
        <ele>319.6</ele>
        <time>2024-10-21T07:43:46Z</time>
      </trkpt>
      <trkpt lat="45.85324" lon="1.20842">
        <ele>319.6</ele>
        <time>2024-10-21T07:43:47Z</time>
      </trkpt>
      <trkpt lat="45.85324" lon="1.20841">
        <ele>319.6</ele>
        <time>2024-10-21T07:43:48Z</time>
      </trkpt>
      <trkpt lat="45.85324" lon="1.2084">
        <ele>319.7</ele>
        <time>2024-10-21T07:43:49Z</time>
      </trkpt>
      <trkpt lat="45.85324" lon="1.20839">
        <ele>319.7</ele>
        <time>2024-10-21T07:43:50Z</time>
      </trkpt>
      <trkpt lat="45.85324" lon="1.20837">
        <ele>319.8</ele>
        <time>2024-10-21T07:43:51Z</time>
      </trkpt>
      <trkpt lat="45.85324" lon="1.20836">
        <ele>319.8</ele>
        <time>2024-10-21T07:43:52Z</time>
      </trkpt>
      <trkpt lat="45.85325" lon="1.20835">
        <ele>319.8</ele>
        <time>2024-10-21T07:43:53Z</time>
      </trkpt>
      <trkpt lat="45.85325" lon="1.20834">
        <ele>319.9</ele>
        <time>2024-10-21T07:43:54Z</time>
      </trkpt>
      <trkpt lat="45.85325" lon="1.20832">
        <ele>319.9</ele>
        <time>2024-10-21T07:43:55Z</time>
      </trkpt>
      <trkpt lat="45.85325" lon="1.2083">
        <ele>319.9</ele>
        <time>2024-10-21T07:43:56Z</time>
      </trkpt>
      <trkpt lat="45.85325" lon="1.2083">
        <ele>320</ele>
        <time>2024-10-21T07:43:57Z</time>
      </trkpt>
      <trkpt lat="45.85326" lon="1.20829">
        <ele>320</ele>
        <time>2024-10-21T07:43:58Z</time>
      </trkpt>
      <trkpt lat="45.85326" lon="1.20828">
        <ele>320</ele>
        <time>2024-10-21T07:43:59Z</time>
      </trkpt>
      <trkpt lat="45.85326" lon="1.20827">
        <ele>320</ele>
        <time>2024-10-21T07:44:00Z</time>
      </trkpt>
      <trkpt lat="45.85327" lon="1.20825">
        <ele>320.1</ele>
        <time>2024-10-21T07:44:01Z</time>
      </trkpt>
      <trkpt lat="45.85327" lon="1.20825">
        <ele>320.1</ele>
        <time>2024-10-21T07:44:02Z</time>
      </trkpt>
      <trkpt lat="45.85327" lon="1.20824">
        <ele>320.1</ele>
        <time>2024-10-21T07:44:03Z</time>
      </trkpt>
      <trkpt lat="45.85328" lon="1.20822">
        <ele>320.1</ele>
        <time>2024-10-21T07:44:04Z</time>
      </trkpt>
      <trkpt lat="45.85329" lon="1.20821">
        <ele>320.1</ele>
        <time>2024-10-21T07:44:06Z</time>
      </trkpt>
      <trkpt lat="45.8533" lon="1.2082">
        <ele>320.1</ele>
        <time>2024-10-21T07:44:07Z</time>
      </trkpt>
      <trkpt lat="45.8533" lon="1.2082">
        <ele>320.2</ele>
        <time>2024-10-21T07:44:08Z</time>
      </trkpt>
      <trkpt lat="45.8533" lon="1.20819">
        <ele>320.2</ele>
        <time>2024-10-21T07:44:09Z</time>
      </trkpt>
      <trkpt lat="45.85331" lon="1.20818">
        <ele>320.2</ele>
        <time>2024-10-21T07:44:10Z</time>
      </trkpt>
      <trkpt lat="45.85331" lon="1.20817">
        <ele>320.2</ele>
        <time>2024-10-21T07:44:11Z</time>
      </trkpt>
      <trkpt lat="45.8533" lon="1.20815">
        <ele>320.2</ele>
        <time>2024-10-21T07:44:12Z</time>
      </trkpt>
      <trkpt lat="45.85329" lon="1.20814">
        <ele>320.2</ele>
        <time>2024-10-21T07:44:14Z</time>
      </trkpt>
      <trkpt lat="45.85329" lon="1.20813">
        <ele>320.3</ele>
        <time>2024-10-21T07:44:15Z</time>
      </trkpt>
      <trkpt lat="45.85327" lon="1.2081">
        <ele>320.3</ele>
        <time>2024-10-21T07:44:16Z</time>
      </trkpt>
      <trkpt lat="45.85327" lon="1.20808">
        <ele>320.3</ele>
        <time>2024-10-21T07:44:18Z</time>
      </trkpt>
      <trkpt lat="45.85328" lon="1.20807">
        <ele>320.3</ele>
        <time>2024-10-21T07:44:19Z</time>
      </trkpt>
      <trkpt lat="45.85329" lon="1.20804">
        <ele>320.4</ele>
        <time>2024-10-21T07:44:20Z</time>
      </trkpt>
      <trkpt lat="45.8533" lon="1.20803">
        <ele>320.4</ele>
        <time>2024-10-21T07:44:21Z</time>
      </trkpt>
      <trkpt lat="45.8533" lon="1.20803">
        <ele>320.4</ele>
        <time>2024-10-21T07:44:22Z</time>
      </trkpt>
      <trkpt lat="45.85332" lon="1.20801">
        <ele>320.5</ele>
        <time>2024-10-21T07:44:23Z</time>
      </trkpt>
      <trkpt lat="45.85332" lon="1.208">
        <ele>320.5</ele>
        <time>2024-10-21T07:44:24Z</time>
      </trkpt>
      <trkpt lat="45.85333" lon="1.20799">
        <ele>320.5</ele>
        <time>2024-10-21T07:44:25Z</time>
      </trkpt>
      <trkpt lat="45.85335" lon="1.20797">
        <ele>320.6</ele>
        <time>2024-10-21T07:44:26Z</time>
      </trkpt>
      <trkpt lat="45.85335" lon="1.20796">
        <ele>320.6</ele>
        <time>2024-10-21T07:44:27Z</time>
      </trkpt>
      <trkpt lat="45.85336" lon="1.20795">
        <ele>320.6</ele>
        <time>2024-10-21T07:44:28Z</time>
      </trkpt>
      <trkpt lat="45.85338" lon="1.20793">
        <ele>320.7</ele>
        <time>2024-10-21T07:44:29Z</time>
      </trkpt>
      <trkpt lat="45.85339" lon="1.20793">
        <ele>320.7</ele>
        <time>2024-10-21T07:44:30Z</time>
      </trkpt>
      <trkpt lat="45.85339" lon="1.20792">
        <ele>320.8</ele>
        <time>2024-10-21T07:44:31Z</time>
      </trkpt>
      <trkpt lat="45.8534" lon="1.20792">
        <ele>320.8</ele>
        <time>2024-10-21T07:44:32Z</time>
      </trkpt>
      <trkpt lat="45.85341" lon="1.20791">
        <ele>320.8</ele>
        <time>2024-10-21T07:44:33Z</time>
      </trkpt>
      <trkpt lat="45.85343" lon="1.20791">
        <ele>320.9</ele>
        <time>2024-10-21T07:44:34Z</time>
      </trkpt>
      <trkpt lat="45.85344" lon="1.2079">
        <ele>320.9</ele>
        <time>2024-10-21T07:44:35Z</time>
      </trkpt>
      <trkpt lat="45.85345" lon="1.20789">
        <ele>321</ele>
        <time>2024-10-21T07:44:36Z</time>
      </trkpt>
      <trkpt lat="45.85346" lon="1.20789">
        <ele>321</ele>
        <time>2024-10-21T07:44:37Z</time>
      </trkpt>
      <trkpt lat="45.85347" lon="1.20788">
        <ele>321</ele>
        <time>2024-10-21T07:44:38Z</time>
      </trkpt>
      <trkpt lat="45.85348" lon="1.20787">
        <ele>321.1</ele>
        <time>2024-10-21T07:44:39Z</time>
      </trkpt>
      <trkpt lat="45.85349" lon="1.20786">
        <ele>321.1</ele>
        <time>2024-10-21T07:44:40Z</time>
      </trkpt>
      <trkpt lat="45.85349" lon="1.20785">
        <ele>321.2</ele>
        <time>2024-10-21T07:44:41Z</time>
      </trkpt>
      <trkpt lat="45.85351" lon="1.20782">
        <ele>321.2</ele>
        <time>2024-10-21T07:44:42Z</time>
      </trkpt>
      <trkpt lat="45.85352" lon="1.2078">
        <ele>321.3</ele>
        <time>2024-10-21T07:44:44Z</time>
      </trkpt>
      <trkpt lat="45.85353" lon="1.20779">
        <ele>321.4</ele>
        <time>2024-10-21T07:44:45Z</time>
      </trkpt>
      <trkpt lat="45.85353" lon="1.20778">
        <ele>321.4</ele>
        <time>2024-10-21T07:44:46Z</time>
      </trkpt>
      <trkpt lat="45.85354" lon="1.20777">
        <ele>321.4</ele>
        <time>2024-10-21T07:44:47Z</time>
      </trkpt>
      <trkpt lat="45.85355" lon="1.20776">
        <ele>321.5</ele>
        <time>2024-10-21T07:44:48Z</time>
      </trkpt>
      <trkpt lat="45.85355" lon="1.20774">
        <ele>321.5</ele>
        <time>2024-10-21T07:44:49Z</time>
      </trkpt>
      <trkpt lat="45.85356" lon="1.20773">
        <ele>321.6</ele>
        <time>2024-10-21T07:44:50Z</time>
      </trkpt>
      <trkpt lat="45.85357" lon="1.20771">
        <ele>321.6</ele>
        <time>2024-10-21T07:44:51Z</time>
      </trkpt>
      <trkpt lat="45.85358" lon="1.20771">
        <ele>321.6</ele>
        <time>2024-10-21T07:44:52Z</time>
      </trkpt>
      <trkpt lat="45.85359" lon="1.2077">
        <ele>321.7</ele>
        <time>2024-10-21T07:44:53Z</time>
      </trkpt>
      <trkpt lat="45.8536" lon="1.20769">
        <ele>321.7</ele>
        <time>2024-10-21T07:44:54Z</time>
      </trkpt>
      <trkpt lat="45.8536" lon="1.20768">
        <ele>321.7</ele>
        <time>2024-10-21T07:44:55Z</time>
      </trkpt>
      <trkpt lat="45.85361" lon="1.20767">
        <ele>321.8</ele>
        <time>2024-10-21T07:44:56Z</time>
      </trkpt>
      <trkpt lat="45.85362" lon="1.20766">
        <ele>321.8</ele>
        <time>2024-10-21T07:44:57Z</time>
      </trkpt>
      <trkpt lat="45.85363" lon="1.20766">
        <ele>321.8</ele>
        <time>2024-10-21T07:44:58Z</time>
      </trkpt>
      <trkpt lat="45.85364" lon="1.20765">
        <ele>321.9</ele>
        <time>2024-10-21T07:44:59Z</time>
      </trkpt>
      <trkpt lat="45.85364" lon="1.20763">
        <ele>321.9</ele>
        <time>2024-10-21T07:45:00Z</time>
      </trkpt>
      <trkpt lat="45.85365" lon="1.20762">
        <ele>322</ele>
        <time>2024-10-21T07:45:01Z</time>
      </trkpt>
      <trkpt lat="45.85366" lon="1.20761">
        <ele>322</ele>
        <time>2024-10-21T07:45:02Z</time>
      </trkpt>
      <trkpt lat="45.85366" lon="1.2076">
        <ele>322</ele>
        <time>2024-10-21T07:45:03Z</time>
      </trkpt>
      <trkpt lat="45.85368" lon="1.20758">
        <ele>322.1</ele>
        <time>2024-10-21T07:45:04Z</time>
      </trkpt>
      <trkpt lat="45.85368" lon="1.20757">
        <ele>322.1</ele>
        <time>2024-10-21T07:45:05Z</time>
      </trkpt>
      <trkpt lat="45.85369" lon="1.20756">
        <ele>322.1</ele>
        <time>2024-10-21T07:45:06Z</time>
      </trkpt>
      <trkpt lat="45.8537" lon="1.20754">
        <ele>322.2</ele>
        <time>2024-10-21T07:45:07Z</time>
      </trkpt>
      <trkpt lat="45.8537" lon="1.20753">
        <ele>322.2</ele>
        <time>2024-10-21T07:45:08Z</time>
      </trkpt>
      <trkpt lat="45.85371" lon="1.20752">
        <ele>322.2</ele>
        <time>2024-10-21T07:45:09Z</time>
      </trkpt>
      <trkpt lat="45.85371" lon="1.20751">
        <ele>322.2</ele>
        <time>2024-10-21T07:45:10Z</time>
      </trkpt>
      <trkpt lat="45.85371" lon="1.2075">
        <ele>322.2</ele>
        <time>2024-10-21T07:45:11Z</time>
      </trkpt>
      <trkpt lat="45.85371" lon="1.20749">
        <ele>322.3</ele>
        <time>2024-10-21T07:45:12Z</time>
      </trkpt>
      <trkpt lat="45.85371" lon="1.20747">
        <ele>322.3</ele>
        <time>2024-10-21T07:45:13Z</time>
      </trkpt>
      <trkpt lat="45.85372" lon="1.20746">
        <ele>322.3</ele>
        <time>2024-10-21T07:45:14Z</time>
      </trkpt>
      <trkpt lat="45.85372" lon="1.20745">
        <ele>322.3</ele>
        <time>2024-10-21T07:45:15Z</time>
      </trkpt>
      <trkpt lat="45.85373" lon="1.20744">
        <ele>322.4</ele>
        <time>2024-10-21T07:45:16Z</time>
      </trkpt>
      <trkpt lat="45.85374" lon="1.20743">
        <ele>322.4</ele>
        <time>2024-10-21T07:45:17Z</time>
      </trkpt>
      <trkpt lat="45.85375" lon="1.20742">
        <ele>322.4</ele>
        <time>2024-10-21T07:45:18Z</time>
      </trkpt>
      <trkpt lat="45.85376" lon="1.20741">
        <ele>322.4</ele>
        <time>2024-10-21T07:45:19Z</time>
      </trkpt>
      <trkpt lat="45.85376" lon="1.2074">
        <ele>322.5</ele>
        <time>2024-10-21T07:45:20Z</time>
      </trkpt>
      <trkpt lat="45.85376" lon="1.20739">
        <ele>322.5</ele>
        <time>2024-10-21T07:45:21Z</time>
      </trkpt>
      <trkpt lat="45.85376" lon="1.20738">
        <ele>322.5</ele>
        <time>2024-10-21T07:45:22Z</time>
      </trkpt>
      <trkpt lat="45.85377" lon="1.20737">
        <ele>322.5</ele>
        <time>2024-10-21T07:45:23Z</time>
      </trkpt>
      <trkpt lat="45.85379" lon="1.20735">
        <ele>322.6</ele>
        <time>2024-10-21T07:45:24Z</time>
      </trkpt>
      <trkpt lat="45.85379" lon="1.20734">
        <ele>322.6</ele>
        <time>2024-10-21T07:45:25Z</time>
      </trkpt>
      <trkpt lat="45.8538" lon="1.20733">
        <ele>322.6</ele>
        <time>2024-10-21T07:45:26Z</time>
      </trkpt>
      <trkpt lat="45.8538" lon="1.20732">
        <ele>322.6</ele>
        <time>2024-10-21T07:45:27Z</time>
      </trkpt>
      <trkpt lat="45.8538" lon="1.2073">
        <ele>322.7</ele>
        <time>2024-10-21T07:45:28Z</time>
      </trkpt>
      <trkpt lat="45.85381" lon="1.20729">
        <ele>322.7</ele>
        <time>2024-10-21T07:45:29Z</time>
      </trkpt>
      <trkpt lat="45.85381" lon="1.20727">
        <ele>322.7</ele>
        <time>2024-10-21T07:45:30Z</time>
      </trkpt>
      <trkpt lat="45.85381" lon="1.20725">
        <ele>322.8</ele>
        <time>2024-10-21T07:45:31Z</time>
      </trkpt>
      <trkpt lat="45.85382" lon="1.20724">
        <ele>322.8</ele>
        <time>2024-10-21T07:45:32Z</time>
      </trkpt>
      <trkpt lat="45.85382" lon="1.20723">
        <ele>322.8</ele>
        <time>2024-10-21T07:45:33Z</time>
      </trkpt>
      <trkpt lat="45.85382" lon="1.20722">
        <ele>322.9</ele>
        <time>2024-10-21T07:45:34Z</time>
      </trkpt>
      <trkpt lat="45.85383" lon="1.20721">
        <ele>322.9</ele>
        <time>2024-10-21T07:45:35Z</time>
      </trkpt>
      <trkpt lat="45.85383" lon="1.20719">
        <ele>323</ele>
        <time>2024-10-21T07:45:36Z</time>
      </trkpt>
      <trkpt lat="45.85383" lon="1.20718">
        <ele>323</ele>
        <time>2024-10-21T07:45:37Z</time>
      </trkpt>
      <trkpt lat="45.85384" lon="1.20716">
        <ele>323</ele>
        <time>2024-10-21T07:45:38Z</time>
      </trkpt>
      <trkpt lat="45.85384" lon="1.20714">
        <ele>323.1</ele>
        <time>2024-10-21T07:45:39Z</time>
      </trkpt>
      <trkpt lat="45.85385" lon="1.20713">
        <ele>323.1</ele>
        <time>2024-10-21T07:45:40Z</time>
      </trkpt>
      <trkpt lat="45.85385" lon="1.20712">
        <ele>323.2</ele>
        <time>2024-10-21T07:45:41Z</time>
      </trkpt>
      <trkpt lat="45.85386" lon="1.2071">
        <ele>323.2</ele>
        <time>2024-10-21T07:45:42Z</time>
      </trkpt>
      <trkpt lat="45.85386" lon="1.20709">
        <ele>323.3</ele>
        <time>2024-10-21T07:45:43Z</time>
      </trkpt>
      <trkpt lat="45.85387" lon="1.20708">
        <ele>323.3</ele>
        <time>2024-10-21T07:45:44Z</time>
      </trkpt>
      <trkpt lat="45.85387" lon="1.20707">
        <ele>323.3</ele>
        <time>2024-10-21T07:45:45Z</time>
      </trkpt>
      <trkpt lat="45.85388" lon="1.20705">
        <ele>323.4</ele>
        <time>2024-10-21T07:45:46Z</time>
      </trkpt>
      <trkpt lat="45.85388" lon="1.20705">
        <ele>323.4</ele>
        <time>2024-10-21T07:45:47Z</time>
      </trkpt>
      <trkpt lat="45.85389" lon="1.20704">
        <ele>323.5</ele>
        <time>2024-10-21T07:45:48Z</time>
      </trkpt>
      <trkpt lat="45.8539" lon="1.20703">
        <ele>323.5</ele>
        <time>2024-10-21T07:45:49Z</time>
      </trkpt>
      <trkpt lat="45.85391" lon="1.20702">
        <ele>323.6</ele>
        <time>2024-10-21T07:45:50Z</time>
      </trkpt>
      <trkpt lat="45.85393" lon="1.20702">
        <ele>323.6</ele>
        <time>2024-10-21T07:45:51Z</time>
      </trkpt>
      <trkpt lat="45.85394" lon="1.20702">
        <ele>323.7</ele>
        <time>2024-10-21T07:45:52Z</time>
      </trkpt>
      <trkpt lat="45.85395" lon="1.20702">
        <ele>323.7</ele>
        <time>2024-10-21T07:45:53Z</time>
      </trkpt>
      <trkpt lat="45.85397" lon="1.20702">
        <ele>323.8</ele>
        <time>2024-10-21T07:45:54Z</time>
      </trkpt>
      <trkpt lat="45.85398" lon="1.20702">
        <ele>323.8</ele>
        <time>2024-10-21T07:45:55Z</time>
      </trkpt>
      <trkpt lat="45.85399" lon="1.20703">
        <ele>323.9</ele>
        <time>2024-10-21T07:45:56Z</time>
      </trkpt>
      <trkpt lat="45.854" lon="1.20703">
        <ele>323.9</ele>
        <time>2024-10-21T07:45:57Z</time>
      </trkpt>
      <trkpt lat="45.85401" lon="1.20702">
        <ele>324</ele>
        <time>2024-10-21T07:45:58Z</time>
      </trkpt>
      <trkpt lat="45.85402" lon="1.20702">
        <ele>324</ele>
        <time>2024-10-21T07:45:59Z</time>
      </trkpt>
      <trkpt lat="45.85403" lon="1.207">
        <ele>324</ele>
        <time>2024-10-21T07:46:00Z</time>
      </trkpt>
      <trkpt lat="45.85403" lon="1.20698">
        <ele>324.1</ele>
        <time>2024-10-21T07:46:01Z</time>
      </trkpt>
      <trkpt lat="45.85403" lon="1.20697">
        <ele>324.1</ele>
        <time>2024-10-21T07:46:02Z</time>
      </trkpt>
      <trkpt lat="45.85403" lon="1.20696">
        <ele>324.2</ele>
        <time>2024-10-21T07:46:03Z</time>
      </trkpt>
      <trkpt lat="45.85402" lon="1.20695">
        <ele>324.2</ele>
        <time>2024-10-21T07:46:04Z</time>
      </trkpt>
      <trkpt lat="45.85401" lon="1.20693">
        <ele>324.2</ele>
        <time>2024-10-21T07:46:05Z</time>
      </trkpt>
      <trkpt lat="45.85401" lon="1.2069">
        <ele>324.3</ele>
        <time>2024-10-21T07:46:06Z</time>
      </trkpt>
      <trkpt lat="45.854" lon="1.20689">
        <ele>324.3</ele>
        <time>2024-10-21T07:46:07Z</time>
      </trkpt>
      <trkpt lat="45.85399" lon="1.20687">
        <ele>324.4</ele>
        <time>2024-10-21T07:46:08Z</time>
      </trkpt>
      <trkpt lat="45.85399" lon="1.20685">
        <ele>324.5</ele>
        <time>2024-10-21T07:46:09Z</time>
      </trkpt>
      <trkpt lat="45.85399" lon="1.20684">
        <ele>324.5</ele>
        <time>2024-10-21T07:46:10Z</time>
      </trkpt>
      <trkpt lat="45.85399" lon="1.20682">
        <ele>324.6</ele>
        <time>2024-10-21T07:46:11Z</time>
      </trkpt>
      <trkpt lat="45.85399" lon="1.20681">
        <ele>324.6</ele>
        <time>2024-10-21T07:46:12Z</time>
      </trkpt>
      <trkpt lat="45.85399" lon="1.20679">
        <ele>324.6</ele>
        <time>2024-10-21T07:46:13Z</time>
      </trkpt>
      <trkpt lat="45.85399" lon="1.20676">
        <ele>324.7</ele>
        <time>2024-10-21T07:46:14Z</time>
      </trkpt>
      <trkpt lat="45.85398" lon="1.20675">
        <ele>324.8</ele>
        <time>2024-10-21T07:46:15Z</time>
      </trkpt>
      <trkpt lat="45.85398" lon="1.20674">
        <ele>324.8</ele>
        <time>2024-10-21T07:46:16Z</time>
      </trkpt>
      <trkpt lat="45.85397" lon="1.20672">
        <ele>324.9</ele>
        <time>2024-10-21T07:46:17Z</time>
      </trkpt>
      <trkpt lat="45.85397" lon="1.20671">
        <ele>325</ele>
        <time>2024-10-21T07:46:18Z</time>
      </trkpt>
      <trkpt lat="45.85396" lon="1.20669">
        <ele>325</ele>
        <time>2024-10-21T07:46:20Z</time>
      </trkpt>
      <trkpt lat="45.85394" lon="1.20667">
        <ele>325.2</ele>
        <time>2024-10-21T07:46:21Z</time>
      </trkpt>
      <trkpt lat="45.85394" lon="1.20665">
        <ele>325.2</ele>
        <time>2024-10-21T07:46:22Z</time>
      </trkpt>
      <trkpt lat="45.85393" lon="1.20664">
        <ele>325.3</ele>
        <time>2024-10-21T07:46:24Z</time>
      </trkpt>
      <trkpt lat="45.85392" lon="1.20664">
        <ele>325.4</ele>
        <time>2024-10-21T07:46:25Z</time>
      </trkpt>
      <trkpt lat="45.85392" lon="1.20663">
        <ele>325.4</ele>
        <time>2024-10-21T07:46:26Z</time>
      </trkpt>
      <trkpt lat="45.85391" lon="1.20661">
        <ele>325.5</ele>
        <time>2024-10-21T07:46:27Z</time>
      </trkpt>
      <trkpt lat="45.85391" lon="1.2066">
        <ele>325.6</ele>
        <time>2024-10-21T07:46:28Z</time>
      </trkpt>
      <trkpt lat="45.85391" lon="1.20659">
        <ele>325.6</ele>
        <time>2024-10-21T07:46:29Z</time>
      </trkpt>
      <trkpt lat="45.85391" lon="1.20657">
        <ele>325.7</ele>
        <time>2024-10-21T07:46:30Z</time>
      </trkpt>
      <trkpt lat="45.85391" lon="1.20656">
        <ele>325.7</ele>
        <time>2024-10-21T07:46:31Z</time>
      </trkpt>
      <trkpt lat="45.85391" lon="1.20655">
        <ele>325.8</ele>
        <time>2024-10-21T07:46:32Z</time>
      </trkpt>
      <trkpt lat="45.85392" lon="1.20654">
        <ele>325.8</ele>
        <time>2024-10-21T07:46:33Z</time>
      </trkpt>
      <trkpt lat="45.85392" lon="1.20653">
        <ele>325.9</ele>
        <time>2024-10-21T07:46:34Z</time>
      </trkpt>
      <trkpt lat="45.85393" lon="1.20652">
        <ele>325.9</ele>
        <time>2024-10-21T07:46:35Z</time>
      </trkpt>
      <trkpt lat="45.85393" lon="1.20651">
        <ele>326</ele>
        <time>2024-10-21T07:46:36Z</time>
      </trkpt>
      <trkpt lat="45.85394" lon="1.2065">
        <ele>326</ele>
        <time>2024-10-21T07:46:37Z</time>
      </trkpt>
      <trkpt lat="45.85394" lon="1.20649">
        <ele>326</ele>
        <time>2024-10-21T07:46:38Z</time>
      </trkpt>
      <trkpt lat="45.85394" lon="1.20648">
        <ele>326.1</ele>
        <time>2024-10-21T07:46:39Z</time>
      </trkpt>
      <trkpt lat="45.85394" lon="1.20647">
        <ele>326.1</ele>
        <time>2024-10-21T07:46:40Z</time>
      </trkpt>
      <trkpt lat="45.85393" lon="1.20646">
        <ele>326.2</ele>
        <time>2024-10-21T07:46:41Z</time>
      </trkpt>
      <trkpt lat="45.85392" lon="1.20645">
        <ele>326.2</ele>
        <time>2024-10-21T07:46:42Z</time>
      </trkpt>
      <trkpt lat="45.85391" lon="1.20644">
        <ele>326.2</ele>
        <time>2024-10-21T07:46:43Z</time>
      </trkpt>
      <trkpt lat="45.85391" lon="1.20643">
        <ele>326.3</ele>
        <time>2024-10-21T07:46:44Z</time>
      </trkpt>
      <trkpt lat="45.85391" lon="1.20641">
        <ele>326.3</ele>
        <time>2024-10-21T07:46:45Z</time>
      </trkpt>
      <trkpt lat="45.85391" lon="1.2064">
        <ele>326.3</ele>
        <time>2024-10-21T07:46:46Z</time>
      </trkpt>
      <trkpt lat="45.85391" lon="1.20638">
        <ele>326.3</ele>
        <time>2024-10-21T07:46:47Z</time>
      </trkpt>
      <trkpt lat="45.85391" lon="1.20637">
        <ele>326.4</ele>
        <time>2024-10-21T07:46:48Z</time>
      </trkpt>
      <trkpt lat="45.85391" lon="1.20636">
        <ele>326.4</ele>
        <time>2024-10-21T07:46:49Z</time>
      </trkpt>
      <trkpt lat="45.8539" lon="1.20635">
        <ele>326.4</ele>
        <time>2024-10-21T07:46:50Z</time>
      </trkpt>
      <trkpt lat="45.8539" lon="1.20633">
        <ele>326.4</ele>
        <time>2024-10-21T07:46:51Z</time>
      </trkpt>
      <trkpt lat="45.8539" lon="1.20631">
        <ele>326.4</ele>
        <time>2024-10-21T07:46:52Z</time>
      </trkpt>
      <trkpt lat="45.8539" lon="1.20631">
        <ele>326.4</ele>
        <time>2024-10-21T07:46:53Z</time>
      </trkpt>
      <trkpt lat="45.85389" lon="1.20629">
        <ele>326.4</ele>
        <time>2024-10-21T07:46:54Z</time>
      </trkpt>
      <trkpt lat="45.85389" lon="1.20628">
        <ele>326.4</ele>
        <time>2024-10-21T07:46:55Z</time>
      </trkpt>
      <trkpt lat="45.85389" lon="1.20627">
        <ele>326.4</ele>
        <time>2024-10-21T07:46:56Z</time>
      </trkpt>
      <trkpt lat="45.85388" lon="1.20625">
        <ele>326.4</ele>
        <time>2024-10-21T07:46:57Z</time>
      </trkpt>
      <trkpt lat="45.85387" lon="1.20624">
        <ele>326.4</ele>
        <time>2024-10-21T07:46:58Z</time>
      </trkpt>
      <trkpt lat="45.85387" lon="1.20623">
        <ele>326.4</ele>
        <time>2024-10-21T07:46:59Z</time>
      </trkpt>
      <trkpt lat="45.85387" lon="1.20622">
        <ele>326.4</ele>
        <time>2024-10-21T07:47:00Z</time>
      </trkpt>
      <trkpt lat="45.85386" lon="1.20621">
        <ele>326.3</ele>
        <time>2024-10-21T07:47:01Z</time>
      </trkpt>
      <trkpt lat="45.85385" lon="1.2062">
        <ele>326.3</ele>
        <time>2024-10-21T07:47:02Z</time>
      </trkpt>
      <trkpt lat="45.85384" lon="1.2062">
        <ele>326.3</ele>
        <time>2024-10-21T07:47:03Z</time>
      </trkpt>
      <trkpt lat="45.85383" lon="1.20618">
        <ele>326.3</ele>
        <time>2024-10-21T07:47:04Z</time>
      </trkpt>
      <trkpt lat="45.85382" lon="1.20618">
        <ele>326.3</ele>
        <time>2024-10-21T07:47:05Z</time>
      </trkpt>
      <trkpt lat="45.85381" lon="1.20618">
        <ele>326.2</ele>
        <time>2024-10-21T07:47:06Z</time>
      </trkpt>
      <trkpt lat="45.85379" lon="1.20616">
        <ele>326.2</ele>
        <time>2024-10-21T07:47:07Z</time>
      </trkpt>
      <trkpt lat="45.85379" lon="1.20616">
        <ele>326.2</ele>
        <time>2024-10-21T07:47:08Z</time>
      </trkpt>
      <trkpt lat="45.85378" lon="1.20615">
        <ele>326.2</ele>
        <time>2024-10-21T07:47:09Z</time>
      </trkpt>
      <trkpt lat="45.85379" lon="1.20614">
        <ele>326.1</ele>
        <time>2024-10-21T07:47:10Z</time>
      </trkpt>
      <trkpt lat="45.85379" lon="1.20613">
        <ele>326.1</ele>
        <time>2024-10-21T07:47:11Z</time>
      </trkpt>
      <trkpt lat="45.8538" lon="1.20612">
        <ele>326.1</ele>
        <time>2024-10-21T07:47:12Z</time>
      </trkpt>
      <trkpt lat="45.85381" lon="1.20611">
        <ele>326.1</ele>
        <time>2024-10-21T07:47:13Z</time>
      </trkpt>
      <trkpt lat="45.85382" lon="1.20609">
        <ele>326</ele>
        <time>2024-10-21T07:47:14Z</time>
      </trkpt>
      <trkpt lat="45.85383" lon="1.20608">
        <ele>326</ele>
        <time>2024-10-21T07:47:15Z</time>
      </trkpt>
      <trkpt lat="45.85384" lon="1.20607">
        <ele>326</ele>
        <time>2024-10-21T07:47:16Z</time>
      </trkpt>
      <trkpt lat="45.85385" lon="1.20606">
        <ele>326</ele>
        <time>2024-10-21T07:47:17Z</time>
      </trkpt>
      <trkpt lat="45.85385" lon="1.20604">
        <ele>325.9</ele>
        <time>2024-10-21T07:47:18Z</time>
      </trkpt>
      <trkpt lat="45.85387" lon="1.20602">
        <ele>325.9</ele>
        <time>2024-10-21T07:47:19Z</time>
      </trkpt>
      <trkpt lat="45.85387" lon="1.20601">
        <ele>325.9</ele>
        <time>2024-10-21T07:47:20Z</time>
      </trkpt>
      <trkpt lat="45.85388" lon="1.20598">
        <ele>325.9</ele>
        <time>2024-10-21T07:47:21Z</time>
      </trkpt>
      <trkpt lat="45.85388" lon="1.20596">
        <ele>325.8</ele>
        <time>2024-10-21T07:47:22Z</time>
      </trkpt>
      <trkpt lat="45.85388" lon="1.20594">
        <ele>325.8</ele>
        <time>2024-10-21T07:47:23Z</time>
      </trkpt>
      <trkpt lat="45.85388" lon="1.20592">
        <ele>325.8</ele>
        <time>2024-10-21T07:47:24Z</time>
      </trkpt>
      <trkpt lat="45.85388" lon="1.20589">
        <ele>325.8</ele>
        <time>2024-10-21T07:47:25Z</time>
      </trkpt>
      <trkpt lat="45.85388" lon="1.20588">
        <ele>325.8</ele>
        <time>2024-10-21T07:47:26Z</time>
      </trkpt>
      <trkpt lat="45.85388" lon="1.20587">
        <ele>325.8</ele>
        <time>2024-10-21T07:47:27Z</time>
      </trkpt>
      <trkpt lat="45.85389" lon="1.20585">
        <ele>325.8</ele>
        <time>2024-10-21T07:47:28Z</time>
      </trkpt>
      <trkpt lat="45.85389" lon="1.20584">
        <ele>325.7</ele>
        <time>2024-10-21T07:47:29Z</time>
      </trkpt>
      <trkpt lat="45.85389" lon="1.20582">
        <ele>325.7</ele>
        <time>2024-10-21T07:47:30Z</time>
      </trkpt>
      <trkpt lat="45.85389" lon="1.2058">
        <ele>325.7</ele>
        <time>2024-10-21T07:47:31Z</time>
      </trkpt>
      <trkpt lat="45.85389" lon="1.20579">
        <ele>325.7</ele>
        <time>2024-10-21T07:47:32Z</time>
      </trkpt>
      <trkpt lat="45.85389" lon="1.20577">
        <ele>325.7</ele>
        <time>2024-10-21T07:47:33Z</time>
      </trkpt>
      <trkpt lat="45.85388" lon="1.20576">
        <ele>325.7</ele>
        <time>2024-10-21T07:47:34Z</time>
      </trkpt>
      <trkpt lat="45.85388" lon="1.20575">
        <ele>325.7</ele>
        <time>2024-10-21T07:47:35Z</time>
      </trkpt>
      <trkpt lat="45.85387" lon="1.20575">
        <ele>325.7</ele>
        <time>2024-10-21T07:47:36Z</time>
      </trkpt>
      <trkpt lat="45.85387" lon="1.20574">
        <ele>325.7</ele>
        <time>2024-10-21T07:47:37Z</time>
      </trkpt>
      <trkpt lat="45.85386" lon="1.20573">
        <ele>325.7</ele>
        <time>2024-10-21T07:47:38Z</time>
      </trkpt>
      <trkpt lat="45.85385" lon="1.20572">
        <ele>325.7</ele>
        <time>2024-10-21T07:47:39Z</time>
      </trkpt>
      <trkpt lat="45.85384" lon="1.20572">
        <ele>325.7</ele>
        <time>2024-10-21T07:47:40Z</time>
      </trkpt>
      <trkpt lat="45.85384" lon="1.20572">
        <ele>325.7</ele>
        <time>2024-10-21T07:47:41Z</time>
      </trkpt>
      <trkpt lat="45.85383" lon="1.20571">
        <ele>325.7</ele>
        <time>2024-10-21T07:47:42Z</time>
      </trkpt>
      <trkpt lat="45.85383" lon="1.20571">
        <ele>325.7</ele>
        <time>2024-10-21T07:47:43Z</time>
      </trkpt>
      <trkpt lat="45.85383" lon="1.20571">
        <ele>325.7</ele>
        <time>2024-10-21T07:47:44Z</time>
      </trkpt>
      <trkpt lat="45.85383" lon="1.20571">
        <ele>325.7</ele>
        <time>2024-10-21T07:47:45Z</time>
      </trkpt>
      <trkpt lat="45.85383" lon="1.2057">
        <ele>325.7</ele>
        <time>2024-10-21T07:47:46Z</time>
      </trkpt>
      <trkpt lat="45.85382" lon="1.2057">
        <ele>325.7</ele>
        <time>2024-10-21T07:47:47Z</time>
      </trkpt>
      <trkpt lat="45.85382" lon="1.2057">
        <ele>325.7</ele>
        <time>2024-10-21T07:47:48Z</time>
      </trkpt>
      <trkpt lat="45.85382" lon="1.2057">
        <ele>325.7</ele>
        <time>2024-10-21T07:47:49Z</time>
      </trkpt>
      <trkpt lat="45.85382" lon="1.20569">
        <ele>325.7</ele>
        <time>2024-10-21T07:47:50Z</time>
      </trkpt>
      <trkpt lat="45.85382" lon="1.20569">
        <ele>325.7</ele>
        <time>2024-10-21T07:47:51Z</time>
      </trkpt>
      <trkpt lat="45.85382" lon="1.20569">
        <ele>325.7</ele>
        <time>2024-10-21T07:47:52Z</time>
      </trkpt>
      <trkpt lat="45.85382" lon="1.20569">
        <ele>325.7</ele>
        <time>2024-10-21T07:47:53Z</time>
      </trkpt>
      <trkpt lat="45.85382" lon="1.20569">
        <ele>325.7</ele>
        <time>2024-10-21T07:47:54Z</time>
      </trkpt>
      <trkpt lat="45.85382" lon="1.20568">
        <ele>325.7</ele>
        <time>2024-10-21T07:47:55Z</time>
      </trkpt>
      <trkpt lat="45.85382" lon="1.20568">
        <ele>325.7</ele>
        <time>2024-10-21T07:47:56Z</time>
      </trkpt>
      <trkpt lat="45.85381" lon="1.20568">
        <ele>325.7</ele>
        <time>2024-10-21T07:47:57Z</time>
      </trkpt>
      <trkpt lat="45.85381" lon="1.20568">
        <ele>325.7</ele>
        <time>2024-10-21T07:47:58Z</time>
      </trkpt>
      <trkpt lat="45.85381" lon="1.20568">
        <ele>325.7</ele>
        <time>2024-10-21T07:47:59Z</time>
      </trkpt>
      <trkpt lat="45.85381" lon="1.20567">
        <ele>325.7</ele>
        <time>2024-10-21T07:48:00Z</time>
      </trkpt>
      <trkpt lat="45.85381" lon="1.20567">
        <ele>325.6</ele>
        <time>2024-10-21T07:48:01Z</time>
      </trkpt>
      <trkpt lat="45.85381" lon="1.20567">
        <ele>325.6</ele>
        <time>2024-10-21T07:48:02Z</time>
      </trkpt>
      <trkpt lat="45.85381" lon="1.20567">
        <ele>325.6</ele>
        <time>2024-10-21T07:48:03Z</time>
      </trkpt>
      <trkpt lat="45.85381" lon="1.20566">
        <ele>325.6</ele>
        <time>2024-10-21T07:48:04Z</time>
      </trkpt>
      <trkpt lat="45.85381" lon="1.20566">
        <ele>325.6</ele>
        <time>2024-10-21T07:48:05Z</time>
      </trkpt>
      <trkpt lat="45.85381" lon="1.20566">
        <ele>325.6</ele>
        <time>2024-10-21T07:48:06Z</time>
      </trkpt>
      <trkpt lat="45.8538" lon="1.20566">
        <ele>325.6</ele>
        <time>2024-10-21T07:48:07Z</time>
      </trkpt>
      <trkpt lat="45.8538" lon="1.20566">
        <ele>325.6</ele>
        <time>2024-10-21T07:48:08Z</time>
      </trkpt>
      <trkpt lat="45.8538" lon="1.20565">
        <ele>325.6</ele>
        <time>2024-10-21T07:48:09Z</time>
      </trkpt>
      <trkpt lat="45.85379" lon="1.20563">
        <ele>325.6</ele>
        <time>2024-10-21T07:48:10Z</time>
      </trkpt>
      <trkpt lat="45.85378" lon="1.20562">
        <ele>325.6</ele>
        <time>2024-10-21T07:48:11Z</time>
      </trkpt>
      <trkpt lat="45.85378" lon="1.20561">
        <ele>325.6</ele>
        <time>2024-10-21T07:48:12Z</time>
      </trkpt>
      <trkpt lat="45.85377" lon="1.2056">
        <ele>325.6</ele>
        <time>2024-10-21T07:48:13Z</time>
      </trkpt>
      <trkpt lat="45.85376" lon="1.20559">
        <ele>325.6</ele>
        <time>2024-10-21T07:48:14Z</time>
      </trkpt>
      <trkpt lat="45.85376" lon="1.20558">
        <ele>325.6</ele>
        <time>2024-10-21T07:48:15Z</time>
      </trkpt>
      <trkpt lat="45.85376" lon="1.20557">
        <ele>325.6</ele>
        <time>2024-10-21T07:48:16Z</time>
      </trkpt>
      <trkpt lat="45.85376" lon="1.20555">
        <ele>325.6</ele>
        <time>2024-10-21T07:48:17Z</time>
      </trkpt>
      <trkpt lat="45.85377" lon="1.20554">
        <ele>325.6</ele>
        <time>2024-10-21T07:48:18Z</time>
      </trkpt>
      <trkpt lat="45.85379" lon="1.2055">
        <ele>325.6</ele>
        <time>2024-10-21T07:48:19Z</time>
      </trkpt>
      <trkpt lat="45.8538" lon="1.20548">
        <ele>325.6</ele>
        <time>2024-10-21T07:48:20Z</time>
      </trkpt>
      <trkpt lat="45.8538" lon="1.20547">
        <ele>325.6</ele>
        <time>2024-10-21T07:48:21Z</time>
      </trkpt>
      <trkpt lat="45.85381" lon="1.20546">
        <ele>325.6</ele>
        <time>2024-10-21T07:48:22Z</time>
      </trkpt>
      <trkpt lat="45.85382" lon="1.20544">
        <ele>325.6</ele>
        <time>2024-10-21T07:48:23Z</time>
      </trkpt>
      <trkpt lat="45.85383" lon="1.20543">
        <ele>325.6</ele>
        <time>2024-10-21T07:48:24Z</time>
      </trkpt>
      <trkpt lat="45.85384" lon="1.20541">
        <ele>325.6</ele>
        <time>2024-10-21T07:48:25Z</time>
      </trkpt>
      <trkpt lat="45.85384" lon="1.2054">
        <ele>325.6</ele>
        <time>2024-10-21T07:48:26Z</time>
      </trkpt>
      <trkpt lat="45.85384" lon="1.20538">
        <ele>325.6</ele>
        <time>2024-10-21T07:48:27Z</time>
      </trkpt>
      <trkpt lat="45.85385" lon="1.20537">
        <ele>325.6</ele>
        <time>2024-10-21T07:48:28Z</time>
      </trkpt>
      <trkpt lat="45.85385" lon="1.20535">
        <ele>325.6</ele>
        <time>2024-10-21T07:48:29Z</time>
      </trkpt>
      <trkpt lat="45.85385" lon="1.20534">
        <ele>325.6</ele>
        <time>2024-10-21T07:48:30Z</time>
      </trkpt>
      <trkpt lat="45.85385" lon="1.20533">
        <ele>325.6</ele>
        <time>2024-10-21T07:48:31Z</time>
      </trkpt>
      <trkpt lat="45.85385" lon="1.20531">
        <ele>325.6</ele>
        <time>2024-10-21T07:48:32Z</time>
      </trkpt>
      <trkpt lat="45.85385" lon="1.2053">
        <ele>325.6</ele>
        <time>2024-10-21T07:48:33Z</time>
      </trkpt>
      <trkpt lat="45.85385" lon="1.20528">
        <ele>325.6</ele>
        <time>2024-10-21T07:48:34Z</time>
      </trkpt>
      <trkpt lat="45.85385" lon="1.20528">
        <ele>325.6</ele>
        <time>2024-10-21T07:48:35Z</time>
      </trkpt>
      <trkpt lat="45.85384" lon="1.20527">
        <ele>325.6</ele>
        <time>2024-10-21T07:48:36Z</time>
      </trkpt>
      <trkpt lat="45.85384" lon="1.20526">
        <ele>325.6</ele>
        <time>2024-10-21T07:48:37Z</time>
      </trkpt>
      <trkpt lat="45.85384" lon="1.20525">
        <ele>325.6</ele>
        <time>2024-10-21T07:48:38Z</time>
      </trkpt>
      <trkpt lat="45.85384" lon="1.20525">
        <ele>325.6</ele>
        <time>2024-10-21T07:48:39Z</time>
      </trkpt>
      <trkpt lat="45.85384" lon="1.20524">
        <ele>325.6</ele>
        <time>2024-10-21T07:48:40Z</time>
      </trkpt>
      <trkpt lat="45.85384" lon="1.20524">
        <ele>325.6</ele>
        <time>2024-10-21T07:48:41Z</time>
      </trkpt>
      <trkpt lat="45.85384" lon="1.20523">
        <ele>325.6</ele>
        <time>2024-10-21T07:48:42Z</time>
      </trkpt>
      <trkpt lat="45.85382" lon="1.2052">
        <ele>325.6</ele>
        <time>2024-10-21T07:48:43Z</time>
      </trkpt>
      <trkpt lat="45.85382" lon="1.2052">
        <ele>325.6</ele>
        <time>2024-10-21T07:48:44Z</time>
      </trkpt>
      <trkpt lat="45.85381" lon="1.20519">
        <ele>325.6</ele>
        <time>2024-10-21T07:48:45Z</time>
      </trkpt>
      <trkpt lat="45.85381" lon="1.20518">
        <ele>325.6</ele>
        <time>2024-10-21T07:48:46Z</time>
      </trkpt>
      <trkpt lat="45.85381" lon="1.20516">
        <ele>325.6</ele>
        <time>2024-10-21T07:48:47Z</time>
      </trkpt>
      <trkpt lat="45.85381" lon="1.20515">
        <ele>325.7</ele>
        <time>2024-10-21T07:48:48Z</time>
      </trkpt>
      <trkpt lat="45.85382" lon="1.20513">
        <ele>325.7</ele>
        <time>2024-10-21T07:48:49Z</time>
      </trkpt>
      <trkpt lat="45.85382" lon="1.20512">
        <ele>325.7</ele>
        <time>2024-10-21T07:48:50Z</time>
      </trkpt>
      <trkpt lat="45.85382" lon="1.20511">
        <ele>325.7</ele>
        <time>2024-10-21T07:48:51Z</time>
      </trkpt>
      <trkpt lat="45.85382" lon="1.20509">
        <ele>325.7</ele>
        <time>2024-10-21T07:48:52Z</time>
      </trkpt>
      <trkpt lat="45.85381" lon="1.20508">
        <ele>325.7</ele>
        <time>2024-10-21T07:48:53Z</time>
      </trkpt>
      <trkpt lat="45.85378" lon="1.20506">
        <ele>325.7</ele>
        <time>2024-10-21T07:48:54Z</time>
      </trkpt>
      <trkpt lat="45.85377" lon="1.20505">
        <ele>325.7</ele>
        <time>2024-10-21T07:48:55Z</time>
      </trkpt>
      <trkpt lat="45.85376" lon="1.20504">
        <ele>325.7</ele>
        <time>2024-10-21T07:48:56Z</time>
      </trkpt>
      <trkpt lat="45.85377" lon="1.20503">
        <ele>325.7</ele>
        <time>2024-10-21T07:48:57Z</time>
      </trkpt>
      <trkpt lat="45.85377" lon="1.20501">
        <ele>325.7</ele>
        <time>2024-10-21T07:48:58Z</time>
      </trkpt>
      <trkpt lat="45.85377" lon="1.20499">
        <ele>325.8</ele>
        <time>2024-10-21T07:48:59Z</time>
      </trkpt>
      <trkpt lat="45.85377" lon="1.20497">
        <ele>325.8</ele>
        <time>2024-10-21T07:49:00Z</time>
      </trkpt>
      <trkpt lat="45.85378" lon="1.20494">
        <ele>325.8</ele>
        <time>2024-10-21T07:49:01Z</time>
      </trkpt>
      <trkpt lat="45.85379" lon="1.20492">
        <ele>325.8</ele>
        <time>2024-10-21T07:49:02Z</time>
      </trkpt>
      <trkpt lat="45.85379" lon="1.20491">
        <ele>325.8</ele>
        <time>2024-10-21T07:49:03Z</time>
      </trkpt>
      <trkpt lat="45.8538" lon="1.20489">
        <ele>325.8</ele>
        <time>2024-10-21T07:49:04Z</time>
      </trkpt>
      <trkpt lat="45.8538" lon="1.20487">
        <ele>325.8</ele>
        <time>2024-10-21T07:49:05Z</time>
      </trkpt>
      <trkpt lat="45.85381" lon="1.20485">
        <ele>325.8</ele>
        <time>2024-10-21T07:49:06Z</time>
      </trkpt>
      <trkpt lat="45.85381" lon="1.20484">
        <ele>325.8</ele>
        <time>2024-10-21T07:49:07Z</time>
      </trkpt>
      <trkpt lat="45.85381" lon="1.20481">
        <ele>325.8</ele>
        <time>2024-10-21T07:49:08Z</time>
      </trkpt>
      <trkpt lat="45.85382" lon="1.20479">
        <ele>325.8</ele>
        <time>2024-10-21T07:49:10Z</time>
      </trkpt>
      <trkpt lat="45.85382" lon="1.20478">
        <ele>325.9</ele>
        <time>2024-10-21T07:49:11Z</time>
      </trkpt>
      <trkpt lat="45.85383" lon="1.20477">
        <ele>325.9</ele>
        <time>2024-10-21T07:49:12Z</time>
      </trkpt>
      <trkpt lat="45.85385" lon="1.20474">
        <ele>325.9</ele>
        <time>2024-10-21T07:49:13Z</time>
      </trkpt>
      <trkpt lat="45.85385" lon="1.20474">
        <ele>325.9</ele>
        <time>2024-10-21T07:49:14Z</time>
      </trkpt>
      <trkpt lat="45.85386" lon="1.20474">
        <ele>325.9</ele>
        <time>2024-10-21T07:49:15Z</time>
      </trkpt>
      <trkpt lat="45.85387" lon="1.20471">
        <ele>325.9</ele>
        <time>2024-10-21T07:49:16Z</time>
      </trkpt>
      <trkpt lat="45.85387" lon="1.2047">
        <ele>325.9</ele>
        <time>2024-10-21T07:49:17Z</time>
      </trkpt>
      <trkpt lat="45.85387" lon="1.20469">
        <ele>325.9</ele>
        <time>2024-10-21T07:49:18Z</time>
      </trkpt>
      <trkpt lat="45.85388" lon="1.20466">
        <ele>325.9</ele>
        <time>2024-10-21T07:49:19Z</time>
      </trkpt>
      <trkpt lat="45.85389" lon="1.20465">
        <ele>325.9</ele>
        <time>2024-10-21T07:49:20Z</time>
      </trkpt>
      <trkpt lat="45.85389" lon="1.20463">
        <ele>325.9</ele>
        <time>2024-10-21T07:49:22Z</time>
      </trkpt>
      <trkpt lat="45.85389" lon="1.20462">
        <ele>325.9</ele>
        <time>2024-10-21T07:49:23Z</time>
      </trkpt>
      <trkpt lat="45.85389" lon="1.2046">
        <ele>325.9</ele>
        <time>2024-10-21T07:49:24Z</time>
      </trkpt>
      <trkpt lat="45.85389" lon="1.20458">
        <ele>326</ele>
        <time>2024-10-21T07:49:25Z</time>
      </trkpt>
      <trkpt lat="45.85389" lon="1.20456">
        <ele>326</ele>
        <time>2024-10-21T07:49:26Z</time>
      </trkpt>
      <trkpt lat="45.85389" lon="1.20455">
        <ele>326</ele>
        <time>2024-10-21T07:49:27Z</time>
      </trkpt>
      <trkpt lat="45.85389" lon="1.20453">
        <ele>326</ele>
        <time>2024-10-21T07:49:28Z</time>
      </trkpt>
      <trkpt lat="45.85389" lon="1.20451">
        <ele>326</ele>
        <time>2024-10-21T07:49:29Z</time>
      </trkpt>
      <trkpt lat="45.85389" lon="1.20449">
        <ele>326</ele>
        <time>2024-10-21T07:49:30Z</time>
      </trkpt>
      <trkpt lat="45.85389" lon="1.20447">
        <ele>326</ele>
        <time>2024-10-21T07:49:31Z</time>
      </trkpt>
      <trkpt lat="45.85389" lon="1.20445">
        <ele>326</ele>
        <time>2024-10-21T07:49:32Z</time>
      </trkpt>
      <trkpt lat="45.8539" lon="1.20442">
        <ele>326</ele>
        <time>2024-10-21T07:49:33Z</time>
      </trkpt>
      <trkpt lat="45.8539" lon="1.20442">
        <ele>326</ele>
        <time>2024-10-21T07:49:34Z</time>
      </trkpt>
      <trkpt lat="45.8539" lon="1.2044">
        <ele>326</ele>
        <time>2024-10-21T07:49:35Z</time>
      </trkpt>
      <trkpt lat="45.8539" lon="1.20439">
        <ele>326.1</ele>
        <time>2024-10-21T07:49:36Z</time>
      </trkpt>
      <trkpt lat="45.85391" lon="1.20438">
        <ele>326.1</ele>
        <time>2024-10-21T07:49:37Z</time>
      </trkpt>
      <trkpt lat="45.85391" lon="1.20436">
        <ele>326.1</ele>
        <time>2024-10-21T07:49:38Z</time>
      </trkpt>
      <trkpt lat="45.85391" lon="1.20435">
        <ele>326.1</ele>
        <time>2024-10-21T07:49:39Z</time>
      </trkpt>
      <trkpt lat="45.85392" lon="1.20434">
        <ele>326.1</ele>
        <time>2024-10-21T07:49:40Z</time>
      </trkpt>
      <trkpt lat="45.85392" lon="1.20432">
        <ele>326.1</ele>
        <time>2024-10-21T07:49:41Z</time>
      </trkpt>
      <trkpt lat="45.85393" lon="1.20431">
        <ele>326.1</ele>
        <time>2024-10-21T07:49:42Z</time>
      </trkpt>
      <trkpt lat="45.85393" lon="1.20429">
        <ele>326.1</ele>
        <time>2024-10-21T07:49:43Z</time>
      </trkpt>
      <trkpt lat="45.85394" lon="1.20427">
        <ele>326.1</ele>
        <time>2024-10-21T07:49:44Z</time>
      </trkpt>
      <trkpt lat="45.85395" lon="1.20426">
        <ele>326.1</ele>
        <time>2024-10-21T07:49:45Z</time>
      </trkpt>
      <trkpt lat="45.85395" lon="1.20425">
        <ele>326.1</ele>
        <time>2024-10-21T07:49:46Z</time>
      </trkpt>
      <trkpt lat="45.85396" lon="1.20423">
        <ele>326.2</ele>
        <time>2024-10-21T07:49:47Z</time>
      </trkpt>
      <trkpt lat="45.85396" lon="1.20422">
        <ele>326.2</ele>
        <time>2024-10-21T07:49:48Z</time>
      </trkpt>
      <trkpt lat="45.85397" lon="1.2042">
        <ele>326.2</ele>
        <time>2024-10-21T07:49:49Z</time>
      </trkpt>
      <trkpt lat="45.85398" lon="1.20416">
        <ele>326.2</ele>
        <time>2024-10-21T07:49:50Z</time>
      </trkpt>
      <trkpt lat="45.85399" lon="1.20415">
        <ele>326.2</ele>
        <time>2024-10-21T07:49:52Z</time>
      </trkpt>
      <trkpt lat="45.85399" lon="1.20414">
        <ele>326.2</ele>
        <time>2024-10-21T07:49:53Z</time>
      </trkpt>
      <trkpt lat="45.85399" lon="1.20412">
        <ele>326.2</ele>
        <time>2024-10-21T07:49:54Z</time>
      </trkpt>
      <trkpt lat="45.854" lon="1.2041">
        <ele>326.2</ele>
        <time>2024-10-21T07:49:55Z</time>
      </trkpt>
      <trkpt lat="45.854" lon="1.20408">
        <ele>326.2</ele>
        <time>2024-10-21T07:49:56Z</time>
      </trkpt>
      <trkpt lat="45.85401" lon="1.20407">
        <ele>326.3</ele>
        <time>2024-10-21T07:49:57Z</time>
      </trkpt>
      <trkpt lat="45.85401" lon="1.20405">
        <ele>326.3</ele>
        <time>2024-10-21T07:49:58Z</time>
      </trkpt>
      <trkpt lat="45.85402" lon="1.20404">
        <ele>326.3</ele>
        <time>2024-10-21T07:49:59Z</time>
      </trkpt>
      <trkpt lat="45.85402" lon="1.20402">
        <ele>326.3</ele>
        <time>2024-10-21T07:50:00Z</time>
      </trkpt>
      <trkpt lat="45.85403" lon="1.20401">
        <ele>326.3</ele>
        <time>2024-10-21T07:50:01Z</time>
      </trkpt>
      <trkpt lat="45.85403" lon="1.20399">
        <ele>326.3</ele>
        <time>2024-10-21T07:50:02Z</time>
      </trkpt>
      <trkpt lat="45.85404" lon="1.20398">
        <ele>326.3</ele>
        <time>2024-10-21T07:50:03Z</time>
      </trkpt>
      <trkpt lat="45.85405" lon="1.20397">
        <ele>326.3</ele>
        <time>2024-10-21T07:50:04Z</time>
      </trkpt>
      <trkpt lat="45.85405" lon="1.20395">
        <ele>326.3</ele>
        <time>2024-10-21T07:50:05Z</time>
      </trkpt>
      <trkpt lat="45.85405" lon="1.20393">
        <ele>326.4</ele>
        <time>2024-10-21T07:50:06Z</time>
      </trkpt>
      <trkpt lat="45.85406" lon="1.20392">
        <ele>326.4</ele>
        <time>2024-10-21T07:50:07Z</time>
      </trkpt>
      <trkpt lat="45.85406" lon="1.20389">
        <ele>326.4</ele>
        <time>2024-10-21T07:50:08Z</time>
      </trkpt>
      <trkpt lat="45.85407" lon="1.20387">
        <ele>326.4</ele>
        <time>2024-10-21T07:50:10Z</time>
      </trkpt>
      <trkpt lat="45.85407" lon="1.20386">
        <ele>326.4</ele>
        <time>2024-10-21T07:50:11Z</time>
      </trkpt>
      <trkpt lat="45.85408" lon="1.20383">
        <ele>326.4</ele>
        <time>2024-10-21T07:50:12Z</time>
      </trkpt>
      <trkpt lat="45.85408" lon="1.20381">
        <ele>326.5</ele>
        <time>2024-10-21T07:50:13Z</time>
      </trkpt>
      <trkpt lat="45.85408" lon="1.20381">
        <ele>326.5</ele>
        <time>2024-10-21T07:50:14Z</time>
      </trkpt>
      <trkpt lat="45.85409" lon="1.2038">
        <ele>326.5</ele>
        <time>2024-10-21T07:50:15Z</time>
      </trkpt>
      <trkpt lat="45.85409" lon="1.20378">
        <ele>326.5</ele>
        <time>2024-10-21T07:50:16Z</time>
      </trkpt>
      <trkpt lat="45.8541" lon="1.20377">
        <ele>326.5</ele>
        <time>2024-10-21T07:50:17Z</time>
      </trkpt>
      <trkpt lat="45.85411" lon="1.20374">
        <ele>326.6</ele>
        <time>2024-10-21T07:50:18Z</time>
      </trkpt>
      <trkpt lat="45.85411" lon="1.20373">
        <ele>326.6</ele>
        <time>2024-10-21T07:50:19Z</time>
      </trkpt>
      <trkpt lat="45.85412" lon="1.20372">
        <ele>326.6</ele>
        <time>2024-10-21T07:50:20Z</time>
      </trkpt>
      <trkpt lat="45.85413" lon="1.20369">
        <ele>326.7</ele>
        <time>2024-10-21T07:50:21Z</time>
      </trkpt>
      <trkpt lat="45.85413" lon="1.20368">
        <ele>326.7</ele>
        <time>2024-10-21T07:50:22Z</time>
      </trkpt>
      <trkpt lat="45.85414" lon="1.20367">
        <ele>326.7</ele>
        <time>2024-10-21T07:50:23Z</time>
      </trkpt>
      <trkpt lat="45.85415" lon="1.20365">
        <ele>326.8</ele>
        <time>2024-10-21T07:50:24Z</time>
      </trkpt>
      <trkpt lat="45.85416" lon="1.20364">
        <ele>326.8</ele>
        <time>2024-10-21T07:50:25Z</time>
      </trkpt>
      <trkpt lat="45.85416" lon="1.20363">
        <ele>326.9</ele>
        <time>2024-10-21T07:50:26Z</time>
      </trkpt>
      <trkpt lat="45.85418" lon="1.20361">
        <ele>327</ele>
        <time>2024-10-21T07:50:27Z</time>
      </trkpt>
      <trkpt lat="45.85418" lon="1.2036">
        <ele>327</ele>
        <time>2024-10-21T07:50:28Z</time>
      </trkpt>
      <trkpt lat="45.85419" lon="1.20359">
        <ele>327.1</ele>
        <time>2024-10-21T07:50:29Z</time>
      </trkpt>
      <trkpt lat="45.8542" lon="1.20358">
        <ele>327.1</ele>
        <time>2024-10-21T07:50:30Z</time>
      </trkpt>
      <trkpt lat="45.85421" lon="1.20356">
        <ele>327.3</ele>
        <time>2024-10-21T07:50:31Z</time>
      </trkpt>
      <trkpt lat="45.85422" lon="1.20356">
        <ele>327.3</ele>
        <time>2024-10-21T07:50:32Z</time>
      </trkpt>
      <trkpt lat="45.85422" lon="1.20355">
        <ele>327.4</ele>
        <time>2024-10-21T07:50:33Z</time>
      </trkpt>
      <trkpt lat="45.85423" lon="1.20355">
        <ele>327.4</ele>
        <time>2024-10-21T07:50:34Z</time>
      </trkpt>
      <trkpt lat="45.85424" lon="1.20354">
        <ele>327.5</ele>
        <time>2024-10-21T07:50:35Z</time>
      </trkpt>
      <trkpt lat="45.85425" lon="1.20353">
        <ele>327.6</ele>
        <time>2024-10-21T07:50:36Z</time>
      </trkpt>
      <trkpt lat="45.85426" lon="1.20353">
        <ele>327.6</ele>
        <time>2024-10-21T07:50:37Z</time>
      </trkpt>
      <trkpt lat="45.85427" lon="1.20352">
        <ele>327.8</ele>
        <time>2024-10-21T07:50:38Z</time>
      </trkpt>
      <trkpt lat="45.85429" lon="1.20353">
        <ele>328</ele>
        <time>2024-10-21T07:50:40Z</time>
      </trkpt>
      <trkpt lat="45.8543" lon="1.20353">
        <ele>328.1</ele>
        <time>2024-10-21T07:50:41Z</time>
      </trkpt>
      <trkpt lat="45.85431" lon="1.20353">
        <ele>328.2</ele>
        <time>2024-10-21T07:50:42Z</time>
      </trkpt>
      <trkpt lat="45.85432" lon="1.20354">
        <ele>328.3</ele>
        <time>2024-10-21T07:50:43Z</time>
      </trkpt>
      <trkpt lat="45.85433" lon="1.20356">
        <ele>328.4</ele>
        <time>2024-10-21T07:50:44Z</time>
      </trkpt>
      <trkpt lat="45.85434" lon="1.20357">
        <ele>328.5</ele>
        <time>2024-10-21T07:50:45Z</time>
      </trkpt>
      <trkpt lat="45.85435" lon="1.20359">
        <ele>328.7</ele>
        <time>2024-10-21T07:50:46Z</time>
      </trkpt>
      <trkpt lat="45.85436" lon="1.20359">
        <ele>328.8</ele>
        <time>2024-10-21T07:50:47Z</time>
      </trkpt>
      <trkpt lat="45.85437" lon="1.2036">
        <ele>328.9</ele>
        <time>2024-10-21T07:50:48Z</time>
      </trkpt>
      <trkpt lat="45.85438" lon="1.20361">
        <ele>329</ele>
        <time>2024-10-21T07:50:49Z</time>
      </trkpt>
      <trkpt lat="45.85439" lon="1.20361">
        <ele>329.1</ele>
        <time>2024-10-21T07:50:50Z</time>
      </trkpt>
      <trkpt lat="45.8544" lon="1.20362">
        <ele>329.3</ele>
        <time>2024-10-21T07:50:51Z</time>
      </trkpt>
      <trkpt lat="45.85442" lon="1.20363">
        <ele>329.5</ele>
        <time>2024-10-21T07:50:52Z</time>
      </trkpt>
      <trkpt lat="45.85443" lon="1.20361">
        <ele>329.6</ele>
        <time>2024-10-21T07:50:54Z</time>
      </trkpt>
      <trkpt lat="45.85443" lon="1.2036">
        <ele>329.7</ele>
        <time>2024-10-21T07:50:55Z</time>
      </trkpt>
      <trkpt lat="45.85443" lon="1.20359">
        <ele>329.8</ele>
        <time>2024-10-21T07:50:56Z</time>
      </trkpt>
      <trkpt lat="45.85444" lon="1.20358">
        <ele>329.9</ele>
        <time>2024-10-21T07:50:57Z</time>
      </trkpt>
      <trkpt lat="45.85444" lon="1.20357">
        <ele>329.9</ele>
        <time>2024-10-21T07:50:58Z</time>
      </trkpt>
      <trkpt lat="45.85444" lon="1.20356">
        <ele>330.1</ele>
        <time>2024-10-21T07:50:59Z</time>
      </trkpt>
      <trkpt lat="45.85444" lon="1.20354">
        <ele>330.1</ele>
        <time>2024-10-21T07:51:00Z</time>
      </trkpt>
      <trkpt lat="45.85443" lon="1.20352">
        <ele>330.1</ele>
        <time>2024-10-21T07:51:01Z</time>
      </trkpt>
      <trkpt lat="45.85443" lon="1.20351">
        <ele>330.1</ele>
        <time>2024-10-21T07:51:02Z</time>
      </trkpt>
      <trkpt lat="45.85442" lon="1.2035">
        <ele>330.1</ele>
        <time>2024-10-21T07:51:03Z</time>
      </trkpt>
      <trkpt lat="45.8544" lon="1.20349">
        <ele>330.1</ele>
        <time>2024-10-21T07:51:04Z</time>
      </trkpt>
      <trkpt lat="45.8544" lon="1.20348">
        <ele>330.1</ele>
        <time>2024-10-21T07:51:05Z</time>
      </trkpt>
      <trkpt lat="45.85439" lon="1.20347">
        <ele>330.1</ele>
        <time>2024-10-21T07:51:06Z</time>
      </trkpt>
      <trkpt lat="45.85438" lon="1.20347">
        <ele>330.1</ele>
        <time>2024-10-21T07:51:07Z</time>
      </trkpt>
      <trkpt lat="45.85437" lon="1.20347">
        <ele>330.1</ele>
        <time>2024-10-21T07:51:08Z</time>
      </trkpt>
      <trkpt lat="45.85436" lon="1.20346">
        <ele>330.1</ele>
        <time>2024-10-21T07:51:09Z</time>
      </trkpt>
      <trkpt lat="45.85435" lon="1.20346">
        <ele>330.1</ele>
        <time>2024-10-21T07:51:10Z</time>
      </trkpt>
      <trkpt lat="45.85434" lon="1.20345">
        <ele>330.1</ele>
        <time>2024-10-21T07:51:11Z</time>
      </trkpt>
      <trkpt lat="45.85433" lon="1.20344">
        <ele>330.1</ele>
        <time>2024-10-21T07:51:12Z</time>
      </trkpt>
      <trkpt lat="45.85433" lon="1.20342">
        <ele>330.1</ele>
        <time>2024-10-21T07:51:13Z</time>
      </trkpt>
      <trkpt lat="45.85433" lon="1.20341">
        <ele>330.1</ele>
        <time>2024-10-21T07:51:14Z</time>
      </trkpt>
      <trkpt lat="45.85433" lon="1.2034">
        <ele>330.1</ele>
        <time>2024-10-21T07:51:15Z</time>
      </trkpt>
      <trkpt lat="45.85433" lon="1.20337">
        <ele>330.1</ele>
        <time>2024-10-21T07:51:16Z</time>
      </trkpt>
      <trkpt lat="45.85433" lon="1.20337">
        <ele>330.1</ele>
        <time>2024-10-21T07:51:17Z</time>
      </trkpt>
      <trkpt lat="45.85433" lon="1.20335">
        <ele>330.1</ele>
        <time>2024-10-21T07:51:18Z</time>
      </trkpt>
      <trkpt lat="45.85434" lon="1.20332">
        <ele>330.1</ele>
        <time>2024-10-21T07:51:19Z</time>
      </trkpt>
      <trkpt lat="45.85434" lon="1.20332">
        <ele>330.1</ele>
        <time>2024-10-21T07:51:20Z</time>
      </trkpt>
      <trkpt lat="45.85434" lon="1.2033">
        <ele>330.1</ele>
        <time>2024-10-21T07:51:21Z</time>
      </trkpt>
      <trkpt lat="45.85434" lon="1.2033">
        <ele>330</ele>
        <time>2024-10-21T07:51:22Z</time>
      </trkpt>
      <trkpt lat="45.85434" lon="1.2033">
        <ele>329.9</ele>
        <time>2024-10-21T07:51:23Z</time>
      </trkpt>
      <trkpt lat="45.85435" lon="1.2033">
        <ele>329.9</ele>
        <time>2024-10-21T07:51:24Z</time>
      </trkpt>
      <trkpt lat="45.85435" lon="1.2033">
        <ele>329.8</ele>
        <time>2024-10-21T07:51:25Z</time>
      </trkpt>
      <trkpt lat="45.85436" lon="1.2033">
        <ele>329.7</ele>
        <time>2024-10-21T07:51:26Z</time>
      </trkpt>
      <trkpt lat="45.85437" lon="1.20331">
        <ele>329.6</ele>
        <time>2024-10-21T07:51:27Z</time>
      </trkpt>
      <trkpt lat="45.85437" lon="1.20331">
        <ele>329.5</ele>
        <time>2024-10-21T07:51:28Z</time>
      </trkpt>
      <trkpt lat="45.85438" lon="1.2033">
        <ele>329.4</ele>
        <time>2024-10-21T07:51:29Z</time>
      </trkpt>
      <trkpt lat="45.8544" lon="1.20329">
        <ele>329.2</ele>
        <time>2024-10-21T07:51:30Z</time>
      </trkpt>
      <trkpt lat="45.85441" lon="1.20328">
        <ele>329.1</ele>
        <time>2024-10-21T07:51:31Z</time>
      </trkpt>
      <trkpt lat="45.85442" lon="1.20327">
        <ele>328.9</ele>
        <time>2024-10-21T07:51:32Z</time>
      </trkpt>
      <trkpt lat="45.85444" lon="1.20326">
        <ele>328.8</ele>
        <time>2024-10-21T07:51:33Z</time>
      </trkpt>
      <trkpt lat="45.85445" lon="1.20326">
        <ele>328.7</ele>
        <time>2024-10-21T07:51:34Z</time>
      </trkpt>
      <trkpt lat="45.85446" lon="1.20325">
        <ele>328.6</ele>
        <time>2024-10-21T07:51:35Z</time>
      </trkpt>
      <trkpt lat="45.85448" lon="1.20323">
        <ele>328.5</ele>
        <time>2024-10-21T07:51:36Z</time>
      </trkpt>
      <trkpt lat="45.85449" lon="1.20322">
        <ele>328.4</ele>
        <time>2024-10-21T07:51:37Z</time>
      </trkpt>
      <trkpt lat="45.8545" lon="1.20322">
        <ele>328.4</ele>
        <time>2024-10-21T07:51:38Z</time>
      </trkpt>
      <trkpt lat="45.85452" lon="1.2032">
        <ele>328.3</ele>
        <time>2024-10-21T07:51:39Z</time>
      </trkpt>
      <trkpt lat="45.85453" lon="1.2032">
        <ele>328.3</ele>
        <time>2024-10-21T07:51:40Z</time>
      </trkpt>
      <trkpt lat="45.85454" lon="1.20319">
        <ele>328.2</ele>
        <time>2024-10-21T07:51:41Z</time>
      </trkpt>
      <trkpt lat="45.85456" lon="1.20317">
        <ele>328.2</ele>
        <time>2024-10-21T07:51:42Z</time>
      </trkpt>
      <trkpt lat="45.85456" lon="1.20317">
        <ele>328.2</ele>
        <time>2024-10-21T07:51:43Z</time>
      </trkpt>
      <trkpt lat="45.85457" lon="1.20316">
        <ele>328.2</ele>
        <time>2024-10-21T07:51:44Z</time>
      </trkpt>
      <trkpt lat="45.85459" lon="1.20315">
        <ele>328.2</ele>
        <time>2024-10-21T07:51:45Z</time>
      </trkpt>
      <trkpt lat="45.8546" lon="1.20314">
        <ele>328.2</ele>
        <time>2024-10-21T07:51:46Z</time>
      </trkpt>
      <trkpt lat="45.85461" lon="1.20314">
        <ele>328.1</ele>
        <time>2024-10-21T07:51:47Z</time>
      </trkpt>
      <trkpt lat="45.85462" lon="1.20312">
        <ele>328.1</ele>
        <time>2024-10-21T07:51:48Z</time>
      </trkpt>
      <trkpt lat="45.85463" lon="1.20311">
        <ele>328.1</ele>
        <time>2024-10-21T07:51:49Z</time>
      </trkpt>
      <trkpt lat="45.85463" lon="1.2031">
        <ele>328.1</ele>
        <time>2024-10-21T07:51:50Z</time>
      </trkpt>
      <trkpt lat="45.85465" lon="1.20308">
        <ele>328.1</ele>
        <time>2024-10-21T07:51:51Z</time>
      </trkpt>
      <trkpt lat="45.85465" lon="1.20307">
        <ele>328.1</ele>
        <time>2024-10-21T07:51:52Z</time>
      </trkpt>
      <trkpt lat="45.85466" lon="1.20306">
        <ele>328.1</ele>
        <time>2024-10-21T07:51:53Z</time>
      </trkpt>
      <trkpt lat="45.85468" lon="1.20304">
        <ele>328.1</ele>
        <time>2024-10-21T07:51:54Z</time>
      </trkpt>
      <trkpt lat="45.85468" lon="1.20303">
        <ele>328.1</ele>
        <time>2024-10-21T07:51:55Z</time>
      </trkpt>
      <trkpt lat="45.85469" lon="1.20303">
        <ele>328.1</ele>
        <time>2024-10-21T07:51:56Z</time>
      </trkpt>
      <trkpt lat="45.8547" lon="1.20302">
        <ele>328.1</ele>
        <time>2024-10-21T07:51:57Z</time>
      </trkpt>
      <trkpt lat="45.85471" lon="1.20301">
        <ele>328.1</ele>
        <time>2024-10-21T07:51:58Z</time>
      </trkpt>
      <trkpt lat="45.85471" lon="1.203">
        <ele>328.1</ele>
        <time>2024-10-21T07:51:59Z</time>
      </trkpt>
      <trkpt lat="45.8547" lon="1.203">
        <ele>328.1</ele>
        <time>2024-10-21T07:52:00Z</time>
      </trkpt>
      <trkpt lat="45.85469" lon="1.203">
        <ele>328.1</ele>
        <time>2024-10-21T07:52:01Z</time>
      </trkpt>
      <trkpt lat="45.85468" lon="1.20301">
        <ele>328.1</ele>
        <time>2024-10-21T07:52:02Z</time>
      </trkpt>
      <trkpt lat="45.85468" lon="1.20302">
        <ele>328.1</ele>
        <time>2024-10-21T07:52:03Z</time>
      </trkpt>
      <trkpt lat="45.85468" lon="1.20302">
        <ele>328.1</ele>
        <time>2024-10-21T07:52:04Z</time>
      </trkpt>
      <trkpt lat="45.85468" lon="1.20302">
        <ele>328.1</ele>
        <time>2024-10-21T07:52:05Z</time>
      </trkpt>
      <trkpt lat="45.85468" lon="1.20303">
        <ele>328.1</ele>
        <time>2024-10-21T07:52:06Z</time>
      </trkpt>
      <trkpt lat="45.85468" lon="1.20303">
        <ele>328.1</ele>
        <time>2024-10-21T07:52:07Z</time>
      </trkpt>
      <trkpt lat="45.85468" lon="1.20303">
        <ele>328.1</ele>
        <time>2024-10-21T07:52:08Z</time>
      </trkpt>
      <trkpt lat="45.85468" lon="1.20303">
        <ele>328.1</ele>
        <time>2024-10-21T07:52:09Z</time>
      </trkpt>
      <trkpt lat="45.85468" lon="1.20304">
        <ele>328.1</ele>
        <time>2024-10-21T07:52:10Z</time>
      </trkpt>
      <trkpt lat="45.85468" lon="1.20304">
        <ele>328.1</ele>
        <time>2024-10-21T07:52:11Z</time>
      </trkpt>
      <trkpt lat="45.85468" lon="1.20304">
        <ele>328.1</ele>
        <time>2024-10-21T07:52:12Z</time>
      </trkpt>
      <trkpt lat="45.85468" lon="1.20304">
        <ele>328.2</ele>
        <time>2024-10-21T07:52:13Z</time>
      </trkpt>
      <trkpt lat="45.85468" lon="1.20304">
        <ele>328.2</ele>
        <time>2024-10-21T07:52:14Z</time>
      </trkpt>
      <trkpt lat="45.85468" lon="1.20304">
        <ele>328.2</ele>
        <time>2024-10-21T07:52:15Z</time>
      </trkpt>
      <trkpt lat="45.85468" lon="1.20304">
        <ele>328.2</ele>
        <time>2024-10-21T07:52:16Z</time>
      </trkpt>
      <trkpt lat="45.85468" lon="1.20304">
        <ele>328.2</ele>
        <time>2024-10-21T07:52:17Z</time>
      </trkpt>
      <trkpt lat="45.85468" lon="1.20304">
        <ele>328.2</ele>
        <time>2024-10-21T07:52:18Z</time>
      </trkpt>
      <trkpt lat="45.85468" lon="1.20303">
        <ele>328.2</ele>
        <time>2024-10-21T07:52:19Z</time>
      </trkpt>
      <trkpt lat="45.85468" lon="1.20302">
        <ele>328.2</ele>
        <time>2024-10-21T07:52:20Z</time>
      </trkpt>
      <trkpt lat="45.85469" lon="1.20302">
        <ele>328.2</ele>
        <time>2024-10-21T07:52:21Z</time>
      </trkpt>
      <trkpt lat="45.85469" lon="1.20301">
        <ele>328.2</ele>
        <time>2024-10-21T07:52:22Z</time>
      </trkpt>
      <trkpt lat="45.85469" lon="1.20301">
        <ele>328.2</ele>
        <time>2024-10-21T07:52:23Z</time>
      </trkpt>
      <trkpt lat="45.85469" lon="1.20301">
        <ele>328.2</ele>
        <time>2024-10-21T07:52:24Z</time>
      </trkpt>
      <trkpt lat="45.85469" lon="1.203">
        <ele>328.2</ele>
        <time>2024-10-21T07:52:25Z</time>
      </trkpt>
      <trkpt lat="45.85468" lon="1.20302">
        <ele>328.2</ele>
        <time>2024-10-21T07:52:26Z</time>
      </trkpt>
      <trkpt lat="45.85468" lon="1.20302">
        <ele>328.2</ele>
        <time>2024-10-21T07:52:27Z</time>
      </trkpt>
      <trkpt lat="45.85469" lon="1.203">
        <ele>328.2</ele>
        <time>2024-10-21T07:52:28Z</time>
      </trkpt>
      <trkpt lat="45.85471" lon="1.20298">
        <ele>328.2</ele>
        <time>2024-10-21T07:52:29Z</time>
      </trkpt>
      <trkpt lat="45.85471" lon="1.20298">
        <ele>328.2</ele>
        <time>2024-10-21T07:52:30Z</time>
      </trkpt>
      <trkpt lat="45.85473" lon="1.20297">
        <ele>328.2</ele>
        <time>2024-10-21T07:52:31Z</time>
      </trkpt>
      <trkpt lat="45.85476" lon="1.20294">
        <ele>328.3</ele>
        <time>2024-10-21T07:52:32Z</time>
      </trkpt>
      <trkpt lat="45.85477" lon="1.20294">
        <ele>328.3</ele>
        <time>2024-10-21T07:52:33Z</time>
      </trkpt>
      <trkpt lat="45.85479" lon="1.20289">
        <ele>328.3</ele>
        <time>2024-10-21T07:52:34Z</time>
      </trkpt>
      <trkpt lat="45.85481" lon="1.20287">
        <ele>328.4</ele>
        <time>2024-10-21T07:52:35Z</time>
      </trkpt>
      <trkpt lat="45.85482" lon="1.20286">
        <ele>328.4</ele>
        <time>2024-10-21T07:52:36Z</time>
      </trkpt>
      <trkpt lat="45.85483" lon="1.20284">
        <ele>328.4</ele>
        <time>2024-10-21T07:52:37Z</time>
      </trkpt>
      <trkpt lat="45.85485" lon="1.20282">
        <ele>328.5</ele>
        <time>2024-10-21T07:52:38Z</time>
      </trkpt>
      <trkpt lat="45.85486" lon="1.20281">
        <ele>328.5</ele>
        <time>2024-10-21T07:52:39Z</time>
      </trkpt>
      <trkpt lat="45.85488" lon="1.2028">
        <ele>328.5</ele>
        <time>2024-10-21T07:52:40Z</time>
      </trkpt>
      <trkpt lat="45.85489" lon="1.20279">
        <ele>328.5</ele>
        <time>2024-10-21T07:52:41Z</time>
      </trkpt>
      <trkpt lat="45.85491" lon="1.20278">
        <ele>328.5</ele>
        <time>2024-10-21T07:52:42Z</time>
      </trkpt>
      <trkpt lat="45.85492" lon="1.20277">
        <ele>328.6</ele>
        <time>2024-10-21T07:52:43Z</time>
      </trkpt>
      <trkpt lat="45.85494" lon="1.20276">
        <ele>328.6</ele>
        <time>2024-10-21T07:52:44Z</time>
      </trkpt>
      <trkpt lat="45.85495" lon="1.20276">
        <ele>328.6</ele>
        <time>2024-10-21T07:52:45Z</time>
      </trkpt>
      <trkpt lat="45.85495" lon="1.20275">
        <ele>328.6</ele>
        <time>2024-10-21T07:52:46Z</time>
      </trkpt>
      <trkpt lat="45.85497" lon="1.20274">
        <ele>328.6</ele>
        <time>2024-10-21T07:52:47Z</time>
      </trkpt>
      <trkpt lat="45.85498" lon="1.20273">
        <ele>328.6</ele>
        <time>2024-10-21T07:52:48Z</time>
      </trkpt>
      <trkpt lat="45.855" lon="1.2027">
        <ele>328.6</ele>
        <time>2024-10-21T07:52:49Z</time>
      </trkpt>
      <trkpt lat="45.855" lon="1.20269">
        <ele>328.6</ele>
        <time>2024-10-21T07:52:50Z</time>
      </trkpt>
      <trkpt lat="45.855" lon="1.20269">
        <ele>328.6</ele>
        <time>2024-10-21T07:52:51Z</time>
      </trkpt>
      <trkpt lat="45.85501" lon="1.20267">
        <ele>328.6</ele>
        <time>2024-10-21T07:52:52Z</time>
      </trkpt>
      <trkpt lat="45.85502" lon="1.20267">
        <ele>328.6</ele>
        <time>2024-10-21T07:52:53Z</time>
      </trkpt>
      <trkpt lat="45.85502" lon="1.20266">
        <ele>328.7</ele>
        <time>2024-10-21T07:52:54Z</time>
      </trkpt>
      <trkpt lat="45.85503" lon="1.20265">
        <ele>328.7</ele>
        <time>2024-10-21T07:52:55Z</time>
      </trkpt>
      <trkpt lat="45.85505" lon="1.20264">
        <ele>328.7</ele>
        <time>2024-10-21T07:52:56Z</time>
      </trkpt>
      <trkpt lat="45.85505" lon="1.20263">
        <ele>328.7</ele>
        <time>2024-10-21T07:52:58Z</time>
      </trkpt>
      <trkpt lat="45.85506" lon="1.20262">
        <ele>328.7</ele>
        <time>2024-10-21T07:52:59Z</time>
      </trkpt>
      <trkpt lat="45.85507" lon="1.20261">
        <ele>328.7</ele>
        <time>2024-10-21T07:53:00Z</time>
      </trkpt>
      <trkpt lat="45.85508" lon="1.2026">
        <ele>328.7</ele>
        <time>2024-10-21T07:53:01Z</time>
      </trkpt>
      <trkpt lat="45.85509" lon="1.2026">
        <ele>328.7</ele>
        <time>2024-10-21T07:53:02Z</time>
      </trkpt>
      <trkpt lat="45.8551" lon="1.20259">
        <ele>328.7</ele>
        <time>2024-10-21T07:53:03Z</time>
      </trkpt>
      <trkpt lat="45.8551" lon="1.20259">
        <ele>328.7</ele>
        <time>2024-10-21T07:53:04Z</time>
      </trkpt>
      <trkpt lat="45.85511" lon="1.20259">
        <ele>328.7</ele>
        <time>2024-10-21T07:53:05Z</time>
      </trkpt>
      <trkpt lat="45.85512" lon="1.2026">
        <ele>328.7</ele>
        <time>2024-10-21T07:53:06Z</time>
      </trkpt>
      <trkpt lat="45.85512" lon="1.20262">
        <ele>328.7</ele>
        <time>2024-10-21T07:53:07Z</time>
      </trkpt>
      <trkpt lat="45.85511" lon="1.20262">
        <ele>328.7</ele>
        <time>2024-10-21T07:53:08Z</time>
      </trkpt>
      <trkpt lat="45.85511" lon="1.20263">
        <ele>328.7</ele>
        <time>2024-10-21T07:53:09Z</time>
      </trkpt>
      <trkpt lat="45.85511" lon="1.20263">
        <ele>328.7</ele>
        <time>2024-10-21T07:53:10Z</time>
      </trkpt>
      <trkpt lat="45.85511" lon="1.20264">
        <ele>328.7</ele>
        <time>2024-10-21T07:53:11Z</time>
      </trkpt>
      <trkpt lat="45.85511" lon="1.20265">
        <ele>328.7</ele>
        <time>2024-10-21T07:53:12Z</time>
      </trkpt>
      <trkpt lat="45.85511" lon="1.20265">
        <ele>328.7</ele>
        <time>2024-10-21T07:53:13Z</time>
      </trkpt>
      <trkpt lat="45.85511" lon="1.20265">
        <ele>328.7</ele>
        <time>2024-10-21T07:53:14Z</time>
      </trkpt>
      <trkpt lat="45.85513" lon="1.20263">
        <ele>328.7</ele>
        <time>2024-10-21T07:53:15Z</time>
      </trkpt>
      <trkpt lat="45.85513" lon="1.20263">
        <ele>328.7</ele>
        <time>2024-10-21T07:53:16Z</time>
      </trkpt>
      <trkpt lat="45.85514" lon="1.20262">
        <ele>328.7</ele>
        <time>2024-10-21T07:53:17Z</time>
      </trkpt>
      <trkpt lat="45.85515" lon="1.2026">
        <ele>328.7</ele>
        <time>2024-10-21T07:53:18Z</time>
      </trkpt>
      <trkpt lat="45.85516" lon="1.20259">
        <ele>328.7</ele>
        <time>2024-10-21T07:53:19Z</time>
      </trkpt>
      <trkpt lat="45.85517" lon="1.20258">
        <ele>328.8</ele>
        <time>2024-10-21T07:53:20Z</time>
      </trkpt>
      <trkpt lat="45.85518" lon="1.20257">
        <ele>328.8</ele>
        <time>2024-10-21T07:53:21Z</time>
      </trkpt>
      <trkpt lat="45.85519" lon="1.20256">
        <ele>328.8</ele>
        <time>2024-10-21T07:53:22Z</time>
      </trkpt>
      <trkpt lat="45.85519" lon="1.20255">
        <ele>328.8</ele>
        <time>2024-10-21T07:53:23Z</time>
      </trkpt>
      <trkpt lat="45.8552" lon="1.20254">
        <ele>328.8</ele>
        <time>2024-10-21T07:53:24Z</time>
      </trkpt>
      <trkpt lat="45.85521" lon="1.20252">
        <ele>328.8</ele>
        <time>2024-10-21T07:53:25Z</time>
      </trkpt>
      <trkpt lat="45.85521" lon="1.20251">
        <ele>328.8</ele>
        <time>2024-10-21T07:53:26Z</time>
      </trkpt>
      <trkpt lat="45.85522" lon="1.2025">
        <ele>328.8</ele>
        <time>2024-10-21T07:53:27Z</time>
      </trkpt>
      <trkpt lat="45.85524" lon="1.20247">
        <ele>328.8</ele>
        <time>2024-10-21T07:53:28Z</time>
      </trkpt>
      <trkpt lat="45.85524" lon="1.20246">
        <ele>328.8</ele>
        <time>2024-10-21T07:53:30Z</time>
      </trkpt>
      <trkpt lat="45.85525" lon="1.20245">
        <ele>328.8</ele>
        <time>2024-10-21T07:53:31Z</time>
      </trkpt>
      <trkpt lat="45.85526" lon="1.20243">
        <ele>328.8</ele>
        <time>2024-10-21T07:53:32Z</time>
      </trkpt>
      <trkpt lat="45.85528" lon="1.20241">
        <ele>328.8</ele>
        <time>2024-10-21T07:53:33Z</time>
      </trkpt>
      <trkpt lat="45.85528" lon="1.2024">
        <ele>328.8</ele>
        <time>2024-10-21T07:53:34Z</time>
      </trkpt>
      <trkpt lat="45.85529" lon="1.20239">
        <ele>328.8</ele>
        <time>2024-10-21T07:53:35Z</time>
      </trkpt>
      <trkpt lat="45.8553" lon="1.20237">
        <ele>328.8</ele>
        <time>2024-10-21T07:53:36Z</time>
      </trkpt>
      <trkpt lat="45.85531" lon="1.20236">
        <ele>328.8</ele>
        <time>2024-10-21T07:53:37Z</time>
      </trkpt>
      <trkpt lat="45.85531" lon="1.20236">
        <ele>328.8</ele>
        <time>2024-10-21T07:53:38Z</time>
      </trkpt>
      <trkpt lat="45.85532" lon="1.20235">
        <ele>328.8</ele>
        <time>2024-10-21T07:53:39Z</time>
      </trkpt>
      <trkpt lat="45.85533" lon="1.20234">
        <ele>328.8</ele>
        <time>2024-10-21T07:53:40Z</time>
      </trkpt>
      <trkpt lat="45.85535" lon="1.20234">
        <ele>328.8</ele>
        <time>2024-10-21T07:53:41Z</time>
      </trkpt>
      <trkpt lat="45.85536" lon="1.20234">
        <ele>328.8</ele>
        <time>2024-10-21T07:53:42Z</time>
      </trkpt>
      <trkpt lat="45.85536" lon="1.20233">
        <ele>328.8</ele>
        <time>2024-10-21T07:53:43Z</time>
      </trkpt>
      <trkpt lat="45.85536" lon="1.20232">
        <ele>328.8</ele>
        <time>2024-10-21T07:53:44Z</time>
      </trkpt>
      <trkpt lat="45.85537" lon="1.20231">
        <ele>328.8</ele>
        <time>2024-10-21T07:53:45Z</time>
      </trkpt>
      <trkpt lat="45.85538" lon="1.20229">
        <ele>328.8</ele>
        <time>2024-10-21T07:53:46Z</time>
      </trkpt>
      <trkpt lat="45.85538" lon="1.20228">
        <ele>328.8</ele>
        <time>2024-10-21T07:53:47Z</time>
      </trkpt>
      <trkpt lat="45.85538" lon="1.20226">
        <ele>328.8</ele>
        <time>2024-10-21T07:53:48Z</time>
      </trkpt>
      <trkpt lat="45.85539" lon="1.20225">
        <ele>328.8</ele>
        <time>2024-10-21T07:53:49Z</time>
      </trkpt>
      <trkpt lat="45.85539" lon="1.20223">
        <ele>328.8</ele>
        <time>2024-10-21T07:53:50Z</time>
      </trkpt>
      <trkpt lat="45.85539" lon="1.20222">
        <ele>328.8</ele>
        <time>2024-10-21T07:53:51Z</time>
      </trkpt>
      <trkpt lat="45.8554" lon="1.2022">
        <ele>328.8</ele>
        <time>2024-10-21T07:53:52Z</time>
      </trkpt>
      <trkpt lat="45.8554" lon="1.20219">
        <ele>328.8</ele>
        <time>2024-10-21T07:53:53Z</time>
      </trkpt>
      <trkpt lat="45.85541" lon="1.20218">
        <ele>328.8</ele>
        <time>2024-10-21T07:53:54Z</time>
      </trkpt>
      <trkpt lat="45.85541" lon="1.20217">
        <ele>328.8</ele>
        <time>2024-10-21T07:53:55Z</time>
      </trkpt>
      <trkpt lat="45.85542" lon="1.20216">
        <ele>328.8</ele>
        <time>2024-10-21T07:53:56Z</time>
      </trkpt>
      <trkpt lat="45.85543" lon="1.20214">
        <ele>328.8</ele>
        <time>2024-10-21T07:53:57Z</time>
      </trkpt>
      <trkpt lat="45.85543" lon="1.20213">
        <ele>328.8</ele>
        <time>2024-10-21T07:53:58Z</time>
      </trkpt>
      <trkpt lat="45.85544" lon="1.2021">
        <ele>328.8</ele>
        <time>2024-10-21T07:53:59Z</time>
      </trkpt>
      <trkpt lat="45.85545" lon="1.20209">
        <ele>328.8</ele>
        <time>2024-10-21T07:54:00Z</time>
      </trkpt>
      <trkpt lat="45.85546" lon="1.20207">
        <ele>328.8</ele>
        <time>2024-10-21T07:54:02Z</time>
      </trkpt>
      <trkpt lat="45.85547" lon="1.20206">
        <ele>328.8</ele>
        <time>2024-10-21T07:54:03Z</time>
      </trkpt>
      <trkpt lat="45.85547" lon="1.20205">
        <ele>328.8</ele>
        <time>2024-10-21T07:54:04Z</time>
      </trkpt>
      <trkpt lat="45.85548" lon="1.20204">
        <ele>328.8</ele>
        <time>2024-10-21T07:54:05Z</time>
      </trkpt>
      <trkpt lat="45.85549" lon="1.20203">
        <ele>328.8</ele>
        <time>2024-10-21T07:54:06Z</time>
      </trkpt>
      <trkpt lat="45.85549" lon="1.20201">
        <ele>328.8</ele>
        <time>2024-10-21T07:54:07Z</time>
      </trkpt>
      <trkpt lat="45.8555" lon="1.202">
        <ele>328.8</ele>
        <time>2024-10-21T07:54:08Z</time>
      </trkpt>
      <trkpt lat="45.8555" lon="1.20199">
        <ele>328.8</ele>
        <time>2024-10-21T07:54:09Z</time>
      </trkpt>
      <trkpt lat="45.8555" lon="1.20195">
        <ele>328.9</ele>
        <time>2024-10-21T07:54:10Z</time>
      </trkpt>
      <trkpt lat="45.85551" lon="1.20193">
        <ele>328.9</ele>
        <time>2024-10-21T07:54:12Z</time>
      </trkpt>
      <trkpt lat="45.85551" lon="1.20192">
        <ele>328.9</ele>
        <time>2024-10-21T07:54:13Z</time>
      </trkpt>
      <trkpt lat="45.85552" lon="1.2019">
        <ele>328.9</ele>
        <time>2024-10-21T07:54:14Z</time>
      </trkpt>
      <trkpt lat="45.85552" lon="1.20189">
        <ele>328.9</ele>
        <time>2024-10-21T07:54:15Z</time>
      </trkpt>
      <trkpt lat="45.85553" lon="1.20187">
        <ele>328.9</ele>
        <time>2024-10-21T07:54:16Z</time>
      </trkpt>
      <trkpt lat="45.85553" lon="1.20185">
        <ele>328.9</ele>
        <time>2024-10-21T07:54:17Z</time>
      </trkpt>
      <trkpt lat="45.85554" lon="1.20184">
        <ele>328.9</ele>
        <time>2024-10-21T07:54:18Z</time>
      </trkpt>
      <trkpt lat="45.85554" lon="1.20182">
        <ele>328.9</ele>
        <time>2024-10-21T07:54:19Z</time>
      </trkpt>
      <trkpt lat="45.85555" lon="1.20181">
        <ele>329</ele>
        <time>2024-10-21T07:54:20Z</time>
      </trkpt>
      <trkpt lat="45.85555" lon="1.20179">
        <ele>329</ele>
        <time>2024-10-21T07:54:21Z</time>
      </trkpt>
      <trkpt lat="45.85556" lon="1.20177">
        <ele>329</ele>
        <time>2024-10-21T07:54:22Z</time>
      </trkpt>
      <trkpt lat="45.85556" lon="1.20176">
        <ele>329</ele>
        <time>2024-10-21T07:54:23Z</time>
      </trkpt>
      <trkpt lat="45.85556" lon="1.20174">
        <ele>329</ele>
        <time>2024-10-21T07:54:24Z</time>
      </trkpt>
      <trkpt lat="45.85557" lon="1.20173">
        <ele>329</ele>
        <time>2024-10-21T07:54:25Z</time>
      </trkpt>
      <trkpt lat="45.85557" lon="1.20171">
        <ele>329</ele>
        <time>2024-10-21T07:54:26Z</time>
      </trkpt>
      <trkpt lat="45.85557" lon="1.20169">
        <ele>329.1</ele>
        <time>2024-10-21T07:54:27Z</time>
      </trkpt>
      <trkpt lat="45.85558" lon="1.20166">
        <ele>329.1</ele>
        <time>2024-10-21T07:54:28Z</time>
      </trkpt>
      <trkpt lat="45.85558" lon="1.20164">
        <ele>329.1</ele>
        <time>2024-10-21T07:54:30Z</time>
      </trkpt>
      <trkpt lat="45.85558" lon="1.20162">
        <ele>329.1</ele>
        <time>2024-10-21T07:54:31Z</time>
      </trkpt>
      <trkpt lat="45.85558" lon="1.2016">
        <ele>329.1</ele>
        <time>2024-10-21T07:54:32Z</time>
      </trkpt>
      <trkpt lat="45.85558" lon="1.20159">
        <ele>329.1</ele>
        <time>2024-10-21T07:54:33Z</time>
      </trkpt>
      <trkpt lat="45.85559" lon="1.20157">
        <ele>329.1</ele>
        <time>2024-10-21T07:54:34Z</time>
      </trkpt>
      <trkpt lat="45.85559" lon="1.20156">
        <ele>329.2</ele>
        <time>2024-10-21T07:54:35Z</time>
      </trkpt>
      <trkpt lat="45.8556" lon="1.20154">
        <ele>329.2</ele>
        <time>2024-10-21T07:54:36Z</time>
      </trkpt>
      <trkpt lat="45.85561" lon="1.20152">
        <ele>329.2</ele>
        <time>2024-10-21T07:54:37Z</time>
      </trkpt>
      <trkpt lat="45.85562" lon="1.20151">
        <ele>329.2</ele>
        <time>2024-10-21T07:54:38Z</time>
      </trkpt>
      <trkpt lat="45.85562" lon="1.2015">
        <ele>329.2</ele>
        <time>2024-10-21T07:54:39Z</time>
      </trkpt>
      <trkpt lat="45.85563" lon="1.20149">
        <ele>329.3</ele>
        <time>2024-10-21T07:54:40Z</time>
      </trkpt>
      <trkpt lat="45.85564" lon="1.20147">
        <ele>329.3</ele>
        <time>2024-10-21T07:54:41Z</time>
      </trkpt>
      <trkpt lat="45.85565" lon="1.20146">
        <ele>329.3</ele>
        <time>2024-10-21T07:54:42Z</time>
      </trkpt>
      <trkpt lat="45.85565" lon="1.20145">
        <ele>329.3</ele>
        <time>2024-10-21T07:54:43Z</time>
      </trkpt>
      <trkpt lat="45.85566" lon="1.20142">
        <ele>329.3</ele>
        <time>2024-10-21T07:54:44Z</time>
      </trkpt>
      <trkpt lat="45.85566" lon="1.2014">
        <ele>329.4</ele>
        <time>2024-10-21T07:54:46Z</time>
      </trkpt>
      <trkpt lat="45.85567" lon="1.20139">
        <ele>329.4</ele>
        <time>2024-10-21T07:54:47Z</time>
      </trkpt>
      <trkpt lat="45.85568" lon="1.20138">
        <ele>329.4</ele>
        <time>2024-10-21T07:54:48Z</time>
      </trkpt>
      <trkpt lat="45.85568" lon="1.20137">
        <ele>329.4</ele>
        <time>2024-10-21T07:54:49Z</time>
      </trkpt>
      <trkpt lat="45.85569" lon="1.20135">
        <ele>329.5</ele>
        <time>2024-10-21T07:54:50Z</time>
      </trkpt>
      <trkpt lat="45.8557" lon="1.20134">
        <ele>329.5</ele>
        <time>2024-10-21T07:54:51Z</time>
      </trkpt>
      <trkpt lat="45.8557" lon="1.20133">
        <ele>329.5</ele>
        <time>2024-10-21T07:54:52Z</time>
      </trkpt>
      <trkpt lat="45.8557" lon="1.20132">
        <ele>329.5</ele>
        <time>2024-10-21T07:54:53Z</time>
      </trkpt>
      <trkpt lat="45.85571" lon="1.2013">
        <ele>329.5</ele>
        <time>2024-10-21T07:54:54Z</time>
      </trkpt>
      <trkpt lat="45.85572" lon="1.20129">
        <ele>329.6</ele>
        <time>2024-10-21T07:54:55Z</time>
      </trkpt>
      <trkpt lat="45.85572" lon="1.20127">
        <ele>329.6</ele>
        <time>2024-10-21T07:54:56Z</time>
      </trkpt>
      <trkpt lat="45.85573" lon="1.20125">
        <ele>329.6</ele>
        <time>2024-10-21T07:54:57Z</time>
      </trkpt>
      <trkpt lat="45.85573" lon="1.20124">
        <ele>329.6</ele>
        <time>2024-10-21T07:54:58Z</time>
      </trkpt>
      <trkpt lat="45.85574" lon="1.20123">
        <ele>329.7</ele>
        <time>2024-10-21T07:54:59Z</time>
      </trkpt>
      <trkpt lat="45.85574" lon="1.20121">
        <ele>329.7</ele>
        <time>2024-10-21T07:55:00Z</time>
      </trkpt>
      <trkpt lat="45.85575" lon="1.20119">
        <ele>329.7</ele>
        <time>2024-10-21T07:55:01Z</time>
      </trkpt>
      <trkpt lat="45.85575" lon="1.20117">
        <ele>329.8</ele>
        <time>2024-10-21T07:55:02Z</time>
      </trkpt>
      <trkpt lat="45.85575" lon="1.20116">
        <ele>329.8</ele>
        <time>2024-10-21T07:55:03Z</time>
      </trkpt>
      <trkpt lat="45.85576" lon="1.20115">
        <ele>329.8</ele>
        <time>2024-10-21T07:55:04Z</time>
      </trkpt>
      <trkpt lat="45.85576" lon="1.20113">
        <ele>329.8</ele>
        <time>2024-10-21T07:55:05Z</time>
      </trkpt>
      <trkpt lat="45.85576" lon="1.20109">
        <ele>329.9</ele>
        <time>2024-10-21T07:55:06Z</time>
      </trkpt>
      <trkpt lat="45.85576" lon="1.20107">
        <ele>329.9</ele>
        <time>2024-10-21T07:55:08Z</time>
      </trkpt>
      <trkpt lat="45.85576" lon="1.20106">
        <ele>329.9</ele>
        <time>2024-10-21T07:55:09Z</time>
      </trkpt>
      <trkpt lat="45.85577" lon="1.20104">
        <ele>329.9</ele>
        <time>2024-10-21T07:55:10Z</time>
      </trkpt>
      <trkpt lat="45.85577" lon="1.20101">
        <ele>330</ele>
        <time>2024-10-21T07:55:11Z</time>
      </trkpt>
      <trkpt lat="45.85577" lon="1.201">
        <ele>330</ele>
        <time>2024-10-21T07:55:12Z</time>
      </trkpt>
      <trkpt lat="45.85577" lon="1.20098">
        <ele>330</ele>
        <time>2024-10-21T07:55:13Z</time>
      </trkpt>
      <trkpt lat="45.85577" lon="1.20095">
        <ele>330</ele>
        <time>2024-10-21T07:55:14Z</time>
      </trkpt>
      <trkpt lat="45.85578" lon="1.20093">
        <ele>330.1</ele>
        <time>2024-10-21T07:55:15Z</time>
      </trkpt>
      <trkpt lat="45.85578" lon="1.20092">
        <ele>330.1</ele>
        <time>2024-10-21T07:55:16Z</time>
      </trkpt>
      <trkpt lat="45.85579" lon="1.2009">
        <ele>330.1</ele>
        <time>2024-10-21T07:55:18Z</time>
      </trkpt>
      <trkpt lat="45.8558" lon="1.20089">
        <ele>330.1</ele>
        <time>2024-10-21T07:55:19Z</time>
      </trkpt>
      <trkpt lat="45.8558" lon="1.20088">
        <ele>330.1</ele>
        <time>2024-10-21T07:55:20Z</time>
      </trkpt>
      <trkpt lat="45.85581" lon="1.20086">
        <ele>330.2</ele>
        <time>2024-10-21T07:55:21Z</time>
      </trkpt>
      <trkpt lat="45.85581" lon="1.20086">
        <ele>330.2</ele>
        <time>2024-10-21T07:55:22Z</time>
      </trkpt>
      <trkpt lat="45.85581" lon="1.20085">
        <ele>330.2</ele>
        <time>2024-10-21T07:55:23Z</time>
      </trkpt>
      <trkpt lat="45.85581" lon="1.20083">
        <ele>330.2</ele>
        <time>2024-10-21T07:55:24Z</time>
      </trkpt>
      <trkpt lat="45.85582" lon="1.20082">
        <ele>330.2</ele>
        <time>2024-10-21T07:55:25Z</time>
      </trkpt>
      <trkpt lat="45.85582" lon="1.20081">
        <ele>330.2</ele>
        <time>2024-10-21T07:55:26Z</time>
      </trkpt>
      <trkpt lat="45.85583" lon="1.20079">
        <ele>330.2</ele>
        <time>2024-10-21T07:55:27Z</time>
      </trkpt>
      <trkpt lat="45.85584" lon="1.20078">
        <ele>330.3</ele>
        <time>2024-10-21T07:55:28Z</time>
      </trkpt>
      <trkpt lat="45.85584" lon="1.20077">
        <ele>330.3</ele>
        <time>2024-10-21T07:55:29Z</time>
      </trkpt>
      <trkpt lat="45.85584" lon="1.20075">
        <ele>330.3</ele>
        <time>2024-10-21T07:55:30Z</time>
      </trkpt>
      <trkpt lat="45.85585" lon="1.20074">
        <ele>330.3</ele>
        <time>2024-10-21T07:55:31Z</time>
      </trkpt>
      <trkpt lat="45.85586" lon="1.20073">
        <ele>330.3</ele>
        <time>2024-10-21T07:55:32Z</time>
      </trkpt>
      <trkpt lat="45.85587" lon="1.20072">
        <ele>330.3</ele>
        <time>2024-10-21T07:55:33Z</time>
      </trkpt>
      <trkpt lat="45.85588" lon="1.20071">
        <ele>330.4</ele>
        <time>2024-10-21T07:55:34Z</time>
      </trkpt>
      <trkpt lat="45.85589" lon="1.20068">
        <ele>330.4</ele>
        <time>2024-10-21T07:55:35Z</time>
      </trkpt>
      <trkpt lat="45.85589" lon="1.20066">
        <ele>330.4</ele>
        <time>2024-10-21T07:55:37Z</time>
      </trkpt>
      <trkpt lat="45.85589" lon="1.20065">
        <ele>330.4</ele>
        <time>2024-10-21T07:55:38Z</time>
      </trkpt>
      <trkpt lat="45.8559" lon="1.20063">
        <ele>330.5</ele>
        <time>2024-10-21T07:55:39Z</time>
      </trkpt>
      <trkpt lat="45.8559" lon="1.20062">
        <ele>330.5</ele>
        <time>2024-10-21T07:55:40Z</time>
      </trkpt>
      <trkpt lat="45.85591" lon="1.2006">
        <ele>330.5</ele>
        <time>2024-10-21T07:55:41Z</time>
      </trkpt>
      <trkpt lat="45.85591" lon="1.20057">
        <ele>330.5</ele>
        <time>2024-10-21T07:55:42Z</time>
      </trkpt>
      <trkpt lat="45.85591" lon="1.20056">
        <ele>330.5</ele>
        <time>2024-10-21T07:55:43Z</time>
      </trkpt>
      <trkpt lat="45.85592" lon="1.20055">
        <ele>330.5</ele>
        <time>2024-10-21T07:55:44Z</time>
      </trkpt>
      <trkpt lat="45.85592" lon="1.20052">
        <ele>330.6</ele>
        <time>2024-10-21T07:55:45Z</time>
      </trkpt>
      <trkpt lat="45.85592" lon="1.20051">
        <ele>330.6</ele>
        <time>2024-10-21T07:55:46Z</time>
      </trkpt>
      <trkpt lat="45.85593" lon="1.2005">
        <ele>330.6</ele>
        <time>2024-10-21T07:55:47Z</time>
      </trkpt>
      <trkpt lat="45.85593" lon="1.20047">
        <ele>330.7</ele>
        <time>2024-10-21T07:55:48Z</time>
      </trkpt>
      <trkpt lat="45.85593" lon="1.20046">
        <ele>330.7</ele>
        <time>2024-10-21T07:55:49Z</time>
      </trkpt>
      <trkpt lat="45.85593" lon="1.20044">
        <ele>330.7</ele>
        <time>2024-10-21T07:55:50Z</time>
      </trkpt>
      <trkpt lat="45.85594" lon="1.20041">
        <ele>330.7</ele>
        <time>2024-10-21T07:55:51Z</time>
      </trkpt>
      <trkpt lat="45.85594" lon="1.2004">
        <ele>330.8</ele>
        <time>2024-10-21T07:55:52Z</time>
      </trkpt>
      <trkpt lat="45.85594" lon="1.20039">
        <ele>330.8</ele>
        <time>2024-10-21T07:55:53Z</time>
      </trkpt>
      <trkpt lat="45.85595" lon="1.20036">
        <ele>330.8</ele>
        <time>2024-10-21T07:55:54Z</time>
      </trkpt>
      <trkpt lat="45.85596" lon="1.20034">
        <ele>330.8</ele>
        <time>2024-10-21T07:55:55Z</time>
      </trkpt>
      <trkpt lat="45.85596" lon="1.20032">
        <ele>330.9</ele>
        <time>2024-10-21T07:55:56Z</time>
      </trkpt>
      <trkpt lat="45.85596" lon="1.20032">
        <ele>330.9</ele>
        <time>2024-10-21T07:55:57Z</time>
      </trkpt>
      <trkpt lat="45.85597" lon="1.2003">
        <ele>330.9</ele>
        <time>2024-10-21T07:55:58Z</time>
      </trkpt>
      <trkpt lat="45.85597" lon="1.20027">
        <ele>331</ele>
        <time>2024-10-21T07:55:59Z</time>
      </trkpt>
      <trkpt lat="45.85598" lon="1.20026">
        <ele>331</ele>
        <time>2024-10-21T07:56:00Z</time>
      </trkpt>
      <trkpt lat="45.85598" lon="1.20025">
        <ele>331</ele>
        <time>2024-10-21T07:56:01Z</time>
      </trkpt>
      <trkpt lat="45.85598" lon="1.20023">
        <ele>331</ele>
        <time>2024-10-21T07:56:02Z</time>
      </trkpt>
      <trkpt lat="45.85599" lon="1.20021">
        <ele>331.1</ele>
        <time>2024-10-21T07:56:03Z</time>
      </trkpt>
      <trkpt lat="45.856" lon="1.20019">
        <ele>331.1</ele>
        <time>2024-10-21T07:56:04Z</time>
      </trkpt>
      <trkpt lat="45.85601" lon="1.20017">
        <ele>331.2</ele>
        <time>2024-10-21T07:56:05Z</time>
      </trkpt>
      <trkpt lat="45.85601" lon="1.20016">
        <ele>331.2</ele>
        <time>2024-10-21T07:56:06Z</time>
      </trkpt>
      <trkpt lat="45.85601" lon="1.20015">
        <ele>331.2</ele>
        <time>2024-10-21T07:56:07Z</time>
      </trkpt>
      <trkpt lat="45.85602" lon="1.20012">
        <ele>331.3</ele>
        <time>2024-10-21T07:56:08Z</time>
      </trkpt>
      <trkpt lat="45.85602" lon="1.20011">
        <ele>331.3</ele>
        <time>2024-10-21T07:56:09Z</time>
      </trkpt>
      <trkpt lat="45.85603" lon="1.2001">
        <ele>331.3</ele>
        <time>2024-10-21T07:56:10Z</time>
      </trkpt>
      <trkpt lat="45.85603" lon="1.20008">
        <ele>331.4</ele>
        <time>2024-10-21T07:56:11Z</time>
      </trkpt>
      <trkpt lat="45.85603" lon="1.20006">
        <ele>331.4</ele>
        <time>2024-10-21T07:56:12Z</time>
      </trkpt>
      <trkpt lat="45.85603" lon="1.20004">
        <ele>331.5</ele>
        <time>2024-10-21T07:56:13Z</time>
      </trkpt>
      <trkpt lat="45.85604" lon="1.20002">
        <ele>331.5</ele>
        <time>2024-10-21T07:56:14Z</time>
      </trkpt>
      <trkpt lat="45.85604" lon="1.2">
        <ele>331.6</ele>
        <time>2024-10-21T07:56:15Z</time>
      </trkpt>
      <trkpt lat="45.85604" lon="1.19999">
        <ele>331.6</ele>
        <time>2024-10-21T07:56:16Z</time>
      </trkpt>
      <trkpt lat="45.85604" lon="1.19997">
        <ele>331.7</ele>
        <time>2024-10-21T07:56:17Z</time>
      </trkpt>
      <trkpt lat="45.85605" lon="1.19995">
        <ele>331.7</ele>
        <time>2024-10-21T07:56:18Z</time>
      </trkpt>
      <trkpt lat="45.85605" lon="1.19993">
        <ele>331.8</ele>
        <time>2024-10-21T07:56:19Z</time>
      </trkpt>
      <trkpt lat="45.85605" lon="1.19992">
        <ele>331.8</ele>
        <time>2024-10-21T07:56:20Z</time>
      </trkpt>
      <trkpt lat="45.85606" lon="1.1999">
        <ele>331.9</ele>
        <time>2024-10-21T07:56:21Z</time>
      </trkpt>
      <trkpt lat="45.85606" lon="1.19989">
        <ele>331.9</ele>
        <time>2024-10-21T07:56:22Z</time>
      </trkpt>
      <trkpt lat="45.85607" lon="1.19987">
        <ele>332</ele>
        <time>2024-10-21T07:56:23Z</time>
      </trkpt>
      <trkpt lat="45.85607" lon="1.19985">
        <ele>332.1</ele>
        <time>2024-10-21T07:56:24Z</time>
      </trkpt>
      <trkpt lat="45.85607" lon="1.19983">
        <ele>332.1</ele>
        <time>2024-10-21T07:56:25Z</time>
      </trkpt>
      <trkpt lat="45.85608" lon="1.19982">
        <ele>332.2</ele>
        <time>2024-10-21T07:56:26Z</time>
      </trkpt>
      <trkpt lat="45.85609" lon="1.19979">
        <ele>332.3</ele>
        <time>2024-10-21T07:56:27Z</time>
      </trkpt>
      <trkpt lat="45.85609" lon="1.19978">
        <ele>332.4</ele>
        <time>2024-10-21T07:56:28Z</time>
      </trkpt>
      <trkpt lat="45.85609" lon="1.19977">
        <ele>332.4</ele>
        <time>2024-10-21T07:56:29Z</time>
      </trkpt>
      <trkpt lat="45.8561" lon="1.19975">
        <ele>332.5</ele>
        <time>2024-10-21T07:56:30Z</time>
      </trkpt>
      <trkpt lat="45.8561" lon="1.19974">
        <ele>332.5</ele>
        <time>2024-10-21T07:56:31Z</time>
      </trkpt>
      <trkpt lat="45.85611" lon="1.19973">
        <ele>332.6</ele>
        <time>2024-10-21T07:56:32Z</time>
      </trkpt>
      <trkpt lat="45.85612" lon="1.19971">
        <ele>332.7</ele>
        <time>2024-10-21T07:56:33Z</time>
      </trkpt>
      <trkpt lat="45.85612" lon="1.1997">
        <ele>332.7</ele>
        <time>2024-10-21T07:56:34Z</time>
      </trkpt>
      <trkpt lat="45.85613" lon="1.19969">
        <ele>332.8</ele>
        <time>2024-10-21T07:56:35Z</time>
      </trkpt>
      <trkpt lat="45.85614" lon="1.19966">
        <ele>332.9</ele>
        <time>2024-10-21T07:56:36Z</time>
      </trkpt>
      <trkpt lat="45.85614" lon="1.19965">
        <ele>333</ele>
        <time>2024-10-21T07:56:37Z</time>
      </trkpt>
      <trkpt lat="45.85615" lon="1.19964">
        <ele>333</ele>
        <time>2024-10-21T07:56:38Z</time>
      </trkpt>
      <trkpt lat="45.85615" lon="1.19963">
        <ele>333.1</ele>
        <time>2024-10-21T07:56:39Z</time>
      </trkpt>
      <trkpt lat="45.85616" lon="1.19961">
        <ele>333.2</ele>
        <time>2024-10-21T07:56:40Z</time>
      </trkpt>
      <trkpt lat="45.85617" lon="1.1996">
        <ele>333.2</ele>
        <time>2024-10-21T07:56:41Z</time>
      </trkpt>
      <trkpt lat="45.85617" lon="1.19958">
        <ele>333.3</ele>
        <time>2024-10-21T07:56:42Z</time>
      </trkpt>
      <trkpt lat="45.85618" lon="1.19957">
        <ele>333.4</ele>
        <time>2024-10-21T07:56:43Z</time>
      </trkpt>
      <trkpt lat="45.85618" lon="1.19955">
        <ele>333.5</ele>
        <time>2024-10-21T07:56:44Z</time>
      </trkpt>
      <trkpt lat="45.85619" lon="1.19954">
        <ele>333.5</ele>
        <time>2024-10-21T07:56:45Z</time>
      </trkpt>
      <trkpt lat="45.8562" lon="1.19953">
        <ele>333.6</ele>
        <time>2024-10-21T07:56:46Z</time>
      </trkpt>
      <trkpt lat="45.8562" lon="1.19952">
        <ele>333.7</ele>
        <time>2024-10-21T07:56:47Z</time>
      </trkpt>
      <trkpt lat="45.85622" lon="1.19949">
        <ele>333.8</ele>
        <time>2024-10-21T07:56:48Z</time>
      </trkpt>
      <trkpt lat="45.85622" lon="1.19948">
        <ele>333.8</ele>
        <time>2024-10-21T07:56:49Z</time>
      </trkpt>
      <trkpt lat="45.85622" lon="1.19947">
        <ele>333.9</ele>
        <time>2024-10-21T07:56:50Z</time>
      </trkpt>
      <trkpt lat="45.85623" lon="1.19944">
        <ele>334</ele>
        <time>2024-10-21T07:56:51Z</time>
      </trkpt>
      <trkpt lat="45.85624" lon="1.19944">
        <ele>334.1</ele>
        <time>2024-10-21T07:56:52Z</time>
      </trkpt>
      <trkpt lat="45.85624" lon="1.19943">
        <ele>334.1</ele>
        <time>2024-10-21T07:56:53Z</time>
      </trkpt>
      <trkpt lat="45.85625" lon="1.19941">
        <ele>334.2</ele>
        <time>2024-10-21T07:56:54Z</time>
      </trkpt>
      <trkpt lat="45.85626" lon="1.1994">
        <ele>334.3</ele>
        <time>2024-10-21T07:56:55Z</time>
      </trkpt>
      <trkpt lat="45.85626" lon="1.19939">
        <ele>334.3</ele>
        <time>2024-10-21T07:56:56Z</time>
      </trkpt>
      <trkpt lat="45.85627" lon="1.19937">
        <ele>334.4</ele>
        <time>2024-10-21T07:56:57Z</time>
      </trkpt>
      <trkpt lat="45.85627" lon="1.19936">
        <ele>334.4</ele>
        <time>2024-10-21T07:56:58Z</time>
      </trkpt>
      <trkpt lat="45.85628" lon="1.19935">
        <ele>334.5</ele>
        <time>2024-10-21T07:56:59Z</time>
      </trkpt>
      <trkpt lat="45.85629" lon="1.19934">
        <ele>334.5</ele>
        <time>2024-10-21T07:57:00Z</time>
      </trkpt>
      <trkpt lat="45.85629" lon="1.19933">
        <ele>334.6</ele>
        <time>2024-10-21T07:57:01Z</time>
      </trkpt>
      <trkpt lat="45.8563" lon="1.19932">
        <ele>334.6</ele>
        <time>2024-10-21T07:57:02Z</time>
      </trkpt>
      <trkpt lat="45.85631" lon="1.19931">
        <ele>334.7</ele>
        <time>2024-10-21T07:57:03Z</time>
      </trkpt>
      <trkpt lat="45.85632" lon="1.19929">
        <ele>334.8</ele>
        <time>2024-10-21T07:57:04Z</time>
      </trkpt>
      <trkpt lat="45.85632" lon="1.19928">
        <ele>334.8</ele>
        <time>2024-10-21T07:57:05Z</time>
      </trkpt>
      <trkpt lat="45.85634" lon="1.19925">
        <ele>334.9</ele>
        <time>2024-10-21T07:57:06Z</time>
      </trkpt>
      <trkpt lat="45.85634" lon="1.19924">
        <ele>334.9</ele>
        <time>2024-10-21T07:57:07Z</time>
      </trkpt>
      <trkpt lat="45.85635" lon="1.19923">
        <ele>335</ele>
        <time>2024-10-21T07:57:08Z</time>
      </trkpt>
      <trkpt lat="45.85635" lon="1.19922">
        <ele>335</ele>
        <time>2024-10-21T07:57:09Z</time>
      </trkpt>
      <trkpt lat="45.85636" lon="1.19921">
        <ele>335</ele>
        <time>2024-10-21T07:57:10Z</time>
      </trkpt>
      <trkpt lat="45.85637" lon="1.1992">
        <ele>335.1</ele>
        <time>2024-10-21T07:57:11Z</time>
      </trkpt>
      <trkpt lat="45.85638" lon="1.19917">
        <ele>335.2</ele>
        <time>2024-10-21T07:57:12Z</time>
      </trkpt>
      <trkpt lat="45.85639" lon="1.19916">
        <ele>335.2</ele>
        <time>2024-10-21T07:57:13Z</time>
      </trkpt>
      <trkpt lat="45.85639" lon="1.19915">
        <ele>335.2</ele>
        <time>2024-10-21T07:57:14Z</time>
      </trkpt>
      <trkpt lat="45.8564" lon="1.19914">
        <ele>335.3</ele>
        <time>2024-10-21T07:57:15Z</time>
      </trkpt>
      <trkpt lat="45.85641" lon="1.19913">
        <ele>335.3</ele>
        <time>2024-10-21T07:57:16Z</time>
      </trkpt>
      <trkpt lat="45.85641" lon="1.19911">
        <ele>335.3</ele>
        <time>2024-10-21T07:57:17Z</time>
      </trkpt>
      <trkpt lat="45.85642" lon="1.1991">
        <ele>335.4</ele>
        <time>2024-10-21T07:57:18Z</time>
      </trkpt>
      <trkpt lat="45.85642" lon="1.19909">
        <ele>335.4</ele>
        <time>2024-10-21T07:57:19Z</time>
      </trkpt>
      <trkpt lat="45.85643" lon="1.19907">
        <ele>335.4</ele>
        <time>2024-10-21T07:57:20Z</time>
      </trkpt>
      <trkpt lat="45.85644" lon="1.19905">
        <ele>335.5</ele>
        <time>2024-10-21T07:57:21Z</time>
      </trkpt>
      <trkpt lat="45.85644" lon="1.19903">
        <ele>335.5</ele>
        <time>2024-10-21T07:57:22Z</time>
      </trkpt>
      <trkpt lat="45.85645" lon="1.19902">
        <ele>335.5</ele>
        <time>2024-10-21T07:57:23Z</time>
      </trkpt>
      <trkpt lat="45.85646" lon="1.199">
        <ele>335.6</ele>
        <time>2024-10-21T07:57:24Z</time>
      </trkpt>
      <trkpt lat="45.85647" lon="1.19899">
        <ele>335.6</ele>
        <time>2024-10-21T07:57:25Z</time>
      </trkpt>
      <trkpt lat="45.85647" lon="1.19898">
        <ele>335.6</ele>
        <time>2024-10-21T07:57:26Z</time>
      </trkpt>
      <trkpt lat="45.85648" lon="1.19897">
        <ele>335.7</ele>
        <time>2024-10-21T07:57:27Z</time>
      </trkpt>
      <trkpt lat="45.85649" lon="1.19895">
        <ele>335.7</ele>
        <time>2024-10-21T07:57:28Z</time>
      </trkpt>
      <trkpt lat="45.85649" lon="1.19894">
        <ele>335.7</ele>
        <time>2024-10-21T07:57:29Z</time>
      </trkpt>
      <trkpt lat="45.8565" lon="1.19893">
        <ele>335.8</ele>
        <time>2024-10-21T07:57:30Z</time>
      </trkpt>
      <trkpt lat="45.85651" lon="1.19891">
        <ele>335.8</ele>
        <time>2024-10-21T07:57:31Z</time>
      </trkpt>
      <trkpt lat="45.85652" lon="1.1989">
        <ele>335.8</ele>
        <time>2024-10-21T07:57:32Z</time>
      </trkpt>
      <trkpt lat="45.85653" lon="1.19889">
        <ele>335.9</ele>
        <time>2024-10-21T07:57:33Z</time>
      </trkpt>
      <trkpt lat="45.85654" lon="1.19888">
        <ele>335.9</ele>
        <time>2024-10-21T07:57:34Z</time>
      </trkpt>
      <trkpt lat="45.85655" lon="1.19887">
        <ele>335.9</ele>
        <time>2024-10-21T07:57:35Z</time>
      </trkpt>
      <trkpt lat="45.85655" lon="1.19885">
        <ele>336</ele>
        <time>2024-10-21T07:57:36Z</time>
      </trkpt>
      <trkpt lat="45.85656" lon="1.19883">
        <ele>336</ele>
        <time>2024-10-21T07:57:37Z</time>
      </trkpt>
      <trkpt lat="45.85657" lon="1.19882">
        <ele>336.1</ele>
        <time>2024-10-21T07:57:38Z</time>
      </trkpt>
      <trkpt lat="45.85657" lon="1.19881">
        <ele>336.1</ele>
        <time>2024-10-21T07:57:39Z</time>
      </trkpt>
      <trkpt lat="45.85658" lon="1.19879">
        <ele>336.1</ele>
        <time>2024-10-21T07:57:40Z</time>
      </trkpt>
      <trkpt lat="45.85658" lon="1.19878">
        <ele>336.2</ele>
        <time>2024-10-21T07:57:41Z</time>
      </trkpt>
      <trkpt lat="45.85659" lon="1.19877">
        <ele>336.2</ele>
        <time>2024-10-21T07:57:42Z</time>
      </trkpt>
      <trkpt lat="45.8566" lon="1.19876">
        <ele>336.2</ele>
        <time>2024-10-21T07:57:43Z</time>
      </trkpt>
      <trkpt lat="45.85661" lon="1.19874">
        <ele>336.3</ele>
        <time>2024-10-21T07:57:44Z</time>
      </trkpt>
      <trkpt lat="45.85662" lon="1.19873">
        <ele>336.3</ele>
        <time>2024-10-21T07:57:45Z</time>
      </trkpt>
      <trkpt lat="45.85663" lon="1.19872">
        <ele>336.4</ele>
        <time>2024-10-21T07:57:46Z</time>
      </trkpt>
      <trkpt lat="45.85664" lon="1.19872">
        <ele>336.4</ele>
        <time>2024-10-21T07:57:47Z</time>
      </trkpt>
      <trkpt lat="45.85665" lon="1.19871">
        <ele>336.4</ele>
        <time>2024-10-21T07:57:48Z</time>
      </trkpt>
      <trkpt lat="45.85667" lon="1.1987">
        <ele>336.5</ele>
        <time>2024-10-21T07:57:49Z</time>
      </trkpt>
      <trkpt lat="45.85667" lon="1.19869">
        <ele>336.5</ele>
        <time>2024-10-21T07:57:50Z</time>
      </trkpt>
      <trkpt lat="45.85668" lon="1.19869">
        <ele>336.6</ele>
        <time>2024-10-21T07:57:51Z</time>
      </trkpt>
      <trkpt lat="45.85669" lon="1.19868">
        <ele>336.6</ele>
        <time>2024-10-21T07:57:52Z</time>
      </trkpt>
      <trkpt lat="45.8567" lon="1.19866">
        <ele>336.7</ele>
        <time>2024-10-21T07:57:53Z</time>
      </trkpt>
      <trkpt lat="45.85671" lon="1.19865">
        <ele>336.7</ele>
        <time>2024-10-21T07:57:54Z</time>
      </trkpt>
      <trkpt lat="45.85672" lon="1.19864">
        <ele>336.7</ele>
        <time>2024-10-21T07:57:55Z</time>
      </trkpt>
      <trkpt lat="45.85673" lon="1.19863">
        <ele>336.7</ele>
        <time>2024-10-21T07:57:56Z</time>
      </trkpt>
      <trkpt lat="45.85675" lon="1.19862">
        <ele>336.8</ele>
        <time>2024-10-21T07:57:57Z</time>
      </trkpt>
      <trkpt lat="45.85675" lon="1.19862">
        <ele>336.8</ele>
        <time>2024-10-21T07:57:58Z</time>
      </trkpt>
      <trkpt lat="45.85676" lon="1.19861">
        <ele>336.8</ele>
        <time>2024-10-21T07:57:59Z</time>
      </trkpt>
      <trkpt lat="45.85678" lon="1.19861">
        <ele>336.9</ele>
        <time>2024-10-21T07:58:00Z</time>
      </trkpt>
      <trkpt lat="45.85679" lon="1.19861">
        <ele>336.9</ele>
        <time>2024-10-21T07:58:01Z</time>
      </trkpt>
      <trkpt lat="45.8568" lon="1.1986">
        <ele>336.9</ele>
        <time>2024-10-21T07:58:02Z</time>
      </trkpt>
      <trkpt lat="45.85681" lon="1.1986">
        <ele>337</ele>
        <time>2024-10-21T07:58:03Z</time>
      </trkpt>
      <trkpt lat="45.85682" lon="1.19859">
        <ele>337</ele>
        <time>2024-10-21T07:58:04Z</time>
      </trkpt>
      <trkpt lat="45.85683" lon="1.19858">
        <ele>337</ele>
        <time>2024-10-21T07:58:05Z</time>
      </trkpt>
      <trkpt lat="45.85684" lon="1.19858">
        <ele>337</ele>
        <time>2024-10-21T07:58:06Z</time>
      </trkpt>
      <trkpt lat="45.85685" lon="1.19858">
        <ele>337.1</ele>
        <time>2024-10-21T07:58:07Z</time>
      </trkpt>
      <trkpt lat="45.85687" lon="1.19857">
        <ele>337.1</ele>
        <time>2024-10-21T07:58:08Z</time>
      </trkpt>
      <trkpt lat="45.85688" lon="1.19857">
        <ele>337.1</ele>
        <time>2024-10-21T07:58:09Z</time>
      </trkpt>
      <trkpt lat="45.85689" lon="1.19857">
        <ele>337.1</ele>
        <time>2024-10-21T07:58:10Z</time>
      </trkpt>
      <trkpt lat="45.85691" lon="1.19857">
        <ele>337.2</ele>
        <time>2024-10-21T07:58:11Z</time>
      </trkpt>
      <trkpt lat="45.85693" lon="1.19856">
        <ele>337.2</ele>
        <time>2024-10-21T07:58:12Z</time>
      </trkpt>
      <trkpt lat="45.85693" lon="1.19856">
        <ele>337.2</ele>
        <time>2024-10-21T07:58:13Z</time>
      </trkpt>
      <trkpt lat="45.85694" lon="1.19856">
        <ele>337.2</ele>
        <time>2024-10-21T07:58:14Z</time>
      </trkpt>
      <trkpt lat="45.85695" lon="1.19855">
        <ele>337.2</ele>
        <time>2024-10-21T07:58:15Z</time>
      </trkpt>
      <trkpt lat="45.85696" lon="1.19854">
        <ele>337.2</ele>
        <time>2024-10-21T07:58:16Z</time>
      </trkpt>
      <trkpt lat="45.85697" lon="1.19853">
        <ele>337.2</ele>
        <time>2024-10-21T07:58:17Z</time>
      </trkpt>
      <trkpt lat="45.85698" lon="1.19853">
        <ele>337.2</ele>
        <time>2024-10-21T07:58:18Z</time>
      </trkpt>
      <trkpt lat="45.85699" lon="1.19852">
        <ele>337.2</ele>
        <time>2024-10-21T07:58:19Z</time>
      </trkpt>
      <trkpt lat="45.857" lon="1.19852">
        <ele>337.2</ele>
        <time>2024-10-21T07:58:20Z</time>
      </trkpt>
      <trkpt lat="45.85701" lon="1.19852">
        <ele>337.2</ele>
        <time>2024-10-21T07:58:21Z</time>
      </trkpt>
      <trkpt lat="45.85702" lon="1.19852">
        <ele>337.2</ele>
        <time>2024-10-21T07:58:22Z</time>
      </trkpt>
      <trkpt lat="45.85704" lon="1.19851">
        <ele>337.2</ele>
        <time>2024-10-21T07:58:23Z</time>
      </trkpt>
      <trkpt lat="45.85704" lon="1.19851">
        <ele>337.2</ele>
        <time>2024-10-21T07:58:24Z</time>
      </trkpt>
      <trkpt lat="45.85703" lon="1.1985">
        <ele>337.2</ele>
        <time>2024-10-21T07:58:25Z</time>
      </trkpt>
      <trkpt lat="45.85703" lon="1.1985">
        <ele>337.1</ele>
        <time>2024-10-21T07:58:26Z</time>
      </trkpt>
      <trkpt lat="45.85704" lon="1.19851">
        <ele>337.1</ele>
        <time>2024-10-21T07:58:27Z</time>
      </trkpt>
      <trkpt lat="45.85704" lon="1.19851">
        <ele>337.1</ele>
        <time>2024-10-21T07:58:28Z</time>
      </trkpt>
      <trkpt lat="45.85705" lon="1.19851">
        <ele>337.1</ele>
        <time>2024-10-21T07:58:29Z</time>
      </trkpt>
      <trkpt lat="45.85707" lon="1.19851">
        <ele>337.1</ele>
        <time>2024-10-21T07:58:30Z</time>
      </trkpt>
      <trkpt lat="45.85708" lon="1.19851">
        <ele>337.1</ele>
        <time>2024-10-21T07:58:31Z</time>
      </trkpt>
      <trkpt lat="45.85709" lon="1.19851">
        <ele>337</ele>
        <time>2024-10-21T07:58:32Z</time>
      </trkpt>
      <trkpt lat="45.85711" lon="1.19852">
        <ele>337</ele>
        <time>2024-10-21T07:58:33Z</time>
      </trkpt>
      <trkpt lat="45.85713" lon="1.19852">
        <ele>337</ele>
        <time>2024-10-21T07:58:34Z</time>
      </trkpt>
      <trkpt lat="45.85715" lon="1.19852">
        <ele>336.9</ele>
        <time>2024-10-21T07:58:35Z</time>
      </trkpt>
      <trkpt lat="45.85716" lon="1.19851">
        <ele>336.9</ele>
        <time>2024-10-21T07:58:36Z</time>
      </trkpt>
      <trkpt lat="45.85717" lon="1.19851">
        <ele>336.9</ele>
        <time>2024-10-21T07:58:37Z</time>
      </trkpt>
      <trkpt lat="45.85718" lon="1.1985">
        <ele>336.9</ele>
        <time>2024-10-21T07:58:39Z</time>
      </trkpt>
      <trkpt lat="45.85719" lon="1.19849">
        <ele>336.8</ele>
        <time>2024-10-21T07:58:40Z</time>
      </trkpt>
      <trkpt lat="45.85721" lon="1.19847">
        <ele>336.8</ele>
        <time>2024-10-21T07:58:41Z</time>
      </trkpt>
      <trkpt lat="45.85721" lon="1.19846">
        <ele>336.8</ele>
        <time>2024-10-21T07:58:42Z</time>
      </trkpt>
      <trkpt lat="45.85722" lon="1.19845">
        <ele>336.8</ele>
        <time>2024-10-21T07:58:43Z</time>
      </trkpt>
      <trkpt lat="45.85723" lon="1.19843">
        <ele>336.8</ele>
        <time>2024-10-21T07:58:44Z</time>
      </trkpt>
      <trkpt lat="45.85724" lon="1.19842">
        <ele>336.7</ele>
        <time>2024-10-21T07:58:45Z</time>
      </trkpt>
      <trkpt lat="45.85724" lon="1.19841">
        <ele>336.7</ele>
        <time>2024-10-21T07:58:46Z</time>
      </trkpt>
      <trkpt lat="45.85725" lon="1.1984">
        <ele>336.7</ele>
        <time>2024-10-21T07:58:47Z</time>
      </trkpt>
      <trkpt lat="45.85726" lon="1.19838">
        <ele>336.7</ele>
        <time>2024-10-21T07:58:48Z</time>
      </trkpt>
      <trkpt lat="45.85726" lon="1.19837">
        <ele>336.7</ele>
        <time>2024-10-21T07:58:49Z</time>
      </trkpt>
      <trkpt lat="45.85727" lon="1.19835">
        <ele>336.7</ele>
        <time>2024-10-21T07:58:50Z</time>
      </trkpt>
      <trkpt lat="45.85728" lon="1.19834">
        <ele>336.7</ele>
        <time>2024-10-21T07:58:51Z</time>
      </trkpt>
      <trkpt lat="45.85728" lon="1.19832">
        <ele>336.7</ele>
        <time>2024-10-21T07:58:52Z</time>
      </trkpt>
      <trkpt lat="45.85729" lon="1.1983">
        <ele>336.8</ele>
        <time>2024-10-21T07:58:53Z</time>
      </trkpt>
      <trkpt lat="45.8573" lon="1.19827">
        <ele>336.8</ele>
        <time>2024-10-21T07:58:54Z</time>
      </trkpt>
      <trkpt lat="45.8573" lon="1.19827">
        <ele>336.8</ele>
        <time>2024-10-21T07:58:55Z</time>
      </trkpt>
      <trkpt lat="45.85731" lon="1.19825">
        <ele>336.9</ele>
        <time>2024-10-21T07:58:56Z</time>
      </trkpt>
      <trkpt lat="45.85731" lon="1.19823">
        <ele>336.9</ele>
        <time>2024-10-21T07:58:57Z</time>
      </trkpt>
      <trkpt lat="45.85733" lon="1.1982">
        <ele>337</ele>
        <time>2024-10-21T07:58:58Z</time>
      </trkpt>
      <trkpt lat="45.85733" lon="1.1982">
        <ele>337</ele>
        <time>2024-10-21T07:58:59Z</time>
      </trkpt>
      <trkpt lat="45.85733" lon="1.19818">
        <ele>337.1</ele>
        <time>2024-10-21T07:59:00Z</time>
      </trkpt>
      <trkpt lat="45.85734" lon="1.19817">
        <ele>337.1</ele>
        <time>2024-10-21T07:59:01Z</time>
      </trkpt>
      <trkpt lat="45.85734" lon="1.19815">
        <ele>337.2</ele>
        <time>2024-10-21T07:59:02Z</time>
      </trkpt>
      <trkpt lat="45.85735" lon="1.19813">
        <ele>337.3</ele>
        <time>2024-10-21T07:59:03Z</time>
      </trkpt>
      <trkpt lat="45.85735" lon="1.19812">
        <ele>337.4</ele>
        <time>2024-10-21T07:59:04Z</time>
      </trkpt>
      <trkpt lat="45.85736" lon="1.1981">
        <ele>337.5</ele>
        <time>2024-10-21T07:59:05Z</time>
      </trkpt>
      <trkpt lat="45.85737" lon="1.19808">
        <ele>337.6</ele>
        <time>2024-10-21T07:59:06Z</time>
      </trkpt>
      <trkpt lat="45.85738" lon="1.19805">
        <ele>337.8</ele>
        <time>2024-10-21T07:59:07Z</time>
      </trkpt>
      <trkpt lat="45.85738" lon="1.19803">
        <ele>337.9</ele>
        <time>2024-10-21T07:59:09Z</time>
      </trkpt>
      <trkpt lat="45.85739" lon="1.198">
        <ele>338.1</ele>
        <time>2024-10-21T07:59:10Z</time>
      </trkpt>
      <trkpt lat="45.85739" lon="1.19799">
        <ele>338.2</ele>
        <time>2024-10-21T07:59:11Z</time>
      </trkpt>
      <trkpt lat="45.85739" lon="1.19798">
        <ele>338.3</ele>
        <time>2024-10-21T07:59:12Z</time>
      </trkpt>
      <trkpt lat="45.85739" lon="1.19796">
        <ele>338.4</ele>
        <time>2024-10-21T07:59:13Z</time>
      </trkpt>
      <trkpt lat="45.85739" lon="1.19794">
        <ele>338.6</ele>
        <time>2024-10-21T07:59:14Z</time>
      </trkpt>
      <trkpt lat="45.8574" lon="1.19793">
        <ele>338.7</ele>
        <time>2024-10-21T07:59:15Z</time>
      </trkpt>
      <trkpt lat="45.85741" lon="1.1979">
        <ele>338.9</ele>
        <time>2024-10-21T07:59:16Z</time>
      </trkpt>
      <trkpt lat="45.85741" lon="1.19789">
        <ele>339</ele>
        <time>2024-10-21T07:59:17Z</time>
      </trkpt>
      <trkpt lat="45.85742" lon="1.19788">
        <ele>339.1</ele>
        <time>2024-10-21T07:59:18Z</time>
      </trkpt>
      <trkpt lat="45.85742" lon="1.19789">
        <ele>339.1</ele>
        <time>2024-10-21T07:59:19Z</time>
      </trkpt>
      <trkpt lat="45.85742" lon="1.19788">
        <ele>339.2</ele>
        <time>2024-10-21T07:59:20Z</time>
      </trkpt>
      <trkpt lat="45.85743" lon="1.19787">
        <ele>339.3</ele>
        <time>2024-10-21T07:59:21Z</time>
      </trkpt>
      <trkpt lat="45.85743" lon="1.19785">
        <ele>339.5</ele>
        <time>2024-10-21T07:59:22Z</time>
      </trkpt>
      <trkpt lat="45.85743" lon="1.19784">
        <ele>339.6</ele>
        <time>2024-10-21T07:59:23Z</time>
      </trkpt>
      <trkpt lat="45.85744" lon="1.19782">
        <ele>339.8</ele>
        <time>2024-10-21T07:59:24Z</time>
      </trkpt>
      <trkpt lat="45.85744" lon="1.19781">
        <ele>339.9</ele>
        <time>2024-10-21T07:59:25Z</time>
      </trkpt>
      <trkpt lat="45.85744" lon="1.19779">
        <ele>340.1</ele>
        <time>2024-10-21T07:59:26Z</time>
      </trkpt>
      <trkpt lat="45.85745" lon="1.19778">
        <ele>340.2</ele>
        <time>2024-10-21T07:59:27Z</time>
      </trkpt>
      <trkpt lat="45.85745" lon="1.19776">
        <ele>340.4</ele>
        <time>2024-10-21T07:59:28Z</time>
      </trkpt>
      <trkpt lat="45.85746" lon="1.19775">
        <ele>340.5</ele>
        <time>2024-10-21T07:59:29Z</time>
      </trkpt>
      <trkpt lat="45.85746" lon="1.19773">
        <ele>340.7</ele>
        <time>2024-10-21T07:59:30Z</time>
      </trkpt>
      <trkpt lat="45.85746" lon="1.19772">
        <ele>340.8</ele>
        <time>2024-10-21T07:59:31Z</time>
      </trkpt>
      <trkpt lat="45.85747" lon="1.19771">
        <ele>340.9</ele>
        <time>2024-10-21T07:59:32Z</time>
      </trkpt>
      <trkpt lat="45.85747" lon="1.19769">
        <ele>341.1</ele>
        <time>2024-10-21T07:59:33Z</time>
      </trkpt>
      <trkpt lat="45.85747" lon="1.19768">
        <ele>341.2</ele>
        <time>2024-10-21T07:59:34Z</time>
      </trkpt>
      <trkpt lat="45.85747" lon="1.19767">
        <ele>341.4</ele>
        <time>2024-10-21T07:59:35Z</time>
      </trkpt>
      <trkpt lat="45.85748" lon="1.19765">
        <ele>341.5</ele>
        <time>2024-10-21T07:59:36Z</time>
      </trkpt>
      <trkpt lat="45.85748" lon="1.19763">
        <ele>341.7</ele>
        <time>2024-10-21T07:59:37Z</time>
      </trkpt>
      <trkpt lat="45.85748" lon="1.19762">
        <ele>341.8</ele>
        <time>2024-10-21T07:59:38Z</time>
      </trkpt>
      <trkpt lat="45.85749" lon="1.19761">
        <ele>342</ele>
        <time>2024-10-21T07:59:39Z</time>
      </trkpt>
      <trkpt lat="45.85749" lon="1.1976">
        <ele>342.1</ele>
        <time>2024-10-21T07:59:40Z</time>
      </trkpt>
      <trkpt lat="45.8575" lon="1.19759">
        <ele>342.2</ele>
        <time>2024-10-21T07:59:41Z</time>
      </trkpt>
      <trkpt lat="45.8575" lon="1.19757">
        <ele>342.3</ele>
        <time>2024-10-21T07:59:42Z</time>
      </trkpt>
      <trkpt lat="45.85751" lon="1.19754">
        <ele>342.7</ele>
        <time>2024-10-21T07:59:43Z</time>
      </trkpt>
      <trkpt lat="45.85751" lon="1.19752">
        <ele>342.9</ele>
        <time>2024-10-21T07:59:45Z</time>
      </trkpt>
      <trkpt lat="45.85751" lon="1.19751">
        <ele>343</ele>
        <time>2024-10-21T07:59:46Z</time>
      </trkpt>
      <trkpt lat="45.85752" lon="1.1975">
        <ele>343.1</ele>
        <time>2024-10-21T07:59:47Z</time>
      </trkpt>
      <trkpt lat="45.85752" lon="1.19749">
        <ele>343.2</ele>
        <time>2024-10-21T07:59:48Z</time>
      </trkpt>
      <trkpt lat="45.85752" lon="1.19747">
        <ele>343.3</ele>
        <time>2024-10-21T07:59:49Z</time>
      </trkpt>
      <trkpt lat="45.85752" lon="1.19746">
        <ele>343.4</ele>
        <time>2024-10-21T07:59:50Z</time>
      </trkpt>
      <trkpt lat="45.85753" lon="1.19745">
        <ele>343.6</ele>
        <time>2024-10-21T07:59:51Z</time>
      </trkpt>
      <trkpt lat="45.85753" lon="1.19744">
        <ele>343.7</ele>
        <time>2024-10-21T07:59:52Z</time>
      </trkpt>
      <trkpt lat="45.85753" lon="1.19742">
        <ele>343.8</ele>
        <time>2024-10-21T07:59:53Z</time>
      </trkpt>
      <trkpt lat="45.85753" lon="1.19741">
        <ele>343.9</ele>
        <time>2024-10-21T07:59:54Z</time>
      </trkpt>
      <trkpt lat="45.85753" lon="1.1974">
        <ele>344</ele>
        <time>2024-10-21T07:59:55Z</time>
      </trkpt>
      <trkpt lat="45.85754" lon="1.19739">
        <ele>344.1</ele>
        <time>2024-10-21T07:59:56Z</time>
      </trkpt>
      <trkpt lat="45.85754" lon="1.19738">
        <ele>344.3</ele>
        <time>2024-10-21T07:59:57Z</time>
      </trkpt>
      <trkpt lat="45.85754" lon="1.19736">
        <ele>344.4</ele>
        <time>2024-10-21T07:59:58Z</time>
      </trkpt>
      <trkpt lat="45.85754" lon="1.19735">
        <ele>344.5</ele>
        <time>2024-10-21T07:59:59Z</time>
      </trkpt>
      <trkpt lat="45.85754" lon="1.19733">
        <ele>344.7</ele>
        <time>2024-10-21T08:00:00Z</time>
      </trkpt>
      <trkpt lat="45.85754" lon="1.19732">
        <ele>344.8</ele>
        <time>2024-10-21T08:00:01Z</time>
      </trkpt>
      <trkpt lat="45.85754" lon="1.1973">
        <ele>344.9</ele>
        <time>2024-10-21T08:00:02Z</time>
      </trkpt>
      <trkpt lat="45.85755" lon="1.19729">
        <ele>345</ele>
        <time>2024-10-21T08:00:03Z</time>
      </trkpt>
      <trkpt lat="45.85755" lon="1.19727">
        <ele>345.2</ele>
        <time>2024-10-21T08:00:04Z</time>
      </trkpt>
      <trkpt lat="45.85755" lon="1.19725">
        <ele>345.3</ele>
        <time>2024-10-21T08:00:05Z</time>
      </trkpt>
      <trkpt lat="45.85755" lon="1.19724">
        <ele>345.4</ele>
        <time>2024-10-21T08:00:06Z</time>
      </trkpt>
      <trkpt lat="45.85755" lon="1.19722">
        <ele>345.6</ele>
        <time>2024-10-21T08:00:07Z</time>
      </trkpt>
      <trkpt lat="45.85755" lon="1.19719">
        <ele>345.8</ele>
        <time>2024-10-21T08:00:08Z</time>
      </trkpt>
      <trkpt lat="45.85755" lon="1.19717">
        <ele>345.9</ele>
        <time>2024-10-21T08:00:09Z</time>
      </trkpt>
      <trkpt lat="45.85756" lon="1.19715">
        <ele>346</ele>
        <time>2024-10-21T08:00:10Z</time>
      </trkpt>
      <trkpt lat="45.85756" lon="1.19715">
        <ele>346</ele>
        <time>2024-10-21T08:00:11Z</time>
      </trkpt>
      <trkpt lat="45.85756" lon="1.19714">
        <ele>346.2</ele>
        <time>2024-10-21T08:00:12Z</time>
      </trkpt>
      <trkpt lat="45.85756" lon="1.19712">
        <ele>346.3</ele>
        <time>2024-10-21T08:00:13Z</time>
      </trkpt>
      <trkpt lat="45.85756" lon="1.1971">
        <ele>346.4</ele>
        <time>2024-10-21T08:00:14Z</time>
      </trkpt>
      <trkpt lat="45.85756" lon="1.19709">
        <ele>346.5</ele>
        <time>2024-10-21T08:00:15Z</time>
      </trkpt>
      <trkpt lat="45.85756" lon="1.19707">
        <ele>346.6</ele>
        <time>2024-10-21T08:00:16Z</time>
      </trkpt>
      <trkpt lat="45.85757" lon="1.19706">
        <ele>346.7</ele>
        <time>2024-10-21T08:00:17Z</time>
      </trkpt>
      <trkpt lat="45.85757" lon="1.19705">
        <ele>346.8</ele>
        <time>2024-10-21T08:00:18Z</time>
      </trkpt>
      <trkpt lat="45.85757" lon="1.19703">
        <ele>346.9</ele>
        <time>2024-10-21T08:00:19Z</time>
      </trkpt>
      <trkpt lat="45.85758" lon="1.19702">
        <ele>346.9</ele>
        <time>2024-10-21T08:00:20Z</time>
      </trkpt>
      <trkpt lat="45.85758" lon="1.197">
        <ele>347.1</ele>
        <time>2024-10-21T08:00:21Z</time>
      </trkpt>
      <trkpt lat="45.85758" lon="1.19698">
        <ele>347.2</ele>
        <time>2024-10-21T08:00:22Z</time>
      </trkpt>
      <trkpt lat="45.85758" lon="1.19695">
        <ele>347.4</ele>
        <time>2024-10-21T08:00:23Z</time>
      </trkpt>
      <trkpt lat="45.85758" lon="1.19694">
        <ele>347.4</ele>
        <time>2024-10-21T08:00:24Z</time>
      </trkpt>
      <trkpt lat="45.85758" lon="1.19692">
        <ele>347.5</ele>
        <time>2024-10-21T08:00:25Z</time>
      </trkpt>
      <trkpt lat="45.85758" lon="1.19691">
        <ele>347.6</ele>
        <time>2024-10-21T08:00:26Z</time>
      </trkpt>
      <trkpt lat="45.85758" lon="1.19689">
        <ele>347.7</ele>
        <time>2024-10-21T08:00:27Z</time>
      </trkpt>
      <trkpt lat="45.85758" lon="1.19687">
        <ele>347.8</ele>
        <time>2024-10-21T08:00:28Z</time>
      </trkpt>
      <trkpt lat="45.85758" lon="1.19686">
        <ele>347.9</ele>
        <time>2024-10-21T08:00:29Z</time>
      </trkpt>
      <trkpt lat="45.85758" lon="1.19684">
        <ele>348</ele>
        <time>2024-10-21T08:00:30Z</time>
      </trkpt>
      <trkpt lat="45.85758" lon="1.19683">
        <ele>348.1</ele>
        <time>2024-10-21T08:00:31Z</time>
      </trkpt>
      <trkpt lat="45.85758" lon="1.19681">
        <ele>348.2</ele>
        <time>2024-10-21T08:00:32Z</time>
      </trkpt>
      <trkpt lat="45.85758" lon="1.1968">
        <ele>348.2</ele>
        <time>2024-10-21T08:00:33Z</time>
      </trkpt>
      <trkpt lat="45.85758" lon="1.19678">
        <ele>348.4</ele>
        <time>2024-10-21T08:00:34Z</time>
      </trkpt>
      <trkpt lat="45.85758" lon="1.19678">
        <ele>348.4</ele>
        <time>2024-10-21T08:00:35Z</time>
      </trkpt>
      <trkpt lat="45.85758" lon="1.19677">
        <ele>348.4</ele>
        <time>2024-10-21T08:00:36Z</time>
      </trkpt>
      <trkpt lat="45.85758" lon="1.19675">
        <ele>348.5</ele>
        <time>2024-10-21T08:00:37Z</time>
      </trkpt>
      <trkpt lat="45.85758" lon="1.19674">
        <ele>348.6</ele>
        <time>2024-10-21T08:00:38Z</time>
      </trkpt>
      <trkpt lat="45.85758" lon="1.19672">
        <ele>348.7</ele>
        <time>2024-10-21T08:00:39Z</time>
      </trkpt>
      <trkpt lat="45.85758" lon="1.19671">
        <ele>348.8</ele>
        <time>2024-10-21T08:00:40Z</time>
      </trkpt>
      <trkpt lat="45.85758" lon="1.1967">
        <ele>348.9</ele>
        <time>2024-10-21T08:00:41Z</time>
      </trkpt>
      <trkpt lat="45.85758" lon="1.19668">
        <ele>348.9</ele>
        <time>2024-10-21T08:00:42Z</time>
      </trkpt>
      <trkpt lat="45.85759" lon="1.19667">
        <ele>349</ele>
        <time>2024-10-21T08:00:43Z</time>
      </trkpt>
      <trkpt lat="45.85759" lon="1.19665">
        <ele>349.1</ele>
        <time>2024-10-21T08:00:44Z</time>
      </trkpt>
      <trkpt lat="45.85759" lon="1.19663">
        <ele>349.2</ele>
        <time>2024-10-21T08:00:45Z</time>
      </trkpt>
      <trkpt lat="45.85759" lon="1.19662">
        <ele>349.3</ele>
        <time>2024-10-21T08:00:46Z</time>
      </trkpt>
      <trkpt lat="45.85759" lon="1.1966">
        <ele>349.4</ele>
        <time>2024-10-21T08:00:47Z</time>
      </trkpt>
      <trkpt lat="45.85759" lon="1.19659">
        <ele>349.5</ele>
        <time>2024-10-21T08:00:48Z</time>
      </trkpt>
      <trkpt lat="45.85759" lon="1.19657">
        <ele>349.6</ele>
        <time>2024-10-21T08:00:49Z</time>
      </trkpt>
      <trkpt lat="45.85759" lon="1.19655">
        <ele>349.7</ele>
        <time>2024-10-21T08:00:50Z</time>
      </trkpt>
      <trkpt lat="45.85759" lon="1.19654">
        <ele>349.8</ele>
        <time>2024-10-21T08:00:51Z</time>
      </trkpt>
      <trkpt lat="45.85759" lon="1.19652">
        <ele>349.9</ele>
        <time>2024-10-21T08:00:52Z</time>
      </trkpt>
      <trkpt lat="45.85759" lon="1.19651">
        <ele>350</ele>
        <time>2024-10-21T08:00:53Z</time>
      </trkpt>
      <trkpt lat="45.85759" lon="1.19648">
        <ele>350.1</ele>
        <time>2024-10-21T08:00:54Z</time>
      </trkpt>
      <trkpt lat="45.85759" lon="1.19648">
        <ele>350.2</ele>
        <time>2024-10-21T08:00:55Z</time>
      </trkpt>
      <trkpt lat="45.85759" lon="1.19646">
        <ele>350.3</ele>
        <time>2024-10-21T08:00:56Z</time>
      </trkpt>
      <trkpt lat="45.85759" lon="1.19645">
        <ele>350.3</ele>
        <time>2024-10-21T08:00:57Z</time>
      </trkpt>
      <trkpt lat="45.85759" lon="1.19643">
        <ele>350.4</ele>
        <time>2024-10-21T08:00:58Z</time>
      </trkpt>
      <trkpt lat="45.85759" lon="1.19642">
        <ele>350.5</ele>
        <time>2024-10-21T08:00:59Z</time>
      </trkpt>
      <trkpt lat="45.85759" lon="1.1964">
        <ele>350.6</ele>
        <time>2024-10-21T08:01:00Z</time>
      </trkpt>
      <trkpt lat="45.85759" lon="1.19638">
        <ele>350.7</ele>
        <time>2024-10-21T08:01:01Z</time>
      </trkpt>
      <trkpt lat="45.85759" lon="1.19637">
        <ele>350.8</ele>
        <time>2024-10-21T08:01:02Z</time>
      </trkpt>
      <trkpt lat="45.85759" lon="1.19635">
        <ele>350.9</ele>
        <time>2024-10-21T08:01:03Z</time>
      </trkpt>
      <trkpt lat="45.8576" lon="1.19634">
        <ele>351</ele>
        <time>2024-10-21T08:01:04Z</time>
      </trkpt>
      <trkpt lat="45.8576" lon="1.19632">
        <ele>351.1</ele>
        <time>2024-10-21T08:01:05Z</time>
      </trkpt>
      <trkpt lat="45.8576" lon="1.19631">
        <ele>351.2</ele>
        <time>2024-10-21T08:01:06Z</time>
      </trkpt>
      <trkpt lat="45.8576" lon="1.19629">
        <ele>351.3</ele>
        <time>2024-10-21T08:01:07Z</time>
      </trkpt>
      <trkpt lat="45.8576" lon="1.19627">
        <ele>351.4</ele>
        <time>2024-10-21T08:01:08Z</time>
      </trkpt>
      <trkpt lat="45.8576" lon="1.19626">
        <ele>351.4</ele>
        <time>2024-10-21T08:01:09Z</time>
      </trkpt>
      <trkpt lat="45.8576" lon="1.19624">
        <ele>351.5</ele>
        <time>2024-10-21T08:01:10Z</time>
      </trkpt>
      <trkpt lat="45.8576" lon="1.19623">
        <ele>351.6</ele>
        <time>2024-10-21T08:01:11Z</time>
      </trkpt>
      <trkpt lat="45.8576" lon="1.19621">
        <ele>351.7</ele>
        <time>2024-10-21T08:01:12Z</time>
      </trkpt>
      <trkpt lat="45.8576" lon="1.19619">
        <ele>351.8</ele>
        <time>2024-10-21T08:01:13Z</time>
      </trkpt>
      <trkpt lat="45.8576" lon="1.19618">
        <ele>351.9</ele>
        <time>2024-10-21T08:01:14Z</time>
      </trkpt>
      <trkpt lat="45.85759" lon="1.19616">
        <ele>352</ele>
        <time>2024-10-21T08:01:15Z</time>
      </trkpt>
      <trkpt lat="45.85759" lon="1.19614">
        <ele>352.1</ele>
        <time>2024-10-21T08:01:16Z</time>
      </trkpt>
      <trkpt lat="45.85759" lon="1.19612">
        <ele>352.2</ele>
        <time>2024-10-21T08:01:17Z</time>
      </trkpt>
      <trkpt lat="45.85759" lon="1.19611">
        <ele>352.3</ele>
        <time>2024-10-21T08:01:18Z</time>
      </trkpt>
      <trkpt lat="45.85759" lon="1.19609">
        <ele>352.4</ele>
        <time>2024-10-21T08:01:19Z</time>
      </trkpt>
      <trkpt lat="45.85759" lon="1.19608">
        <ele>352.5</ele>
        <time>2024-10-21T08:01:20Z</time>
      </trkpt>
      <trkpt lat="45.85759" lon="1.19606">
        <ele>352.6</ele>
        <time>2024-10-21T08:01:21Z</time>
      </trkpt>
      <trkpt lat="45.85759" lon="1.19605">
        <ele>352.7</ele>
        <time>2024-10-21T08:01:22Z</time>
      </trkpt>
      <trkpt lat="45.8576" lon="1.19603">
        <ele>352.8</ele>
        <time>2024-10-21T08:01:23Z</time>
      </trkpt>
      <trkpt lat="45.8576" lon="1.19602">
        <ele>352.9</ele>
        <time>2024-10-21T08:01:24Z</time>
      </trkpt>
      <trkpt lat="45.8576" lon="1.19601">
        <ele>353</ele>
        <time>2024-10-21T08:01:25Z</time>
      </trkpt>
      <trkpt lat="45.8576" lon="1.19598">
        <ele>353.2</ele>
        <time>2024-10-21T08:01:26Z</time>
      </trkpt>
      <trkpt lat="45.8576" lon="1.19598">
        <ele>353.2</ele>
        <time>2024-10-21T08:01:27Z</time>
      </trkpt>
      <trkpt lat="45.8576" lon="1.19596">
        <ele>353.3</ele>
        <time>2024-10-21T08:01:28Z</time>
      </trkpt>
      <trkpt lat="45.8576" lon="1.19594">
        <ele>353.4</ele>
        <time>2024-10-21T08:01:29Z</time>
      </trkpt>
      <trkpt lat="45.85761" lon="1.19593">
        <ele>353.5</ele>
        <time>2024-10-21T08:01:30Z</time>
      </trkpt>
      <trkpt lat="45.85761" lon="1.19591">
        <ele>353.5</ele>
        <time>2024-10-21T08:01:31Z</time>
      </trkpt>
      <trkpt lat="45.85761" lon="1.1959">
        <ele>353.7</ele>
        <time>2024-10-21T08:01:32Z</time>
      </trkpt>
      <trkpt lat="45.85761" lon="1.19589">
        <ele>353.7</ele>
        <time>2024-10-21T08:01:33Z</time>
      </trkpt>
      <trkpt lat="45.85761" lon="1.19587">
        <ele>353.9</ele>
        <time>2024-10-21T08:01:34Z</time>
      </trkpt>
      <trkpt lat="45.85761" lon="1.19585">
        <ele>354</ele>
        <time>2024-10-21T08:01:35Z</time>
      </trkpt>
      <trkpt lat="45.85761" lon="1.19582">
        <ele>354.2</ele>
        <time>2024-10-21T08:01:36Z</time>
      </trkpt>
      <trkpt lat="45.85761" lon="1.19581">
        <ele>354.3</ele>
        <time>2024-10-21T08:01:37Z</time>
      </trkpt>
      <trkpt lat="45.85761" lon="1.1958">
        <ele>354.3</ele>
        <time>2024-10-21T08:01:38Z</time>
      </trkpt>
      <trkpt lat="45.85761" lon="1.19577">
        <ele>354.6</ele>
        <time>2024-10-21T08:01:39Z</time>
      </trkpt>
      <trkpt lat="45.8576" lon="1.19576">
        <ele>354.7</ele>
        <time>2024-10-21T08:01:40Z</time>
      </trkpt>
      <trkpt lat="45.8576" lon="1.19574">
        <ele>354.7</ele>
        <time>2024-10-21T08:01:41Z</time>
      </trkpt>
      <trkpt lat="45.8576" lon="1.19571">
        <ele>355</ele>
        <time>2024-10-21T08:01:42Z</time>
      </trkpt>
      <trkpt lat="45.8576" lon="1.1957">
        <ele>355.1</ele>
        <time>2024-10-21T08:01:43Z</time>
      </trkpt>
      <trkpt lat="45.8576" lon="1.19569">
        <ele>355.1</ele>
        <time>2024-10-21T08:01:44Z</time>
      </trkpt>
      <trkpt lat="45.8576" lon="1.19567">
        <ele>355.3</ele>
        <time>2024-10-21T08:01:45Z</time>
      </trkpt>
      <trkpt lat="45.85761" lon="1.19566">
        <ele>355.4</ele>
        <time>2024-10-21T08:01:46Z</time>
      </trkpt>
      <trkpt lat="45.85761" lon="1.19564">
        <ele>355.5</ele>
        <time>2024-10-21T08:01:47Z</time>
      </trkpt>
      <trkpt lat="45.85761" lon="1.19562">
        <ele>355.7</ele>
        <time>2024-10-21T08:01:48Z</time>
      </trkpt>
      <trkpt lat="45.85761" lon="1.19561">
        <ele>355.8</ele>
        <time>2024-10-21T08:01:49Z</time>
      </trkpt>
      <trkpt lat="45.85761" lon="1.19559">
        <ele>355.9</ele>
        <time>2024-10-21T08:01:50Z</time>
      </trkpt>
      <trkpt lat="45.85761" lon="1.19557">
        <ele>356.1</ele>
        <time>2024-10-21T08:01:51Z</time>
      </trkpt>
      <trkpt lat="45.85761" lon="1.19556">
        <ele>356.2</ele>
        <time>2024-10-21T08:01:52Z</time>
      </trkpt>
      <trkpt lat="45.85762" lon="1.19554">
        <ele>356.4</ele>
        <time>2024-10-21T08:01:53Z</time>
      </trkpt>
      <trkpt lat="45.85762" lon="1.19552">
        <ele>356.5</ele>
        <time>2024-10-21T08:01:54Z</time>
      </trkpt>
      <trkpt lat="45.85762" lon="1.19551">
        <ele>356.6</ele>
        <time>2024-10-21T08:01:55Z</time>
      </trkpt>
      <trkpt lat="45.85762" lon="1.19549">
        <ele>356.7</ele>
        <time>2024-10-21T08:01:56Z</time>
      </trkpt>
      <trkpt lat="45.85761" lon="1.19548">
        <ele>356.9</ele>
        <time>2024-10-21T08:01:57Z</time>
      </trkpt>
      <trkpt lat="45.85761" lon="1.19546">
        <ele>357</ele>
        <time>2024-10-21T08:01:58Z</time>
      </trkpt>
      <trkpt lat="45.85761" lon="1.19544">
        <ele>357.2</ele>
        <time>2024-10-21T08:01:59Z</time>
      </trkpt>
      <trkpt lat="45.85761" lon="1.19543">
        <ele>357.3</ele>
        <time>2024-10-21T08:02:00Z</time>
      </trkpt>
      <trkpt lat="45.85761" lon="1.19541">
        <ele>357.4</ele>
        <time>2024-10-21T08:02:01Z</time>
      </trkpt>
      <trkpt lat="45.85761" lon="1.1954">
        <ele>357.5</ele>
        <time>2024-10-21T08:02:02Z</time>
      </trkpt>
      <trkpt lat="45.85761" lon="1.19538">
        <ele>357.7</ele>
        <time>2024-10-21T08:02:03Z</time>
      </trkpt>
      <trkpt lat="45.85761" lon="1.19536">
        <ele>357.8</ele>
        <time>2024-10-21T08:02:04Z</time>
      </trkpt>
      <trkpt lat="45.85761" lon="1.19535">
        <ele>357.9</ele>
        <time>2024-10-21T08:02:05Z</time>
      </trkpt>
      <trkpt lat="45.85761" lon="1.19534">
        <ele>358</ele>
        <time>2024-10-21T08:02:06Z</time>
      </trkpt>
      <trkpt lat="45.85761" lon="1.19532">
        <ele>358.1</ele>
        <time>2024-10-21T08:02:07Z</time>
      </trkpt>
      <trkpt lat="45.85762" lon="1.19531">
        <ele>358.3</ele>
        <time>2024-10-21T08:02:08Z</time>
      </trkpt>
      <trkpt lat="45.85762" lon="1.19529">
        <ele>358.4</ele>
        <time>2024-10-21T08:02:09Z</time>
      </trkpt>
      <trkpt lat="45.85763" lon="1.19528">
        <ele>358.5</ele>
        <time>2024-10-21T08:02:10Z</time>
      </trkpt>
      <trkpt lat="45.85764" lon="1.19526">
        <ele>358.7</ele>
        <time>2024-10-21T08:02:11Z</time>
      </trkpt>
      <trkpt lat="45.85764" lon="1.19524">
        <ele>358.8</ele>
        <time>2024-10-21T08:02:13Z</time>
      </trkpt>
      <trkpt lat="45.85765" lon="1.19523">
        <ele>358.9</ele>
        <time>2024-10-21T08:02:14Z</time>
      </trkpt>
      <trkpt lat="45.85765" lon="1.19522">
        <ele>358.9</ele>
        <time>2024-10-21T08:02:15Z</time>
      </trkpt>
      <trkpt lat="45.85766" lon="1.19521">
        <ele>359.1</ele>
        <time>2024-10-21T08:02:16Z</time>
      </trkpt>
      <trkpt lat="45.85767" lon="1.19519">
        <ele>359.2</ele>
        <time>2024-10-21T08:02:17Z</time>
      </trkpt>
      <trkpt lat="45.85768" lon="1.19517">
        <ele>359.3</ele>
        <time>2024-10-21T08:02:18Z</time>
      </trkpt>
      <trkpt lat="45.85768" lon="1.19516">
        <ele>359.4</ele>
        <time>2024-10-21T08:02:19Z</time>
      </trkpt>
      <trkpt lat="45.85769" lon="1.19516">
        <ele>359.5</ele>
        <time>2024-10-21T08:02:20Z</time>
      </trkpt>
      <trkpt lat="45.8577" lon="1.19514">
        <ele>359.6</ele>
        <time>2024-10-21T08:02:21Z</time>
      </trkpt>
      <trkpt lat="45.85771" lon="1.19511">
        <ele>359.8</ele>
        <time>2024-10-21T08:02:22Z</time>
      </trkpt>
      <trkpt lat="45.85771" lon="1.19511">
        <ele>359.8</ele>
        <time>2024-10-21T08:02:23Z</time>
      </trkpt>
      <trkpt lat="45.85772" lon="1.1951">
        <ele>359.9</ele>
        <time>2024-10-21T08:02:24Z</time>
      </trkpt>
      <trkpt lat="45.85772" lon="1.19508">
        <ele>360</ele>
        <time>2024-10-21T08:02:25Z</time>
      </trkpt>
      <trkpt lat="45.85772" lon="1.19507">
        <ele>360</ele>
        <time>2024-10-21T08:02:26Z</time>
      </trkpt>
      <trkpt lat="45.85772" lon="1.19506">
        <ele>360.1</ele>
        <time>2024-10-21T08:02:27Z</time>
      </trkpt>
      <trkpt lat="45.85773" lon="1.19504">
        <ele>360.2</ele>
        <time>2024-10-21T08:02:28Z</time>
      </trkpt>
      <trkpt lat="45.85773" lon="1.19503">
        <ele>360.3</ele>
        <time>2024-10-21T08:02:29Z</time>
      </trkpt>
      <trkpt lat="45.85773" lon="1.19502">
        <ele>360.3</ele>
        <time>2024-10-21T08:02:30Z</time>
      </trkpt>
      <trkpt lat="45.85774" lon="1.19501">
        <ele>360.4</ele>
        <time>2024-10-21T08:02:31Z</time>
      </trkpt>
      <trkpt lat="45.85775" lon="1.19499">
        <ele>360.5</ele>
        <time>2024-10-21T08:02:32Z</time>
      </trkpt>
      <trkpt lat="45.85775" lon="1.19497">
        <ele>360.7</ele>
        <time>2024-10-21T08:02:33Z</time>
      </trkpt>
      <trkpt lat="45.85777" lon="1.19494">
        <ele>360.8</ele>
        <time>2024-10-21T08:02:34Z</time>
      </trkpt>
      <trkpt lat="45.85777" lon="1.19493">
        <ele>360.9</ele>
        <time>2024-10-21T08:02:35Z</time>
      </trkpt>
      <trkpt lat="45.85777" lon="1.19493">
        <ele>360.9</ele>
        <time>2024-10-21T08:02:36Z</time>
      </trkpt>
      <trkpt lat="45.85779" lon="1.1949">
        <ele>361.1</ele>
        <time>2024-10-21T08:02:37Z</time>
      </trkpt>
      <trkpt lat="45.85779" lon="1.19489">
        <ele>361.1</ele>
        <time>2024-10-21T08:02:38Z</time>
      </trkpt>
      <trkpt lat="45.8578" lon="1.19488">
        <ele>361.2</ele>
        <time>2024-10-21T08:02:39Z</time>
      </trkpt>
      <trkpt lat="45.8578" lon="1.19487">
        <ele>361.2</ele>
        <time>2024-10-21T08:02:40Z</time>
      </trkpt>
      <trkpt lat="45.85781" lon="1.19486">
        <ele>361.3</ele>
        <time>2024-10-21T08:02:41Z</time>
      </trkpt>
      <trkpt lat="45.85782" lon="1.19484">
        <ele>361.4</ele>
        <time>2024-10-21T08:02:42Z</time>
      </trkpt>
      <trkpt lat="45.85782" lon="1.19483">
        <ele>361.5</ele>
        <time>2024-10-21T08:02:43Z</time>
      </trkpt>
      <trkpt lat="45.85782" lon="1.1948">
        <ele>361.6</ele>
        <time>2024-10-21T08:02:44Z</time>
      </trkpt>
      <trkpt lat="45.85783" lon="1.19477">
        <ele>361.7</ele>
        <time>2024-10-21T08:02:45Z</time>
      </trkpt>
      <trkpt lat="45.85783" lon="1.19475">
        <ele>361.8</ele>
        <time>2024-10-21T08:02:47Z</time>
      </trkpt>
      <trkpt lat="45.85783" lon="1.19474">
        <ele>361.9</ele>
        <time>2024-10-21T08:02:48Z</time>
      </trkpt>
      <trkpt lat="45.85783" lon="1.19472">
        <ele>362</ele>
        <time>2024-10-21T08:02:49Z</time>
      </trkpt>
      <trkpt lat="45.85784" lon="1.19471">
        <ele>362</ele>
        <time>2024-10-21T08:02:50Z</time>
      </trkpt>
      <trkpt lat="45.85784" lon="1.19469">
        <ele>362.1</ele>
        <time>2024-10-21T08:02:51Z</time>
      </trkpt>
      <trkpt lat="45.85785" lon="1.19466">
        <ele>362.3</ele>
        <time>2024-10-21T08:02:52Z</time>
      </trkpt>
      <trkpt lat="45.85785" lon="1.19465">
        <ele>362.3</ele>
        <time>2024-10-21T08:02:53Z</time>
      </trkpt>
      <trkpt lat="45.85786" lon="1.19463">
        <ele>362.4</ele>
        <time>2024-10-21T08:02:55Z</time>
      </trkpt>
      <trkpt lat="45.85786" lon="1.19463">
        <ele>362.4</ele>
        <time>2024-10-21T08:02:56Z</time>
      </trkpt>
      <trkpt lat="45.85786" lon="1.19462">
        <ele>362.5</ele>
        <time>2024-10-21T08:02:57Z</time>
      </trkpt>
      <trkpt lat="45.85787" lon="1.19461">
        <ele>362.5</ele>
        <time>2024-10-21T08:02:58Z</time>
      </trkpt>
      <trkpt lat="45.85787" lon="1.19459">
        <ele>362.6</ele>
        <time>2024-10-21T08:02:59Z</time>
      </trkpt>
      <trkpt lat="45.85788" lon="1.19456">
        <ele>362.7</ele>
        <time>2024-10-21T08:03:00Z</time>
      </trkpt>
      <trkpt lat="45.85788" lon="1.19456">
        <ele>362.7</ele>
        <time>2024-10-21T08:03:01Z</time>
      </trkpt>
      <trkpt lat="45.85789" lon="1.19455">
        <ele>362.8</ele>
        <time>2024-10-21T08:03:02Z</time>
      </trkpt>
      <trkpt lat="45.85789" lon="1.19452">
        <ele>362.9</ele>
        <time>2024-10-21T08:03:03Z</time>
      </trkpt>
      <trkpt lat="45.85789" lon="1.19451">
        <ele>363</ele>
        <time>2024-10-21T08:03:04Z</time>
      </trkpt>
      <trkpt lat="45.85789" lon="1.19449">
        <ele>363</ele>
        <time>2024-10-21T08:03:05Z</time>
      </trkpt>
      <trkpt lat="45.85789" lon="1.19448">
        <ele>363.1</ele>
        <time>2024-10-21T08:03:06Z</time>
      </trkpt>
      <trkpt lat="45.8579" lon="1.19446">
        <ele>363.2</ele>
        <time>2024-10-21T08:03:07Z</time>
      </trkpt>
      <trkpt lat="45.8579" lon="1.19445">
        <ele>363.2</ele>
        <time>2024-10-21T08:03:08Z</time>
      </trkpt>
      <trkpt lat="45.85791" lon="1.19443">
        <ele>363.3</ele>
        <time>2024-10-21T08:03:09Z</time>
      </trkpt>
      <trkpt lat="45.85791" lon="1.19442">
        <ele>363.4</ele>
        <time>2024-10-21T08:03:10Z</time>
      </trkpt>
      <trkpt lat="45.85791" lon="1.1944">
        <ele>363.4</ele>
        <time>2024-10-21T08:03:11Z</time>
      </trkpt>
      <trkpt lat="45.85791" lon="1.19438">
        <ele>363.5</ele>
        <time>2024-10-21T08:03:12Z</time>
      </trkpt>
      <trkpt lat="45.85792" lon="1.19437">
        <ele>363.6</ele>
        <time>2024-10-21T08:03:13Z</time>
      </trkpt>
      <trkpt lat="45.85792" lon="1.19435">
        <ele>363.6</ele>
        <time>2024-10-21T08:03:14Z</time>
      </trkpt>
      <trkpt lat="45.85792" lon="1.19434">
        <ele>363.7</ele>
        <time>2024-10-21T08:03:15Z</time>
      </trkpt>
      <trkpt lat="45.85793" lon="1.19432">
        <ele>363.7</ele>
        <time>2024-10-21T08:03:16Z</time>
      </trkpt>
      <trkpt lat="45.85793" lon="1.19429">
        <ele>363.8</ele>
        <time>2024-10-21T08:03:17Z</time>
      </trkpt>
      <trkpt lat="45.85794" lon="1.19427">
        <ele>363.9</ele>
        <time>2024-10-21T08:03:19Z</time>
      </trkpt>
      <trkpt lat="45.85794" lon="1.19426">
        <ele>363.9</ele>
        <time>2024-10-21T08:03:20Z</time>
      </trkpt>
      <trkpt lat="45.85794" lon="1.19424">
        <ele>363.9</ele>
        <time>2024-10-21T08:03:21Z</time>
      </trkpt>
      <trkpt lat="45.85795" lon="1.19423">
        <ele>364</ele>
        <time>2024-10-21T08:03:22Z</time>
      </trkpt>
      <trkpt lat="45.85795" lon="1.19421">
        <ele>364</ele>
        <time>2024-10-21T08:03:23Z</time>
      </trkpt>
      <trkpt lat="45.85795" lon="1.1942">
        <ele>364.1</ele>
        <time>2024-10-21T08:03:24Z</time>
      </trkpt>
      <trkpt lat="45.85796" lon="1.19418">
        <ele>364.1</ele>
        <time>2024-10-21T08:03:25Z</time>
      </trkpt>
      <trkpt lat="45.85797" lon="1.19417">
        <ele>364.2</ele>
        <time>2024-10-21T08:03:26Z</time>
      </trkpt>
      <trkpt lat="45.85797" lon="1.19415">
        <ele>364.2</ele>
        <time>2024-10-21T08:03:27Z</time>
      </trkpt>
      <trkpt lat="45.85797" lon="1.19414">
        <ele>364.3</ele>
        <time>2024-10-21T08:03:28Z</time>
      </trkpt>
      <trkpt lat="45.85798" lon="1.19412">
        <ele>364.3</ele>
        <time>2024-10-21T08:03:29Z</time>
      </trkpt>
      <trkpt lat="45.85799" lon="1.19409">
        <ele>364.4</ele>
        <time>2024-10-21T08:03:30Z</time>
      </trkpt>
      <trkpt lat="45.85799" lon="1.19407">
        <ele>364.5</ele>
        <time>2024-10-21T08:03:31Z</time>
      </trkpt>
      <trkpt lat="45.858" lon="1.19404">
        <ele>364.6</ele>
        <time>2024-10-21T08:03:33Z</time>
      </trkpt>
      <trkpt lat="45.858" lon="1.19403">
        <ele>364.6</ele>
        <time>2024-10-21T08:03:34Z</time>
      </trkpt>
      <trkpt lat="45.85801" lon="1.19402">
        <ele>364.6</ele>
        <time>2024-10-21T08:03:35Z</time>
      </trkpt>
      <trkpt lat="45.85801" lon="1.194">
        <ele>364.7</ele>
        <time>2024-10-21T08:03:36Z</time>
      </trkpt>
      <trkpt lat="45.85802" lon="1.19398">
        <ele>364.8</ele>
        <time>2024-10-21T08:03:37Z</time>
      </trkpt>
      <trkpt lat="45.85802" lon="1.19397">
        <ele>364.8</ele>
        <time>2024-10-21T08:03:38Z</time>
      </trkpt>
      <trkpt lat="45.85802" lon="1.19395">
        <ele>364.9</ele>
        <time>2024-10-21T08:03:39Z</time>
      </trkpt>
      <trkpt lat="45.85803" lon="1.19393">
        <ele>364.9</ele>
        <time>2024-10-21T08:03:40Z</time>
      </trkpt>
      <trkpt lat="45.85803" lon="1.19392">
        <ele>365</ele>
        <time>2024-10-21T08:03:41Z</time>
      </trkpt>
      <trkpt lat="45.85803" lon="1.1939">
        <ele>365</ele>
        <time>2024-10-21T08:03:42Z</time>
      </trkpt>
      <trkpt lat="45.85804" lon="1.19389">
        <ele>365.1</ele>
        <time>2024-10-21T08:03:43Z</time>
      </trkpt>
      <trkpt lat="45.85804" lon="1.19387">
        <ele>365.2</ele>
        <time>2024-10-21T08:03:44Z</time>
      </trkpt>
      <trkpt lat="45.85805" lon="1.19385">
        <ele>365.2</ele>
        <time>2024-10-21T08:03:45Z</time>
      </trkpt>
      <trkpt lat="45.85805" lon="1.19383">
        <ele>365.3</ele>
        <time>2024-10-21T08:03:46Z</time>
      </trkpt>
      <trkpt lat="45.85806" lon="1.19382">
        <ele>365.4</ele>
        <time>2024-10-21T08:03:47Z</time>
      </trkpt>
      <trkpt lat="45.85806" lon="1.1938">
        <ele>365.4</ele>
        <time>2024-10-21T08:03:48Z</time>
      </trkpt>
      <trkpt lat="45.85807" lon="1.19378">
        <ele>365.5</ele>
        <time>2024-10-21T08:03:49Z</time>
      </trkpt>
      <trkpt lat="45.85807" lon="1.19376">
        <ele>365.6</ele>
        <time>2024-10-21T08:03:50Z</time>
      </trkpt>
      <trkpt lat="45.85807" lon="1.19375">
        <ele>365.6</ele>
        <time>2024-10-21T08:03:51Z</time>
      </trkpt>
      <trkpt lat="45.85808" lon="1.19374">
        <ele>365.7</ele>
        <time>2024-10-21T08:03:52Z</time>
      </trkpt>
      <trkpt lat="45.85808" lon="1.19372">
        <ele>365.7</ele>
        <time>2024-10-21T08:03:53Z</time>
      </trkpt>
      <trkpt lat="45.85809" lon="1.19371">
        <ele>365.8</ele>
        <time>2024-10-21T08:03:54Z</time>
      </trkpt>
      <trkpt lat="45.8581" lon="1.19369">
        <ele>365.8</ele>
        <time>2024-10-21T08:03:55Z</time>
      </trkpt>
      <trkpt lat="45.85811" lon="1.19368">
        <ele>365.9</ele>
        <time>2024-10-21T08:03:56Z</time>
      </trkpt>
      <trkpt lat="45.85812" lon="1.19367">
        <ele>365.9</ele>
        <time>2024-10-21T08:03:57Z</time>
      </trkpt>
      <trkpt lat="45.85813" lon="1.19366">
        <ele>365.9</ele>
        <time>2024-10-21T08:03:58Z</time>
      </trkpt>
      <trkpt lat="45.85815" lon="1.19364">
        <ele>366</ele>
        <time>2024-10-21T08:03:59Z</time>
      </trkpt>
      <trkpt lat="45.85816" lon="1.19363">
        <ele>366</ele>
        <time>2024-10-21T08:04:00Z</time>
      </trkpt>
      <trkpt lat="45.85816" lon="1.19363">
        <ele>366</ele>
        <time>2024-10-21T08:04:01Z</time>
      </trkpt>
      <trkpt lat="45.85818" lon="1.19362">
        <ele>366.1</ele>
        <time>2024-10-21T08:04:02Z</time>
      </trkpt>
      <trkpt lat="45.85819" lon="1.19361">
        <ele>366.1</ele>
        <time>2024-10-21T08:04:03Z</time>
      </trkpt>
      <trkpt lat="45.8582" lon="1.19361">
        <ele>366.1</ele>
        <time>2024-10-21T08:04:04Z</time>
      </trkpt>
      <trkpt lat="45.85822" lon="1.1936">
        <ele>366.2</ele>
        <time>2024-10-21T08:04:05Z</time>
      </trkpt>
      <trkpt lat="45.85824" lon="1.19359">
        <ele>366.2</ele>
        <time>2024-10-21T08:04:07Z</time>
      </trkpt>
      <trkpt lat="45.85825" lon="1.19358">
        <ele>366.2</ele>
        <time>2024-10-21T08:04:08Z</time>
      </trkpt>
      <trkpt lat="45.85826" lon="1.19357">
        <ele>366.2</ele>
        <time>2024-10-21T08:04:09Z</time>
      </trkpt>
      <trkpt lat="45.85828" lon="1.19357">
        <ele>366.3</ele>
        <time>2024-10-21T08:04:10Z</time>
      </trkpt>
      <trkpt lat="45.85829" lon="1.19357">
        <ele>366.3</ele>
        <time>2024-10-21T08:04:11Z</time>
      </trkpt>
      <trkpt lat="45.8583" lon="1.19357">
        <ele>366.3</ele>
        <time>2024-10-21T08:04:12Z</time>
      </trkpt>
      <trkpt lat="45.85831" lon="1.19356">
        <ele>366.3</ele>
        <time>2024-10-21T08:04:13Z</time>
      </trkpt>
      <trkpt lat="45.85833" lon="1.19356">
        <ele>366.3</ele>
        <time>2024-10-21T08:04:14Z</time>
      </trkpt>
      <trkpt lat="45.85835" lon="1.19355">
        <ele>366.3</ele>
        <time>2024-10-21T08:04:15Z</time>
      </trkpt>
      <trkpt lat="45.85836" lon="1.19355">
        <ele>366.3</ele>
        <time>2024-10-21T08:04:16Z</time>
      </trkpt>
      <trkpt lat="45.85836" lon="1.19354">
        <ele>366.3</ele>
        <time>2024-10-21T08:04:17Z</time>
      </trkpt>
      <trkpt lat="45.85838" lon="1.19353">
        <ele>366.3</ele>
        <time>2024-10-21T08:04:18Z</time>
      </trkpt>
      <trkpt lat="45.85839" lon="1.19352">
        <ele>366.3</ele>
        <time>2024-10-21T08:04:19Z</time>
      </trkpt>
      <trkpt lat="45.8584" lon="1.19352">
        <ele>366.3</ele>
        <time>2024-10-21T08:04:20Z</time>
      </trkpt>
      <trkpt lat="45.85842" lon="1.19351">
        <ele>366.4</ele>
        <time>2024-10-21T08:04:21Z</time>
      </trkpt>
      <trkpt lat="45.85843" lon="1.1935">
        <ele>366.4</ele>
        <time>2024-10-21T08:04:22Z</time>
      </trkpt>
      <trkpt lat="45.85843" lon="1.1935">
        <ele>366.4</ele>
        <time>2024-10-21T08:04:23Z</time>
      </trkpt>
      <trkpt lat="45.85845" lon="1.19349">
        <ele>366.4</ele>
        <time>2024-10-21T08:04:24Z</time>
      </trkpt>
      <trkpt lat="45.85846" lon="1.19348">
        <ele>366.4</ele>
        <time>2024-10-21T08:04:25Z</time>
      </trkpt>
      <trkpt lat="45.85848" lon="1.19347">
        <ele>366.4</ele>
        <time>2024-10-21T08:04:26Z</time>
      </trkpt>
      <trkpt lat="45.85849" lon="1.19346">
        <ele>366.4</ele>
        <time>2024-10-21T08:04:27Z</time>
      </trkpt>
      <trkpt lat="45.8585" lon="1.19346">
        <ele>366.4</ele>
        <time>2024-10-21T08:04:28Z</time>
      </trkpt>
      <trkpt lat="45.85851" lon="1.19345">
        <ele>366.4</ele>
        <time>2024-10-21T08:04:29Z</time>
      </trkpt>
      <trkpt lat="45.85852" lon="1.19344">
        <ele>366.4</ele>
        <time>2024-10-21T08:04:30Z</time>
      </trkpt>
      <trkpt lat="45.85853" lon="1.19344">
        <ele>366.4</ele>
        <time>2024-10-21T08:04:31Z</time>
      </trkpt>
      <trkpt lat="45.85854" lon="1.19343">
        <ele>366.3</ele>
        <time>2024-10-21T08:04:32Z</time>
      </trkpt>
      <trkpt lat="45.85855" lon="1.19343">
        <ele>366.3</ele>
        <time>2024-10-21T08:04:33Z</time>
      </trkpt>
      <trkpt lat="45.85857" lon="1.19343">
        <ele>366.3</ele>
        <time>2024-10-21T08:04:34Z</time>
      </trkpt>
      <trkpt lat="45.85858" lon="1.19343">
        <ele>366.3</ele>
        <time>2024-10-21T08:04:35Z</time>
      </trkpt>
      <trkpt lat="45.85859" lon="1.19342">
        <ele>366.3</ele>
        <time>2024-10-21T08:04:36Z</time>
      </trkpt>
      <trkpt lat="45.8586" lon="1.19342">
        <ele>366.3</ele>
        <time>2024-10-21T08:04:37Z</time>
      </trkpt>
      <trkpt lat="45.85861" lon="1.19341">
        <ele>366.3</ele>
        <time>2024-10-21T08:04:38Z</time>
      </trkpt>
      <trkpt lat="45.85862" lon="1.19341">
        <ele>366.3</ele>
        <time>2024-10-21T08:04:39Z</time>
      </trkpt>
      <trkpt lat="45.85863" lon="1.19339">
        <ele>366.3</ele>
        <time>2024-10-21T08:04:40Z</time>
      </trkpt>
      <trkpt lat="45.85864" lon="1.19339">
        <ele>366.3</ele>
        <time>2024-10-21T08:04:41Z</time>
      </trkpt>
      <trkpt lat="45.85864" lon="1.19339">
        <ele>366.3</ele>
        <time>2024-10-21T08:04:42Z</time>
      </trkpt>
      <trkpt lat="45.85864" lon="1.19339">
        <ele>366.3</ele>
        <time>2024-10-21T08:04:43Z</time>
      </trkpt>
      <trkpt lat="45.85865" lon="1.19339">
        <ele>366.3</ele>
        <time>2024-10-21T08:04:44Z</time>
      </trkpt>
      <trkpt lat="45.85865" lon="1.19339">
        <ele>366.3</ele>
        <time>2024-10-21T08:04:45Z</time>
      </trkpt>
      <trkpt lat="45.85866" lon="1.19338">
        <ele>366.3</ele>
        <time>2024-10-21T08:04:46Z</time>
      </trkpt>
      <trkpt lat="45.85867" lon="1.19338">
        <ele>366.3</ele>
        <time>2024-10-21T08:04:47Z</time>
      </trkpt>
      <trkpt lat="45.85868" lon="1.19336">
        <ele>366.3</ele>
        <time>2024-10-21T08:04:48Z</time>
      </trkpt>
      <trkpt lat="45.85869" lon="1.19335">
        <ele>366.2</ele>
        <time>2024-10-21T08:04:49Z</time>
      </trkpt>
      <trkpt lat="45.85871" lon="1.19333">
        <ele>366.2</ele>
        <time>2024-10-21T08:04:50Z</time>
      </trkpt>
      <trkpt lat="45.85873" lon="1.19333">
        <ele>366.2</ele>
        <time>2024-10-21T08:04:51Z</time>
      </trkpt>
      <trkpt lat="45.85874" lon="1.19333">
        <ele>366.2</ele>
        <time>2024-10-21T08:04:52Z</time>
      </trkpt>
      <trkpt lat="45.85874" lon="1.19333">
        <ele>366.2</ele>
        <time>2024-10-21T08:04:53Z</time>
      </trkpt>
      <trkpt lat="45.85876" lon="1.19332">
        <ele>366.2</ele>
        <time>2024-10-21T08:04:54Z</time>
      </trkpt>
      <trkpt lat="45.85877" lon="1.19331">
        <ele>366.2</ele>
        <time>2024-10-21T08:04:55Z</time>
      </trkpt>
      <trkpt lat="45.85879" lon="1.19331">
        <ele>366.2</ele>
        <time>2024-10-21T08:04:56Z</time>
      </trkpt>
      <trkpt lat="45.8588" lon="1.1933">
        <ele>366.1</ele>
        <time>2024-10-21T08:04:57Z</time>
      </trkpt>
      <trkpt lat="45.85881" lon="1.19329">
        <ele>366.1</ele>
        <time>2024-10-21T08:04:58Z</time>
      </trkpt>
      <trkpt lat="45.85883" lon="1.19328">
        <ele>366.1</ele>
        <time>2024-10-21T08:04:59Z</time>
      </trkpt>
      <trkpt lat="45.85884" lon="1.19327">
        <ele>366.1</ele>
        <time>2024-10-21T08:05:00Z</time>
      </trkpt>
      <trkpt lat="45.85885" lon="1.19325">
        <ele>366.1</ele>
        <time>2024-10-21T08:05:01Z</time>
      </trkpt>
      <trkpt lat="45.85886" lon="1.19325">
        <ele>366.1</ele>
        <time>2024-10-21T08:05:02Z</time>
      </trkpt>
      <trkpt lat="45.85888" lon="1.19325">
        <ele>366</ele>
        <time>2024-10-21T08:05:03Z</time>
      </trkpt>
      <trkpt lat="45.8589" lon="1.19325">
        <ele>366</ele>
        <time>2024-10-21T08:05:04Z</time>
      </trkpt>
      <trkpt lat="45.85891" lon="1.19325">
        <ele>366</ele>
        <time>2024-10-21T08:05:05Z</time>
      </trkpt>
      <trkpt lat="45.85892" lon="1.19325">
        <ele>366</ele>
        <time>2024-10-21T08:05:06Z</time>
      </trkpt>
      <trkpt lat="45.85893" lon="1.19326">
        <ele>366</ele>
        <time>2024-10-21T08:05:07Z</time>
      </trkpt>
      <trkpt lat="45.85895" lon="1.19326">
        <ele>366</ele>
        <time>2024-10-21T08:05:08Z</time>
      </trkpt>
      <trkpt lat="45.85897" lon="1.19327">
        <ele>365.9</ele>
        <time>2024-10-21T08:05:09Z</time>
      </trkpt>
      <trkpt lat="45.85898" lon="1.19327">
        <ele>365.9</ele>
        <time>2024-10-21T08:05:10Z</time>
      </trkpt>
      <trkpt lat="45.85898" lon="1.19327">
        <ele>365.9</ele>
        <time>2024-10-21T08:05:11Z</time>
      </trkpt>
      <trkpt lat="45.859" lon="1.19327">
        <ele>365.9</ele>
        <time>2024-10-21T08:05:12Z</time>
      </trkpt>
      <trkpt lat="45.85901" lon="1.19326">
        <ele>365.9</ele>
        <time>2024-10-21T08:05:13Z</time>
      </trkpt>
      <trkpt lat="45.85902" lon="1.19326">
        <ele>365.9</ele>
        <time>2024-10-21T08:05:14Z</time>
      </trkpt>
      <trkpt lat="45.85903" lon="1.19326">
        <ele>365.9</ele>
        <time>2024-10-21T08:05:15Z</time>
      </trkpt>
      <trkpt lat="45.85904" lon="1.19327">
        <ele>365.9</ele>
        <time>2024-10-21T08:05:16Z</time>
      </trkpt>
      <trkpt lat="45.85905" lon="1.19328">
        <ele>365.9</ele>
        <time>2024-10-21T08:05:17Z</time>
      </trkpt>
      <trkpt lat="45.85909" lon="1.19327">
        <ele>365.8</ele>
        <time>2024-10-21T08:05:18Z</time>
      </trkpt>
      <trkpt lat="45.85909" lon="1.19327">
        <ele>365.8</ele>
        <time>2024-10-21T08:05:19Z</time>
      </trkpt>
      <trkpt lat="45.85911" lon="1.19328">
        <ele>365.8</ele>
        <time>2024-10-21T08:05:20Z</time>
      </trkpt>
      <trkpt lat="45.85911" lon="1.19328">
        <ele>365.8</ele>
        <time>2024-10-21T08:05:21Z</time>
      </trkpt>
      <trkpt lat="45.85913" lon="1.19329">
        <ele>365.7</ele>
        <time>2024-10-21T08:05:22Z</time>
      </trkpt>
      <trkpt lat="45.85913" lon="1.19329">
        <ele>365.7</ele>
        <time>2024-10-21T08:05:23Z</time>
      </trkpt>
      <trkpt lat="45.85915" lon="1.1933">
        <ele>365.7</ele>
        <time>2024-10-21T08:05:24Z</time>
      </trkpt>
      <trkpt lat="45.85916" lon="1.19331">
        <ele>365.7</ele>
        <time>2024-10-21T08:05:25Z</time>
      </trkpt>
      <trkpt lat="45.85917" lon="1.19332">
        <ele>365.7</ele>
        <time>2024-10-21T08:05:26Z</time>
      </trkpt>
      <trkpt lat="45.85918" lon="1.19333">
        <ele>365.7</ele>
        <time>2024-10-21T08:05:27Z</time>
      </trkpt>
      <trkpt lat="45.8592" lon="1.19334">
        <ele>365.6</ele>
        <time>2024-10-21T08:05:28Z</time>
      </trkpt>
      <trkpt lat="45.85921" lon="1.19335">
        <ele>365.6</ele>
        <time>2024-10-21T08:05:29Z</time>
      </trkpt>
      <trkpt lat="45.85922" lon="1.19336">
        <ele>365.6</ele>
        <time>2024-10-21T08:05:30Z</time>
      </trkpt>
      <trkpt lat="45.85923" lon="1.19336">
        <ele>365.6</ele>
        <time>2024-10-21T08:05:31Z</time>
      </trkpt>
      <trkpt lat="45.85925" lon="1.19337">
        <ele>365.5</ele>
        <time>2024-10-21T08:05:32Z</time>
      </trkpt>
      <trkpt lat="45.85927" lon="1.19337">
        <ele>365.5</ele>
        <time>2024-10-21T08:05:33Z</time>
      </trkpt>
      <trkpt lat="45.85927" lon="1.19338">
        <ele>365.5</ele>
        <time>2024-10-21T08:05:34Z</time>
      </trkpt>
      <trkpt lat="45.85928" lon="1.19338">
        <ele>365.5</ele>
        <time>2024-10-21T08:05:35Z</time>
      </trkpt>
      <trkpt lat="45.8593" lon="1.19339">
        <ele>365.4</ele>
        <time>2024-10-21T08:05:36Z</time>
      </trkpt>
      <trkpt lat="45.85931" lon="1.19339">
        <ele>365.4</ele>
        <time>2024-10-21T08:05:37Z</time>
      </trkpt>
      <trkpt lat="45.85932" lon="1.1934">
        <ele>365.4</ele>
        <time>2024-10-21T08:05:38Z</time>
      </trkpt>
      <trkpt lat="45.85934" lon="1.19341">
        <ele>365.3</ele>
        <time>2024-10-21T08:05:39Z</time>
      </trkpt>
      <trkpt lat="45.85934" lon="1.19342">
        <ele>365.3</ele>
        <time>2024-10-21T08:05:40Z</time>
      </trkpt>
      <trkpt lat="45.85935" lon="1.19343">
        <ele>365.3</ele>
        <time>2024-10-21T08:05:41Z</time>
      </trkpt>
      <trkpt lat="45.85936" lon="1.19344">
        <ele>365.3</ele>
        <time>2024-10-21T08:05:42Z</time>
      </trkpt>
      <trkpt lat="45.85937" lon="1.19345">
        <ele>365.2</ele>
        <time>2024-10-21T08:05:43Z</time>
      </trkpt>
      <trkpt lat="45.85939" lon="1.19347">
        <ele>365.2</ele>
        <time>2024-10-21T08:05:44Z</time>
      </trkpt>
      <trkpt lat="45.85939" lon="1.19348">
        <ele>365.2</ele>
        <time>2024-10-21T08:05:45Z</time>
      </trkpt>
      <trkpt lat="45.8594" lon="1.19348">
        <ele>365.1</ele>
        <time>2024-10-21T08:05:46Z</time>
      </trkpt>
      <trkpt lat="45.85942" lon="1.19351">
        <ele>365.1</ele>
        <time>2024-10-21T08:05:47Z</time>
      </trkpt>
      <trkpt lat="45.85942" lon="1.19352">
        <ele>365.1</ele>
        <time>2024-10-21T08:05:48Z</time>
      </trkpt>
      <trkpt lat="45.85943" lon="1.19353">
        <ele>365</ele>
        <time>2024-10-21T08:05:49Z</time>
      </trkpt>
      <trkpt lat="45.85944" lon="1.19355">
        <ele>365</ele>
        <time>2024-10-21T08:05:50Z</time>
      </trkpt>
      <trkpt lat="45.85945" lon="1.19356">
        <ele>365</ele>
        <time>2024-10-21T08:05:51Z</time>
      </trkpt>
      <trkpt lat="45.85945" lon="1.19357">
        <ele>364.9</ele>
        <time>2024-10-21T08:05:52Z</time>
      </trkpt>
      <trkpt lat="45.85947" lon="1.19359">
        <ele>364.9</ele>
        <time>2024-10-21T08:05:53Z</time>
      </trkpt>
      <trkpt lat="45.85948" lon="1.1936">
        <ele>364.9</ele>
        <time>2024-10-21T08:05:54Z</time>
      </trkpt>
      <trkpt lat="45.85948" lon="1.1936">
        <ele>364.8</ele>
        <time>2024-10-21T08:05:55Z</time>
      </trkpt>
      <trkpt lat="45.8595" lon="1.19363">
        <ele>364.8</ele>
        <time>2024-10-21T08:05:56Z</time>
      </trkpt>
      <trkpt lat="45.85951" lon="1.19363">
        <ele>364.8</ele>
        <time>2024-10-21T08:05:57Z</time>
      </trkpt>
      <trkpt lat="45.85951" lon="1.19364">
        <ele>364.7</ele>
        <time>2024-10-21T08:05:58Z</time>
      </trkpt>
      <trkpt lat="45.85953" lon="1.19367">
        <ele>364.7</ele>
        <time>2024-10-21T08:05:59Z</time>
      </trkpt>
      <trkpt lat="45.85953" lon="1.19367">
        <ele>364.7</ele>
        <time>2024-10-21T08:06:00Z</time>
      </trkpt>
      <trkpt lat="45.85954" lon="1.19368">
        <ele>364.6</ele>
        <time>2024-10-21T08:06:01Z</time>
      </trkpt>
      <trkpt lat="45.85956" lon="1.1937">
        <ele>364.6</ele>
        <time>2024-10-21T08:06:02Z</time>
      </trkpt>
      <trkpt lat="45.85956" lon="1.19371">
        <ele>364.5</ele>
        <time>2024-10-21T08:06:03Z</time>
      </trkpt>
      <trkpt lat="45.85957" lon="1.19372">
        <ele>364.5</ele>
        <time>2024-10-21T08:06:04Z</time>
      </trkpt>
      <trkpt lat="45.85958" lon="1.19374">
        <ele>364.5</ele>
        <time>2024-10-21T08:06:05Z</time>
      </trkpt>
      <trkpt lat="45.85959" lon="1.19375">
        <ele>364.4</ele>
        <time>2024-10-21T08:06:06Z</time>
      </trkpt>
      <trkpt lat="45.8596" lon="1.19377">
        <ele>364.4</ele>
        <time>2024-10-21T08:06:07Z</time>
      </trkpt>
      <trkpt lat="45.85962" lon="1.19378">
        <ele>364.3</ele>
        <time>2024-10-21T08:06:08Z</time>
      </trkpt>
      <trkpt lat="45.85963" lon="1.19379">
        <ele>364.3</ele>
        <time>2024-10-21T08:06:09Z</time>
      </trkpt>
      <trkpt lat="45.85964" lon="1.1938">
        <ele>364.3</ele>
        <time>2024-10-21T08:06:10Z</time>
      </trkpt>
      <trkpt lat="45.85966" lon="1.19382">
        <ele>364.2</ele>
        <time>2024-10-21T08:06:11Z</time>
      </trkpt>
      <trkpt lat="45.85967" lon="1.19382">
        <ele>364.2</ele>
        <time>2024-10-21T08:06:12Z</time>
      </trkpt>
      <trkpt lat="45.85968" lon="1.19383">
        <ele>364.1</ele>
        <time>2024-10-21T08:06:13Z</time>
      </trkpt>
      <trkpt lat="45.85968" lon="1.19384">
        <ele>364.1</ele>
        <time>2024-10-21T08:06:14Z</time>
      </trkpt>
      <trkpt lat="45.85969" lon="1.19384">
        <ele>364.1</ele>
        <time>2024-10-21T08:06:15Z</time>
      </trkpt>
      <trkpt lat="45.8597" lon="1.19385">
        <ele>364</ele>
        <time>2024-10-21T08:06:16Z</time>
      </trkpt>
      <trkpt lat="45.85972" lon="1.19386">
        <ele>364</ele>
        <time>2024-10-21T08:06:17Z</time>
      </trkpt>
      <trkpt lat="45.85972" lon="1.19387">
        <ele>364</ele>
        <time>2024-10-21T08:06:18Z</time>
      </trkpt>
      <trkpt lat="45.85974" lon="1.19388">
        <ele>363.9</ele>
        <time>2024-10-21T08:06:19Z</time>
      </trkpt>
      <trkpt lat="45.85975" lon="1.19388">
        <ele>363.9</ele>
        <time>2024-10-21T08:06:20Z</time>
      </trkpt>
      <trkpt lat="45.85975" lon="1.19389">
        <ele>363.9</ele>
        <time>2024-10-21T08:06:21Z</time>
      </trkpt>
      <trkpt lat="45.85975" lon="1.19392">
        <ele>363.8</ele>
        <time>2024-10-21T08:06:23Z</time>
      </trkpt>
      <trkpt lat="45.85976" lon="1.19393">
        <ele>363.8</ele>
        <time>2024-10-21T08:06:25Z</time>
      </trkpt>
      <trkpt lat="45.85978" lon="1.19394">
        <ele>363.7</ele>
        <time>2024-10-21T08:06:26Z</time>
      </trkpt>
      <trkpt lat="45.85979" lon="1.19395">
        <ele>363.7</ele>
        <time>2024-10-21T08:06:27Z</time>
      </trkpt>
      <trkpt lat="45.8598" lon="1.19397">
        <ele>363.6</ele>
        <time>2024-10-21T08:06:28Z</time>
      </trkpt>
      <trkpt lat="45.85981" lon="1.19398">
        <ele>363.5</ele>
        <time>2024-10-21T08:06:29Z</time>
      </trkpt>
      <trkpt lat="45.85982" lon="1.194">
        <ele>363.5</ele>
        <time>2024-10-21T08:06:30Z</time>
      </trkpt>
      <trkpt lat="45.85983" lon="1.19402">
        <ele>363.4</ele>
        <time>2024-10-21T08:06:31Z</time>
      </trkpt>
      <trkpt lat="45.85985" lon="1.19404">
        <ele>363.3</ele>
        <time>2024-10-21T08:06:32Z</time>
      </trkpt>
      <trkpt lat="45.85987" lon="1.19408">
        <ele>363.2</ele>
        <time>2024-10-21T08:06:33Z</time>
      </trkpt>
      <trkpt lat="45.85988" lon="1.1941">
        <ele>363.1</ele>
        <time>2024-10-21T08:06:34Z</time>
      </trkpt>
      <trkpt lat="45.85988" lon="1.1941">
        <ele>363.1</ele>
        <time>2024-10-21T08:06:35Z</time>
      </trkpt>
      <trkpt lat="45.85989" lon="1.19412">
        <ele>363</ele>
        <time>2024-10-21T08:06:36Z</time>
      </trkpt>
      <trkpt lat="45.8599" lon="1.19415">
        <ele>362.9</ele>
        <time>2024-10-21T08:06:37Z</time>
      </trkpt>
      <trkpt lat="45.85991" lon="1.19416">
        <ele>362.9</ele>
        <time>2024-10-21T08:06:38Z</time>
      </trkpt>
      <trkpt lat="45.85992" lon="1.19418">
        <ele>362.8</ele>
        <time>2024-10-21T08:06:39Z</time>
      </trkpt>
      <trkpt lat="45.85993" lon="1.1942">
        <ele>362.7</ele>
        <time>2024-10-21T08:06:40Z</time>
      </trkpt>
      <trkpt lat="45.85994" lon="1.19421">
        <ele>362.6</ele>
        <time>2024-10-21T08:06:41Z</time>
      </trkpt>
      <trkpt lat="45.85995" lon="1.19423">
        <ele>362.6</ele>
        <time>2024-10-21T08:06:42Z</time>
      </trkpt>
      <trkpt lat="45.85996" lon="1.19425">
        <ele>362.5</ele>
        <time>2024-10-21T08:06:43Z</time>
      </trkpt>
      <trkpt lat="45.85996" lon="1.19427">
        <ele>362.4</ele>
        <time>2024-10-21T08:06:44Z</time>
      </trkpt>
      <trkpt lat="45.85997" lon="1.19428">
        <ele>362.3</ele>
        <time>2024-10-21T08:06:45Z</time>
      </trkpt>
      <trkpt lat="45.85998" lon="1.1943">
        <ele>362.2</ele>
        <time>2024-10-21T08:06:46Z</time>
      </trkpt>
      <trkpt lat="45.85999" lon="1.19433">
        <ele>362.1</ele>
        <time>2024-10-21T08:06:47Z</time>
      </trkpt>
      <trkpt lat="45.85999" lon="1.19434">
        <ele>362.1</ele>
        <time>2024-10-21T08:06:48Z</time>
      </trkpt>
      <trkpt lat="45.86" lon="1.19435">
        <ele>362</ele>
        <time>2024-10-21T08:06:49Z</time>
      </trkpt>
      <trkpt lat="45.86" lon="1.19436">
        <ele>362</ele>
        <time>2024-10-21T08:06:50Z</time>
      </trkpt>
      <trkpt lat="45.86" lon="1.19436">
        <ele>362</ele>
        <time>2024-10-21T08:06:51Z</time>
      </trkpt>
      <trkpt lat="45.86" lon="1.19436">
        <ele>361.9</ele>
        <time>2024-10-21T08:06:52Z</time>
      </trkpt>
      <trkpt lat="45.86001" lon="1.19436">
        <ele>361.9</ele>
        <time>2024-10-21T08:06:53Z</time>
      </trkpt>
      <trkpt lat="45.86001" lon="1.19436">
        <ele>361.9</ele>
        <time>2024-10-21T08:06:54Z</time>
      </trkpt>
      <trkpt lat="45.86001" lon="1.19436">
        <ele>361.9</ele>
        <time>2024-10-21T08:06:55Z</time>
      </trkpt>
      <trkpt lat="45.86002" lon="1.19437">
        <ele>361.9</ele>
        <time>2024-10-21T08:06:56Z</time>
      </trkpt>
      <trkpt lat="45.86002" lon="1.19437">
        <ele>361.9</ele>
        <time>2024-10-21T08:06:57Z</time>
      </trkpt>
      <trkpt lat="45.86002" lon="1.19437">
        <ele>361.8</ele>
        <time>2024-10-21T08:06:58Z</time>
      </trkpt>
      <trkpt lat="45.86002" lon="1.19437">
        <ele>361.8</ele>
        <time>2024-10-21T08:06:59Z</time>
      </trkpt>
      <trkpt lat="45.86003" lon="1.19437">
        <ele>361.8</ele>
        <time>2024-10-21T08:07:00Z</time>
      </trkpt>
      <trkpt lat="45.86003" lon="1.19437">
        <ele>361.8</ele>
        <time>2024-10-21T08:07:01Z</time>
      </trkpt>
      <trkpt lat="45.86006" lon="1.19438">
        <ele>361.6</ele>
        <time>2024-10-21T08:07:02Z</time>
      </trkpt>
      <trkpt lat="45.86007" lon="1.19439">
        <ele>361.5</ele>
        <time>2024-10-21T08:07:03Z</time>
      </trkpt>
      <trkpt lat="45.86008" lon="1.1944">
        <ele>361.4</ele>
        <time>2024-10-21T08:07:04Z</time>
      </trkpt>
      <trkpt lat="45.8601" lon="1.1944">
        <ele>361.3</ele>
        <time>2024-10-21T08:07:05Z</time>
      </trkpt>
      <trkpt lat="45.86012" lon="1.1944">
        <ele>361.2</ele>
        <time>2024-10-21T08:07:06Z</time>
      </trkpt>
      <trkpt lat="45.86012" lon="1.1944">
        <ele>361.1</ele>
        <time>2024-10-21T08:07:07Z</time>
      </trkpt>
      <trkpt lat="45.86013" lon="1.19441">
        <ele>361.1</ele>
        <time>2024-10-21T08:07:08Z</time>
      </trkpt>
      <trkpt lat="45.86015" lon="1.19441">
        <ele>361</ele>
        <time>2024-10-21T08:07:09Z</time>
      </trkpt>
      <trkpt lat="45.86016" lon="1.19441">
        <ele>360.9</ele>
        <time>2024-10-21T08:07:10Z</time>
      </trkpt>
      <trkpt lat="45.86017" lon="1.19441">
        <ele>360.9</ele>
        <time>2024-10-21T08:07:11Z</time>
      </trkpt>
      <trkpt lat="45.86019" lon="1.1944">
        <ele>360.9</ele>
        <time>2024-10-21T08:07:12Z</time>
      </trkpt>
      <trkpt lat="45.86021" lon="1.1944">
        <ele>360.9</ele>
        <time>2024-10-21T08:07:13Z</time>
      </trkpt>
      <trkpt lat="45.86022" lon="1.1944">
        <ele>360.9</ele>
        <time>2024-10-21T08:07:14Z</time>
      </trkpt>
      <trkpt lat="45.86023" lon="1.1944">
        <ele>360.9</ele>
        <time>2024-10-21T08:07:15Z</time>
      </trkpt>
      <trkpt lat="45.86025" lon="1.1944">
        <ele>360.9</ele>
        <time>2024-10-21T08:07:16Z</time>
      </trkpt>
      <trkpt lat="45.86026" lon="1.1944">
        <ele>360.9</ele>
        <time>2024-10-21T08:07:17Z</time>
      </trkpt>
      <trkpt lat="45.86027" lon="1.1944">
        <ele>360.9</ele>
        <time>2024-10-21T08:07:18Z</time>
      </trkpt>
      <trkpt lat="45.8603" lon="1.1944">
        <ele>360.9</ele>
        <time>2024-10-21T08:07:19Z</time>
      </trkpt>
      <trkpt lat="45.86031" lon="1.19439">
        <ele>360.9</ele>
        <time>2024-10-21T08:07:20Z</time>
      </trkpt>
      <trkpt lat="45.86032" lon="1.19438">
        <ele>360.9</ele>
        <time>2024-10-21T08:07:21Z</time>
      </trkpt>
      <trkpt lat="45.86034" lon="1.19438">
        <ele>360.9</ele>
        <time>2024-10-21T08:07:23Z</time>
      </trkpt>
      <trkpt lat="45.86035" lon="1.19437">
        <ele>360.9</ele>
        <time>2024-10-21T08:07:24Z</time>
      </trkpt>
      <trkpt lat="45.86037" lon="1.19437">
        <ele>360.9</ele>
        <time>2024-10-21T08:07:25Z</time>
      </trkpt>
      <trkpt lat="45.86038" lon="1.19436">
        <ele>360.9</ele>
        <time>2024-10-21T08:07:26Z</time>
      </trkpt>
      <trkpt lat="45.8604" lon="1.19435">
        <ele>360.9</ele>
        <time>2024-10-21T08:07:27Z</time>
      </trkpt>
      <trkpt lat="45.86041" lon="1.19433">
        <ele>360.9</ele>
        <time>2024-10-21T08:07:28Z</time>
      </trkpt>
      <trkpt lat="45.86041" lon="1.19431">
        <ele>360.9</ele>
        <time>2024-10-21T08:07:29Z</time>
      </trkpt>
      <trkpt lat="45.86042" lon="1.1943">
        <ele>360.9</ele>
        <time>2024-10-21T08:07:30Z</time>
      </trkpt>
      <trkpt lat="45.86042" lon="1.19428">
        <ele>360.9</ele>
        <time>2024-10-21T08:07:31Z</time>
      </trkpt>
      <trkpt lat="45.86043" lon="1.19427">
        <ele>360.9</ele>
        <time>2024-10-21T08:07:32Z</time>
      </trkpt>
      <trkpt lat="45.86044" lon="1.19426">
        <ele>360.9</ele>
        <time>2024-10-21T08:07:33Z</time>
      </trkpt>
      <trkpt lat="45.86045" lon="1.19425">
        <ele>361</ele>
        <time>2024-10-21T08:07:34Z</time>
      </trkpt>
      <trkpt lat="45.86046" lon="1.19424">
        <ele>361</ele>
        <time>2024-10-21T08:07:35Z</time>
      </trkpt>
      <trkpt lat="45.86048" lon="1.19423">
        <ele>361</ele>
        <time>2024-10-21T08:07:36Z</time>
      </trkpt>
      <trkpt lat="45.86049" lon="1.19422">
        <ele>361</ele>
        <time>2024-10-21T08:07:37Z</time>
      </trkpt>
      <trkpt lat="45.8605" lon="1.19422">
        <ele>361</ele>
        <time>2024-10-21T08:07:38Z</time>
      </trkpt>
      <trkpt lat="45.86051" lon="1.19422">
        <ele>361</ele>
        <time>2024-10-21T08:07:39Z</time>
      </trkpt>
      <trkpt lat="45.86052" lon="1.19421">
        <ele>361</ele>
        <time>2024-10-21T08:07:40Z</time>
      </trkpt>
      <trkpt lat="45.86053" lon="1.19421">
        <ele>361</ele>
        <time>2024-10-21T08:07:41Z</time>
      </trkpt>
      <trkpt lat="45.86054" lon="1.1942">
        <ele>361</ele>
        <time>2024-10-21T08:07:42Z</time>
      </trkpt>
      <trkpt lat="45.86056" lon="1.19419">
        <ele>361</ele>
        <time>2024-10-21T08:07:43Z</time>
      </trkpt>
      <trkpt lat="45.86057" lon="1.19419">
        <ele>361.1</ele>
        <time>2024-10-21T08:07:44Z</time>
      </trkpt>
      <trkpt lat="45.86058" lon="1.19419">
        <ele>361.1</ele>
        <time>2024-10-21T08:07:45Z</time>
      </trkpt>
      <trkpt lat="45.86059" lon="1.19418">
        <ele>361.1</ele>
        <time>2024-10-21T08:07:46Z</time>
      </trkpt>
      <trkpt lat="45.8606" lon="1.19418">
        <ele>361.1</ele>
        <time>2024-10-21T08:07:47Z</time>
      </trkpt>
      <trkpt lat="45.86062" lon="1.19418">
        <ele>361.1</ele>
        <time>2024-10-21T08:07:48Z</time>
      </trkpt>
      <trkpt lat="45.86062" lon="1.19418">
        <ele>361.1</ele>
        <time>2024-10-21T08:07:49Z</time>
      </trkpt>
      <trkpt lat="45.86063" lon="1.19418">
        <ele>361.1</ele>
        <time>2024-10-21T08:07:50Z</time>
      </trkpt>
      <trkpt lat="45.86064" lon="1.19418">
        <ele>361.2</ele>
        <time>2024-10-21T08:07:51Z</time>
      </trkpt>
      <trkpt lat="45.86065" lon="1.19417">
        <ele>361.2</ele>
        <time>2024-10-21T08:07:52Z</time>
      </trkpt>
      <trkpt lat="45.86067" lon="1.19415">
        <ele>361.2</ele>
        <time>2024-10-21T08:07:53Z</time>
      </trkpt>
      <trkpt lat="45.86067" lon="1.19414">
        <ele>361.2</ele>
        <time>2024-10-21T08:07:54Z</time>
      </trkpt>
      <trkpt lat="45.86068" lon="1.19413">
        <ele>361.2</ele>
        <time>2024-10-21T08:07:55Z</time>
      </trkpt>
      <trkpt lat="45.86069" lon="1.19412">
        <ele>361.3</ele>
        <time>2024-10-21T08:07:56Z</time>
      </trkpt>
      <trkpt lat="45.86069" lon="1.1941">
        <ele>361.3</ele>
        <time>2024-10-21T08:07:57Z</time>
      </trkpt>
      <trkpt lat="45.86069" lon="1.19408">
        <ele>361.3</ele>
        <time>2024-10-21T08:07:58Z</time>
      </trkpt>
      <trkpt lat="45.86071" lon="1.19406">
        <ele>361.4</ele>
        <time>2024-10-21T08:07:59Z</time>
      </trkpt>
      <trkpt lat="45.86072" lon="1.19405">
        <ele>361.4</ele>
        <time>2024-10-21T08:08:01Z</time>
      </trkpt>
      <trkpt lat="45.86074" lon="1.19404">
        <ele>361.4</ele>
        <time>2024-10-21T08:08:02Z</time>
      </trkpt>
      <trkpt lat="45.86074" lon="1.19403">
        <ele>361.5</ele>
        <time>2024-10-21T08:08:03Z</time>
      </trkpt>
      <trkpt lat="45.86075" lon="1.19404">
        <ele>361.5</ele>
        <time>2024-10-21T08:08:04Z</time>
      </trkpt>
      <trkpt lat="45.86076" lon="1.19405">
        <ele>361.5</ele>
        <time>2024-10-21T08:08:05Z</time>
      </trkpt>
      <trkpt lat="45.86077" lon="1.19406">
        <ele>361.6</ele>
        <time>2024-10-21T08:08:06Z</time>
      </trkpt>
      <trkpt lat="45.86078" lon="1.19406">
        <ele>361.6</ele>
        <time>2024-10-21T08:08:07Z</time>
      </trkpt>
      <trkpt lat="45.86079" lon="1.19406">
        <ele>361.7</ele>
        <time>2024-10-21T08:08:08Z</time>
      </trkpt>
      <trkpt lat="45.8608" lon="1.19407">
        <ele>361.7</ele>
        <time>2024-10-21T08:08:09Z</time>
      </trkpt>
      <trkpt lat="45.86081" lon="1.19407">
        <ele>361.7</ele>
        <time>2024-10-21T08:08:10Z</time>
      </trkpt>
      <trkpt lat="45.86081" lon="1.19407">
        <ele>361.7</ele>
        <time>2024-10-21T08:08:11Z</time>
      </trkpt>
      <trkpt lat="45.86082" lon="1.19408">
        <ele>361.7</ele>
        <time>2024-10-21T08:08:12Z</time>
      </trkpt>
      <trkpt lat="45.86082" lon="1.19407">
        <ele>361.7</ele>
        <time>2024-10-21T08:08:13Z</time>
      </trkpt>
      <trkpt lat="45.86082" lon="1.19407">
        <ele>361.8</ele>
        <time>2024-10-21T08:08:14Z</time>
      </trkpt>
      <trkpt lat="45.86083" lon="1.19407">
        <ele>361.8</ele>
        <time>2024-10-21T08:08:15Z</time>
      </trkpt>
      <trkpt lat="45.86083" lon="1.19408">
        <ele>361.8</ele>
        <time>2024-10-21T08:08:16Z</time>
      </trkpt>
      <trkpt lat="45.86084" lon="1.19409">
        <ele>361.8</ele>
        <time>2024-10-21T08:08:17Z</time>
      </trkpt>
      <trkpt lat="45.86085" lon="1.1941">
        <ele>361.8</ele>
        <time>2024-10-21T08:08:18Z</time>
      </trkpt>
      <trkpt lat="45.86085" lon="1.19412">
        <ele>361.9</ele>
        <time>2024-10-21T08:08:19Z</time>
      </trkpt>
      <trkpt lat="45.86085" lon="1.19413">
        <ele>361.9</ele>
        <time>2024-10-21T08:08:20Z</time>
      </trkpt>
      <trkpt lat="45.86086" lon="1.19415">
        <ele>361.9</ele>
        <time>2024-10-21T08:08:21Z</time>
      </trkpt>
      <trkpt lat="45.86086" lon="1.19416">
        <ele>362</ele>
        <time>2024-10-21T08:08:22Z</time>
      </trkpt>
      <trkpt lat="45.86091" lon="1.19406">
        <ele>362.2</ele>
        <time>2024-10-21T08:08:23Z</time>
      </trkpt>
      <trkpt lat="45.86095" lon="1.19398">
        <ele>362.3</ele>
        <time>2024-10-21T08:08:24Z</time>
      </trkpt>
      <trkpt lat="45.86096" lon="1.19397">
        <ele>362.3</ele>
        <time>2024-10-21T08:08:25Z</time>
      </trkpt>
      <trkpt lat="45.86097" lon="1.19396">
        <ele>362.3</ele>
        <time>2024-10-21T08:08:26Z</time>
      </trkpt>
      <trkpt lat="45.86099" lon="1.19395">
        <ele>362.3</ele>
        <time>2024-10-21T08:08:27Z</time>
      </trkpt>
      <trkpt lat="45.861" lon="1.19394">
        <ele>362.3</ele>
        <time>2024-10-21T08:08:28Z</time>
      </trkpt>
      <trkpt lat="45.86101" lon="1.19393">
        <ele>362.4</ele>
        <time>2024-10-21T08:08:29Z</time>
      </trkpt>
      <trkpt lat="45.86102" lon="1.19392">
        <ele>362.4</ele>
        <time>2024-10-21T08:08:30Z</time>
      </trkpt>
      <trkpt lat="45.86104" lon="1.19392">
        <ele>362.4</ele>
        <time>2024-10-21T08:08:31Z</time>
      </trkpt>
      <trkpt lat="45.86105" lon="1.19392">
        <ele>362.4</ele>
        <time>2024-10-21T08:08:32Z</time>
      </trkpt>
      <trkpt lat="45.86106" lon="1.19392">
        <ele>362.4</ele>
        <time>2024-10-21T08:08:33Z</time>
      </trkpt>
      <trkpt lat="45.86107" lon="1.19391">
        <ele>362.4</ele>
        <time>2024-10-21T08:08:34Z</time>
      </trkpt>
      <trkpt lat="45.86108" lon="1.19391">
        <ele>362.4</ele>
        <time>2024-10-21T08:08:35Z</time>
      </trkpt>
      <trkpt lat="45.86109" lon="1.1939">
        <ele>362.4</ele>
        <time>2024-10-21T08:08:36Z</time>
      </trkpt>
      <trkpt lat="45.86111" lon="1.19388">
        <ele>362.4</ele>
        <time>2024-10-21T08:08:37Z</time>
      </trkpt>
      <trkpt lat="45.86112" lon="1.19388">
        <ele>362.4</ele>
        <time>2024-10-21T08:08:38Z</time>
      </trkpt>
      <trkpt lat="45.86112" lon="1.19387">
        <ele>362.4</ele>
        <time>2024-10-21T08:08:39Z</time>
      </trkpt>
      <trkpt lat="45.86115" lon="1.19385">
        <ele>362.4</ele>
        <time>2024-10-21T08:08:40Z</time>
      </trkpt>
      <trkpt lat="45.86115" lon="1.19384">
        <ele>362.4</ele>
        <time>2024-10-21T08:08:41Z</time>
      </trkpt>
      <trkpt lat="45.86116" lon="1.19384">
        <ele>362.4</ele>
        <time>2024-10-21T08:08:42Z</time>
      </trkpt>
      <trkpt lat="45.86117" lon="1.19382">
        <ele>362.4</ele>
        <time>2024-10-21T08:08:43Z</time>
      </trkpt>
      <trkpt lat="45.86118" lon="1.19381">
        <ele>362.3</ele>
        <time>2024-10-21T08:08:44Z</time>
      </trkpt>
      <trkpt lat="45.86119" lon="1.19381">
        <ele>362.3</ele>
        <time>2024-10-21T08:08:45Z</time>
      </trkpt>
      <trkpt lat="45.8612" lon="1.1938">
        <ele>362.3</ele>
        <time>2024-10-21T08:08:46Z</time>
      </trkpt>
      <trkpt lat="45.8612" lon="1.19377">
        <ele>362.3</ele>
        <time>2024-10-21T08:08:47Z</time>
      </trkpt>
      <trkpt lat="45.86121" lon="1.19375">
        <ele>362.3</ele>
        <time>2024-10-21T08:08:48Z</time>
      </trkpt>
      <trkpt lat="45.86121" lon="1.19373">
        <ele>362.3</ele>
        <time>2024-10-21T08:08:49Z</time>
      </trkpt>
      <trkpt lat="45.86123" lon="1.19369">
        <ele>362.3</ele>
        <time>2024-10-21T08:08:50Z</time>
      </trkpt>
      <trkpt lat="45.86123" lon="1.19369">
        <ele>362.3</ele>
        <time>2024-10-21T08:08:51Z</time>
      </trkpt>
      <trkpt lat="45.86125" lon="1.19366">
        <ele>362.3</ele>
        <time>2024-10-21T08:08:52Z</time>
      </trkpt>
      <trkpt lat="45.86126" lon="1.19365">
        <ele>362.3</ele>
        <time>2024-10-21T08:08:53Z</time>
      </trkpt>
      <trkpt lat="45.86125" lon="1.19361">
        <ele>362.3</ele>
        <time>2024-10-21T08:08:54Z</time>
      </trkpt>
      <trkpt lat="45.86124" lon="1.19357">
        <ele>362.3</ele>
        <time>2024-10-21T08:08:55Z</time>
      </trkpt>
      <trkpt lat="45.86124" lon="1.19356">
        <ele>362.3</ele>
        <time>2024-10-21T08:08:56Z</time>
      </trkpt>
      <trkpt lat="45.86124" lon="1.19354">
        <ele>362.3</ele>
        <time>2024-10-21T08:08:57Z</time>
      </trkpt>
      <trkpt lat="45.86123" lon="1.19351">
        <ele>362.3</ele>
        <time>2024-10-21T08:08:58Z</time>
      </trkpt>
      <trkpt lat="45.86123" lon="1.19351">
        <ele>362.3</ele>
        <time>2024-10-21T08:08:59Z</time>
      </trkpt>
      <trkpt lat="45.86122" lon="1.1935">
        <ele>362.3</ele>
        <time>2024-10-21T08:09:00Z</time>
      </trkpt>
      <trkpt lat="45.86123" lon="1.19348">
        <ele>362.3</ele>
        <time>2024-10-21T08:09:01Z</time>
      </trkpt>
      <trkpt lat="45.86124" lon="1.19349">
        <ele>362.3</ele>
        <time>2024-10-21T08:09:02Z</time>
      </trkpt>
      <trkpt lat="45.86125" lon="1.1935">
        <ele>362.3</ele>
        <time>2024-10-21T08:09:03Z</time>
      </trkpt>
      <trkpt lat="45.86125" lon="1.19349">
        <ele>362.3</ele>
        <time>2024-10-21T08:09:04Z</time>
      </trkpt>
      <trkpt lat="45.86125" lon="1.19348">
        <ele>362.3</ele>
        <time>2024-10-21T08:09:05Z</time>
      </trkpt>
      <trkpt lat="45.86125" lon="1.19348">
        <ele>362.3</ele>
        <time>2024-10-21T08:09:06Z</time>
      </trkpt>
      <trkpt lat="45.86125" lon="1.19347">
        <ele>362.3</ele>
        <time>2024-10-21T08:09:07Z</time>
      </trkpt>
      <trkpt lat="45.86126" lon="1.19345">
        <ele>362.3</ele>
        <time>2024-10-21T08:09:08Z</time>
      </trkpt>
      <trkpt lat="45.86126" lon="1.19345">
        <ele>362.3</ele>
        <time>2024-10-21T08:09:09Z</time>
      </trkpt>
      <trkpt lat="45.86127" lon="1.19344">
        <ele>362.3</ele>
        <time>2024-10-21T08:09:10Z</time>
      </trkpt>
      <trkpt lat="45.86125" lon="1.19337">
        <ele>362.3</ele>
        <time>2024-10-21T08:09:11Z</time>
      </trkpt>
      <trkpt lat="45.86125" lon="1.19335">
        <ele>362.3</ele>
        <time>2024-10-21T08:09:12Z</time>
      </trkpt>
      <trkpt lat="45.86124" lon="1.19333">
        <ele>362.3</ele>
        <time>2024-10-21T08:09:13Z</time>
      </trkpt>
      <trkpt lat="45.86123" lon="1.19331">
        <ele>362.4</ele>
        <time>2024-10-21T08:09:14Z</time>
      </trkpt>
      <trkpt lat="45.86123" lon="1.19331">
        <ele>362.4</ele>
        <time>2024-10-21T08:09:15Z</time>
      </trkpt>
      <trkpt lat="45.86122" lon="1.19332">
        <ele>362.4</ele>
        <time>2024-10-21T08:09:16Z</time>
      </trkpt>
      <trkpt lat="45.86121" lon="1.19332">
        <ele>362.4</ele>
        <time>2024-10-21T08:09:17Z</time>
      </trkpt>
      <trkpt lat="45.8612" lon="1.19333">
        <ele>362.4</ele>
        <time>2024-10-21T08:09:18Z</time>
      </trkpt>
      <trkpt lat="45.86119" lon="1.19333">
        <ele>362.4</ele>
        <time>2024-10-21T08:09:19Z</time>
      </trkpt>
      <trkpt lat="45.86119" lon="1.19332">
        <ele>362.4</ele>
        <time>2024-10-21T08:09:20Z</time>
      </trkpt>
      <trkpt lat="45.86119" lon="1.1933">
        <ele>362.4</ele>
        <time>2024-10-21T08:09:21Z</time>
      </trkpt>
      <trkpt lat="45.86119" lon="1.19329">
        <ele>362.4</ele>
        <time>2024-10-21T08:09:22Z</time>
      </trkpt>
      <trkpt lat="45.86119" lon="1.19329">
        <ele>362.4</ele>
        <time>2024-10-21T08:09:23Z</time>
      </trkpt>
      <trkpt lat="45.86119" lon="1.19329">
        <ele>362.4</ele>
        <time>2024-10-21T08:09:24Z</time>
      </trkpt>
      <trkpt lat="45.8612" lon="1.1933">
        <ele>362.5</ele>
        <time>2024-10-21T08:09:25Z</time>
      </trkpt>
      <trkpt lat="45.8612" lon="1.19331">
        <ele>362.5</ele>
        <time>2024-10-21T08:09:26Z</time>
      </trkpt>
      <trkpt lat="45.8612" lon="1.19331">
        <ele>362.5</ele>
        <time>2024-10-21T08:09:27Z</time>
      </trkpt>
      <trkpt lat="45.8612" lon="1.19332">
        <ele>362.5</ele>
        <time>2024-10-21T08:09:28Z</time>
      </trkpt>
      <trkpt lat="45.8612" lon="1.19332">
        <ele>362.5</ele>
        <time>2024-10-21T08:09:29Z</time>
      </trkpt>
      <trkpt lat="45.8612" lon="1.19331">
        <ele>362.5</ele>
        <time>2024-10-21T08:09:30Z</time>
      </trkpt>
      <trkpt lat="45.8612" lon="1.19331">
        <ele>362.5</ele>
        <time>2024-10-21T08:09:31Z</time>
      </trkpt>
      <trkpt lat="45.8612" lon="1.1933">
        <ele>362.5</ele>
        <time>2024-10-21T08:09:32Z</time>
      </trkpt>
      <trkpt lat="45.8612" lon="1.19328">
        <ele>362.5</ele>
        <time>2024-10-21T08:09:33Z</time>
      </trkpt>
      <trkpt lat="45.8612" lon="1.19325">
        <ele>362.5</ele>
        <time>2024-10-21T08:09:34Z</time>
      </trkpt>
      <trkpt lat="45.8612" lon="1.19323">
        <ele>362.5</ele>
        <time>2024-10-21T08:09:35Z</time>
      </trkpt>
      <trkpt lat="45.8612" lon="1.19321">
        <ele>362.6</ele>
        <time>2024-10-21T08:09:36Z</time>
      </trkpt>
      <trkpt lat="45.8612" lon="1.19319">
        <ele>362.6</ele>
        <time>2024-10-21T08:09:37Z</time>
      </trkpt>
      <trkpt lat="45.8612" lon="1.19317">
        <ele>362.6</ele>
        <time>2024-10-21T08:09:38Z</time>
      </trkpt>
      <trkpt lat="45.8612" lon="1.19315">
        <ele>362.6</ele>
        <time>2024-10-21T08:09:39Z</time>
      </trkpt>
      <trkpt lat="45.8612" lon="1.19312">
        <ele>362.7</ele>
        <time>2024-10-21T08:09:40Z</time>
      </trkpt>
      <trkpt lat="45.8612" lon="1.19311">
        <ele>362.7</ele>
        <time>2024-10-21T08:09:41Z</time>
      </trkpt>
      <trkpt lat="45.86121" lon="1.19309">
        <ele>362.7</ele>
        <time>2024-10-21T08:09:42Z</time>
      </trkpt>
      <trkpt lat="45.86122" lon="1.19308">
        <ele>362.7</ele>
        <time>2024-10-21T08:09:43Z</time>
      </trkpt>
      <trkpt lat="45.86122" lon="1.19308">
        <ele>362.7</ele>
        <time>2024-10-21T08:09:44Z</time>
      </trkpt>
      <trkpt lat="45.86122" lon="1.19307">
        <ele>362.8</ele>
        <time>2024-10-21T08:09:45Z</time>
      </trkpt>
      <trkpt lat="45.86123" lon="1.19305">
        <ele>362.8</ele>
        <time>2024-10-21T08:09:46Z</time>
      </trkpt>
      <trkpt lat="45.86123" lon="1.19303">
        <ele>362.8</ele>
        <time>2024-10-21T08:09:47Z</time>
      </trkpt>
      <trkpt lat="45.86123" lon="1.193">
        <ele>362.9</ele>
        <time>2024-10-21T08:09:48Z</time>
      </trkpt>
      <trkpt lat="45.86124" lon="1.19298">
        <ele>362.9</ele>
        <time>2024-10-21T08:09:49Z</time>
      </trkpt>
      <trkpt lat="45.86124" lon="1.19296">
        <ele>362.9</ele>
        <time>2024-10-21T08:09:50Z</time>
      </trkpt>
      <trkpt lat="45.86124" lon="1.19295">
        <ele>362.9</ele>
        <time>2024-10-21T08:09:51Z</time>
      </trkpt>
      <trkpt lat="45.86124" lon="1.19295">
        <ele>363</ele>
        <time>2024-10-21T08:09:52Z</time>
      </trkpt>
      <trkpt lat="45.86125" lon="1.19294">
        <ele>363</ele>
        <time>2024-10-21T08:09:53Z</time>
      </trkpt>
      <trkpt lat="45.86125" lon="1.19294">
        <ele>363</ele>
        <time>2024-10-21T08:09:54Z</time>
      </trkpt>
      <trkpt lat="45.86125" lon="1.19293">
        <ele>363</ele>
        <time>2024-10-21T08:09:55Z</time>
      </trkpt>
      <trkpt lat="45.86125" lon="1.19293">
        <ele>363</ele>
        <time>2024-10-21T08:09:56Z</time>
      </trkpt>
      <trkpt lat="45.86125" lon="1.19292">
        <ele>363</ele>
        <time>2024-10-21T08:09:57Z</time>
      </trkpt>
      <trkpt lat="45.86126" lon="1.19292">
        <ele>363</ele>
        <time>2024-10-21T08:09:58Z</time>
      </trkpt>
      <trkpt lat="45.86126" lon="1.19291">
        <ele>363</ele>
        <time>2024-10-21T08:09:59Z</time>
      </trkpt>
      <trkpt lat="45.86126" lon="1.1929">
        <ele>363</ele>
        <time>2024-10-21T08:10:00Z</time>
      </trkpt>
      <trkpt lat="45.86126" lon="1.1929">
        <ele>363.1</ele>
        <time>2024-10-21T08:10:01Z</time>
      </trkpt>
      <trkpt lat="45.86126" lon="1.19289">
        <ele>363.1</ele>
        <time>2024-10-21T08:10:02Z</time>
      </trkpt>
      <trkpt lat="45.86128" lon="1.19285">
        <ele>363.1</ele>
        <time>2024-10-21T08:10:03Z</time>
      </trkpt>
      <trkpt lat="45.86129" lon="1.19284">
        <ele>363.2</ele>
        <time>2024-10-21T08:10:04Z</time>
      </trkpt>
      <trkpt lat="45.86129" lon="1.19282">
        <ele>363.2</ele>
        <time>2024-10-21T08:10:05Z</time>
      </trkpt>
      <trkpt lat="45.8613" lon="1.1928">
        <ele>363.3</ele>
        <time>2024-10-21T08:10:06Z</time>
      </trkpt>
      <trkpt lat="45.86131" lon="1.19277">
        <ele>363.3</ele>
        <time>2024-10-21T08:10:07Z</time>
      </trkpt>
      <trkpt lat="45.86131" lon="1.19275">
        <ele>363.4</ele>
        <time>2024-10-21T08:10:08Z</time>
      </trkpt>
      <trkpt lat="45.8613" lon="1.19271">
        <ele>363.5</ele>
        <time>2024-10-21T08:10:09Z</time>
      </trkpt>
      <trkpt lat="45.8613" lon="1.19266">
        <ele>363.6</ele>
        <time>2024-10-21T08:10:10Z</time>
      </trkpt>
      <trkpt lat="45.8613" lon="1.19264">
        <ele>363.7</ele>
        <time>2024-10-21T08:10:11Z</time>
      </trkpt>
      <trkpt lat="45.86129" lon="1.19258">
        <ele>363.9</ele>
        <time>2024-10-21T08:10:12Z</time>
      </trkpt>
      <trkpt lat="45.8613" lon="1.19256">
        <ele>364</ele>
        <time>2024-10-21T08:10:13Z</time>
      </trkpt>
      <trkpt lat="45.86131" lon="1.19254">
        <ele>364</ele>
        <time>2024-10-21T08:10:14Z</time>
      </trkpt>
      <trkpt lat="45.86132" lon="1.19252">
        <ele>364.1</ele>
        <time>2024-10-21T08:10:15Z</time>
      </trkpt>
      <trkpt lat="45.86133" lon="1.19251">
        <ele>364.2</ele>
        <time>2024-10-21T08:10:16Z</time>
      </trkpt>
      <trkpt lat="45.86134" lon="1.19249">
        <ele>364.3</ele>
        <time>2024-10-21T08:10:17Z</time>
      </trkpt>
      <trkpt lat="45.86135" lon="1.19248">
        <ele>364.4</ele>
        <time>2024-10-21T08:10:18Z</time>
      </trkpt>
      <trkpt lat="45.86137" lon="1.19247">
        <ele>364.5</ele>
        <time>2024-10-21T08:10:19Z</time>
      </trkpt>
      <trkpt lat="45.86138" lon="1.19246">
        <ele>364.6</ele>
        <time>2024-10-21T08:10:20Z</time>
      </trkpt>
      <trkpt lat="45.86139" lon="1.19245">
        <ele>364.7</ele>
        <time>2024-10-21T08:10:21Z</time>
      </trkpt>
      <trkpt lat="45.8614" lon="1.19244">
        <ele>364.8</ele>
        <time>2024-10-21T08:10:22Z</time>
      </trkpt>
      <trkpt lat="45.86143" lon="1.19243">
        <ele>364.9</ele>
        <time>2024-10-21T08:10:23Z</time>
      </trkpt>
      <trkpt lat="45.86143" lon="1.19243">
        <ele>365</ele>
        <time>2024-10-21T08:10:24Z</time>
      </trkpt>
      <trkpt lat="45.86144" lon="1.19243">
        <ele>365</ele>
        <time>2024-10-21T08:10:25Z</time>
      </trkpt>
      <trkpt lat="45.86145" lon="1.19243">
        <ele>365.1</ele>
        <time>2024-10-21T08:10:26Z</time>
      </trkpt>
      <trkpt lat="45.86146" lon="1.19243">
        <ele>365.2</ele>
        <time>2024-10-21T08:10:27Z</time>
      </trkpt>
      <trkpt lat="45.86148" lon="1.19242">
        <ele>365.3</ele>
        <time>2024-10-21T08:10:28Z</time>
      </trkpt>
      <trkpt lat="45.86149" lon="1.19242">
        <ele>365.4</ele>
        <time>2024-10-21T08:10:29Z</time>
      </trkpt>
      <trkpt lat="45.86149" lon="1.19242">
        <ele>365.4</ele>
        <time>2024-10-21T08:10:30Z</time>
      </trkpt>
      <trkpt lat="45.86149" lon="1.19241">
        <ele>365.4</ele>
        <time>2024-10-21T08:10:31Z</time>
      </trkpt>
      <trkpt lat="45.86149" lon="1.19241">
        <ele>365.5</ele>
        <time>2024-10-21T08:10:32Z</time>
      </trkpt>
      <trkpt lat="45.8615" lon="1.1924">
        <ele>365.5</ele>
        <time>2024-10-21T08:10:33Z</time>
      </trkpt>
      <trkpt lat="45.86151" lon="1.19239">
        <ele>365.6</ele>
        <time>2024-10-21T08:10:34Z</time>
      </trkpt>
      <trkpt lat="45.86151" lon="1.19237">
        <ele>365.7</ele>
        <time>2024-10-21T08:10:35Z</time>
      </trkpt>
      <trkpt lat="45.86152" lon="1.19235">
        <ele>365.8</ele>
        <time>2024-10-21T08:10:36Z</time>
      </trkpt>
      <trkpt lat="45.86152" lon="1.1923">
        <ele>366</ele>
        <time>2024-10-21T08:10:37Z</time>
      </trkpt>
      <trkpt lat="45.86152" lon="1.19229">
        <ele>366.1</ele>
        <time>2024-10-21T08:10:38Z</time>
      </trkpt>
      <trkpt lat="45.86152" lon="1.19226">
        <ele>366.2</ele>
        <time>2024-10-21T08:10:39Z</time>
      </trkpt>
      <trkpt lat="45.86154" lon="1.19223">
        <ele>366.3</ele>
        <time>2024-10-21T08:10:40Z</time>
      </trkpt>
      <trkpt lat="45.86155" lon="1.19221">
        <ele>366.4</ele>
        <time>2024-10-21T08:10:41Z</time>
      </trkpt>
      <trkpt lat="45.86155" lon="1.1922">
        <ele>366.5</ele>
        <time>2024-10-21T08:10:43Z</time>
      </trkpt>
      <trkpt lat="45.86156" lon="1.19218">
        <ele>366.5</ele>
        <time>2024-10-21T08:10:44Z</time>
      </trkpt>
      <trkpt lat="45.86156" lon="1.19217">
        <ele>366.6</ele>
        <time>2024-10-21T08:10:45Z</time>
      </trkpt>
      <trkpt lat="45.86157" lon="1.19216">
        <ele>366.6</ele>
        <time>2024-10-21T08:10:46Z</time>
      </trkpt>
      <trkpt lat="45.86158" lon="1.19215">
        <ele>366.7</ele>
        <time>2024-10-21T08:10:47Z</time>
      </trkpt>
      <trkpt lat="45.86158" lon="1.19214">
        <ele>366.7</ele>
        <time>2024-10-21T08:10:48Z</time>
      </trkpt>
      <trkpt lat="45.86159" lon="1.19213">
        <ele>366.8</ele>
        <time>2024-10-21T08:10:49Z</time>
      </trkpt>
      <trkpt lat="45.86159" lon="1.19211">
        <ele>366.8</ele>
        <time>2024-10-21T08:10:50Z</time>
      </trkpt>
      <trkpt lat="45.8616" lon="1.1921">
        <ele>366.9</ele>
        <time>2024-10-21T08:10:51Z</time>
      </trkpt>
      <trkpt lat="45.8616" lon="1.19209">
        <ele>366.9</ele>
        <time>2024-10-21T08:10:52Z</time>
      </trkpt>
      <trkpt lat="45.86161" lon="1.19208">
        <ele>367</ele>
        <time>2024-10-21T08:10:53Z</time>
      </trkpt>
      <trkpt lat="45.86162" lon="1.19208">
        <ele>367</ele>
        <time>2024-10-21T08:10:54Z</time>
      </trkpt>
      <trkpt lat="45.86163" lon="1.19208">
        <ele>367.1</ele>
        <time>2024-10-21T08:10:55Z</time>
      </trkpt>
      <trkpt lat="45.86164" lon="1.19208">
        <ele>367.1</ele>
        <time>2024-10-21T08:10:56Z</time>
      </trkpt>
      <trkpt lat="45.86165" lon="1.19208">
        <ele>367.2</ele>
        <time>2024-10-21T08:10:57Z</time>
      </trkpt>
      <trkpt lat="45.86166" lon="1.19207">
        <ele>367.2</ele>
        <time>2024-10-21T08:10:58Z</time>
      </trkpt>
      <trkpt lat="45.86166" lon="1.19206">
        <ele>367.2</ele>
        <time>2024-10-21T08:10:59Z</time>
      </trkpt>
      <trkpt lat="45.86167" lon="1.19205">
        <ele>367.3</ele>
        <time>2024-10-21T08:11:00Z</time>
      </trkpt>
      <trkpt lat="45.86168" lon="1.19204">
        <ele>367.3</ele>
        <time>2024-10-21T08:11:01Z</time>
      </trkpt>
      <trkpt lat="45.86169" lon="1.19201">
        <ele>367.4</ele>
        <time>2024-10-21T08:11:02Z</time>
      </trkpt>
      <trkpt lat="45.8617" lon="1.19199">
        <ele>367.5</ele>
        <time>2024-10-21T08:11:03Z</time>
      </trkpt>
      <trkpt lat="45.86171" lon="1.19198">
        <ele>367.6</ele>
        <time>2024-10-21T08:11:04Z</time>
      </trkpt>
      <trkpt lat="45.86171" lon="1.19198">
        <ele>367.6</ele>
        <time>2024-10-21T08:11:05Z</time>
      </trkpt>
      <trkpt lat="45.86171" lon="1.19196">
        <ele>367.6</ele>
        <time>2024-10-21T08:11:06Z</time>
      </trkpt>
      <trkpt lat="45.86171" lon="1.19193">
        <ele>367.7</ele>
        <time>2024-10-21T08:11:07Z</time>
      </trkpt>
      <trkpt lat="45.86172" lon="1.19191">
        <ele>367.7</ele>
        <time>2024-10-21T08:11:08Z</time>
      </trkpt>
      <trkpt lat="45.86173" lon="1.19189">
        <ele>367.8</ele>
        <time>2024-10-21T08:11:09Z</time>
      </trkpt>
      <trkpt lat="45.86173" lon="1.19187">
        <ele>367.8</ele>
        <time>2024-10-21T08:11:10Z</time>
      </trkpt>
      <trkpt lat="45.86174" lon="1.19183">
        <ele>367.9</ele>
        <time>2024-10-21T08:11:11Z</time>
      </trkpt>
      <trkpt lat="45.86175" lon="1.1918">
        <ele>368</ele>
        <time>2024-10-21T08:11:12Z</time>
      </trkpt>
      <trkpt lat="45.86175" lon="1.1918">
        <ele>368</ele>
        <time>2024-10-21T08:11:13Z</time>
      </trkpt>
      <trkpt lat="45.86176" lon="1.19178">
        <ele>368</ele>
        <time>2024-10-21T08:11:14Z</time>
      </trkpt>
      <trkpt lat="45.86176" lon="1.19176">
        <ele>368.1</ele>
        <time>2024-10-21T08:11:15Z</time>
      </trkpt>
      <trkpt lat="45.86177" lon="1.19174">
        <ele>368.1</ele>
        <time>2024-10-21T08:11:16Z</time>
      </trkpt>
      <trkpt lat="45.86178" lon="1.19172">
        <ele>368.2</ele>
        <time>2024-10-21T08:11:17Z</time>
      </trkpt>
      <trkpt lat="45.86179" lon="1.19171">
        <ele>368.2</ele>
        <time>2024-10-21T08:11:18Z</time>
      </trkpt>
      <trkpt lat="45.86179" lon="1.1917">
        <ele>368.2</ele>
        <time>2024-10-21T08:11:19Z</time>
      </trkpt>
      <trkpt lat="45.86181" lon="1.19168">
        <ele>368.3</ele>
        <time>2024-10-21T08:11:20Z</time>
      </trkpt>
      <trkpt lat="45.86182" lon="1.19166">
        <ele>368.3</ele>
        <time>2024-10-21T08:11:21Z</time>
      </trkpt>
      <trkpt lat="45.86183" lon="1.19165">
        <ele>368.4</ele>
        <time>2024-10-21T08:11:22Z</time>
      </trkpt>
      <trkpt lat="45.86184" lon="1.19162">
        <ele>368.4</ele>
        <time>2024-10-21T08:11:23Z</time>
      </trkpt>
      <trkpt lat="45.86185" lon="1.1916">
        <ele>368.5</ele>
        <time>2024-10-21T08:11:24Z</time>
      </trkpt>
      <trkpt lat="45.86186" lon="1.19158">
        <ele>368.5</ele>
        <time>2024-10-21T08:11:25Z</time>
      </trkpt>
      <trkpt lat="45.86187" lon="1.19157">
        <ele>368.5</ele>
        <time>2024-10-21T08:11:26Z</time>
      </trkpt>
      <trkpt lat="45.86188" lon="1.19154">
        <ele>368.6</ele>
        <time>2024-10-21T08:11:27Z</time>
      </trkpt>
      <trkpt lat="45.86189" lon="1.19152">
        <ele>368.6</ele>
        <time>2024-10-21T08:11:28Z</time>
      </trkpt>
      <trkpt lat="45.8619" lon="1.19149">
        <ele>368.7</ele>
        <time>2024-10-21T08:11:29Z</time>
      </trkpt>
      <trkpt lat="45.86191" lon="1.19147">
        <ele>368.7</ele>
        <time>2024-10-21T08:11:30Z</time>
      </trkpt>
      <trkpt lat="45.86192" lon="1.19145">
        <ele>368.7</ele>
        <time>2024-10-21T08:11:31Z</time>
      </trkpt>
      <trkpt lat="45.86193" lon="1.19142">
        <ele>368.8</ele>
        <time>2024-10-21T08:11:33Z</time>
      </trkpt>
      <trkpt lat="45.86193" lon="1.1914">
        <ele>368.8</ele>
        <time>2024-10-21T08:11:34Z</time>
      </trkpt>
      <trkpt lat="45.86194" lon="1.19137">
        <ele>368.8</ele>
        <time>2024-10-21T08:11:35Z</time>
      </trkpt>
      <trkpt lat="45.86195" lon="1.19135">
        <ele>368.8</ele>
        <time>2024-10-21T08:11:36Z</time>
      </trkpt>
      <trkpt lat="45.86196" lon="1.19133">
        <ele>368.9</ele>
        <time>2024-10-21T08:11:37Z</time>
      </trkpt>
      <trkpt lat="45.86197" lon="1.19131">
        <ele>368.9</ele>
        <time>2024-10-21T08:11:38Z</time>
      </trkpt>
      <trkpt lat="45.86199" lon="1.19128">
        <ele>368.9</ele>
        <time>2024-10-21T08:11:39Z</time>
      </trkpt>
      <trkpt lat="45.86201" lon="1.19125">
        <ele>369</ele>
        <time>2024-10-21T08:11:41Z</time>
      </trkpt>
      <trkpt lat="45.86202" lon="1.19124">
        <ele>369</ele>
        <time>2024-10-21T08:11:42Z</time>
      </trkpt>
      <trkpt lat="45.86203" lon="1.19123">
        <ele>369</ele>
        <time>2024-10-21T08:11:43Z</time>
      </trkpt>
      <trkpt lat="45.86204" lon="1.1912">
        <ele>369</ele>
        <time>2024-10-21T08:11:44Z</time>
      </trkpt>
      <trkpt lat="45.86204" lon="1.19119">
        <ele>369</ele>
        <time>2024-10-21T08:11:45Z</time>
      </trkpt>
      <trkpt lat="45.86204" lon="1.19118">
        <ele>369</ele>
        <time>2024-10-21T08:11:46Z</time>
      </trkpt>
      <trkpt lat="45.86205" lon="1.19115">
        <ele>369</ele>
        <time>2024-10-21T08:11:47Z</time>
      </trkpt>
      <trkpt lat="45.86205" lon="1.19114">
        <ele>369.1</ele>
        <time>2024-10-21T08:11:48Z</time>
      </trkpt>
      <trkpt lat="45.86206" lon="1.19113">
        <ele>369.1</ele>
        <time>2024-10-21T08:11:49Z</time>
      </trkpt>
      <trkpt lat="45.86207" lon="1.19112">
        <ele>369.1</ele>
        <time>2024-10-21T08:11:50Z</time>
      </trkpt>
      <trkpt lat="45.86208" lon="1.1911">
        <ele>369.1</ele>
        <time>2024-10-21T08:11:51Z</time>
      </trkpt>
      <trkpt lat="45.86208" lon="1.19109">
        <ele>369.1</ele>
        <time>2024-10-21T08:11:52Z</time>
      </trkpt>
      <trkpt lat="45.86209" lon="1.19108">
        <ele>369.1</ele>
        <time>2024-10-21T08:11:53Z</time>
      </trkpt>
      <trkpt lat="45.86209" lon="1.19107">
        <ele>369.1</ele>
        <time>2024-10-21T08:11:54Z</time>
      </trkpt>
      <trkpt lat="45.8621" lon="1.19106">
        <ele>369.1</ele>
        <time>2024-10-21T08:11:55Z</time>
      </trkpt>
      <trkpt lat="45.86211" lon="1.19104">
        <ele>369.1</ele>
        <time>2024-10-21T08:11:56Z</time>
      </trkpt>
      <trkpt lat="45.86212" lon="1.19103">
        <ele>369.2</ele>
        <time>2024-10-21T08:11:57Z</time>
      </trkpt>
      <trkpt lat="45.86212" lon="1.19102">
        <ele>369.2</ele>
        <time>2024-10-21T08:11:58Z</time>
      </trkpt>
      <trkpt lat="45.86213" lon="1.19099">
        <ele>369.2</ele>
        <time>2024-10-21T08:11:59Z</time>
      </trkpt>
      <trkpt lat="45.86213" lon="1.19098">
        <ele>369.2</ele>
        <time>2024-10-21T08:12:00Z</time>
      </trkpt>
      <trkpt lat="45.86213" lon="1.19097">
        <ele>369.2</ele>
        <time>2024-10-21T08:12:01Z</time>
      </trkpt>
      <trkpt lat="45.86214" lon="1.19095">
        <ele>369.2</ele>
        <time>2024-10-21T08:12:02Z</time>
      </trkpt>
      <trkpt lat="45.86215" lon="1.19093">
        <ele>369.3</ele>
        <time>2024-10-21T08:12:03Z</time>
      </trkpt>
      <trkpt lat="45.86215" lon="1.19092">
        <ele>369.3</ele>
        <time>2024-10-21T08:12:04Z</time>
      </trkpt>
      <trkpt lat="45.86216" lon="1.19091">
        <ele>369.3</ele>
        <time>2024-10-21T08:12:05Z</time>
      </trkpt>
      <trkpt lat="45.86217" lon="1.1909">
        <ele>369.3</ele>
        <time>2024-10-21T08:12:06Z</time>
      </trkpt>
      <trkpt lat="45.8622" lon="1.19088">
        <ele>369.4</ele>
        <time>2024-10-21T08:12:07Z</time>
      </trkpt>
      <trkpt lat="45.86222" lon="1.19087">
        <ele>369.4</ele>
        <time>2024-10-21T08:12:09Z</time>
      </trkpt>
      <trkpt lat="45.86224" lon="1.19087">
        <ele>369.5</ele>
        <time>2024-10-21T08:12:11Z</time>
      </trkpt>
      <trkpt lat="45.86225" lon="1.19087">
        <ele>369.5</ele>
        <time>2024-10-21T08:12:12Z</time>
      </trkpt>
      <trkpt lat="45.86227" lon="1.19087">
        <ele>369.6</ele>
        <time>2024-10-21T08:12:13Z</time>
      </trkpt>
      <trkpt lat="45.86228" lon="1.19087">
        <ele>369.6</ele>
        <time>2024-10-21T08:12:14Z</time>
      </trkpt>
      <trkpt lat="45.86229" lon="1.19086">
        <ele>369.6</ele>
        <time>2024-10-21T08:12:15Z</time>
      </trkpt>
      <trkpt lat="45.8623" lon="1.19085">
        <ele>369.7</ele>
        <time>2024-10-21T08:12:16Z</time>
      </trkpt>
      <trkpt lat="45.86231" lon="1.19084">
        <ele>369.7</ele>
        <time>2024-10-21T08:12:17Z</time>
      </trkpt>
      <trkpt lat="45.86232" lon="1.19083">
        <ele>369.8</ele>
        <time>2024-10-21T08:12:18Z</time>
      </trkpt>
      <trkpt lat="45.86232" lon="1.19082">
        <ele>369.8</ele>
        <time>2024-10-21T08:12:19Z</time>
      </trkpt>
      <trkpt lat="45.86233" lon="1.19079">
        <ele>369.9</ele>
        <time>2024-10-21T08:12:20Z</time>
      </trkpt>
      <trkpt lat="45.86233" lon="1.19078">
        <ele>369.9</ele>
        <time>2024-10-21T08:12:21Z</time>
      </trkpt>
      <trkpt lat="45.86232" lon="1.19077">
        <ele>370</ele>
        <time>2024-10-21T08:12:22Z</time>
      </trkpt>
      <trkpt lat="45.86233" lon="1.19075">
        <ele>370</ele>
        <time>2024-10-21T08:12:23Z</time>
      </trkpt>
      <trkpt lat="45.86233" lon="1.19073">
        <ele>370.1</ele>
        <time>2024-10-21T08:12:24Z</time>
      </trkpt>
      <trkpt lat="45.86233" lon="1.19072">
        <ele>370.2</ele>
        <time>2024-10-21T08:12:25Z</time>
      </trkpt>
      <trkpt lat="45.86233" lon="1.1907">
        <ele>370.2</ele>
        <time>2024-10-21T08:12:26Z</time>
      </trkpt>
      <trkpt lat="45.86233" lon="1.19069">
        <ele>370.3</ele>
        <time>2024-10-21T08:12:27Z</time>
      </trkpt>
      <trkpt lat="45.86234" lon="1.19068">
        <ele>370.3</ele>
        <time>2024-10-21T08:12:28Z</time>
      </trkpt>
      <trkpt lat="45.86234" lon="1.19066">
        <ele>370.4</ele>
        <time>2024-10-21T08:12:29Z</time>
      </trkpt>
      <trkpt lat="45.86234" lon="1.19065">
        <ele>370.4</ele>
        <time>2024-10-21T08:12:30Z</time>
      </trkpt>
      <trkpt lat="45.86235" lon="1.19063">
        <ele>370.5</ele>
        <time>2024-10-21T08:12:31Z</time>
      </trkpt>
      <trkpt lat="45.86235" lon="1.19062">
        <ele>370.6</ele>
        <time>2024-10-21T08:12:33Z</time>
      </trkpt>
      <trkpt lat="45.86236" lon="1.19061">
        <ele>370.6</ele>
        <time>2024-10-21T08:12:34Z</time>
      </trkpt>
      <trkpt lat="45.86236" lon="1.1906">
        <ele>370.6</ele>
        <time>2024-10-21T08:12:35Z</time>
      </trkpt>
      <trkpt lat="45.86237" lon="1.19059">
        <ele>370.7</ele>
        <time>2024-10-21T08:12:36Z</time>
      </trkpt>
      <trkpt lat="45.86239" lon="1.19057">
        <ele>370.8</ele>
        <time>2024-10-21T08:12:37Z</time>
      </trkpt>
      <trkpt lat="45.8624" lon="1.19056">
        <ele>370.9</ele>
        <time>2024-10-21T08:12:39Z</time>
      </trkpt>
      <trkpt lat="45.86242" lon="1.19054">
        <ele>371</ele>
        <time>2024-10-21T08:12:40Z</time>
      </trkpt>
      <trkpt lat="45.86242" lon="1.19054">
        <ele>371.1</ele>
        <time>2024-10-21T08:12:41Z</time>
      </trkpt>
      <trkpt lat="45.86243" lon="1.19053">
        <ele>371.1</ele>
        <time>2024-10-21T08:12:42Z</time>
      </trkpt>
      <trkpt lat="45.86246" lon="1.19052">
        <ele>371.3</ele>
        <time>2024-10-21T08:12:43Z</time>
      </trkpt>
      <trkpt lat="45.86247" lon="1.19051">
        <ele>371.4</ele>
        <time>2024-10-21T08:12:44Z</time>
      </trkpt>
      <trkpt lat="45.86247" lon="1.19051">
        <ele>371.4</ele>
        <time>2024-10-21T08:12:45Z</time>
      </trkpt>
      <trkpt lat="45.86248" lon="1.19051">
        <ele>371.4</ele>
        <time>2024-10-21T08:12:46Z</time>
      </trkpt>
      <trkpt lat="45.86249" lon="1.1905">
        <ele>371.5</ele>
        <time>2024-10-21T08:12:47Z</time>
      </trkpt>
      <trkpt lat="45.8625" lon="1.1905">
        <ele>371.5</ele>
        <time>2024-10-21T08:12:48Z</time>
      </trkpt>
      <trkpt lat="45.8625" lon="1.1905">
        <ele>371.6</ele>
        <time>2024-10-21T08:12:49Z</time>
      </trkpt>
      <trkpt lat="45.86251" lon="1.19049">
        <ele>371.6</ele>
        <time>2024-10-21T08:12:50Z</time>
      </trkpt>
      <trkpt lat="45.86252" lon="1.19048">
        <ele>371.6</ele>
        <time>2024-10-21T08:12:51Z</time>
      </trkpt>
      <trkpt lat="45.86255" lon="1.19048">
        <ele>371.7</ele>
        <time>2024-10-21T08:12:52Z</time>
      </trkpt>
      <trkpt lat="45.86255" lon="1.19047">
        <ele>371.7</ele>
        <time>2024-10-21T08:12:53Z</time>
      </trkpt>
      <trkpt lat="45.86256" lon="1.19047">
        <ele>371.7</ele>
        <time>2024-10-21T08:12:54Z</time>
      </trkpt>
      <trkpt lat="45.86258" lon="1.19046">
        <ele>371.7</ele>
        <time>2024-10-21T08:12:55Z</time>
      </trkpt>
      <trkpt lat="45.86259" lon="1.19045">
        <ele>371.7</ele>
        <time>2024-10-21T08:12:56Z</time>
      </trkpt>
      <trkpt lat="45.8626" lon="1.19045">
        <ele>371.7</ele>
        <time>2024-10-21T08:12:57Z</time>
      </trkpt>
      <trkpt lat="45.86262" lon="1.19044">
        <ele>371.7</ele>
        <time>2024-10-21T08:12:58Z</time>
      </trkpt>
      <trkpt lat="45.86264" lon="1.19043">
        <ele>371.7</ele>
        <time>2024-10-21T08:12:59Z</time>
      </trkpt>
      <trkpt lat="45.86265" lon="1.19043">
        <ele>371.7</ele>
        <time>2024-10-21T08:13:00Z</time>
      </trkpt>
      <trkpt lat="45.86267" lon="1.19042">
        <ele>371.7</ele>
        <time>2024-10-21T08:13:01Z</time>
      </trkpt>
      <trkpt lat="45.86269" lon="1.19042">
        <ele>371.7</ele>
        <time>2024-10-21T08:13:02Z</time>
      </trkpt>
      <trkpt lat="45.8627" lon="1.19041">
        <ele>371.8</ele>
        <time>2024-10-21T08:13:03Z</time>
      </trkpt>
      <trkpt lat="45.86273" lon="1.1904">
        <ele>371.8</ele>
        <time>2024-10-21T08:13:04Z</time>
      </trkpt>
      <trkpt lat="45.86274" lon="1.19039">
        <ele>371.8</ele>
        <time>2024-10-21T08:13:05Z</time>
      </trkpt>
      <trkpt lat="45.86277" lon="1.19038">
        <ele>371.9</ele>
        <time>2024-10-21T08:13:06Z</time>
      </trkpt>
      <trkpt lat="45.8628" lon="1.19037">
        <ele>372</ele>
        <time>2024-10-21T08:13:07Z</time>
      </trkpt>
      <trkpt lat="45.86281" lon="1.19037">
        <ele>372</ele>
        <time>2024-10-21T08:13:08Z</time>
      </trkpt>
      <trkpt lat="45.86285" lon="1.19034">
        <ele>372.1</ele>
        <time>2024-10-21T08:13:09Z</time>
      </trkpt>
      <trkpt lat="45.86287" lon="1.19034">
        <ele>372.2</ele>
        <time>2024-10-21T08:13:10Z</time>
      </trkpt>
      <trkpt lat="45.86288" lon="1.19034">
        <ele>372.2</ele>
        <time>2024-10-21T08:13:11Z</time>
      </trkpt>
      <trkpt lat="45.86289" lon="1.19034">
        <ele>372.2</ele>
        <time>2024-10-21T08:13:12Z</time>
      </trkpt>
      <trkpt lat="45.8629" lon="1.19034">
        <ele>372.3</ele>
        <time>2024-10-21T08:13:13Z</time>
      </trkpt>
      <trkpt lat="45.86292" lon="1.19034">
        <ele>372.4</ele>
        <time>2024-10-21T08:13:14Z</time>
      </trkpt>
      <trkpt lat="45.86293" lon="1.19034">
        <ele>372.4</ele>
        <time>2024-10-21T08:13:15Z</time>
      </trkpt>
      <trkpt lat="45.86294" lon="1.19033">
        <ele>372.5</ele>
        <time>2024-10-21T08:13:16Z</time>
      </trkpt>
      <trkpt lat="45.86295" lon="1.19033">
        <ele>372.5</ele>
        <time>2024-10-21T08:13:17Z</time>
      </trkpt>
      <trkpt lat="45.86297" lon="1.19033">
        <ele>372.7</ele>
        <time>2024-10-21T08:13:18Z</time>
      </trkpt>
      <trkpt lat="45.86298" lon="1.19032">
        <ele>372.7</ele>
        <time>2024-10-21T08:13:19Z</time>
      </trkpt>
      <trkpt lat="45.86299" lon="1.19032">
        <ele>372.8</ele>
        <time>2024-10-21T08:13:20Z</time>
      </trkpt>
      <trkpt lat="45.86301" lon="1.19032">
        <ele>372.9</ele>
        <time>2024-10-21T08:13:21Z</time>
      </trkpt>
      <trkpt lat="45.86302" lon="1.19032">
        <ele>372.9</ele>
        <time>2024-10-21T08:13:22Z</time>
      </trkpt>
      <trkpt lat="45.86302" lon="1.19032">
        <ele>373</ele>
        <time>2024-10-21T08:13:23Z</time>
      </trkpt>
      <trkpt lat="45.86304" lon="1.19032">
        <ele>373</ele>
        <time>2024-10-21T08:13:24Z</time>
      </trkpt>
      <trkpt lat="45.86306" lon="1.19033">
        <ele>373.2</ele>
        <time>2024-10-21T08:13:25Z</time>
      </trkpt>
      <trkpt lat="45.86307" lon="1.19033">
        <ele>373.3</ele>
        <time>2024-10-21T08:13:27Z</time>
      </trkpt>
      <trkpt lat="45.86308" lon="1.19033">
        <ele>373.3</ele>
        <time>2024-10-21T08:13:28Z</time>
      </trkpt>
      <trkpt lat="45.86309" lon="1.19032">
        <ele>373.4</ele>
        <time>2024-10-21T08:13:29Z</time>
      </trkpt>
      <trkpt lat="45.8631" lon="1.19032">
        <ele>373.5</ele>
        <time>2024-10-21T08:13:30Z</time>
      </trkpt>
      <trkpt lat="45.86311" lon="1.19032">
        <ele>373.6</ele>
        <time>2024-10-21T08:13:31Z</time>
      </trkpt>
      <trkpt lat="45.86312" lon="1.19031">
        <ele>373.6</ele>
        <time>2024-10-21T08:13:32Z</time>
      </trkpt>
      <trkpt lat="45.86313" lon="1.19031">
        <ele>373.7</ele>
        <time>2024-10-21T08:13:33Z</time>
      </trkpt>
      <trkpt lat="45.86314" lon="1.19031">
        <ele>373.8</ele>
        <time>2024-10-21T08:13:34Z</time>
      </trkpt>
      <trkpt lat="45.86315" lon="1.19031">
        <ele>373.8</ele>
        <time>2024-10-21T08:13:35Z</time>
      </trkpt>
      <trkpt lat="45.86316" lon="1.19031">
        <ele>373.9</ele>
        <time>2024-10-21T08:13:36Z</time>
      </trkpt>
      <trkpt lat="45.86317" lon="1.19031">
        <ele>374</ele>
        <time>2024-10-21T08:13:37Z</time>
      </trkpt>
      <trkpt lat="45.86318" lon="1.19031">
        <ele>374.1</ele>
        <time>2024-10-21T08:13:38Z</time>
      </trkpt>
      <trkpt lat="45.8632" lon="1.19031">
        <ele>374.2</ele>
        <time>2024-10-21T08:13:39Z</time>
      </trkpt>
      <trkpt lat="45.86321" lon="1.19031">
        <ele>374.4</ele>
        <time>2024-10-21T08:13:40Z</time>
      </trkpt>
      <trkpt lat="45.86322" lon="1.19031">
        <ele>374.5</ele>
        <time>2024-10-21T08:13:41Z</time>
      </trkpt>
      <trkpt lat="45.86322" lon="1.1903">
        <ele>374.5</ele>
        <time>2024-10-21T08:13:42Z</time>
      </trkpt>
      <trkpt lat="45.86322" lon="1.19029">
        <ele>374.5</ele>
        <time>2024-10-21T08:13:43Z</time>
      </trkpt>
      <trkpt lat="45.86322" lon="1.19028">
        <ele>374.5</ele>
        <time>2024-10-21T08:13:44Z</time>
      </trkpt>
      <trkpt lat="45.86322" lon="1.19028">
        <ele>374.6</ele>
        <time>2024-10-21T08:13:45Z</time>
      </trkpt>
      <trkpt lat="45.86323" lon="1.19027">
        <ele>374.6</ele>
        <time>2024-10-21T08:13:46Z</time>
      </trkpt>
      <trkpt lat="45.86322" lon="1.19025">
        <ele>374.6</ele>
        <time>2024-10-21T08:13:47Z</time>
      </trkpt>
      <trkpt lat="45.86322" lon="1.19024">
        <ele>374.7</ele>
        <time>2024-10-21T08:13:48Z</time>
      </trkpt>
      <trkpt lat="45.86322" lon="1.19022">
        <ele>374.7</ele>
        <time>2024-10-21T08:13:49Z</time>
      </trkpt>
      <trkpt lat="45.86322" lon="1.1902">
        <ele>374.8</ele>
        <time>2024-10-21T08:13:50Z</time>
      </trkpt>
      <trkpt lat="45.86322" lon="1.19019">
        <ele>374.8</ele>
        <time>2024-10-21T08:13:51Z</time>
      </trkpt>
      <trkpt lat="45.86321" lon="1.19017">
        <ele>374.9</ele>
        <time>2024-10-21T08:13:52Z</time>
      </trkpt>
      <trkpt lat="45.86321" lon="1.19015">
        <ele>374.9</ele>
        <time>2024-10-21T08:13:53Z</time>
      </trkpt>
      <trkpt lat="45.86322" lon="1.19013">
        <ele>375</ele>
        <time>2024-10-21T08:13:54Z</time>
      </trkpt>
      <trkpt lat="45.86323" lon="1.19012">
        <ele>375.1</ele>
        <time>2024-10-21T08:13:55Z</time>
      </trkpt>
      <trkpt lat="45.86324" lon="1.19011">
        <ele>375.1</ele>
        <time>2024-10-21T08:13:56Z</time>
      </trkpt>
      <trkpt lat="45.86325" lon="1.19009">
        <ele>375.2</ele>
        <time>2024-10-21T08:13:57Z</time>
      </trkpt>
      <trkpt lat="45.86325" lon="1.19007">
        <ele>375.3</ele>
        <time>2024-10-21T08:13:58Z</time>
      </trkpt>
      <trkpt lat="45.86326" lon="1.19005">
        <ele>375.4</ele>
        <time>2024-10-21T08:13:59Z</time>
      </trkpt>
      <trkpt lat="45.86327" lon="1.19003">
        <ele>375.5</ele>
        <time>2024-10-21T08:14:00Z</time>
      </trkpt>
      <trkpt lat="45.86329" lon="1.19002">
        <ele>375.6</ele>
        <time>2024-10-21T08:14:01Z</time>
      </trkpt>
      <trkpt lat="45.86332" lon="1.18999">
        <ele>375.8</ele>
        <time>2024-10-21T08:14:02Z</time>
      </trkpt>
      <trkpt lat="45.86333" lon="1.18999">
        <ele>375.9</ele>
        <time>2024-10-21T08:14:03Z</time>
      </trkpt>
      <trkpt lat="45.86336" lon="1.18997">
        <ele>376.1</ele>
        <time>2024-10-21T08:14:04Z</time>
      </trkpt>
      <trkpt lat="45.86339" lon="1.18996">
        <ele>376.2</ele>
        <time>2024-10-21T08:14:05Z</time>
      </trkpt>
      <trkpt lat="45.8634" lon="1.18995">
        <ele>376.3</ele>
        <time>2024-10-21T08:14:06Z</time>
      </trkpt>
      <trkpt lat="45.86341" lon="1.18994">
        <ele>376.4</ele>
        <time>2024-10-21T08:14:07Z</time>
      </trkpt>
      <trkpt lat="45.86341" lon="1.18992">
        <ele>376.4</ele>
        <time>2024-10-21T08:14:08Z</time>
      </trkpt>
      <trkpt lat="45.86342" lon="1.18988">
        <ele>376.6</ele>
        <time>2024-10-21T08:14:09Z</time>
      </trkpt>
      <trkpt lat="45.86343" lon="1.18988">
        <ele>376.6</ele>
        <time>2024-10-21T08:14:10Z</time>
      </trkpt>
      <trkpt lat="45.86343" lon="1.18987">
        <ele>376.6</ele>
        <time>2024-10-21T08:14:11Z</time>
      </trkpt>
      <trkpt lat="45.86343" lon="1.18985">
        <ele>376.7</ele>
        <time>2024-10-21T08:14:12Z</time>
      </trkpt>
      <trkpt lat="45.86342" lon="1.18984">
        <ele>376.8</ele>
        <time>2024-10-21T08:14:13Z</time>
      </trkpt>
      <trkpt lat="45.86342" lon="1.18982">
        <ele>376.8</ele>
        <time>2024-10-21T08:14:14Z</time>
      </trkpt>
      <trkpt lat="45.86342" lon="1.18981">
        <ele>376.9</ele>
        <time>2024-10-21T08:14:15Z</time>
      </trkpt>
      <trkpt lat="45.86342" lon="1.1898">
        <ele>376.9</ele>
        <time>2024-10-21T08:14:16Z</time>
      </trkpt>
      <trkpt lat="45.86342" lon="1.18978">
        <ele>377</ele>
        <time>2024-10-21T08:14:17Z</time>
      </trkpt>
      <trkpt lat="45.86342" lon="1.18975">
        <ele>377.1</ele>
        <time>2024-10-21T08:14:18Z</time>
      </trkpt>
      <trkpt lat="45.86342" lon="1.18974">
        <ele>377.1</ele>
        <time>2024-10-21T08:14:19Z</time>
      </trkpt>
      <trkpt lat="45.86342" lon="1.18972">
        <ele>377.2</ele>
        <time>2024-10-21T08:14:20Z</time>
      </trkpt>
      <trkpt lat="45.86342" lon="1.18971">
        <ele>377.3</ele>
        <time>2024-10-21T08:14:21Z</time>
      </trkpt>
      <trkpt lat="45.86342" lon="1.18968">
        <ele>377.3</ele>
        <time>2024-10-21T08:14:22Z</time>
      </trkpt>
      <trkpt lat="45.86343" lon="1.18966">
        <ele>377.4</ele>
        <time>2024-10-21T08:14:23Z</time>
      </trkpt>
      <trkpt lat="45.86343" lon="1.18964">
        <ele>377.5</ele>
        <time>2024-10-21T08:14:24Z</time>
      </trkpt>
      <trkpt lat="45.86343" lon="1.18961">
        <ele>377.6</ele>
        <time>2024-10-21T08:14:25Z</time>
      </trkpt>
      <trkpt lat="45.86344" lon="1.1896">
        <ele>377.6</ele>
        <time>2024-10-21T08:14:26Z</time>
      </trkpt>
      <trkpt lat="45.86344" lon="1.18959">
        <ele>377.7</ele>
        <time>2024-10-21T08:14:27Z</time>
      </trkpt>
      <trkpt lat="45.86344" lon="1.18955">
        <ele>377.8</ele>
        <time>2024-10-21T08:14:28Z</time>
      </trkpt>
      <trkpt lat="45.86344" lon="1.18954">
        <ele>377.8</ele>
        <time>2024-10-21T08:14:29Z</time>
      </trkpt>
      <trkpt lat="45.86344" lon="1.18953">
        <ele>377.8</ele>
        <time>2024-10-21T08:14:30Z</time>
      </trkpt>
      <trkpt lat="45.86344" lon="1.18951">
        <ele>377.9</ele>
        <time>2024-10-21T08:14:31Z</time>
      </trkpt>
      <trkpt lat="45.86345" lon="1.18948">
        <ele>378</ele>
        <time>2024-10-21T08:14:32Z</time>
      </trkpt>
      <trkpt lat="45.86345" lon="1.18948">
        <ele>378</ele>
        <time>2024-10-21T08:14:33Z</time>
      </trkpt>
      <trkpt lat="45.86345" lon="1.18946">
        <ele>378.1</ele>
        <time>2024-10-21T08:14:34Z</time>
      </trkpt>
      <trkpt lat="45.86345" lon="1.18945">
        <ele>378.1</ele>
        <time>2024-10-21T08:14:35Z</time>
      </trkpt>
      <trkpt lat="45.86345" lon="1.18944">
        <ele>378.1</ele>
        <time>2024-10-21T08:14:36Z</time>
      </trkpt>
      <trkpt lat="45.86345" lon="1.18942">
        <ele>378.2</ele>
        <time>2024-10-21T08:14:37Z</time>
      </trkpt>
      <trkpt lat="45.86346" lon="1.18939">
        <ele>378.2</ele>
        <time>2024-10-21T08:14:39Z</time>
      </trkpt>
      <trkpt lat="45.86346" lon="1.18939">
        <ele>378.3</ele>
        <time>2024-10-21T08:14:40Z</time>
      </trkpt>
      <trkpt lat="45.86347" lon="1.18937">
        <ele>378.3</ele>
        <time>2024-10-21T08:14:41Z</time>
      </trkpt>
      <trkpt lat="45.86348" lon="1.18935">
        <ele>378.4</ele>
        <time>2024-10-21T08:14:42Z</time>
      </trkpt>
      <trkpt lat="45.86348" lon="1.18934">
        <ele>378.4</ele>
        <time>2024-10-21T08:14:43Z</time>
      </trkpt>
      <trkpt lat="45.86349" lon="1.18931">
        <ele>378.5</ele>
        <time>2024-10-21T08:14:44Z</time>
      </trkpt>
      <trkpt lat="45.86349" lon="1.1893">
        <ele>378.5</ele>
        <time>2024-10-21T08:14:45Z</time>
      </trkpt>
      <trkpt lat="45.8635" lon="1.18928">
        <ele>378.5</ele>
        <time>2024-10-21T08:14:46Z</time>
      </trkpt>
      <trkpt lat="45.86351" lon="1.18927">
        <ele>378.6</ele>
        <time>2024-10-21T08:14:47Z</time>
      </trkpt>
      <trkpt lat="45.86352" lon="1.18925">
        <ele>378.6</ele>
        <time>2024-10-21T08:14:49Z</time>
      </trkpt>
      <trkpt lat="45.86352" lon="1.18924">
        <ele>378.6</ele>
        <time>2024-10-21T08:14:50Z</time>
      </trkpt>
      <trkpt lat="45.86351" lon="1.18922">
        <ele>378.6</ele>
        <time>2024-10-21T08:14:51Z</time>
      </trkpt>
      <trkpt lat="45.86352" lon="1.18919">
        <ele>378.7</ele>
        <time>2024-10-21T08:14:52Z</time>
      </trkpt>
      <trkpt lat="45.86352" lon="1.18914">
        <ele>378.8</ele>
        <time>2024-10-21T08:14:53Z</time>
      </trkpt>
      <trkpt lat="45.86352" lon="1.18912">
        <ele>378.8</ele>
        <time>2024-10-21T08:14:54Z</time>
      </trkpt>
      <trkpt lat="45.86353" lon="1.1891">
        <ele>378.8</ele>
        <time>2024-10-21T08:14:55Z</time>
      </trkpt>
      <trkpt lat="45.86353" lon="1.18908">
        <ele>378.9</ele>
        <time>2024-10-21T08:14:56Z</time>
      </trkpt>
      <trkpt lat="45.86353" lon="1.18907">
        <ele>378.9</ele>
        <time>2024-10-21T08:14:57Z</time>
      </trkpt>
      <trkpt lat="45.86354" lon="1.18906">
        <ele>378.9</ele>
        <time>2024-10-21T08:14:58Z</time>
      </trkpt>
      <trkpt lat="45.86354" lon="1.18904">
        <ele>378.9</ele>
        <time>2024-10-21T08:14:59Z</time>
      </trkpt>
      <trkpt lat="45.86355" lon="1.18903">
        <ele>378.9</ele>
        <time>2024-10-21T08:15:00Z</time>
      </trkpt>
      <trkpt lat="45.86355" lon="1.18901">
        <ele>379</ele>
        <time>2024-10-21T08:15:01Z</time>
      </trkpt>
      <trkpt lat="45.86356" lon="1.189">
        <ele>379</ele>
        <time>2024-10-21T08:15:02Z</time>
      </trkpt>
      <trkpt lat="45.86356" lon="1.18899">
        <ele>379</ele>
        <time>2024-10-21T08:15:03Z</time>
      </trkpt>
      <trkpt lat="45.86357" lon="1.18897">
        <ele>379</ele>
        <time>2024-10-21T08:15:04Z</time>
      </trkpt>
      <trkpt lat="45.86357" lon="1.18896">
        <ele>379</ele>
        <time>2024-10-21T08:15:05Z</time>
      </trkpt>
      <trkpt lat="45.86357" lon="1.18894">
        <ele>379.1</ele>
        <time>2024-10-21T08:15:06Z</time>
      </trkpt>
      <trkpt lat="45.86358" lon="1.18893">
        <ele>379.1</ele>
        <time>2024-10-21T08:15:07Z</time>
      </trkpt>
      <trkpt lat="45.86358" lon="1.18891">
        <ele>379.1</ele>
        <time>2024-10-21T08:15:08Z</time>
      </trkpt>
      <trkpt lat="45.86359" lon="1.18886">
        <ele>379.2</ele>
        <time>2024-10-21T08:15:09Z</time>
      </trkpt>
      <trkpt lat="45.86359" lon="1.18885">
        <ele>379.2</ele>
        <time>2024-10-21T08:15:10Z</time>
      </trkpt>
      <trkpt lat="45.8636" lon="1.18883">
        <ele>379.2</ele>
        <time>2024-10-21T08:15:11Z</time>
      </trkpt>
      <trkpt lat="45.8636" lon="1.18882">
        <ele>379.3</ele>
        <time>2024-10-21T08:15:12Z</time>
      </trkpt>
      <trkpt lat="45.86361" lon="1.18881">
        <ele>379.3</ele>
        <time>2024-10-21T08:15:13Z</time>
      </trkpt>
      <trkpt lat="45.86362" lon="1.1888">
        <ele>379.3</ele>
        <time>2024-10-21T08:15:14Z</time>
      </trkpt>
      <trkpt lat="45.86361" lon="1.1888">
        <ele>379.3</ele>
        <time>2024-10-21T08:15:15Z</time>
      </trkpt>
      <trkpt lat="45.86361" lon="1.18878">
        <ele>379.4</ele>
        <time>2024-10-21T08:15:16Z</time>
      </trkpt>
      <trkpt lat="45.86361" lon="1.18877">
        <ele>379.4</ele>
        <time>2024-10-21T08:15:17Z</time>
      </trkpt>
      <trkpt lat="45.86362" lon="1.18875">
        <ele>379.4</ele>
        <time>2024-10-21T08:15:18Z</time>
      </trkpt>
      <trkpt lat="45.86362" lon="1.18873">
        <ele>379.5</ele>
        <time>2024-10-21T08:15:19Z</time>
      </trkpt>
      <trkpt lat="45.86363" lon="1.18872">
        <ele>379.5</ele>
        <time>2024-10-21T08:15:20Z</time>
      </trkpt>
      <trkpt lat="45.86363" lon="1.18871">
        <ele>379.6</ele>
        <time>2024-10-21T08:15:21Z</time>
      </trkpt>
      <trkpt lat="45.86362" lon="1.1887">
        <ele>379.6</ele>
        <time>2024-10-21T08:15:22Z</time>
      </trkpt>
      <trkpt lat="45.86363" lon="1.18869">
        <ele>379.6</ele>
        <time>2024-10-21T08:15:23Z</time>
      </trkpt>
      <trkpt lat="45.86363" lon="1.18867">
        <ele>379.6</ele>
        <time>2024-10-21T08:15:24Z</time>
      </trkpt>
      <trkpt lat="45.86362" lon="1.18866">
        <ele>379.7</ele>
        <time>2024-10-21T08:15:25Z</time>
      </trkpt>
      <trkpt lat="45.86362" lon="1.18862">
        <ele>379.8</ele>
        <time>2024-10-21T08:15:26Z</time>
      </trkpt>
      <trkpt lat="45.86363" lon="1.1886">
        <ele>379.8</ele>
        <time>2024-10-21T08:15:27Z</time>
      </trkpt>
      <trkpt lat="45.86363" lon="1.18859">
        <ele>379.9</ele>
        <time>2024-10-21T08:15:28Z</time>
      </trkpt>
      <trkpt lat="45.86363" lon="1.18858">
        <ele>379.9</ele>
        <time>2024-10-21T08:15:29Z</time>
      </trkpt>
      <trkpt lat="45.86364" lon="1.18857">
        <ele>380</ele>
        <time>2024-10-21T08:15:30Z</time>
      </trkpt>
      <trkpt lat="45.86364" lon="1.18855">
        <ele>380</ele>
        <time>2024-10-21T08:15:31Z</time>
      </trkpt>
      <trkpt lat="45.86365" lon="1.18853">
        <ele>380.1</ele>
        <time>2024-10-21T08:15:32Z</time>
      </trkpt>
      <trkpt lat="45.86367" lon="1.18848">
        <ele>380.3</ele>
        <time>2024-10-21T08:15:33Z</time>
      </trkpt>
      <trkpt lat="45.86367" lon="1.18844">
        <ele>380.5</ele>
        <time>2024-10-21T08:15:35Z</time>
      </trkpt>
      <trkpt lat="45.86367" lon="1.18842">
        <ele>380.5</ele>
        <time>2024-10-21T08:15:36Z</time>
      </trkpt>
      <trkpt lat="45.86368" lon="1.18839">
        <ele>380.6</ele>
        <time>2024-10-21T08:15:37Z</time>
      </trkpt>
      <trkpt lat="45.86368" lon="1.18837">
        <ele>380.7</ele>
        <time>2024-10-21T08:15:38Z</time>
      </trkpt>
      <trkpt lat="45.86368" lon="1.18835">
        <ele>380.8</ele>
        <time>2024-10-21T08:15:39Z</time>
      </trkpt>
      <trkpt lat="45.86368" lon="1.18834">
        <ele>380.9</ele>
        <time>2024-10-21T08:15:40Z</time>
      </trkpt>
      <trkpt lat="45.86367" lon="1.18831">
        <ele>381</ele>
        <time>2024-10-21T08:15:41Z</time>
      </trkpt>
      <trkpt lat="45.86365" lon="1.18829">
        <ele>381.1</ele>
        <time>2024-10-21T08:15:42Z</time>
      </trkpt>
      <trkpt lat="45.86365" lon="1.18828">
        <ele>381.2</ele>
        <time>2024-10-21T08:15:43Z</time>
      </trkpt>
      <trkpt lat="45.86364" lon="1.18825">
        <ele>381.3</ele>
        <time>2024-10-21T08:15:44Z</time>
      </trkpt>
      <trkpt lat="45.86364" lon="1.18823">
        <ele>381.4</ele>
        <time>2024-10-21T08:15:45Z</time>
      </trkpt>
      <trkpt lat="45.86364" lon="1.18818">
        <ele>381.6</ele>
        <time>2024-10-21T08:15:46Z</time>
      </trkpt>
      <trkpt lat="45.86364" lon="1.18818">
        <ele>381.6</ele>
        <time>2024-10-21T08:15:47Z</time>
      </trkpt>
      <trkpt lat="45.86364" lon="1.18817">
        <ele>381.7</ele>
        <time>2024-10-21T08:15:48Z</time>
      </trkpt>
      <trkpt lat="45.86362" lon="1.18813">
        <ele>381.9</ele>
        <time>2024-10-21T08:15:49Z</time>
      </trkpt>
      <trkpt lat="45.86362" lon="1.18812">
        <ele>381.9</ele>
        <time>2024-10-21T08:15:50Z</time>
      </trkpt>
      <trkpt lat="45.86362" lon="1.1881">
        <ele>382</ele>
        <time>2024-10-21T08:15:51Z</time>
      </trkpt>
      <trkpt lat="45.86361" lon="1.18806">
        <ele>382.2</ele>
        <time>2024-10-21T08:15:52Z</time>
      </trkpt>
      <trkpt lat="45.86361" lon="1.18805">
        <ele>382.3</ele>
        <time>2024-10-21T08:15:53Z</time>
      </trkpt>
      <trkpt lat="45.86362" lon="1.18804">
        <ele>382.4</ele>
        <time>2024-10-21T08:15:55Z</time>
      </trkpt>
      <trkpt lat="45.86363" lon="1.18803">
        <ele>382.5</ele>
        <time>2024-10-21T08:15:56Z</time>
      </trkpt>
      <trkpt lat="45.86365" lon="1.18802">
        <ele>382.6</ele>
        <time>2024-10-21T08:15:57Z</time>
      </trkpt>
      <trkpt lat="45.86365" lon="1.18801">
        <ele>382.6</ele>
        <time>2024-10-21T08:15:58Z</time>
      </trkpt>
      <trkpt lat="45.86365" lon="1.18799">
        <ele>382.7</ele>
        <time>2024-10-21T08:15:59Z</time>
      </trkpt>
      <trkpt lat="45.86365" lon="1.18797">
        <ele>382.8</ele>
        <time>2024-10-21T08:16:00Z</time>
      </trkpt>
      <trkpt lat="45.86366" lon="1.18796">
        <ele>382.8</ele>
        <time>2024-10-21T08:16:01Z</time>
      </trkpt>
      <trkpt lat="45.86366" lon="1.18795">
        <ele>382.9</ele>
        <time>2024-10-21T08:16:02Z</time>
      </trkpt>
      <trkpt lat="45.86367" lon="1.18794">
        <ele>382.9</ele>
        <time>2024-10-21T08:16:03Z</time>
      </trkpt>
      <trkpt lat="45.86367" lon="1.18793">
        <ele>383</ele>
        <time>2024-10-21T08:16:04Z</time>
      </trkpt>
      <trkpt lat="45.86366" lon="1.18791">
        <ele>383.1</ele>
        <time>2024-10-21T08:16:05Z</time>
      </trkpt>
      <trkpt lat="45.86366" lon="1.18794">
        <ele>383.2</ele>
        <time>2024-10-21T08:16:06Z</time>
      </trkpt>
      <trkpt lat="45.86365" lon="1.18794">
        <ele>383.2</ele>
        <time>2024-10-21T08:16:07Z</time>
      </trkpt>
      <trkpt lat="45.86365" lon="1.18794">
        <ele>383.2</ele>
        <time>2024-10-21T08:16:08Z</time>
      </trkpt>
      <trkpt lat="45.86365" lon="1.18795">
        <ele>383.3</ele>
        <time>2024-10-21T08:16:09Z</time>
      </trkpt>
      <trkpt lat="45.86365" lon="1.18795">
        <ele>383.3</ele>
        <time>2024-10-21T08:16:10Z</time>
      </trkpt>
      <trkpt lat="45.86365" lon="1.18795">
        <ele>383.3</ele>
        <time>2024-10-21T08:16:11Z</time>
      </trkpt>
      <trkpt lat="45.86365" lon="1.18795">
        <ele>383.3</ele>
        <time>2024-10-21T08:16:12Z</time>
      </trkpt>
      <trkpt lat="45.86365" lon="1.18795">
        <ele>383.3</ele>
        <time>2024-10-21T08:16:13Z</time>
      </trkpt>
      <trkpt lat="45.86365" lon="1.18795">
        <ele>383.3</ele>
        <time>2024-10-21T08:16:14Z</time>
      </trkpt>
      <trkpt lat="45.86364" lon="1.18794">
        <ele>383.4</ele>
        <time>2024-10-21T08:16:15Z</time>
      </trkpt>
      <trkpt lat="45.86364" lon="1.18794">
        <ele>383.4</ele>
        <time>2024-10-21T08:16:16Z</time>
      </trkpt>
      <trkpt lat="45.86364" lon="1.18791">
        <ele>383.4</ele>
        <time>2024-10-21T08:16:17Z</time>
      </trkpt>
      <trkpt lat="45.86364" lon="1.18788">
        <ele>383.5</ele>
        <time>2024-10-21T08:16:18Z</time>
      </trkpt>
      <trkpt lat="45.86364" lon="1.18786">
        <ele>383.6</ele>
        <time>2024-10-21T08:16:19Z</time>
      </trkpt>
      <trkpt lat="45.86363" lon="1.18785">
        <ele>383.7</ele>
        <time>2024-10-21T08:16:20Z</time>
      </trkpt>
      <trkpt lat="45.86363" lon="1.18785">
        <ele>383.7</ele>
        <time>2024-10-21T08:16:22Z</time>
      </trkpt>
      <trkpt lat="45.86363" lon="1.18785">
        <ele>383.7</ele>
        <time>2024-10-21T08:16:23Z</time>
      </trkpt>
      <trkpt lat="45.86363" lon="1.18787">
        <ele>383.8</ele>
        <time>2024-10-21T08:16:24Z</time>
      </trkpt>
      <trkpt lat="45.86363" lon="1.1879">
        <ele>383.9</ele>
        <time>2024-10-21T08:16:25Z</time>
      </trkpt>
      <trkpt lat="45.86363" lon="1.1879">
        <ele>383.9</ele>
        <time>2024-10-21T08:16:26Z</time>
      </trkpt>
      <trkpt lat="45.86363" lon="1.1879">
        <ele>383.9</ele>
        <time>2024-10-21T08:16:27Z</time>
      </trkpt>
      <trkpt lat="45.86363" lon="1.1879">
        <ele>383.9</ele>
        <time>2024-10-21T08:16:28Z</time>
      </trkpt>
      <trkpt lat="45.86362" lon="1.18789">
        <ele>383.9</ele>
        <time>2024-10-21T08:16:29Z</time>
      </trkpt>
      <trkpt lat="45.86362" lon="1.18788">
        <ele>383.9</ele>
        <time>2024-10-21T08:16:30Z</time>
      </trkpt>
      <trkpt lat="45.86363" lon="1.18788">
        <ele>384</ele>
        <time>2024-10-21T08:16:31Z</time>
      </trkpt>
      <trkpt lat="45.86363" lon="1.18788">
        <ele>384</ele>
        <time>2024-10-21T08:16:32Z</time>
      </trkpt>
      <trkpt lat="45.86363" lon="1.18788">
        <ele>384</ele>
        <time>2024-10-21T08:16:33Z</time>
      </trkpt>
      <trkpt lat="45.86363" lon="1.18788">
        <ele>384</ele>
        <time>2024-10-21T08:16:34Z</time>
      </trkpt>
      <trkpt lat="45.86363" lon="1.18788">
        <ele>384</ele>
        <time>2024-10-21T08:16:35Z</time>
      </trkpt>
      <trkpt lat="45.86363" lon="1.18788">
        <ele>384</ele>
        <time>2024-10-21T08:16:36Z</time>
      </trkpt>
      <trkpt lat="45.86363" lon="1.18788">
        <ele>384</ele>
        <time>2024-10-21T08:16:37Z</time>
      </trkpt>
      <trkpt lat="45.86363" lon="1.18787">
        <ele>384</ele>
        <time>2024-10-21T08:16:38Z</time>
      </trkpt>
      <trkpt lat="45.86363" lon="1.18785">
        <ele>384.1</ele>
        <time>2024-10-21T08:16:39Z</time>
      </trkpt>
      <trkpt lat="45.86364" lon="1.18784">
        <ele>384.1</ele>
        <time>2024-10-21T08:16:40Z</time>
      </trkpt>
      <trkpt lat="45.86364" lon="1.18784">
        <ele>384.1</ele>
        <time>2024-10-21T08:16:41Z</time>
      </trkpt>
      <trkpt lat="45.86364" lon="1.18784">
        <ele>384.1</ele>
        <time>2024-10-21T08:16:42Z</time>
      </trkpt>
      <trkpt lat="45.86364" lon="1.18783">
        <ele>384.1</ele>
        <time>2024-10-21T08:16:43Z</time>
      </trkpt>
      <trkpt lat="45.86365" lon="1.18783">
        <ele>384.2</ele>
        <time>2024-10-21T08:16:44Z</time>
      </trkpt>
      <trkpt lat="45.86365" lon="1.18783">
        <ele>384.2</ele>
        <time>2024-10-21T08:16:45Z</time>
      </trkpt>
      <trkpt lat="45.86365" lon="1.18783">
        <ele>384.2</ele>
        <time>2024-10-21T08:16:46Z</time>
      </trkpt>
      <trkpt lat="45.86365" lon="1.18782">
        <ele>384.2</ele>
        <time>2024-10-21T08:16:47Z</time>
      </trkpt>
      <trkpt lat="45.86365" lon="1.18782">
        <ele>384.2</ele>
        <time>2024-10-21T08:16:48Z</time>
      </trkpt>
      <trkpt lat="45.86366" lon="1.18782">
        <ele>384.2</ele>
        <time>2024-10-21T08:16:49Z</time>
      </trkpt>
      <trkpt lat="45.86366" lon="1.18781">
        <ele>384.2</ele>
        <time>2024-10-21T08:16:50Z</time>
      </trkpt>
      <trkpt lat="45.86368" lon="1.1878">
        <ele>384.3</ele>
        <time>2024-10-21T08:16:51Z</time>
      </trkpt>
      <trkpt lat="45.86368" lon="1.18778">
        <ele>384.4</ele>
        <time>2024-10-21T08:16:52Z</time>
      </trkpt>
      <trkpt lat="45.86369" lon="1.18777">
        <ele>384.4</ele>
        <time>2024-10-21T08:16:53Z</time>
      </trkpt>
      <trkpt lat="45.8637" lon="1.18775">
        <ele>384.5</ele>
        <time>2024-10-21T08:16:54Z</time>
      </trkpt>
      <trkpt lat="45.8637" lon="1.18774">
        <ele>384.5</ele>
        <time>2024-10-21T08:16:55Z</time>
      </trkpt>
      <trkpt lat="45.86371" lon="1.18773">
        <ele>384.5</ele>
        <time>2024-10-21T08:16:56Z</time>
      </trkpt>
      <trkpt lat="45.8637" lon="1.18771">
        <ele>384.6</ele>
        <time>2024-10-21T08:16:57Z</time>
      </trkpt>
      <trkpt lat="45.8637" lon="1.18769">
        <ele>384.6</ele>
        <time>2024-10-21T08:16:58Z</time>
      </trkpt>
      <trkpt lat="45.8637" lon="1.18767">
        <ele>384.7</ele>
        <time>2024-10-21T08:16:59Z</time>
      </trkpt>
      <trkpt lat="45.8637" lon="1.18766">
        <ele>384.7</ele>
        <time>2024-10-21T08:17:00Z</time>
      </trkpt>
      <trkpt lat="45.8637" lon="1.18764">
        <ele>384.8</ele>
        <time>2024-10-21T08:17:01Z</time>
      </trkpt>
      <trkpt lat="45.8637" lon="1.18762">
        <ele>384.8</ele>
        <time>2024-10-21T08:17:02Z</time>
      </trkpt>
      <trkpt lat="45.86371" lon="1.1876">
        <ele>384.9</ele>
        <time>2024-10-21T08:17:03Z</time>
      </trkpt>
      <trkpt lat="45.86371" lon="1.18759">
        <ele>384.9</ele>
        <time>2024-10-21T08:17:04Z</time>
      </trkpt>
      <trkpt lat="45.86372" lon="1.18757">
        <ele>385</ele>
        <time>2024-10-21T08:17:05Z</time>
      </trkpt>
      <trkpt lat="45.86373" lon="1.18755">
        <ele>385</ele>
        <time>2024-10-21T08:17:06Z</time>
      </trkpt>
      <trkpt lat="45.86373" lon="1.18753">
        <ele>385.1</ele>
        <time>2024-10-21T08:17:07Z</time>
      </trkpt>
      <trkpt lat="45.86374" lon="1.18751">
        <ele>385.1</ele>
        <time>2024-10-21T08:17:08Z</time>
      </trkpt>
      <trkpt lat="45.86374" lon="1.18749">
        <ele>385.2</ele>
        <time>2024-10-21T08:17:09Z</time>
      </trkpt>
      <trkpt lat="45.86375" lon="1.18747">
        <ele>385.2</ele>
        <time>2024-10-21T08:17:10Z</time>
      </trkpt>
      <trkpt lat="45.86375" lon="1.18745">
        <ele>385.3</ele>
        <time>2024-10-21T08:17:11Z</time>
      </trkpt>
      <trkpt lat="45.86376" lon="1.18743">
        <ele>385.3</ele>
        <time>2024-10-21T08:17:12Z</time>
      </trkpt>
      <trkpt lat="45.86376" lon="1.1874">
        <ele>385.3</ele>
        <time>2024-10-21T08:17:13Z</time>
      </trkpt>
      <trkpt lat="45.86376" lon="1.18738">
        <ele>385.4</ele>
        <time>2024-10-21T08:17:14Z</time>
      </trkpt>
      <trkpt lat="45.86376" lon="1.18736">
        <ele>385.4</ele>
        <time>2024-10-21T08:17:15Z</time>
      </trkpt>
      <trkpt lat="45.86378" lon="1.18732">
        <ele>385.5</ele>
        <time>2024-10-21T08:17:16Z</time>
      </trkpt>
      <trkpt lat="45.86378" lon="1.1873">
        <ele>385.5</ele>
        <time>2024-10-21T08:17:17Z</time>
      </trkpt>
      <trkpt lat="45.8638" lon="1.18726">
        <ele>385.6</ele>
        <time>2024-10-21T08:17:18Z</time>
      </trkpt>
      <trkpt lat="45.8638" lon="1.18725">
        <ele>385.6</ele>
        <time>2024-10-21T08:17:19Z</time>
      </trkpt>
      <trkpt lat="45.86381" lon="1.18724">
        <ele>385.6</ele>
        <time>2024-10-21T08:17:20Z</time>
      </trkpt>
      <trkpt lat="45.86381" lon="1.18724">
        <ele>385.7</ele>
        <time>2024-10-21T08:17:21Z</time>
      </trkpt>
      <trkpt lat="45.86381" lon="1.18724">
        <ele>385.7</ele>
        <time>2024-10-21T08:17:22Z</time>
      </trkpt>
      <trkpt lat="45.86381" lon="1.18723">
        <ele>385.7</ele>
        <time>2024-10-21T08:17:23Z</time>
      </trkpt>
      <trkpt lat="45.86382" lon="1.18723">
        <ele>385.7</ele>
        <time>2024-10-21T08:17:24Z</time>
      </trkpt>
      <trkpt lat="45.86382" lon="1.18723">
        <ele>385.7</ele>
        <time>2024-10-21T08:17:25Z</time>
      </trkpt>
      <trkpt lat="45.86382" lon="1.18723">
        <ele>385.7</ele>
        <time>2024-10-21T08:17:26Z</time>
      </trkpt>
      <trkpt lat="45.86382" lon="1.18722">
        <ele>385.7</ele>
        <time>2024-10-21T08:17:27Z</time>
      </trkpt>
      <trkpt lat="45.86383" lon="1.18722">
        <ele>385.7</ele>
        <time>2024-10-21T08:17:28Z</time>
      </trkpt>
      <trkpt lat="45.86383" lon="1.18722">
        <ele>385.7</ele>
        <time>2024-10-21T08:17:29Z</time>
      </trkpt>
      <trkpt lat="45.86383" lon="1.18722">
        <ele>385.7</ele>
        <time>2024-10-21T08:17:30Z</time>
      </trkpt>
      <trkpt lat="45.86383" lon="1.18721">
        <ele>385.7</ele>
        <time>2024-10-21T08:17:31Z</time>
      </trkpt>
      <trkpt lat="45.86384" lon="1.18721">
        <ele>385.7</ele>
        <time>2024-10-21T08:17:32Z</time>
      </trkpt>
      <trkpt lat="45.86384" lon="1.18721">
        <ele>385.7</ele>
        <time>2024-10-21T08:17:33Z</time>
      </trkpt>
      <trkpt lat="45.86384" lon="1.1872">
        <ele>385.7</ele>
        <time>2024-10-21T08:17:34Z</time>
      </trkpt>
      <trkpt lat="45.86384" lon="1.1872">
        <ele>385.7</ele>
        <time>2024-10-21T08:17:35Z</time>
      </trkpt>
      <trkpt lat="45.86384" lon="1.1872">
        <ele>385.7</ele>
        <time>2024-10-21T08:17:36Z</time>
      </trkpt>
      <trkpt lat="45.86386" lon="1.18712">
        <ele>385.8</ele>
        <time>2024-10-21T08:17:37Z</time>
      </trkpt>
      <trkpt lat="45.86387" lon="1.18706">
        <ele>385.9</ele>
        <time>2024-10-21T08:17:38Z</time>
      </trkpt>
      <trkpt lat="45.86388" lon="1.18703">
        <ele>385.9</ele>
        <time>2024-10-21T08:17:39Z</time>
      </trkpt>
      <trkpt lat="45.86387" lon="1.18702">
        <ele>385.9</ele>
        <time>2024-10-21T08:17:40Z</time>
      </trkpt>
      <trkpt lat="45.86388" lon="1.187">
        <ele>385.9</ele>
        <time>2024-10-21T08:17:41Z</time>
      </trkpt>
      <trkpt lat="45.86388" lon="1.18699">
        <ele>386</ele>
        <time>2024-10-21T08:17:42Z</time>
      </trkpt>
      <trkpt lat="45.86389" lon="1.18699">
        <ele>386</ele>
        <time>2024-10-21T08:17:43Z</time>
      </trkpt>
      <trkpt lat="45.86391" lon="1.18697">
        <ele>386</ele>
        <time>2024-10-21T08:17:44Z</time>
      </trkpt>
      <trkpt lat="45.86391" lon="1.18696">
        <ele>386</ele>
        <time>2024-10-21T08:17:45Z</time>
      </trkpt>
      <trkpt lat="45.86392" lon="1.18695">
        <ele>386</ele>
        <time>2024-10-21T08:17:46Z</time>
      </trkpt>
      <trkpt lat="45.86393" lon="1.18694">
        <ele>386</ele>
        <time>2024-10-21T08:17:47Z</time>
      </trkpt>
      <trkpt lat="45.86393" lon="1.18691">
        <ele>386</ele>
        <time>2024-10-21T08:17:48Z</time>
      </trkpt>
      <trkpt lat="45.86394" lon="1.18689">
        <ele>386</ele>
        <time>2024-10-21T08:17:49Z</time>
      </trkpt>
      <trkpt lat="45.86395" lon="1.18687">
        <ele>386</ele>
        <time>2024-10-21T08:17:50Z</time>
      </trkpt>
      <trkpt lat="45.86395" lon="1.18683">
        <ele>386</ele>
        <time>2024-10-21T08:17:51Z</time>
      </trkpt>
      <trkpt lat="45.86395" lon="1.18681">
        <ele>386</ele>
        <time>2024-10-21T08:17:52Z</time>
      </trkpt>
      <trkpt lat="45.86395" lon="1.18677">
        <ele>386</ele>
        <time>2024-10-21T08:17:53Z</time>
      </trkpt>
      <trkpt lat="45.86395" lon="1.18674">
        <ele>386</ele>
        <time>2024-10-21T08:17:54Z</time>
      </trkpt>
      <trkpt lat="45.86396" lon="1.18671">
        <ele>386</ele>
        <time>2024-10-21T08:17:55Z</time>
      </trkpt>
      <trkpt lat="45.86396" lon="1.1867">
        <ele>386</ele>
        <time>2024-10-21T08:17:56Z</time>
      </trkpt>
      <trkpt lat="45.86396" lon="1.18669">
        <ele>386</ele>
        <time>2024-10-21T08:17:57Z</time>
      </trkpt>
      <trkpt lat="45.86396" lon="1.1867">
        <ele>386</ele>
        <time>2024-10-21T08:17:58Z</time>
      </trkpt>
      <trkpt lat="45.86395" lon="1.18673">
        <ele>386</ele>
        <time>2024-10-21T08:17:59Z</time>
      </trkpt>
      <trkpt lat="45.86395" lon="1.18674">
        <ele>386</ele>
        <time>2024-10-21T08:18:00Z</time>
      </trkpt>
      <trkpt lat="45.86395" lon="1.18673">
        <ele>386</ele>
        <time>2024-10-21T08:18:01Z</time>
      </trkpt>
      <trkpt lat="45.86395" lon="1.18672">
        <ele>386</ele>
        <time>2024-10-21T08:18:02Z</time>
      </trkpt>
      <trkpt lat="45.86395" lon="1.1867">
        <ele>386</ele>
        <time>2024-10-21T08:18:03Z</time>
      </trkpt>
      <trkpt lat="45.86396" lon="1.18669">
        <ele>386</ele>
        <time>2024-10-21T08:18:04Z</time>
      </trkpt>
      <trkpt lat="45.86396" lon="1.18668">
        <ele>386</ele>
        <time>2024-10-21T08:18:05Z</time>
      </trkpt>
      <trkpt lat="45.86397" lon="1.18664">
        <ele>385.9</ele>
        <time>2024-10-21T08:18:06Z</time>
      </trkpt>
      <trkpt lat="45.86398" lon="1.18663">
        <ele>385.9</ele>
        <time>2024-10-21T08:18:07Z</time>
      </trkpt>
      <trkpt lat="45.86398" lon="1.18663">
        <ele>385.9</ele>
        <time>2024-10-21T08:18:08Z</time>
      </trkpt>
      <trkpt lat="45.86398" lon="1.18661">
        <ele>385.9</ele>
        <time>2024-10-21T08:18:09Z</time>
      </trkpt>
      <trkpt lat="45.86399" lon="1.18659">
        <ele>385.8</ele>
        <time>2024-10-21T08:18:10Z</time>
      </trkpt>
      <trkpt lat="45.864" lon="1.18657">
        <ele>385.8</ele>
        <time>2024-10-21T08:18:11Z</time>
      </trkpt>
      <trkpt lat="45.864" lon="1.18654">
        <ele>385.8</ele>
        <time>2024-10-21T08:18:12Z</time>
      </trkpt>
      <trkpt lat="45.86401" lon="1.18652">
        <ele>385.7</ele>
        <time>2024-10-21T08:18:13Z</time>
      </trkpt>
      <trkpt lat="45.86401" lon="1.18651">
        <ele>385.7</ele>
        <time>2024-10-21T08:18:14Z</time>
      </trkpt>
      <trkpt lat="45.86401" lon="1.1865">
        <ele>385.7</ele>
        <time>2024-10-21T08:18:15Z</time>
      </trkpt>
      <trkpt lat="45.86401" lon="1.18648">
        <ele>385.7</ele>
        <time>2024-10-21T08:18:16Z</time>
      </trkpt>
      <trkpt lat="45.864" lon="1.18646">
        <ele>385.6</ele>
        <time>2024-10-21T08:18:17Z</time>
      </trkpt>
      <trkpt lat="45.864" lon="1.18644">
        <ele>385.6</ele>
        <time>2024-10-21T08:18:18Z</time>
      </trkpt>
      <trkpt lat="45.86398" lon="1.18641">
        <ele>385.5</ele>
        <time>2024-10-21T08:18:19Z</time>
      </trkpt>
      <trkpt lat="45.86398" lon="1.18641">
        <ele>385.5</ele>
        <time>2024-10-21T08:18:20Z</time>
      </trkpt>
      <trkpt lat="45.86397" lon="1.18639">
        <ele>385.4</ele>
        <time>2024-10-21T08:18:21Z</time>
      </trkpt>
      <trkpt lat="45.86396" lon="1.18638">
        <ele>385.3</ele>
        <time>2024-10-21T08:18:22Z</time>
      </trkpt>
      <trkpt lat="45.86394" lon="1.18638">
        <ele>385.3</ele>
        <time>2024-10-21T08:18:23Z</time>
      </trkpt>
      <trkpt lat="45.86393" lon="1.18637">
        <ele>385.2</ele>
        <time>2024-10-21T08:18:24Z</time>
      </trkpt>
      <trkpt lat="45.86391" lon="1.18637">
        <ele>385.1</ele>
        <time>2024-10-21T08:18:25Z</time>
      </trkpt>
      <trkpt lat="45.8639" lon="1.18636">
        <ele>385.1</ele>
        <time>2024-10-21T08:18:26Z</time>
      </trkpt>
      <trkpt lat="45.86389" lon="1.18635">
        <ele>385</ele>
        <time>2024-10-21T08:18:27Z</time>
      </trkpt>
      <trkpt lat="45.86387" lon="1.18634">
        <ele>384.9</ele>
        <time>2024-10-21T08:18:28Z</time>
      </trkpt>
      <trkpt lat="45.86384" lon="1.18631">
        <ele>384.8</ele>
        <time>2024-10-21T08:18:29Z</time>
      </trkpt>
      <trkpt lat="45.86384" lon="1.18631">
        <ele>384.7</ele>
        <time>2024-10-21T08:18:30Z</time>
      </trkpt>
      <trkpt lat="45.86383" lon="1.18629">
        <ele>384.6</ele>
        <time>2024-10-21T08:18:31Z</time>
      </trkpt>
      <trkpt lat="45.86383" lon="1.18629">
        <ele>384.6</ele>
        <time>2024-10-21T08:18:32Z</time>
      </trkpt>
      <trkpt lat="45.86381" lon="1.18628">
        <ele>384.5</ele>
        <time>2024-10-21T08:18:33Z</time>
      </trkpt>
      <trkpt lat="45.86379" lon="1.18626">
        <ele>384.4</ele>
        <time>2024-10-21T08:18:34Z</time>
      </trkpt>
      <trkpt lat="45.86379" lon="1.18626">
        <ele>384.4</ele>
        <time>2024-10-21T08:18:35Z</time>
      </trkpt>
      <trkpt lat="45.86378" lon="1.18625">
        <ele>384.3</ele>
        <time>2024-10-21T08:18:36Z</time>
      </trkpt>
      <trkpt lat="45.86377" lon="1.18624">
        <ele>384.2</ele>
        <time>2024-10-21T08:18:37Z</time>
      </trkpt>
      <trkpt lat="45.86375" lon="1.18623">
        <ele>384.1</ele>
        <time>2024-10-21T08:18:38Z</time>
      </trkpt>
      <trkpt lat="45.86373" lon="1.18621">
        <ele>384</ele>
        <time>2024-10-21T08:18:39Z</time>
      </trkpt>
      <trkpt lat="45.86373" lon="1.1862">
        <ele>384</ele>
        <time>2024-10-21T08:18:40Z</time>
      </trkpt>
      <trkpt lat="45.86372" lon="1.18619">
        <ele>383.9</ele>
        <time>2024-10-21T08:18:41Z</time>
      </trkpt>
      <trkpt lat="45.86371" lon="1.18618">
        <ele>383.8</ele>
        <time>2024-10-21T08:18:42Z</time>
      </trkpt>
      <trkpt lat="45.8637" lon="1.18617">
        <ele>383.7</ele>
        <time>2024-10-21T08:18:43Z</time>
      </trkpt>
      <trkpt lat="45.86368" lon="1.18615">
        <ele>383.6</ele>
        <time>2024-10-21T08:18:44Z</time>
      </trkpt>
      <trkpt lat="45.86367" lon="1.18614">
        <ele>383.6</ele>
        <time>2024-10-21T08:18:45Z</time>
      </trkpt>
      <trkpt lat="45.86366" lon="1.18614">
        <ele>383.5</ele>
        <time>2024-10-21T08:18:46Z</time>
      </trkpt>
      <trkpt lat="45.86365" lon="1.18613">
        <ele>383.4</ele>
        <time>2024-10-21T08:18:47Z</time>
      </trkpt>
      <trkpt lat="45.86364" lon="1.18611">
        <ele>383.4</ele>
        <time>2024-10-21T08:18:48Z</time>
      </trkpt>
      <trkpt lat="45.86362" lon="1.1861">
        <ele>383.2</ele>
        <time>2024-10-21T08:18:49Z</time>
      </trkpt>
      <trkpt lat="45.86361" lon="1.18609">
        <ele>383.2</ele>
        <time>2024-10-21T08:18:50Z</time>
      </trkpt>
      <trkpt lat="45.8636" lon="1.18609">
        <ele>383.2</ele>
        <time>2024-10-21T08:18:51Z</time>
      </trkpt>
      <trkpt lat="45.86358" lon="1.18607">
        <ele>383</ele>
        <time>2024-10-21T08:18:52Z</time>
      </trkpt>
      <trkpt lat="45.86356" lon="1.18605">
        <ele>382.9</ele>
        <time>2024-10-21T08:18:54Z</time>
      </trkpt>
      <trkpt lat="45.86355" lon="1.18605">
        <ele>382.9</ele>
        <time>2024-10-21T08:18:55Z</time>
      </trkpt>
      <trkpt lat="45.86354" lon="1.18604">
        <ele>382.8</ele>
        <time>2024-10-21T08:18:56Z</time>
      </trkpt>
      <trkpt lat="45.86352" lon="1.18602">
        <ele>382.8</ele>
        <time>2024-10-21T08:18:57Z</time>
      </trkpt>
      <trkpt lat="45.86351" lon="1.18601">
        <ele>382.7</ele>
        <time>2024-10-21T08:18:58Z</time>
      </trkpt>
      <trkpt lat="45.86351" lon="1.186">
        <ele>382.7</ele>
        <time>2024-10-21T08:18:59Z</time>
      </trkpt>
      <trkpt lat="45.86351" lon="1.186">
        <ele>382.7</ele>
        <time>2024-10-21T08:19:00Z</time>
      </trkpt>
      <trkpt lat="45.8635" lon="1.18598">
        <ele>382.6</ele>
        <time>2024-10-21T08:19:01Z</time>
      </trkpt>
      <trkpt lat="45.86349" lon="1.18597">
        <ele>382.6</ele>
        <time>2024-10-21T08:19:02Z</time>
      </trkpt>
      <trkpt lat="45.86347" lon="1.18596">
        <ele>382.5</ele>
        <time>2024-10-21T08:19:03Z</time>
      </trkpt>
      <trkpt lat="45.86346" lon="1.18596">
        <ele>382.5</ele>
        <time>2024-10-21T08:19:04Z</time>
      </trkpt>
      <trkpt lat="45.86346" lon="1.18596">
        <ele>382.5</ele>
        <time>2024-10-21T08:19:05Z</time>
      </trkpt>
      <trkpt lat="45.86344" lon="1.18594">
        <ele>382.4</ele>
        <time>2024-10-21T08:19:06Z</time>
      </trkpt>
      <trkpt lat="45.86343" lon="1.18593">
        <ele>382.4</ele>
        <time>2024-10-21T08:19:07Z</time>
      </trkpt>
      <trkpt lat="45.86342" lon="1.18593">
        <ele>382.3</ele>
        <time>2024-10-21T08:19:08Z</time>
      </trkpt>
      <trkpt lat="45.86341" lon="1.18591">
        <ele>382.3</ele>
        <time>2024-10-21T08:19:09Z</time>
      </trkpt>
      <trkpt lat="45.8634" lon="1.1859">
        <ele>382.3</ele>
        <time>2024-10-21T08:19:10Z</time>
      </trkpt>
      <trkpt lat="45.86339" lon="1.18589">
        <ele>382.2</ele>
        <time>2024-10-21T08:19:11Z</time>
      </trkpt>
      <trkpt lat="45.86338" lon="1.18587">
        <ele>382.2</ele>
        <time>2024-10-21T08:19:12Z</time>
      </trkpt>
      <trkpt lat="45.86336" lon="1.18586">
        <ele>382.2</ele>
        <time>2024-10-21T08:19:13Z</time>
      </trkpt>
      <trkpt lat="45.86335" lon="1.18585">
        <ele>382.1</ele>
        <time>2024-10-21T08:19:14Z</time>
      </trkpt>
      <trkpt lat="45.86334" lon="1.18585">
        <ele>382.1</ele>
        <time>2024-10-21T08:19:15Z</time>
      </trkpt>
      <trkpt lat="45.86333" lon="1.18583">
        <ele>382.1</ele>
        <time>2024-10-21T08:19:16Z</time>
      </trkpt>
      <trkpt lat="45.86332" lon="1.18582">
        <ele>382.1</ele>
        <time>2024-10-21T08:19:17Z</time>
      </trkpt>
      <trkpt lat="45.86331" lon="1.18581">
        <ele>382.1</ele>
        <time>2024-10-21T08:19:18Z</time>
      </trkpt>
      <trkpt lat="45.8633" lon="1.1858">
        <ele>382</ele>
        <time>2024-10-21T08:19:19Z</time>
      </trkpt>
      <trkpt lat="45.86329" lon="1.18579">
        <ele>382</ele>
        <time>2024-10-21T08:19:20Z</time>
      </trkpt>
      <trkpt lat="45.86328" lon="1.18578">
        <ele>382</ele>
        <time>2024-10-21T08:19:21Z</time>
      </trkpt>
      <trkpt lat="45.86328" lon="1.18576">
        <ele>382</ele>
        <time>2024-10-21T08:19:22Z</time>
      </trkpt>
      <trkpt lat="45.86326" lon="1.18575">
        <ele>382</ele>
        <time>2024-10-21T08:19:23Z</time>
      </trkpt>
      <trkpt lat="45.86325" lon="1.18573">
        <ele>382</ele>
        <time>2024-10-21T08:19:24Z</time>
      </trkpt>
      <trkpt lat="45.86324" lon="1.18572">
        <ele>382</ele>
        <time>2024-10-21T08:19:25Z</time>
      </trkpt>
      <trkpt lat="45.86324" lon="1.18571">
        <ele>382</ele>
        <time>2024-10-21T08:19:26Z</time>
      </trkpt>
      <trkpt lat="45.86322" lon="1.1857">
        <ele>382</ele>
        <time>2024-10-21T08:19:27Z</time>
      </trkpt>
      <trkpt lat="45.86321" lon="1.18568">
        <ele>382</ele>
        <time>2024-10-21T08:19:28Z</time>
      </trkpt>
      <trkpt lat="45.8632" lon="1.18566">
        <ele>382</ele>
        <time>2024-10-21T08:19:29Z</time>
      </trkpt>
      <trkpt lat="45.86319" lon="1.18566">
        <ele>382</ele>
        <time>2024-10-21T08:19:30Z</time>
      </trkpt>
      <trkpt lat="45.86318" lon="1.18565">
        <ele>382</ele>
        <time>2024-10-21T08:19:31Z</time>
      </trkpt>
      <trkpt lat="45.86317" lon="1.18563">
        <ele>382</ele>
        <time>2024-10-21T08:19:32Z</time>
      </trkpt>
      <trkpt lat="45.86316" lon="1.18561">
        <ele>382.1</ele>
        <time>2024-10-21T08:19:33Z</time>
      </trkpt>
      <trkpt lat="45.86315" lon="1.18559">
        <ele>382.1</ele>
        <time>2024-10-21T08:19:34Z</time>
      </trkpt>
      <trkpt lat="45.86315" lon="1.18558">
        <ele>382.1</ele>
        <time>2024-10-21T08:19:35Z</time>
      </trkpt>
      <trkpt lat="45.86313" lon="1.18556">
        <ele>382.1</ele>
        <time>2024-10-21T08:19:36Z</time>
      </trkpt>
      <trkpt lat="45.86312" lon="1.18555">
        <ele>382.1</ele>
        <time>2024-10-21T08:19:37Z</time>
      </trkpt>
      <trkpt lat="45.86311" lon="1.18553">
        <ele>382.2</ele>
        <time>2024-10-21T08:19:38Z</time>
      </trkpt>
      <trkpt lat="45.8631" lon="1.18553">
        <ele>382.2</ele>
        <time>2024-10-21T08:19:39Z</time>
      </trkpt>
      <trkpt lat="45.86308" lon="1.18551">
        <ele>382.2</ele>
        <time>2024-10-21T08:19:40Z</time>
      </trkpt>
      <trkpt lat="45.86307" lon="1.18551">
        <ele>382.3</ele>
        <time>2024-10-21T08:19:41Z</time>
      </trkpt>
      <trkpt lat="45.86307" lon="1.1855">
        <ele>382.3</ele>
        <time>2024-10-21T08:19:42Z</time>
      </trkpt>
      <trkpt lat="45.86305" lon="1.18549">
        <ele>382.3</ele>
        <time>2024-10-21T08:19:43Z</time>
      </trkpt>
      <trkpt lat="45.86304" lon="1.18548">
        <ele>382.4</ele>
        <time>2024-10-21T08:19:44Z</time>
      </trkpt>
      <trkpt lat="45.86303" lon="1.18547">
        <ele>382.4</ele>
        <time>2024-10-21T08:19:45Z</time>
      </trkpt>
      <trkpt lat="45.86301" lon="1.18545">
        <ele>382.5</ele>
        <time>2024-10-21T08:19:46Z</time>
      </trkpt>
      <trkpt lat="45.863" lon="1.18544">
        <ele>382.5</ele>
        <time>2024-10-21T08:19:47Z</time>
      </trkpt>
      <trkpt lat="45.863" lon="1.18544">
        <ele>382.5</ele>
        <time>2024-10-21T08:19:48Z</time>
      </trkpt>
      <trkpt lat="45.86299" lon="1.18543">
        <ele>382.6</ele>
        <time>2024-10-21T08:19:49Z</time>
      </trkpt>
      <trkpt lat="45.86298" lon="1.18543">
        <ele>382.6</ele>
        <time>2024-10-21T08:19:50Z</time>
      </trkpt>
      <trkpt lat="45.86298" lon="1.18542">
        <ele>382.6</ele>
        <time>2024-10-21T08:19:51Z</time>
      </trkpt>
      <trkpt lat="45.86296" lon="1.1854">
        <ele>382.7</ele>
        <time>2024-10-21T08:19:52Z</time>
      </trkpt>
      <trkpt lat="45.86295" lon="1.1854">
        <ele>382.7</ele>
        <time>2024-10-21T08:19:53Z</time>
      </trkpt>
      <trkpt lat="45.86294" lon="1.18539">
        <ele>382.8</ele>
        <time>2024-10-21T08:19:54Z</time>
      </trkpt>
      <trkpt lat="45.86294" lon="1.18539">
        <ele>382.8</ele>
        <time>2024-10-21T08:19:55Z</time>
      </trkpt>
      <trkpt lat="45.86293" lon="1.18538">
        <ele>382.9</ele>
        <time>2024-10-21T08:19:56Z</time>
      </trkpt>
      <trkpt lat="45.86292" lon="1.18537">
        <ele>382.9</ele>
        <time>2024-10-21T08:19:57Z</time>
      </trkpt>
      <trkpt lat="45.86291" lon="1.18536">
        <ele>383</ele>
        <time>2024-10-21T08:19:58Z</time>
      </trkpt>
      <trkpt lat="45.8629" lon="1.18535">
        <ele>383</ele>
        <time>2024-10-21T08:19:59Z</time>
      </trkpt>
      <trkpt lat="45.86289" lon="1.18534">
        <ele>383.1</ele>
        <time>2024-10-21T08:20:00Z</time>
      </trkpt>
      <trkpt lat="45.86287" lon="1.18532">
        <ele>383.2</ele>
        <time>2024-10-21T08:20:01Z</time>
      </trkpt>
      <trkpt lat="45.86286" lon="1.18532">
        <ele>383.2</ele>
        <time>2024-10-21T08:20:02Z</time>
      </trkpt>
      <trkpt lat="45.86286" lon="1.18532">
        <ele>383.3</ele>
        <time>2024-10-21T08:20:03Z</time>
      </trkpt>
      <trkpt lat="45.86285" lon="1.18531">
        <ele>383.3</ele>
        <time>2024-10-21T08:20:04Z</time>
      </trkpt>
      <trkpt lat="45.86285" lon="1.1853">
        <ele>383.3</ele>
        <time>2024-10-21T08:20:05Z</time>
      </trkpt>
      <trkpt lat="45.86284" lon="1.1853">
        <ele>383.4</ele>
        <time>2024-10-21T08:20:06Z</time>
      </trkpt>
      <trkpt lat="45.86283" lon="1.18529">
        <ele>383.4</ele>
        <time>2024-10-21T08:20:07Z</time>
      </trkpt>
      <trkpt lat="45.8628" lon="1.18528">
        <ele>383.6</ele>
        <time>2024-10-21T08:20:08Z</time>
      </trkpt>
      <trkpt lat="45.86279" lon="1.18527">
        <ele>383.6</ele>
        <time>2024-10-21T08:20:09Z</time>
      </trkpt>
      <trkpt lat="45.86279" lon="1.18527">
        <ele>383.6</ele>
        <time>2024-10-21T08:20:10Z</time>
      </trkpt>
      <trkpt lat="45.86278" lon="1.18527">
        <ele>383.7</ele>
        <time>2024-10-21T08:20:11Z</time>
      </trkpt>
      <trkpt lat="45.86278" lon="1.18526">
        <ele>383.7</ele>
        <time>2024-10-21T08:20:12Z</time>
      </trkpt>
      <trkpt lat="45.86277" lon="1.18526">
        <ele>383.7</ele>
        <time>2024-10-21T08:20:13Z</time>
      </trkpt>
      <trkpt lat="45.86277" lon="1.18527">
        <ele>383.8</ele>
        <time>2024-10-21T08:20:14Z</time>
      </trkpt>
      <trkpt lat="45.86277" lon="1.18527">
        <ele>383.8</ele>
        <time>2024-10-21T08:20:15Z</time>
      </trkpt>
      <trkpt lat="45.86277" lon="1.18527">
        <ele>383.8</ele>
        <time>2024-10-21T08:20:16Z</time>
      </trkpt>
      <trkpt lat="45.86278" lon="1.18527">
        <ele>383.8</ele>
        <time>2024-10-21T08:20:17Z</time>
      </trkpt>
      <trkpt lat="45.86279" lon="1.18528">
        <ele>383.9</ele>
        <time>2024-10-21T08:20:18Z</time>
      </trkpt>
      <trkpt lat="45.86279" lon="1.18528">
        <ele>383.9</ele>
        <time>2024-10-21T08:20:19Z</time>
      </trkpt>
      <trkpt lat="45.8628" lon="1.18528">
        <ele>383.9</ele>
        <time>2024-10-21T08:20:20Z</time>
      </trkpt>
      <trkpt lat="45.8628" lon="1.18529">
        <ele>383.9</ele>
        <time>2024-10-21T08:20:21Z</time>
      </trkpt>
      <trkpt lat="45.8628" lon="1.18529">
        <ele>384</ele>
        <time>2024-10-21T08:20:22Z</time>
      </trkpt>
      <trkpt lat="45.86281" lon="1.18529">
        <ele>384</ele>
        <time>2024-10-21T08:20:23Z</time>
      </trkpt>
      <trkpt lat="45.86281" lon="1.18529">
        <ele>384</ele>
        <time>2024-10-21T08:20:24Z</time>
      </trkpt>
      <trkpt lat="45.86281" lon="1.1853">
        <ele>384</ele>
        <time>2024-10-21T08:20:25Z</time>
      </trkpt>
      <trkpt lat="45.86281" lon="1.1853">
        <ele>384</ele>
        <time>2024-10-21T08:20:26Z</time>
      </trkpt>
      <trkpt lat="45.86281" lon="1.1853">
        <ele>384</ele>
        <time>2024-10-21T08:20:27Z</time>
      </trkpt>
      <trkpt lat="45.8628" lon="1.18529">
        <ele>384.1</ele>
        <time>2024-10-21T08:20:28Z</time>
      </trkpt>
      <trkpt lat="45.86278" lon="1.18528">
        <ele>384.2</ele>
        <time>2024-10-21T08:20:29Z</time>
      </trkpt>
      <trkpt lat="45.86275" lon="1.18527">
        <ele>384.3</ele>
        <time>2024-10-21T08:20:30Z</time>
      </trkpt>
      <trkpt lat="45.86274" lon="1.18526">
        <ele>384.4</ele>
        <time>2024-10-21T08:20:31Z</time>
      </trkpt>
      <trkpt lat="45.86273" lon="1.18526">
        <ele>384.5</ele>
        <time>2024-10-21T08:20:32Z</time>
      </trkpt>
      <trkpt lat="45.86272" lon="1.18526">
        <ele>384.5</ele>
        <time>2024-10-21T08:20:33Z</time>
      </trkpt>
      <trkpt lat="45.86271" lon="1.18526">
        <ele>384.6</ele>
        <time>2024-10-21T08:20:34Z</time>
      </trkpt>
      <trkpt lat="45.8627" lon="1.18526">
        <ele>384.6</ele>
        <time>2024-10-21T08:20:35Z</time>
      </trkpt>
      <trkpt lat="45.86269" lon="1.18526">
        <ele>384.7</ele>
        <time>2024-10-21T08:20:36Z</time>
      </trkpt>
      <trkpt lat="45.86266" lon="1.18525">
        <ele>384.8</ele>
        <time>2024-10-21T08:20:37Z</time>
      </trkpt>
      <trkpt lat="45.86266" lon="1.18524">
        <ele>384.9</ele>
        <time>2024-10-21T08:20:38Z</time>
      </trkpt>
      <trkpt lat="45.86265" lon="1.18523">
        <ele>384.9</ele>
        <time>2024-10-21T08:20:39Z</time>
      </trkpt>
      <trkpt lat="45.86264" lon="1.18523">
        <ele>385</ele>
        <time>2024-10-21T08:20:40Z</time>
      </trkpt>
      <trkpt lat="45.86264" lon="1.18521">
        <ele>385</ele>
        <time>2024-10-21T08:20:41Z</time>
      </trkpt>
      <trkpt lat="45.86263" lon="1.18519">
        <ele>385.1</ele>
        <time>2024-10-21T08:20:42Z</time>
      </trkpt>
      <trkpt lat="45.86261" lon="1.18517">
        <ele>385.2</ele>
        <time>2024-10-21T08:20:43Z</time>
      </trkpt>
      <trkpt lat="45.86261" lon="1.18516">
        <ele>385.3</ele>
        <time>2024-10-21T08:20:44Z</time>
      </trkpt>
      <trkpt lat="45.8626" lon="1.18515">
        <ele>385.3</ele>
        <time>2024-10-21T08:20:45Z</time>
      </trkpt>
      <trkpt lat="45.86259" lon="1.18513">
        <ele>385.4</ele>
        <time>2024-10-21T08:20:46Z</time>
      </trkpt>
      <trkpt lat="45.86258" lon="1.18511">
        <ele>385.5</ele>
        <time>2024-10-21T08:20:47Z</time>
      </trkpt>
      <trkpt lat="45.86256" lon="1.18509">
        <ele>385.6</ele>
        <time>2024-10-21T08:20:48Z</time>
      </trkpt>
      <trkpt lat="45.86256" lon="1.18509">
        <ele>385.6</ele>
        <time>2024-10-21T08:20:49Z</time>
      </trkpt>
      <trkpt lat="45.86255" lon="1.18508">
        <ele>385.7</ele>
        <time>2024-10-21T08:20:50Z</time>
      </trkpt>
      <trkpt lat="45.86254" lon="1.18507">
        <ele>385.7</ele>
        <time>2024-10-21T08:20:51Z</time>
      </trkpt>
      <trkpt lat="45.86253" lon="1.18506">
        <ele>385.8</ele>
        <time>2024-10-21T08:20:52Z</time>
      </trkpt>
      <trkpt lat="45.86253" lon="1.18506">
        <ele>385.8</ele>
        <time>2024-10-21T08:20:53Z</time>
      </trkpt>
      <trkpt lat="45.86252" lon="1.18506">
        <ele>385.8</ele>
        <time>2024-10-21T08:20:54Z</time>
      </trkpt>
      <trkpt lat="45.86252" lon="1.18506">
        <ele>385.8</ele>
        <time>2024-10-21T08:20:55Z</time>
      </trkpt>
      <trkpt lat="45.86251" lon="1.18506">
        <ele>385.9</ele>
        <time>2024-10-21T08:20:56Z</time>
      </trkpt>
      <trkpt lat="45.86251" lon="1.18505">
        <ele>385.9</ele>
        <time>2024-10-21T08:20:57Z</time>
      </trkpt>
      <trkpt lat="45.86251" lon="1.18505">
        <ele>385.9</ele>
        <time>2024-10-21T08:20:58Z</time>
      </trkpt>
      <trkpt lat="45.8625" lon="1.18505">
        <ele>385.9</ele>
        <time>2024-10-21T08:20:59Z</time>
      </trkpt>
      <trkpt lat="45.8625" lon="1.18505">
        <ele>385.9</ele>
        <time>2024-10-21T08:21:00Z</time>
      </trkpt>
      <trkpt lat="45.86249" lon="1.18505">
        <ele>386</ele>
        <time>2024-10-21T08:21:01Z</time>
      </trkpt>
      <trkpt lat="45.86249" lon="1.18505">
        <ele>386</ele>
        <time>2024-10-21T08:21:02Z</time>
      </trkpt>
      <trkpt lat="45.86245" lon="1.18504">
        <ele>386.1</ele>
        <time>2024-10-21T08:21:03Z</time>
      </trkpt>
      <trkpt lat="45.86244" lon="1.18504">
        <ele>386.2</ele>
        <time>2024-10-21T08:21:04Z</time>
      </trkpt>
      <trkpt lat="45.86242" lon="1.18504">
        <ele>386.3</ele>
        <time>2024-10-21T08:21:06Z</time>
      </trkpt>
      <trkpt lat="45.86241" lon="1.18504">
        <ele>386.3</ele>
        <time>2024-10-21T08:21:07Z</time>
      </trkpt>
      <trkpt lat="45.86239" lon="1.18503">
        <ele>386.4</ele>
        <time>2024-10-21T08:21:08Z</time>
      </trkpt>
      <trkpt lat="45.86238" lon="1.18503">
        <ele>386.4</ele>
        <time>2024-10-21T08:21:09Z</time>
      </trkpt>
      <trkpt lat="45.86237" lon="1.18503">
        <ele>386.5</ele>
        <time>2024-10-21T08:21:10Z</time>
      </trkpt>
      <trkpt lat="45.86236" lon="1.18503">
        <ele>386.6</ele>
        <time>2024-10-21T08:21:11Z</time>
      </trkpt>
      <trkpt lat="45.86235" lon="1.18503">
        <ele>386.6</ele>
        <time>2024-10-21T08:21:12Z</time>
      </trkpt>
      <trkpt lat="45.86234" lon="1.18502">
        <ele>386.6</ele>
        <time>2024-10-21T08:21:13Z</time>
      </trkpt>
      <trkpt lat="45.86233" lon="1.18502">
        <ele>386.7</ele>
        <time>2024-10-21T08:21:14Z</time>
      </trkpt>
      <trkpt lat="45.86232" lon="1.18503">
        <ele>386.7</ele>
        <time>2024-10-21T08:21:15Z</time>
      </trkpt>
      <trkpt lat="45.86231" lon="1.18503">
        <ele>386.8</ele>
        <time>2024-10-21T08:21:16Z</time>
      </trkpt>
      <trkpt lat="45.8623" lon="1.18504">
        <ele>386.8</ele>
        <time>2024-10-21T08:21:17Z</time>
      </trkpt>
      <trkpt lat="45.86229" lon="1.18505">
        <ele>386.9</ele>
        <time>2024-10-21T08:21:18Z</time>
      </trkpt>
      <trkpt lat="45.86228" lon="1.18506">
        <ele>386.9</ele>
        <time>2024-10-21T08:21:19Z</time>
      </trkpt>
      <trkpt lat="45.86227" lon="1.18508">
        <ele>387</ele>
        <time>2024-10-21T08:21:20Z</time>
      </trkpt>
      <trkpt lat="45.86226" lon="1.18509">
        <ele>387</ele>
        <time>2024-10-21T08:21:21Z</time>
      </trkpt>
      <trkpt lat="45.86225" lon="1.1851">
        <ele>387.1</ele>
        <time>2024-10-21T08:21:22Z</time>
      </trkpt>
      <trkpt lat="45.86224" lon="1.18511">
        <ele>387.1</ele>
        <time>2024-10-21T08:21:23Z</time>
      </trkpt>
      <trkpt lat="45.86223" lon="1.18512">
        <ele>387.1</ele>
        <time>2024-10-21T08:21:24Z</time>
      </trkpt>
      <trkpt lat="45.86222" lon="1.18513">
        <ele>387.2</ele>
        <time>2024-10-21T08:21:25Z</time>
      </trkpt>
      <trkpt lat="45.86221" lon="1.18514">
        <ele>387.2</ele>
        <time>2024-10-21T08:21:26Z</time>
      </trkpt>
      <trkpt lat="45.8622" lon="1.18515">
        <ele>387.2</ele>
        <time>2024-10-21T08:21:27Z</time>
      </trkpt>
      <trkpt lat="45.8622" lon="1.18515">
        <ele>387.2</ele>
        <time>2024-10-21T08:21:28Z</time>
      </trkpt>
      <trkpt lat="45.86219" lon="1.18516">
        <ele>387.3</ele>
        <time>2024-10-21T08:21:29Z</time>
      </trkpt>
      <trkpt lat="45.86217" lon="1.18517">
        <ele>387.3</ele>
        <time>2024-10-21T08:21:30Z</time>
      </trkpt>
      <trkpt lat="45.86216" lon="1.18517">
        <ele>387.4</ele>
        <time>2024-10-21T08:21:31Z</time>
      </trkpt>
      <trkpt lat="45.86215" lon="1.18517">
        <ele>387.4</ele>
        <time>2024-10-21T08:21:32Z</time>
      </trkpt>
      <trkpt lat="45.86214" lon="1.18518">
        <ele>387.4</ele>
        <time>2024-10-21T08:21:33Z</time>
      </trkpt>
      <trkpt lat="45.86213" lon="1.18516">
        <ele>387.5</ele>
        <time>2024-10-21T08:21:34Z</time>
      </trkpt>
      <trkpt lat="45.86212" lon="1.18514">
        <ele>387.5</ele>
        <time>2024-10-21T08:21:35Z</time>
      </trkpt>
      <trkpt lat="45.86211" lon="1.18512">
        <ele>387.5</ele>
        <time>2024-10-21T08:21:36Z</time>
      </trkpt>
      <trkpt lat="45.86209" lon="1.18509">
        <ele>387.5</ele>
        <time>2024-10-21T08:21:37Z</time>
      </trkpt>
      <trkpt lat="45.86209" lon="1.18508">
        <ele>387.6</ele>
        <time>2024-10-21T08:21:38Z</time>
      </trkpt>
      <trkpt lat="45.86208" lon="1.18506">
        <ele>387.6</ele>
        <time>2024-10-21T08:21:39Z</time>
      </trkpt>
      <trkpt lat="45.86208" lon="1.18504">
        <ele>387.6</ele>
        <time>2024-10-21T08:21:40Z</time>
      </trkpt>
      <trkpt lat="45.86207" lon="1.18502">
        <ele>387.6</ele>
        <time>2024-10-21T08:21:41Z</time>
      </trkpt>
      <trkpt lat="45.86206" lon="1.185">
        <ele>387.6</ele>
        <time>2024-10-21T08:21:42Z</time>
      </trkpt>
      <trkpt lat="45.86206" lon="1.185">
        <ele>387.6</ele>
        <time>2024-10-21T08:21:43Z</time>
      </trkpt>
      <trkpt lat="45.86205" lon="1.18499">
        <ele>387.6</ele>
        <time>2024-10-21T08:21:44Z</time>
      </trkpt>
      <trkpt lat="45.86205" lon="1.18498">
        <ele>387.6</ele>
        <time>2024-10-21T08:21:45Z</time>
      </trkpt>
      <trkpt lat="45.86204" lon="1.18498">
        <ele>387.6</ele>
        <time>2024-10-21T08:21:46Z</time>
      </trkpt>
      <trkpt lat="45.86203" lon="1.18497">
        <ele>387.6</ele>
        <time>2024-10-21T08:21:47Z</time>
      </trkpt>
      <trkpt lat="45.86202" lon="1.18497">
        <ele>387.6</ele>
        <time>2024-10-21T08:21:48Z</time>
      </trkpt>
      <trkpt lat="45.86202" lon="1.18496">
        <ele>387.6</ele>
        <time>2024-10-21T08:21:49Z</time>
      </trkpt>
      <trkpt lat="45.86203" lon="1.18496">
        <ele>387.6</ele>
        <time>2024-10-21T08:21:50Z</time>
      </trkpt>
      <trkpt lat="45.86205" lon="1.18496">
        <ele>387.6</ele>
        <time>2024-10-21T08:21:51Z</time>
      </trkpt>
      <trkpt lat="45.86205" lon="1.18497">
        <ele>387.5</ele>
        <time>2024-10-21T08:21:52Z</time>
      </trkpt>
      <trkpt lat="45.86206" lon="1.18497">
        <ele>387.5</ele>
        <time>2024-10-21T08:21:53Z</time>
      </trkpt>
      <trkpt lat="45.86206" lon="1.18497">
        <ele>387.5</ele>
        <time>2024-10-21T08:21:54Z</time>
      </trkpt>
      <trkpt lat="45.86206" lon="1.18498">
        <ele>387.5</ele>
        <time>2024-10-21T08:21:55Z</time>
      </trkpt>
      <trkpt lat="45.86206" lon="1.18498">
        <ele>387.5</ele>
        <time>2024-10-21T08:21:56Z</time>
      </trkpt>
      <trkpt lat="45.86206" lon="1.18498">
        <ele>387.5</ele>
        <time>2024-10-21T08:21:57Z</time>
      </trkpt>
      <trkpt lat="45.86205" lon="1.18499">
        <ele>387.5</ele>
        <time>2024-10-21T08:21:58Z</time>
      </trkpt>
      <trkpt lat="45.86205" lon="1.185">
        <ele>387.5</ele>
        <time>2024-10-21T08:21:59Z</time>
      </trkpt>
      <trkpt lat="45.86205" lon="1.18501">
        <ele>387.5</ele>
        <time>2024-10-21T08:22:00Z</time>
      </trkpt>
      <trkpt lat="45.86204" lon="1.18501">
        <ele>387.5</ele>
        <time>2024-10-21T08:22:01Z</time>
      </trkpt>
      <trkpt lat="45.86202" lon="1.18501">
        <ele>387.5</ele>
        <time>2024-10-21T08:22:02Z</time>
      </trkpt>
      <trkpt lat="45.86201" lon="1.185">
        <ele>387.5</ele>
        <time>2024-10-21T08:22:03Z</time>
      </trkpt>
      <trkpt lat="45.86198" lon="1.18499">
        <ele>387.5</ele>
        <time>2024-10-21T08:22:04Z</time>
      </trkpt>
      <trkpt lat="45.86197" lon="1.18499">
        <ele>387.5</ele>
        <time>2024-10-21T08:22:05Z</time>
      </trkpt>
      <trkpt lat="45.86194" lon="1.185">
        <ele>387.4</ele>
        <time>2024-10-21T08:22:06Z</time>
      </trkpt>
      <trkpt lat="45.86193" lon="1.18501">
        <ele>387.4</ele>
        <time>2024-10-21T08:22:07Z</time>
      </trkpt>
      <trkpt lat="45.8619" lon="1.18504">
        <ele>387.4</ele>
        <time>2024-10-21T08:22:08Z</time>
      </trkpt>
      <trkpt lat="45.86189" lon="1.18505">
        <ele>387.4</ele>
        <time>2024-10-21T08:22:09Z</time>
      </trkpt>
      <trkpt lat="45.86186" lon="1.18507">
        <ele>387.4</ele>
        <time>2024-10-21T08:22:10Z</time>
      </trkpt>
      <trkpt lat="45.86185" lon="1.18508">
        <ele>387.3</ele>
        <time>2024-10-21T08:22:11Z</time>
      </trkpt>
      <trkpt lat="45.86183" lon="1.18511">
        <ele>387.3</ele>
        <time>2024-10-21T08:22:12Z</time>
      </trkpt>
      <trkpt lat="45.86182" lon="1.18512">
        <ele>387.3</ele>
        <time>2024-10-21T08:22:13Z</time>
      </trkpt>
      <trkpt lat="45.8618" lon="1.18514">
        <ele>387.3</ele>
        <time>2024-10-21T08:22:14Z</time>
      </trkpt>
      <trkpt lat="45.86179" lon="1.18515">
        <ele>387.3</ele>
        <time>2024-10-21T08:22:15Z</time>
      </trkpt>
      <trkpt lat="45.86178" lon="1.18517">
        <ele>387.3</ele>
        <time>2024-10-21T08:22:16Z</time>
      </trkpt>
      <trkpt lat="45.86176" lon="1.18519">
        <ele>387.3</ele>
        <time>2024-10-21T08:22:17Z</time>
      </trkpt>
      <trkpt lat="45.86174" lon="1.18522">
        <ele>387.3</ele>
        <time>2024-10-21T08:22:18Z</time>
      </trkpt>
      <trkpt lat="45.86173" lon="1.18524">
        <ele>387.2</ele>
        <time>2024-10-21T08:22:19Z</time>
      </trkpt>
      <trkpt lat="45.86171" lon="1.18526">
        <ele>387.2</ele>
        <time>2024-10-21T08:22:20Z</time>
      </trkpt>
      <trkpt lat="45.8617" lon="1.18527">
        <ele>387.2</ele>
        <time>2024-10-21T08:22:21Z</time>
      </trkpt>
      <trkpt lat="45.8617" lon="1.18527">
        <ele>387.2</ele>
        <time>2024-10-21T08:22:22Z</time>
      </trkpt>
      <trkpt lat="45.86169" lon="1.18529">
        <ele>387.2</ele>
        <time>2024-10-21T08:22:23Z</time>
      </trkpt>
      <trkpt lat="45.86167" lon="1.1853">
        <ele>387.2</ele>
        <time>2024-10-21T08:22:24Z</time>
      </trkpt>
      <trkpt lat="45.86166" lon="1.18531">
        <ele>387.2</ele>
        <time>2024-10-21T08:22:25Z</time>
      </trkpt>
      <trkpt lat="45.86165" lon="1.18531">
        <ele>387.2</ele>
        <time>2024-10-21T08:22:26Z</time>
      </trkpt>
      <trkpt lat="45.86164" lon="1.18533">
        <ele>387.2</ele>
        <time>2024-10-21T08:22:27Z</time>
      </trkpt>
      <trkpt lat="45.86163" lon="1.18534">
        <ele>387.2</ele>
        <time>2024-10-21T08:22:28Z</time>
      </trkpt>
      <trkpt lat="45.86162" lon="1.18534">
        <ele>387.2</ele>
        <time>2024-10-21T08:22:29Z</time>
      </trkpt>
      <trkpt lat="45.86161" lon="1.18535">
        <ele>387.2</ele>
        <time>2024-10-21T08:22:30Z</time>
      </trkpt>
      <trkpt lat="45.8616" lon="1.18535">
        <ele>387.2</ele>
        <time>2024-10-21T08:22:31Z</time>
      </trkpt>
      <trkpt lat="45.86159" lon="1.18534">
        <ele>387.2</ele>
        <time>2024-10-21T08:22:32Z</time>
      </trkpt>
      <trkpt lat="45.86158" lon="1.18535">
        <ele>387.2</ele>
        <time>2024-10-21T08:22:33Z</time>
      </trkpt>
      <trkpt lat="45.86157" lon="1.18536">
        <ele>387.2</ele>
        <time>2024-10-21T08:22:34Z</time>
      </trkpt>
      <trkpt lat="45.86156" lon="1.18535">
        <ele>387.2</ele>
        <time>2024-10-21T08:22:35Z</time>
      </trkpt>
      <trkpt lat="45.86156" lon="1.18536">
        <ele>387.2</ele>
        <time>2024-10-21T08:22:36Z</time>
      </trkpt>
      <trkpt lat="45.86155" lon="1.18536">
        <ele>387.2</ele>
        <time>2024-10-21T08:22:37Z</time>
      </trkpt>
      <trkpt lat="45.86154" lon="1.18536">
        <ele>387.2</ele>
        <time>2024-10-21T08:22:38Z</time>
      </trkpt>
      <trkpt lat="45.86153" lon="1.18535">
        <ele>387.2</ele>
        <time>2024-10-21T08:22:40Z</time>
      </trkpt>
      <trkpt lat="45.86151" lon="1.18535">
        <ele>387.2</ele>
        <time>2024-10-21T08:22:41Z</time>
      </trkpt>
      <trkpt lat="45.8615" lon="1.18534">
        <ele>387.2</ele>
        <time>2024-10-21T08:22:42Z</time>
      </trkpt>
      <trkpt lat="45.8615" lon="1.18533">
        <ele>387.2</ele>
        <time>2024-10-21T08:22:43Z</time>
      </trkpt>
      <trkpt lat="45.86149" lon="1.18533">
        <ele>387.2</ele>
        <time>2024-10-21T08:22:44Z</time>
      </trkpt>
      <trkpt lat="45.86148" lon="1.18532">
        <ele>387.2</ele>
        <time>2024-10-21T08:22:45Z</time>
      </trkpt>
      <trkpt lat="45.86146" lon="1.18532">
        <ele>387.3</ele>
        <time>2024-10-21T08:22:46Z</time>
      </trkpt>
      <trkpt lat="45.86146" lon="1.18533">
        <ele>387.3</ele>
        <time>2024-10-21T08:22:47Z</time>
      </trkpt>
      <trkpt lat="45.86146" lon="1.18535">
        <ele>387.3</ele>
        <time>2024-10-21T08:22:48Z</time>
      </trkpt>
      <trkpt lat="45.86146" lon="1.18537">
        <ele>387.3</ele>
        <time>2024-10-21T08:22:49Z</time>
      </trkpt>
      <trkpt lat="45.86144" lon="1.18537">
        <ele>387.3</ele>
        <time>2024-10-21T08:22:50Z</time>
      </trkpt>
      <trkpt lat="45.86142" lon="1.18535">
        <ele>387.4</ele>
        <time>2024-10-21T08:22:51Z</time>
      </trkpt>
      <trkpt lat="45.86141" lon="1.18534">
        <ele>387.4</ele>
        <time>2024-10-21T08:22:52Z</time>
      </trkpt>
      <trkpt lat="45.86141" lon="1.18532">
        <ele>387.4</ele>
        <time>2024-10-21T08:22:53Z</time>
      </trkpt>
      <trkpt lat="45.8614" lon="1.1853">
        <ele>387.4</ele>
        <time>2024-10-21T08:22:54Z</time>
      </trkpt>
      <trkpt lat="45.86139" lon="1.18528">
        <ele>387.5</ele>
        <time>2024-10-21T08:22:55Z</time>
      </trkpt>
      <trkpt lat="45.86137" lon="1.18527">
        <ele>387.5</ele>
        <time>2024-10-21T08:22:56Z</time>
      </trkpt>
      <trkpt lat="45.86136" lon="1.18525">
        <ele>387.6</ele>
        <time>2024-10-21T08:22:57Z</time>
      </trkpt>
      <trkpt lat="45.86135" lon="1.18524">
        <ele>387.6</ele>
        <time>2024-10-21T08:22:58Z</time>
      </trkpt>
      <trkpt lat="45.86135" lon="1.18523">
        <ele>387.7</ele>
        <time>2024-10-21T08:22:59Z</time>
      </trkpt>
      <trkpt lat="45.86134" lon="1.18522">
        <ele>387.7</ele>
        <time>2024-10-21T08:23:00Z</time>
      </trkpt>
      <trkpt lat="45.86133" lon="1.1852">
        <ele>387.7</ele>
        <time>2024-10-21T08:23:01Z</time>
      </trkpt>
      <trkpt lat="45.86133" lon="1.18519">
        <ele>387.8</ele>
        <time>2024-10-21T08:23:02Z</time>
      </trkpt>
      <trkpt lat="45.86132" lon="1.18518">
        <ele>387.8</ele>
        <time>2024-10-21T08:23:03Z</time>
      </trkpt>
      <trkpt lat="45.86132" lon="1.18517">
        <ele>387.8</ele>
        <time>2024-10-21T08:23:04Z</time>
      </trkpt>
      <trkpt lat="45.86131" lon="1.18515">
        <ele>387.9</ele>
        <time>2024-10-21T08:23:05Z</time>
      </trkpt>
      <trkpt lat="45.8613" lon="1.18514">
        <ele>387.9</ele>
        <time>2024-10-21T08:23:06Z</time>
      </trkpt>
      <trkpt lat="45.86129" lon="1.18512">
        <ele>388</ele>
        <time>2024-10-21T08:23:07Z</time>
      </trkpt>
      <trkpt lat="45.86129" lon="1.18511">
        <ele>388</ele>
        <time>2024-10-21T08:23:08Z</time>
      </trkpt>
      <trkpt lat="45.8613" lon="1.1851">
        <ele>388.1</ele>
        <time>2024-10-21T08:23:10Z</time>
      </trkpt>
      <trkpt lat="45.8613" lon="1.18508">
        <ele>388.1</ele>
        <time>2024-10-21T08:23:11Z</time>
      </trkpt>
      <trkpt lat="45.86131" lon="1.18507">
        <ele>388.1</ele>
        <time>2024-10-21T08:23:12Z</time>
      </trkpt>
      <trkpt lat="45.86129" lon="1.18501">
        <ele>388.3</ele>
        <time>2024-10-21T08:23:13Z</time>
      </trkpt>
      <trkpt lat="45.86129" lon="1.18499">
        <ele>388.4</ele>
        <time>2024-10-21T08:23:14Z</time>
      </trkpt>
      <trkpt lat="45.86127" lon="1.18495">
        <ele>388.6</ele>
        <time>2024-10-21T08:23:15Z</time>
      </trkpt>
      <trkpt lat="45.86127" lon="1.18494">
        <ele>388.6</ele>
        <time>2024-10-21T08:23:16Z</time>
      </trkpt>
      <trkpt lat="45.86125" lon="1.1849">
        <ele>388.7</ele>
        <time>2024-10-21T08:23:17Z</time>
      </trkpt>
      <trkpt lat="45.86125" lon="1.18489">
        <ele>388.8</ele>
        <time>2024-10-21T08:23:18Z</time>
      </trkpt>
      <trkpt lat="45.86124" lon="1.18487">
        <ele>388.9</ele>
        <time>2024-10-21T08:23:19Z</time>
      </trkpt>
      <trkpt lat="45.86123" lon="1.18486">
        <ele>388.9</ele>
        <time>2024-10-21T08:23:20Z</time>
      </trkpt>
      <trkpt lat="45.86122" lon="1.18485">
        <ele>389</ele>
        <time>2024-10-21T08:23:21Z</time>
      </trkpt>
      <trkpt lat="45.86121" lon="1.18484">
        <ele>389.1</ele>
        <time>2024-10-21T08:23:22Z</time>
      </trkpt>
      <trkpt lat="45.86119" lon="1.18481">
        <ele>389.2</ele>
        <time>2024-10-21T08:23:23Z</time>
      </trkpt>
      <trkpt lat="45.86119" lon="1.18481">
        <ele>389.2</ele>
        <time>2024-10-21T08:23:24Z</time>
      </trkpt>
      <trkpt lat="45.86118" lon="1.18479">
        <ele>389.3</ele>
        <time>2024-10-21T08:23:25Z</time>
      </trkpt>
      <trkpt lat="45.86117" lon="1.18477">
        <ele>389.4</ele>
        <time>2024-10-21T08:23:26Z</time>
      </trkpt>
      <trkpt lat="45.86116" lon="1.18475">
        <ele>389.5</ele>
        <time>2024-10-21T08:23:27Z</time>
      </trkpt>
      <trkpt lat="45.86114" lon="1.18474">
        <ele>389.6</ele>
        <time>2024-10-21T08:23:28Z</time>
      </trkpt>
      <trkpt lat="45.86112" lon="1.18472">
        <ele>389.7</ele>
        <time>2024-10-21T08:23:29Z</time>
      </trkpt>
      <trkpt lat="45.8611" lon="1.1847">
        <ele>389.8</ele>
        <time>2024-10-21T08:23:30Z</time>
      </trkpt>
      <trkpt lat="45.86109" lon="1.18468">
        <ele>389.9</ele>
        <time>2024-10-21T08:23:31Z</time>
      </trkpt>
      <trkpt lat="45.86109" lon="1.18468">
        <ele>389.9</ele>
        <time>2024-10-21T08:23:32Z</time>
      </trkpt>
      <trkpt lat="45.86108" lon="1.18466">
        <ele>390</ele>
        <time>2024-10-21T08:23:33Z</time>
      </trkpt>
      <trkpt lat="45.86107" lon="1.18464">
        <ele>390</ele>
        <time>2024-10-21T08:23:34Z</time>
      </trkpt>
      <trkpt lat="45.86106" lon="1.18462">
        <ele>390.1</ele>
        <time>2024-10-21T08:23:35Z</time>
      </trkpt>
      <trkpt lat="45.86106" lon="1.18461">
        <ele>390.2</ele>
        <time>2024-10-21T08:23:36Z</time>
      </trkpt>
      <trkpt lat="45.86104" lon="1.18458">
        <ele>390.3</ele>
        <time>2024-10-21T08:23:37Z</time>
      </trkpt>
      <trkpt lat="45.86104" lon="1.18457">
        <ele>390.3</ele>
        <time>2024-10-21T08:23:38Z</time>
      </trkpt>
      <trkpt lat="45.86104" lon="1.18455">
        <ele>390.3</ele>
        <time>2024-10-21T08:23:39Z</time>
      </trkpt>
      <trkpt lat="45.86103" lon="1.18455">
        <ele>390.4</ele>
        <time>2024-10-21T08:23:40Z</time>
      </trkpt>
      <trkpt lat="45.86104" lon="1.18455">
        <ele>390.4</ele>
        <time>2024-10-21T08:23:41Z</time>
      </trkpt>
      <trkpt lat="45.86104" lon="1.18455">
        <ele>390.4</ele>
        <time>2024-10-21T08:23:42Z</time>
      </trkpt>
      <trkpt lat="45.86104" lon="1.18455">
        <ele>390.4</ele>
        <time>2024-10-21T08:23:43Z</time>
      </trkpt>
      <trkpt lat="45.86104" lon="1.18455">
        <ele>390.4</ele>
        <time>2024-10-21T08:23:44Z</time>
      </trkpt>
      <trkpt lat="45.86105" lon="1.18455">
        <ele>390.4</ele>
        <time>2024-10-21T08:23:45Z</time>
      </trkpt>
      <trkpt lat="45.86105" lon="1.18455">
        <ele>390.4</ele>
        <time>2024-10-21T08:23:46Z</time>
      </trkpt>
      <trkpt lat="45.86105" lon="1.18455">
        <ele>390.4</ele>
        <time>2024-10-21T08:23:47Z</time>
      </trkpt>
      <trkpt lat="45.86105" lon="1.18455">
        <ele>390.4</ele>
        <time>2024-10-21T08:23:48Z</time>
      </trkpt>
      <trkpt lat="45.86105" lon="1.18455">
        <ele>390.4</ele>
        <time>2024-10-21T08:23:49Z</time>
      </trkpt>
      <trkpt lat="45.86106" lon="1.18455">
        <ele>390.4</ele>
        <time>2024-10-21T08:23:50Z</time>
      </trkpt>
      <trkpt lat="45.86106" lon="1.18455">
        <ele>390.5</ele>
        <time>2024-10-21T08:23:51Z</time>
      </trkpt>
      <trkpt lat="45.86106" lon="1.18455">
        <ele>390.5</ele>
        <time>2024-10-21T08:23:52Z</time>
      </trkpt>
      <trkpt lat="45.86106" lon="1.18455">
        <ele>390.5</ele>
        <time>2024-10-21T08:23:53Z</time>
      </trkpt>
      <trkpt lat="45.86106" lon="1.18455">
        <ele>390.5</ele>
        <time>2024-10-21T08:23:54Z</time>
      </trkpt>
      <trkpt lat="45.86107" lon="1.18455">
        <ele>390.5</ele>
        <time>2024-10-21T08:23:55Z</time>
      </trkpt>
      <trkpt lat="45.86107" lon="1.18455">
        <ele>390.5</ele>
        <time>2024-10-21T08:23:56Z</time>
      </trkpt>
      <trkpt lat="45.86107" lon="1.18455">
        <ele>390.5</ele>
        <time>2024-10-21T08:23:57Z</time>
      </trkpt>
      <trkpt lat="45.86107" lon="1.18455">
        <ele>390.5</ele>
        <time>2024-10-21T08:23:58Z</time>
      </trkpt>
      <trkpt lat="45.86107" lon="1.18455">
        <ele>390.5</ele>
        <time>2024-10-21T08:23:59Z</time>
      </trkpt>
      <trkpt lat="45.86108" lon="1.18455">
        <ele>390.6</ele>
        <time>2024-10-21T08:24:00Z</time>
      </trkpt>
      <trkpt lat="45.86109" lon="1.18455">
        <ele>390.6</ele>
        <time>2024-10-21T08:24:01Z</time>
      </trkpt>
      <trkpt lat="45.86109" lon="1.18455">
        <ele>390.6</ele>
        <time>2024-10-21T08:24:02Z</time>
      </trkpt>
      <trkpt lat="45.86109" lon="1.18455">
        <ele>390.6</ele>
        <time>2024-10-21T08:24:03Z</time>
      </trkpt>
      <trkpt lat="45.86109" lon="1.18455">
        <ele>390.6</ele>
        <time>2024-10-21T08:24:04Z</time>
      </trkpt>
      <trkpt lat="45.86109" lon="1.18455">
        <ele>390.6</ele>
        <time>2024-10-21T08:24:05Z</time>
      </trkpt>
      <trkpt lat="45.86109" lon="1.18455">
        <ele>390.6</ele>
        <time>2024-10-21T08:24:06Z</time>
      </trkpt>
      <trkpt lat="45.86109" lon="1.18455">
        <ele>390.6</ele>
        <time>2024-10-21T08:24:07Z</time>
      </trkpt>
      <trkpt lat="45.86109" lon="1.18455">
        <ele>390.6</ele>
        <time>2024-10-21T08:24:08Z</time>
      </trkpt>
      <trkpt lat="45.86109" lon="1.18455">
        <ele>390.6</ele>
        <time>2024-10-21T08:24:09Z</time>
      </trkpt>
      <trkpt lat="45.86109" lon="1.18455">
        <ele>390.6</ele>
        <time>2024-10-21T08:24:10Z</time>
      </trkpt>
      <trkpt lat="45.86109" lon="1.18455">
        <ele>390.6</ele>
        <time>2024-10-21T08:24:11Z</time>
      </trkpt>
      <trkpt lat="45.86109" lon="1.18455">
        <ele>390.6</ele>
        <time>2024-10-21T08:24:12Z</time>
      </trkpt>
      <trkpt lat="45.86109" lon="1.18455">
        <ele>390.6</ele>
        <time>2024-10-21T08:24:13Z</time>
      </trkpt>
      <trkpt lat="45.86109" lon="1.18455">
        <ele>390.6</ele>
        <time>2024-10-21T08:24:14Z</time>
      </trkpt>
      <trkpt lat="45.86108" lon="1.18455">
        <ele>390.6</ele>
        <time>2024-10-21T08:24:15Z</time>
      </trkpt>
      <trkpt lat="45.86108" lon="1.18455">
        <ele>390.6</ele>
        <time>2024-10-21T08:24:16Z</time>
      </trkpt>
      <trkpt lat="45.86108" lon="1.18455">
        <ele>390.6</ele>
        <time>2024-10-21T08:24:17Z</time>
      </trkpt>
      <trkpt lat="45.86108" lon="1.18455">
        <ele>390.6</ele>
        <time>2024-10-21T08:24:18Z</time>
      </trkpt>
      <trkpt lat="45.86108" lon="1.18455">
        <ele>390.6</ele>
        <time>2024-10-21T08:24:19Z</time>
      </trkpt>
      <trkpt lat="45.86108" lon="1.18455">
        <ele>390.6</ele>
        <time>2024-10-21T08:24:20Z</time>
      </trkpt>
      <trkpt lat="45.86108" lon="1.18455">
        <ele>390.6</ele>
        <time>2024-10-21T08:24:21Z</time>
      </trkpt>
      <trkpt lat="45.86108" lon="1.18455">
        <ele>390.6</ele>
        <time>2024-10-21T08:24:22Z</time>
      </trkpt>
      <trkpt lat="45.86108" lon="1.18455">
        <ele>390.6</ele>
        <time>2024-10-21T08:24:23Z</time>
      </trkpt>
      <trkpt lat="45.86108" lon="1.18455">
        <ele>390.6</ele>
        <time>2024-10-21T08:24:24Z</time>
      </trkpt>
      <trkpt lat="45.86108" lon="1.18455">
        <ele>390.6</ele>
        <time>2024-10-21T08:24:25Z</time>
      </trkpt>
      <trkpt lat="45.86108" lon="1.18455">
        <ele>390.6</ele>
        <time>2024-10-21T08:24:26Z</time>
      </trkpt>
      <trkpt lat="45.86105" lon="1.18453">
        <ele>390.7</ele>
        <time>2024-10-21T08:24:27Z</time>
      </trkpt>
      <trkpt lat="45.86103" lon="1.18453">
        <ele>390.7</ele>
        <time>2024-10-21T08:24:28Z</time>
      </trkpt>
      <trkpt lat="45.86102" lon="1.18453">
        <ele>390.8</ele>
        <time>2024-10-21T08:24:29Z</time>
      </trkpt>
      <trkpt lat="45.86102" lon="1.18453">
        <ele>390.8</ele>
        <time>2024-10-21T08:24:30Z</time>
      </trkpt>
      <trkpt lat="45.86102" lon="1.18453">
        <ele>390.8</ele>
        <time>2024-10-21T08:24:31Z</time>
      </trkpt>
      <trkpt lat="45.86103" lon="1.18453">
        <ele>390.8</ele>
        <time>2024-10-21T08:24:32Z</time>
      </trkpt>
      <trkpt lat="45.86103" lon="1.18454">
        <ele>390.9</ele>
        <time>2024-10-21T08:24:33Z</time>
      </trkpt>
      <trkpt lat="45.86103" lon="1.18455">
        <ele>390.9</ele>
        <time>2024-10-21T08:24:34Z</time>
      </trkpt>
      <trkpt lat="45.86103" lon="1.18456">
        <ele>390.9</ele>
        <time>2024-10-21T08:24:35Z</time>
      </trkpt>
      <trkpt lat="45.86102" lon="1.18457">
        <ele>390.9</ele>
        <time>2024-10-21T08:24:36Z</time>
      </trkpt>
      <trkpt lat="45.86102" lon="1.18458">
        <ele>390.9</ele>
        <time>2024-10-21T08:24:37Z</time>
      </trkpt>
      <trkpt lat="45.86102" lon="1.18459">
        <ele>391</ele>
        <time>2024-10-21T08:24:38Z</time>
      </trkpt>
      <trkpt lat="45.86101" lon="1.18461">
        <ele>391</ele>
        <time>2024-10-21T08:24:39Z</time>
      </trkpt>
      <trkpt lat="45.861" lon="1.18462">
        <ele>391</ele>
        <time>2024-10-21T08:24:40Z</time>
      </trkpt>
      <trkpt lat="45.86099" lon="1.18462">
        <ele>391.1</ele>
        <time>2024-10-21T08:24:41Z</time>
      </trkpt>
      <trkpt lat="45.86098" lon="1.18462">
        <ele>391.1</ele>
        <time>2024-10-21T08:24:42Z</time>
      </trkpt>
      <trkpt lat="45.86097" lon="1.18461">
        <ele>391.1</ele>
        <time>2024-10-21T08:24:43Z</time>
      </trkpt>
      <trkpt lat="45.86096" lon="1.18461">
        <ele>391.1</ele>
        <time>2024-10-21T08:24:44Z</time>
      </trkpt>
      <trkpt lat="45.86095" lon="1.18461">
        <ele>391.2</ele>
        <time>2024-10-21T08:24:45Z</time>
      </trkpt>
      <trkpt lat="45.86094" lon="1.18461">
        <ele>391.2</ele>
        <time>2024-10-21T08:24:46Z</time>
      </trkpt>
      <trkpt lat="45.86093" lon="1.18461">
        <ele>391.2</ele>
        <time>2024-10-21T08:24:47Z</time>
      </trkpt>
      <trkpt lat="45.86092" lon="1.18462">
        <ele>391.2</ele>
        <time>2024-10-21T08:24:48Z</time>
      </trkpt>
      <trkpt lat="45.86091" lon="1.18462">
        <ele>391.2</ele>
        <time>2024-10-21T08:24:49Z</time>
      </trkpt>
      <trkpt lat="45.86089" lon="1.18463">
        <ele>391.2</ele>
        <time>2024-10-21T08:24:50Z</time>
      </trkpt>
      <trkpt lat="45.86088" lon="1.18461">
        <ele>391.2</ele>
        <time>2024-10-21T08:24:51Z</time>
      </trkpt>
      <trkpt lat="45.86088" lon="1.18461">
        <ele>391.2</ele>
        <time>2024-10-21T08:24:52Z</time>
      </trkpt>
      <trkpt lat="45.86086" lon="1.18462">
        <ele>391.2</ele>
        <time>2024-10-21T08:24:53Z</time>
      </trkpt>
      <trkpt lat="45.86086" lon="1.18461">
        <ele>391.2</ele>
        <time>2024-10-21T08:24:54Z</time>
      </trkpt>
      <trkpt lat="45.86086" lon="1.18459">
        <ele>391.2</ele>
        <time>2024-10-21T08:24:55Z</time>
      </trkpt>
      <trkpt lat="45.86085" lon="1.18458">
        <ele>391.2</ele>
        <time>2024-10-21T08:24:56Z</time>
      </trkpt>
      <trkpt lat="45.86083" lon="1.1846">
        <ele>391.2</ele>
        <time>2024-10-21T08:24:57Z</time>
      </trkpt>
      <trkpt lat="45.86083" lon="1.18462">
        <ele>391.1</ele>
        <time>2024-10-21T08:24:58Z</time>
      </trkpt>
      <trkpt lat="45.86081" lon="1.18465">
        <ele>391.1</ele>
        <time>2024-10-21T08:24:59Z</time>
      </trkpt>
      <trkpt lat="45.86081" lon="1.18467">
        <ele>391</ele>
        <time>2024-10-21T08:25:00Z</time>
      </trkpt>
      <trkpt lat="45.86078" lon="1.1847">
        <ele>390.9</ele>
        <time>2024-10-21T08:25:01Z</time>
      </trkpt>
      <trkpt lat="45.86077" lon="1.18471">
        <ele>390.8</ele>
        <time>2024-10-21T08:25:02Z</time>
      </trkpt>
      <trkpt lat="45.86076" lon="1.18471">
        <ele>390.8</ele>
        <time>2024-10-21T08:25:03Z</time>
      </trkpt>
      <trkpt lat="45.86075" lon="1.18472">
        <ele>390.7</ele>
        <time>2024-10-21T08:25:04Z</time>
      </trkpt>
      <trkpt lat="45.86073" lon="1.18474">
        <ele>390.6</ele>
        <time>2024-10-21T08:25:05Z</time>
      </trkpt>
      <trkpt lat="45.86071" lon="1.18475">
        <ele>390.6</ele>
        <time>2024-10-21T08:25:06Z</time>
      </trkpt>
      <trkpt lat="45.86071" lon="1.18475">
        <ele>390.5</ele>
        <time>2024-10-21T08:25:08Z</time>
      </trkpt>
      <trkpt lat="45.86071" lon="1.18475">
        <ele>390.5</ele>
        <time>2024-10-21T08:25:09Z</time>
      </trkpt>
      <trkpt lat="45.8607" lon="1.18476">
        <ele>390.4</ele>
        <time>2024-10-21T08:25:10Z</time>
      </trkpt>
      <trkpt lat="45.86069" lon="1.18477">
        <ele>390.4</ele>
        <time>2024-10-21T08:25:11Z</time>
      </trkpt>
      <trkpt lat="45.8607" lon="1.18478">
        <ele>390.3</ele>
        <time>2024-10-21T08:25:12Z</time>
      </trkpt>
      <trkpt lat="45.8607" lon="1.18479">
        <ele>390.2</ele>
        <time>2024-10-21T08:25:13Z</time>
      </trkpt>
      <trkpt lat="45.8607" lon="1.1848">
        <ele>390.2</ele>
        <time>2024-10-21T08:25:14Z</time>
      </trkpt>
      <trkpt lat="45.8607" lon="1.18482">
        <ele>390.1</ele>
        <time>2024-10-21T08:25:15Z</time>
      </trkpt>
      <trkpt lat="45.86068" lon="1.18484">
        <ele>390</ele>
        <time>2024-10-21T08:25:16Z</time>
      </trkpt>
      <trkpt lat="45.86068" lon="1.18485">
        <ele>389.9</ele>
        <time>2024-10-21T08:25:18Z</time>
      </trkpt>
      <trkpt lat="45.86068" lon="1.18486">
        <ele>389.9</ele>
        <time>2024-10-21T08:25:19Z</time>
      </trkpt>
      <trkpt lat="45.86067" lon="1.18487">
        <ele>389.8</ele>
        <time>2024-10-21T08:25:20Z</time>
      </trkpt>
      <trkpt lat="45.86067" lon="1.18488">
        <ele>389.7</ele>
        <time>2024-10-21T08:25:21Z</time>
      </trkpt>
      <trkpt lat="45.86066" lon="1.1849">
        <ele>389.6</ele>
        <time>2024-10-21T08:25:22Z</time>
      </trkpt>
      <trkpt lat="45.86066" lon="1.1849">
        <ele>389.6</ele>
        <time>2024-10-21T08:25:23Z</time>
      </trkpt>
      <trkpt lat="45.86065" lon="1.18491">
        <ele>389.6</ele>
        <time>2024-10-21T08:25:24Z</time>
      </trkpt>
      <trkpt lat="45.86062" lon="1.1849">
        <ele>389.4</ele>
        <time>2024-10-21T08:25:25Z</time>
      </trkpt>
      <trkpt lat="45.8606" lon="1.18488">
        <ele>389.2</ele>
        <time>2024-10-21T08:25:26Z</time>
      </trkpt>
      <trkpt lat="45.86057" lon="1.18486">
        <ele>389</ele>
        <time>2024-10-21T08:25:27Z</time>
      </trkpt>
      <trkpt lat="45.86056" lon="1.18486">
        <ele>388.9</ele>
        <time>2024-10-21T08:25:28Z</time>
      </trkpt>
      <trkpt lat="45.86054" lon="1.18485">
        <ele>388.8</ele>
        <time>2024-10-21T08:25:29Z</time>
      </trkpt>
      <trkpt lat="45.86053" lon="1.18485">
        <ele>388.7</ele>
        <time>2024-10-21T08:25:30Z</time>
      </trkpt>
      <trkpt lat="45.8605" lon="1.18486">
        <ele>388.5</ele>
        <time>2024-10-21T08:25:31Z</time>
      </trkpt>
      <trkpt lat="45.86049" lon="1.18487">
        <ele>388.4</ele>
        <time>2024-10-21T08:25:32Z</time>
      </trkpt>
      <trkpt lat="45.86048" lon="1.18488">
        <ele>388.3</ele>
        <time>2024-10-21T08:25:33Z</time>
      </trkpt>
      <trkpt lat="45.86046" lon="1.18488">
        <ele>388.2</ele>
        <time>2024-10-21T08:25:34Z</time>
      </trkpt>
      <trkpt lat="45.86044" lon="1.18489">
        <ele>388.1</ele>
        <time>2024-10-21T08:25:35Z</time>
      </trkpt>
      <trkpt lat="45.86043" lon="1.1849">
        <ele>388</ele>
        <time>2024-10-21T08:25:36Z</time>
      </trkpt>
      <trkpt lat="45.86041" lon="1.1849">
        <ele>387.9</ele>
        <time>2024-10-21T08:25:37Z</time>
      </trkpt>
      <trkpt lat="45.8604" lon="1.18491">
        <ele>387.8</ele>
        <time>2024-10-21T08:25:38Z</time>
      </trkpt>
      <trkpt lat="45.86038" lon="1.18492">
        <ele>387.7</ele>
        <time>2024-10-21T08:25:39Z</time>
      </trkpt>
      <trkpt lat="45.86037" lon="1.18492">
        <ele>387.6</ele>
        <time>2024-10-21T08:25:40Z</time>
      </trkpt>
      <trkpt lat="45.86035" lon="1.18491">
        <ele>387.5</ele>
        <time>2024-10-21T08:25:41Z</time>
      </trkpt>
      <trkpt lat="45.86034" lon="1.18492">
        <ele>387.4</ele>
        <time>2024-10-21T08:25:42Z</time>
      </trkpt>
      <trkpt lat="45.86031" lon="1.18494">
        <ele>387.2</ele>
        <time>2024-10-21T08:25:43Z</time>
      </trkpt>
      <trkpt lat="45.8603" lon="1.18494">
        <ele>387.2</ele>
        <time>2024-10-21T08:25:44Z</time>
      </trkpt>
      <trkpt lat="45.86031" lon="1.18492">
        <ele>387.1</ele>
        <time>2024-10-21T08:25:45Z</time>
      </trkpt>
      <trkpt lat="45.86031" lon="1.1849">
        <ele>387</ele>
        <time>2024-10-21T08:25:46Z</time>
      </trkpt>
      <trkpt lat="45.86031" lon="1.18488">
        <ele>387</ele>
        <time>2024-10-21T08:25:47Z</time>
      </trkpt>
      <trkpt lat="45.8603" lon="1.18488">
        <ele>386.9</ele>
        <time>2024-10-21T08:25:48Z</time>
      </trkpt>
      <trkpt lat="45.86028" lon="1.18489">
        <ele>386.8</ele>
        <time>2024-10-21T08:25:49Z</time>
      </trkpt>
      <trkpt lat="45.86026" lon="1.18491">
        <ele>386.7</ele>
        <time>2024-10-21T08:25:50Z</time>
      </trkpt>
      <trkpt lat="45.86025" lon="1.18493">
        <ele>386.6</ele>
        <time>2024-10-21T08:25:51Z</time>
      </trkpt>
      <trkpt lat="45.86024" lon="1.18495">
        <ele>386.5</ele>
        <time>2024-10-21T08:25:52Z</time>
      </trkpt>
      <trkpt lat="45.86023" lon="1.18497">
        <ele>386.4</ele>
        <time>2024-10-21T08:25:53Z</time>
      </trkpt>
      <trkpt lat="45.86022" lon="1.18498">
        <ele>386.4</ele>
        <time>2024-10-21T08:25:54Z</time>
      </trkpt>
      <trkpt lat="45.8602" lon="1.185">
        <ele>386.3</ele>
        <time>2024-10-21T08:25:55Z</time>
      </trkpt>
      <trkpt lat="45.86019" lon="1.185">
        <ele>386.2</ele>
        <time>2024-10-21T08:25:56Z</time>
      </trkpt>
      <trkpt lat="45.86018" lon="1.185">
        <ele>386.2</ele>
        <time>2024-10-21T08:25:57Z</time>
      </trkpt>
      <trkpt lat="45.86016" lon="1.185">
        <ele>386.1</ele>
        <time>2024-10-21T08:25:58Z</time>
      </trkpt>
      <trkpt lat="45.86015" lon="1.185">
        <ele>386.1</ele>
        <time>2024-10-21T08:25:59Z</time>
      </trkpt>
      <trkpt lat="45.86014" lon="1.185">
        <ele>386</ele>
        <time>2024-10-21T08:26:00Z</time>
      </trkpt>
      <trkpt lat="45.86011" lon="1.18499">
        <ele>385.9</ele>
        <time>2024-10-21T08:26:01Z</time>
      </trkpt>
      <trkpt lat="45.8601" lon="1.18499">
        <ele>385.9</ele>
        <time>2024-10-21T08:26:02Z</time>
      </trkpt>
      <trkpt lat="45.86009" lon="1.18498">
        <ele>385.8</ele>
        <time>2024-10-21T08:26:03Z</time>
      </trkpt>
      <trkpt lat="45.86008" lon="1.18497">
        <ele>385.8</ele>
        <time>2024-10-21T08:26:04Z</time>
      </trkpt>
      <trkpt lat="45.86005" lon="1.18495">
        <ele>385.7</ele>
        <time>2024-10-21T08:26:05Z</time>
      </trkpt>
      <trkpt lat="45.86004" lon="1.18494">
        <ele>385.6</ele>
        <time>2024-10-21T08:26:06Z</time>
      </trkpt>
      <trkpt lat="45.86002" lon="1.18493">
        <ele>385.6</ele>
        <time>2024-10-21T08:26:07Z</time>
      </trkpt>
      <trkpt lat="45.86001" lon="1.18493">
        <ele>385.5</ele>
        <time>2024-10-21T08:26:08Z</time>
      </trkpt>
      <trkpt lat="45.85999" lon="1.18495">
        <ele>385.4</ele>
        <time>2024-10-21T08:26:10Z</time>
      </trkpt>
      <trkpt lat="45.85998" lon="1.18496">
        <ele>385.4</ele>
        <time>2024-10-21T08:26:11Z</time>
      </trkpt>
      <trkpt lat="45.85997" lon="1.18497">
        <ele>385.4</ele>
        <time>2024-10-21T08:26:12Z</time>
      </trkpt>
      <trkpt lat="45.85997" lon="1.18497">
        <ele>385.3</ele>
        <time>2024-10-21T08:26:13Z</time>
      </trkpt>
      <trkpt lat="45.85996" lon="1.18498">
        <ele>385.3</ele>
        <time>2024-10-21T08:26:14Z</time>
      </trkpt>
      <trkpt lat="45.85995" lon="1.18498">
        <ele>385.3</ele>
        <time>2024-10-21T08:26:15Z</time>
      </trkpt>
      <trkpt lat="45.85995" lon="1.18498">
        <ele>385.3</ele>
        <time>2024-10-21T08:26:16Z</time>
      </trkpt>
      <trkpt lat="45.85995" lon="1.18498">
        <ele>385.3</ele>
        <time>2024-10-21T08:26:17Z</time>
      </trkpt>
      <trkpt lat="45.85994" lon="1.18498">
        <ele>385.3</ele>
        <time>2024-10-21T08:26:18Z</time>
      </trkpt>
      <trkpt lat="45.85992" lon="1.18497">
        <ele>385.2</ele>
        <time>2024-10-21T08:26:19Z</time>
      </trkpt>
      <trkpt lat="45.85991" lon="1.18497">
        <ele>385.2</ele>
        <time>2024-10-21T08:26:20Z</time>
      </trkpt>
      <trkpt lat="45.8599" lon="1.18497">
        <ele>385.2</ele>
        <time>2024-10-21T08:26:21Z</time>
      </trkpt>
      <trkpt lat="45.85989" lon="1.18496">
        <ele>385.1</ele>
        <time>2024-10-21T08:26:22Z</time>
      </trkpt>
      <trkpt lat="45.85988" lon="1.18496">
        <ele>385.1</ele>
        <time>2024-10-21T08:26:23Z</time>
      </trkpt>
      <trkpt lat="45.85985" lon="1.18494">
        <ele>385</ele>
        <time>2024-10-21T08:26:24Z</time>
      </trkpt>
      <trkpt lat="45.85984" lon="1.18493">
        <ele>385</ele>
        <time>2024-10-21T08:26:25Z</time>
      </trkpt>
      <trkpt lat="45.85983" lon="1.18493">
        <ele>385</ele>
        <time>2024-10-21T08:26:26Z</time>
      </trkpt>
      <trkpt lat="45.85982" lon="1.18493">
        <ele>385</ele>
        <time>2024-10-21T08:26:27Z</time>
      </trkpt>
      <trkpt lat="45.85982" lon="1.18493">
        <ele>384.9</ele>
        <time>2024-10-21T08:26:28Z</time>
      </trkpt>
      <trkpt lat="45.85981" lon="1.18494">
        <ele>384.9</ele>
        <time>2024-10-21T08:26:29Z</time>
      </trkpt>
      <trkpt lat="45.85981" lon="1.18494">
        <ele>384.9</ele>
        <time>2024-10-21T08:26:30Z</time>
      </trkpt>
      <trkpt lat="45.8598" lon="1.18494">
        <ele>384.9</ele>
        <time>2024-10-21T08:26:32Z</time>
      </trkpt>
      <trkpt lat="45.8598" lon="1.18495">
        <ele>384.9</ele>
        <time>2024-10-21T08:26:33Z</time>
      </trkpt>
      <trkpt lat="45.8598" lon="1.18495">
        <ele>384.9</ele>
        <time>2024-10-21T08:26:34Z</time>
      </trkpt>
      <trkpt lat="45.8598" lon="1.18495">
        <ele>384.9</ele>
        <time>2024-10-21T08:26:35Z</time>
      </trkpt>
      <trkpt lat="45.85981" lon="1.18496">
        <ele>384.9</ele>
        <time>2024-10-21T08:26:36Z</time>
      </trkpt>
      <trkpt lat="45.85981" lon="1.18496">
        <ele>384.9</ele>
        <time>2024-10-21T08:26:37Z</time>
      </trkpt>
      <trkpt lat="45.85981" lon="1.18496">
        <ele>384.9</ele>
        <time>2024-10-21T08:26:38Z</time>
      </trkpt>
      <trkpt lat="45.85981" lon="1.18497">
        <ele>384.9</ele>
        <time>2024-10-21T08:26:39Z</time>
      </trkpt>
      <trkpt lat="45.85981" lon="1.18497">
        <ele>384.9</ele>
        <time>2024-10-21T08:26:40Z</time>
      </trkpt>
      <trkpt lat="45.85981" lon="1.18497">
        <ele>384.9</ele>
        <time>2024-10-21T08:26:41Z</time>
      </trkpt>
      <trkpt lat="45.85981" lon="1.18497">
        <ele>384.9</ele>
        <time>2024-10-21T08:26:42Z</time>
      </trkpt>
      <trkpt lat="45.85981" lon="1.18497">
        <ele>384.9</ele>
        <time>2024-10-21T08:26:43Z</time>
      </trkpt>
      <trkpt lat="45.85982" lon="1.18497">
        <ele>384.8</ele>
        <time>2024-10-21T08:26:44Z</time>
      </trkpt>
      <trkpt lat="45.85983" lon="1.18498">
        <ele>384.8</ele>
        <time>2024-10-21T08:26:45Z</time>
      </trkpt>
      <trkpt lat="45.85983" lon="1.18498">
        <ele>384.8</ele>
        <time>2024-10-21T08:26:46Z</time>
      </trkpt>
      <trkpt lat="45.85984" lon="1.18498">
        <ele>384.8</ele>
        <time>2024-10-21T08:26:47Z</time>
      </trkpt>
      <trkpt lat="45.85984" lon="1.18498">
        <ele>384.8</ele>
        <time>2024-10-21T08:26:48Z</time>
      </trkpt>
      <trkpt lat="45.85985" lon="1.18498">
        <ele>384.8</ele>
        <time>2024-10-21T08:26:49Z</time>
      </trkpt>
      <trkpt lat="45.85986" lon="1.18497">
        <ele>384.8</ele>
        <time>2024-10-21T08:26:50Z</time>
      </trkpt>
      <trkpt lat="45.85986" lon="1.18496">
        <ele>384.7</ele>
        <time>2024-10-21T08:26:51Z</time>
      </trkpt>
      <trkpt lat="45.85985" lon="1.18495">
        <ele>384.7</ele>
        <time>2024-10-21T08:26:52Z</time>
      </trkpt>
      <trkpt lat="45.85985" lon="1.18493">
        <ele>384.7</ele>
        <time>2024-10-21T08:26:53Z</time>
      </trkpt>
      <trkpt lat="45.85984" lon="1.18492">
        <ele>384.7</ele>
        <time>2024-10-21T08:26:54Z</time>
      </trkpt>
      <trkpt lat="45.85983" lon="1.18492">
        <ele>384.7</ele>
        <time>2024-10-21T08:26:55Z</time>
      </trkpt>
      <trkpt lat="45.85982" lon="1.18491">
        <ele>384.6</ele>
        <time>2024-10-21T08:26:56Z</time>
      </trkpt>
      <trkpt lat="45.85982" lon="1.18489">
        <ele>384.6</ele>
        <time>2024-10-21T08:26:57Z</time>
      </trkpt>
      <trkpt lat="45.85982" lon="1.18488">
        <ele>384.6</ele>
        <time>2024-10-21T08:26:58Z</time>
      </trkpt>
      <trkpt lat="45.85983" lon="1.18485">
        <ele>384.6</ele>
        <time>2024-10-21T08:26:59Z</time>
      </trkpt>
      <trkpt lat="45.85983" lon="1.18483">
        <ele>384.6</ele>
        <time>2024-10-21T08:27:00Z</time>
      </trkpt>
      <trkpt lat="45.85983" lon="1.18482">
        <ele>384.5</ele>
        <time>2024-10-21T08:27:01Z</time>
      </trkpt>
      <trkpt lat="45.85973" lon="1.18503">
        <ele>384.3</ele>
        <time>2024-10-21T08:27:02Z</time>
      </trkpt>
      <trkpt lat="45.85973" lon="1.18503">
        <ele>384.3</ele>
        <time>2024-10-21T08:27:03Z</time>
      </trkpt>
      <trkpt lat="45.85971" lon="1.18503">
        <ele>384.3</ele>
        <time>2024-10-21T08:27:04Z</time>
      </trkpt>
      <trkpt lat="45.85969" lon="1.18504">
        <ele>384.3</ele>
        <time>2024-10-21T08:27:06Z</time>
      </trkpt>
      <trkpt lat="45.85968" lon="1.18505">
        <ele>384.3</ele>
        <time>2024-10-21T08:27:07Z</time>
      </trkpt>
      <trkpt lat="45.85967" lon="1.18505">
        <ele>384.3</ele>
        <time>2024-10-21T08:27:08Z</time>
      </trkpt>
      <trkpt lat="45.85966" lon="1.18506">
        <ele>384.3</ele>
        <time>2024-10-21T08:27:09Z</time>
      </trkpt>
      <trkpt lat="45.85966" lon="1.18506">
        <ele>384.3</ele>
        <time>2024-10-21T08:27:10Z</time>
      </trkpt>
      <trkpt lat="45.85964" lon="1.18506">
        <ele>384.3</ele>
        <time>2024-10-21T08:27:11Z</time>
      </trkpt>
      <trkpt lat="45.85963" lon="1.18507">
        <ele>384.3</ele>
        <time>2024-10-21T08:27:12Z</time>
      </trkpt>
      <trkpt lat="45.85962" lon="1.18507">
        <ele>384.3</ele>
        <time>2024-10-21T08:27:13Z</time>
      </trkpt>
      <trkpt lat="45.85961" lon="1.18507">
        <ele>384.2</ele>
        <time>2024-10-21T08:27:14Z</time>
      </trkpt>
      <trkpt lat="45.8596" lon="1.18507">
        <ele>384.2</ele>
        <time>2024-10-21T08:27:15Z</time>
      </trkpt>
      <trkpt lat="45.85959" lon="1.18508">
        <ele>384.2</ele>
        <time>2024-10-21T08:27:16Z</time>
      </trkpt>
      <trkpt lat="45.85957" lon="1.18508">
        <ele>384.1</ele>
        <time>2024-10-21T08:27:17Z</time>
      </trkpt>
      <trkpt lat="45.85957" lon="1.18508">
        <ele>384.1</ele>
        <time>2024-10-21T08:27:18Z</time>
      </trkpt>
      <trkpt lat="45.85956" lon="1.18509">
        <ele>384.1</ele>
        <time>2024-10-21T08:27:19Z</time>
      </trkpt>
      <trkpt lat="45.85955" lon="1.18509">
        <ele>384.1</ele>
        <time>2024-10-21T08:27:20Z</time>
      </trkpt>
      <trkpt lat="45.85954" lon="1.1851">
        <ele>384.1</ele>
        <time>2024-10-21T08:27:21Z</time>
      </trkpt>
      <trkpt lat="45.85953" lon="1.18511">
        <ele>384</ele>
        <time>2024-10-21T08:27:22Z</time>
      </trkpt>
      <trkpt lat="45.85952" lon="1.18512">
        <ele>384</ele>
        <time>2024-10-21T08:27:23Z</time>
      </trkpt>
      <trkpt lat="45.85951" lon="1.18513">
        <ele>384</ele>
        <time>2024-10-21T08:27:24Z</time>
      </trkpt>
      <trkpt lat="45.8595" lon="1.18514">
        <ele>383.9</ele>
        <time>2024-10-21T08:27:25Z</time>
      </trkpt>
      <trkpt lat="45.85949" lon="1.18515">
        <ele>383.9</ele>
        <time>2024-10-21T08:27:26Z</time>
      </trkpt>
      <trkpt lat="45.85948" lon="1.18515">
        <ele>383.9</ele>
        <time>2024-10-21T08:27:27Z</time>
      </trkpt>
      <trkpt lat="45.85947" lon="1.18516">
        <ele>383.9</ele>
        <time>2024-10-21T08:27:28Z</time>
      </trkpt>
      <trkpt lat="45.85946" lon="1.18517">
        <ele>383.8</ele>
        <time>2024-10-21T08:27:29Z</time>
      </trkpt>
      <trkpt lat="45.85945" lon="1.18518">
        <ele>383.8</ele>
        <time>2024-10-21T08:27:30Z</time>
      </trkpt>
      <trkpt lat="45.85945" lon="1.18519">
        <ele>383.8</ele>
        <time>2024-10-21T08:27:31Z</time>
      </trkpt>
      <trkpt lat="45.85945" lon="1.1852">
        <ele>383.8</ele>
        <time>2024-10-21T08:27:32Z</time>
      </trkpt>
      <trkpt lat="45.85944" lon="1.18521">
        <ele>383.8</ele>
        <time>2024-10-21T08:27:33Z</time>
      </trkpt>
      <trkpt lat="45.85943" lon="1.18523">
        <ele>383.7</ele>
        <time>2024-10-21T08:27:34Z</time>
      </trkpt>
      <trkpt lat="45.85942" lon="1.18524">
        <ele>383.7</ele>
        <time>2024-10-21T08:27:35Z</time>
      </trkpt>
      <trkpt lat="45.85941" lon="1.18525">
        <ele>383.7</ele>
        <time>2024-10-21T08:27:36Z</time>
      </trkpt>
      <trkpt lat="45.8594" lon="1.18526">
        <ele>383.6</ele>
        <time>2024-10-21T08:27:37Z</time>
      </trkpt>
      <trkpt lat="45.85938" lon="1.18528">
        <ele>383.6</ele>
        <time>2024-10-21T08:27:38Z</time>
      </trkpt>
      <trkpt lat="45.85937" lon="1.18529">
        <ele>383.5</ele>
        <time>2024-10-21T08:27:39Z</time>
      </trkpt>
      <trkpt lat="45.85936" lon="1.1853">
        <ele>383.5</ele>
        <time>2024-10-21T08:27:40Z</time>
      </trkpt>
      <trkpt lat="45.85933" lon="1.18532">
        <ele>383.4</ele>
        <time>2024-10-21T08:27:41Z</time>
      </trkpt>
      <trkpt lat="45.85932" lon="1.18533">
        <ele>383.4</ele>
        <time>2024-10-21T08:27:42Z</time>
      </trkpt>
      <trkpt lat="45.85931" lon="1.18534">
        <ele>383.4</ele>
        <time>2024-10-21T08:27:43Z</time>
      </trkpt>
      <trkpt lat="45.85931" lon="1.18534">
        <ele>383.4</ele>
        <time>2024-10-21T08:27:44Z</time>
      </trkpt>
      <trkpt lat="45.85929" lon="1.18536">
        <ele>383.3</ele>
        <time>2024-10-21T08:27:45Z</time>
      </trkpt>
      <trkpt lat="45.85928" lon="1.18537">
        <ele>383.3</ele>
        <time>2024-10-21T08:27:46Z</time>
      </trkpt>
      <trkpt lat="45.85926" lon="1.18539">
        <ele>383.3</ele>
        <time>2024-10-21T08:27:47Z</time>
      </trkpt>
      <trkpt lat="45.85926" lon="1.1854">
        <ele>383.2</ele>
        <time>2024-10-21T08:27:48Z</time>
      </trkpt>
      <trkpt lat="45.85925" lon="1.1854">
        <ele>383.2</ele>
        <time>2024-10-21T08:27:49Z</time>
      </trkpt>
      <trkpt lat="45.85924" lon="1.18541">
        <ele>383.2</ele>
        <time>2024-10-21T08:27:50Z</time>
      </trkpt>
      <trkpt lat="45.85922" lon="1.18542">
        <ele>383.1</ele>
        <time>2024-10-21T08:27:51Z</time>
      </trkpt>
      <trkpt lat="45.85921" lon="1.18543">
        <ele>383.1</ele>
        <time>2024-10-21T08:27:52Z</time>
      </trkpt>
      <trkpt lat="45.8592" lon="1.18543">
        <ele>383.1</ele>
        <time>2024-10-21T08:27:53Z</time>
      </trkpt>
      <trkpt lat="45.85919" lon="1.18544">
        <ele>383.1</ele>
        <time>2024-10-21T08:27:54Z</time>
      </trkpt>
      <trkpt lat="45.85917" lon="1.18545">
        <ele>383</ele>
        <time>2024-10-21T08:27:55Z</time>
      </trkpt>
      <trkpt lat="45.85916" lon="1.18546">
        <ele>383</ele>
        <time>2024-10-21T08:27:56Z</time>
      </trkpt>
      <trkpt lat="45.85914" lon="1.18547">
        <ele>383</ele>
        <time>2024-10-21T08:27:57Z</time>
      </trkpt>
      <trkpt lat="45.85913" lon="1.18548">
        <ele>382.9</ele>
        <time>2024-10-21T08:27:58Z</time>
      </trkpt>
      <trkpt lat="45.85912" lon="1.18548">
        <ele>382.9</ele>
        <time>2024-10-21T08:27:59Z</time>
      </trkpt>
      <trkpt lat="45.85911" lon="1.18549">
        <ele>382.9</ele>
        <time>2024-10-21T08:28:00Z</time>
      </trkpt>
      <trkpt lat="45.8591" lon="1.18551">
        <ele>382.9</ele>
        <time>2024-10-21T08:28:01Z</time>
      </trkpt>
      <trkpt lat="45.85908" lon="1.18553">
        <ele>382.8</ele>
        <time>2024-10-21T08:28:02Z</time>
      </trkpt>
      <trkpt lat="45.85907" lon="1.18554">
        <ele>382.8</ele>
        <time>2024-10-21T08:28:04Z</time>
      </trkpt>
      <trkpt lat="45.85906" lon="1.18555">
        <ele>382.8</ele>
        <time>2024-10-21T08:28:05Z</time>
      </trkpt>
      <trkpt lat="45.85904" lon="1.18556">
        <ele>382.7</ele>
        <time>2024-10-21T08:28:06Z</time>
      </trkpt>
      <trkpt lat="45.85902" lon="1.18557">
        <ele>382.7</ele>
        <time>2024-10-21T08:28:07Z</time>
      </trkpt>
      <trkpt lat="45.85902" lon="1.18558">
        <ele>382.7</ele>
        <time>2024-10-21T08:28:08Z</time>
      </trkpt>
      <trkpt lat="45.85901" lon="1.18559">
        <ele>382.6</ele>
        <time>2024-10-21T08:28:09Z</time>
      </trkpt>
      <trkpt lat="45.859" lon="1.18559">
        <ele>382.6</ele>
        <time>2024-10-21T08:28:10Z</time>
      </trkpt>
      <trkpt lat="45.85898" lon="1.18561">
        <ele>382.6</ele>
        <time>2024-10-21T08:28:11Z</time>
      </trkpt>
      <trkpt lat="45.85896" lon="1.18562">
        <ele>382.5</ele>
        <time>2024-10-21T08:28:12Z</time>
      </trkpt>
      <trkpt lat="45.85895" lon="1.18563">
        <ele>382.5</ele>
        <time>2024-10-21T08:28:13Z</time>
      </trkpt>
      <trkpt lat="45.85895" lon="1.18563">
        <ele>382.5</ele>
        <time>2024-10-21T08:28:14Z</time>
      </trkpt>
      <trkpt lat="45.85894" lon="1.18565">
        <ele>382.5</ele>
        <time>2024-10-21T08:28:15Z</time>
      </trkpt>
      <trkpt lat="45.85892" lon="1.18566">
        <ele>382.4</ele>
        <time>2024-10-21T08:28:16Z</time>
      </trkpt>
      <trkpt lat="45.85891" lon="1.18567">
        <ele>382.4</ele>
        <time>2024-10-21T08:28:17Z</time>
      </trkpt>
      <trkpt lat="45.8589" lon="1.18569">
        <ele>382.4</ele>
        <time>2024-10-21T08:28:18Z</time>
      </trkpt>
      <trkpt lat="45.85889" lon="1.1857">
        <ele>382.3</ele>
        <time>2024-10-21T08:28:19Z</time>
      </trkpt>
      <trkpt lat="45.85888" lon="1.18571">
        <ele>382.3</ele>
        <time>2024-10-21T08:28:20Z</time>
      </trkpt>
      <trkpt lat="45.85886" lon="1.18572">
        <ele>382.3</ele>
        <time>2024-10-21T08:28:21Z</time>
      </trkpt>
      <trkpt lat="45.85885" lon="1.18573">
        <ele>382.2</ele>
        <time>2024-10-21T08:28:22Z</time>
      </trkpt>
      <trkpt lat="45.85884" lon="1.18574">
        <ele>382.2</ele>
        <time>2024-10-21T08:28:23Z</time>
      </trkpt>
      <trkpt lat="45.85883" lon="1.18574">
        <ele>382.2</ele>
        <time>2024-10-21T08:28:24Z</time>
      </trkpt>
      <trkpt lat="45.85881" lon="1.18575">
        <ele>382.2</ele>
        <time>2024-10-21T08:28:25Z</time>
      </trkpt>
      <trkpt lat="45.8588" lon="1.18576">
        <ele>382.1</ele>
        <time>2024-10-21T08:28:26Z</time>
      </trkpt>
      <trkpt lat="45.85879" lon="1.18577">
        <ele>382.1</ele>
        <time>2024-10-21T08:28:27Z</time>
      </trkpt>
      <trkpt lat="45.85877" lon="1.18577">
        <ele>382.1</ele>
        <time>2024-10-21T08:28:28Z</time>
      </trkpt>
      <trkpt lat="45.85876" lon="1.18578">
        <ele>382</ele>
        <time>2024-10-21T08:28:29Z</time>
      </trkpt>
      <trkpt lat="45.85875" lon="1.18579">
        <ele>382</ele>
        <time>2024-10-21T08:28:30Z</time>
      </trkpt>
      <trkpt lat="45.85874" lon="1.1858">
        <ele>382</ele>
        <time>2024-10-21T08:28:31Z</time>
      </trkpt>
      <trkpt lat="45.85873" lon="1.18581">
        <ele>381.9</ele>
        <time>2024-10-21T08:28:32Z</time>
      </trkpt>
      <trkpt lat="45.85871" lon="1.18582">
        <ele>381.9</ele>
        <time>2024-10-21T08:28:33Z</time>
      </trkpt>
      <trkpt lat="45.85869" lon="1.18584">
        <ele>381.8</ele>
        <time>2024-10-21T08:28:34Z</time>
      </trkpt>
      <trkpt lat="45.85867" lon="1.18585">
        <ele>381.8</ele>
        <time>2024-10-21T08:28:35Z</time>
      </trkpt>
      <trkpt lat="45.85866" lon="1.18585">
        <ele>381.7</ele>
        <time>2024-10-21T08:28:36Z</time>
      </trkpt>
      <trkpt lat="45.85866" lon="1.18585">
        <ele>381.7</ele>
        <time>2024-10-21T08:28:37Z</time>
      </trkpt>
      <trkpt lat="45.85863" lon="1.18587">
        <ele>381.6</ele>
        <time>2024-10-21T08:28:38Z</time>
      </trkpt>
      <trkpt lat="45.85862" lon="1.18589">
        <ele>381.6</ele>
        <time>2024-10-21T08:28:40Z</time>
      </trkpt>
      <trkpt lat="45.85861" lon="1.1859">
        <ele>381.6</ele>
        <time>2024-10-21T08:28:41Z</time>
      </trkpt>
      <trkpt lat="45.8586" lon="1.18592">
        <ele>381.5</ele>
        <time>2024-10-21T08:28:42Z</time>
      </trkpt>
      <trkpt lat="45.85859" lon="1.18594">
        <ele>381.5</ele>
        <time>2024-10-21T08:28:43Z</time>
      </trkpt>
      <trkpt lat="45.85858" lon="1.18595">
        <ele>381.4</ele>
        <time>2024-10-21T08:28:44Z</time>
      </trkpt>
      <trkpt lat="45.85857" lon="1.18597">
        <ele>381.4</ele>
        <time>2024-10-21T08:28:45Z</time>
      </trkpt>
      <trkpt lat="45.85857" lon="1.186">
        <ele>381.3</ele>
        <time>2024-10-21T08:28:46Z</time>
      </trkpt>
      <trkpt lat="45.85856" lon="1.18602">
        <ele>381.3</ele>
        <time>2024-10-21T08:28:47Z</time>
      </trkpt>
      <trkpt lat="45.85855" lon="1.18603">
        <ele>381.2</ele>
        <time>2024-10-21T08:28:48Z</time>
      </trkpt>
      <trkpt lat="45.85854" lon="1.18605">
        <ele>381.2</ele>
        <time>2024-10-21T08:28:49Z</time>
      </trkpt>
      <trkpt lat="45.85853" lon="1.18607">
        <ele>381.2</ele>
        <time>2024-10-21T08:28:50Z</time>
      </trkpt>
      <trkpt lat="45.85852" lon="1.18608">
        <ele>381.1</ele>
        <time>2024-10-21T08:28:51Z</time>
      </trkpt>
      <trkpt lat="45.85851" lon="1.1861">
        <ele>381.1</ele>
        <time>2024-10-21T08:28:52Z</time>
      </trkpt>
      <trkpt lat="45.8585" lon="1.18612">
        <ele>381</ele>
        <time>2024-10-21T08:28:53Z</time>
      </trkpt>
      <trkpt lat="45.85848" lon="1.18614">
        <ele>381</ele>
        <time>2024-10-21T08:28:54Z</time>
      </trkpt>
      <trkpt lat="45.85846" lon="1.18616">
        <ele>380.9</ele>
        <time>2024-10-21T08:28:56Z</time>
      </trkpt>
      <trkpt lat="45.85845" lon="1.18617">
        <ele>380.9</ele>
        <time>2024-10-21T08:28:57Z</time>
      </trkpt>
      <trkpt lat="45.85844" lon="1.18618">
        <ele>380.9</ele>
        <time>2024-10-21T08:28:58Z</time>
      </trkpt>
      <trkpt lat="45.85843" lon="1.18619">
        <ele>380.8</ele>
        <time>2024-10-21T08:28:59Z</time>
      </trkpt>
      <trkpt lat="45.85841" lon="1.1862">
        <ele>380.8</ele>
        <time>2024-10-21T08:29:00Z</time>
      </trkpt>
      <trkpt lat="45.8584" lon="1.18621">
        <ele>380.8</ele>
        <time>2024-10-21T08:29:01Z</time>
      </trkpt>
      <trkpt lat="45.85839" lon="1.18622">
        <ele>380.7</ele>
        <time>2024-10-21T08:29:02Z</time>
      </trkpt>
      <trkpt lat="45.85838" lon="1.18623">
        <ele>380.7</ele>
        <time>2024-10-21T08:29:03Z</time>
      </trkpt>
      <trkpt lat="45.85836" lon="1.18624">
        <ele>380.7</ele>
        <time>2024-10-21T08:29:04Z</time>
      </trkpt>
      <trkpt lat="45.85835" lon="1.18625">
        <ele>380.6</ele>
        <time>2024-10-21T08:29:05Z</time>
      </trkpt>
      <trkpt lat="45.85833" lon="1.18626">
        <ele>380.6</ele>
        <time>2024-10-21T08:29:06Z</time>
      </trkpt>
      <trkpt lat="45.85832" lon="1.18627">
        <ele>380.6</ele>
        <time>2024-10-21T08:29:07Z</time>
      </trkpt>
      <trkpt lat="45.85831" lon="1.18628">
        <ele>380.5</ele>
        <time>2024-10-21T08:29:08Z</time>
      </trkpt>
      <trkpt lat="45.8583" lon="1.18629">
        <ele>380.5</ele>
        <time>2024-10-21T08:29:09Z</time>
      </trkpt>
      <trkpt lat="45.85829" lon="1.1863">
        <ele>380.5</ele>
        <time>2024-10-21T08:29:10Z</time>
      </trkpt>
      <trkpt lat="45.85828" lon="1.1863">
        <ele>380.4</ele>
        <time>2024-10-21T08:29:11Z</time>
      </trkpt>
      <trkpt lat="45.85826" lon="1.18632">
        <ele>380.4</ele>
        <time>2024-10-21T08:29:12Z</time>
      </trkpt>
      <trkpt lat="45.85826" lon="1.18633">
        <ele>380.4</ele>
        <time>2024-10-21T08:29:13Z</time>
      </trkpt>
      <trkpt lat="45.85825" lon="1.18634">
        <ele>380.4</ele>
        <time>2024-10-21T08:29:14Z</time>
      </trkpt>
      <trkpt lat="45.85823" lon="1.18635">
        <ele>380.3</ele>
        <time>2024-10-21T08:29:15Z</time>
      </trkpt>
      <trkpt lat="45.85822" lon="1.18636">
        <ele>380.3</ele>
        <time>2024-10-21T08:29:16Z</time>
      </trkpt>
      <trkpt lat="45.85822" lon="1.18637">
        <ele>380.3</ele>
        <time>2024-10-21T08:29:17Z</time>
      </trkpt>
      <trkpt lat="45.8582" lon="1.18638">
        <ele>380.3</ele>
        <time>2024-10-21T08:29:18Z</time>
      </trkpt>
      <trkpt lat="45.85819" lon="1.18639">
        <ele>380.2</ele>
        <time>2024-10-21T08:29:19Z</time>
      </trkpt>
      <trkpt lat="45.85818" lon="1.1864">
        <ele>380.2</ele>
        <time>2024-10-21T08:29:20Z</time>
      </trkpt>
      <trkpt lat="45.85817" lon="1.18642">
        <ele>380.2</ele>
        <time>2024-10-21T08:29:21Z</time>
      </trkpt>
      <trkpt lat="45.85816" lon="1.18642">
        <ele>380.2</ele>
        <time>2024-10-21T08:29:22Z</time>
      </trkpt>
      <trkpt lat="45.85815" lon="1.18643">
        <ele>380.2</ele>
        <time>2024-10-21T08:29:23Z</time>
      </trkpt>
      <trkpt lat="45.85814" lon="1.18645">
        <ele>380.1</ele>
        <time>2024-10-21T08:29:24Z</time>
      </trkpt>
      <trkpt lat="45.85813" lon="1.18645">
        <ele>380.1</ele>
        <time>2024-10-21T08:29:25Z</time>
      </trkpt>
      <trkpt lat="45.85812" lon="1.18646">
        <ele>380.1</ele>
        <time>2024-10-21T08:29:26Z</time>
      </trkpt>
      <trkpt lat="45.85811" lon="1.18647">
        <ele>380.1</ele>
        <time>2024-10-21T08:29:27Z</time>
      </trkpt>
      <trkpt lat="45.8581" lon="1.18648">
        <ele>380</ele>
        <time>2024-10-21T08:29:28Z</time>
      </trkpt>
      <trkpt lat="45.85809" lon="1.18649">
        <ele>380</ele>
        <time>2024-10-21T08:29:29Z</time>
      </trkpt>
      <trkpt lat="45.85808" lon="1.18651">
        <ele>380</ele>
        <time>2024-10-21T08:29:30Z</time>
      </trkpt>
      <trkpt lat="45.85807" lon="1.18652">
        <ele>379.9</ele>
        <time>2024-10-21T08:29:31Z</time>
      </trkpt>
      <trkpt lat="45.85805" lon="1.18654">
        <ele>379.9</ele>
        <time>2024-10-21T08:29:32Z</time>
      </trkpt>
      <trkpt lat="45.85804" lon="1.18655">
        <ele>379.9</ele>
        <time>2024-10-21T08:29:33Z</time>
      </trkpt>
      <trkpt lat="45.85803" lon="1.18657">
        <ele>379.9</ele>
        <time>2024-10-21T08:29:34Z</time>
      </trkpt>
      <trkpt lat="45.85802" lon="1.18658">
        <ele>379.8</ele>
        <time>2024-10-21T08:29:35Z</time>
      </trkpt>
      <trkpt lat="45.85801" lon="1.18659">
        <ele>379.8</ele>
        <time>2024-10-21T08:29:36Z</time>
      </trkpt>
      <trkpt lat="45.85799" lon="1.18661">
        <ele>379.7</ele>
        <time>2024-10-21T08:29:37Z</time>
      </trkpt>
      <trkpt lat="45.85798" lon="1.18662">
        <ele>379.7</ele>
        <time>2024-10-21T08:29:38Z</time>
      </trkpt>
      <trkpt lat="45.85797" lon="1.18663">
        <ele>379.7</ele>
        <time>2024-10-21T08:29:39Z</time>
      </trkpt>
      <trkpt lat="45.85796" lon="1.18664">
        <ele>379.7</ele>
        <time>2024-10-21T08:29:40Z</time>
      </trkpt>
      <trkpt lat="45.85795" lon="1.18665">
        <ele>379.6</ele>
        <time>2024-10-21T08:29:42Z</time>
      </trkpt>
      <trkpt lat="45.85793" lon="1.18667">
        <ele>379.6</ele>
        <time>2024-10-21T08:29:43Z</time>
      </trkpt>
      <trkpt lat="45.85792" lon="1.18667">
        <ele>379.6</ele>
        <time>2024-10-21T08:29:44Z</time>
      </trkpt>
      <trkpt lat="45.85791" lon="1.18668">
        <ele>379.6</ele>
        <time>2024-10-21T08:29:45Z</time>
      </trkpt>
      <trkpt lat="45.85789" lon="1.18669">
        <ele>379.5</ele>
        <time>2024-10-21T08:29:46Z</time>
      </trkpt>
      <trkpt lat="45.85789" lon="1.1867">
        <ele>379.5</ele>
        <time>2024-10-21T08:29:47Z</time>
      </trkpt>
      <trkpt lat="45.85788" lon="1.18671">
        <ele>379.5</ele>
        <time>2024-10-21T08:29:48Z</time>
      </trkpt>
      <trkpt lat="45.85786" lon="1.18672">
        <ele>379.4</ele>
        <time>2024-10-21T08:29:49Z</time>
      </trkpt>
      <trkpt lat="45.85786" lon="1.18673">
        <ele>379.4</ele>
        <time>2024-10-21T08:29:50Z</time>
      </trkpt>
      <trkpt lat="45.85785" lon="1.18674">
        <ele>379.4</ele>
        <time>2024-10-21T08:29:51Z</time>
      </trkpt>
      <trkpt lat="45.85784" lon="1.18676">
        <ele>379.4</ele>
        <time>2024-10-21T08:29:52Z</time>
      </trkpt>
      <trkpt lat="45.85783" lon="1.18677">
        <ele>379.3</ele>
        <time>2024-10-21T08:29:53Z</time>
      </trkpt>
      <trkpt lat="45.85782" lon="1.18678">
        <ele>379.3</ele>
        <time>2024-10-21T08:29:54Z</time>
      </trkpt>
      <trkpt lat="45.85782" lon="1.18679">
        <ele>379.3</ele>
        <time>2024-10-21T08:29:55Z</time>
      </trkpt>
      <trkpt lat="45.85781" lon="1.1868">
        <ele>379.3</ele>
        <time>2024-10-21T08:29:56Z</time>
      </trkpt>
      <trkpt lat="45.8578" lon="1.18682">
        <ele>379.3</ele>
        <time>2024-10-21T08:29:57Z</time>
      </trkpt>
      <trkpt lat="45.85779" lon="1.18682">
        <ele>379.2</ele>
        <time>2024-10-21T08:29:58Z</time>
      </trkpt>
      <trkpt lat="45.85779" lon="1.18684">
        <ele>379.2</ele>
        <time>2024-10-21T08:29:59Z</time>
      </trkpt>
      <trkpt lat="45.85778" lon="1.18684">
        <ele>379.2</ele>
        <time>2024-10-21T08:30:00Z</time>
      </trkpt>
      <trkpt lat="45.85776" lon="1.18685">
        <ele>379.2</ele>
        <time>2024-10-21T08:30:01Z</time>
      </trkpt>
      <trkpt lat="45.85775" lon="1.18686">
        <ele>379.1</ele>
        <time>2024-10-21T08:30:02Z</time>
      </trkpt>
      <trkpt lat="45.85774" lon="1.18686">
        <ele>379.1</ele>
        <time>2024-10-21T08:30:03Z</time>
      </trkpt>
      <trkpt lat="45.85772" lon="1.18687">
        <ele>379.1</ele>
        <time>2024-10-21T08:30:04Z</time>
      </trkpt>
      <trkpt lat="45.85771" lon="1.18687">
        <ele>379.1</ele>
        <time>2024-10-21T08:30:05Z</time>
      </trkpt>
      <trkpt lat="45.85771" lon="1.18688">
        <ele>379</ele>
        <time>2024-10-21T08:30:06Z</time>
      </trkpt>
      <trkpt lat="45.85769" lon="1.18689">
        <ele>379</ele>
        <time>2024-10-21T08:30:07Z</time>
      </trkpt>
      <trkpt lat="45.85768" lon="1.18689">
        <ele>379</ele>
        <time>2024-10-21T08:30:08Z</time>
      </trkpt>
      <trkpt lat="45.85767" lon="1.1869">
        <ele>379</ele>
        <time>2024-10-21T08:30:09Z</time>
      </trkpt>
      <trkpt lat="45.85766" lon="1.1869">
        <ele>378.9</ele>
        <time>2024-10-21T08:30:10Z</time>
      </trkpt>
      <trkpt lat="45.85765" lon="1.18691">
        <ele>378.9</ele>
        <time>2024-10-21T08:30:11Z</time>
      </trkpt>
      <trkpt lat="45.85763" lon="1.18692">
        <ele>378.9</ele>
        <time>2024-10-21T08:30:12Z</time>
      </trkpt>
      <trkpt lat="45.85762" lon="1.18693">
        <ele>378.8</ele>
        <time>2024-10-21T08:30:13Z</time>
      </trkpt>
      <trkpt lat="45.85761" lon="1.18694">
        <ele>378.8</ele>
        <time>2024-10-21T08:30:14Z</time>
      </trkpt>
      <trkpt lat="45.85759" lon="1.18695">
        <ele>378.8</ele>
        <time>2024-10-21T08:30:15Z</time>
      </trkpt>
      <trkpt lat="45.85758" lon="1.18696">
        <ele>378.8</ele>
        <time>2024-10-21T08:30:16Z</time>
      </trkpt>
      <trkpt lat="45.85757" lon="1.18697">
        <ele>378.7</ele>
        <time>2024-10-21T08:30:17Z</time>
      </trkpt>
      <trkpt lat="45.85755" lon="1.18697">
        <ele>378.7</ele>
        <time>2024-10-21T08:30:18Z</time>
      </trkpt>
      <trkpt lat="45.85754" lon="1.18698">
        <ele>378.7</ele>
        <time>2024-10-21T08:30:19Z</time>
      </trkpt>
      <trkpt lat="45.85753" lon="1.18699">
        <ele>378.7</ele>
        <time>2024-10-21T08:30:20Z</time>
      </trkpt>
      <trkpt lat="45.85751" lon="1.187">
        <ele>378.6</ele>
        <time>2024-10-21T08:30:21Z</time>
      </trkpt>
      <trkpt lat="45.8575" lon="1.18701">
        <ele>378.6</ele>
        <time>2024-10-21T08:30:22Z</time>
      </trkpt>
      <trkpt lat="45.85749" lon="1.18702">
        <ele>378.6</ele>
        <time>2024-10-21T08:30:23Z</time>
      </trkpt>
      <trkpt lat="45.85748" lon="1.18703">
        <ele>378.6</ele>
        <time>2024-10-21T08:30:24Z</time>
      </trkpt>
      <trkpt lat="45.85746" lon="1.18704">
        <ele>378.5</ele>
        <time>2024-10-21T08:30:25Z</time>
      </trkpt>
      <trkpt lat="45.85745" lon="1.18705">
        <ele>378.5</ele>
        <time>2024-10-21T08:30:26Z</time>
      </trkpt>
      <trkpt lat="45.85744" lon="1.18706">
        <ele>378.5</ele>
        <time>2024-10-21T08:30:27Z</time>
      </trkpt>
      <trkpt lat="45.85743" lon="1.18707">
        <ele>378.5</ele>
        <time>2024-10-21T08:30:28Z</time>
      </trkpt>
      <trkpt lat="45.85742" lon="1.18708">
        <ele>378.4</ele>
        <time>2024-10-21T08:30:29Z</time>
      </trkpt>
      <trkpt lat="45.8574" lon="1.18709">
        <ele>378.4</ele>
        <time>2024-10-21T08:30:30Z</time>
      </trkpt>
      <trkpt lat="45.85739" lon="1.18711">
        <ele>378.4</ele>
        <time>2024-10-21T08:30:31Z</time>
      </trkpt>
      <trkpt lat="45.85738" lon="1.18712">
        <ele>378.3</ele>
        <time>2024-10-21T08:30:32Z</time>
      </trkpt>
      <trkpt lat="45.85737" lon="1.18713">
        <ele>378.3</ele>
        <time>2024-10-21T08:30:33Z</time>
      </trkpt>
      <trkpt lat="45.85735" lon="1.18715">
        <ele>378.3</ele>
        <time>2024-10-21T08:30:34Z</time>
      </trkpt>
      <trkpt lat="45.85734" lon="1.18716">
        <ele>378.3</ele>
        <time>2024-10-21T08:30:35Z</time>
      </trkpt>
      <trkpt lat="45.85734" lon="1.18717">
        <ele>378.3</ele>
        <time>2024-10-21T08:30:36Z</time>
      </trkpt>
      <trkpt lat="45.85732" lon="1.18719">
        <ele>378.2</ele>
        <time>2024-10-21T08:30:37Z</time>
      </trkpt>
      <trkpt lat="45.85731" lon="1.18719">
        <ele>378.2</ele>
        <time>2024-10-21T08:30:38Z</time>
      </trkpt>
      <trkpt lat="45.85731" lon="1.1872">
        <ele>378.2</ele>
        <time>2024-10-21T08:30:39Z</time>
      </trkpt>
      <trkpt lat="45.85729" lon="1.18722">
        <ele>378.2</ele>
        <time>2024-10-21T08:30:40Z</time>
      </trkpt>
      <trkpt lat="45.85729" lon="1.18723">
        <ele>378.1</ele>
        <time>2024-10-21T08:30:41Z</time>
      </trkpt>
      <trkpt lat="45.85728" lon="1.18724">
        <ele>378.1</ele>
        <time>2024-10-21T08:30:42Z</time>
      </trkpt>
      <trkpt lat="45.85726" lon="1.18725">
        <ele>378.1</ele>
        <time>2024-10-21T08:30:43Z</time>
      </trkpt>
      <trkpt lat="45.85726" lon="1.18726">
        <ele>378.1</ele>
        <time>2024-10-21T08:30:44Z</time>
      </trkpt>
      <trkpt lat="45.85725" lon="1.18727">
        <ele>378.1</ele>
        <time>2024-10-21T08:30:45Z</time>
      </trkpt>
      <trkpt lat="45.85723" lon="1.18729">
        <ele>378</ele>
        <time>2024-10-21T08:30:46Z</time>
      </trkpt>
      <trkpt lat="45.85723" lon="1.1873">
        <ele>378</ele>
        <time>2024-10-21T08:30:47Z</time>
      </trkpt>
      <trkpt lat="45.85722" lon="1.18731">
        <ele>378</ele>
        <time>2024-10-21T08:30:48Z</time>
      </trkpt>
      <trkpt lat="45.8572" lon="1.18733">
        <ele>378</ele>
        <time>2024-10-21T08:30:49Z</time>
      </trkpt>
      <trkpt lat="45.8572" lon="1.18734">
        <ele>377.9</ele>
        <time>2024-10-21T08:30:50Z</time>
      </trkpt>
      <trkpt lat="45.85719" lon="1.18735">
        <ele>377.9</ele>
        <time>2024-10-21T08:30:51Z</time>
      </trkpt>
      <trkpt lat="45.85718" lon="1.18736">
        <ele>377.9</ele>
        <time>2024-10-21T08:30:52Z</time>
      </trkpt>
      <trkpt lat="45.85717" lon="1.18737">
        <ele>377.9</ele>
        <time>2024-10-21T08:30:53Z</time>
      </trkpt>
      <trkpt lat="45.85716" lon="1.18738">
        <ele>377.9</ele>
        <time>2024-10-21T08:30:54Z</time>
      </trkpt>
      <trkpt lat="45.85715" lon="1.1874">
        <ele>377.8</ele>
        <time>2024-10-21T08:30:55Z</time>
      </trkpt>
      <trkpt lat="45.85714" lon="1.18741">
        <ele>377.8</ele>
        <time>2024-10-21T08:30:56Z</time>
      </trkpt>
      <trkpt lat="45.85713" lon="1.18742">
        <ele>377.8</ele>
        <time>2024-10-21T08:30:57Z</time>
      </trkpt>
      <trkpt lat="45.85712" lon="1.18743">
        <ele>377.8</ele>
        <time>2024-10-21T08:30:58Z</time>
      </trkpt>
      <trkpt lat="45.85711" lon="1.18744">
        <ele>377.7</ele>
        <time>2024-10-21T08:30:59Z</time>
      </trkpt>
      <trkpt lat="45.8571" lon="1.18745">
        <ele>377.7</ele>
        <time>2024-10-21T08:31:00Z</time>
      </trkpt>
      <trkpt lat="45.85708" lon="1.18746">
        <ele>377.7</ele>
        <time>2024-10-21T08:31:01Z</time>
      </trkpt>
      <trkpt lat="45.85708" lon="1.18747">
        <ele>377.7</ele>
        <time>2024-10-21T08:31:02Z</time>
      </trkpt>
      <trkpt lat="45.85707" lon="1.18747">
        <ele>377.6</ele>
        <time>2024-10-21T08:31:03Z</time>
      </trkpt>
      <trkpt lat="45.85705" lon="1.18748">
        <ele>377.6</ele>
        <time>2024-10-21T08:31:04Z</time>
      </trkpt>
      <trkpt lat="45.85704" lon="1.18748">
        <ele>377.6</ele>
        <time>2024-10-21T08:31:05Z</time>
      </trkpt>
      <trkpt lat="45.85702" lon="1.18749">
        <ele>377.5</ele>
        <time>2024-10-21T08:31:06Z</time>
      </trkpt>
      <trkpt lat="45.85701" lon="1.1875">
        <ele>377.5</ele>
        <time>2024-10-21T08:31:07Z</time>
      </trkpt>
      <trkpt lat="45.85701" lon="1.1875">
        <ele>377.5</ele>
        <time>2024-10-21T08:31:08Z</time>
      </trkpt>
      <trkpt lat="45.857" lon="1.18751">
        <ele>377.5</ele>
        <time>2024-10-21T08:31:09Z</time>
      </trkpt>
      <trkpt lat="45.85699" lon="1.18752">
        <ele>377.5</ele>
        <time>2024-10-21T08:31:10Z</time>
      </trkpt>
      <trkpt lat="45.85699" lon="1.18753">
        <ele>377.4</ele>
        <time>2024-10-21T08:31:11Z</time>
      </trkpt>
      <trkpt lat="45.85699" lon="1.18752">
        <ele>377.4</ele>
        <time>2024-10-21T08:31:12Z</time>
      </trkpt>
      <trkpt lat="45.85699" lon="1.18752">
        <ele>377.4</ele>
        <time>2024-10-21T08:31:13Z</time>
      </trkpt>
      <trkpt lat="45.85699" lon="1.18752">
        <ele>377.4</ele>
        <time>2024-10-21T08:31:14Z</time>
      </trkpt>
      <trkpt lat="45.85699" lon="1.18752">
        <ele>377.4</ele>
        <time>2024-10-21T08:31:15Z</time>
      </trkpt>
      <trkpt lat="45.85699" lon="1.18752">
        <ele>377.4</ele>
        <time>2024-10-21T08:31:16Z</time>
      </trkpt>
      <trkpt lat="45.85699" lon="1.18752">
        <ele>377.4</ele>
        <time>2024-10-21T08:31:17Z</time>
      </trkpt>
      <trkpt lat="45.85699" lon="1.18752">
        <ele>377.4</ele>
        <time>2024-10-21T08:31:18Z</time>
      </trkpt>
      <trkpt lat="45.85699" lon="1.18752">
        <ele>377.4</ele>
        <time>2024-10-21T08:31:19Z</time>
      </trkpt>
      <trkpt lat="45.85698" lon="1.18752">
        <ele>377.4</ele>
        <time>2024-10-21T08:31:20Z</time>
      </trkpt>
      <trkpt lat="45.85698" lon="1.18752">
        <ele>377.4</ele>
        <time>2024-10-21T08:31:21Z</time>
      </trkpt>
      <trkpt lat="45.85698" lon="1.18753">
        <ele>377.4</ele>
        <time>2024-10-21T08:31:22Z</time>
      </trkpt>
      <trkpt lat="45.85697" lon="1.18753">
        <ele>377.4</ele>
        <time>2024-10-21T08:31:23Z</time>
      </trkpt>
      <trkpt lat="45.85696" lon="1.18754">
        <ele>377.4</ele>
        <time>2024-10-21T08:31:24Z</time>
      </trkpt>
      <trkpt lat="45.85694" lon="1.18755">
        <ele>377.3</ele>
        <time>2024-10-21T08:31:25Z</time>
      </trkpt>
      <trkpt lat="45.85691" lon="1.18756">
        <ele>377.3</ele>
        <time>2024-10-21T08:31:26Z</time>
      </trkpt>
      <trkpt lat="45.8569" lon="1.18756">
        <ele>377.2</ele>
        <time>2024-10-21T08:31:27Z</time>
      </trkpt>
      <trkpt lat="45.85689" lon="1.18756">
        <ele>377.2</ele>
        <time>2024-10-21T08:31:28Z</time>
      </trkpt>
      <trkpt lat="45.85689" lon="1.18756">
        <ele>377.2</ele>
        <time>2024-10-21T08:31:29Z</time>
      </trkpt>
      <trkpt lat="45.85687" lon="1.18757">
        <ele>377.2</ele>
        <time>2024-10-21T08:31:30Z</time>
      </trkpt>
      <trkpt lat="45.85686" lon="1.18758">
        <ele>377.1</ele>
        <time>2024-10-21T08:31:31Z</time>
      </trkpt>
      <trkpt lat="45.85685" lon="1.18759">
        <ele>377.1</ele>
        <time>2024-10-21T08:31:32Z</time>
      </trkpt>
      <trkpt lat="45.85684" lon="1.18759">
        <ele>377.1</ele>
        <time>2024-10-21T08:31:33Z</time>
      </trkpt>
      <trkpt lat="45.85682" lon="1.1876">
        <ele>377</ele>
        <time>2024-10-21T08:31:34Z</time>
      </trkpt>
      <trkpt lat="45.85681" lon="1.18762">
        <ele>377</ele>
        <time>2024-10-21T08:31:35Z</time>
      </trkpt>
      <trkpt lat="45.8568" lon="1.18763">
        <ele>377</ele>
        <time>2024-10-21T08:31:36Z</time>
      </trkpt>
      <trkpt lat="45.85679" lon="1.18763">
        <ele>377</ele>
        <time>2024-10-21T08:31:37Z</time>
      </trkpt>
      <trkpt lat="45.85677" lon="1.18764">
        <ele>377</ele>
        <time>2024-10-21T08:31:38Z</time>
      </trkpt>
      <trkpt lat="45.85676" lon="1.18765">
        <ele>377</ele>
        <time>2024-10-21T08:31:39Z</time>
      </trkpt>
      <trkpt lat="45.85675" lon="1.18766">
        <ele>377</ele>
        <time>2024-10-21T08:31:40Z</time>
      </trkpt>
      <trkpt lat="45.85673" lon="1.18767">
        <ele>376.9</ele>
        <time>2024-10-21T08:31:41Z</time>
      </trkpt>
      <trkpt lat="45.85672" lon="1.18767">
        <ele>376.9</ele>
        <time>2024-10-21T08:31:42Z</time>
      </trkpt>
      <trkpt lat="45.85671" lon="1.18768">
        <ele>376.9</ele>
        <time>2024-10-21T08:31:43Z</time>
      </trkpt>
      <trkpt lat="45.85669" lon="1.18769">
        <ele>376.9</ele>
        <time>2024-10-21T08:31:44Z</time>
      </trkpt>
      <trkpt lat="45.85668" lon="1.18769">
        <ele>376.9</ele>
        <time>2024-10-21T08:31:45Z</time>
      </trkpt>
      <trkpt lat="45.85667" lon="1.1877">
        <ele>376.9</ele>
        <time>2024-10-21T08:31:46Z</time>
      </trkpt>
      <trkpt lat="45.85665" lon="1.18771">
        <ele>376.9</ele>
        <time>2024-10-21T08:31:47Z</time>
      </trkpt>
      <trkpt lat="45.85664" lon="1.18772">
        <ele>376.9</ele>
        <time>2024-10-21T08:31:48Z</time>
      </trkpt>
      <trkpt lat="45.85663" lon="1.18772">
        <ele>376.9</ele>
        <time>2024-10-21T08:31:49Z</time>
      </trkpt>
      <trkpt lat="45.85661" lon="1.18774">
        <ele>376.9</ele>
        <time>2024-10-21T08:31:50Z</time>
      </trkpt>
      <trkpt lat="45.85661" lon="1.18774">
        <ele>376.8</ele>
        <time>2024-10-21T08:31:51Z</time>
      </trkpt>
      <trkpt lat="45.8566" lon="1.18775">
        <ele>376.8</ele>
        <time>2024-10-21T08:31:52Z</time>
      </trkpt>
      <trkpt lat="45.85658" lon="1.18776">
        <ele>376.8</ele>
        <time>2024-10-21T08:31:53Z</time>
      </trkpt>
      <trkpt lat="45.85657" lon="1.18777">
        <ele>376.8</ele>
        <time>2024-10-21T08:31:54Z</time>
      </trkpt>
      <trkpt lat="45.85656" lon="1.18777">
        <ele>376.8</ele>
        <time>2024-10-21T08:31:55Z</time>
      </trkpt>
      <trkpt lat="45.85655" lon="1.18779">
        <ele>376.8</ele>
        <time>2024-10-21T08:31:56Z</time>
      </trkpt>
      <trkpt lat="45.85654" lon="1.1878">
        <ele>376.8</ele>
        <time>2024-10-21T08:31:57Z</time>
      </trkpt>
      <trkpt lat="45.85653" lon="1.1878">
        <ele>376.8</ele>
        <time>2024-10-21T08:31:58Z</time>
      </trkpt>
      <trkpt lat="45.85652" lon="1.18782">
        <ele>376.8</ele>
        <time>2024-10-21T08:31:59Z</time>
      </trkpt>
      <trkpt lat="45.85651" lon="1.18783">
        <ele>376.8</ele>
        <time>2024-10-21T08:32:00Z</time>
      </trkpt>
      <trkpt lat="45.8565" lon="1.18784">
        <ele>376.8</ele>
        <time>2024-10-21T08:32:01Z</time>
      </trkpt>
      <trkpt lat="45.85649" lon="1.18786">
        <ele>376.8</ele>
        <time>2024-10-21T08:32:02Z</time>
      </trkpt>
      <trkpt lat="45.85648" lon="1.18787">
        <ele>376.8</ele>
        <time>2024-10-21T08:32:03Z</time>
      </trkpt>
      <trkpt lat="45.85648" lon="1.18788">
        <ele>376.8</ele>
        <time>2024-10-21T08:32:04Z</time>
      </trkpt>
      <trkpt lat="45.85646" lon="1.1879">
        <ele>376.8</ele>
        <time>2024-10-21T08:32:05Z</time>
      </trkpt>
      <trkpt lat="45.85646" lon="1.18791">
        <ele>376.8</ele>
        <time>2024-10-21T08:32:06Z</time>
      </trkpt>
      <trkpt lat="45.85645" lon="1.18792">
        <ele>376.8</ele>
        <time>2024-10-21T08:32:07Z</time>
      </trkpt>
      <trkpt lat="45.85643" lon="1.18794">
        <ele>376.8</ele>
        <time>2024-10-21T08:32:08Z</time>
      </trkpt>
      <trkpt lat="45.85643" lon="1.18794">
        <ele>376.8</ele>
        <time>2024-10-21T08:32:09Z</time>
      </trkpt>
      <trkpt lat="45.85642" lon="1.18795">
        <ele>376.7</ele>
        <time>2024-10-21T08:32:10Z</time>
      </trkpt>
      <trkpt lat="45.85641" lon="1.18797">
        <ele>376.7</ele>
        <time>2024-10-21T08:32:11Z</time>
      </trkpt>
      <trkpt lat="45.8564" lon="1.18798">
        <ele>376.7</ele>
        <time>2024-10-21T08:32:12Z</time>
      </trkpt>
      <trkpt lat="45.85639" lon="1.18799">
        <ele>376.7</ele>
        <time>2024-10-21T08:32:13Z</time>
      </trkpt>
      <trkpt lat="45.85638" lon="1.18801">
        <ele>376.7</ele>
        <time>2024-10-21T08:32:14Z</time>
      </trkpt>
      <trkpt lat="45.85637" lon="1.18802">
        <ele>376.7</ele>
        <time>2024-10-21T08:32:15Z</time>
      </trkpt>
      <trkpt lat="45.85636" lon="1.18803">
        <ele>376.7</ele>
        <time>2024-10-21T08:32:16Z</time>
      </trkpt>
      <trkpt lat="45.85635" lon="1.18804">
        <ele>376.7</ele>
        <time>2024-10-21T08:32:17Z</time>
      </trkpt>
      <trkpt lat="45.85633" lon="1.18806">
        <ele>376.7</ele>
        <time>2024-10-21T08:32:18Z</time>
      </trkpt>
      <trkpt lat="45.85631" lon="1.18807">
        <ele>376.7</ele>
        <time>2024-10-21T08:32:20Z</time>
      </trkpt>
      <trkpt lat="45.85631" lon="1.18808">
        <ele>376.7</ele>
        <time>2024-10-21T08:32:21Z</time>
      </trkpt>
      <trkpt lat="45.85629" lon="1.1881">
        <ele>376.7</ele>
        <time>2024-10-21T08:32:22Z</time>
      </trkpt>
      <trkpt lat="45.85628" lon="1.1881">
        <ele>376.6</ele>
        <time>2024-10-21T08:32:23Z</time>
      </trkpt>
      <trkpt lat="45.85627" lon="1.18811">
        <ele>376.6</ele>
        <time>2024-10-21T08:32:24Z</time>
      </trkpt>
      <trkpt lat="45.85626" lon="1.18812">
        <ele>376.6</ele>
        <time>2024-10-21T08:32:25Z</time>
      </trkpt>
      <trkpt lat="45.85625" lon="1.18813">
        <ele>376.6</ele>
        <time>2024-10-21T08:32:26Z</time>
      </trkpt>
      <trkpt lat="45.85623" lon="1.18814">
        <ele>376.6</ele>
        <time>2024-10-21T08:32:27Z</time>
      </trkpt>
      <trkpt lat="45.85622" lon="1.18815">
        <ele>376.6</ele>
        <time>2024-10-21T08:32:28Z</time>
      </trkpt>
      <trkpt lat="45.85621" lon="1.18816">
        <ele>376.6</ele>
        <time>2024-10-21T08:32:29Z</time>
      </trkpt>
      <trkpt lat="45.8562" lon="1.18817">
        <ele>376.6</ele>
        <time>2024-10-21T08:32:30Z</time>
      </trkpt>
      <trkpt lat="45.85619" lon="1.18818">
        <ele>376.6</ele>
        <time>2024-10-21T08:32:31Z</time>
      </trkpt>
      <trkpt lat="45.85619" lon="1.1882">
        <ele>376.5</ele>
        <time>2024-10-21T08:32:32Z</time>
      </trkpt>
      <trkpt lat="45.85618" lon="1.18821">
        <ele>376.5</ele>
        <time>2024-10-21T08:32:33Z</time>
      </trkpt>
      <trkpt lat="45.85617" lon="1.18822">
        <ele>376.5</ele>
        <time>2024-10-21T08:32:34Z</time>
      </trkpt>
      <trkpt lat="45.85616" lon="1.18822">
        <ele>376.5</ele>
        <time>2024-10-21T08:32:35Z</time>
      </trkpt>
      <trkpt lat="45.85615" lon="1.18824">
        <ele>376.5</ele>
        <time>2024-10-21T08:32:36Z</time>
      </trkpt>
      <trkpt lat="45.85614" lon="1.18824">
        <ele>376.5</ele>
        <time>2024-10-21T08:32:37Z</time>
      </trkpt>
      <trkpt lat="45.85613" lon="1.18824">
        <ele>376.5</ele>
        <time>2024-10-21T08:32:38Z</time>
      </trkpt>
      <trkpt lat="45.85612" lon="1.18825">
        <ele>376.5</ele>
        <time>2024-10-21T08:32:39Z</time>
      </trkpt>
      <trkpt lat="45.85611" lon="1.18826">
        <ele>376.4</ele>
        <time>2024-10-21T08:32:40Z</time>
      </trkpt>
      <trkpt lat="45.8561" lon="1.18827">
        <ele>376.4</ele>
        <time>2024-10-21T08:32:41Z</time>
      </trkpt>
      <trkpt lat="45.85609" lon="1.18829">
        <ele>376.4</ele>
        <time>2024-10-21T08:32:42Z</time>
      </trkpt>
      <trkpt lat="45.85607" lon="1.1883">
        <ele>376.4</ele>
        <time>2024-10-21T08:32:43Z</time>
      </trkpt>
      <trkpt lat="45.85606" lon="1.18831">
        <ele>376.4</ele>
        <time>2024-10-21T08:32:44Z</time>
      </trkpt>
      <trkpt lat="45.85605" lon="1.18832">
        <ele>376.4</ele>
        <time>2024-10-21T08:32:45Z</time>
      </trkpt>
      <trkpt lat="45.85604" lon="1.18833">
        <ele>376.4</ele>
        <time>2024-10-21T08:32:46Z</time>
      </trkpt>
      <trkpt lat="45.85603" lon="1.18834">
        <ele>376.3</ele>
        <time>2024-10-21T08:32:47Z</time>
      </trkpt>
      <trkpt lat="45.85602" lon="1.18836">
        <ele>376.3</ele>
        <time>2024-10-21T08:32:48Z</time>
      </trkpt>
      <trkpt lat="45.856" lon="1.18838">
        <ele>376.3</ele>
        <time>2024-10-21T08:32:49Z</time>
      </trkpt>
      <trkpt lat="45.85599" lon="1.18839">
        <ele>376.3</ele>
        <time>2024-10-21T08:32:50Z</time>
      </trkpt>
      <trkpt lat="45.85599" lon="1.18839">
        <ele>376.3</ele>
        <time>2024-10-21T08:32:51Z</time>
      </trkpt>
      <trkpt lat="45.85597" lon="1.18841">
        <ele>376.3</ele>
        <time>2024-10-21T08:32:52Z</time>
      </trkpt>
      <trkpt lat="45.85596" lon="1.18842">
        <ele>376.2</ele>
        <time>2024-10-21T08:32:53Z</time>
      </trkpt>
      <trkpt lat="45.85595" lon="1.18842">
        <ele>376.2</ele>
        <time>2024-10-21T08:32:54Z</time>
      </trkpt>
      <trkpt lat="45.85594" lon="1.18843">
        <ele>376.2</ele>
        <time>2024-10-21T08:32:55Z</time>
      </trkpt>
      <trkpt lat="45.85593" lon="1.18844">
        <ele>376.2</ele>
        <time>2024-10-21T08:32:56Z</time>
      </trkpt>
      <trkpt lat="45.85592" lon="1.18846">
        <ele>376.2</ele>
        <time>2024-10-21T08:32:57Z</time>
      </trkpt>
      <trkpt lat="45.8559" lon="1.18847">
        <ele>376.2</ele>
        <time>2024-10-21T08:32:58Z</time>
      </trkpt>
      <trkpt lat="45.8559" lon="1.18849">
        <ele>376.1</ele>
        <time>2024-10-21T08:32:59Z</time>
      </trkpt>
      <trkpt lat="45.85591" lon="1.18851">
        <ele>376.1</ele>
        <time>2024-10-21T08:33:00Z</time>
      </trkpt>
      <trkpt lat="45.8559" lon="1.18852">
        <ele>376.1</ele>
        <time>2024-10-21T08:33:01Z</time>
      </trkpt>
      <trkpt lat="45.85589" lon="1.18853">
        <ele>376.1</ele>
        <time>2024-10-21T08:33:02Z</time>
      </trkpt>
      <trkpt lat="45.85586" lon="1.18854">
        <ele>376</ele>
        <time>2024-10-21T08:33:03Z</time>
      </trkpt>
      <trkpt lat="45.85585" lon="1.18854">
        <ele>376</ele>
        <time>2024-10-21T08:33:04Z</time>
      </trkpt>
      <trkpt lat="45.85583" lon="1.18855">
        <ele>376</ele>
        <time>2024-10-21T08:33:05Z</time>
      </trkpt>
      <trkpt lat="45.85583" lon="1.18856">
        <ele>376</ele>
        <time>2024-10-21T08:33:06Z</time>
      </trkpt>
      <trkpt lat="45.85581" lon="1.18859">
        <ele>375.9</ele>
        <time>2024-10-21T08:33:07Z</time>
      </trkpt>
      <trkpt lat="45.85579" lon="1.18859">
        <ele>375.9</ele>
        <time>2024-10-21T08:33:08Z</time>
      </trkpt>
      <trkpt lat="45.85578" lon="1.1886">
        <ele>375.9</ele>
        <time>2024-10-21T08:33:09Z</time>
      </trkpt>
      <trkpt lat="45.85578" lon="1.1886">
        <ele>375.9</ele>
        <time>2024-10-21T08:33:10Z</time>
      </trkpt>
      <trkpt lat="45.85577" lon="1.18861">
        <ele>375.8</ele>
        <time>2024-10-21T08:33:11Z</time>
      </trkpt>
      <trkpt lat="45.85575" lon="1.18862">
        <ele>375.8</ele>
        <time>2024-10-21T08:33:12Z</time>
      </trkpt>
      <trkpt lat="45.85574" lon="1.18862">
        <ele>375.8</ele>
        <time>2024-10-21T08:33:13Z</time>
      </trkpt>
      <trkpt lat="45.85573" lon="1.1886">
        <ele>375.8</ele>
        <time>2024-10-21T08:33:14Z</time>
      </trkpt>
      <trkpt lat="45.85572" lon="1.18859">
        <ele>375.8</ele>
        <time>2024-10-21T08:33:15Z</time>
      </trkpt>
      <trkpt lat="45.85572" lon="1.18858">
        <ele>375.8</ele>
        <time>2024-10-21T08:33:16Z</time>
      </trkpt>
      <trkpt lat="45.85571" lon="1.18858">
        <ele>375.7</ele>
        <time>2024-10-21T08:33:17Z</time>
      </trkpt>
      <trkpt lat="45.85569" lon="1.18859">
        <ele>375.7</ele>
        <time>2024-10-21T08:33:18Z</time>
      </trkpt>
      <trkpt lat="45.85568" lon="1.1886">
        <ele>375.7</ele>
        <time>2024-10-21T08:33:19Z</time>
      </trkpt>
      <trkpt lat="45.85565" lon="1.18863">
        <ele>375.6</ele>
        <time>2024-10-21T08:33:20Z</time>
      </trkpt>
      <trkpt lat="45.85563" lon="1.18864">
        <ele>375.6</ele>
        <time>2024-10-21T08:33:21Z</time>
      </trkpt>
      <trkpt lat="45.85563" lon="1.18864">
        <ele>375.6</ele>
        <time>2024-10-21T08:33:22Z</time>
      </trkpt>
      <trkpt lat="45.85562" lon="1.18865">
        <ele>375.6</ele>
        <time>2024-10-21T08:33:23Z</time>
      </trkpt>
      <trkpt lat="45.85561" lon="1.18867">
        <ele>375.6</ele>
        <time>2024-10-21T08:33:24Z</time>
      </trkpt>
      <trkpt lat="45.8556" lon="1.18868">
        <ele>375.6</ele>
        <time>2024-10-21T08:33:25Z</time>
      </trkpt>
      <trkpt lat="45.85559" lon="1.18869">
        <ele>375.5</ele>
        <time>2024-10-21T08:33:26Z</time>
      </trkpt>
      <trkpt lat="45.85558" lon="1.18868">
        <ele>375.5</ele>
        <time>2024-10-21T08:33:27Z</time>
      </trkpt>
      <trkpt lat="45.85557" lon="1.18867">
        <ele>375.5</ele>
        <time>2024-10-21T08:33:28Z</time>
      </trkpt>
      <trkpt lat="45.85556" lon="1.18866">
        <ele>375.5</ele>
        <time>2024-10-21T08:33:29Z</time>
      </trkpt>
      <trkpt lat="45.85555" lon="1.18866">
        <ele>375.5</ele>
        <time>2024-10-21T08:33:30Z</time>
      </trkpt>
      <trkpt lat="45.85552" lon="1.18868">
        <ele>375.4</ele>
        <time>2024-10-21T08:33:31Z</time>
      </trkpt>
      <trkpt lat="45.85551" lon="1.18868">
        <ele>375.4</ele>
        <time>2024-10-21T08:33:32Z</time>
      </trkpt>
      <trkpt lat="45.8555" lon="1.18869">
        <ele>375.4</ele>
        <time>2024-10-21T08:33:33Z</time>
      </trkpt>
      <trkpt lat="45.85549" lon="1.18871">
        <ele>375.4</ele>
        <time>2024-10-21T08:33:34Z</time>
      </trkpt>
      <trkpt lat="45.85547" lon="1.18872">
        <ele>375.4</ele>
        <time>2024-10-21T08:33:35Z</time>
      </trkpt>
      <trkpt lat="45.85547" lon="1.18874">
        <ele>375.3</ele>
        <time>2024-10-21T08:33:36Z</time>
      </trkpt>
      <trkpt lat="45.85548" lon="1.18876">
        <ele>375.3</ele>
        <time>2024-10-21T08:33:37Z</time>
      </trkpt>
      <trkpt lat="45.85549" lon="1.18878">
        <ele>375.3</ele>
        <time>2024-10-21T08:33:38Z</time>
      </trkpt>
      <trkpt lat="45.85547" lon="1.18882">
        <ele>375.2</ele>
        <time>2024-10-21T08:33:39Z</time>
      </trkpt>
      <trkpt lat="45.85546" lon="1.18883">
        <ele>375.2</ele>
        <time>2024-10-21T08:33:40Z</time>
      </trkpt>
      <trkpt lat="45.85544" lon="1.18885">
        <ele>375.2</ele>
        <time>2024-10-21T08:33:41Z</time>
      </trkpt>
      <trkpt lat="45.85543" lon="1.18885">
        <ele>375.2</ele>
        <time>2024-10-21T08:33:42Z</time>
      </trkpt>
      <trkpt lat="45.85542" lon="1.18885">
        <ele>375.2</ele>
        <time>2024-10-21T08:33:43Z</time>
      </trkpt>
      <trkpt lat="45.8554" lon="1.18886">
        <ele>375.1</ele>
        <time>2024-10-21T08:33:44Z</time>
      </trkpt>
      <trkpt lat="45.85539" lon="1.18887">
        <ele>375.1</ele>
        <time>2024-10-21T08:33:45Z</time>
      </trkpt>
      <trkpt lat="45.85539" lon="1.18887">
        <ele>375.1</ele>
        <time>2024-10-21T08:33:46Z</time>
      </trkpt>
      <trkpt lat="45.85538" lon="1.18888">
        <ele>375.1</ele>
        <time>2024-10-21T08:33:47Z</time>
      </trkpt>
      <trkpt lat="45.85537" lon="1.18889">
        <ele>375.1</ele>
        <time>2024-10-21T08:33:48Z</time>
      </trkpt>
      <trkpt lat="45.85535" lon="1.1889">
        <ele>375.1</ele>
        <time>2024-10-21T08:33:49Z</time>
      </trkpt>
      <trkpt lat="45.85534" lon="1.18892">
        <ele>375</ele>
        <time>2024-10-21T08:33:50Z</time>
      </trkpt>
      <trkpt lat="45.85533" lon="1.18893">
        <ele>375</ele>
        <time>2024-10-21T08:33:51Z</time>
      </trkpt>
      <trkpt lat="45.85532" lon="1.18893">
        <ele>375</ele>
        <time>2024-10-21T08:33:52Z</time>
      </trkpt>
      <trkpt lat="45.8553" lon="1.18893">
        <ele>375</ele>
        <time>2024-10-21T08:33:53Z</time>
      </trkpt>
      <trkpt lat="45.85529" lon="1.18893">
        <ele>374.9</ele>
        <time>2024-10-21T08:33:54Z</time>
      </trkpt>
      <trkpt lat="45.85528" lon="1.18894">
        <ele>374.9</ele>
        <time>2024-10-21T08:33:55Z</time>
      </trkpt>
      <trkpt lat="45.85527" lon="1.18893">
        <ele>374.9</ele>
        <time>2024-10-21T08:33:56Z</time>
      </trkpt>
      <trkpt lat="45.85526" lon="1.18893">
        <ele>374.9</ele>
        <time>2024-10-21T08:33:57Z</time>
      </trkpt>
      <trkpt lat="45.85525" lon="1.18893">
        <ele>374.9</ele>
        <time>2024-10-21T08:33:58Z</time>
      </trkpt>
      <trkpt lat="45.85524" lon="1.18893">
        <ele>374.9</ele>
        <time>2024-10-21T08:33:59Z</time>
      </trkpt>
      <trkpt lat="45.85523" lon="1.18894">
        <ele>374.9</ele>
        <time>2024-10-21T08:34:00Z</time>
      </trkpt>
      <trkpt lat="45.85522" lon="1.18895">
        <ele>374.8</ele>
        <time>2024-10-21T08:34:01Z</time>
      </trkpt>
      <trkpt lat="45.8552" lon="1.18896">
        <ele>374.8</ele>
        <time>2024-10-21T08:34:02Z</time>
      </trkpt>
      <trkpt lat="45.85519" lon="1.18896">
        <ele>374.8</ele>
        <time>2024-10-21T08:34:03Z</time>
      </trkpt>
      <trkpt lat="45.85518" lon="1.18897">
        <ele>374.8</ele>
        <time>2024-10-21T08:34:04Z</time>
      </trkpt>
      <trkpt lat="45.85516" lon="1.18898">
        <ele>374.7</ele>
        <time>2024-10-21T08:34:05Z</time>
      </trkpt>
      <trkpt lat="45.85515" lon="1.18899">
        <ele>374.7</ele>
        <time>2024-10-21T08:34:06Z</time>
      </trkpt>
      <trkpt lat="45.85514" lon="1.189">
        <ele>374.7</ele>
        <time>2024-10-21T08:34:07Z</time>
      </trkpt>
      <trkpt lat="45.85512" lon="1.18902">
        <ele>374.7</ele>
        <time>2024-10-21T08:34:08Z</time>
      </trkpt>
      <trkpt lat="45.85511" lon="1.18902">
        <ele>374.6</ele>
        <time>2024-10-21T08:34:09Z</time>
      </trkpt>
      <trkpt lat="45.8551" lon="1.18903">
        <ele>374.6</ele>
        <time>2024-10-21T08:34:10Z</time>
      </trkpt>
      <trkpt lat="45.85509" lon="1.18904">
        <ele>374.6</ele>
        <time>2024-10-21T08:34:11Z</time>
      </trkpt>
      <trkpt lat="45.85508" lon="1.18906">
        <ele>374.6</ele>
        <time>2024-10-21T08:34:12Z</time>
      </trkpt>
      <trkpt lat="45.85506" lon="1.18907">
        <ele>374.5</ele>
        <time>2024-10-21T08:34:13Z</time>
      </trkpt>
      <trkpt lat="45.85505" lon="1.18908">
        <ele>374.5</ele>
        <time>2024-10-21T08:34:14Z</time>
      </trkpt>
      <trkpt lat="45.85505" lon="1.18908">
        <ele>374.5</ele>
        <time>2024-10-21T08:34:15Z</time>
      </trkpt>
      <trkpt lat="45.85503" lon="1.1891">
        <ele>374.5</ele>
        <time>2024-10-21T08:34:16Z</time>
      </trkpt>
      <trkpt lat="45.85502" lon="1.1891">
        <ele>374.4</ele>
        <time>2024-10-21T08:34:17Z</time>
      </trkpt>
      <trkpt lat="45.85502" lon="1.18911">
        <ele>374.4</ele>
        <time>2024-10-21T08:34:18Z</time>
      </trkpt>
      <trkpt lat="45.855" lon="1.18913">
        <ele>374.4</ele>
        <time>2024-10-21T08:34:19Z</time>
      </trkpt>
      <trkpt lat="45.85499" lon="1.18913">
        <ele>374.4</ele>
        <time>2024-10-21T08:34:20Z</time>
      </trkpt>
      <trkpt lat="45.85498" lon="1.18914">
        <ele>374.3</ele>
        <time>2024-10-21T08:34:21Z</time>
      </trkpt>
      <trkpt lat="45.85497" lon="1.18915">
        <ele>374.3</ele>
        <time>2024-10-21T08:34:22Z</time>
      </trkpt>
      <trkpt lat="45.85496" lon="1.18915">
        <ele>374.3</ele>
        <time>2024-10-21T08:34:23Z</time>
      </trkpt>
      <trkpt lat="45.85495" lon="1.18916">
        <ele>374.3</ele>
        <time>2024-10-21T08:34:24Z</time>
      </trkpt>
      <trkpt lat="45.85493" lon="1.18918">
        <ele>374.2</ele>
        <time>2024-10-21T08:34:25Z</time>
      </trkpt>
      <trkpt lat="45.85493" lon="1.18918">
        <ele>374.2</ele>
        <time>2024-10-21T08:34:26Z</time>
      </trkpt>
      <trkpt lat="45.85492" lon="1.18919">
        <ele>374.2</ele>
        <time>2024-10-21T08:34:27Z</time>
      </trkpt>
      <trkpt lat="45.85491" lon="1.1892">
        <ele>374.2</ele>
        <time>2024-10-21T08:34:28Z</time>
      </trkpt>
      <trkpt lat="45.8549" lon="1.18921">
        <ele>374.1</ele>
        <time>2024-10-21T08:34:29Z</time>
      </trkpt>
      <trkpt lat="45.85489" lon="1.18922">
        <ele>374.1</ele>
        <time>2024-10-21T08:34:30Z</time>
      </trkpt>
      <trkpt lat="45.85488" lon="1.18923">
        <ele>374.1</ele>
        <time>2024-10-21T08:34:31Z</time>
      </trkpt>
      <trkpt lat="45.85488" lon="1.18925">
        <ele>374.1</ele>
        <time>2024-10-21T08:34:32Z</time>
      </trkpt>
      <trkpt lat="45.85487" lon="1.18926">
        <ele>374</ele>
        <time>2024-10-21T08:34:33Z</time>
      </trkpt>
      <trkpt lat="45.85485" lon="1.18928">
        <ele>374</ele>
        <time>2024-10-21T08:34:34Z</time>
      </trkpt>
      <trkpt lat="45.85485" lon="1.18928">
        <ele>374</ele>
        <time>2024-10-21T08:34:35Z</time>
      </trkpt>
      <trkpt lat="45.85484" lon="1.18929">
        <ele>374</ele>
        <time>2024-10-21T08:34:36Z</time>
      </trkpt>
      <trkpt lat="45.85482" lon="1.18931">
        <ele>373.9</ele>
        <time>2024-10-21T08:34:37Z</time>
      </trkpt>
      <trkpt lat="45.85481" lon="1.18932">
        <ele>373.9</ele>
        <time>2024-10-21T08:34:38Z</time>
      </trkpt>
      <trkpt lat="45.85481" lon="1.18932">
        <ele>373.9</ele>
        <time>2024-10-21T08:34:39Z</time>
      </trkpt>
      <trkpt lat="45.85479" lon="1.18934">
        <ele>373.8</ele>
        <time>2024-10-21T08:34:40Z</time>
      </trkpt>
      <trkpt lat="45.85478" lon="1.18935">
        <ele>373.8</ele>
        <time>2024-10-21T08:34:41Z</time>
      </trkpt>
      <trkpt lat="45.85478" lon="1.18936">
        <ele>373.8</ele>
        <time>2024-10-21T08:34:42Z</time>
      </trkpt>
      <trkpt lat="45.85477" lon="1.18936">
        <ele>373.8</ele>
        <time>2024-10-21T08:34:43Z</time>
      </trkpt>
      <trkpt lat="45.85476" lon="1.18937">
        <ele>373.7</ele>
        <time>2024-10-21T08:34:44Z</time>
      </trkpt>
      <trkpt lat="45.85475" lon="1.18938">
        <ele>373.7</ele>
        <time>2024-10-21T08:34:45Z</time>
      </trkpt>
      <trkpt lat="45.85474" lon="1.18939">
        <ele>373.7</ele>
        <time>2024-10-21T08:34:46Z</time>
      </trkpt>
      <trkpt lat="45.85473" lon="1.1894">
        <ele>373.7</ele>
        <time>2024-10-21T08:34:47Z</time>
      </trkpt>
      <trkpt lat="45.85472" lon="1.18941">
        <ele>373.7</ele>
        <time>2024-10-21T08:34:48Z</time>
      </trkpt>
      <trkpt lat="45.85471" lon="1.18942">
        <ele>373.6</ele>
        <time>2024-10-21T08:34:49Z</time>
      </trkpt>
      <trkpt lat="45.85469" lon="1.18943">
        <ele>373.6</ele>
        <time>2024-10-21T08:34:50Z</time>
      </trkpt>
      <trkpt lat="45.85468" lon="1.18944">
        <ele>373.6</ele>
        <time>2024-10-21T08:34:51Z</time>
      </trkpt>
      <trkpt lat="45.85467" lon="1.18945">
        <ele>373.6</ele>
        <time>2024-10-21T08:34:52Z</time>
      </trkpt>
      <trkpt lat="45.85466" lon="1.18946">
        <ele>373.5</ele>
        <time>2024-10-21T08:34:53Z</time>
      </trkpt>
      <trkpt lat="45.85465" lon="1.18947">
        <ele>373.5</ele>
        <time>2024-10-21T08:34:54Z</time>
      </trkpt>
      <trkpt lat="45.85464" lon="1.18948">
        <ele>373.5</ele>
        <time>2024-10-21T08:34:55Z</time>
      </trkpt>
      <trkpt lat="45.85463" lon="1.1895">
        <ele>373.5</ele>
        <time>2024-10-21T08:34:56Z</time>
      </trkpt>
      <trkpt lat="45.85462" lon="1.18951">
        <ele>373.4</ele>
        <time>2024-10-21T08:34:57Z</time>
      </trkpt>
      <trkpt lat="45.85461" lon="1.18953">
        <ele>373.4</ele>
        <time>2024-10-21T08:34:58Z</time>
      </trkpt>
      <trkpt lat="45.8546" lon="1.18954">
        <ele>373.4</ele>
        <time>2024-10-21T08:34:59Z</time>
      </trkpt>
      <trkpt lat="45.85459" lon="1.18955">
        <ele>373.4</ele>
        <time>2024-10-21T08:35:00Z</time>
      </trkpt>
      <trkpt lat="45.85457" lon="1.18956">
        <ele>373.3</ele>
        <time>2024-10-21T08:35:01Z</time>
      </trkpt>
      <trkpt lat="45.85457" lon="1.18957">
        <ele>373.3</ele>
        <time>2024-10-21T08:35:02Z</time>
      </trkpt>
      <trkpt lat="45.85456" lon="1.18957">
        <ele>373.3</ele>
        <time>2024-10-21T08:35:03Z</time>
      </trkpt>
      <trkpt lat="45.85454" lon="1.18959">
        <ele>373.2</ele>
        <time>2024-10-21T08:35:04Z</time>
      </trkpt>
      <trkpt lat="45.85454" lon="1.1896">
        <ele>373.2</ele>
        <time>2024-10-21T08:35:05Z</time>
      </trkpt>
      <trkpt lat="45.85453" lon="1.18961">
        <ele>373.2</ele>
        <time>2024-10-21T08:35:06Z</time>
      </trkpt>
      <trkpt lat="45.85452" lon="1.18962">
        <ele>373.2</ele>
        <time>2024-10-21T08:35:07Z</time>
      </trkpt>
      <trkpt lat="45.85451" lon="1.18963">
        <ele>373.2</ele>
        <time>2024-10-21T08:35:08Z</time>
      </trkpt>
      <trkpt lat="45.85449" lon="1.18965">
        <ele>373.1</ele>
        <time>2024-10-21T08:35:09Z</time>
      </trkpt>
      <trkpt lat="45.85448" lon="1.18965">
        <ele>373.1</ele>
        <time>2024-10-21T08:35:10Z</time>
      </trkpt>
      <trkpt lat="45.85448" lon="1.18966">
        <ele>373.1</ele>
        <time>2024-10-21T08:35:11Z</time>
      </trkpt>
      <trkpt lat="45.85446" lon="1.18967">
        <ele>373</ele>
        <time>2024-10-21T08:35:12Z</time>
      </trkpt>
      <trkpt lat="45.85445" lon="1.18967">
        <ele>373</ele>
        <time>2024-10-21T08:35:13Z</time>
      </trkpt>
      <trkpt lat="45.85444" lon="1.18967">
        <ele>373</ele>
        <time>2024-10-21T08:35:14Z</time>
      </trkpt>
      <trkpt lat="45.85442" lon="1.18969">
        <ele>373</ele>
        <time>2024-10-21T08:35:15Z</time>
      </trkpt>
      <trkpt lat="45.85441" lon="1.18969">
        <ele>372.9</ele>
        <time>2024-10-21T08:35:16Z</time>
      </trkpt>
      <trkpt lat="45.8544" lon="1.18969">
        <ele>372.9</ele>
        <time>2024-10-21T08:35:17Z</time>
      </trkpt>
      <trkpt lat="45.85438" lon="1.1897">
        <ele>372.9</ele>
        <time>2024-10-21T08:35:18Z</time>
      </trkpt>
      <trkpt lat="45.85438" lon="1.18971">
        <ele>372.9</ele>
        <time>2024-10-21T08:35:19Z</time>
      </trkpt>
      <trkpt lat="45.85437" lon="1.18971">
        <ele>372.9</ele>
        <time>2024-10-21T08:35:20Z</time>
      </trkpt>
      <trkpt lat="45.85435" lon="1.18972">
        <ele>372.8</ele>
        <time>2024-10-21T08:35:21Z</time>
      </trkpt>
      <trkpt lat="45.85433" lon="1.18973">
        <ele>372.8</ele>
        <time>2024-10-21T08:35:22Z</time>
      </trkpt>
      <trkpt lat="45.85433" lon="1.18973">
        <ele>372.7</ele>
        <time>2024-10-21T08:35:23Z</time>
      </trkpt>
      <trkpt lat="45.85431" lon="1.18973">
        <ele>372.7</ele>
        <time>2024-10-21T08:35:24Z</time>
      </trkpt>
      <trkpt lat="45.8543" lon="1.18974">
        <ele>372.7</ele>
        <time>2024-10-21T08:35:25Z</time>
      </trkpt>
      <trkpt lat="45.85429" lon="1.18975">
        <ele>372.6</ele>
        <time>2024-10-21T08:35:26Z</time>
      </trkpt>
      <trkpt lat="45.85427" lon="1.18976">
        <ele>372.6</ele>
        <time>2024-10-21T08:35:27Z</time>
      </trkpt>
      <trkpt lat="45.85427" lon="1.18976">
        <ele>372.6</ele>
        <time>2024-10-21T08:35:28Z</time>
      </trkpt>
      <trkpt lat="45.85426" lon="1.18977">
        <ele>372.5</ele>
        <time>2024-10-21T08:35:29Z</time>
      </trkpt>
      <trkpt lat="45.85425" lon="1.18978">
        <ele>372.5</ele>
        <time>2024-10-21T08:35:30Z</time>
      </trkpt>
      <trkpt lat="45.85424" lon="1.18979">
        <ele>372.4</ele>
        <time>2024-10-21T08:35:31Z</time>
      </trkpt>
      <trkpt lat="45.85422" lon="1.1898">
        <ele>372.4</ele>
        <time>2024-10-21T08:35:32Z</time>
      </trkpt>
      <trkpt lat="45.8542" lon="1.18982">
        <ele>372.3</ele>
        <time>2024-10-21T08:35:33Z</time>
      </trkpt>
      <trkpt lat="45.85419" lon="1.18983">
        <ele>372.3</ele>
        <time>2024-10-21T08:35:34Z</time>
      </trkpt>
      <trkpt lat="45.85418" lon="1.18983">
        <ele>372.2</ele>
        <time>2024-10-21T08:35:35Z</time>
      </trkpt>
      <trkpt lat="45.85417" lon="1.18983">
        <ele>372.2</ele>
        <time>2024-10-21T08:35:36Z</time>
      </trkpt>
      <trkpt lat="45.85416" lon="1.18983">
        <ele>372.2</ele>
        <time>2024-10-21T08:35:37Z</time>
      </trkpt>
      <trkpt lat="45.85416" lon="1.18983">
        <ele>372.2</ele>
        <time>2024-10-21T08:35:38Z</time>
      </trkpt>
      <trkpt lat="45.85415" lon="1.18983">
        <ele>372.1</ele>
        <time>2024-10-21T08:35:39Z</time>
      </trkpt>
      <trkpt lat="45.85414" lon="1.18984">
        <ele>372.1</ele>
        <time>2024-10-21T08:35:40Z</time>
      </trkpt>
      <trkpt lat="45.85413" lon="1.18985">
        <ele>372</ele>
        <time>2024-10-21T08:35:41Z</time>
      </trkpt>
      <trkpt lat="45.85412" lon="1.18987">
        <ele>371.9</ele>
        <time>2024-10-21T08:35:42Z</time>
      </trkpt>
      <trkpt lat="45.8541" lon="1.18988">
        <ele>371.9</ele>
        <time>2024-10-21T08:35:43Z</time>
      </trkpt>
      <trkpt lat="45.85409" lon="1.18989">
        <ele>371.8</ele>
        <time>2024-10-21T08:35:44Z</time>
      </trkpt>
      <trkpt lat="45.85407" lon="1.1899">
        <ele>371.7</ele>
        <time>2024-10-21T08:35:45Z</time>
      </trkpt>
      <trkpt lat="45.85406" lon="1.18991">
        <ele>371.7</ele>
        <time>2024-10-21T08:35:46Z</time>
      </trkpt>
      <trkpt lat="45.85405" lon="1.18992">
        <ele>371.6</ele>
        <time>2024-10-21T08:35:47Z</time>
      </trkpt>
      <trkpt lat="45.85403" lon="1.18993">
        <ele>371.5</ele>
        <time>2024-10-21T08:35:48Z</time>
      </trkpt>
      <trkpt lat="45.85402" lon="1.18995">
        <ele>371.5</ele>
        <time>2024-10-21T08:35:49Z</time>
      </trkpt>
      <trkpt lat="45.85401" lon="1.18996">
        <ele>371.4</ele>
        <time>2024-10-21T08:35:50Z</time>
      </trkpt>
      <trkpt lat="45.854" lon="1.18998">
        <ele>371.3</ele>
        <time>2024-10-21T08:35:51Z</time>
      </trkpt>
      <trkpt lat="45.85399" lon="1.18999">
        <ele>371.3</ele>
        <time>2024-10-21T08:35:52Z</time>
      </trkpt>
      <trkpt lat="45.85398" lon="1.19001">
        <ele>371.2</ele>
        <time>2024-10-21T08:35:53Z</time>
      </trkpt>
      <trkpt lat="45.85396" lon="1.19002">
        <ele>371.1</ele>
        <time>2024-10-21T08:35:54Z</time>
      </trkpt>
      <trkpt lat="45.85395" lon="1.19003">
        <ele>371.1</ele>
        <time>2024-10-21T08:35:55Z</time>
      </trkpt>
      <trkpt lat="45.85394" lon="1.19005">
        <ele>371</ele>
        <time>2024-10-21T08:35:56Z</time>
      </trkpt>
      <trkpt lat="45.85392" lon="1.19007">
        <ele>370.9</ele>
        <time>2024-10-21T08:35:57Z</time>
      </trkpt>
      <trkpt lat="45.85392" lon="1.19007">
        <ele>370.9</ele>
        <time>2024-10-21T08:35:58Z</time>
      </trkpt>
      <trkpt lat="45.85391" lon="1.19008">
        <ele>370.8</ele>
        <time>2024-10-21T08:35:59Z</time>
      </trkpt>
      <trkpt lat="45.8539" lon="1.19009">
        <ele>370.8</ele>
        <time>2024-10-21T08:36:00Z</time>
      </trkpt>
      <trkpt lat="45.85389" lon="1.1901">
        <ele>370.7</ele>
        <time>2024-10-21T08:36:01Z</time>
      </trkpt>
      <trkpt lat="45.85387" lon="1.19011">
        <ele>370.7</ele>
        <time>2024-10-21T08:36:02Z</time>
      </trkpt>
      <trkpt lat="45.85386" lon="1.19012">
        <ele>370.6</ele>
        <time>2024-10-21T08:36:03Z</time>
      </trkpt>
      <trkpt lat="45.85385" lon="1.19013">
        <ele>370.5</ele>
        <time>2024-10-21T08:36:04Z</time>
      </trkpt>
      <trkpt lat="45.85384" lon="1.19014">
        <ele>370.5</ele>
        <time>2024-10-21T08:36:05Z</time>
      </trkpt>
      <trkpt lat="45.85382" lon="1.19015">
        <ele>370.4</ele>
        <time>2024-10-21T08:36:06Z</time>
      </trkpt>
      <trkpt lat="45.85381" lon="1.19016">
        <ele>370.4</ele>
        <time>2024-10-21T08:36:07Z</time>
      </trkpt>
      <trkpt lat="45.8538" lon="1.19016">
        <ele>370.3</ele>
        <time>2024-10-21T08:36:08Z</time>
      </trkpt>
      <trkpt lat="45.85378" lon="1.19018">
        <ele>370.2</ele>
        <time>2024-10-21T08:36:09Z</time>
      </trkpt>
      <trkpt lat="45.85376" lon="1.19018">
        <ele>370.2</ele>
        <time>2024-10-21T08:36:10Z</time>
      </trkpt>
      <trkpt lat="45.85375" lon="1.19018">
        <ele>370.1</ele>
        <time>2024-10-21T08:36:11Z</time>
      </trkpt>
      <trkpt lat="45.85373" lon="1.19018">
        <ele>370.1</ele>
        <time>2024-10-21T08:36:12Z</time>
      </trkpt>
      <trkpt lat="45.85372" lon="1.19019">
        <ele>370</ele>
        <time>2024-10-21T08:36:13Z</time>
      </trkpt>
      <trkpt lat="45.85371" lon="1.19019">
        <ele>369.9</ele>
        <time>2024-10-21T08:36:14Z</time>
      </trkpt>
      <trkpt lat="45.85369" lon="1.19019">
        <ele>369.9</ele>
        <time>2024-10-21T08:36:15Z</time>
      </trkpt>
      <trkpt lat="45.85368" lon="1.1902">
        <ele>369.8</ele>
        <time>2024-10-21T08:36:16Z</time>
      </trkpt>
      <trkpt lat="45.85367" lon="1.19021">
        <ele>369.8</ele>
        <time>2024-10-21T08:36:17Z</time>
      </trkpt>
      <trkpt lat="45.85365" lon="1.19022">
        <ele>369.7</ele>
        <time>2024-10-21T08:36:18Z</time>
      </trkpt>
      <trkpt lat="45.85364" lon="1.19023">
        <ele>369.7</ele>
        <time>2024-10-21T08:36:20Z</time>
      </trkpt>
      <trkpt lat="45.85364" lon="1.19024">
        <ele>369.6</ele>
        <time>2024-10-21T08:36:21Z</time>
      </trkpt>
      <trkpt lat="45.85365" lon="1.19026">
        <ele>369.5</ele>
        <time>2024-10-21T08:36:22Z</time>
      </trkpt>
      <trkpt lat="45.85365" lon="1.19028">
        <ele>369.5</ele>
        <time>2024-10-21T08:36:23Z</time>
      </trkpt>
      <trkpt lat="45.85365" lon="1.19029">
        <ele>369.4</ele>
        <time>2024-10-21T08:36:24Z</time>
      </trkpt>
      <trkpt lat="45.85365" lon="1.19031">
        <ele>369.4</ele>
        <time>2024-10-21T08:36:25Z</time>
      </trkpt>
      <trkpt lat="45.85366" lon="1.19035">
        <ele>369.3</ele>
        <time>2024-10-21T08:36:26Z</time>
      </trkpt>
      <trkpt lat="45.85366" lon="1.19036">
        <ele>369.2</ele>
        <time>2024-10-21T08:36:27Z</time>
      </trkpt>
      <trkpt lat="45.85364" lon="1.1904">
        <ele>369.1</ele>
        <time>2024-10-21T08:36:28Z</time>
      </trkpt>
      <trkpt lat="45.85364" lon="1.19041">
        <ele>369.1</ele>
        <time>2024-10-21T08:36:29Z</time>
      </trkpt>
      <trkpt lat="45.85361" lon="1.19043">
        <ele>369</ele>
        <time>2024-10-21T08:36:30Z</time>
      </trkpt>
      <trkpt lat="45.85359" lon="1.19043">
        <ele>368.9</ele>
        <time>2024-10-21T08:36:31Z</time>
      </trkpt>
      <trkpt lat="45.85356" lon="1.19045">
        <ele>368.8</ele>
        <time>2024-10-21T08:36:32Z</time>
      </trkpt>
      <trkpt lat="45.85355" lon="1.19045">
        <ele>368.8</ele>
        <time>2024-10-21T08:36:33Z</time>
      </trkpt>
      <trkpt lat="45.85352" lon="1.19048">
        <ele>368.6</ele>
        <time>2024-10-21T08:36:34Z</time>
      </trkpt>
      <trkpt lat="45.85352" lon="1.19048">
        <ele>368.6</ele>
        <time>2024-10-21T08:36:35Z</time>
      </trkpt>
      <trkpt lat="45.85349" lon="1.19051">
        <ele>368.5</ele>
        <time>2024-10-21T08:36:36Z</time>
      </trkpt>
      <trkpt lat="45.85349" lon="1.19052">
        <ele>368.5</ele>
        <time>2024-10-21T08:36:37Z</time>
      </trkpt>
      <trkpt lat="45.85346" lon="1.19055">
        <ele>368.4</ele>
        <time>2024-10-21T08:36:38Z</time>
      </trkpt>
      <trkpt lat="45.85346" lon="1.19056">
        <ele>368.3</ele>
        <time>2024-10-21T08:36:39Z</time>
      </trkpt>
      <trkpt lat="45.85343" lon="1.19059">
        <ele>368.2</ele>
        <time>2024-10-21T08:36:40Z</time>
      </trkpt>
      <trkpt lat="45.85342" lon="1.1906">
        <ele>368.1</ele>
        <time>2024-10-21T08:36:41Z</time>
      </trkpt>
      <trkpt lat="45.85338" lon="1.19065">
        <ele>367.9</ele>
        <time>2024-10-21T08:36:42Z</time>
      </trkpt>
      <trkpt lat="45.85337" lon="1.19067">
        <ele>367.8</ele>
        <time>2024-10-21T08:36:43Z</time>
      </trkpt>
      <trkpt lat="45.85335" lon="1.1907">
        <ele>367.7</ele>
        <time>2024-10-21T08:36:44Z</time>
      </trkpt>
      <trkpt lat="45.85334" lon="1.19071">
        <ele>367.7</ele>
        <time>2024-10-21T08:36:45Z</time>
      </trkpt>
      <trkpt lat="45.85332" lon="1.19074">
        <ele>367.5</ele>
        <time>2024-10-21T08:36:46Z</time>
      </trkpt>
      <trkpt lat="45.85332" lon="1.19075">
        <ele>367.5</ele>
        <time>2024-10-21T08:36:47Z</time>
      </trkpt>
      <trkpt lat="45.85329" lon="1.19077">
        <ele>367.4</ele>
        <time>2024-10-21T08:36:48Z</time>
      </trkpt>
      <trkpt lat="45.85329" lon="1.19078">
        <ele>367.4</ele>
        <time>2024-10-21T08:36:49Z</time>
      </trkpt>
      <trkpt lat="45.85326" lon="1.1908">
        <ele>367.3</ele>
        <time>2024-10-21T08:36:50Z</time>
      </trkpt>
      <trkpt lat="45.85325" lon="1.19081">
        <ele>367.2</ele>
        <time>2024-10-21T08:36:51Z</time>
      </trkpt>
      <trkpt lat="45.85324" lon="1.19083">
        <ele>367.2</ele>
        <time>2024-10-21T08:36:52Z</time>
      </trkpt>
      <trkpt lat="45.85323" lon="1.19084">
        <ele>367.1</ele>
        <time>2024-10-21T08:36:53Z</time>
      </trkpt>
      <trkpt lat="45.8532" lon="1.19086">
        <ele>367</ele>
        <time>2024-10-21T08:36:54Z</time>
      </trkpt>
      <trkpt lat="45.85319" lon="1.19086">
        <ele>367</ele>
        <time>2024-10-21T08:36:55Z</time>
      </trkpt>
      <trkpt lat="45.85318" lon="1.19088">
        <ele>366.9</ele>
        <time>2024-10-21T08:36:56Z</time>
      </trkpt>
      <trkpt lat="45.85316" lon="1.19089">
        <ele>366.9</ele>
        <time>2024-10-21T08:36:57Z</time>
      </trkpt>
      <trkpt lat="45.85313" lon="1.1909">
        <ele>366.8</ele>
        <time>2024-10-21T08:36:58Z</time>
      </trkpt>
      <trkpt lat="45.85313" lon="1.1909">
        <ele>366.8</ele>
        <time>2024-10-21T08:36:59Z</time>
      </trkpt>
      <trkpt lat="45.85311" lon="1.19091">
        <ele>366.7</ele>
        <time>2024-10-21T08:37:00Z</time>
      </trkpt>
      <trkpt lat="45.8531" lon="1.19093">
        <ele>366.6</ele>
        <time>2024-10-21T08:37:01Z</time>
      </trkpt>
      <trkpt lat="45.85308" lon="1.19094">
        <ele>366.6</ele>
        <time>2024-10-21T08:37:02Z</time>
      </trkpt>
      <trkpt lat="45.85307" lon="1.19095">
        <ele>366.5</ele>
        <time>2024-10-21T08:37:03Z</time>
      </trkpt>
      <trkpt lat="45.85306" lon="1.19097">
        <ele>366.5</ele>
        <time>2024-10-21T08:37:04Z</time>
      </trkpt>
      <trkpt lat="45.85304" lon="1.19098">
        <ele>366.4</ele>
        <time>2024-10-21T08:37:05Z</time>
      </trkpt>
      <trkpt lat="45.85303" lon="1.19099">
        <ele>366.4</ele>
        <time>2024-10-21T08:37:06Z</time>
      </trkpt>
      <trkpt lat="45.85302" lon="1.191">
        <ele>366.3</ele>
        <time>2024-10-21T08:37:07Z</time>
      </trkpt>
      <trkpt lat="45.853" lon="1.19101">
        <ele>366.3</ele>
        <time>2024-10-21T08:37:08Z</time>
      </trkpt>
      <trkpt lat="45.85298" lon="1.19102">
        <ele>366.2</ele>
        <time>2024-10-21T08:37:09Z</time>
      </trkpt>
      <trkpt lat="45.85297" lon="1.19103">
        <ele>366.2</ele>
        <time>2024-10-21T08:37:10Z</time>
      </trkpt>
      <trkpt lat="45.85296" lon="1.19104">
        <ele>366.1</ele>
        <time>2024-10-21T08:37:11Z</time>
      </trkpt>
      <trkpt lat="45.85294" lon="1.19105">
        <ele>366.1</ele>
        <time>2024-10-21T08:37:12Z</time>
      </trkpt>
      <trkpt lat="45.85293" lon="1.19106">
        <ele>366</ele>
        <time>2024-10-21T08:37:13Z</time>
      </trkpt>
      <trkpt lat="45.85291" lon="1.19107">
        <ele>366</ele>
        <time>2024-10-21T08:37:14Z</time>
      </trkpt>
      <trkpt lat="45.8529" lon="1.19108">
        <ele>365.9</ele>
        <time>2024-10-21T08:37:15Z</time>
      </trkpt>
      <trkpt lat="45.85288" lon="1.1911">
        <ele>365.9</ele>
        <time>2024-10-21T08:37:16Z</time>
      </trkpt>
      <trkpt lat="45.85287" lon="1.1911">
        <ele>365.8</ele>
        <time>2024-10-21T08:37:17Z</time>
      </trkpt>
      <trkpt lat="45.85286" lon="1.19111">
        <ele>365.8</ele>
        <time>2024-10-21T08:37:18Z</time>
      </trkpt>
      <trkpt lat="45.85284" lon="1.19112">
        <ele>365.7</ele>
        <time>2024-10-21T08:37:19Z</time>
      </trkpt>
      <trkpt lat="45.85283" lon="1.19113">
        <ele>365.7</ele>
        <time>2024-10-21T08:37:20Z</time>
      </trkpt>
      <trkpt lat="45.85282" lon="1.19114">
        <ele>365.7</ele>
        <time>2024-10-21T08:37:21Z</time>
      </trkpt>
      <trkpt lat="45.8528" lon="1.19115">
        <ele>365.6</ele>
        <time>2024-10-21T08:37:22Z</time>
      </trkpt>
      <trkpt lat="45.85279" lon="1.19116">
        <ele>365.6</ele>
        <time>2024-10-21T08:37:23Z</time>
      </trkpt>
      <trkpt lat="45.85277" lon="1.19117">
        <ele>365.5</ele>
        <time>2024-10-21T08:37:24Z</time>
      </trkpt>
      <trkpt lat="45.85276" lon="1.19118">
        <ele>365.5</ele>
        <time>2024-10-21T08:37:25Z</time>
      </trkpt>
      <trkpt lat="45.85275" lon="1.19119">
        <ele>365.5</ele>
        <time>2024-10-21T08:37:26Z</time>
      </trkpt>
      <trkpt lat="45.85274" lon="1.1912">
        <ele>365.5</ele>
        <time>2024-10-21T08:37:27Z</time>
      </trkpt>
      <trkpt lat="45.85273" lon="1.19122">
        <ele>365.4</ele>
        <time>2024-10-21T08:37:28Z</time>
      </trkpt>
      <trkpt lat="45.85272" lon="1.19123">
        <ele>365.4</ele>
        <time>2024-10-21T08:37:29Z</time>
      </trkpt>
      <trkpt lat="45.85271" lon="1.19124">
        <ele>365.4</ele>
        <time>2024-10-21T08:37:30Z</time>
      </trkpt>
      <trkpt lat="45.8527" lon="1.19125">
        <ele>365.3</ele>
        <time>2024-10-21T08:37:31Z</time>
      </trkpt>
      <trkpt lat="45.85268" lon="1.19127">
        <ele>365.3</ele>
        <time>2024-10-21T08:37:32Z</time>
      </trkpt>
      <trkpt lat="45.85266" lon="1.19128">
        <ele>365.3</ele>
        <time>2024-10-21T08:37:33Z</time>
      </trkpt>
      <trkpt lat="45.85265" lon="1.19129">
        <ele>365.2</ele>
        <time>2024-10-21T08:37:34Z</time>
      </trkpt>
      <trkpt lat="45.85264" lon="1.1913">
        <ele>365.2</ele>
        <time>2024-10-21T08:37:35Z</time>
      </trkpt>
      <trkpt lat="45.85263" lon="1.19131">
        <ele>365.2</ele>
        <time>2024-10-21T08:37:36Z</time>
      </trkpt>
      <trkpt lat="45.85262" lon="1.19133">
        <ele>365.2</ele>
        <time>2024-10-21T08:37:37Z</time>
      </trkpt>
      <trkpt lat="45.8526" lon="1.19135">
        <ele>365.1</ele>
        <time>2024-10-21T08:37:38Z</time>
      </trkpt>
      <trkpt lat="45.85258" lon="1.19136">
        <ele>365.1</ele>
        <time>2024-10-21T08:37:39Z</time>
      </trkpt>
      <trkpt lat="45.85256" lon="1.19135">
        <ele>365.1</ele>
        <time>2024-10-21T08:37:41Z</time>
      </trkpt>
      <trkpt lat="45.85254" lon="1.19137">
        <ele>365</ele>
        <time>2024-10-21T08:37:43Z</time>
      </trkpt>
      <trkpt lat="45.85253" lon="1.19139">
        <ele>365</ele>
        <time>2024-10-21T08:37:44Z</time>
      </trkpt>
      <trkpt lat="45.85251" lon="1.1914">
        <ele>365</ele>
        <time>2024-10-21T08:37:45Z</time>
      </trkpt>
      <trkpt lat="45.8525" lon="1.19141">
        <ele>365</ele>
        <time>2024-10-21T08:37:46Z</time>
      </trkpt>
      <trkpt lat="45.85249" lon="1.19142">
        <ele>365</ele>
        <time>2024-10-21T08:37:47Z</time>
      </trkpt>
      <trkpt lat="45.85248" lon="1.19144">
        <ele>364.9</ele>
        <time>2024-10-21T08:37:48Z</time>
      </trkpt>
      <trkpt lat="45.85246" lon="1.19145">
        <ele>364.9</ele>
        <time>2024-10-21T08:37:49Z</time>
      </trkpt>
      <trkpt lat="45.85245" lon="1.19146">
        <ele>364.9</ele>
        <time>2024-10-21T08:37:50Z</time>
      </trkpt>
      <trkpt lat="45.85244" lon="1.19147">
        <ele>364.9</ele>
        <time>2024-10-21T08:37:51Z</time>
      </trkpt>
      <trkpt lat="45.85243" lon="1.19147">
        <ele>364.9</ele>
        <time>2024-10-21T08:37:52Z</time>
      </trkpt>
      <trkpt lat="45.85241" lon="1.19148">
        <ele>364.9</ele>
        <time>2024-10-21T08:37:53Z</time>
      </trkpt>
      <trkpt lat="45.8524" lon="1.19149">
        <ele>364.8</ele>
        <time>2024-10-21T08:37:54Z</time>
      </trkpt>
      <trkpt lat="45.85239" lon="1.1915">
        <ele>364.8</ele>
        <time>2024-10-21T08:37:55Z</time>
      </trkpt>
      <trkpt lat="45.85237" lon="1.19151">
        <ele>364.8</ele>
        <time>2024-10-21T08:37:56Z</time>
      </trkpt>
      <trkpt lat="45.85236" lon="1.19153">
        <ele>364.8</ele>
        <time>2024-10-21T08:37:57Z</time>
      </trkpt>
      <trkpt lat="45.85234" lon="1.19154">
        <ele>364.8</ele>
        <time>2024-10-21T08:37:58Z</time>
      </trkpt>
      <trkpt lat="45.85233" lon="1.19154">
        <ele>364.7</ele>
        <time>2024-10-21T08:37:59Z</time>
      </trkpt>
      <trkpt lat="45.85232" lon="1.19155">
        <ele>364.7</ele>
        <time>2024-10-21T08:38:00Z</time>
      </trkpt>
      <trkpt lat="45.8523" lon="1.19157">
        <ele>364.7</ele>
        <time>2024-10-21T08:38:01Z</time>
      </trkpt>
      <trkpt lat="45.85229" lon="1.19157">
        <ele>364.7</ele>
        <time>2024-10-21T08:38:03Z</time>
      </trkpt>
      <trkpt lat="45.85228" lon="1.19158">
        <ele>364.6</ele>
        <time>2024-10-21T08:38:04Z</time>
      </trkpt>
      <trkpt lat="45.85226" lon="1.19159">
        <ele>364.6</ele>
        <time>2024-10-21T08:38:05Z</time>
      </trkpt>
      <trkpt lat="45.85225" lon="1.19159">
        <ele>364.6</ele>
        <time>2024-10-21T08:38:06Z</time>
      </trkpt>
      <trkpt lat="45.85224" lon="1.19161">
        <ele>364.6</ele>
        <time>2024-10-21T08:38:07Z</time>
      </trkpt>
      <trkpt lat="45.85223" lon="1.19161">
        <ele>364.6</ele>
        <time>2024-10-21T08:38:09Z</time>
      </trkpt>
      <trkpt lat="45.85221" lon="1.19162">
        <ele>364.5</ele>
        <time>2024-10-21T08:38:10Z</time>
      </trkpt>
      <trkpt lat="45.8522" lon="1.19162">
        <ele>364.5</ele>
        <time>2024-10-21T08:38:11Z</time>
      </trkpt>
      <trkpt lat="45.85217" lon="1.19164">
        <ele>364.5</ele>
        <time>2024-10-21T08:38:12Z</time>
      </trkpt>
      <trkpt lat="45.85216" lon="1.19165">
        <ele>364.4</ele>
        <time>2024-10-21T08:38:13Z</time>
      </trkpt>
      <trkpt lat="45.85215" lon="1.19166">
        <ele>364.4</ele>
        <time>2024-10-21T08:38:14Z</time>
      </trkpt>
      <trkpt lat="45.85214" lon="1.19166">
        <ele>364.4</ele>
        <time>2024-10-21T08:38:15Z</time>
      </trkpt>
      <trkpt lat="45.85213" lon="1.19168">
        <ele>364.4</ele>
        <time>2024-10-21T08:38:16Z</time>
      </trkpt>
      <trkpt lat="45.85213" lon="1.19168">
        <ele>364.4</ele>
        <time>2024-10-21T08:38:17Z</time>
      </trkpt>
      <trkpt lat="45.85211" lon="1.19168">
        <ele>364.3</ele>
        <time>2024-10-21T08:38:18Z</time>
      </trkpt>
      <trkpt lat="45.8521" lon="1.19169">
        <ele>364.3</ele>
        <time>2024-10-21T08:38:19Z</time>
      </trkpt>
      <trkpt lat="45.85208" lon="1.19171">
        <ele>364.3</ele>
        <time>2024-10-21T08:38:20Z</time>
      </trkpt>
      <trkpt lat="45.85207" lon="1.19172">
        <ele>364.3</ele>
        <time>2024-10-21T08:38:21Z</time>
      </trkpt>
      <trkpt lat="45.85206" lon="1.19172">
        <ele>364.2</ele>
        <time>2024-10-21T08:38:22Z</time>
      </trkpt>
      <trkpt lat="45.85205" lon="1.19174">
        <ele>364.2</ele>
        <time>2024-10-21T08:38:23Z</time>
      </trkpt>
      <trkpt lat="45.85204" lon="1.19175">
        <ele>364.2</ele>
        <time>2024-10-21T08:38:24Z</time>
      </trkpt>
      <trkpt lat="45.85203" lon="1.19176">
        <ele>364.1</ele>
        <time>2024-10-21T08:38:25Z</time>
      </trkpt>
      <trkpt lat="45.85202" lon="1.19177">
        <ele>364.1</ele>
        <time>2024-10-21T08:38:26Z</time>
      </trkpt>
      <trkpt lat="45.852" lon="1.19178">
        <ele>364.1</ele>
        <time>2024-10-21T08:38:27Z</time>
      </trkpt>
      <trkpt lat="45.85199" lon="1.1918">
        <ele>364.1</ele>
        <time>2024-10-21T08:38:28Z</time>
      </trkpt>
      <trkpt lat="45.85198" lon="1.1918">
        <ele>364</ele>
        <time>2024-10-21T08:38:29Z</time>
      </trkpt>
      <trkpt lat="45.85197" lon="1.1918">
        <ele>364</ele>
        <time>2024-10-21T08:38:30Z</time>
      </trkpt>
      <trkpt lat="45.85196" lon="1.19181">
        <ele>364</ele>
        <time>2024-10-21T08:38:31Z</time>
      </trkpt>
      <trkpt lat="45.85195" lon="1.19182">
        <ele>364</ele>
        <time>2024-10-21T08:38:32Z</time>
      </trkpt>
      <trkpt lat="45.85194" lon="1.19183">
        <ele>364</ele>
        <time>2024-10-21T08:38:33Z</time>
      </trkpt>
      <trkpt lat="45.85193" lon="1.19185">
        <ele>363.9</ele>
        <time>2024-10-21T08:38:34Z</time>
      </trkpt>
      <trkpt lat="45.85192" lon="1.19186">
        <ele>363.9</ele>
        <time>2024-10-21T08:38:35Z</time>
      </trkpt>
      <trkpt lat="45.85191" lon="1.19187">
        <ele>363.9</ele>
        <time>2024-10-21T08:38:36Z</time>
      </trkpt>
      <trkpt lat="45.8519" lon="1.19188">
        <ele>363.8</ele>
        <time>2024-10-21T08:38:37Z</time>
      </trkpt>
      <trkpt lat="45.85188" lon="1.19189">
        <ele>363.8</ele>
        <time>2024-10-21T08:38:38Z</time>
      </trkpt>
      <trkpt lat="45.85187" lon="1.1919">
        <ele>363.8</ele>
        <time>2024-10-21T08:38:39Z</time>
      </trkpt>
      <trkpt lat="45.85186" lon="1.19191">
        <ele>363.8</ele>
        <time>2024-10-21T08:38:40Z</time>
      </trkpt>
      <trkpt lat="45.85184" lon="1.19192">
        <ele>363.7</ele>
        <time>2024-10-21T08:38:41Z</time>
      </trkpt>
      <trkpt lat="45.85183" lon="1.19193">
        <ele>363.7</ele>
        <time>2024-10-21T08:38:42Z</time>
      </trkpt>
      <trkpt lat="45.85182" lon="1.19194">
        <ele>363.7</ele>
        <time>2024-10-21T08:38:43Z</time>
      </trkpt>
      <trkpt lat="45.85181" lon="1.19195">
        <ele>363.7</ele>
        <time>2024-10-21T08:38:44Z</time>
      </trkpt>
      <trkpt lat="45.8518" lon="1.19197">
        <ele>363.6</ele>
        <time>2024-10-21T08:38:45Z</time>
      </trkpt>
      <trkpt lat="45.85178" lon="1.19198">
        <ele>363.6</ele>
        <time>2024-10-21T08:38:46Z</time>
      </trkpt>
      <trkpt lat="45.85177" lon="1.19199">
        <ele>363.6</ele>
        <time>2024-10-21T08:38:47Z</time>
      </trkpt>
      <trkpt lat="45.85176" lon="1.192">
        <ele>363.5</ele>
        <time>2024-10-21T08:38:48Z</time>
      </trkpt>
      <trkpt lat="45.85175" lon="1.192">
        <ele>363.5</ele>
        <time>2024-10-21T08:38:49Z</time>
      </trkpt>
      <trkpt lat="45.85174" lon="1.19201">
        <ele>363.5</ele>
        <time>2024-10-21T08:38:50Z</time>
      </trkpt>
      <trkpt lat="45.85173" lon="1.19201">
        <ele>363.5</ele>
        <time>2024-10-21T08:38:51Z</time>
      </trkpt>
      <trkpt lat="45.85171" lon="1.19202">
        <ele>363.4</ele>
        <time>2024-10-21T08:38:52Z</time>
      </trkpt>
      <trkpt lat="45.85169" lon="1.19203">
        <ele>363.4</ele>
        <time>2024-10-21T08:38:53Z</time>
      </trkpt>
      <trkpt lat="45.85168" lon="1.19204">
        <ele>363.4</ele>
        <time>2024-10-21T08:38:54Z</time>
      </trkpt>
      <trkpt lat="45.85167" lon="1.19205">
        <ele>363.3</ele>
        <time>2024-10-21T08:38:55Z</time>
      </trkpt>
      <trkpt lat="45.85166" lon="1.19206">
        <ele>363.3</ele>
        <time>2024-10-21T08:38:56Z</time>
      </trkpt>
      <trkpt lat="45.85164" lon="1.19207">
        <ele>363.3</ele>
        <time>2024-10-21T08:38:57Z</time>
      </trkpt>
      <trkpt lat="45.85163" lon="1.19208">
        <ele>363.2</ele>
        <time>2024-10-21T08:38:58Z</time>
      </trkpt>
      <trkpt lat="45.85162" lon="1.19208">
        <ele>363.2</ele>
        <time>2024-10-21T08:38:59Z</time>
      </trkpt>
      <trkpt lat="45.8516" lon="1.1921">
        <ele>363.1</ele>
        <time>2024-10-21T08:39:00Z</time>
      </trkpt>
      <trkpt lat="45.85159" lon="1.1921">
        <ele>363.1</ele>
        <time>2024-10-21T08:39:01Z</time>
      </trkpt>
      <trkpt lat="45.85159" lon="1.19211">
        <ele>363.1</ele>
        <time>2024-10-21T08:39:02Z</time>
      </trkpt>
      <trkpt lat="45.85158" lon="1.19212">
        <ele>363.1</ele>
        <time>2024-10-21T08:39:03Z</time>
      </trkpt>
      <trkpt lat="45.85156" lon="1.19213">
        <ele>363</ele>
        <time>2024-10-21T08:39:04Z</time>
      </trkpt>
      <trkpt lat="45.85155" lon="1.19214">
        <ele>363</ele>
        <time>2024-10-21T08:39:05Z</time>
      </trkpt>
      <trkpt lat="45.85154" lon="1.19215">
        <ele>362.9</ele>
        <time>2024-10-21T08:39:06Z</time>
      </trkpt>
      <trkpt lat="45.85152" lon="1.19217">
        <ele>362.9</ele>
        <time>2024-10-21T08:39:07Z</time>
      </trkpt>
      <trkpt lat="45.85151" lon="1.19217">
        <ele>362.8</ele>
        <time>2024-10-21T08:39:08Z</time>
      </trkpt>
      <trkpt lat="45.8515" lon="1.19218">
        <ele>362.8</ele>
        <time>2024-10-21T08:39:09Z</time>
      </trkpt>
      <trkpt lat="45.85149" lon="1.19219">
        <ele>362.8</ele>
        <time>2024-10-21T08:39:10Z</time>
      </trkpt>
      <trkpt lat="45.85147" lon="1.19219">
        <ele>362.7</ele>
        <time>2024-10-21T08:39:11Z</time>
      </trkpt>
      <trkpt lat="45.85145" lon="1.1922">
        <ele>362.6</ele>
        <time>2024-10-21T08:39:12Z</time>
      </trkpt>
      <trkpt lat="45.85145" lon="1.1922">
        <ele>362.6</ele>
        <time>2024-10-21T08:39:13Z</time>
      </trkpt>
      <trkpt lat="45.85144" lon="1.19221">
        <ele>362.6</ele>
        <time>2024-10-21T08:39:14Z</time>
      </trkpt>
      <trkpt lat="45.85142" lon="1.19221">
        <ele>362.5</ele>
        <time>2024-10-21T08:39:15Z</time>
      </trkpt>
      <trkpt lat="45.85141" lon="1.19222">
        <ele>362.5</ele>
        <time>2024-10-21T08:39:16Z</time>
      </trkpt>
      <trkpt lat="45.85139" lon="1.19224">
        <ele>362.4</ele>
        <time>2024-10-21T08:39:17Z</time>
      </trkpt>
      <trkpt lat="45.85138" lon="1.19224">
        <ele>362.3</ele>
        <time>2024-10-21T08:39:18Z</time>
      </trkpt>
      <trkpt lat="45.85137" lon="1.19225">
        <ele>362.3</ele>
        <time>2024-10-21T08:39:19Z</time>
      </trkpt>
      <trkpt lat="45.85136" lon="1.19226">
        <ele>362.2</ele>
        <time>2024-10-21T08:39:20Z</time>
      </trkpt>
      <trkpt lat="45.85135" lon="1.19226">
        <ele>362.2</ele>
        <time>2024-10-21T08:39:21Z</time>
      </trkpt>
      <trkpt lat="45.85134" lon="1.19227">
        <ele>362.1</ele>
        <time>2024-10-21T08:39:22Z</time>
      </trkpt>
      <trkpt lat="45.85133" lon="1.19228">
        <ele>362.1</ele>
        <time>2024-10-21T08:39:23Z</time>
      </trkpt>
      <trkpt lat="45.85131" lon="1.19229">
        <ele>362</ele>
        <time>2024-10-21T08:39:24Z</time>
      </trkpt>
      <trkpt lat="45.85129" lon="1.1923">
        <ele>361.9</ele>
        <time>2024-10-21T08:39:25Z</time>
      </trkpt>
      <trkpt lat="45.85129" lon="1.1923">
        <ele>361.9</ele>
        <time>2024-10-21T08:39:26Z</time>
      </trkpt>
      <trkpt lat="45.85128" lon="1.19231">
        <ele>361.9</ele>
        <time>2024-10-21T08:39:27Z</time>
      </trkpt>
      <trkpt lat="45.85127" lon="1.19231">
        <ele>361.8</ele>
        <time>2024-10-21T08:39:28Z</time>
      </trkpt>
      <trkpt lat="45.85125" lon="1.19232">
        <ele>361.8</ele>
        <time>2024-10-21T08:39:29Z</time>
      </trkpt>
      <trkpt lat="45.85124" lon="1.19233">
        <ele>361.7</ele>
        <time>2024-10-21T08:39:30Z</time>
      </trkpt>
      <trkpt lat="45.85123" lon="1.19233">
        <ele>361.7</ele>
        <time>2024-10-21T08:39:31Z</time>
      </trkpt>
      <trkpt lat="45.85122" lon="1.19233">
        <ele>361.6</ele>
        <time>2024-10-21T08:39:32Z</time>
      </trkpt>
      <trkpt lat="45.8512" lon="1.19234">
        <ele>361.5</ele>
        <time>2024-10-21T08:39:33Z</time>
      </trkpt>
      <trkpt lat="45.85119" lon="1.19234">
        <ele>361.5</ele>
        <time>2024-10-21T08:39:34Z</time>
      </trkpt>
      <trkpt lat="45.85118" lon="1.19234">
        <ele>361.4</ele>
        <time>2024-10-21T08:39:35Z</time>
      </trkpt>
      <trkpt lat="45.85116" lon="1.19234">
        <ele>361.3</ele>
        <time>2024-10-21T08:39:36Z</time>
      </trkpt>
      <trkpt lat="45.85115" lon="1.19234">
        <ele>361.3</ele>
        <time>2024-10-21T08:39:37Z</time>
      </trkpt>
      <trkpt lat="45.85114" lon="1.19235">
        <ele>361.3</ele>
        <time>2024-10-21T08:39:38Z</time>
      </trkpt>
      <trkpt lat="45.85112" lon="1.19235">
        <ele>361.2</ele>
        <time>2024-10-21T08:39:39Z</time>
      </trkpt>
      <trkpt lat="45.85111" lon="1.19236">
        <ele>361.1</ele>
        <time>2024-10-21T08:39:40Z</time>
      </trkpt>
      <trkpt lat="45.8511" lon="1.19236">
        <ele>361.1</ele>
        <time>2024-10-21T08:39:41Z</time>
      </trkpt>
      <trkpt lat="45.85109" lon="1.19236">
        <ele>361</ele>
        <time>2024-10-21T08:39:42Z</time>
      </trkpt>
      <trkpt lat="45.85107" lon="1.19237">
        <ele>361</ele>
        <time>2024-10-21T08:39:43Z</time>
      </trkpt>
      <trkpt lat="45.85106" lon="1.19237">
        <ele>360.9</ele>
        <time>2024-10-21T08:39:44Z</time>
      </trkpt>
      <trkpt lat="45.85104" lon="1.19237">
        <ele>360.8</ele>
        <time>2024-10-21T08:39:45Z</time>
      </trkpt>
      <trkpt lat="45.85103" lon="1.19238">
        <ele>360.8</ele>
        <time>2024-10-21T08:39:46Z</time>
      </trkpt>
      <trkpt lat="45.85101" lon="1.19238">
        <ele>360.7</ele>
        <time>2024-10-21T08:39:47Z</time>
      </trkpt>
      <trkpt lat="45.851" lon="1.19238">
        <ele>360.7</ele>
        <time>2024-10-21T08:39:48Z</time>
      </trkpt>
      <trkpt lat="45.85099" lon="1.19239">
        <ele>360.6</ele>
        <time>2024-10-21T08:39:49Z</time>
      </trkpt>
      <trkpt lat="45.85097" lon="1.19239">
        <ele>360.5</ele>
        <time>2024-10-21T08:39:50Z</time>
      </trkpt>
      <trkpt lat="45.85096" lon="1.1924">
        <ele>360.5</ele>
        <time>2024-10-21T08:39:51Z</time>
      </trkpt>
      <trkpt lat="45.85095" lon="1.1924">
        <ele>360.4</ele>
        <time>2024-10-21T08:39:52Z</time>
      </trkpt>
      <trkpt lat="45.85093" lon="1.1924">
        <ele>360.4</ele>
        <time>2024-10-21T08:39:53Z</time>
      </trkpt>
      <trkpt lat="45.85092" lon="1.1924">
        <ele>360.3</ele>
        <time>2024-10-21T08:39:54Z</time>
      </trkpt>
      <trkpt lat="45.85091" lon="1.19241">
        <ele>360.3</ele>
        <time>2024-10-21T08:39:55Z</time>
      </trkpt>
      <trkpt lat="45.85089" lon="1.19241">
        <ele>360.2</ele>
        <time>2024-10-21T08:39:56Z</time>
      </trkpt>
      <trkpt lat="45.85087" lon="1.19241">
        <ele>360.1</ele>
        <time>2024-10-21T08:39:57Z</time>
      </trkpt>
      <trkpt lat="45.85086" lon="1.19242">
        <ele>360.1</ele>
        <time>2024-10-21T08:39:58Z</time>
      </trkpt>
      <trkpt lat="45.85085" lon="1.19242">
        <ele>360.1</ele>
        <time>2024-10-21T08:39:59Z</time>
      </trkpt>
      <trkpt lat="45.85084" lon="1.19242">
        <ele>360</ele>
        <time>2024-10-21T08:40:00Z</time>
      </trkpt>
      <trkpt lat="45.85082" lon="1.19242">
        <ele>359.9</ele>
        <time>2024-10-21T08:40:01Z</time>
      </trkpt>
      <trkpt lat="45.85081" lon="1.19242">
        <ele>359.9</ele>
        <time>2024-10-21T08:40:02Z</time>
      </trkpt>
      <trkpt lat="45.8508" lon="1.19242">
        <ele>359.8</ele>
        <time>2024-10-21T08:40:03Z</time>
      </trkpt>
      <trkpt lat="45.85078" lon="1.19242">
        <ele>359.8</ele>
        <time>2024-10-21T08:40:04Z</time>
      </trkpt>
      <trkpt lat="45.85077" lon="1.19242">
        <ele>359.7</ele>
        <time>2024-10-21T08:40:05Z</time>
      </trkpt>
      <trkpt lat="45.85075" lon="1.19242">
        <ele>359.7</ele>
        <time>2024-10-21T08:40:06Z</time>
      </trkpt>
      <trkpt lat="45.85074" lon="1.19242">
        <ele>359.6</ele>
        <time>2024-10-21T08:40:07Z</time>
      </trkpt>
      <trkpt lat="45.85073" lon="1.19242">
        <ele>359.6</ele>
        <time>2024-10-21T08:40:08Z</time>
      </trkpt>
      <trkpt lat="45.85071" lon="1.19242">
        <ele>359.5</ele>
        <time>2024-10-21T08:40:09Z</time>
      </trkpt>
      <trkpt lat="45.8507" lon="1.19243">
        <ele>359.5</ele>
        <time>2024-10-21T08:40:10Z</time>
      </trkpt>
      <trkpt lat="45.85069" lon="1.19243">
        <ele>359.5</ele>
        <time>2024-10-21T08:40:11Z</time>
      </trkpt>
      <trkpt lat="45.85067" lon="1.19243">
        <ele>359.4</ele>
        <time>2024-10-21T08:40:12Z</time>
      </trkpt>
      <trkpt lat="45.85066" lon="1.19243">
        <ele>359.4</ele>
        <time>2024-10-21T08:40:13Z</time>
      </trkpt>
      <trkpt lat="45.85065" lon="1.19243">
        <ele>359.3</ele>
        <time>2024-10-21T08:40:14Z</time>
      </trkpt>
      <trkpt lat="45.85063" lon="1.19243">
        <ele>359.2</ele>
        <time>2024-10-21T08:40:15Z</time>
      </trkpt>
      <trkpt lat="45.85062" lon="1.19243">
        <ele>359.2</ele>
        <time>2024-10-21T08:40:16Z</time>
      </trkpt>
      <trkpt lat="45.85061" lon="1.19243">
        <ele>359.2</ele>
        <time>2024-10-21T08:40:17Z</time>
      </trkpt>
      <trkpt lat="45.8506" lon="1.19243">
        <ele>359.1</ele>
        <time>2024-10-21T08:40:18Z</time>
      </trkpt>
      <trkpt lat="45.85059" lon="1.19243">
        <ele>359.1</ele>
        <time>2024-10-21T08:40:19Z</time>
      </trkpt>
      <trkpt lat="45.85057" lon="1.19243">
        <ele>359</ele>
        <time>2024-10-21T08:40:20Z</time>
      </trkpt>
      <trkpt lat="45.85056" lon="1.19243">
        <ele>359</ele>
        <time>2024-10-21T08:40:21Z</time>
      </trkpt>
      <trkpt lat="45.85054" lon="1.19243">
        <ele>358.9</ele>
        <time>2024-10-21T08:40:22Z</time>
      </trkpt>
      <trkpt lat="45.85053" lon="1.19243">
        <ele>358.9</ele>
        <time>2024-10-21T08:40:23Z</time>
      </trkpt>
      <trkpt lat="45.85052" lon="1.19243">
        <ele>358.8</ele>
        <time>2024-10-21T08:40:24Z</time>
      </trkpt>
      <trkpt lat="45.8505" lon="1.19243">
        <ele>358.8</ele>
        <time>2024-10-21T08:40:25Z</time>
      </trkpt>
      <trkpt lat="45.85049" lon="1.19243">
        <ele>358.7</ele>
        <time>2024-10-21T08:40:26Z</time>
      </trkpt>
      <trkpt lat="45.85048" lon="1.19242">
        <ele>358.7</ele>
        <time>2024-10-21T08:40:27Z</time>
      </trkpt>
      <trkpt lat="45.85046" lon="1.19242">
        <ele>358.6</ele>
        <time>2024-10-21T08:40:28Z</time>
      </trkpt>
      <trkpt lat="45.85045" lon="1.19242">
        <ele>358.6</ele>
        <time>2024-10-21T08:40:29Z</time>
      </trkpt>
      <trkpt lat="45.85044" lon="1.19242">
        <ele>358.6</ele>
        <time>2024-10-21T08:40:30Z</time>
      </trkpt>
      <trkpt lat="45.85042" lon="1.19242">
        <ele>358.5</ele>
        <time>2024-10-21T08:40:31Z</time>
      </trkpt>
      <trkpt lat="45.85041" lon="1.19242">
        <ele>358.4</ele>
        <time>2024-10-21T08:40:33Z</time>
      </trkpt>
      <trkpt lat="45.85039" lon="1.19242">
        <ele>358.4</ele>
        <time>2024-10-21T08:40:34Z</time>
      </trkpt>
      <trkpt lat="45.85038" lon="1.19242">
        <ele>358.3</ele>
        <time>2024-10-21T08:40:35Z</time>
      </trkpt>
      <trkpt lat="45.85036" lon="1.19242">
        <ele>358.3</ele>
        <time>2024-10-21T08:40:36Z</time>
      </trkpt>
      <trkpt lat="45.85035" lon="1.19242">
        <ele>358.2</ele>
        <time>2024-10-21T08:40:37Z</time>
      </trkpt>
      <trkpt lat="45.85033" lon="1.19242">
        <ele>358.2</ele>
        <time>2024-10-21T08:40:38Z</time>
      </trkpt>
      <trkpt lat="45.85032" lon="1.19243">
        <ele>358.1</ele>
        <time>2024-10-21T08:40:39Z</time>
      </trkpt>
      <trkpt lat="45.8503" lon="1.19243">
        <ele>358</ele>
        <time>2024-10-21T08:40:40Z</time>
      </trkpt>
      <trkpt lat="45.85029" lon="1.19243">
        <ele>358</ele>
        <time>2024-10-21T08:40:41Z</time>
      </trkpt>
      <trkpt lat="45.85028" lon="1.19243">
        <ele>357.9</ele>
        <time>2024-10-21T08:40:42Z</time>
      </trkpt>
      <trkpt lat="45.85026" lon="1.19243">
        <ele>357.9</ele>
        <time>2024-10-21T08:40:43Z</time>
      </trkpt>
      <trkpt lat="45.85025" lon="1.19243">
        <ele>357.8</ele>
        <time>2024-10-21T08:40:44Z</time>
      </trkpt>
      <trkpt lat="45.85023" lon="1.19243">
        <ele>357.8</ele>
        <time>2024-10-21T08:40:45Z</time>
      </trkpt>
      <trkpt lat="45.85022" lon="1.19243">
        <ele>357.7</ele>
        <time>2024-10-21T08:40:46Z</time>
      </trkpt>
      <trkpt lat="45.85021" lon="1.19242">
        <ele>357.7</ele>
        <time>2024-10-21T08:40:47Z</time>
      </trkpt>
      <trkpt lat="45.85019" lon="1.19242">
        <ele>357.6</ele>
        <time>2024-10-21T08:40:48Z</time>
      </trkpt>
      <trkpt lat="45.85017" lon="1.19241">
        <ele>357.5</ele>
        <time>2024-10-21T08:40:49Z</time>
      </trkpt>
      <trkpt lat="45.85016" lon="1.19241">
        <ele>357.5</ele>
        <time>2024-10-21T08:40:50Z</time>
      </trkpt>
      <trkpt lat="45.85015" lon="1.19241">
        <ele>357.5</ele>
        <time>2024-10-21T08:40:51Z</time>
      </trkpt>
      <trkpt lat="45.85013" lon="1.1924">
        <ele>357.4</ele>
        <time>2024-10-21T08:40:52Z</time>
      </trkpt>
      <trkpt lat="45.85012" lon="1.19241">
        <ele>357.3</ele>
        <time>2024-10-21T08:40:53Z</time>
      </trkpt>
      <trkpt lat="45.8501" lon="1.19241">
        <ele>357.3</ele>
        <time>2024-10-21T08:40:54Z</time>
      </trkpt>
      <trkpt lat="45.85009" lon="1.19241">
        <ele>357.2</ele>
        <time>2024-10-21T08:40:55Z</time>
      </trkpt>
      <trkpt lat="45.85008" lon="1.19241">
        <ele>357.2</ele>
        <time>2024-10-21T08:40:56Z</time>
      </trkpt>
      <trkpt lat="45.85007" lon="1.19241">
        <ele>357.1</ele>
        <time>2024-10-21T08:40:57Z</time>
      </trkpt>
      <trkpt lat="45.85005" lon="1.19241">
        <ele>357.1</ele>
        <time>2024-10-21T08:40:58Z</time>
      </trkpt>
      <trkpt lat="45.85003" lon="1.1924">
        <ele>357</ele>
        <time>2024-10-21T08:40:59Z</time>
      </trkpt>
      <trkpt lat="45.85002" lon="1.1924">
        <ele>356.9</ele>
        <time>2024-10-21T08:41:00Z</time>
      </trkpt>
      <trkpt lat="45.85001" lon="1.19239">
        <ele>356.9</ele>
        <time>2024-10-21T08:41:01Z</time>
      </trkpt>
      <trkpt lat="45.85" lon="1.19238">
        <ele>356.8</ele>
        <time>2024-10-21T08:41:02Z</time>
      </trkpt>
      <trkpt lat="45.84999" lon="1.19236">
        <ele>356.8</ele>
        <time>2024-10-21T08:41:03Z</time>
      </trkpt>
      <trkpt lat="45.84998" lon="1.19235">
        <ele>356.7</ele>
        <time>2024-10-21T08:41:04Z</time>
      </trkpt>
      <trkpt lat="45.84998" lon="1.19232">
        <ele>356.7</ele>
        <time>2024-10-21T08:41:05Z</time>
      </trkpt>
      <trkpt lat="45.84998" lon="1.1923">
        <ele>356.6</ele>
        <time>2024-10-21T08:41:06Z</time>
      </trkpt>
      <trkpt lat="45.84998" lon="1.19227">
        <ele>356.5</ele>
        <time>2024-10-21T08:41:07Z</time>
      </trkpt>
      <trkpt lat="45.84998" lon="1.19225">
        <ele>356.5</ele>
        <time>2024-10-21T08:41:08Z</time>
      </trkpt>
      <trkpt lat="45.84998" lon="1.19223">
        <ele>356.4</ele>
        <time>2024-10-21T08:41:09Z</time>
      </trkpt>
      <trkpt lat="45.84998" lon="1.19221">
        <ele>356.4</ele>
        <time>2024-10-21T08:41:10Z</time>
      </trkpt>
      <trkpt lat="45.84998" lon="1.19218">
        <ele>356.4</ele>
        <time>2024-10-21T08:41:11Z</time>
      </trkpt>
      <trkpt lat="45.84999" lon="1.19216">
        <ele>356.3</ele>
        <time>2024-10-21T08:41:12Z</time>
      </trkpt>
      <trkpt lat="45.84999" lon="1.19214">
        <ele>356.2</ele>
        <time>2024-10-21T08:41:13Z</time>
      </trkpt>
      <trkpt lat="45.85" lon="1.19212">
        <ele>356.2</ele>
        <time>2024-10-21T08:41:14Z</time>
      </trkpt>
      <trkpt lat="45.85" lon="1.1921">
        <ele>356.2</ele>
        <time>2024-10-21T08:41:15Z</time>
      </trkpt>
      <trkpt lat="45.85001" lon="1.19207">
        <ele>356.1</ele>
        <time>2024-10-21T08:41:16Z</time>
      </trkpt>
      <trkpt lat="45.85001" lon="1.19205">
        <ele>356.1</ele>
        <time>2024-10-21T08:41:17Z</time>
      </trkpt>
      <trkpt lat="45.85002" lon="1.19203">
        <ele>356</ele>
        <time>2024-10-21T08:41:18Z</time>
      </trkpt>
      <trkpt lat="45.85002" lon="1.19201">
        <ele>356</ele>
        <time>2024-10-21T08:41:19Z</time>
      </trkpt>
      <trkpt lat="45.85002" lon="1.19199">
        <ele>355.9</ele>
        <time>2024-10-21T08:41:20Z</time>
      </trkpt>
      <trkpt lat="45.85002" lon="1.19197">
        <ele>355.9</ele>
        <time>2024-10-21T08:41:21Z</time>
      </trkpt>
      <trkpt lat="45.85002" lon="1.19195">
        <ele>355.9</ele>
        <time>2024-10-21T08:41:22Z</time>
      </trkpt>
      <trkpt lat="45.85003" lon="1.19194">
        <ele>355.8</ele>
        <time>2024-10-21T08:41:23Z</time>
      </trkpt>
      <trkpt lat="45.85003" lon="1.19193">
        <ele>355.8</ele>
        <time>2024-10-21T08:41:24Z</time>
      </trkpt>
      <trkpt lat="45.85003" lon="1.19191">
        <ele>355.8</ele>
        <time>2024-10-21T08:41:25Z</time>
      </trkpt>
      <trkpt lat="45.85003" lon="1.19189">
        <ele>355.7</ele>
        <time>2024-10-21T08:41:26Z</time>
      </trkpt>
      <trkpt lat="45.85003" lon="1.19188">
        <ele>355.7</ele>
        <time>2024-10-21T08:41:27Z</time>
      </trkpt>
      <trkpt lat="45.85002" lon="1.19185">
        <ele>355.6</ele>
        <time>2024-10-21T08:41:28Z</time>
      </trkpt>
      <trkpt lat="45.85002" lon="1.19183">
        <ele>355.6</ele>
        <time>2024-10-21T08:41:29Z</time>
      </trkpt>
      <trkpt lat="45.85002" lon="1.19182">
        <ele>355.6</ele>
        <time>2024-10-21T08:41:30Z</time>
      </trkpt>
      <trkpt lat="45.85001" lon="1.1918">
        <ele>355.5</ele>
        <time>2024-10-21T08:41:31Z</time>
      </trkpt>
      <trkpt lat="45.85001" lon="1.19178">
        <ele>355.5</ele>
        <time>2024-10-21T08:41:32Z</time>
      </trkpt>
      <trkpt lat="45.85001" lon="1.19176">
        <ele>355.4</ele>
        <time>2024-10-21T08:41:33Z</time>
      </trkpt>
      <trkpt lat="45.85" lon="1.19174">
        <ele>355.4</ele>
        <time>2024-10-21T08:41:34Z</time>
      </trkpt>
      <trkpt lat="45.85" lon="1.19172">
        <ele>355.4</ele>
        <time>2024-10-21T08:41:35Z</time>
      </trkpt>
      <trkpt lat="45.85" lon="1.1917">
        <ele>355.3</ele>
        <time>2024-10-21T08:41:36Z</time>
      </trkpt>
      <trkpt lat="45.85" lon="1.19168">
        <ele>355.3</ele>
        <time>2024-10-21T08:41:37Z</time>
      </trkpt>
      <trkpt lat="45.85" lon="1.19166">
        <ele>355.2</ele>
        <time>2024-10-21T08:41:38Z</time>
      </trkpt>
      <trkpt lat="45.85" lon="1.19164">
        <ele>355.1</ele>
        <time>2024-10-21T08:41:39Z</time>
      </trkpt>
      <trkpt lat="45.85" lon="1.19162">
        <ele>355.1</ele>
        <time>2024-10-21T08:41:40Z</time>
      </trkpt>
      <trkpt lat="45.85" lon="1.19159">
        <ele>355</ele>
        <time>2024-10-21T08:41:41Z</time>
      </trkpt>
      <trkpt lat="45.85" lon="1.19155">
        <ele>354.9</ele>
        <time>2024-10-21T08:41:42Z</time>
      </trkpt>
      <trkpt lat="45.85001" lon="1.19152">
        <ele>354.8</ele>
        <time>2024-10-21T08:41:43Z</time>
      </trkpt>
      <trkpt lat="45.85" lon="1.19151">
        <ele>354.8</ele>
        <time>2024-10-21T08:41:44Z</time>
      </trkpt>
      <trkpt lat="45.85" lon="1.19149">
        <ele>354.7</ele>
        <time>2024-10-21T08:41:45Z</time>
      </trkpt>
      <trkpt lat="45.85" lon="1.19147">
        <ele>354.6</ele>
        <time>2024-10-21T08:41:47Z</time>
      </trkpt>
      <trkpt lat="45.84999" lon="1.19146">
        <ele>354.6</ele>
        <time>2024-10-21T08:41:48Z</time>
      </trkpt>
      <trkpt lat="45.84999" lon="1.19145">
        <ele>354.6</ele>
        <time>2024-10-21T08:41:49Z</time>
      </trkpt>
      <trkpt lat="45.84999" lon="1.19143">
        <ele>354.5</ele>
        <time>2024-10-21T08:41:50Z</time>
      </trkpt>
      <trkpt lat="45.84999" lon="1.19142">
        <ele>354.5</ele>
        <time>2024-10-21T08:41:51Z</time>
      </trkpt>
      <trkpt lat="45.84999" lon="1.19141">
        <ele>354.4</ele>
        <time>2024-10-21T08:41:52Z</time>
      </trkpt>
      <trkpt lat="45.85" lon="1.1914">
        <ele>354.4</ele>
        <time>2024-10-21T08:41:53Z</time>
      </trkpt>
      <trkpt lat="45.85" lon="1.19139">
        <ele>354.4</ele>
        <time>2024-10-21T08:41:54Z</time>
      </trkpt>
      <trkpt lat="45.85" lon="1.19137">
        <ele>354.3</ele>
        <time>2024-10-21T08:41:55Z</time>
      </trkpt>
      <trkpt lat="45.85" lon="1.19136">
        <ele>354.3</ele>
        <time>2024-10-21T08:41:56Z</time>
      </trkpt>
      <trkpt lat="45.85" lon="1.19134">
        <ele>354.2</ele>
        <time>2024-10-21T08:41:57Z</time>
      </trkpt>
      <trkpt lat="45.85" lon="1.19133">
        <ele>354.2</ele>
        <time>2024-10-21T08:41:58Z</time>
      </trkpt>
      <trkpt lat="45.85" lon="1.19131">
        <ele>354.1</ele>
        <time>2024-10-21T08:41:59Z</time>
      </trkpt>
      <trkpt lat="45.84999" lon="1.1913">
        <ele>354.1</ele>
        <time>2024-10-21T08:42:00Z</time>
      </trkpt>
      <trkpt lat="45.84999" lon="1.19128">
        <ele>354</ele>
        <time>2024-10-21T08:42:01Z</time>
      </trkpt>
      <trkpt lat="45.84999" lon="1.19126">
        <ele>354</ele>
        <time>2024-10-21T08:42:02Z</time>
      </trkpt>
      <trkpt lat="45.84998" lon="1.19125">
        <ele>353.9</ele>
        <time>2024-10-21T08:42:03Z</time>
      </trkpt>
      <trkpt lat="45.84997" lon="1.19124">
        <ele>353.9</ele>
        <time>2024-10-21T08:42:04Z</time>
      </trkpt>
      <trkpt lat="45.84996" lon="1.19121">
        <ele>353.8</ele>
        <time>2024-10-21T08:42:05Z</time>
      </trkpt>
      <trkpt lat="45.84996" lon="1.1912">
        <ele>353.7</ele>
        <time>2024-10-21T08:42:06Z</time>
      </trkpt>
      <trkpt lat="45.84995" lon="1.19119">
        <ele>353.7</ele>
        <time>2024-10-21T08:42:07Z</time>
      </trkpt>
      <trkpt lat="45.84994" lon="1.19117">
        <ele>353.6</ele>
        <time>2024-10-21T08:42:08Z</time>
      </trkpt>
      <trkpt lat="45.84993" lon="1.19116">
        <ele>353.6</ele>
        <time>2024-10-21T08:42:09Z</time>
      </trkpt>
      <trkpt lat="45.84993" lon="1.19115">
        <ele>353.5</ele>
        <time>2024-10-21T08:42:10Z</time>
      </trkpt>
      <trkpt lat="45.84992" lon="1.19114">
        <ele>353.5</ele>
        <time>2024-10-21T08:42:11Z</time>
      </trkpt>
      <trkpt lat="45.84991" lon="1.19112">
        <ele>353.4</ele>
        <time>2024-10-21T08:42:12Z</time>
      </trkpt>
      <trkpt lat="45.8499" lon="1.1911">
        <ele>353.3</ele>
        <time>2024-10-21T08:42:13Z</time>
      </trkpt>
      <trkpt lat="45.84989" lon="1.19109">
        <ele>353.3</ele>
        <time>2024-10-21T08:42:14Z</time>
      </trkpt>
      <trkpt lat="45.84988" lon="1.19108">
        <ele>353.3</ele>
        <time>2024-10-21T08:42:15Z</time>
      </trkpt>
      <trkpt lat="45.84988" lon="1.19107">
        <ele>353.2</ele>
        <time>2024-10-21T08:42:16Z</time>
      </trkpt>
      <trkpt lat="45.84986" lon="1.19106">
        <ele>353.2</ele>
        <time>2024-10-21T08:42:17Z</time>
      </trkpt>
      <trkpt lat="45.84986" lon="1.19105">
        <ele>353.1</ele>
        <time>2024-10-21T08:42:18Z</time>
      </trkpt>
      <trkpt lat="45.84984" lon="1.19104">
        <ele>353.1</ele>
        <time>2024-10-21T08:42:19Z</time>
      </trkpt>
      <trkpt lat="45.84983" lon="1.19103">
        <ele>353</ele>
        <time>2024-10-21T08:42:20Z</time>
      </trkpt>
      <trkpt lat="45.84982" lon="1.19102">
        <ele>353</ele>
        <time>2024-10-21T08:42:21Z</time>
      </trkpt>
      <trkpt lat="45.84981" lon="1.19101">
        <ele>352.9</ele>
        <time>2024-10-21T08:42:22Z</time>
      </trkpt>
      <trkpt lat="45.8498" lon="1.191">
        <ele>352.9</ele>
        <time>2024-10-21T08:42:23Z</time>
      </trkpt>
      <trkpt lat="45.84979" lon="1.19099">
        <ele>352.9</ele>
        <time>2024-10-21T08:42:24Z</time>
      </trkpt>
      <trkpt lat="45.84978" lon="1.19098">
        <ele>352.8</ele>
        <time>2024-10-21T08:42:25Z</time>
      </trkpt>
      <trkpt lat="45.84978" lon="1.19097">
        <ele>352.8</ele>
        <time>2024-10-21T08:42:26Z</time>
      </trkpt>
      <trkpt lat="45.84977" lon="1.19096">
        <ele>352.8</ele>
        <time>2024-10-21T08:42:27Z</time>
      </trkpt>
      <trkpt lat="45.84976" lon="1.19095">
        <ele>352.7</ele>
        <time>2024-10-21T08:42:28Z</time>
      </trkpt>
      <trkpt lat="45.84975" lon="1.19094">
        <ele>352.7</ele>
        <time>2024-10-21T08:42:29Z</time>
      </trkpt>
      <trkpt lat="45.84974" lon="1.19093">
        <ele>352.7</ele>
        <time>2024-10-21T08:42:30Z</time>
      </trkpt>
      <trkpt lat="45.84972" lon="1.19092">
        <ele>352.6</ele>
        <time>2024-10-21T08:42:31Z</time>
      </trkpt>
      <trkpt lat="45.84972" lon="1.19091">
        <ele>352.6</ele>
        <time>2024-10-21T08:42:32Z</time>
      </trkpt>
      <trkpt lat="45.84971" lon="1.19091">
        <ele>352.5</ele>
        <time>2024-10-21T08:42:33Z</time>
      </trkpt>
      <trkpt lat="45.8497" lon="1.1909">
        <ele>352.5</ele>
        <time>2024-10-21T08:42:34Z</time>
      </trkpt>
      <trkpt lat="45.84969" lon="1.19089">
        <ele>352.5</ele>
        <time>2024-10-21T08:42:35Z</time>
      </trkpt>
      <trkpt lat="45.84968" lon="1.19088">
        <ele>352.4</ele>
        <time>2024-10-21T08:42:36Z</time>
      </trkpt>
      <trkpt lat="45.84967" lon="1.19087">
        <ele>352.4</ele>
        <time>2024-10-21T08:42:37Z</time>
      </trkpt>
      <trkpt lat="45.84966" lon="1.19086">
        <ele>352.4</ele>
        <time>2024-10-21T08:42:38Z</time>
      </trkpt>
      <trkpt lat="45.84965" lon="1.19085">
        <ele>352.3</ele>
        <time>2024-10-21T08:42:39Z</time>
      </trkpt>
      <trkpt lat="45.84965" lon="1.19084">
        <ele>352.3</ele>
        <time>2024-10-21T08:42:40Z</time>
      </trkpt>
      <trkpt lat="45.84964" lon="1.19083">
        <ele>352.3</ele>
        <time>2024-10-21T08:42:41Z</time>
      </trkpt>
      <trkpt lat="45.84963" lon="1.19081">
        <ele>352.2</ele>
        <time>2024-10-21T08:42:42Z</time>
      </trkpt>
      <trkpt lat="45.84963" lon="1.19078">
        <ele>352.2</ele>
        <time>2024-10-21T08:42:43Z</time>
      </trkpt>
      <trkpt lat="45.84963" lon="1.19077">
        <ele>352.2</ele>
        <time>2024-10-21T08:42:44Z</time>
      </trkpt>
      <trkpt lat="45.84963" lon="1.19075">
        <ele>352.1</ele>
        <time>2024-10-21T08:42:45Z</time>
      </trkpt>
      <trkpt lat="45.84963" lon="1.19073">
        <ele>352.1</ele>
        <time>2024-10-21T08:42:46Z</time>
      </trkpt>
      <trkpt lat="45.84963" lon="1.19071">
        <ele>352.1</ele>
        <time>2024-10-21T08:42:47Z</time>
      </trkpt>
      <trkpt lat="45.84963" lon="1.19069">
        <ele>352</ele>
        <time>2024-10-21T08:42:48Z</time>
      </trkpt>
      <trkpt lat="45.84964" lon="1.19065">
        <ele>351.9</ele>
        <time>2024-10-21T08:42:49Z</time>
      </trkpt>
      <trkpt lat="45.84965" lon="1.19063">
        <ele>351.9</ele>
        <time>2024-10-21T08:42:51Z</time>
      </trkpt>
      <trkpt lat="45.84965" lon="1.19061">
        <ele>351.8</ele>
        <time>2024-10-21T08:42:52Z</time>
      </trkpt>
      <trkpt lat="45.84966" lon="1.19059">
        <ele>351.8</ele>
        <time>2024-10-21T08:42:53Z</time>
      </trkpt>
      <trkpt lat="45.84967" lon="1.19057">
        <ele>351.8</ele>
        <time>2024-10-21T08:42:54Z</time>
      </trkpt>
      <trkpt lat="45.84967" lon="1.19055">
        <ele>351.7</ele>
        <time>2024-10-21T08:42:55Z</time>
      </trkpt>
      <trkpt lat="45.84968" lon="1.19053">
        <ele>351.7</ele>
        <time>2024-10-21T08:42:56Z</time>
      </trkpt>
      <trkpt lat="45.84969" lon="1.19051">
        <ele>351.6</ele>
        <time>2024-10-21T08:42:57Z</time>
      </trkpt>
      <trkpt lat="45.8497" lon="1.1905">
        <ele>351.6</ele>
        <time>2024-10-21T08:42:58Z</time>
      </trkpt>
      <trkpt lat="45.8497" lon="1.19049">
        <ele>351.5</ele>
        <time>2024-10-21T08:42:59Z</time>
      </trkpt>
      <trkpt lat="45.84971" lon="1.19047">
        <ele>351.5</ele>
        <time>2024-10-21T08:43:00Z</time>
      </trkpt>
      <trkpt lat="45.84972" lon="1.19045">
        <ele>351.5</ele>
        <time>2024-10-21T08:43:01Z</time>
      </trkpt>
      <trkpt lat="45.84973" lon="1.19043">
        <ele>351.4</ele>
        <time>2024-10-21T08:43:02Z</time>
      </trkpt>
      <trkpt lat="45.84973" lon="1.19042">
        <ele>351.4</ele>
        <time>2024-10-21T08:43:03Z</time>
      </trkpt>
      <trkpt lat="45.84974" lon="1.1904">
        <ele>351.3</ele>
        <time>2024-10-21T08:43:04Z</time>
      </trkpt>
      <trkpt lat="45.84975" lon="1.19038">
        <ele>351.3</ele>
        <time>2024-10-21T08:43:05Z</time>
      </trkpt>
      <trkpt lat="45.84976" lon="1.19036">
        <ele>351.2</ele>
        <time>2024-10-21T08:43:06Z</time>
      </trkpt>
      <trkpt lat="45.84977" lon="1.19034">
        <ele>351.1</ele>
        <time>2024-10-21T08:43:07Z</time>
      </trkpt>
      <trkpt lat="45.84977" lon="1.19033">
        <ele>351.1</ele>
        <time>2024-10-21T08:43:08Z</time>
      </trkpt>
      <trkpt lat="45.84978" lon="1.1903">
        <ele>351</ele>
        <time>2024-10-21T08:43:09Z</time>
      </trkpt>
      <trkpt lat="45.84979" lon="1.19029">
        <ele>351</ele>
        <time>2024-10-21T08:43:10Z</time>
      </trkpt>
      <trkpt lat="45.8498" lon="1.19028">
        <ele>350.9</ele>
        <time>2024-10-21T08:43:11Z</time>
      </trkpt>
      <trkpt lat="45.84981" lon="1.19026">
        <ele>350.8</ele>
        <time>2024-10-21T08:43:12Z</time>
      </trkpt>
      <trkpt lat="45.84982" lon="1.19025">
        <ele>350.8</ele>
        <time>2024-10-21T08:43:13Z</time>
      </trkpt>
      <trkpt lat="45.84982" lon="1.19024">
        <ele>350.8</ele>
        <time>2024-10-21T08:43:14Z</time>
      </trkpt>
      <trkpt lat="45.84983" lon="1.19022">
        <ele>350.7</ele>
        <time>2024-10-21T08:43:15Z</time>
      </trkpt>
      <trkpt lat="45.84983" lon="1.1902">
        <ele>350.7</ele>
        <time>2024-10-21T08:43:16Z</time>
      </trkpt>
      <trkpt lat="45.84983" lon="1.19017">
        <ele>350.5</ele>
        <time>2024-10-21T08:43:17Z</time>
      </trkpt>
      <trkpt lat="45.84983" lon="1.19016">
        <ele>350.5</ele>
        <time>2024-10-21T08:43:18Z</time>
      </trkpt>
      <trkpt lat="45.84983" lon="1.19014">
        <ele>350.4</ele>
        <time>2024-10-21T08:43:19Z</time>
      </trkpt>
      <trkpt lat="45.84983" lon="1.19012">
        <ele>350.3</ele>
        <time>2024-10-21T08:43:20Z</time>
      </trkpt>
      <trkpt lat="45.84982" lon="1.19009">
        <ele>350.2</ele>
        <time>2024-10-21T08:43:21Z</time>
      </trkpt>
      <trkpt lat="45.84981" lon="1.19008">
        <ele>350.2</ele>
        <time>2024-10-21T08:43:22Z</time>
      </trkpt>
      <trkpt lat="45.84981" lon="1.19007">
        <ele>350.1</ele>
        <time>2024-10-21T08:43:23Z</time>
      </trkpt>
      <trkpt lat="45.8498" lon="1.19006">
        <ele>350</ele>
        <time>2024-10-21T08:43:24Z</time>
      </trkpt>
      <trkpt lat="45.84979" lon="1.19004">
        <ele>349.9</ele>
        <time>2024-10-21T08:43:25Z</time>
      </trkpt>
      <trkpt lat="45.84978" lon="1.19002">
        <ele>349.8</ele>
        <time>2024-10-21T08:43:26Z</time>
      </trkpt>
      <trkpt lat="45.84977" lon="1.19001">
        <ele>349.7</ele>
        <time>2024-10-21T08:43:27Z</time>
      </trkpt>
      <trkpt lat="45.84977" lon="1.19">
        <ele>349.7</ele>
        <time>2024-10-21T08:43:28Z</time>
      </trkpt>
      <trkpt lat="45.84975" lon="1.18997">
        <ele>349.7</ele>
        <time>2024-10-21T08:43:29Z</time>
      </trkpt>
      <trkpt lat="45.84975" lon="1.18996">
        <ele>349.7</ele>
        <time>2024-10-21T08:43:30Z</time>
      </trkpt>
      <trkpt lat="45.84974" lon="1.18995">
        <ele>349.7</ele>
        <time>2024-10-21T08:43:31Z</time>
      </trkpt>
      <trkpt lat="45.84973" lon="1.18993">
        <ele>349.4</ele>
        <time>2024-10-21T08:43:32Z</time>
      </trkpt>
      <trkpt lat="45.84973" lon="1.18992">
        <ele>349.4</ele>
        <time>2024-10-21T08:43:33Z</time>
      </trkpt>
      <trkpt lat="45.84972" lon="1.1899">
        <ele>349.3</ele>
        <time>2024-10-21T08:43:34Z</time>
      </trkpt>
      <trkpt lat="45.84972" lon="1.18989">
        <ele>349.1</ele>
        <time>2024-10-21T08:43:35Z</time>
      </trkpt>
      <trkpt lat="45.84971" lon="1.18987">
        <ele>349</ele>
        <time>2024-10-21T08:43:36Z</time>
      </trkpt>
      <trkpt lat="45.8497" lon="1.18985">
        <ele>348.8</ele>
        <time>2024-10-21T08:43:37Z</time>
      </trkpt>
      <trkpt lat="45.84969" lon="1.18984">
        <ele>348.7</ele>
        <time>2024-10-21T08:43:38Z</time>
      </trkpt>
      <trkpt lat="45.84968" lon="1.18982">
        <ele>348.6</ele>
        <time>2024-10-21T08:43:39Z</time>
      </trkpt>
      <trkpt lat="45.84967" lon="1.18981">
        <ele>348.4</ele>
        <time>2024-10-21T08:43:40Z</time>
      </trkpt>
      <trkpt lat="45.84967" lon="1.18979">
        <ele>348.3</ele>
        <time>2024-10-21T08:43:41Z</time>
      </trkpt>
      <trkpt lat="45.84966" lon="1.18978">
        <ele>348.2</ele>
        <time>2024-10-21T08:43:42Z</time>
      </trkpt>
      <trkpt lat="45.84965" lon="1.18976">
        <ele>348</ele>
        <time>2024-10-21T08:43:43Z</time>
      </trkpt>
      <trkpt lat="45.84964" lon="1.18974">
        <ele>347.9</ele>
        <time>2024-10-21T08:43:44Z</time>
      </trkpt>
      <trkpt lat="45.84963" lon="1.18973">
        <ele>347.7</ele>
        <time>2024-10-21T08:43:45Z</time>
      </trkpt>
      <trkpt lat="45.84962" lon="1.18971">
        <ele>347.6</ele>
        <time>2024-10-21T08:43:46Z</time>
      </trkpt>
      <trkpt lat="45.84961" lon="1.18969">
        <ele>347.4</ele>
        <time>2024-10-21T08:43:47Z</time>
      </trkpt>
      <trkpt lat="45.8496" lon="1.18968">
        <ele>347.2</ele>
        <time>2024-10-21T08:43:48Z</time>
      </trkpt>
      <trkpt lat="45.84959" lon="1.18966">
        <ele>347.1</ele>
        <time>2024-10-21T08:43:49Z</time>
      </trkpt>
      <trkpt lat="45.84959" lon="1.18964">
        <ele>347</ele>
        <time>2024-10-21T08:43:50Z</time>
      </trkpt>
      <trkpt lat="45.84958" lon="1.18963">
        <ele>346.8</ele>
        <time>2024-10-21T08:43:51Z</time>
      </trkpt>
      <trkpt lat="45.84957" lon="1.18961">
        <ele>346.7</ele>
        <time>2024-10-21T08:43:52Z</time>
      </trkpt>
      <trkpt lat="45.84956" lon="1.18959">
        <ele>346.5</ele>
        <time>2024-10-21T08:43:53Z</time>
      </trkpt>
      <trkpt lat="45.84955" lon="1.18958">
        <ele>346.4</ele>
        <time>2024-10-21T08:43:54Z</time>
      </trkpt>
      <trkpt lat="45.84955" lon="1.18957">
        <ele>346.3</ele>
        <time>2024-10-21T08:43:55Z</time>
      </trkpt>
      <trkpt lat="45.84953" lon="1.18954">
        <ele>346.1</ele>
        <time>2024-10-21T08:43:56Z</time>
      </trkpt>
      <trkpt lat="45.84953" lon="1.18953">
        <ele>346</ele>
        <time>2024-10-21T08:43:57Z</time>
      </trkpt>
      <trkpt lat="45.84952" lon="1.18952">
        <ele>346</ele>
        <time>2024-10-21T08:43:58Z</time>
      </trkpt>
      <trkpt lat="45.84951" lon="1.1895">
        <ele>345.8</ele>
        <time>2024-10-21T08:43:59Z</time>
      </trkpt>
      <trkpt lat="45.8495" lon="1.18949">
        <ele>345.7</ele>
        <time>2024-10-21T08:44:00Z</time>
      </trkpt>
      <trkpt lat="45.8495" lon="1.18948">
        <ele>345.6</ele>
        <time>2024-10-21T08:44:01Z</time>
      </trkpt>
      <trkpt lat="45.84948" lon="1.18946">
        <ele>345.5</ele>
        <time>2024-10-21T08:44:02Z</time>
      </trkpt>
      <trkpt lat="45.84948" lon="1.18945">
        <ele>345.4</ele>
        <time>2024-10-21T08:44:03Z</time>
      </trkpt>
      <trkpt lat="45.84947" lon="1.18944">
        <ele>345.4</ele>
        <time>2024-10-21T08:44:04Z</time>
      </trkpt>
      <trkpt lat="45.84946" lon="1.18942">
        <ele>345.2</ele>
        <time>2024-10-21T08:44:05Z</time>
      </trkpt>
      <trkpt lat="45.84945" lon="1.18942">
        <ele>345.2</ele>
        <time>2024-10-21T08:44:06Z</time>
      </trkpt>
      <trkpt lat="45.84944" lon="1.18941">
        <ele>345.1</ele>
        <time>2024-10-21T08:44:07Z</time>
      </trkpt>
      <trkpt lat="45.84942" lon="1.18941">
        <ele>344.9</ele>
        <time>2024-10-21T08:44:08Z</time>
      </trkpt>
      <trkpt lat="45.84941" lon="1.18941">
        <ele>344.9</ele>
        <time>2024-10-21T08:44:09Z</time>
      </trkpt>
      <trkpt lat="45.8494" lon="1.1894">
        <ele>344.8</ele>
        <time>2024-10-21T08:44:10Z</time>
      </trkpt>
      <trkpt lat="45.84939" lon="1.18941">
        <ele>344.7</ele>
        <time>2024-10-21T08:44:11Z</time>
      </trkpt>
      <trkpt lat="45.84938" lon="1.18941">
        <ele>344.6</ele>
        <time>2024-10-21T08:44:12Z</time>
      </trkpt>
      <trkpt lat="45.84936" lon="1.18942">
        <ele>344.5</ele>
        <time>2024-10-21T08:44:13Z</time>
      </trkpt>
      <trkpt lat="45.84935" lon="1.18943">
        <ele>344.4</ele>
        <time>2024-10-21T08:44:14Z</time>
      </trkpt>
      <trkpt lat="45.84934" lon="1.18943">
        <ele>344.4</ele>
        <time>2024-10-21T08:44:15Z</time>
      </trkpt>
      <trkpt lat="45.84932" lon="1.18944">
        <ele>344.2</ele>
        <time>2024-10-21T08:44:16Z</time>
      </trkpt>
      <trkpt lat="45.84931" lon="1.18945">
        <ele>344.2</ele>
        <time>2024-10-21T08:44:17Z</time>
      </trkpt>
      <trkpt lat="45.84931" lon="1.18946">
        <ele>344.1</ele>
        <time>2024-10-21T08:44:18Z</time>
      </trkpt>
      <trkpt lat="45.84929" lon="1.18946">
        <ele>344</ele>
        <time>2024-10-21T08:44:19Z</time>
      </trkpt>
      <trkpt lat="45.84928" lon="1.18947">
        <ele>343.9</ele>
        <time>2024-10-21T08:44:20Z</time>
      </trkpt>
      <trkpt lat="45.84927" lon="1.18947">
        <ele>343.8</ele>
        <time>2024-10-21T08:44:21Z</time>
      </trkpt>
      <trkpt lat="45.84924" lon="1.18948">
        <ele>343.6</ele>
        <time>2024-10-21T08:44:22Z</time>
      </trkpt>
      <trkpt lat="45.84923" lon="1.18948">
        <ele>343.6</ele>
        <time>2024-10-21T08:44:23Z</time>
      </trkpt>
      <trkpt lat="45.84923" lon="1.18948">
        <ele>343.5</ele>
        <time>2024-10-21T08:44:24Z</time>
      </trkpt>
      <trkpt lat="45.84922" lon="1.18948">
        <ele>343.4</ele>
        <time>2024-10-21T08:44:25Z</time>
      </trkpt>
      <trkpt lat="45.8492" lon="1.18948">
        <ele>343.3</ele>
        <time>2024-10-21T08:44:26Z</time>
      </trkpt>
      <trkpt lat="45.84918" lon="1.18948">
        <ele>343.2</ele>
        <time>2024-10-21T08:44:27Z</time>
      </trkpt>
      <trkpt lat="45.84917" lon="1.18948">
        <ele>343.1</ele>
        <time>2024-10-21T08:44:28Z</time>
      </trkpt>
      <trkpt lat="45.84916" lon="1.18948">
        <ele>343.1</ele>
        <time>2024-10-21T08:44:29Z</time>
      </trkpt>
      <trkpt lat="45.84914" lon="1.18947">
        <ele>342.9</ele>
        <time>2024-10-21T08:44:30Z</time>
      </trkpt>
      <trkpt lat="45.84913" lon="1.18947">
        <ele>342.9</ele>
        <time>2024-10-21T08:44:31Z</time>
      </trkpt>
      <trkpt lat="45.84912" lon="1.18947">
        <ele>342.8</ele>
        <time>2024-10-21T08:44:32Z</time>
      </trkpt>
      <trkpt lat="45.84911" lon="1.18947">
        <ele>342.7</ele>
        <time>2024-10-21T08:44:33Z</time>
      </trkpt>
      <trkpt lat="45.84909" lon="1.18947">
        <ele>342.6</ele>
        <time>2024-10-21T08:44:34Z</time>
      </trkpt>
      <trkpt lat="45.84908" lon="1.18947">
        <ele>342.5</ele>
        <time>2024-10-21T08:44:35Z</time>
      </trkpt>
      <trkpt lat="45.84906" lon="1.18946">
        <ele>342.5</ele>
        <time>2024-10-21T08:44:36Z</time>
      </trkpt>
      <trkpt lat="45.84905" lon="1.18946">
        <ele>342.4</ele>
        <time>2024-10-21T08:44:37Z</time>
      </trkpt>
      <trkpt lat="45.84904" lon="1.18945">
        <ele>342.3</ele>
        <time>2024-10-21T08:44:38Z</time>
      </trkpt>
      <trkpt lat="45.84902" lon="1.18945">
        <ele>342.2</ele>
        <time>2024-10-21T08:44:39Z</time>
      </trkpt>
      <trkpt lat="45.84899" lon="1.18944">
        <ele>342.1</ele>
        <time>2024-10-21T08:44:40Z</time>
      </trkpt>
      <trkpt lat="45.84899" lon="1.18944">
        <ele>342.1</ele>
        <time>2024-10-21T08:44:41Z</time>
      </trkpt>
      <trkpt lat="45.84898" lon="1.18944">
        <ele>342</ele>
        <time>2024-10-21T08:44:42Z</time>
      </trkpt>
      <trkpt lat="45.84896" lon="1.18943">
        <ele>342</ele>
        <time>2024-10-21T08:44:43Z</time>
      </trkpt>
      <trkpt lat="45.84895" lon="1.18942">
        <ele>341.9</ele>
        <time>2024-10-21T08:44:44Z</time>
      </trkpt>
      <trkpt lat="45.84894" lon="1.18942">
        <ele>341.8</ele>
        <time>2024-10-21T08:44:45Z</time>
      </trkpt>
      <trkpt lat="45.84892" lon="1.18942">
        <ele>341.8</ele>
        <time>2024-10-21T08:44:46Z</time>
      </trkpt>
      <trkpt lat="45.84891" lon="1.18942">
        <ele>341.7</ele>
        <time>2024-10-21T08:44:47Z</time>
      </trkpt>
      <trkpt lat="45.84889" lon="1.18941">
        <ele>341.6</ele>
        <time>2024-10-21T08:44:48Z</time>
      </trkpt>
      <trkpt lat="45.84888" lon="1.18941">
        <ele>341.6</ele>
        <time>2024-10-21T08:44:49Z</time>
      </trkpt>
      <trkpt lat="45.84886" lon="1.18941">
        <ele>341.5</ele>
        <time>2024-10-21T08:44:50Z</time>
      </trkpt>
      <trkpt lat="45.84885" lon="1.18941">
        <ele>341.5</ele>
        <time>2024-10-21T08:44:51Z</time>
      </trkpt>
      <trkpt lat="45.84884" lon="1.1894">
        <ele>341.4</ele>
        <time>2024-10-21T08:44:52Z</time>
      </trkpt>
      <trkpt lat="45.84882" lon="1.1894">
        <ele>341.4</ele>
        <time>2024-10-21T08:44:53Z</time>
      </trkpt>
      <trkpt lat="45.84881" lon="1.1894">
        <ele>341.3</ele>
        <time>2024-10-21T08:44:54Z</time>
      </trkpt>
      <trkpt lat="45.84879" lon="1.18939">
        <ele>341.3</ele>
        <time>2024-10-21T08:44:55Z</time>
      </trkpt>
      <trkpt lat="45.84878" lon="1.18939">
        <ele>341.2</ele>
        <time>2024-10-21T08:44:56Z</time>
      </trkpt>
      <trkpt lat="45.84876" lon="1.18938">
        <ele>341.2</ele>
        <time>2024-10-21T08:44:57Z</time>
      </trkpt>
      <trkpt lat="45.84875" lon="1.18938">
        <ele>341.2</ele>
        <time>2024-10-21T08:44:58Z</time>
      </trkpt>
      <trkpt lat="45.84874" lon="1.18938">
        <ele>341.1</ele>
        <time>2024-10-21T08:44:59Z</time>
      </trkpt>
      <trkpt lat="45.84872" lon="1.18938">
        <ele>341.1</ele>
        <time>2024-10-21T08:45:00Z</time>
      </trkpt>
      <trkpt lat="45.84871" lon="1.18938">
        <ele>341.1</ele>
        <time>2024-10-21T08:45:01Z</time>
      </trkpt>
      <trkpt lat="45.84869" lon="1.18937">
        <ele>341</ele>
        <time>2024-10-21T08:45:02Z</time>
      </trkpt>
      <trkpt lat="45.84868" lon="1.18937">
        <ele>341</ele>
        <time>2024-10-21T08:45:03Z</time>
      </trkpt>
      <trkpt lat="45.84867" lon="1.18937">
        <ele>341</ele>
        <time>2024-10-21T08:45:04Z</time>
      </trkpt>
      <trkpt lat="45.84865" lon="1.18936">
        <ele>340.9</ele>
        <time>2024-10-21T08:45:05Z</time>
      </trkpt>
      <trkpt lat="45.84864" lon="1.18936">
        <ele>340.9</ele>
        <time>2024-10-21T08:45:06Z</time>
      </trkpt>
      <trkpt lat="45.84862" lon="1.18936">
        <ele>340.9</ele>
        <time>2024-10-21T08:45:07Z</time>
      </trkpt>
      <trkpt lat="45.84861" lon="1.18936">
        <ele>340.9</ele>
        <time>2024-10-21T08:45:08Z</time>
      </trkpt>
      <trkpt lat="45.84859" lon="1.18936">
        <ele>340.8</ele>
        <time>2024-10-21T08:45:09Z</time>
      </trkpt>
      <trkpt lat="45.84858" lon="1.18936">
        <ele>340.8</ele>
        <time>2024-10-21T08:45:10Z</time>
      </trkpt>
      <trkpt lat="45.84857" lon="1.18936">
        <ele>340.8</ele>
        <time>2024-10-21T08:45:11Z</time>
      </trkpt>
      <trkpt lat="45.84855" lon="1.18936">
        <ele>340.8</ele>
        <time>2024-10-21T08:45:12Z</time>
      </trkpt>
      <trkpt lat="45.84852" lon="1.18935">
        <ele>340.7</ele>
        <time>2024-10-21T08:45:13Z</time>
      </trkpt>
      <trkpt lat="45.84851" lon="1.18935">
        <ele>340.7</ele>
        <time>2024-10-21T08:45:14Z</time>
      </trkpt>
      <trkpt lat="45.84849" lon="1.18935">
        <ele>340.6</ele>
        <time>2024-10-21T08:45:15Z</time>
      </trkpt>
      <trkpt lat="45.84848" lon="1.18935">
        <ele>340.6</ele>
        <time>2024-10-21T08:45:17Z</time>
      </trkpt>
      <trkpt lat="45.84847" lon="1.18935">
        <ele>340.6</ele>
        <time>2024-10-21T08:45:18Z</time>
      </trkpt>
      <trkpt lat="45.84846" lon="1.18935">
        <ele>340.6</ele>
        <time>2024-10-21T08:45:19Z</time>
      </trkpt>
      <trkpt lat="45.84845" lon="1.18935">
        <ele>340.6</ele>
        <time>2024-10-21T08:45:20Z</time>
      </trkpt>
      <trkpt lat="45.84843" lon="1.18935">
        <ele>340.5</ele>
        <time>2024-10-21T08:45:21Z</time>
      </trkpt>
      <trkpt lat="45.84842" lon="1.18935">
        <ele>340.5</ele>
        <time>2024-10-21T08:45:22Z</time>
      </trkpt>
      <trkpt lat="45.84841" lon="1.18934">
        <ele>340.5</ele>
        <time>2024-10-21T08:45:23Z</time>
      </trkpt>
      <trkpt lat="45.8484" lon="1.18934">
        <ele>340.5</ele>
        <time>2024-10-21T08:45:24Z</time>
      </trkpt>
      <trkpt lat="45.84838" lon="1.18934">
        <ele>340.5</ele>
        <time>2024-10-21T08:45:25Z</time>
      </trkpt>
      <trkpt lat="45.84837" lon="1.18934">
        <ele>340.4</ele>
        <time>2024-10-21T08:45:26Z</time>
      </trkpt>
      <trkpt lat="45.84835" lon="1.18934">
        <ele>340.4</ele>
        <time>2024-10-21T08:45:27Z</time>
      </trkpt>
      <trkpt lat="45.84834" lon="1.18934">
        <ele>340.4</ele>
        <time>2024-10-21T08:45:28Z</time>
      </trkpt>
      <trkpt lat="45.84833" lon="1.18934">
        <ele>340.4</ele>
        <time>2024-10-21T08:45:29Z</time>
      </trkpt>
      <trkpt lat="45.84831" lon="1.18933">
        <ele>340.3</ele>
        <time>2024-10-21T08:45:30Z</time>
      </trkpt>
      <trkpt lat="45.8483" lon="1.18933">
        <ele>340.3</ele>
        <time>2024-10-21T08:45:31Z</time>
      </trkpt>
      <trkpt lat="45.84829" lon="1.18932">
        <ele>340.3</ele>
        <time>2024-10-21T08:45:32Z</time>
      </trkpt>
      <trkpt lat="45.84827" lon="1.18932">
        <ele>340.3</ele>
        <time>2024-10-21T08:45:33Z</time>
      </trkpt>
      <trkpt lat="45.84826" lon="1.18931">
        <ele>340.2</ele>
        <time>2024-10-21T08:45:34Z</time>
      </trkpt>
      <trkpt lat="45.84825" lon="1.18931">
        <ele>340.2</ele>
        <time>2024-10-21T08:45:35Z</time>
      </trkpt>
      <trkpt lat="45.84822" lon="1.18931">
        <ele>340.2</ele>
        <time>2024-10-21T08:45:36Z</time>
      </trkpt>
      <trkpt lat="45.84822" lon="1.18931">
        <ele>340.2</ele>
        <time>2024-10-21T08:45:37Z</time>
      </trkpt>
      <trkpt lat="45.84821" lon="1.18931">
        <ele>340.2</ele>
        <time>2024-10-21T08:45:38Z</time>
      </trkpt>
      <trkpt lat="45.84819" lon="1.18931">
        <ele>340.2</ele>
        <time>2024-10-21T08:45:39Z</time>
      </trkpt>
      <trkpt lat="45.84818" lon="1.1893">
        <ele>340.1</ele>
        <time>2024-10-21T08:45:40Z</time>
      </trkpt>
      <trkpt lat="45.84816" lon="1.18931">
        <ele>340.1</ele>
        <time>2024-10-21T08:45:41Z</time>
      </trkpt>
      <trkpt lat="45.84815" lon="1.18932">
        <ele>340.1</ele>
        <time>2024-10-21T08:45:42Z</time>
      </trkpt>
      <trkpt lat="45.84813" lon="1.18932">
        <ele>340.1</ele>
        <time>2024-10-21T08:45:43Z</time>
      </trkpt>
      <trkpt lat="45.84812" lon="1.18932">
        <ele>340.1</ele>
        <time>2024-10-21T08:45:44Z</time>
      </trkpt>
      <trkpt lat="45.8481" lon="1.18931">
        <ele>340</ele>
        <time>2024-10-21T08:45:45Z</time>
      </trkpt>
      <trkpt lat="45.84809" lon="1.18931">
        <ele>340</ele>
        <time>2024-10-21T08:45:46Z</time>
      </trkpt>
      <trkpt lat="45.84808" lon="1.18931">
        <ele>340</ele>
        <time>2024-10-21T08:45:47Z</time>
      </trkpt>
      <trkpt lat="45.84807" lon="1.18931">
        <ele>340</ele>
        <time>2024-10-21T08:45:48Z</time>
      </trkpt>
      <trkpt lat="45.84805" lon="1.18931">
        <ele>340</ele>
        <time>2024-10-21T08:45:49Z</time>
      </trkpt>
      <trkpt lat="45.84803" lon="1.1893">
        <ele>340</ele>
        <time>2024-10-21T08:45:50Z</time>
      </trkpt>
      <trkpt lat="45.84803" lon="1.1893">
        <ele>340</ele>
        <time>2024-10-21T08:45:51Z</time>
      </trkpt>
      <trkpt lat="45.84802" lon="1.1893">
        <ele>340</ele>
        <time>2024-10-21T08:45:52Z</time>
      </trkpt>
      <trkpt lat="45.848" lon="1.18929">
        <ele>339.9</ele>
        <time>2024-10-21T08:45:53Z</time>
      </trkpt>
      <trkpt lat="45.84799" lon="1.18929">
        <ele>339.9</ele>
        <time>2024-10-21T08:45:54Z</time>
      </trkpt>
      <trkpt lat="45.84798" lon="1.18928">
        <ele>339.9</ele>
        <time>2024-10-21T08:45:55Z</time>
      </trkpt>
      <trkpt lat="45.84796" lon="1.18928">
        <ele>339.9</ele>
        <time>2024-10-21T08:45:56Z</time>
      </trkpt>
      <trkpt lat="45.84795" lon="1.18928">
        <ele>339.9</ele>
        <time>2024-10-21T08:45:57Z</time>
      </trkpt>
      <trkpt lat="45.84795" lon="1.18927">
        <ele>339.9</ele>
        <time>2024-10-21T08:45:58Z</time>
      </trkpt>
      <trkpt lat="45.84794" lon="1.18926">
        <ele>339.9</ele>
        <time>2024-10-21T08:45:59Z</time>
      </trkpt>
      <trkpt lat="45.84793" lon="1.18926">
        <ele>339.8</ele>
        <time>2024-10-21T08:46:00Z</time>
      </trkpt>
      <trkpt lat="45.84792" lon="1.18926">
        <ele>339.8</ele>
        <time>2024-10-21T08:46:01Z</time>
      </trkpt>
      <trkpt lat="45.8479" lon="1.18925">
        <ele>339.8</ele>
        <time>2024-10-21T08:46:02Z</time>
      </trkpt>
      <trkpt lat="45.8479" lon="1.18921">
        <ele>339.8</ele>
        <time>2024-10-21T08:46:03Z</time>
      </trkpt>
      <trkpt lat="45.84791" lon="1.18923">
        <ele>339.7</ele>
        <time>2024-10-21T08:46:04Z</time>
      </trkpt>
      <trkpt lat="45.84791" lon="1.18923">
        <ele>339.7</ele>
        <time>2024-10-21T08:46:05Z</time>
      </trkpt>
      <trkpt lat="45.8479" lon="1.18922">
        <ele>339.7</ele>
        <time>2024-10-21T08:46:06Z</time>
      </trkpt>
      <trkpt lat="45.84789" lon="1.18921">
        <ele>339.7</ele>
        <time>2024-10-21T08:46:07Z</time>
      </trkpt>
      <trkpt lat="45.84788" lon="1.18921">
        <ele>339.7</ele>
        <time>2024-10-21T08:46:08Z</time>
      </trkpt>
      <trkpt lat="45.84786" lon="1.18921">
        <ele>339.7</ele>
        <time>2024-10-21T08:46:09Z</time>
      </trkpt>
      <trkpt lat="45.84785" lon="1.18921">
        <ele>339.6</ele>
        <time>2024-10-21T08:46:10Z</time>
      </trkpt>
      <trkpt lat="45.84784" lon="1.18921">
        <ele>339.6</ele>
        <time>2024-10-21T08:46:11Z</time>
      </trkpt>
      <trkpt lat="45.84781" lon="1.1892">
        <ele>339.6</ele>
        <time>2024-10-21T08:46:12Z</time>
      </trkpt>
      <trkpt lat="45.8478" lon="1.18919">
        <ele>339.6</ele>
        <time>2024-10-21T08:46:13Z</time>
      </trkpt>
      <trkpt lat="45.84778" lon="1.18917">
        <ele>339.6</ele>
        <time>2024-10-21T08:46:14Z</time>
      </trkpt>
      <trkpt lat="45.84777" lon="1.18916">
        <ele>339.6</ele>
        <time>2024-10-21T08:46:15Z</time>
      </trkpt>
      <trkpt lat="45.84775" lon="1.18915">
        <ele>339.5</ele>
        <time>2024-10-21T08:46:16Z</time>
      </trkpt>
      <trkpt lat="45.84774" lon="1.18914">
        <ele>339.5</ele>
        <time>2024-10-21T08:46:17Z</time>
      </trkpt>
      <trkpt lat="45.84771" lon="1.18913">
        <ele>339.5</ele>
        <time>2024-10-21T08:46:18Z</time>
      </trkpt>
      <trkpt lat="45.84771" lon="1.18913">
        <ele>339.5</ele>
        <time>2024-10-21T08:46:19Z</time>
      </trkpt>
      <trkpt lat="45.8477" lon="1.18912">
        <ele>339.5</ele>
        <time>2024-10-21T08:46:20Z</time>
      </trkpt>
      <trkpt lat="45.84768" lon="1.18911">
        <ele>339.5</ele>
        <time>2024-10-21T08:46:21Z</time>
      </trkpt>
      <trkpt lat="45.84767" lon="1.18911">
        <ele>339.5</ele>
        <time>2024-10-21T08:46:22Z</time>
      </trkpt>
      <trkpt lat="45.84766" lon="1.18909">
        <ele>339.5</ele>
        <time>2024-10-21T08:46:23Z</time>
      </trkpt>
      <trkpt lat="45.84765" lon="1.18908">
        <ele>339.5</ele>
        <time>2024-10-21T08:46:24Z</time>
      </trkpt>
      <trkpt lat="45.84764" lon="1.18907">
        <ele>339.5</ele>
        <time>2024-10-21T08:46:25Z</time>
      </trkpt>
      <trkpt lat="45.84762" lon="1.18906">
        <ele>339.5</ele>
        <time>2024-10-21T08:46:26Z</time>
      </trkpt>
      <trkpt lat="45.84761" lon="1.18905">
        <ele>339.5</ele>
        <time>2024-10-21T08:46:27Z</time>
      </trkpt>
      <trkpt lat="45.8476" lon="1.18904">
        <ele>339.5</ele>
        <time>2024-10-21T08:46:28Z</time>
      </trkpt>
      <trkpt lat="45.84759" lon="1.18903">
        <ele>339.5</ele>
        <time>2024-10-21T08:46:29Z</time>
      </trkpt>
      <trkpt lat="45.84758" lon="1.18903">
        <ele>339.5</ele>
        <time>2024-10-21T08:46:30Z</time>
      </trkpt>
      <trkpt lat="45.84757" lon="1.18902">
        <ele>339.5</ele>
        <time>2024-10-21T08:46:31Z</time>
      </trkpt>
      <trkpt lat="45.84757" lon="1.18901">
        <ele>339.5</ele>
        <time>2024-10-21T08:46:32Z</time>
      </trkpt>
      <trkpt lat="45.84755" lon="1.189">
        <ele>339.5</ele>
        <time>2024-10-21T08:46:33Z</time>
      </trkpt>
      <trkpt lat="45.84755" lon="1.18899">
        <ele>339.5</ele>
        <time>2024-10-21T08:46:34Z</time>
      </trkpt>
      <trkpt lat="45.84754" lon="1.18897">
        <ele>339.5</ele>
        <time>2024-10-21T08:46:35Z</time>
      </trkpt>
      <trkpt lat="45.84753" lon="1.18896">
        <ele>339.5</ele>
        <time>2024-10-21T08:46:37Z</time>
      </trkpt>
      <trkpt lat="45.84752" lon="1.18895">
        <ele>339.5</ele>
        <time>2024-10-21T08:46:38Z</time>
      </trkpt>
      <trkpt lat="45.84751" lon="1.18894">
        <ele>339.5</ele>
        <time>2024-10-21T08:46:39Z</time>
      </trkpt>
      <trkpt lat="45.8475" lon="1.18893">
        <ele>339.5</ele>
        <time>2024-10-21T08:46:40Z</time>
      </trkpt>
      <trkpt lat="45.84749" lon="1.18893">
        <ele>339.5</ele>
        <time>2024-10-21T08:46:41Z</time>
      </trkpt>
      <trkpt lat="45.84749" lon="1.18891">
        <ele>339.5</ele>
        <time>2024-10-21T08:46:42Z</time>
      </trkpt>
      <trkpt lat="45.84748" lon="1.18891">
        <ele>339.5</ele>
        <time>2024-10-21T08:46:43Z</time>
      </trkpt>
      <trkpt lat="45.84748" lon="1.18888">
        <ele>339.5</ele>
        <time>2024-10-21T08:46:44Z</time>
      </trkpt>
      <trkpt lat="45.84749" lon="1.18884">
        <ele>339.5</ele>
        <time>2024-10-21T08:46:45Z</time>
      </trkpt>
      <trkpt lat="45.8475" lon="1.18882">
        <ele>339.5</ele>
        <time>2024-10-21T08:46:46Z</time>
      </trkpt>
      <trkpt lat="45.84749" lon="1.18878">
        <ele>339.5</ele>
        <time>2024-10-21T08:46:47Z</time>
      </trkpt>
      <trkpt lat="45.84749" lon="1.18876">
        <ele>339.5</ele>
        <time>2024-10-21T08:46:48Z</time>
      </trkpt>
      <trkpt lat="45.84747" lon="1.18871">
        <ele>339.5</ele>
        <time>2024-10-21T08:46:49Z</time>
      </trkpt>
      <trkpt lat="45.84747" lon="1.1887">
        <ele>339.5</ele>
        <time>2024-10-21T08:46:50Z</time>
      </trkpt>
      <trkpt lat="45.84744" lon="1.18865">
        <ele>339.5</ele>
        <time>2024-10-21T08:46:51Z</time>
      </trkpt>
      <trkpt lat="45.84743" lon="1.18863">
        <ele>339.5</ele>
        <time>2024-10-21T08:46:52Z</time>
      </trkpt>
      <trkpt lat="45.84741" lon="1.1886">
        <ele>339.5</ele>
        <time>2024-10-21T08:46:53Z</time>
      </trkpt>
      <trkpt lat="45.8474" lon="1.18859">
        <ele>339.5</ele>
        <time>2024-10-21T08:46:54Z</time>
      </trkpt>
      <trkpt lat="45.84738" lon="1.18855">
        <ele>339.5</ele>
        <time>2024-10-21T08:46:55Z</time>
      </trkpt>
      <trkpt lat="45.84737" lon="1.18854">
        <ele>339.5</ele>
        <time>2024-10-21T08:46:56Z</time>
      </trkpt>
      <trkpt lat="45.84735" lon="1.18852">
        <ele>339.4</ele>
        <time>2024-10-21T08:46:57Z</time>
      </trkpt>
      <trkpt lat="45.84734" lon="1.18851">
        <ele>339.4</ele>
        <time>2024-10-21T08:46:58Z</time>
      </trkpt>
      <trkpt lat="45.84733" lon="1.18849">
        <ele>339.4</ele>
        <time>2024-10-21T08:46:59Z</time>
      </trkpt>
      <trkpt lat="45.84732" lon="1.18847">
        <ele>339.4</ele>
        <time>2024-10-21T08:47:00Z</time>
      </trkpt>
      <trkpt lat="45.84731" lon="1.18845">
        <ele>339.4</ele>
        <time>2024-10-21T08:47:01Z</time>
      </trkpt>
      <trkpt lat="45.8473" lon="1.18844">
        <ele>339.4</ele>
        <time>2024-10-21T08:47:02Z</time>
      </trkpt>
      <trkpt lat="45.84728" lon="1.18842">
        <ele>339.3</ele>
        <time>2024-10-21T08:47:03Z</time>
      </trkpt>
      <trkpt lat="45.84728" lon="1.1884">
        <ele>339.3</ele>
        <time>2024-10-21T08:47:04Z</time>
      </trkpt>
      <trkpt lat="45.84727" lon="1.18838">
        <ele>339.3</ele>
        <time>2024-10-21T08:47:05Z</time>
      </trkpt>
      <trkpt lat="45.84726" lon="1.18836">
        <ele>339.3</ele>
        <time>2024-10-21T08:47:06Z</time>
      </trkpt>
      <trkpt lat="45.84724" lon="1.18834">
        <ele>339.2</ele>
        <time>2024-10-21T08:47:07Z</time>
      </trkpt>
      <trkpt lat="45.84723" lon="1.18832">
        <ele>339.2</ele>
        <time>2024-10-21T08:47:08Z</time>
      </trkpt>
      <trkpt lat="45.84722" lon="1.1883">
        <ele>339.2</ele>
        <time>2024-10-21T08:47:09Z</time>
      </trkpt>
      <trkpt lat="45.84721" lon="1.18826">
        <ele>339.2</ele>
        <time>2024-10-21T08:47:10Z</time>
      </trkpt>
      <trkpt lat="45.8472" lon="1.18825">
        <ele>339.1</ele>
        <time>2024-10-21T08:47:11Z</time>
      </trkpt>
      <trkpt lat="45.84719" lon="1.18823">
        <ele>339.1</ele>
        <time>2024-10-21T08:47:13Z</time>
      </trkpt>
      <trkpt lat="45.84718" lon="1.18822">
        <ele>339.1</ele>
        <time>2024-10-21T08:47:14Z</time>
      </trkpt>
      <trkpt lat="45.84717" lon="1.18821">
        <ele>339.1</ele>
        <time>2024-10-21T08:47:15Z</time>
      </trkpt>
      <trkpt lat="45.84716" lon="1.1882">
        <ele>339.1</ele>
        <time>2024-10-21T08:47:16Z</time>
      </trkpt>
      <trkpt lat="45.84714" lon="1.18818">
        <ele>339.1</ele>
        <time>2024-10-21T08:47:17Z</time>
      </trkpt>
      <trkpt lat="45.84714" lon="1.18818">
        <ele>339</ele>
        <time>2024-10-21T08:47:18Z</time>
      </trkpt>
      <trkpt lat="45.84713" lon="1.18817">
        <ele>339</ele>
        <time>2024-10-21T08:47:19Z</time>
      </trkpt>
      <trkpt lat="45.84711" lon="1.18817">
        <ele>339</ele>
        <time>2024-10-21T08:47:20Z</time>
      </trkpt>
      <trkpt lat="45.8471" lon="1.18816">
        <ele>339</ele>
        <time>2024-10-21T08:47:21Z</time>
      </trkpt>
      <trkpt lat="45.84709" lon="1.18816">
        <ele>339</ele>
        <time>2024-10-21T08:47:22Z</time>
      </trkpt>
      <trkpt lat="45.84708" lon="1.18816">
        <ele>339</ele>
        <time>2024-10-21T08:47:23Z</time>
      </trkpt>
      <trkpt lat="45.84707" lon="1.18817">
        <ele>339.1</ele>
        <time>2024-10-21T08:47:24Z</time>
      </trkpt>
      <trkpt lat="45.84705" lon="1.18818">
        <ele>339.2</ele>
        <time>2024-10-21T08:47:25Z</time>
      </trkpt>
      <trkpt lat="45.84703" lon="1.1882">
        <ele>339.3</ele>
        <time>2024-10-21T08:47:27Z</time>
      </trkpt>
      <trkpt lat="45.84703" lon="1.18821">
        <ele>339.3</ele>
        <time>2024-10-21T08:47:28Z</time>
      </trkpt>
      <trkpt lat="45.84702" lon="1.18822">
        <ele>339.3</ele>
        <time>2024-10-21T08:47:29Z</time>
      </trkpt>
      <trkpt lat="45.84702" lon="1.18824">
        <ele>339.4</ele>
        <time>2024-10-21T08:47:30Z</time>
      </trkpt>
      <trkpt lat="45.84702" lon="1.18826">
        <ele>339.5</ele>
        <time>2024-10-21T08:47:31Z</time>
      </trkpt>
      <trkpt lat="45.84702" lon="1.18829">
        <ele>339.5</ele>
        <time>2024-10-21T08:47:32Z</time>
      </trkpt>
      <trkpt lat="45.84701" lon="1.18831">
        <ele>339.6</ele>
        <time>2024-10-21T08:47:33Z</time>
      </trkpt>
      <trkpt lat="45.84701" lon="1.18833">
        <ele>339.7</ele>
        <time>2024-10-21T08:47:34Z</time>
      </trkpt>
      <trkpt lat="45.847" lon="1.18837">
        <ele>339.8</ele>
        <time>2024-10-21T08:47:35Z</time>
      </trkpt>
      <trkpt lat="45.84699" lon="1.18838">
        <ele>339.9</ele>
        <time>2024-10-21T08:47:36Z</time>
      </trkpt>
      <trkpt lat="45.84698" lon="1.1884">
        <ele>340</ele>
        <time>2024-10-21T08:47:37Z</time>
      </trkpt>
      <trkpt lat="45.84698" lon="1.18842">
        <ele>340.1</ele>
        <time>2024-10-21T08:47:38Z</time>
      </trkpt>
      <trkpt lat="45.84697" lon="1.18844">
        <ele>340.1</ele>
        <time>2024-10-21T08:47:39Z</time>
      </trkpt>
      <trkpt lat="45.84696" lon="1.18846">
        <ele>340.2</ele>
        <time>2024-10-21T08:47:40Z</time>
      </trkpt>
      <trkpt lat="45.84695" lon="1.18847">
        <ele>340.3</ele>
        <time>2024-10-21T08:47:41Z</time>
      </trkpt>
      <trkpt lat="45.84694" lon="1.18849">
        <ele>340.4</ele>
        <time>2024-10-21T08:47:42Z</time>
      </trkpt>
      <trkpt lat="45.84692" lon="1.18853">
        <ele>340.5</ele>
        <time>2024-10-21T08:47:43Z</time>
      </trkpt>
      <trkpt lat="45.84691" lon="1.18854">
        <ele>340.7</ele>
        <time>2024-10-21T08:47:44Z</time>
      </trkpt>
      <trkpt lat="45.84691" lon="1.18854">
        <ele>340.7</ele>
        <time>2024-10-21T08:47:45Z</time>
      </trkpt>
      <trkpt lat="45.8469" lon="1.18856">
        <ele>340.7</ele>
        <time>2024-10-21T08:47:46Z</time>
      </trkpt>
      <trkpt lat="45.84688" lon="1.18859">
        <ele>340.9</ele>
        <time>2024-10-21T08:47:47Z</time>
      </trkpt>
      <trkpt lat="45.84687" lon="1.1886">
        <ele>341</ele>
        <time>2024-10-21T08:47:48Z</time>
      </trkpt>
      <trkpt lat="45.84686" lon="1.18861">
        <ele>341</ele>
        <time>2024-10-21T08:47:49Z</time>
      </trkpt>
      <trkpt lat="45.84685" lon="1.18861">
        <ele>341.1</ele>
        <time>2024-10-21T08:47:50Z</time>
      </trkpt>
      <trkpt lat="45.84684" lon="1.18862">
        <ele>341.2</ele>
        <time>2024-10-21T08:47:51Z</time>
      </trkpt>
      <trkpt lat="45.84682" lon="1.18863">
        <ele>341.2</ele>
        <time>2024-10-21T08:47:52Z</time>
      </trkpt>
      <trkpt lat="45.84681" lon="1.18864">
        <ele>341.3</ele>
        <time>2024-10-21T08:47:53Z</time>
      </trkpt>
      <trkpt lat="45.8468" lon="1.18865">
        <ele>341.4</ele>
        <time>2024-10-21T08:47:54Z</time>
      </trkpt>
      <trkpt lat="45.84679" lon="1.18867">
        <ele>341.5</ele>
        <time>2024-10-21T08:47:55Z</time>
      </trkpt>
      <trkpt lat="45.84678" lon="1.18869">
        <ele>341.6</ele>
        <time>2024-10-21T08:47:56Z</time>
      </trkpt>
      <trkpt lat="45.84677" lon="1.18871">
        <ele>341.7</ele>
        <time>2024-10-21T08:47:57Z</time>
      </trkpt>
      <trkpt lat="45.84676" lon="1.18874">
        <ele>341.8</ele>
        <time>2024-10-21T08:47:58Z</time>
      </trkpt>
      <trkpt lat="45.84676" lon="1.18876">
        <ele>341.9</ele>
        <time>2024-10-21T08:47:59Z</time>
      </trkpt>
      <trkpt lat="45.84675" lon="1.1888">
        <ele>342</ele>
        <time>2024-10-21T08:48:00Z</time>
      </trkpt>
      <trkpt lat="45.84675" lon="1.18881">
        <ele>342.1</ele>
        <time>2024-10-21T08:48:01Z</time>
      </trkpt>
      <trkpt lat="45.84674" lon="1.18886">
        <ele>342.2</ele>
        <time>2024-10-21T08:48:02Z</time>
      </trkpt>
      <trkpt lat="45.84674" lon="1.18888">
        <ele>342.3</ele>
        <time>2024-10-21T08:48:03Z</time>
      </trkpt>
      <trkpt lat="45.84674" lon="1.18892">
        <ele>342.4</ele>
        <time>2024-10-21T08:48:04Z</time>
      </trkpt>
      <trkpt lat="45.84675" lon="1.18897">
        <ele>342.6</ele>
        <time>2024-10-21T08:48:05Z</time>
      </trkpt>
      <trkpt lat="45.84675" lon="1.18902">
        <ele>342.8</ele>
        <time>2024-10-21T08:48:06Z</time>
      </trkpt>
      <trkpt lat="45.84675" lon="1.18902">
        <ele>342.8</ele>
        <time>2024-10-21T08:48:07Z</time>
      </trkpt>
      <trkpt lat="45.84674" lon="1.18903">
        <ele>342.8</ele>
        <time>2024-10-21T08:48:08Z</time>
      </trkpt>
      <trkpt lat="45.84674" lon="1.18905">
        <ele>342.9</ele>
        <time>2024-10-21T08:48:09Z</time>
      </trkpt>
      <trkpt lat="45.84674" lon="1.18905">
        <ele>342.9</ele>
        <time>2024-10-21T08:48:10Z</time>
      </trkpt>
      <trkpt lat="45.84673" lon="1.18905">
        <ele>342.9</ele>
        <time>2024-10-21T08:48:11Z</time>
      </trkpt>
      <trkpt lat="45.84672" lon="1.18906">
        <ele>343</ele>
        <time>2024-10-21T08:48:12Z</time>
      </trkpt>
      <trkpt lat="45.84669" lon="1.18906">
        <ele>343.1</ele>
        <time>2024-10-21T08:48:13Z</time>
      </trkpt>
      <trkpt lat="45.84666" lon="1.18906">
        <ele>343.2</ele>
        <time>2024-10-21T08:48:14Z</time>
      </trkpt>
      <trkpt lat="45.84665" lon="1.18906">
        <ele>343.2</ele>
        <time>2024-10-21T08:48:15Z</time>
      </trkpt>
      <trkpt lat="45.84663" lon="1.18908">
        <ele>343.3</ele>
        <time>2024-10-21T08:48:16Z</time>
      </trkpt>
      <trkpt lat="45.84663" lon="1.18908">
        <ele>343.3</ele>
        <time>2024-10-21T08:48:17Z</time>
      </trkpt>
      <trkpt lat="45.84663" lon="1.18909">
        <ele>343.4</ele>
        <time>2024-10-21T08:48:18Z</time>
      </trkpt>
      <trkpt lat="45.84662" lon="1.18911">
        <ele>343.4</ele>
        <time>2024-10-21T08:48:19Z</time>
      </trkpt>
      <trkpt lat="45.84662" lon="1.18913">
        <ele>343.5</ele>
        <time>2024-10-21T08:48:20Z</time>
      </trkpt>
      <trkpt lat="45.84663" lon="1.18915">
        <ele>343.5</ele>
        <time>2024-10-21T08:48:21Z</time>
      </trkpt>
      <trkpt lat="45.84663" lon="1.18917">
        <ele>343.6</ele>
        <time>2024-10-21T08:48:22Z</time>
      </trkpt>
      <trkpt lat="45.84663" lon="1.18921">
        <ele>343.7</ele>
        <time>2024-10-21T08:48:23Z</time>
      </trkpt>
      <trkpt lat="45.84663" lon="1.18923">
        <ele>343.7</ele>
        <time>2024-10-21T08:48:24Z</time>
      </trkpt>
      <trkpt lat="45.84663" lon="1.18924">
        <ele>343.7</ele>
        <time>2024-10-21T08:48:25Z</time>
      </trkpt>
      <trkpt lat="45.84662" lon="1.18926">
        <ele>343.8</ele>
        <time>2024-10-21T08:48:26Z</time>
      </trkpt>
      <trkpt lat="45.84661" lon="1.18926">
        <ele>343.8</ele>
        <time>2024-10-21T08:48:27Z</time>
      </trkpt>
      <trkpt lat="45.84659" lon="1.18927">
        <ele>343.8</ele>
        <time>2024-10-21T08:48:28Z</time>
      </trkpt>
      <trkpt lat="45.84658" lon="1.18929">
        <ele>343.9</ele>
        <time>2024-10-21T08:48:29Z</time>
      </trkpt>
      <trkpt lat="45.84656" lon="1.1893">
        <ele>343.9</ele>
        <time>2024-10-21T08:48:31Z</time>
      </trkpt>
      <trkpt lat="45.84655" lon="1.1893">
        <ele>343.9</ele>
        <time>2024-10-21T08:48:32Z</time>
      </trkpt>
      <trkpt lat="45.84654" lon="1.1893">
        <ele>344</ele>
        <time>2024-10-21T08:48:33Z</time>
      </trkpt>
      <trkpt lat="45.84653" lon="1.18931">
        <ele>344</ele>
        <time>2024-10-21T08:48:34Z</time>
      </trkpt>
      <trkpt lat="45.84652" lon="1.18932">
        <ele>344</ele>
        <time>2024-10-21T08:48:35Z</time>
      </trkpt>
      <trkpt lat="45.84652" lon="1.18933">
        <ele>344</ele>
        <time>2024-10-21T08:48:36Z</time>
      </trkpt>
      <trkpt lat="45.84651" lon="1.18933">
        <ele>344</ele>
        <time>2024-10-21T08:48:37Z</time>
      </trkpt>
      <trkpt lat="45.8465" lon="1.18934">
        <ele>344</ele>
        <time>2024-10-21T08:48:38Z</time>
      </trkpt>
      <trkpt lat="45.84649" lon="1.18935">
        <ele>344.1</ele>
        <time>2024-10-21T08:48:39Z</time>
      </trkpt>
      <trkpt lat="45.84649" lon="1.18935">
        <ele>344.1</ele>
        <time>2024-10-21T08:48:40Z</time>
      </trkpt>
      <trkpt lat="45.84648" lon="1.18936">
        <ele>344.1</ele>
        <time>2024-10-21T08:48:41Z</time>
      </trkpt>
      <trkpt lat="45.84647" lon="1.18938">
        <ele>344.1</ele>
        <time>2024-10-21T08:48:42Z</time>
      </trkpt>
      <trkpt lat="45.84647" lon="1.18939">
        <ele>344.1</ele>
        <time>2024-10-21T08:48:43Z</time>
      </trkpt>
      <trkpt lat="45.84649" lon="1.18942">
        <ele>344.2</ele>
        <time>2024-10-21T08:48:44Z</time>
      </trkpt>
      <trkpt lat="45.84649" lon="1.18943">
        <ele>344.2</ele>
        <time>2024-10-21T08:48:45Z</time>
      </trkpt>
      <trkpt lat="45.84649" lon="1.18945">
        <ele>344.2</ele>
        <time>2024-10-21T08:48:46Z</time>
      </trkpt>
      <trkpt lat="45.84649" lon="1.18946">
        <ele>344.2</ele>
        <time>2024-10-21T08:48:47Z</time>
      </trkpt>
      <trkpt lat="45.84648" lon="1.18948">
        <ele>344.2</ele>
        <time>2024-10-21T08:48:48Z</time>
      </trkpt>
      <trkpt lat="45.84646" lon="1.18953">
        <ele>344.3</ele>
        <time>2024-10-21T08:48:49Z</time>
      </trkpt>
      <trkpt lat="45.84645" lon="1.18955">
        <ele>344.3</ele>
        <time>2024-10-21T08:48:50Z</time>
      </trkpt>
      <trkpt lat="45.84644" lon="1.18958">
        <ele>344.3</ele>
        <time>2024-10-21T08:48:51Z</time>
      </trkpt>
      <trkpt lat="45.84642" lon="1.18961">
        <ele>344.3</ele>
        <time>2024-10-21T08:48:53Z</time>
      </trkpt>
      <trkpt lat="45.84641" lon="1.18962">
        <ele>344.3</ele>
        <time>2024-10-21T08:48:54Z</time>
      </trkpt>
      <trkpt lat="45.84639" lon="1.18965">
        <ele>344.4</ele>
        <time>2024-10-21T08:48:55Z</time>
      </trkpt>
      <trkpt lat="45.84639" lon="1.18966">
        <ele>344.4</ele>
        <time>2024-10-21T08:48:56Z</time>
      </trkpt>
      <trkpt lat="45.84637" lon="1.18969">
        <ele>344.4</ele>
        <time>2024-10-21T08:48:57Z</time>
      </trkpt>
      <trkpt lat="45.84636" lon="1.1897">
        <ele>344.4</ele>
        <time>2024-10-21T08:48:58Z</time>
      </trkpt>
      <trkpt lat="45.84635" lon="1.18972">
        <ele>344.4</ele>
        <time>2024-10-21T08:48:59Z</time>
      </trkpt>
      <trkpt lat="45.84634" lon="1.18974">
        <ele>344.4</ele>
        <time>2024-10-21T08:49:00Z</time>
      </trkpt>
      <trkpt lat="45.84633" lon="1.18976">
        <ele>344.4</ele>
        <time>2024-10-21T08:49:01Z</time>
      </trkpt>
      <trkpt lat="45.84632" lon="1.18978">
        <ele>344.4</ele>
        <time>2024-10-21T08:49:02Z</time>
      </trkpt>
      <trkpt lat="45.84631" lon="1.18979">
        <ele>344.4</ele>
        <time>2024-10-21T08:49:03Z</time>
      </trkpt>
      <trkpt lat="45.84629" lon="1.18981">
        <ele>344.5</ele>
        <time>2024-10-21T08:49:04Z</time>
      </trkpt>
      <trkpt lat="45.84628" lon="1.18983">
        <ele>344.5</ele>
        <time>2024-10-21T08:49:05Z</time>
      </trkpt>
      <trkpt lat="45.84627" lon="1.18984">
        <ele>344.5</ele>
        <time>2024-10-21T08:49:06Z</time>
      </trkpt>
      <trkpt lat="45.84626" lon="1.18986">
        <ele>344.5</ele>
        <time>2024-10-21T08:49:07Z</time>
      </trkpt>
      <trkpt lat="45.84624" lon="1.18987">
        <ele>344.5</ele>
        <time>2024-10-21T08:49:08Z</time>
      </trkpt>
      <trkpt lat="45.84623" lon="1.18989">
        <ele>344.5</ele>
        <time>2024-10-21T08:49:09Z</time>
      </trkpt>
      <trkpt lat="45.84621" lon="1.18991">
        <ele>344.5</ele>
        <time>2024-10-21T08:49:10Z</time>
      </trkpt>
      <trkpt lat="45.84621" lon="1.18992">
        <ele>344.5</ele>
        <time>2024-10-21T08:49:11Z</time>
      </trkpt>
      <trkpt lat="45.8462" lon="1.18993">
        <ele>344.5</ele>
        <time>2024-10-21T08:49:12Z</time>
      </trkpt>
      <trkpt lat="45.84619" lon="1.18994">
        <ele>344.5</ele>
        <time>2024-10-21T08:49:13Z</time>
      </trkpt>
      <trkpt lat="45.84618" lon="1.18995">
        <ele>344.5</ele>
        <time>2024-10-21T08:49:14Z</time>
      </trkpt>
      <trkpt lat="45.84617" lon="1.18997">
        <ele>344.5</ele>
        <time>2024-10-21T08:49:15Z</time>
      </trkpt>
      <trkpt lat="45.84615" lon="1.18999">
        <ele>344.5</ele>
        <time>2024-10-21T08:49:16Z</time>
      </trkpt>
      <trkpt lat="45.84614" lon="1.18999">
        <ele>344.5</ele>
        <time>2024-10-21T08:49:17Z</time>
      </trkpt>
      <trkpt lat="45.84614" lon="1.19">
        <ele>344.6</ele>
        <time>2024-10-21T08:49:18Z</time>
      </trkpt>
      <trkpt lat="45.84613" lon="1.19002">
        <ele>344.6</ele>
        <time>2024-10-21T08:49:19Z</time>
      </trkpt>
      <trkpt lat="45.84611" lon="1.19004">
        <ele>344.6</ele>
        <time>2024-10-21T08:49:20Z</time>
      </trkpt>
      <trkpt lat="45.8461" lon="1.19007">
        <ele>344.6</ele>
        <time>2024-10-21T08:49:21Z</time>
      </trkpt>
      <trkpt lat="45.8461" lon="1.19008">
        <ele>344.6</ele>
        <time>2024-10-21T08:49:22Z</time>
      </trkpt>
      <trkpt lat="45.84609" lon="1.1901">
        <ele>344.6</ele>
        <time>2024-10-21T08:49:23Z</time>
      </trkpt>
      <trkpt lat="45.84608" lon="1.19011">
        <ele>344.6</ele>
        <time>2024-10-21T08:49:24Z</time>
      </trkpt>
      <trkpt lat="45.84608" lon="1.19013">
        <ele>344.6</ele>
        <time>2024-10-21T08:49:25Z</time>
      </trkpt>
      <trkpt lat="45.84607" lon="1.19014">
        <ele>344.6</ele>
        <time>2024-10-21T08:49:26Z</time>
      </trkpt>
      <trkpt lat="45.84607" lon="1.19015">
        <ele>344.6</ele>
        <time>2024-10-21T08:49:27Z</time>
      </trkpt>
      <trkpt lat="45.84606" lon="1.19017">
        <ele>344.6</ele>
        <time>2024-10-21T08:49:28Z</time>
      </trkpt>
      <trkpt lat="45.84605" lon="1.19018">
        <ele>344.6</ele>
        <time>2024-10-21T08:49:29Z</time>
      </trkpt>
      <trkpt lat="45.84604" lon="1.1902">
        <ele>344.6</ele>
        <time>2024-10-21T08:49:30Z</time>
      </trkpt>
      <trkpt lat="45.84603" lon="1.19021">
        <ele>344.6</ele>
        <time>2024-10-21T08:49:31Z</time>
      </trkpt>
      <trkpt lat="45.84602" lon="1.19022">
        <ele>344.6</ele>
        <time>2024-10-21T08:49:32Z</time>
      </trkpt>
      <trkpt lat="45.84601" lon="1.19023">
        <ele>344.6</ele>
        <time>2024-10-21T08:49:33Z</time>
      </trkpt>
      <trkpt lat="45.846" lon="1.19025">
        <ele>344.6</ele>
        <time>2024-10-21T08:49:34Z</time>
      </trkpt>
      <trkpt lat="45.84599" lon="1.19027">
        <ele>344.6</ele>
        <time>2024-10-21T08:49:35Z</time>
      </trkpt>
      <trkpt lat="45.84598" lon="1.19029">
        <ele>344.6</ele>
        <time>2024-10-21T08:49:36Z</time>
      </trkpt>
      <trkpt lat="45.84598" lon="1.1903">
        <ele>344.6</ele>
        <time>2024-10-21T08:49:37Z</time>
      </trkpt>
      <trkpt lat="45.84597" lon="1.19031">
        <ele>344.6</ele>
        <time>2024-10-21T08:49:38Z</time>
      </trkpt>
      <trkpt lat="45.84597" lon="1.19032">
        <ele>344.7</ele>
        <time>2024-10-21T08:49:39Z</time>
      </trkpt>
      <trkpt lat="45.84596" lon="1.19034">
        <ele>344.7</ele>
        <time>2024-10-21T08:49:40Z</time>
      </trkpt>
      <trkpt lat="45.84595" lon="1.19036">
        <ele>344.7</ele>
        <time>2024-10-21T08:49:41Z</time>
      </trkpt>
      <trkpt lat="45.84595" lon="1.19037">
        <ele>344.7</ele>
        <time>2024-10-21T08:49:42Z</time>
      </trkpt>
      <trkpt lat="45.84594" lon="1.19038">
        <ele>344.7</ele>
        <time>2024-10-21T08:49:43Z</time>
      </trkpt>
      <trkpt lat="45.84593" lon="1.1904">
        <ele>344.7</ele>
        <time>2024-10-21T08:49:44Z</time>
      </trkpt>
      <trkpt lat="45.84592" lon="1.19041">
        <ele>344.7</ele>
        <time>2024-10-21T08:49:45Z</time>
      </trkpt>
      <trkpt lat="45.84591" lon="1.19042">
        <ele>344.7</ele>
        <time>2024-10-21T08:49:46Z</time>
      </trkpt>
      <trkpt lat="45.8459" lon="1.19043">
        <ele>344.7</ele>
        <time>2024-10-21T08:49:47Z</time>
      </trkpt>
      <trkpt lat="45.84589" lon="1.19045">
        <ele>344.7</ele>
        <time>2024-10-21T08:49:48Z</time>
      </trkpt>
      <trkpt lat="45.84588" lon="1.19046">
        <ele>344.7</ele>
        <time>2024-10-21T08:49:49Z</time>
      </trkpt>
      <trkpt lat="45.84586" lon="1.19048">
        <ele>344.8</ele>
        <time>2024-10-21T08:49:50Z</time>
      </trkpt>
      <trkpt lat="45.84586" lon="1.19048">
        <ele>344.8</ele>
        <time>2024-10-21T08:49:51Z</time>
      </trkpt>
      <trkpt lat="45.84585" lon="1.19049">
        <ele>344.8</ele>
        <time>2024-10-21T08:49:52Z</time>
      </trkpt>
      <trkpt lat="45.84584" lon="1.1905">
        <ele>344.8</ele>
        <time>2024-10-21T08:49:53Z</time>
      </trkpt>
      <trkpt lat="45.84582" lon="1.19051">
        <ele>344.8</ele>
        <time>2024-10-21T08:49:54Z</time>
      </trkpt>
      <trkpt lat="45.84581" lon="1.19052">
        <ele>344.8</ele>
        <time>2024-10-21T08:49:55Z</time>
      </trkpt>
      <trkpt lat="45.8458" lon="1.19053">
        <ele>344.8</ele>
        <time>2024-10-21T08:49:56Z</time>
      </trkpt>
      <trkpt lat="45.84579" lon="1.19053">
        <ele>344.8</ele>
        <time>2024-10-21T08:49:57Z</time>
      </trkpt>
      <trkpt lat="45.84578" lon="1.19054">
        <ele>344.9</ele>
        <time>2024-10-21T08:49:58Z</time>
      </trkpt>
      <trkpt lat="45.84576" lon="1.19054">
        <ele>344.9</ele>
        <time>2024-10-21T08:49:59Z</time>
      </trkpt>
      <trkpt lat="45.84575" lon="1.19055">
        <ele>344.9</ele>
        <time>2024-10-21T08:50:00Z</time>
      </trkpt>
      <trkpt lat="45.84573" lon="1.19057">
        <ele>344.9</ele>
        <time>2024-10-21T08:50:01Z</time>
      </trkpt>
      <trkpt lat="45.84572" lon="1.19058">
        <ele>344.9</ele>
        <time>2024-10-21T08:50:02Z</time>
      </trkpt>
      <trkpt lat="45.84572" lon="1.19059">
        <ele>344.9</ele>
        <time>2024-10-21T08:50:03Z</time>
      </trkpt>
      <trkpt lat="45.84571" lon="1.1906">
        <ele>344.9</ele>
        <time>2024-10-21T08:50:04Z</time>
      </trkpt>
      <trkpt lat="45.84569" lon="1.19062">
        <ele>345</ele>
        <time>2024-10-21T08:50:05Z</time>
      </trkpt>
      <trkpt lat="45.84569" lon="1.19063">
        <ele>345</ele>
        <time>2024-10-21T08:50:06Z</time>
      </trkpt>
      <trkpt lat="45.84568" lon="1.19063">
        <ele>345</ele>
        <time>2024-10-21T08:50:07Z</time>
      </trkpt>
      <trkpt lat="45.84567" lon="1.19064">
        <ele>345</ele>
        <time>2024-10-21T08:50:08Z</time>
      </trkpt>
      <trkpt lat="45.84566" lon="1.19065">
        <ele>345</ele>
        <time>2024-10-21T08:50:09Z</time>
      </trkpt>
      <trkpt lat="45.84564" lon="1.19066">
        <ele>345</ele>
        <time>2024-10-21T08:50:10Z</time>
      </trkpt>
      <trkpt lat="45.84563" lon="1.19067">
        <ele>345.1</ele>
        <time>2024-10-21T08:50:11Z</time>
      </trkpt>
      <trkpt lat="45.84562" lon="1.19068">
        <ele>345.1</ele>
        <time>2024-10-21T08:50:12Z</time>
      </trkpt>
      <trkpt lat="45.84562" lon="1.19069">
        <ele>345.1</ele>
        <time>2024-10-21T08:50:13Z</time>
      </trkpt>
      <trkpt lat="45.84561" lon="1.1907">
        <ele>345.1</ele>
        <time>2024-10-21T08:50:14Z</time>
      </trkpt>
      <trkpt lat="45.8456" lon="1.19071">
        <ele>345.1</ele>
        <time>2024-10-21T08:50:15Z</time>
      </trkpt>
      <trkpt lat="45.84559" lon="1.19072">
        <ele>345.1</ele>
        <time>2024-10-21T08:50:16Z</time>
      </trkpt>
      <trkpt lat="45.84558" lon="1.19074">
        <ele>345.2</ele>
        <time>2024-10-21T08:50:17Z</time>
      </trkpt>
      <trkpt lat="45.84557" lon="1.19075">
        <ele>345.2</ele>
        <time>2024-10-21T08:50:18Z</time>
      </trkpt>
      <trkpt lat="45.84557" lon="1.19076">
        <ele>345.2</ele>
        <time>2024-10-21T08:50:19Z</time>
      </trkpt>
      <trkpt lat="45.84555" lon="1.19079">
        <ele>345.2</ele>
        <time>2024-10-21T08:50:20Z</time>
      </trkpt>
      <trkpt lat="45.84554" lon="1.19079">
        <ele>345.2</ele>
        <time>2024-10-21T08:50:21Z</time>
      </trkpt>
      <trkpt lat="45.84554" lon="1.1908">
        <ele>345.2</ele>
        <time>2024-10-21T08:50:22Z</time>
      </trkpt>
      <trkpt lat="45.84553" lon="1.19083">
        <ele>345.3</ele>
        <time>2024-10-21T08:50:23Z</time>
      </trkpt>
      <trkpt lat="45.84552" lon="1.19084">
        <ele>345.3</ele>
        <time>2024-10-21T08:50:24Z</time>
      </trkpt>
      <trkpt lat="45.84551" lon="1.19085">
        <ele>345.3</ele>
        <time>2024-10-21T08:50:25Z</time>
      </trkpt>
      <trkpt lat="45.8455" lon="1.19087">
        <ele>345.3</ele>
        <time>2024-10-21T08:50:26Z</time>
      </trkpt>
      <trkpt lat="45.8455" lon="1.19088">
        <ele>345.3</ele>
        <time>2024-10-21T08:50:27Z</time>
      </trkpt>
      <trkpt lat="45.84549" lon="1.19089">
        <ele>345.3</ele>
        <time>2024-10-21T08:50:28Z</time>
      </trkpt>
      <trkpt lat="45.84548" lon="1.1909">
        <ele>345.3</ele>
        <time>2024-10-21T08:50:29Z</time>
      </trkpt>
      <trkpt lat="45.84547" lon="1.19092">
        <ele>345.4</ele>
        <time>2024-10-21T08:50:30Z</time>
      </trkpt>
      <trkpt lat="45.84546" lon="1.19093">
        <ele>345.4</ele>
        <time>2024-10-21T08:50:31Z</time>
      </trkpt>
      <trkpt lat="45.84545" lon="1.19094">
        <ele>345.4</ele>
        <time>2024-10-21T08:50:32Z</time>
      </trkpt>
      <trkpt lat="45.84544" lon="1.19095">
        <ele>345.4</ele>
        <time>2024-10-21T08:50:33Z</time>
      </trkpt>
      <trkpt lat="45.84543" lon="1.19095">
        <ele>345.4</ele>
        <time>2024-10-21T08:50:34Z</time>
      </trkpt>
      <trkpt lat="45.84541" lon="1.19097">
        <ele>345.4</ele>
        <time>2024-10-21T08:50:35Z</time>
      </trkpt>
      <trkpt lat="45.84541" lon="1.19098">
        <ele>345.4</ele>
        <time>2024-10-21T08:50:36Z</time>
      </trkpt>
      <trkpt lat="45.8454" lon="1.19098">
        <ele>345.4</ele>
        <time>2024-10-21T08:50:37Z</time>
      </trkpt>
      <trkpt lat="45.84537" lon="1.191">
        <ele>345.4</ele>
        <time>2024-10-21T08:50:38Z</time>
      </trkpt>
      <trkpt lat="45.84536" lon="1.19101">
        <ele>345.5</ele>
        <time>2024-10-21T08:50:39Z</time>
      </trkpt>
      <trkpt lat="45.84535" lon="1.19102">
        <ele>345.5</ele>
        <time>2024-10-21T08:50:40Z</time>
      </trkpt>
      <trkpt lat="45.84535" lon="1.19102">
        <ele>345.5</ele>
        <time>2024-10-21T08:50:41Z</time>
      </trkpt>
      <trkpt lat="45.84534" lon="1.19102">
        <ele>345.5</ele>
        <time>2024-10-21T08:50:42Z</time>
      </trkpt>
      <trkpt lat="45.84532" lon="1.19103">
        <ele>345.5</ele>
        <time>2024-10-21T08:50:43Z</time>
      </trkpt>
      <trkpt lat="45.84531" lon="1.19103">
        <ele>345.5</ele>
        <time>2024-10-21T08:50:44Z</time>
      </trkpt>
      <trkpt lat="45.8453" lon="1.19103">
        <ele>345.5</ele>
        <time>2024-10-21T08:50:45Z</time>
      </trkpt>
      <trkpt lat="45.84529" lon="1.19103">
        <ele>345.5</ele>
        <time>2024-10-21T08:50:46Z</time>
      </trkpt>
      <trkpt lat="45.84527" lon="1.19103">
        <ele>345.5</ele>
        <time>2024-10-21T08:50:47Z</time>
      </trkpt>
      <trkpt lat="45.84526" lon="1.19103">
        <ele>345.5</ele>
        <time>2024-10-21T08:50:48Z</time>
      </trkpt>
      <trkpt lat="45.84523" lon="1.19102">
        <ele>345.4</ele>
        <time>2024-10-21T08:50:49Z</time>
      </trkpt>
      <trkpt lat="45.84522" lon="1.19102">
        <ele>345.4</ele>
        <time>2024-10-21T08:50:51Z</time>
      </trkpt>
      <trkpt lat="45.84521" lon="1.19102">
        <ele>345.4</ele>
        <time>2024-10-21T08:50:52Z</time>
      </trkpt>
      <trkpt lat="45.8452" lon="1.19101">
        <ele>345.4</ele>
        <time>2024-10-21T08:50:53Z</time>
      </trkpt>
      <trkpt lat="45.84519" lon="1.19099">
        <ele>345.4</ele>
        <time>2024-10-21T08:50:54Z</time>
      </trkpt>
      <trkpt lat="45.84518" lon="1.19098">
        <ele>345.4</ele>
        <time>2024-10-21T08:50:55Z</time>
      </trkpt>
      <trkpt lat="45.84516" lon="1.19096">
        <ele>345.3</ele>
        <time>2024-10-21T08:50:56Z</time>
      </trkpt>
      <trkpt lat="45.84515" lon="1.19095">
        <ele>345.3</ele>
        <time>2024-10-21T08:50:57Z</time>
      </trkpt>
      <trkpt lat="45.84515" lon="1.19094">
        <ele>345.3</ele>
        <time>2024-10-21T08:50:58Z</time>
      </trkpt>
      <trkpt lat="45.84514" lon="1.19093">
        <ele>345.3</ele>
        <time>2024-10-21T08:50:59Z</time>
      </trkpt>
      <trkpt lat="45.84513" lon="1.1909">
        <ele>345.3</ele>
        <time>2024-10-21T08:51:00Z</time>
      </trkpt>
      <trkpt lat="45.84512" lon="1.19089">
        <ele>345.2</ele>
        <time>2024-10-21T08:51:01Z</time>
      </trkpt>
      <trkpt lat="45.84511" lon="1.19088">
        <ele>345.2</ele>
        <time>2024-10-21T08:51:02Z</time>
      </trkpt>
      <trkpt lat="45.8451" lon="1.19087">
        <ele>345.2</ele>
        <time>2024-10-21T08:51:03Z</time>
      </trkpt>
      <trkpt lat="45.84509" lon="1.19085">
        <ele>345.2</ele>
        <time>2024-10-21T08:51:04Z</time>
      </trkpt>
      <trkpt lat="45.84508" lon="1.19084">
        <ele>345.2</ele>
        <time>2024-10-21T08:51:05Z</time>
      </trkpt>
      <trkpt lat="45.84507" lon="1.19083">
        <ele>345.2</ele>
        <time>2024-10-21T08:51:06Z</time>
      </trkpt>
      <trkpt lat="45.84507" lon="1.19082">
        <ele>345.1</ele>
        <time>2024-10-21T08:51:07Z</time>
      </trkpt>
      <trkpt lat="45.84506" lon="1.1908">
        <ele>345.1</ele>
        <time>2024-10-21T08:51:08Z</time>
      </trkpt>
      <trkpt lat="45.84506" lon="1.19078">
        <ele>345.1</ele>
        <time>2024-10-21T08:51:09Z</time>
      </trkpt>
      <trkpt lat="45.84508" lon="1.19077">
        <ele>345.1</ele>
        <time>2024-10-21T08:51:10Z</time>
      </trkpt>
      <trkpt lat="45.84509" lon="1.19077">
        <ele>345.1</ele>
        <time>2024-10-21T08:51:11Z</time>
      </trkpt>
      <trkpt lat="45.8451" lon="1.19076">
        <ele>345.1</ele>
        <time>2024-10-21T08:51:12Z</time>
      </trkpt>
      <trkpt lat="45.8451" lon="1.19075">
        <ele>345</ele>
        <time>2024-10-21T08:51:13Z</time>
      </trkpt>
      <trkpt lat="45.8451" lon="1.19073">
        <ele>345</ele>
        <time>2024-10-21T08:51:14Z</time>
      </trkpt>
      <trkpt lat="45.84508" lon="1.19071">
        <ele>345</ele>
        <time>2024-10-21T08:51:15Z</time>
      </trkpt>
      <trkpt lat="45.84508" lon="1.1907">
        <ele>345</ele>
        <time>2024-10-21T08:51:16Z</time>
      </trkpt>
      <trkpt lat="45.84507" lon="1.19069">
        <ele>345</ele>
        <time>2024-10-21T08:51:17Z</time>
      </trkpt>
      <trkpt lat="45.84506" lon="1.19067">
        <ele>345</ele>
        <time>2024-10-21T08:51:18Z</time>
      </trkpt>
      <trkpt lat="45.84505" lon="1.19066">
        <ele>344.9</ele>
        <time>2024-10-21T08:51:19Z</time>
      </trkpt>
      <trkpt lat="45.84504" lon="1.19064">
        <ele>344.9</ele>
        <time>2024-10-21T08:51:20Z</time>
      </trkpt>
      <trkpt lat="45.84503" lon="1.19063">
        <ele>344.9</ele>
        <time>2024-10-21T08:51:21Z</time>
      </trkpt>
      <trkpt lat="45.84502" lon="1.19062">
        <ele>344.9</ele>
        <time>2024-10-21T08:51:22Z</time>
      </trkpt>
      <trkpt lat="45.845" lon="1.19061">
        <ele>344.9</ele>
        <time>2024-10-21T08:51:23Z</time>
      </trkpt>
      <trkpt lat="45.84499" lon="1.1906">
        <ele>344.8</ele>
        <time>2024-10-21T08:51:24Z</time>
      </trkpt>
      <trkpt lat="45.84498" lon="1.19058">
        <ele>344.8</ele>
        <time>2024-10-21T08:51:25Z</time>
      </trkpt>
      <trkpt lat="45.84497" lon="1.19057">
        <ele>344.8</ele>
        <time>2024-10-21T08:51:26Z</time>
      </trkpt>
      <trkpt lat="45.84497" lon="1.19054">
        <ele>344.8</ele>
        <time>2024-10-21T08:51:27Z</time>
      </trkpt>
      <trkpt lat="45.84497" lon="1.19053">
        <ele>344.8</ele>
        <time>2024-10-21T08:51:28Z</time>
      </trkpt>
      <trkpt lat="45.84497" lon="1.19051">
        <ele>344.8</ele>
        <time>2024-10-21T08:51:29Z</time>
      </trkpt>
      <trkpt lat="45.84498" lon="1.19049">
        <ele>344.6</ele>
        <time>2024-10-21T08:51:30Z</time>
      </trkpt>
      <trkpt lat="45.84498" lon="1.19047">
        <ele>344.6</ele>
        <time>2024-10-21T08:51:31Z</time>
      </trkpt>
      <trkpt lat="45.84499" lon="1.19046">
        <ele>344.6</ele>
        <time>2024-10-21T08:51:32Z</time>
      </trkpt>
      <trkpt lat="45.84499" lon="1.19044">
        <ele>344.6</ele>
        <time>2024-10-21T08:51:33Z</time>
      </trkpt>
      <trkpt lat="45.84499" lon="1.19043">
        <ele>344.5</ele>
        <time>2024-10-21T08:51:34Z</time>
      </trkpt>
      <trkpt lat="45.84499" lon="1.19042">
        <ele>344.5</ele>
        <time>2024-10-21T08:51:35Z</time>
      </trkpt>
      <trkpt lat="45.845" lon="1.19041">
        <ele>344.5</ele>
        <time>2024-10-21T08:51:36Z</time>
      </trkpt>
      <trkpt lat="45.845" lon="1.19041">
        <ele>344.5</ele>
        <time>2024-10-21T08:51:37Z</time>
      </trkpt>
      <trkpt lat="45.84501" lon="1.1904">
        <ele>344.5</ele>
        <time>2024-10-21T08:51:38Z</time>
      </trkpt>
      <trkpt lat="45.84501" lon="1.1904">
        <ele>344.4</ele>
        <time>2024-10-21T08:51:39Z</time>
      </trkpt>
      <trkpt lat="45.84501" lon="1.1904">
        <ele>344.4</ele>
        <time>2024-10-21T08:51:40Z</time>
      </trkpt>
      <trkpt lat="45.84502" lon="1.19039">
        <ele>344.4</ele>
        <time>2024-10-21T08:51:41Z</time>
      </trkpt>
      <trkpt lat="45.84502" lon="1.19039">
        <ele>344.4</ele>
        <time>2024-10-21T08:51:42Z</time>
      </trkpt>
      <trkpt lat="45.84505" lon="1.19037">
        <ele>344.3</ele>
        <time>2024-10-21T08:51:43Z</time>
      </trkpt>
      <trkpt lat="45.84507" lon="1.19036">
        <ele>344.2</ele>
        <time>2024-10-21T08:51:44Z</time>
      </trkpt>
      <trkpt lat="45.84508" lon="1.19035">
        <ele>344.2</ele>
        <time>2024-10-21T08:51:45Z</time>
      </trkpt>
      <trkpt lat="45.84509" lon="1.19035">
        <ele>344.2</ele>
        <time>2024-10-21T08:51:46Z</time>
      </trkpt>
      <trkpt lat="45.8451" lon="1.19034">
        <ele>344.2</ele>
        <time>2024-10-21T08:51:47Z</time>
      </trkpt>
      <trkpt lat="45.84511" lon="1.19034">
        <ele>344.1</ele>
        <time>2024-10-21T08:51:48Z</time>
      </trkpt>
      <trkpt lat="45.84513" lon="1.19032">
        <ele>344.1</ele>
        <time>2024-10-21T08:51:49Z</time>
      </trkpt>
      <trkpt lat="45.84514" lon="1.19031">
        <ele>344.1</ele>
        <time>2024-10-21T08:51:50Z</time>
      </trkpt>
      <trkpt lat="45.84515" lon="1.19031">
        <ele>344</ele>
        <time>2024-10-21T08:51:51Z</time>
      </trkpt>
      <trkpt lat="45.84516" lon="1.1903">
        <ele>344</ele>
        <time>2024-10-21T08:51:52Z</time>
      </trkpt>
      <trkpt lat="45.84516" lon="1.1903">
        <ele>344</ele>
        <time>2024-10-21T08:51:53Z</time>
      </trkpt>
      <trkpt lat="45.84516" lon="1.1903">
        <ele>344</ele>
        <time>2024-10-21T08:51:54Z</time>
      </trkpt>
      <trkpt lat="45.84516" lon="1.19031">
        <ele>344</ele>
        <time>2024-10-21T08:51:55Z</time>
      </trkpt>
      <trkpt lat="45.84515" lon="1.19032">
        <ele>343.9</ele>
        <time>2024-10-21T08:51:56Z</time>
      </trkpt>
      <trkpt lat="45.84515" lon="1.19032">
        <ele>343.9</ele>
        <time>2024-10-21T08:51:57Z</time>
      </trkpt>
      <trkpt lat="45.84515" lon="1.19032">
        <ele>343.9</ele>
        <time>2024-10-21T08:51:58Z</time>
      </trkpt>
      <trkpt lat="45.84516" lon="1.19032">
        <ele>343.9</ele>
        <time>2024-10-21T08:51:59Z</time>
      </trkpt>
      <trkpt lat="45.84516" lon="1.19032">
        <ele>343.9</ele>
        <time>2024-10-21T08:52:00Z</time>
      </trkpt>
      <trkpt lat="45.84516" lon="1.19031">
        <ele>343.9</ele>
        <time>2024-10-21T08:52:01Z</time>
      </trkpt>
      <trkpt lat="45.84516" lon="1.1903">
        <ele>343.9</ele>
        <time>2024-10-21T08:52:02Z</time>
      </trkpt>
      <trkpt lat="45.84517" lon="1.1903">
        <ele>343.9</ele>
        <time>2024-10-21T08:52:03Z</time>
      </trkpt>
      <trkpt lat="45.84517" lon="1.19029">
        <ele>343.9</ele>
        <time>2024-10-21T08:52:04Z</time>
      </trkpt>
      <trkpt lat="45.84521" lon="1.19028">
        <ele>343.8</ele>
        <time>2024-10-21T08:52:05Z</time>
      </trkpt>
      <trkpt lat="45.84523" lon="1.19026">
        <ele>343.7</ele>
        <time>2024-10-21T08:52:06Z</time>
      </trkpt>
      <trkpt lat="45.84524" lon="1.19025">
        <ele>343.7</ele>
        <time>2024-10-21T08:52:07Z</time>
      </trkpt>
      <trkpt lat="45.84526" lon="1.19024">
        <ele>343.6</ele>
        <time>2024-10-21T08:52:08Z</time>
      </trkpt>
      <trkpt lat="45.84526" lon="1.19024">
        <ele>343.6</ele>
        <time>2024-10-21T08:52:09Z</time>
      </trkpt>
      <trkpt lat="45.84527" lon="1.19023">
        <ele>343.6</ele>
        <time>2024-10-21T08:52:10Z</time>
      </trkpt>
      <trkpt lat="45.84529" lon="1.19019">
        <ele>343.5</ele>
        <time>2024-10-21T08:52:11Z</time>
      </trkpt>
      <trkpt lat="45.84529" lon="1.19018">
        <ele>343.5</ele>
        <time>2024-10-21T08:52:12Z</time>
      </trkpt>
      <trkpt lat="45.8453" lon="1.19017">
        <ele>343.4</ele>
        <time>2024-10-21T08:52:13Z</time>
      </trkpt>
      <trkpt lat="45.84531" lon="1.19015">
        <ele>343.4</ele>
        <time>2024-10-21T08:52:14Z</time>
      </trkpt>
      <trkpt lat="45.84533" lon="1.19013">
        <ele>343.3</ele>
        <time>2024-10-21T08:52:15Z</time>
      </trkpt>
      <trkpt lat="45.84534" lon="1.19012">
        <ele>343.3</ele>
        <time>2024-10-21T08:52:16Z</time>
      </trkpt>
      <trkpt lat="45.84536" lon="1.19012">
        <ele>343.2</ele>
        <time>2024-10-21T08:52:17Z</time>
      </trkpt>
      <trkpt lat="45.84537" lon="1.19011">
        <ele>343.2</ele>
        <time>2024-10-21T08:52:18Z</time>
      </trkpt>
      <trkpt lat="45.84538" lon="1.19011">
        <ele>343.2</ele>
        <time>2024-10-21T08:52:19Z</time>
      </trkpt>
      <trkpt lat="45.84539" lon="1.1901">
        <ele>343.1</ele>
        <time>2024-10-21T08:52:20Z</time>
      </trkpt>
      <trkpt lat="45.8454" lon="1.19009">
        <ele>343.1</ele>
        <time>2024-10-21T08:52:21Z</time>
      </trkpt>
      <trkpt lat="45.84542" lon="1.19008">
        <ele>343.1</ele>
        <time>2024-10-21T08:52:22Z</time>
      </trkpt>
      <trkpt lat="45.84543" lon="1.19007">
        <ele>343</ele>
        <time>2024-10-21T08:52:23Z</time>
      </trkpt>
      <trkpt lat="45.84545" lon="1.19005">
        <ele>343</ele>
        <time>2024-10-21T08:52:24Z</time>
      </trkpt>
      <trkpt lat="45.84546" lon="1.19004">
        <ele>342.9</ele>
        <time>2024-10-21T08:52:25Z</time>
      </trkpt>
      <trkpt lat="45.84546" lon="1.19004">
        <ele>342.9</ele>
        <time>2024-10-21T08:52:26Z</time>
      </trkpt>
      <trkpt lat="45.84547" lon="1.19002">
        <ele>342.9</ele>
        <time>2024-10-21T08:52:27Z</time>
      </trkpt>
      <trkpt lat="45.84548" lon="1.19001">
        <ele>342.8</ele>
        <time>2024-10-21T08:52:28Z</time>
      </trkpt>
      <trkpt lat="45.8455" lon="1.19">
        <ele>342.8</ele>
        <time>2024-10-21T08:52:29Z</time>
      </trkpt>
      <trkpt lat="45.84552" lon="1.18998">
        <ele>342.7</ele>
        <time>2024-10-21T08:52:30Z</time>
      </trkpt>
      <trkpt lat="45.84553" lon="1.18997">
        <ele>342.7</ele>
        <time>2024-10-21T08:52:31Z</time>
      </trkpt>
      <trkpt lat="45.84555" lon="1.18994">
        <ele>342.6</ele>
        <time>2024-10-21T08:52:33Z</time>
      </trkpt>
      <trkpt lat="45.84556" lon="1.18992">
        <ele>342.6</ele>
        <time>2024-10-21T08:52:35Z</time>
      </trkpt>
      <trkpt lat="45.84557" lon="1.18991">
        <ele>342.5</ele>
        <time>2024-10-21T08:52:36Z</time>
      </trkpt>
      <trkpt lat="45.84557" lon="1.18988">
        <ele>342.5</ele>
        <time>2024-10-21T08:52:37Z</time>
      </trkpt>
      <trkpt lat="45.84557" lon="1.18986">
        <ele>342.4</ele>
        <time>2024-10-21T08:52:38Z</time>
      </trkpt>
      <trkpt lat="45.84557" lon="1.18985">
        <ele>342.4</ele>
        <time>2024-10-21T08:52:39Z</time>
      </trkpt>
      <trkpt lat="45.84557" lon="1.18983">
        <ele>342.4</ele>
        <time>2024-10-21T08:52:40Z</time>
      </trkpt>
      <trkpt lat="45.84556" lon="1.18981">
        <ele>342.3</ele>
        <time>2024-10-21T08:52:41Z</time>
      </trkpt>
      <trkpt lat="45.84555" lon="1.18978">
        <ele>342.3</ele>
        <time>2024-10-21T08:52:42Z</time>
      </trkpt>
      <trkpt lat="45.84554" lon="1.18977">
        <ele>342.2</ele>
        <time>2024-10-21T08:52:43Z</time>
      </trkpt>
      <trkpt lat="45.84553" lon="1.18976">
        <ele>342.2</ele>
        <time>2024-10-21T08:52:44Z</time>
      </trkpt>
      <trkpt lat="45.84552" lon="1.18975">
        <ele>342.2</ele>
        <time>2024-10-21T08:52:45Z</time>
      </trkpt>
      <trkpt lat="45.84551" lon="1.18974">
        <ele>342.1</ele>
        <time>2024-10-21T08:52:46Z</time>
      </trkpt>
      <trkpt lat="45.84549" lon="1.18972">
        <ele>342.1</ele>
        <time>2024-10-21T08:52:47Z</time>
      </trkpt>
      <trkpt lat="45.84548" lon="1.18972">
        <ele>342.1</ele>
        <time>2024-10-21T08:52:48Z</time>
      </trkpt>
      <trkpt lat="45.84547" lon="1.18971">
        <ele>342.1</ele>
        <time>2024-10-21T08:52:49Z</time>
      </trkpt>
      <trkpt lat="45.84546" lon="1.1897">
        <ele>342</ele>
        <time>2024-10-21T08:52:50Z</time>
      </trkpt>
      <trkpt lat="45.84544" lon="1.18969">
        <ele>342</ele>
        <time>2024-10-21T08:52:51Z</time>
      </trkpt>
      <trkpt lat="45.84543" lon="1.18967">
        <ele>342</ele>
        <time>2024-10-21T08:52:52Z</time>
      </trkpt>
      <trkpt lat="45.84542" lon="1.18967">
        <ele>342</ele>
        <time>2024-10-21T08:52:53Z</time>
      </trkpt>
      <trkpt lat="45.84541" lon="1.18966">
        <ele>342</ele>
        <time>2024-10-21T08:52:54Z</time>
      </trkpt>
      <trkpt lat="45.8454" lon="1.18965">
        <ele>341.9</ele>
        <time>2024-10-21T08:52:55Z</time>
      </trkpt>
      <trkpt lat="45.84539" lon="1.18963">
        <ele>341.9</ele>
        <time>2024-10-21T08:52:56Z</time>
      </trkpt>
      <trkpt lat="45.84537" lon="1.18961">
        <ele>341.9</ele>
        <time>2024-10-21T08:52:57Z</time>
      </trkpt>
      <trkpt lat="45.84536" lon="1.1896">
        <ele>341.9</ele>
        <time>2024-10-21T08:52:58Z</time>
      </trkpt>
      <trkpt lat="45.84536" lon="1.18959">
        <ele>341.9</ele>
        <time>2024-10-21T08:52:59Z</time>
      </trkpt>
      <trkpt lat="45.84535" lon="1.18958">
        <ele>341.8</ele>
        <time>2024-10-21T08:53:00Z</time>
      </trkpt>
      <trkpt lat="45.84534" lon="1.18956">
        <ele>341.8</ele>
        <time>2024-10-21T08:53:01Z</time>
      </trkpt>
      <trkpt lat="45.84534" lon="1.18954">
        <ele>341.8</ele>
        <time>2024-10-21T08:53:02Z</time>
      </trkpt>
      <trkpt lat="45.84534" lon="1.18952">
        <ele>341.8</ele>
        <time>2024-10-21T08:53:03Z</time>
      </trkpt>
      <trkpt lat="45.84534" lon="1.1895">
        <ele>341.7</ele>
        <time>2024-10-21T08:53:04Z</time>
      </trkpt>
      <trkpt lat="45.84533" lon="1.18948">
        <ele>341.7</ele>
        <time>2024-10-21T08:53:05Z</time>
      </trkpt>
      <trkpt lat="45.84533" lon="1.18946">
        <ele>341.7</ele>
        <time>2024-10-21T08:53:06Z</time>
      </trkpt>
      <trkpt lat="45.84533" lon="1.18944">
        <ele>341.7</ele>
        <time>2024-10-21T08:53:07Z</time>
      </trkpt>
      <trkpt lat="45.84533" lon="1.18942">
        <ele>341.7</ele>
        <time>2024-10-21T08:53:08Z</time>
      </trkpt>
      <trkpt lat="45.84534" lon="1.1894">
        <ele>341.6</ele>
        <time>2024-10-21T08:53:09Z</time>
      </trkpt>
      <trkpt lat="45.84534" lon="1.18938">
        <ele>341.6</ele>
        <time>2024-10-21T08:53:10Z</time>
      </trkpt>
      <trkpt lat="45.84533" lon="1.18936">
        <ele>341.6</ele>
        <time>2024-10-21T08:53:11Z</time>
      </trkpt>
      <trkpt lat="45.84533" lon="1.18936">
        <ele>341.6</ele>
        <time>2024-10-21T08:53:12Z</time>
      </trkpt>
      <trkpt lat="45.8453" lon="1.18936">
        <ele>341.6</ele>
        <time>2024-10-21T08:53:13Z</time>
      </trkpt>
      <trkpt lat="45.84529" lon="1.18937">
        <ele>341.5</ele>
        <time>2024-10-21T08:53:14Z</time>
      </trkpt>
      <trkpt lat="45.84529" lon="1.18937">
        <ele>341.5</ele>
        <time>2024-10-21T08:53:15Z</time>
      </trkpt>
      <trkpt lat="45.84527" lon="1.18938">
        <ele>341.5</ele>
        <time>2024-10-21T08:53:16Z</time>
      </trkpt>
      <trkpt lat="45.84526" lon="1.18939">
        <ele>341.5</ele>
        <time>2024-10-21T08:53:17Z</time>
      </trkpt>
      <trkpt lat="45.84524" lon="1.18939">
        <ele>341.5</ele>
        <time>2024-10-21T08:53:18Z</time>
      </trkpt>
      <trkpt lat="45.84523" lon="1.1894">
        <ele>341.4</ele>
        <time>2024-10-21T08:53:19Z</time>
      </trkpt>
      <trkpt lat="45.84522" lon="1.18941">
        <ele>341.4</ele>
        <time>2024-10-21T08:53:20Z</time>
      </trkpt>
      <trkpt lat="45.8452" lon="1.18941">
        <ele>341.4</ele>
        <time>2024-10-21T08:53:21Z</time>
      </trkpt>
      <trkpt lat="45.84518" lon="1.18942">
        <ele>341.4</ele>
        <time>2024-10-21T08:53:22Z</time>
      </trkpt>
      <trkpt lat="45.84517" lon="1.18942">
        <ele>341.3</ele>
        <time>2024-10-21T08:53:23Z</time>
      </trkpt>
      <trkpt lat="45.84516" lon="1.18942">
        <ele>341.3</ele>
        <time>2024-10-21T08:53:24Z</time>
      </trkpt>
      <trkpt lat="45.84515" lon="1.18943">
        <ele>341.3</ele>
        <time>2024-10-21T08:53:25Z</time>
      </trkpt>
      <trkpt lat="45.84513" lon="1.18943">
        <ele>341.3</ele>
        <time>2024-10-21T08:53:26Z</time>
      </trkpt>
      <trkpt lat="45.84512" lon="1.18943">
        <ele>341.3</ele>
        <time>2024-10-21T08:53:27Z</time>
      </trkpt>
      <trkpt lat="45.84511" lon="1.18944">
        <ele>341.2</ele>
        <time>2024-10-21T08:53:28Z</time>
      </trkpt>
      <trkpt lat="45.8451" lon="1.18944">
        <ele>341.2</ele>
        <time>2024-10-21T08:53:29Z</time>
      </trkpt>
      <trkpt lat="45.84508" lon="1.18944">
        <ele>341.2</ele>
        <time>2024-10-21T08:53:30Z</time>
      </trkpt>
      <trkpt lat="45.84507" lon="1.18944">
        <ele>341.2</ele>
        <time>2024-10-21T08:53:31Z</time>
      </trkpt>
      <trkpt lat="45.84506" lon="1.18944">
        <ele>341.2</ele>
        <time>2024-10-21T08:53:32Z</time>
      </trkpt>
      <trkpt lat="45.84504" lon="1.18944">
        <ele>341.1</ele>
        <time>2024-10-21T08:53:33Z</time>
      </trkpt>
      <trkpt lat="45.84503" lon="1.18944">
        <ele>341.1</ele>
        <time>2024-10-21T08:53:34Z</time>
      </trkpt>
      <trkpt lat="45.84502" lon="1.18944">
        <ele>341.1</ele>
        <time>2024-10-21T08:53:35Z</time>
      </trkpt>
      <trkpt lat="45.845" lon="1.18943">
        <ele>341.1</ele>
        <time>2024-10-21T08:53:36Z</time>
      </trkpt>
      <trkpt lat="45.84499" lon="1.18943">
        <ele>341.1</ele>
        <time>2024-10-21T08:53:37Z</time>
      </trkpt>
      <trkpt lat="45.84498" lon="1.18942">
        <ele>341</ele>
        <time>2024-10-21T08:53:38Z</time>
      </trkpt>
      <trkpt lat="45.84497" lon="1.18941">
        <ele>341</ele>
        <time>2024-10-21T08:53:39Z</time>
      </trkpt>
      <trkpt lat="45.84496" lon="1.18939">
        <ele>341</ele>
        <time>2024-10-21T08:53:40Z</time>
      </trkpt>
      <trkpt lat="45.84495" lon="1.18936">
        <ele>340.9</ele>
        <time>2024-10-21T08:53:41Z</time>
      </trkpt>
      <trkpt lat="45.84495" lon="1.18934">
        <ele>340.9</ele>
        <time>2024-10-21T08:53:42Z</time>
      </trkpt>
      <trkpt lat="45.84494" lon="1.18932">
        <ele>340.8</ele>
        <time>2024-10-21T08:53:43Z</time>
      </trkpt>
      <trkpt lat="45.84494" lon="1.1893">
        <ele>340.8</ele>
        <time>2024-10-21T08:53:44Z</time>
      </trkpt>
      <trkpt lat="45.84493" lon="1.18928">
        <ele>340.7</ele>
        <time>2024-10-21T08:53:45Z</time>
      </trkpt>
      <trkpt lat="45.84493" lon="1.18925">
        <ele>340.7</ele>
        <time>2024-10-21T08:53:46Z</time>
      </trkpt>
      <trkpt lat="45.84493" lon="1.18922">
        <ele>340.6</ele>
        <time>2024-10-21T08:53:47Z</time>
      </trkpt>
      <trkpt lat="45.84493" lon="1.18921">
        <ele>340.6</ele>
        <time>2024-10-21T08:53:48Z</time>
      </trkpt>
      <trkpt lat="45.84493" lon="1.1892">
        <ele>340.6</ele>
        <time>2024-10-21T08:53:49Z</time>
      </trkpt>
      <trkpt lat="45.84493" lon="1.18918">
        <ele>340.5</ele>
        <time>2024-10-21T08:53:50Z</time>
      </trkpt>
      <trkpt lat="45.84494" lon="1.18916">
        <ele>340.5</ele>
        <time>2024-10-21T08:53:51Z</time>
      </trkpt>
      <trkpt lat="45.84494" lon="1.18915">
        <ele>340.4</ele>
        <time>2024-10-21T08:53:52Z</time>
      </trkpt>
      <trkpt lat="45.84494" lon="1.18913">
        <ele>340.4</ele>
        <time>2024-10-21T08:53:53Z</time>
      </trkpt>
      <trkpt lat="45.84495" lon="1.18911">
        <ele>340.4</ele>
        <time>2024-10-21T08:53:54Z</time>
      </trkpt>
      <trkpt lat="45.84495" lon="1.1891">
        <ele>340.3</ele>
        <time>2024-10-21T08:53:55Z</time>
      </trkpt>
      <trkpt lat="45.84495" lon="1.18909">
        <ele>340.3</ele>
        <time>2024-10-21T08:53:56Z</time>
      </trkpt>
      <trkpt lat="45.84495" lon="1.18908">
        <ele>340.3</ele>
        <time>2024-10-21T08:53:57Z</time>
      </trkpt>
      <trkpt lat="45.84495" lon="1.18907">
        <ele>340.3</ele>
        <time>2024-10-21T08:53:58Z</time>
      </trkpt>
      <trkpt lat="45.84495" lon="1.18907">
        <ele>340.3</ele>
        <time>2024-10-21T08:53:59Z</time>
      </trkpt>
      <trkpt lat="45.84495" lon="1.18906">
        <ele>340.3</ele>
        <time>2024-10-21T08:54:00Z</time>
      </trkpt>
      <trkpt lat="45.84495" lon="1.18905">
        <ele>340.3</ele>
        <time>2024-10-21T08:54:01Z</time>
      </trkpt>
      <trkpt lat="45.84495" lon="1.18901">
        <ele>340.2</ele>
        <time>2024-10-21T08:54:02Z</time>
      </trkpt>
      <trkpt lat="45.84496" lon="1.18897">
        <ele>340.1</ele>
        <time>2024-10-21T08:54:03Z</time>
      </trkpt>
      <trkpt lat="45.84497" lon="1.18892">
        <ele>340.1</ele>
        <time>2024-10-21T08:54:04Z</time>
      </trkpt>
      <trkpt lat="45.84497" lon="1.18892">
        <ele>340.1</ele>
        <time>2024-10-21T08:54:05Z</time>
      </trkpt>
      <trkpt lat="45.84499" lon="1.1889">
        <ele>340</ele>
        <time>2024-10-21T08:54:06Z</time>
      </trkpt>
      <trkpt lat="45.845" lon="1.18889">
        <ele>340</ele>
        <time>2024-10-21T08:54:07Z</time>
      </trkpt>
      <trkpt lat="45.84501" lon="1.18887">
        <ele>339.9</ele>
        <time>2024-10-21T08:54:08Z</time>
      </trkpt>
      <trkpt lat="45.84501" lon="1.18886">
        <ele>339.9</ele>
        <time>2024-10-21T08:54:09Z</time>
      </trkpt>
      <trkpt lat="45.84501" lon="1.18885">
        <ele>339.9</ele>
        <time>2024-10-21T08:54:10Z</time>
      </trkpt>
      <trkpt lat="45.84501" lon="1.18882">
        <ele>339.9</ele>
        <time>2024-10-21T08:54:11Z</time>
      </trkpt>
      <trkpt lat="45.84501" lon="1.18881">
        <ele>339.8</ele>
        <time>2024-10-21T08:54:12Z</time>
      </trkpt>
      <trkpt lat="45.84499" lon="1.18878">
        <ele>339.8</ele>
        <time>2024-10-21T08:54:13Z</time>
      </trkpt>
      <trkpt lat="45.84498" lon="1.18877">
        <ele>339.8</ele>
        <time>2024-10-21T08:54:14Z</time>
      </trkpt>
      <trkpt lat="45.84498" lon="1.18877">
        <ele>339.8</ele>
        <time>2024-10-21T08:54:15Z</time>
      </trkpt>
      <trkpt lat="45.84495" lon="1.18876">
        <ele>339.7</ele>
        <time>2024-10-21T08:54:16Z</time>
      </trkpt>
      <trkpt lat="45.84495" lon="1.18876">
        <ele>339.7</ele>
        <time>2024-10-21T08:54:17Z</time>
      </trkpt>
      <trkpt lat="45.84493" lon="1.18875">
        <ele>339.7</ele>
        <time>2024-10-21T08:54:18Z</time>
      </trkpt>
      <trkpt lat="45.84493" lon="1.18873">
        <ele>339.7</ele>
        <time>2024-10-21T08:54:19Z</time>
      </trkpt>
      <trkpt lat="45.84493" lon="1.18871">
        <ele>339.7</ele>
        <time>2024-10-21T08:54:20Z</time>
      </trkpt>
      <trkpt lat="45.84493" lon="1.1887">
        <ele>339.7</ele>
        <time>2024-10-21T08:54:21Z</time>
      </trkpt>
      <trkpt lat="45.84493" lon="1.1887">
        <ele>339.8</ele>
        <time>2024-10-21T08:54:22Z</time>
      </trkpt>
      <trkpt lat="45.84492" lon="1.1887">
        <ele>339.8</ele>
        <time>2024-10-21T08:54:23Z</time>
      </trkpt>
      <trkpt lat="45.84489" lon="1.18869">
        <ele>339.8</ele>
        <time>2024-10-21T08:54:24Z</time>
      </trkpt>
      <trkpt lat="45.84488" lon="1.18869">
        <ele>339.8</ele>
        <time>2024-10-21T08:54:25Z</time>
      </trkpt>
      <trkpt lat="45.84486" lon="1.18869">
        <ele>339.8</ele>
        <time>2024-10-21T08:54:26Z</time>
      </trkpt>
      <trkpt lat="45.84485" lon="1.18869">
        <ele>339.9</ele>
        <time>2024-10-21T08:54:27Z</time>
      </trkpt>
      <trkpt lat="45.84483" lon="1.18869">
        <ele>339.9</ele>
        <time>2024-10-21T08:54:28Z</time>
      </trkpt>
      <trkpt lat="45.84482" lon="1.18868">
        <ele>339.9</ele>
        <time>2024-10-21T08:54:29Z</time>
      </trkpt>
      <trkpt lat="45.8448" lon="1.18868">
        <ele>339.9</ele>
        <time>2024-10-21T08:54:30Z</time>
      </trkpt>
      <trkpt lat="45.84478" lon="1.18867">
        <ele>339.9</ele>
        <time>2024-10-21T08:54:31Z</time>
      </trkpt>
      <trkpt lat="45.84476" lon="1.18867">
        <ele>340</ele>
        <time>2024-10-21T08:54:32Z</time>
      </trkpt>
      <trkpt lat="45.84476" lon="1.18866">
        <ele>340</ele>
        <time>2024-10-21T08:54:33Z</time>
      </trkpt>
      <trkpt lat="45.84475" lon="1.18866">
        <ele>340.1</ele>
        <time>2024-10-21T08:54:34Z</time>
      </trkpt>
      <trkpt lat="45.84473" lon="1.18865">
        <ele>340.1</ele>
        <time>2024-10-21T08:54:35Z</time>
      </trkpt>
      <trkpt lat="45.84471" lon="1.18865">
        <ele>340.2</ele>
        <time>2024-10-21T08:54:36Z</time>
      </trkpt>
      <trkpt lat="45.8447" lon="1.18865">
        <ele>340.3</ele>
        <time>2024-10-21T08:54:37Z</time>
      </trkpt>
      <trkpt lat="45.84469" lon="1.18864">
        <ele>340.3</ele>
        <time>2024-10-21T08:54:38Z</time>
      </trkpt>
      <trkpt lat="45.84468" lon="1.18863">
        <ele>340.4</ele>
        <time>2024-10-21T08:54:39Z</time>
      </trkpt>
      <trkpt lat="45.84466" lon="1.18861">
        <ele>340.5</ele>
        <time>2024-10-21T08:54:40Z</time>
      </trkpt>
      <trkpt lat="45.84466" lon="1.1886">
        <ele>340.5</ele>
        <time>2024-10-21T08:54:41Z</time>
      </trkpt>
      <trkpt lat="45.84465" lon="1.1886">
        <ele>340.6</ele>
        <time>2024-10-21T08:54:42Z</time>
      </trkpt>
      <trkpt lat="45.84464" lon="1.18857">
        <ele>340.6</ele>
        <time>2024-10-21T08:54:43Z</time>
      </trkpt>
      <trkpt lat="45.84463" lon="1.18856">
        <ele>340.6</ele>
        <time>2024-10-21T08:54:44Z</time>
      </trkpt>
      <trkpt lat="45.84463" lon="1.18855">
        <ele>340.6</ele>
        <time>2024-10-21T08:54:45Z</time>
      </trkpt>
      <trkpt lat="45.84461" lon="1.18852">
        <ele>340.5</ele>
        <time>2024-10-21T08:54:46Z</time>
      </trkpt>
      <trkpt lat="45.84461" lon="1.18851">
        <ele>340.5</ele>
        <time>2024-10-21T08:54:47Z</time>
      </trkpt>
      <trkpt lat="45.84461" lon="1.1885">
        <ele>340.5</ele>
        <time>2024-10-21T08:54:48Z</time>
      </trkpt>
      <trkpt lat="45.84459" lon="1.18848">
        <ele>340.5</ele>
        <time>2024-10-21T08:54:49Z</time>
      </trkpt>
      <trkpt lat="45.84458" lon="1.18848">
        <ele>340.4</ele>
        <time>2024-10-21T08:54:50Z</time>
      </trkpt>
      <trkpt lat="45.84456" lon="1.18847">
        <ele>340.3</ele>
        <time>2024-10-21T08:54:51Z</time>
      </trkpt>
      <trkpt lat="45.84456" lon="1.18846">
        <ele>340.3</ele>
        <time>2024-10-21T08:54:52Z</time>
      </trkpt>
      <trkpt lat="45.84455" lon="1.18846">
        <ele>340.3</ele>
        <time>2024-10-21T08:54:53Z</time>
      </trkpt>
      <trkpt lat="45.84454" lon="1.18846">
        <ele>340.3</ele>
        <time>2024-10-21T08:54:54Z</time>
      </trkpt>
      <trkpt lat="45.84453" lon="1.18846">
        <ele>340.2</ele>
        <time>2024-10-21T08:54:55Z</time>
      </trkpt>
      <trkpt lat="45.84451" lon="1.18846">
        <ele>340.1</ele>
        <time>2024-10-21T08:54:56Z</time>
      </trkpt>
      <trkpt lat="45.84451" lon="1.18846">
        <ele>340.1</ele>
        <time>2024-10-21T08:54:57Z</time>
      </trkpt>
      <trkpt lat="45.84449" lon="1.18847">
        <ele>340</ele>
        <time>2024-10-21T08:54:58Z</time>
      </trkpt>
      <trkpt lat="45.84448" lon="1.18848">
        <ele>339.9</ele>
        <time>2024-10-21T08:54:59Z</time>
      </trkpt>
      <trkpt lat="45.84447" lon="1.18848">
        <ele>339.9</ele>
        <time>2024-10-21T08:55:00Z</time>
      </trkpt>
      <trkpt lat="45.84444" lon="1.1885">
        <ele>340</ele>
        <time>2024-10-21T08:55:01Z</time>
      </trkpt>
      <trkpt lat="45.84443" lon="1.18851">
        <ele>340</ele>
        <time>2024-10-21T08:55:03Z</time>
      </trkpt>
      <trkpt lat="45.84441" lon="1.18852">
        <ele>340.1</ele>
        <time>2024-10-21T08:55:04Z</time>
      </trkpt>
      <trkpt lat="45.84439" lon="1.18852">
        <ele>340.2</ele>
        <time>2024-10-21T08:55:05Z</time>
      </trkpt>
      <trkpt lat="45.84438" lon="1.18852">
        <ele>340.2</ele>
        <time>2024-10-21T08:55:07Z</time>
      </trkpt>
      <trkpt lat="45.84436" lon="1.18852">
        <ele>340.3</ele>
        <time>2024-10-21T08:55:08Z</time>
      </trkpt>
      <trkpt lat="45.84435" lon="1.18851">
        <ele>340.4</ele>
        <time>2024-10-21T08:55:09Z</time>
      </trkpt>
      <trkpt lat="45.84434" lon="1.1885">
        <ele>340.4</ele>
        <time>2024-10-21T08:55:10Z</time>
      </trkpt>
      <trkpt lat="45.84432" lon="1.1885">
        <ele>340.5</ele>
        <time>2024-10-21T08:55:11Z</time>
      </trkpt>
      <trkpt lat="45.84431" lon="1.18849">
        <ele>340.5</ele>
        <time>2024-10-21T08:55:12Z</time>
      </trkpt>
      <trkpt lat="45.8443" lon="1.18849">
        <ele>340.6</ele>
        <time>2024-10-21T08:55:13Z</time>
      </trkpt>
      <trkpt lat="45.84428" lon="1.18848">
        <ele>340.7</ele>
        <time>2024-10-21T08:55:14Z</time>
      </trkpt>
      <trkpt lat="45.84426" lon="1.18847">
        <ele>340.8</ele>
        <time>2024-10-21T08:55:15Z</time>
      </trkpt>
      <trkpt lat="45.84424" lon="1.18847">
        <ele>340.8</ele>
        <time>2024-10-21T08:55:16Z</time>
      </trkpt>
      <trkpt lat="45.84423" lon="1.18846">
        <ele>340.9</ele>
        <time>2024-10-21T08:55:17Z</time>
      </trkpt>
      <trkpt lat="45.84423" lon="1.18846">
        <ele>340.9</ele>
        <time>2024-10-21T08:55:18Z</time>
      </trkpt>
      <trkpt lat="45.84421" lon="1.18845">
        <ele>341</ele>
        <time>2024-10-21T08:55:19Z</time>
      </trkpt>
      <trkpt lat="45.8442" lon="1.18845">
        <ele>341</ele>
        <time>2024-10-21T08:55:20Z</time>
      </trkpt>
      <trkpt lat="45.84419" lon="1.18844">
        <ele>341.1</ele>
        <time>2024-10-21T08:55:21Z</time>
      </trkpt>
      <trkpt lat="45.84419" lon="1.18843">
        <ele>341.1</ele>
        <time>2024-10-21T08:55:22Z</time>
      </trkpt>
      <trkpt lat="45.84418" lon="1.18842">
        <ele>341.2</ele>
        <time>2024-10-21T08:55:23Z</time>
      </trkpt>
      <trkpt lat="45.84416" lon="1.18841">
        <ele>341.3</ele>
        <time>2024-10-21T08:55:24Z</time>
      </trkpt>
      <trkpt lat="45.84416" lon="1.18842">
        <ele>341.3</ele>
        <time>2024-10-21T08:55:25Z</time>
      </trkpt>
      <trkpt lat="45.84417" lon="1.18844">
        <ele>341.4</ele>
        <time>2024-10-21T08:55:26Z</time>
      </trkpt>
      <trkpt lat="45.84418" lon="1.18842">
        <ele>341.5</ele>
        <time>2024-10-21T08:55:27Z</time>
      </trkpt>
      <trkpt lat="45.84417" lon="1.18841">
        <ele>341.5</ele>
        <time>2024-10-21T08:55:28Z</time>
      </trkpt>
      <trkpt lat="45.84416" lon="1.18839">
        <ele>341.6</ele>
        <time>2024-10-21T08:55:29Z</time>
      </trkpt>
      <trkpt lat="45.84414" lon="1.18838">
        <ele>341.7</ele>
        <time>2024-10-21T08:55:30Z</time>
      </trkpt>
      <trkpt lat="45.84415" lon="1.18834">
        <ele>341.8</ele>
        <time>2024-10-21T08:55:31Z</time>
      </trkpt>
      <trkpt lat="45.84416" lon="1.18832">
        <ele>341.9</ele>
        <time>2024-10-21T08:55:32Z</time>
      </trkpt>
      <trkpt lat="45.84418" lon="1.18834">
        <ele>341.9</ele>
        <time>2024-10-21T08:55:33Z</time>
      </trkpt>
      <trkpt lat="45.84418" lon="1.18837">
        <ele>342</ele>
        <time>2024-10-21T08:55:34Z</time>
      </trkpt>
      <trkpt lat="45.84415" lon="1.18839">
        <ele>342.1</ele>
        <time>2024-10-21T08:55:35Z</time>
      </trkpt>
      <trkpt lat="45.84414" lon="1.18839">
        <ele>342.2</ele>
        <time>2024-10-21T08:55:36Z</time>
      </trkpt>
      <trkpt lat="45.84412" lon="1.1884">
        <ele>342.3</ele>
        <time>2024-10-21T08:55:37Z</time>
      </trkpt>
      <trkpt lat="45.84411" lon="1.1884">
        <ele>342.4</ele>
        <time>2024-10-21T08:55:38Z</time>
      </trkpt>
      <trkpt lat="45.84408" lon="1.1884">
        <ele>342.5</ele>
        <time>2024-10-21T08:55:39Z</time>
      </trkpt>
      <trkpt lat="45.84406" lon="1.18841">
        <ele>342.6</ele>
        <time>2024-10-21T08:55:41Z</time>
      </trkpt>
      <trkpt lat="45.84405" lon="1.18841">
        <ele>342.7</ele>
        <time>2024-10-21T08:55:42Z</time>
      </trkpt>
      <trkpt lat="45.84403" lon="1.18841">
        <ele>342.7</ele>
        <time>2024-10-21T08:55:43Z</time>
      </trkpt>
      <trkpt lat="45.84402" lon="1.18841">
        <ele>342.8</ele>
        <time>2024-10-21T08:55:44Z</time>
      </trkpt>
      <trkpt lat="45.844" lon="1.18841">
        <ele>342.9</ele>
        <time>2024-10-21T08:55:45Z</time>
      </trkpt>
      <trkpt lat="45.84399" lon="1.18841">
        <ele>343</ele>
        <time>2024-10-21T08:55:46Z</time>
      </trkpt>
      <trkpt lat="45.84396" lon="1.1884">
        <ele>343.1</ele>
        <time>2024-10-21T08:55:47Z</time>
      </trkpt>
      <trkpt lat="45.84394" lon="1.1884">
        <ele>343.2</ele>
        <time>2024-10-21T08:55:49Z</time>
      </trkpt>
      <trkpt lat="45.84393" lon="1.18839">
        <ele>343.3</ele>
        <time>2024-10-21T08:55:50Z</time>
      </trkpt>
      <trkpt lat="45.84391" lon="1.18838">
        <ele>343.4</ele>
        <time>2024-10-21T08:55:51Z</time>
      </trkpt>
      <trkpt lat="45.8439" lon="1.18838">
        <ele>343.4</ele>
        <time>2024-10-21T08:55:52Z</time>
      </trkpt>
      <trkpt lat="45.84389" lon="1.18837">
        <ele>343.5</ele>
        <time>2024-10-21T08:55:53Z</time>
      </trkpt>
      <trkpt lat="45.84387" lon="1.18837">
        <ele>343.6</ele>
        <time>2024-10-21T08:55:54Z</time>
      </trkpt>
      <trkpt lat="45.84386" lon="1.18836">
        <ele>343.7</ele>
        <time>2024-10-21T08:55:55Z</time>
      </trkpt>
      <trkpt lat="45.84385" lon="1.18835">
        <ele>343.7</ele>
        <time>2024-10-21T08:55:56Z</time>
      </trkpt>
      <trkpt lat="45.84383" lon="1.18835">
        <ele>343.8</ele>
        <time>2024-10-21T08:55:57Z</time>
      </trkpt>
      <trkpt lat="45.84381" lon="1.18834">
        <ele>343.9</ele>
        <time>2024-10-21T08:55:58Z</time>
      </trkpt>
      <trkpt lat="45.8438" lon="1.18834">
        <ele>344</ele>
        <time>2024-10-21T08:55:59Z</time>
      </trkpt>
      <trkpt lat="45.8438" lon="1.18833">
        <ele>344</ele>
        <time>2024-10-21T08:56:00Z</time>
      </trkpt>
      <trkpt lat="45.84377" lon="1.18832">
        <ele>344.2</ele>
        <time>2024-10-21T08:56:01Z</time>
      </trkpt>
      <trkpt lat="45.84375" lon="1.18831">
        <ele>344.2</ele>
        <time>2024-10-21T08:56:03Z</time>
      </trkpt>
      <trkpt lat="45.84374" lon="1.18831">
        <ele>344.3</ele>
        <time>2024-10-21T08:56:04Z</time>
      </trkpt>
      <trkpt lat="45.84373" lon="1.18831">
        <ele>344.4</ele>
        <time>2024-10-21T08:56:05Z</time>
      </trkpt>
      <trkpt lat="45.84372" lon="1.18831">
        <ele>344.4</ele>
        <time>2024-10-21T08:56:06Z</time>
      </trkpt>
      <trkpt lat="45.8437" lon="1.18831">
        <ele>344.5</ele>
        <time>2024-10-21T08:56:07Z</time>
      </trkpt>
      <trkpt lat="45.84369" lon="1.18831">
        <ele>344.6</ele>
        <time>2024-10-21T08:56:08Z</time>
      </trkpt>
      <trkpt lat="45.84368" lon="1.18831">
        <ele>344.6</ele>
        <time>2024-10-21T08:56:09Z</time>
      </trkpt>
      <trkpt lat="45.84367" lon="1.18831">
        <ele>344.7</ele>
        <time>2024-10-21T08:56:10Z</time>
      </trkpt>
      <trkpt lat="45.84365" lon="1.1883">
        <ele>344.8</ele>
        <time>2024-10-21T08:56:11Z</time>
      </trkpt>
      <trkpt lat="45.84364" lon="1.1883">
        <ele>344.9</ele>
        <time>2024-10-21T08:56:12Z</time>
      </trkpt>
      <trkpt lat="45.84363" lon="1.18829">
        <ele>344.9</ele>
        <time>2024-10-21T08:56:13Z</time>
      </trkpt>
      <trkpt lat="45.8436" lon="1.18829">
        <ele>345</ele>
        <time>2024-10-21T08:56:14Z</time>
      </trkpt>
      <trkpt lat="45.8436" lon="1.18829">
        <ele>345.1</ele>
        <time>2024-10-21T08:56:15Z</time>
      </trkpt>
      <trkpt lat="45.84359" lon="1.18829">
        <ele>345.1</ele>
        <time>2024-10-21T08:56:16Z</time>
      </trkpt>
      <trkpt lat="45.84357" lon="1.18828">
        <ele>345.2</ele>
        <time>2024-10-21T08:56:17Z</time>
      </trkpt>
      <trkpt lat="45.84356" lon="1.18828">
        <ele>345.2</ele>
        <time>2024-10-21T08:56:18Z</time>
      </trkpt>
      <trkpt lat="45.84355" lon="1.18828">
        <ele>345.3</ele>
        <time>2024-10-21T08:56:19Z</time>
      </trkpt>
      <trkpt lat="45.84353" lon="1.18828">
        <ele>345.4</ele>
        <time>2024-10-21T08:56:20Z</time>
      </trkpt>
      <trkpt lat="45.84352" lon="1.18828">
        <ele>345.4</ele>
        <time>2024-10-21T08:56:21Z</time>
      </trkpt>
      <trkpt lat="45.84351" lon="1.18828">
        <ele>345.4</ele>
        <time>2024-10-21T08:56:22Z</time>
      </trkpt>
      <trkpt lat="45.8435" lon="1.18828">
        <ele>345.5</ele>
        <time>2024-10-21T08:56:23Z</time>
      </trkpt>
      <trkpt lat="45.84349" lon="1.18828">
        <ele>345.5</ele>
        <time>2024-10-21T08:56:24Z</time>
      </trkpt>
      <trkpt lat="45.84347" lon="1.18828">
        <ele>345.6</ele>
        <time>2024-10-21T08:56:25Z</time>
      </trkpt>
      <trkpt lat="45.84346" lon="1.18828">
        <ele>345.7</ele>
        <time>2024-10-21T08:56:26Z</time>
      </trkpt>
      <trkpt lat="45.84345" lon="1.18828">
        <ele>345.7</ele>
        <time>2024-10-21T08:56:27Z</time>
      </trkpt>
      <trkpt lat="45.84343" lon="1.18828">
        <ele>345.8</ele>
        <time>2024-10-21T08:56:28Z</time>
      </trkpt>
      <trkpt lat="45.84341" lon="1.18828">
        <ele>345.8</ele>
        <time>2024-10-21T08:56:29Z</time>
      </trkpt>
      <trkpt lat="45.8434" lon="1.18828">
        <ele>345.9</ele>
        <time>2024-10-21T08:56:30Z</time>
      </trkpt>
      <trkpt lat="45.84339" lon="1.18828">
        <ele>345.9</ele>
        <time>2024-10-21T08:56:31Z</time>
      </trkpt>
      <trkpt lat="45.84338" lon="1.18828">
        <ele>346</ele>
        <time>2024-10-21T08:56:32Z</time>
      </trkpt>
      <trkpt lat="45.84336" lon="1.18828">
        <ele>346</ele>
        <time>2024-10-21T08:56:33Z</time>
      </trkpt>
      <trkpt lat="45.84334" lon="1.18828">
        <ele>346.1</ele>
        <time>2024-10-21T08:56:34Z</time>
      </trkpt>
      <trkpt lat="45.84333" lon="1.18828">
        <ele>346.1</ele>
        <time>2024-10-21T08:56:35Z</time>
      </trkpt>
      <trkpt lat="45.84332" lon="1.18828">
        <ele>346.1</ele>
        <time>2024-10-21T08:56:36Z</time>
      </trkpt>
      <trkpt lat="45.84331" lon="1.18828">
        <ele>346.2</ele>
        <time>2024-10-21T08:56:37Z</time>
      </trkpt>
      <trkpt lat="45.84329" lon="1.18828">
        <ele>346.2</ele>
        <time>2024-10-21T08:56:38Z</time>
      </trkpt>
      <trkpt lat="45.84327" lon="1.18828">
        <ele>346.3</ele>
        <time>2024-10-21T08:56:39Z</time>
      </trkpt>
      <trkpt lat="45.84326" lon="1.18828">
        <ele>346.3</ele>
        <time>2024-10-21T08:56:40Z</time>
      </trkpt>
      <trkpt lat="45.84325" lon="1.18828">
        <ele>346.4</ele>
        <time>2024-10-21T08:56:41Z</time>
      </trkpt>
      <trkpt lat="45.84324" lon="1.18828">
        <ele>346.4</ele>
        <time>2024-10-21T08:56:42Z</time>
      </trkpt>
      <trkpt lat="45.84322" lon="1.18828">
        <ele>346.4</ele>
        <time>2024-10-21T08:56:43Z</time>
      </trkpt>
      <trkpt lat="45.8432" lon="1.18828">
        <ele>346.5</ele>
        <time>2024-10-21T08:56:44Z</time>
      </trkpt>
      <trkpt lat="45.84319" lon="1.18829">
        <ele>346.5</ele>
        <time>2024-10-21T08:56:45Z</time>
      </trkpt>
      <trkpt lat="45.84318" lon="1.18829">
        <ele>346.6</ele>
        <time>2024-10-21T08:56:46Z</time>
      </trkpt>
      <trkpt lat="45.84317" lon="1.18829">
        <ele>346.6</ele>
        <time>2024-10-21T08:56:47Z</time>
      </trkpt>
      <trkpt lat="45.84316" lon="1.18829">
        <ele>346.6</ele>
        <time>2024-10-21T08:56:48Z</time>
      </trkpt>
      <trkpt lat="45.84313" lon="1.1883">
        <ele>346.7</ele>
        <time>2024-10-21T08:56:49Z</time>
      </trkpt>
      <trkpt lat="45.84313" lon="1.18831">
        <ele>346.7</ele>
        <time>2024-10-21T08:56:50Z</time>
      </trkpt>
      <trkpt lat="45.84312" lon="1.18831">
        <ele>346.8</ele>
        <time>2024-10-21T08:56:51Z</time>
      </trkpt>
      <trkpt lat="45.8431" lon="1.18831">
        <ele>346.8</ele>
        <time>2024-10-21T08:56:52Z</time>
      </trkpt>
      <trkpt lat="45.84309" lon="1.18832">
        <ele>346.9</ele>
        <time>2024-10-21T08:56:53Z</time>
      </trkpt>
      <trkpt lat="45.84307" lon="1.18833">
        <ele>346.9</ele>
        <time>2024-10-21T08:56:54Z</time>
      </trkpt>
      <trkpt lat="45.84306" lon="1.18834">
        <ele>346.9</ele>
        <time>2024-10-21T08:56:55Z</time>
      </trkpt>
      <trkpt lat="45.84305" lon="1.18834">
        <ele>347</ele>
        <time>2024-10-21T08:56:56Z</time>
      </trkpt>
      <trkpt lat="45.84304" lon="1.18836">
        <ele>347</ele>
        <time>2024-10-21T08:56:57Z</time>
      </trkpt>
      <trkpt lat="45.84303" lon="1.18838">
        <ele>347.1</ele>
        <time>2024-10-21T08:56:58Z</time>
      </trkpt>
      <trkpt lat="45.84301" lon="1.18839">
        <ele>347.1</ele>
        <time>2024-10-21T08:56:59Z</time>
      </trkpt>
      <trkpt lat="45.843" lon="1.1884">
        <ele>347.2</ele>
        <time>2024-10-21T08:57:00Z</time>
      </trkpt>
      <trkpt lat="45.843" lon="1.18841">
        <ele>347.2</ele>
        <time>2024-10-21T08:57:01Z</time>
      </trkpt>
      <trkpt lat="45.84298" lon="1.18841">
        <ele>347.2</ele>
        <time>2024-10-21T08:57:02Z</time>
      </trkpt>
      <trkpt lat="45.84297" lon="1.18842">
        <ele>347.3</ele>
        <time>2024-10-21T08:57:03Z</time>
      </trkpt>
      <trkpt lat="45.84295" lon="1.18844">
        <ele>347.3</ele>
        <time>2024-10-21T08:57:04Z</time>
      </trkpt>
      <trkpt lat="45.84294" lon="1.18844">
        <ele>347.3</ele>
        <time>2024-10-21T08:57:05Z</time>
      </trkpt>
      <trkpt lat="45.84294" lon="1.18845">
        <ele>347.4</ele>
        <time>2024-10-21T08:57:06Z</time>
      </trkpt>
      <trkpt lat="45.84293" lon="1.18846">
        <ele>347.4</ele>
        <time>2024-10-21T08:57:07Z</time>
      </trkpt>
      <trkpt lat="45.84291" lon="1.18847">
        <ele>347.4</ele>
        <time>2024-10-21T08:57:08Z</time>
      </trkpt>
      <trkpt lat="45.84289" lon="1.18849">
        <ele>347.5</ele>
        <time>2024-10-21T08:57:09Z</time>
      </trkpt>
      <trkpt lat="45.84288" lon="1.18849">
        <ele>347.5</ele>
        <time>2024-10-21T08:57:10Z</time>
      </trkpt>
      <trkpt lat="45.84288" lon="1.18849">
        <ele>347.5</ele>
        <time>2024-10-21T08:57:11Z</time>
      </trkpt>
      <trkpt lat="45.84286" lon="1.1885">
        <ele>347.6</ele>
        <time>2024-10-21T08:57:12Z</time>
      </trkpt>
      <trkpt lat="45.84285" lon="1.18852">
        <ele>347.6</ele>
        <time>2024-10-21T08:57:13Z</time>
      </trkpt>
      <trkpt lat="45.84284" lon="1.18852">
        <ele>347.6</ele>
        <time>2024-10-21T08:57:14Z</time>
      </trkpt>
      <trkpt lat="45.84283" lon="1.18853">
        <ele>347.7</ele>
        <time>2024-10-21T08:57:15Z</time>
      </trkpt>
      <trkpt lat="45.84282" lon="1.18853">
        <ele>347.7</ele>
        <time>2024-10-21T08:57:16Z</time>
      </trkpt>
      <trkpt lat="45.8428" lon="1.18854">
        <ele>347.7</ele>
        <time>2024-10-21T08:57:17Z</time>
      </trkpt>
      <trkpt lat="45.84279" lon="1.18855">
        <ele>347.7</ele>
        <time>2024-10-21T08:57:18Z</time>
      </trkpt>
      <trkpt lat="45.84278" lon="1.18856">
        <ele>347.7</ele>
        <time>2024-10-21T08:57:19Z</time>
      </trkpt>
      <trkpt lat="45.84277" lon="1.18857">
        <ele>347.8</ele>
        <time>2024-10-21T08:57:20Z</time>
      </trkpt>
      <trkpt lat="45.84276" lon="1.18858">
        <ele>347.8</ele>
        <time>2024-10-21T08:57:21Z</time>
      </trkpt>
      <trkpt lat="45.84275" lon="1.18859">
        <ele>347.8</ele>
        <time>2024-10-21T08:57:22Z</time>
      </trkpt>
      <trkpt lat="45.84273" lon="1.1886">
        <ele>347.8</ele>
        <time>2024-10-21T08:57:23Z</time>
      </trkpt>
      <trkpt lat="45.84271" lon="1.18861">
        <ele>347.9</ele>
        <time>2024-10-21T08:57:24Z</time>
      </trkpt>
      <trkpt lat="45.8427" lon="1.18861">
        <ele>347.9</ele>
        <time>2024-10-21T08:57:25Z</time>
      </trkpt>
      <trkpt lat="45.84269" lon="1.18861">
        <ele>347.9</ele>
        <time>2024-10-21T08:57:26Z</time>
      </trkpt>
      <trkpt lat="45.84267" lon="1.1886">
        <ele>347.8</ele>
        <time>2024-10-21T08:57:27Z</time>
      </trkpt>
      <trkpt lat="45.84266" lon="1.18859">
        <ele>347.8</ele>
        <time>2024-10-21T08:57:28Z</time>
      </trkpt>
      <trkpt lat="45.84264" lon="1.18857">
        <ele>347.7</ele>
        <time>2024-10-21T08:57:29Z</time>
      </trkpt>
      <trkpt lat="45.84264" lon="1.18856">
        <ele>347.7</ele>
        <time>2024-10-21T08:57:30Z</time>
      </trkpt>
      <trkpt lat="45.84263" lon="1.18855">
        <ele>347.6</ele>
        <time>2024-10-21T08:57:31Z</time>
      </trkpt>
      <trkpt lat="45.84262" lon="1.18854">
        <ele>347.5</ele>
        <time>2024-10-21T08:57:32Z</time>
      </trkpt>
      <trkpt lat="45.84261" lon="1.18851">
        <ele>347.5</ele>
        <time>2024-10-21T08:57:33Z</time>
      </trkpt>
      <trkpt lat="45.84261" lon="1.1885">
        <ele>347.4</ele>
        <time>2024-10-21T08:57:34Z</time>
      </trkpt>
      <trkpt lat="45.84261" lon="1.18848">
        <ele>347.4</ele>
        <time>2024-10-21T08:57:35Z</time>
      </trkpt>
      <trkpt lat="45.8426" lon="1.18847">
        <ele>347.3</ele>
        <time>2024-10-21T08:57:36Z</time>
      </trkpt>
      <trkpt lat="45.84259" lon="1.18845">
        <ele>347.2</ele>
        <time>2024-10-21T08:57:37Z</time>
      </trkpt>
      <trkpt lat="45.84259" lon="1.18843">
        <ele>347.2</ele>
        <time>2024-10-21T08:57:38Z</time>
      </trkpt>
      <trkpt lat="45.84258" lon="1.1884">
        <ele>347.1</ele>
        <time>2024-10-21T08:57:39Z</time>
      </trkpt>
      <trkpt lat="45.84257" lon="1.18838">
        <ele>347.1</ele>
        <time>2024-10-21T08:57:41Z</time>
      </trkpt>
      <trkpt lat="45.84257" lon="1.18836">
        <ele>347</ele>
        <time>2024-10-21T08:57:42Z</time>
      </trkpt>
      <trkpt lat="45.84256" lon="1.18833">
        <ele>347</ele>
        <time>2024-10-21T08:57:43Z</time>
      </trkpt>
      <trkpt lat="45.84256" lon="1.18832">
        <ele>346.9</ele>
        <time>2024-10-21T08:57:44Z</time>
      </trkpt>
      <trkpt lat="45.84256" lon="1.1883">
        <ele>346.9</ele>
        <time>2024-10-21T08:57:45Z</time>
      </trkpt>
      <trkpt lat="45.84255" lon="1.18829">
        <ele>346.8</ele>
        <time>2024-10-21T08:57:46Z</time>
      </trkpt>
      <trkpt lat="45.84255" lon="1.18827">
        <ele>346.8</ele>
        <time>2024-10-21T08:57:47Z</time>
      </trkpt>
      <trkpt lat="45.84255" lon="1.18824">
        <ele>346.7</ele>
        <time>2024-10-21T08:57:48Z</time>
      </trkpt>
      <trkpt lat="45.84255" lon="1.18822">
        <ele>346.6</ele>
        <time>2024-10-21T08:57:49Z</time>
      </trkpt>
      <trkpt lat="45.84255" lon="1.18821">
        <ele>346.6</ele>
        <time>2024-10-21T08:57:50Z</time>
      </trkpt>
      <trkpt lat="45.84254" lon="1.18819">
        <ele>346.5</ele>
        <time>2024-10-21T08:57:51Z</time>
      </trkpt>
      <trkpt lat="45.84253" lon="1.18816">
        <ele>346.5</ele>
        <time>2024-10-21T08:57:52Z</time>
      </trkpt>
      <trkpt lat="45.84253" lon="1.18815">
        <ele>346.4</ele>
        <time>2024-10-21T08:57:53Z</time>
      </trkpt>
      <trkpt lat="45.84253" lon="1.18814">
        <ele>346.3</ele>
        <time>2024-10-21T08:57:54Z</time>
      </trkpt>
      <trkpt lat="45.84251" lon="1.18813">
        <ele>346.2</ele>
        <time>2024-10-21T08:57:55Z</time>
      </trkpt>
      <trkpt lat="45.8425" lon="1.18813">
        <ele>346.2</ele>
        <time>2024-10-21T08:57:56Z</time>
      </trkpt>
      <trkpt lat="45.84249" lon="1.18812">
        <ele>346.1</ele>
        <time>2024-10-21T08:57:57Z</time>
      </trkpt>
      <trkpt lat="45.84246" lon="1.18812">
        <ele>346</ele>
        <time>2024-10-21T08:57:58Z</time>
      </trkpt>
      <trkpt lat="45.84244" lon="1.18812">
        <ele>346</ele>
        <time>2024-10-21T08:57:59Z</time>
      </trkpt>
      <trkpt lat="45.84243" lon="1.18811">
        <ele>345.9</ele>
        <time>2024-10-21T08:58:01Z</time>
      </trkpt>
      <trkpt lat="45.84242" lon="1.18811">
        <ele>345.8</ele>
        <time>2024-10-21T08:58:02Z</time>
      </trkpt>
      <trkpt lat="45.8424" lon="1.18811">
        <ele>345.7</ele>
        <time>2024-10-21T08:58:03Z</time>
      </trkpt>
      <trkpt lat="45.84239" lon="1.18812">
        <ele>345.7</ele>
        <time>2024-10-21T08:58:04Z</time>
      </trkpt>
      <trkpt lat="45.84239" lon="1.18814">
        <ele>345.6</ele>
        <time>2024-10-21T08:58:05Z</time>
      </trkpt>
      <trkpt lat="45.84238" lon="1.18816">
        <ele>345.6</ele>
        <time>2024-10-21T08:58:06Z</time>
      </trkpt>
      <trkpt lat="45.8424" lon="1.18821">
        <ele>345.6</ele>
        <time>2024-10-21T08:58:07Z</time>
      </trkpt>
      <trkpt lat="45.8424" lon="1.18823">
        <ele>345.5</ele>
        <time>2024-10-21T08:58:08Z</time>
      </trkpt>
      <trkpt lat="45.84237" lon="1.18824">
        <ele>345.5</ele>
        <time>2024-10-21T08:58:09Z</time>
      </trkpt>
      <trkpt lat="45.84236" lon="1.18825">
        <ele>345.5</ele>
        <time>2024-10-21T08:58:10Z</time>
      </trkpt>
      <trkpt lat="45.84235" lon="1.18826">
        <ele>345.5</ele>
        <time>2024-10-21T08:58:11Z</time>
      </trkpt>
      <trkpt lat="45.84234" lon="1.18827">
        <ele>345.5</ele>
        <time>2024-10-21T08:58:12Z</time>
      </trkpt>
      <trkpt lat="45.84233" lon="1.18829">
        <ele>345.5</ele>
        <time>2024-10-21T08:58:13Z</time>
      </trkpt>
      <trkpt lat="45.84232" lon="1.1883">
        <ele>345.4</ele>
        <time>2024-10-21T08:58:14Z</time>
      </trkpt>
      <trkpt lat="45.8423" lon="1.18832">
        <ele>345.4</ele>
        <time>2024-10-21T08:58:15Z</time>
      </trkpt>
      <trkpt lat="45.84229" lon="1.18833">
        <ele>345.3</ele>
        <time>2024-10-21T08:58:16Z</time>
      </trkpt>
      <trkpt lat="45.84228" lon="1.18834">
        <ele>345.3</ele>
        <time>2024-10-21T08:58:17Z</time>
      </trkpt>
      <trkpt lat="45.84226" lon="1.18835">
        <ele>345.3</ele>
        <time>2024-10-21T08:58:18Z</time>
      </trkpt>
      <trkpt lat="45.84225" lon="1.18836">
        <ele>345.2</ele>
        <time>2024-10-21T08:58:19Z</time>
      </trkpt>
      <trkpt lat="45.84224" lon="1.18838">
        <ele>345.2</ele>
        <time>2024-10-21T08:58:20Z</time>
      </trkpt>
      <trkpt lat="45.84224" lon="1.1884">
        <ele>345.1</ele>
        <time>2024-10-21T08:58:21Z</time>
      </trkpt>
      <trkpt lat="45.84223" lon="1.18841">
        <ele>345.1</ele>
        <time>2024-10-21T08:58:22Z</time>
      </trkpt>
      <trkpt lat="45.84222" lon="1.18842">
        <ele>345</ele>
        <time>2024-10-21T08:58:23Z</time>
      </trkpt>
      <trkpt lat="45.8422" lon="1.18845">
        <ele>344.9</ele>
        <time>2024-10-21T08:58:24Z</time>
      </trkpt>
      <trkpt lat="45.8422" lon="1.18845">
        <ele>344.9</ele>
        <time>2024-10-21T08:58:25Z</time>
      </trkpt>
      <trkpt lat="45.84218" lon="1.18847">
        <ele>344.9</ele>
        <time>2024-10-21T08:58:26Z</time>
      </trkpt>
      <trkpt lat="45.84217" lon="1.18849">
        <ele>344.8</ele>
        <time>2024-10-21T08:58:27Z</time>
      </trkpt>
      <trkpt lat="45.84216" lon="1.1885">
        <ele>344.8</ele>
        <time>2024-10-21T08:58:28Z</time>
      </trkpt>
      <trkpt lat="45.84216" lon="1.18851">
        <ele>344.7</ele>
        <time>2024-10-21T08:58:29Z</time>
      </trkpt>
      <trkpt lat="45.84215" lon="1.18852">
        <ele>344.7</ele>
        <time>2024-10-21T08:58:30Z</time>
      </trkpt>
      <trkpt lat="45.84213" lon="1.18853">
        <ele>344.6</ele>
        <time>2024-10-21T08:58:31Z</time>
      </trkpt>
      <trkpt lat="45.84211" lon="1.18855">
        <ele>344.5</ele>
        <time>2024-10-21T08:58:32Z</time>
      </trkpt>
      <trkpt lat="45.84211" lon="1.18855">
        <ele>344.4</ele>
        <time>2024-10-21T08:58:33Z</time>
      </trkpt>
      <trkpt lat="45.8421" lon="1.18856">
        <ele>344.4</ele>
        <time>2024-10-21T08:58:34Z</time>
      </trkpt>
      <trkpt lat="45.84209" lon="1.18857">
        <ele>344.3</ele>
        <time>2024-10-21T08:58:35Z</time>
      </trkpt>
      <trkpt lat="45.84208" lon="1.18859">
        <ele>344.2</ele>
        <time>2024-10-21T08:58:36Z</time>
      </trkpt>
      <trkpt lat="45.84207" lon="1.1886">
        <ele>344.2</ele>
        <time>2024-10-21T08:58:37Z</time>
      </trkpt>
      <trkpt lat="45.84206" lon="1.18861">
        <ele>344.1</ele>
        <time>2024-10-21T08:58:38Z</time>
      </trkpt>
      <trkpt lat="45.84205" lon="1.18862">
        <ele>344.1</ele>
        <time>2024-10-21T08:58:39Z</time>
      </trkpt>
      <trkpt lat="45.84204" lon="1.18863">
        <ele>344</ele>
        <time>2024-10-21T08:58:40Z</time>
      </trkpt>
      <trkpt lat="45.84203" lon="1.18864">
        <ele>343.9</ele>
        <time>2024-10-21T08:58:41Z</time>
      </trkpt>
      <trkpt lat="45.84202" lon="1.18866">
        <ele>343.8</ele>
        <time>2024-10-21T08:58:42Z</time>
      </trkpt>
      <trkpt lat="45.84201" lon="1.18867">
        <ele>343.7</ele>
        <time>2024-10-21T08:58:43Z</time>
      </trkpt>
      <trkpt lat="45.84201" lon="1.18868">
        <ele>343.7</ele>
        <time>2024-10-21T08:58:44Z</time>
      </trkpt>
      <trkpt lat="45.842" lon="1.18869">
        <ele>343.6</ele>
        <time>2024-10-21T08:58:45Z</time>
      </trkpt>
      <trkpt lat="45.84198" lon="1.1887">
        <ele>343.5</ele>
        <time>2024-10-21T08:58:46Z</time>
      </trkpt>
      <trkpt lat="45.84198" lon="1.18871">
        <ele>343.4</ele>
        <time>2024-10-21T08:58:47Z</time>
      </trkpt>
      <trkpt lat="45.84197" lon="1.18872">
        <ele>343.3</ele>
        <time>2024-10-21T08:58:48Z</time>
      </trkpt>
      <trkpt lat="45.84196" lon="1.18873">
        <ele>343.2</ele>
        <time>2024-10-21T08:58:49Z</time>
      </trkpt>
      <trkpt lat="45.84194" lon="1.18874">
        <ele>343.1</ele>
        <time>2024-10-21T08:58:50Z</time>
      </trkpt>
      <trkpt lat="45.84193" lon="1.18875">
        <ele>343</ele>
        <time>2024-10-21T08:58:51Z</time>
      </trkpt>
      <trkpt lat="45.84192" lon="1.18877">
        <ele>342.9</ele>
        <time>2024-10-21T08:58:52Z</time>
      </trkpt>
      <trkpt lat="45.84191" lon="1.18878">
        <ele>342.8</ele>
        <time>2024-10-21T08:58:53Z</time>
      </trkpt>
      <trkpt lat="45.8419" lon="1.18878">
        <ele>342.7</ele>
        <time>2024-10-21T08:58:54Z</time>
      </trkpt>
      <trkpt lat="45.84189" lon="1.1888">
        <ele>342.6</ele>
        <time>2024-10-21T08:58:55Z</time>
      </trkpt>
      <trkpt lat="45.84188" lon="1.18881">
        <ele>342.5</ele>
        <time>2024-10-21T08:58:56Z</time>
      </trkpt>
      <trkpt lat="45.84187" lon="1.18882">
        <ele>342.4</ele>
        <time>2024-10-21T08:58:57Z</time>
      </trkpt>
      <trkpt lat="45.84186" lon="1.18883">
        <ele>342.3</ele>
        <time>2024-10-21T08:58:58Z</time>
      </trkpt>
      <trkpt lat="45.84185" lon="1.18885">
        <ele>342.2</ele>
        <time>2024-10-21T08:58:59Z</time>
      </trkpt>
      <trkpt lat="45.84184" lon="1.18887">
        <ele>342</ele>
        <time>2024-10-21T08:59:00Z</time>
      </trkpt>
      <trkpt lat="45.84183" lon="1.18889">
        <ele>341.8</ele>
        <time>2024-10-21T08:59:01Z</time>
      </trkpt>
      <trkpt lat="45.84182" lon="1.18891">
        <ele>341.7</ele>
        <time>2024-10-21T08:59:02Z</time>
      </trkpt>
      <trkpt lat="45.84181" lon="1.18892">
        <ele>341.6</ele>
        <time>2024-10-21T08:59:03Z</time>
      </trkpt>
      <trkpt lat="45.84181" lon="1.18892">
        <ele>341.6</ele>
        <time>2024-10-21T08:59:04Z</time>
      </trkpt>
      <trkpt lat="45.84181" lon="1.18894">
        <ele>341.5</ele>
        <time>2024-10-21T08:59:05Z</time>
      </trkpt>
      <trkpt lat="45.84179" lon="1.18897">
        <ele>341.2</ele>
        <time>2024-10-21T08:59:06Z</time>
      </trkpt>
      <trkpt lat="45.84177" lon="1.189">
        <ele>340.9</ele>
        <time>2024-10-21T08:59:08Z</time>
      </trkpt>
      <trkpt lat="45.84176" lon="1.18902">
        <ele>340.8</ele>
        <time>2024-10-21T08:59:09Z</time>
      </trkpt>
      <trkpt lat="45.84175" lon="1.18903">
        <ele>340.6</ele>
        <time>2024-10-21T08:59:10Z</time>
      </trkpt>
      <trkpt lat="45.84174" lon="1.18904">
        <ele>340.5</ele>
        <time>2024-10-21T08:59:11Z</time>
      </trkpt>
      <trkpt lat="45.84172" lon="1.18905">
        <ele>340.3</ele>
        <time>2024-10-21T08:59:12Z</time>
      </trkpt>
      <trkpt lat="45.8417" lon="1.18907">
        <ele>340</ele>
        <time>2024-10-21T08:59:14Z</time>
      </trkpt>
      <trkpt lat="45.84169" lon="1.18909">
        <ele>339.9</ele>
        <time>2024-10-21T08:59:15Z</time>
      </trkpt>
      <trkpt lat="45.84168" lon="1.1891">
        <ele>339.7</ele>
        <time>2024-10-21T08:59:16Z</time>
      </trkpt>
      <trkpt lat="45.84166" lon="1.18912">
        <ele>339.5</ele>
        <time>2024-10-21T08:59:17Z</time>
      </trkpt>
      <trkpt lat="45.84166" lon="1.18913">
        <ele>339.5</ele>
        <time>2024-10-21T08:59:18Z</time>
      </trkpt>
      <trkpt lat="45.84165" lon="1.18914">
        <ele>339.4</ele>
        <time>2024-10-21T08:59:19Z</time>
      </trkpt>
      <trkpt lat="45.84165" lon="1.18914">
        <ele>339.3</ele>
        <time>2024-10-21T08:59:20Z</time>
      </trkpt>
      <trkpt lat="45.84164" lon="1.18915">
        <ele>339.2</ele>
        <time>2024-10-21T08:59:21Z</time>
      </trkpt>
      <trkpt lat="45.84164" lon="1.18915">
        <ele>339.1</ele>
        <time>2024-10-21T08:59:22Z</time>
      </trkpt>
      <trkpt lat="45.84163" lon="1.18916">
        <ele>339</ele>
        <time>2024-10-21T08:59:23Z</time>
      </trkpt>
      <trkpt lat="45.84161" lon="1.18918">
        <ele>338.8</ele>
        <time>2024-10-21T08:59:24Z</time>
      </trkpt>
      <trkpt lat="45.84161" lon="1.18919">
        <ele>338.7</ele>
        <time>2024-10-21T08:59:25Z</time>
      </trkpt>
      <trkpt lat="45.8416" lon="1.1892">
        <ele>338.6</ele>
        <time>2024-10-21T08:59:26Z</time>
      </trkpt>
      <trkpt lat="45.84159" lon="1.18923">
        <ele>338.4</ele>
        <time>2024-10-21T08:59:27Z</time>
      </trkpt>
      <trkpt lat="45.84159" lon="1.18924">
        <ele>338.3</ele>
        <time>2024-10-21T08:59:28Z</time>
      </trkpt>
      <trkpt lat="45.84158" lon="1.18925">
        <ele>338.2</ele>
        <time>2024-10-21T08:59:29Z</time>
      </trkpt>
      <trkpt lat="45.84157" lon="1.18927">
        <ele>338</ele>
        <time>2024-10-21T08:59:30Z</time>
      </trkpt>
      <trkpt lat="45.84156" lon="1.18929">
        <ele>337.8</ele>
        <time>2024-10-21T08:59:31Z</time>
      </trkpt>
      <trkpt lat="45.84155" lon="1.1893">
        <ele>337.6</ele>
        <time>2024-10-21T08:59:32Z</time>
      </trkpt>
      <trkpt lat="45.84155" lon="1.18933">
        <ele>337.4</ele>
        <time>2024-10-21T08:59:33Z</time>
      </trkpt>
      <trkpt lat="45.84155" lon="1.18938">
        <ele>337</ele>
        <time>2024-10-21T08:59:34Z</time>
      </trkpt>
      <trkpt lat="45.84154" lon="1.18939">
        <ele>336.9</ele>
        <time>2024-10-21T08:59:35Z</time>
      </trkpt>
      <trkpt lat="45.84153" lon="1.18942">
        <ele>336.6</ele>
        <time>2024-10-21T08:59:36Z</time>
      </trkpt>
      <trkpt lat="45.84153" lon="1.18944">
        <ele>336.4</ele>
        <time>2024-10-21T08:59:37Z</time>
      </trkpt>
      <trkpt lat="45.84151" lon="1.18946">
        <ele>336.2</ele>
        <time>2024-10-21T08:59:38Z</time>
      </trkpt>
      <trkpt lat="45.8415" lon="1.18947">
        <ele>336</ele>
        <time>2024-10-21T08:59:39Z</time>
      </trkpt>
      <trkpt lat="45.84148" lon="1.18948">
        <ele>335.8</ele>
        <time>2024-10-21T08:59:40Z</time>
      </trkpt>
      <trkpt lat="45.84147" lon="1.18949">
        <ele>335.6</ele>
        <time>2024-10-21T08:59:41Z</time>
      </trkpt>
      <trkpt lat="45.84146" lon="1.18951">
        <ele>335.5</ele>
        <time>2024-10-21T08:59:42Z</time>
      </trkpt>
      <trkpt lat="45.84144" lon="1.18951">
        <ele>335.3</ele>
        <time>2024-10-21T08:59:43Z</time>
      </trkpt>
      <trkpt lat="45.84142" lon="1.18952">
        <ele>335.1</ele>
        <time>2024-10-21T08:59:44Z</time>
      </trkpt>
      <trkpt lat="45.84142" lon="1.18953">
        <ele>335</ele>
        <time>2024-10-21T08:59:45Z</time>
      </trkpt>
      <trkpt lat="45.84141" lon="1.18953">
        <ele>334.9</ele>
        <time>2024-10-21T08:59:46Z</time>
      </trkpt>
      <trkpt lat="45.84138" lon="1.18957">
        <ele>334.5</ele>
        <time>2024-10-21T08:59:47Z</time>
      </trkpt>
      <trkpt lat="45.84138" lon="1.18957">
        <ele>334.5</ele>
        <time>2024-10-21T08:59:48Z</time>
      </trkpt>
      <trkpt lat="45.84137" lon="1.18959">
        <ele>334.3</ele>
        <time>2024-10-21T08:59:49Z</time>
      </trkpt>
      <trkpt lat="45.84137" lon="1.18959">
        <ele>334.3</ele>
        <time>2024-10-21T08:59:50Z</time>
      </trkpt>
      <trkpt lat="45.84136" lon="1.1896">
        <ele>334.2</ele>
        <time>2024-10-21T08:59:51Z</time>
      </trkpt>
      <trkpt lat="45.84135" lon="1.18963">
        <ele>334</ele>
        <time>2024-10-21T08:59:52Z</time>
      </trkpt>
      <trkpt lat="45.84135" lon="1.18964">
        <ele>333.9</ele>
        <time>2024-10-21T08:59:53Z</time>
      </trkpt>
      <trkpt lat="45.84134" lon="1.18965">
        <ele>333.8</ele>
        <time>2024-10-21T08:59:54Z</time>
      </trkpt>
      <trkpt lat="45.84133" lon="1.18966">
        <ele>333.7</ele>
        <time>2024-10-21T08:59:55Z</time>
      </trkpt>
      <trkpt lat="45.84132" lon="1.18968">
        <ele>333.6</ele>
        <time>2024-10-21T08:59:56Z</time>
      </trkpt>
      <trkpt lat="45.84131" lon="1.18969">
        <ele>333.4</ele>
        <time>2024-10-21T08:59:57Z</time>
      </trkpt>
      <trkpt lat="45.8413" lon="1.1897">
        <ele>333.3</ele>
        <time>2024-10-21T08:59:58Z</time>
      </trkpt>
      <trkpt lat="45.84129" lon="1.18973">
        <ele>333.1</ele>
        <time>2024-10-21T08:59:59Z</time>
      </trkpt>
      <trkpt lat="45.84128" lon="1.18973">
        <ele>333</ele>
        <time>2024-10-21T09:00:00Z</time>
      </trkpt>
      <trkpt lat="45.84127" lon="1.18974">
        <ele>333</ele>
        <time>2024-10-21T09:00:01Z</time>
      </trkpt>
      <trkpt lat="45.84127" lon="1.18976">
        <ele>332.8</ele>
        <time>2024-10-21T09:00:02Z</time>
      </trkpt>
      <trkpt lat="45.84126" lon="1.18977">
        <ele>332.8</ele>
        <time>2024-10-21T09:00:03Z</time>
      </trkpt>
      <trkpt lat="45.84125" lon="1.18978">
        <ele>332.6</ele>
        <time>2024-10-21T09:00:04Z</time>
      </trkpt>
      <trkpt lat="45.84124" lon="1.1898">
        <ele>332.4</ele>
        <time>2024-10-21T09:00:05Z</time>
      </trkpt>
      <trkpt lat="45.84123" lon="1.18981">
        <ele>332.3</ele>
        <time>2024-10-21T09:00:06Z</time>
      </trkpt>
      <trkpt lat="45.84123" lon="1.18982">
        <ele>332.3</ele>
        <time>2024-10-21T09:00:07Z</time>
      </trkpt>
      <trkpt lat="45.84122" lon="1.18983">
        <ele>332.1</ele>
        <time>2024-10-21T09:00:08Z</time>
      </trkpt>
      <trkpt lat="45.84121" lon="1.18984">
        <ele>332</ele>
        <time>2024-10-21T09:00:09Z</time>
      </trkpt>
      <trkpt lat="45.8412" lon="1.18985">
        <ele>331.9</ele>
        <time>2024-10-21T09:00:10Z</time>
      </trkpt>
      <trkpt lat="45.84119" lon="1.18986">
        <ele>331.8</ele>
        <time>2024-10-21T09:00:11Z</time>
      </trkpt>
      <trkpt lat="45.84117" lon="1.18986">
        <ele>331.8</ele>
        <time>2024-10-21T09:00:12Z</time>
      </trkpt>
      <trkpt lat="45.84115" lon="1.18985">
        <ele>331.7</ele>
        <time>2024-10-21T09:00:13Z</time>
      </trkpt>
      <trkpt lat="45.84114" lon="1.18985">
        <ele>331.7</ele>
        <time>2024-10-21T09:00:14Z</time>
      </trkpt>
      <trkpt lat="45.84114" lon="1.18984">
        <ele>331.7</ele>
        <time>2024-10-21T09:00:15Z</time>
      </trkpt>
      <trkpt lat="45.84113" lon="1.18982">
        <ele>331.7</ele>
        <time>2024-10-21T09:00:16Z</time>
      </trkpt>
      <trkpt lat="45.84113" lon="1.1898">
        <ele>331.6</ele>
        <time>2024-10-21T09:00:17Z</time>
      </trkpt>
      <trkpt lat="45.84113" lon="1.1898">
        <ele>331.6</ele>
        <time>2024-10-21T09:00:18Z</time>
      </trkpt>
      <trkpt lat="45.84113" lon="1.18979">
        <ele>331.6</ele>
        <time>2024-10-21T09:00:19Z</time>
      </trkpt>
      <trkpt lat="45.84111" lon="1.18979">
        <ele>331.6</ele>
        <time>2024-10-21T09:00:20Z</time>
      </trkpt>
      <trkpt lat="45.8411" lon="1.18978">
        <ele>331.6</ele>
        <time>2024-10-21T09:00:21Z</time>
      </trkpt>
      <trkpt lat="45.84109" lon="1.18977">
        <ele>331.5</ele>
        <time>2024-10-21T09:00:22Z</time>
      </trkpt>
      <trkpt lat="45.84108" lon="1.18976">
        <ele>331.5</ele>
        <time>2024-10-21T09:00:23Z</time>
      </trkpt>
      <trkpt lat="45.84107" lon="1.18974">
        <ele>331.5</ele>
        <time>2024-10-21T09:00:24Z</time>
      </trkpt>
      <trkpt lat="45.84106" lon="1.18972">
        <ele>331.4</ele>
        <time>2024-10-21T09:00:25Z</time>
      </trkpt>
      <trkpt lat="45.84105" lon="1.18971">
        <ele>331.4</ele>
        <time>2024-10-21T09:00:26Z</time>
      </trkpt>
      <trkpt lat="45.84104" lon="1.18969">
        <ele>331.3</ele>
        <time>2024-10-21T09:00:27Z</time>
      </trkpt>
      <trkpt lat="45.84103" lon="1.18968">
        <ele>331.3</ele>
        <time>2024-10-21T09:00:28Z</time>
      </trkpt>
      <trkpt lat="45.84101" lon="1.18966">
        <ele>331.2</ele>
        <time>2024-10-21T09:00:29Z</time>
      </trkpt>
      <trkpt lat="45.84101" lon="1.18965">
        <ele>331.2</ele>
        <time>2024-10-21T09:00:30Z</time>
      </trkpt>
      <trkpt lat="45.841" lon="1.18964">
        <ele>331.2</ele>
        <time>2024-10-21T09:00:31Z</time>
      </trkpt>
      <trkpt lat="45.84099" lon="1.18963">
        <ele>331.1</ele>
        <time>2024-10-21T09:00:32Z</time>
      </trkpt>
      <trkpt lat="45.84098" lon="1.18962">
        <ele>331.1</ele>
        <time>2024-10-21T09:00:33Z</time>
      </trkpt>
      <trkpt lat="45.84097" lon="1.18961">
        <ele>331.1</ele>
        <time>2024-10-21T09:00:34Z</time>
      </trkpt>
      <trkpt lat="45.84096" lon="1.1896">
        <ele>331</ele>
        <time>2024-10-21T09:00:35Z</time>
      </trkpt>
      <trkpt lat="45.84095" lon="1.18959">
        <ele>331</ele>
        <time>2024-10-21T09:00:36Z</time>
      </trkpt>
      <trkpt lat="45.84093" lon="1.18957">
        <ele>330.9</ele>
        <time>2024-10-21T09:00:37Z</time>
      </trkpt>
      <trkpt lat="45.84093" lon="1.18957">
        <ele>330.9</ele>
        <time>2024-10-21T09:00:38Z</time>
      </trkpt>
      <trkpt lat="45.84092" lon="1.18956">
        <ele>330.8</ele>
        <time>2024-10-21T09:00:39Z</time>
      </trkpt>
      <trkpt lat="45.8409" lon="1.18953">
        <ele>330.7</ele>
        <time>2024-10-21T09:00:40Z</time>
      </trkpt>
      <trkpt lat="45.84089" lon="1.18952">
        <ele>330.7</ele>
        <time>2024-10-21T09:00:42Z</time>
      </trkpt>
      <trkpt lat="45.84088" lon="1.18951">
        <ele>330.6</ele>
        <time>2024-10-21T09:00:43Z</time>
      </trkpt>
      <trkpt lat="45.84087" lon="1.18951">
        <ele>330.6</ele>
        <time>2024-10-21T09:00:44Z</time>
      </trkpt>
      <trkpt lat="45.84086" lon="1.1895">
        <ele>330.6</ele>
        <time>2024-10-21T09:00:45Z</time>
      </trkpt>
      <trkpt lat="45.84085" lon="1.18949">
        <ele>330.5</ele>
        <time>2024-10-21T09:00:46Z</time>
      </trkpt>
      <trkpt lat="45.84084" lon="1.18948">
        <ele>330.5</ele>
        <time>2024-10-21T09:00:47Z</time>
      </trkpt>
      <trkpt lat="45.84084" lon="1.18948">
        <ele>330.4</ele>
        <time>2024-10-21T09:00:48Z</time>
      </trkpt>
      <trkpt lat="45.84083" lon="1.18947">
        <ele>330.4</ele>
        <time>2024-10-21T09:00:49Z</time>
      </trkpt>
      <trkpt lat="45.84082" lon="1.18946">
        <ele>330.3</ele>
        <time>2024-10-21T09:00:50Z</time>
      </trkpt>
      <trkpt lat="45.8408" lon="1.18946">
        <ele>330.3</ele>
        <time>2024-10-21T09:00:51Z</time>
      </trkpt>
      <trkpt lat="45.84079" lon="1.18945">
        <ele>330.2</ele>
        <time>2024-10-21T09:00:52Z</time>
      </trkpt>
      <trkpt lat="45.84078" lon="1.18944">
        <ele>330.2</ele>
        <time>2024-10-21T09:00:53Z</time>
      </trkpt>
      <trkpt lat="45.84077" lon="1.18944">
        <ele>330.1</ele>
        <time>2024-10-21T09:00:54Z</time>
      </trkpt>
      <trkpt lat="45.84075" lon="1.18942">
        <ele>330</ele>
        <time>2024-10-21T09:00:55Z</time>
      </trkpt>
      <trkpt lat="45.84073" lon="1.18941">
        <ele>329.9</ele>
        <time>2024-10-21T09:00:56Z</time>
      </trkpt>
      <trkpt lat="45.84073" lon="1.1894">
        <ele>329.9</ele>
        <time>2024-10-21T09:00:57Z</time>
      </trkpt>
      <trkpt lat="45.84072" lon="1.18939">
        <ele>329.8</ele>
        <time>2024-10-21T09:00:58Z</time>
      </trkpt>
      <trkpt lat="45.84071" lon="1.18938">
        <ele>329.8</ele>
        <time>2024-10-21T09:01:00Z</time>
      </trkpt>
      <trkpt lat="45.8407" lon="1.18937">
        <ele>329.7</ele>
        <time>2024-10-21T09:01:01Z</time>
      </trkpt>
      <trkpt lat="45.84068" lon="1.18936">
        <ele>329.6</ele>
        <time>2024-10-21T09:01:02Z</time>
      </trkpt>
      <trkpt lat="45.84068" lon="1.18935">
        <ele>329.6</ele>
        <time>2024-10-21T09:01:03Z</time>
      </trkpt>
      <trkpt lat="45.84068" lon="1.18934">
        <ele>329.5</ele>
        <time>2024-10-21T09:01:04Z</time>
      </trkpt>
      <trkpt lat="45.84067" lon="1.18933">
        <ele>329.5</ele>
        <time>2024-10-21T09:01:05Z</time>
      </trkpt>
      <trkpt lat="45.84066" lon="1.18932">
        <ele>329.4</ele>
        <time>2024-10-21T09:01:06Z</time>
      </trkpt>
      <trkpt lat="45.84064" lon="1.18931">
        <ele>329.3</ele>
        <time>2024-10-21T09:01:07Z</time>
      </trkpt>
      <trkpt lat="45.84063" lon="1.1893">
        <ele>329.3</ele>
        <time>2024-10-21T09:01:08Z</time>
      </trkpt>
      <trkpt lat="45.84063" lon="1.1893">
        <ele>329.2</ele>
        <time>2024-10-21T09:01:09Z</time>
      </trkpt>
      <trkpt lat="45.84061" lon="1.18928">
        <ele>329.1</ele>
        <time>2024-10-21T09:01:10Z</time>
      </trkpt>
      <trkpt lat="45.8406" lon="1.18928">
        <ele>329</ele>
        <time>2024-10-21T09:01:11Z</time>
      </trkpt>
      <trkpt lat="45.84059" lon="1.18927">
        <ele>329</ele>
        <time>2024-10-21T09:01:12Z</time>
      </trkpt>
      <trkpt lat="45.84057" lon="1.18925">
        <ele>328.8</ele>
        <time>2024-10-21T09:01:13Z</time>
      </trkpt>
      <trkpt lat="45.84056" lon="1.18925">
        <ele>328.8</ele>
        <time>2024-10-21T09:01:14Z</time>
      </trkpt>
      <trkpt lat="45.84056" lon="1.18925">
        <ele>328.8</ele>
        <time>2024-10-21T09:01:15Z</time>
      </trkpt>
      <trkpt lat="45.84055" lon="1.18924">
        <ele>328.7</ele>
        <time>2024-10-21T09:01:16Z</time>
      </trkpt>
      <trkpt lat="45.84054" lon="1.18923">
        <ele>328.6</ele>
        <time>2024-10-21T09:01:17Z</time>
      </trkpt>
      <trkpt lat="45.84052" lon="1.18921">
        <ele>328.5</ele>
        <time>2024-10-21T09:01:18Z</time>
      </trkpt>
      <trkpt lat="45.84051" lon="1.1892">
        <ele>328.4</ele>
        <time>2024-10-21T09:01:19Z</time>
      </trkpt>
      <trkpt lat="45.8405" lon="1.1892">
        <ele>328.3</ele>
        <time>2024-10-21T09:01:20Z</time>
      </trkpt>
      <trkpt lat="45.84049" lon="1.18918">
        <ele>328.2</ele>
        <time>2024-10-21T09:01:21Z</time>
      </trkpt>
      <trkpt lat="45.84048" lon="1.18917">
        <ele>328.1</ele>
        <time>2024-10-21T09:01:22Z</time>
      </trkpt>
      <trkpt lat="45.84046" lon="1.18915">
        <ele>328</ele>
        <time>2024-10-21T09:01:23Z</time>
      </trkpt>
      <trkpt lat="45.84045" lon="1.18914">
        <ele>327.9</ele>
        <time>2024-10-21T09:01:24Z</time>
      </trkpt>
      <trkpt lat="45.84045" lon="1.18913">
        <ele>327.8</ele>
        <time>2024-10-21T09:01:25Z</time>
      </trkpt>
      <trkpt lat="45.84044" lon="1.18912">
        <ele>327.7</ele>
        <time>2024-10-21T09:01:26Z</time>
      </trkpt>
      <trkpt lat="45.84042" lon="1.18911">
        <ele>327.6</ele>
        <time>2024-10-21T09:01:27Z</time>
      </trkpt>
      <trkpt lat="45.84041" lon="1.18909">
        <ele>327.5</ele>
        <time>2024-10-21T09:01:28Z</time>
      </trkpt>
      <trkpt lat="45.8404" lon="1.18908">
        <ele>327.4</ele>
        <time>2024-10-21T09:01:29Z</time>
      </trkpt>
      <trkpt lat="45.8404" lon="1.18908">
        <ele>327.3</ele>
        <time>2024-10-21T09:01:30Z</time>
      </trkpt>
      <trkpt lat="45.84039" lon="1.18906">
        <ele>327.2</ele>
        <time>2024-10-21T09:01:31Z</time>
      </trkpt>
      <trkpt lat="45.84037" lon="1.18905">
        <ele>327.1</ele>
        <time>2024-10-21T09:01:32Z</time>
      </trkpt>
      <trkpt lat="45.84036" lon="1.18902">
        <ele>326.9</ele>
        <time>2024-10-21T09:01:33Z</time>
      </trkpt>
      <trkpt lat="45.84035" lon="1.18901">
        <ele>326.8</ele>
        <time>2024-10-21T09:01:34Z</time>
      </trkpt>
      <trkpt lat="45.84034" lon="1.189">
        <ele>326.7</ele>
        <time>2024-10-21T09:01:36Z</time>
      </trkpt>
      <trkpt lat="45.84032" lon="1.18898">
        <ele>326.6</ele>
        <time>2024-10-21T09:01:37Z</time>
      </trkpt>
      <trkpt lat="45.84032" lon="1.18897">
        <ele>326.5</ele>
        <time>2024-10-21T09:01:38Z</time>
      </trkpt>
      <trkpt lat="45.84031" lon="1.18896">
        <ele>326.4</ele>
        <time>2024-10-21T09:01:39Z</time>
      </trkpt>
      <trkpt lat="45.8403" lon="1.18895">
        <ele>326.3</ele>
        <time>2024-10-21T09:01:40Z</time>
      </trkpt>
      <trkpt lat="45.84029" lon="1.18893">
        <ele>326.2</ele>
        <time>2024-10-21T09:01:41Z</time>
      </trkpt>
      <trkpt lat="45.84028" lon="1.18891">
        <ele>326.1</ele>
        <time>2024-10-21T09:01:42Z</time>
      </trkpt>
      <trkpt lat="45.84027" lon="1.1889">
        <ele>326</ele>
        <time>2024-10-21T09:01:43Z</time>
      </trkpt>
      <trkpt lat="45.84027" lon="1.18889">
        <ele>325.9</ele>
        <time>2024-10-21T09:01:44Z</time>
      </trkpt>
      <trkpt lat="45.84026" lon="1.18888">
        <ele>325.8</ele>
        <time>2024-10-21T09:01:45Z</time>
      </trkpt>
      <trkpt lat="45.84025" lon="1.18886">
        <ele>325.7</ele>
        <time>2024-10-21T09:01:46Z</time>
      </trkpt>
      <trkpt lat="45.84024" lon="1.18884">
        <ele>325.5</ele>
        <time>2024-10-21T09:01:47Z</time>
      </trkpt>
      <trkpt lat="45.84022" lon="1.18883">
        <ele>325.4</ele>
        <time>2024-10-21T09:01:48Z</time>
      </trkpt>
      <trkpt lat="45.84022" lon="1.18882">
        <ele>325.3</ele>
        <time>2024-10-21T09:01:49Z</time>
      </trkpt>
      <trkpt lat="45.84021" lon="1.18882">
        <ele>325.2</ele>
        <time>2024-10-21T09:01:50Z</time>
      </trkpt>
      <trkpt lat="45.8402" lon="1.1888">
        <ele>325.1</ele>
        <time>2024-10-21T09:01:51Z</time>
      </trkpt>
      <trkpt lat="45.84018" lon="1.18879">
        <ele>324.9</ele>
        <time>2024-10-21T09:01:52Z</time>
      </trkpt>
      <trkpt lat="45.84017" lon="1.18878">
        <ele>324.7</ele>
        <time>2024-10-21T09:01:53Z</time>
      </trkpt>
      <trkpt lat="45.84016" lon="1.18877">
        <ele>324.6</ele>
        <time>2024-10-21T09:01:54Z</time>
      </trkpt>
      <trkpt lat="45.84015" lon="1.18876">
        <ele>324.6</ele>
        <time>2024-10-21T09:01:55Z</time>
      </trkpt>
      <trkpt lat="45.84014" lon="1.18875">
        <ele>324.4</ele>
        <time>2024-10-21T09:01:56Z</time>
      </trkpt>
      <trkpt lat="45.84012" lon="1.18874">
        <ele>324.2</ele>
        <time>2024-10-21T09:01:57Z</time>
      </trkpt>
      <trkpt lat="45.84012" lon="1.18873">
        <ele>324.1</ele>
        <time>2024-10-21T09:01:58Z</time>
      </trkpt>
      <trkpt lat="45.8401" lon="1.18871">
        <ele>323.9</ele>
        <time>2024-10-21T09:01:59Z</time>
      </trkpt>
      <trkpt lat="45.8401" lon="1.18871">
        <ele>323.9</ele>
        <time>2024-10-21T09:02:00Z</time>
      </trkpt>
      <trkpt lat="45.84009" lon="1.1887">
        <ele>323.8</ele>
        <time>2024-10-21T09:02:01Z</time>
      </trkpt>
      <trkpt lat="45.84007" lon="1.18868">
        <ele>323.6</ele>
        <time>2024-10-21T09:02:02Z</time>
      </trkpt>
      <trkpt lat="45.84006" lon="1.18868">
        <ele>323.5</ele>
        <time>2024-10-21T09:02:03Z</time>
      </trkpt>
      <trkpt lat="45.84006" lon="1.18867">
        <ele>323.4</ele>
        <time>2024-10-21T09:02:04Z</time>
      </trkpt>
      <trkpt lat="45.84005" lon="1.18866">
        <ele>323.2</ele>
        <time>2024-10-21T09:02:05Z</time>
      </trkpt>
      <trkpt lat="45.84004" lon="1.18864">
        <ele>323.1</ele>
        <time>2024-10-21T09:02:06Z</time>
      </trkpt>
      <trkpt lat="45.84002" lon="1.18863">
        <ele>322.9</ele>
        <time>2024-10-21T09:02:07Z</time>
      </trkpt>
      <trkpt lat="45.84" lon="1.18862">
        <ele>322.7</ele>
        <time>2024-10-21T09:02:08Z</time>
      </trkpt>
      <trkpt lat="45.83999" lon="1.18861">
        <ele>322.5</ele>
        <time>2024-10-21T09:02:10Z</time>
      </trkpt>
      <trkpt lat="45.83998" lon="1.18859">
        <ele>322.4</ele>
        <time>2024-10-21T09:02:11Z</time>
      </trkpt>
      <trkpt lat="45.83997" lon="1.18858">
        <ele>322.2</ele>
        <time>2024-10-21T09:02:12Z</time>
      </trkpt>
      <trkpt lat="45.83997" lon="1.18858">
        <ele>322.2</ele>
        <time>2024-10-21T09:02:13Z</time>
      </trkpt>
      <trkpt lat="45.83996" lon="1.18857">
        <ele>322</ele>
        <time>2024-10-21T09:02:14Z</time>
      </trkpt>
      <trkpt lat="45.83995" lon="1.18856">
        <ele>321.9</ele>
        <time>2024-10-21T09:02:15Z</time>
      </trkpt>
      <trkpt lat="45.83994" lon="1.18855">
        <ele>321.8</ele>
        <time>2024-10-21T09:02:16Z</time>
      </trkpt>
      <trkpt lat="45.83992" lon="1.18854">
        <ele>321.6</ele>
        <time>2024-10-21T09:02:17Z</time>
      </trkpt>
      <trkpt lat="45.83992" lon="1.18853">
        <ele>321.5</ele>
        <time>2024-10-21T09:02:18Z</time>
      </trkpt>
      <trkpt lat="45.83989" lon="1.18852">
        <ele>321.2</ele>
        <time>2024-10-21T09:02:19Z</time>
      </trkpt>
      <trkpt lat="45.83988" lon="1.18851">
        <ele>321.1</ele>
        <time>2024-10-21T09:02:20Z</time>
      </trkpt>
      <trkpt lat="45.83987" lon="1.18851">
        <ele>320.9</ele>
        <time>2024-10-21T09:02:21Z</time>
      </trkpt>
      <trkpt lat="45.83986" lon="1.1885">
        <ele>320.8</ele>
        <time>2024-10-21T09:02:22Z</time>
      </trkpt>
      <trkpt lat="45.83985" lon="1.1885">
        <ele>320.7</ele>
        <time>2024-10-21T09:02:23Z</time>
      </trkpt>
      <trkpt lat="45.83984" lon="1.1885">
        <ele>320.5</ele>
        <time>2024-10-21T09:02:24Z</time>
      </trkpt>
      <trkpt lat="45.83983" lon="1.1885">
        <ele>320.4</ele>
        <time>2024-10-21T09:02:25Z</time>
      </trkpt>
      <trkpt lat="45.83982" lon="1.18849">
        <ele>320.3</ele>
        <time>2024-10-21T09:02:26Z</time>
      </trkpt>
      <trkpt lat="45.83981" lon="1.18849">
        <ele>320.1</ele>
        <time>2024-10-21T09:02:27Z</time>
      </trkpt>
      <trkpt lat="45.8398" lon="1.18848">
        <ele>320</ele>
        <time>2024-10-21T09:02:28Z</time>
      </trkpt>
      <trkpt lat="45.83979" lon="1.18848">
        <ele>319.8</ele>
        <time>2024-10-21T09:02:29Z</time>
      </trkpt>
      <trkpt lat="45.83977" lon="1.18847">
        <ele>319.7</ele>
        <time>2024-10-21T09:02:30Z</time>
      </trkpt>
      <trkpt lat="45.83975" lon="1.18847">
        <ele>319.4</ele>
        <time>2024-10-21T09:02:31Z</time>
      </trkpt>
      <trkpt lat="45.83974" lon="1.18846">
        <ele>319.2</ele>
        <time>2024-10-21T09:02:32Z</time>
      </trkpt>
      <trkpt lat="45.83974" lon="1.18846">
        <ele>319.1</ele>
        <time>2024-10-21T09:02:33Z</time>
      </trkpt>
      <trkpt lat="45.83973" lon="1.18845">
        <ele>319</ele>
        <time>2024-10-21T09:02:34Z</time>
      </trkpt>
      <trkpt lat="45.83971" lon="1.18844">
        <ele>318.7</ele>
        <time>2024-10-21T09:02:35Z</time>
      </trkpt>
      <trkpt lat="45.8397" lon="1.18843">
        <ele>318.6</ele>
        <time>2024-10-21T09:02:36Z</time>
      </trkpt>
      <trkpt lat="45.83969" lon="1.18843">
        <ele>318.5</ele>
        <time>2024-10-21T09:02:37Z</time>
      </trkpt>
      <trkpt lat="45.83967" lon="1.18842">
        <ele>318.2</ele>
        <time>2024-10-21T09:02:38Z</time>
      </trkpt>
      <trkpt lat="45.83966" lon="1.18842">
        <ele>318</ele>
        <time>2024-10-21T09:02:39Z</time>
      </trkpt>
      <trkpt lat="45.83965" lon="1.18842">
        <ele>317.9</ele>
        <time>2024-10-21T09:02:40Z</time>
      </trkpt>
      <trkpt lat="45.83964" lon="1.18841">
        <ele>317.7</ele>
        <time>2024-10-21T09:02:41Z</time>
      </trkpt>
      <trkpt lat="45.83963" lon="1.18841">
        <ele>317.5</ele>
        <time>2024-10-21T09:02:42Z</time>
      </trkpt>
      <trkpt lat="45.8396" lon="1.1884">
        <ele>317.3</ele>
        <time>2024-10-21T09:02:43Z</time>
      </trkpt>
      <trkpt lat="45.8396" lon="1.1884">
        <ele>317.1</ele>
        <time>2024-10-21T09:02:44Z</time>
      </trkpt>
      <trkpt lat="45.83959" lon="1.18839">
        <ele>317</ele>
        <time>2024-10-21T09:02:45Z</time>
      </trkpt>
      <trkpt lat="45.83957" lon="1.18839">
        <ele>316.8</ele>
        <time>2024-10-21T09:02:46Z</time>
      </trkpt>
      <trkpt lat="45.83955" lon="1.18838">
        <ele>316.5</ele>
        <time>2024-10-21T09:02:47Z</time>
      </trkpt>
      <trkpt lat="45.83953" lon="1.18837">
        <ele>316.3</ele>
        <time>2024-10-21T09:02:48Z</time>
      </trkpt>
      <trkpt lat="45.83952" lon="1.18837">
        <ele>316.2</ele>
        <time>2024-10-21T09:02:50Z</time>
      </trkpt>
      <trkpt lat="45.8395" lon="1.18836">
        <ele>316</ele>
        <time>2024-10-21T09:02:51Z</time>
      </trkpt>
      <trkpt lat="45.83949" lon="1.18836">
        <ele>315.8</ele>
        <time>2024-10-21T09:02:52Z</time>
      </trkpt>
      <trkpt lat="45.83948" lon="1.18835">
        <ele>315.7</ele>
        <time>2024-10-21T09:02:53Z</time>
      </trkpt>
      <trkpt lat="45.83946" lon="1.18835">
        <ele>315.6</ele>
        <time>2024-10-21T09:02:54Z</time>
      </trkpt>
      <trkpt lat="45.83945" lon="1.18834">
        <ele>315.4</ele>
        <time>2024-10-21T09:02:55Z</time>
      </trkpt>
      <trkpt lat="45.83944" lon="1.18834">
        <ele>315.3</ele>
        <time>2024-10-21T09:02:56Z</time>
      </trkpt>
      <trkpt lat="45.83942" lon="1.18833">
        <ele>315.2</ele>
        <time>2024-10-21T09:02:57Z</time>
      </trkpt>
      <trkpt lat="45.83941" lon="1.18833">
        <ele>315</ele>
        <time>2024-10-21T09:02:58Z</time>
      </trkpt>
      <trkpt lat="45.83939" lon="1.18833">
        <ele>314.9</ele>
        <time>2024-10-21T09:02:59Z</time>
      </trkpt>
      <trkpt lat="45.83937" lon="1.18832">
        <ele>314.7</ele>
        <time>2024-10-21T09:03:00Z</time>
      </trkpt>
      <trkpt lat="45.83936" lon="1.18832">
        <ele>314.7</ele>
        <time>2024-10-21T09:03:01Z</time>
      </trkpt>
      <trkpt lat="45.83936" lon="1.18831">
        <ele>314.6</ele>
        <time>2024-10-21T09:03:02Z</time>
      </trkpt>
      <trkpt lat="45.83934" lon="1.18831">
        <ele>314.5</ele>
        <time>2024-10-21T09:03:03Z</time>
      </trkpt>
      <trkpt lat="45.83933" lon="1.18831">
        <ele>314.4</ele>
        <time>2024-10-21T09:03:04Z</time>
      </trkpt>
      <trkpt lat="45.83931" lon="1.18831">
        <ele>314.3</ele>
        <time>2024-10-21T09:03:05Z</time>
      </trkpt>
      <trkpt lat="45.8393" lon="1.1883">
        <ele>314.2</ele>
        <time>2024-10-21T09:03:06Z</time>
      </trkpt>
      <trkpt lat="45.83928" lon="1.1883">
        <ele>314.1</ele>
        <time>2024-10-21T09:03:07Z</time>
      </trkpt>
      <trkpt lat="45.83927" lon="1.1883">
        <ele>314</ele>
        <time>2024-10-21T09:03:08Z</time>
      </trkpt>
      <trkpt lat="45.83926" lon="1.18829">
        <ele>313.9</ele>
        <time>2024-10-21T09:03:09Z</time>
      </trkpt>
      <trkpt lat="45.83924" lon="1.18829">
        <ele>313.9</ele>
        <time>2024-10-21T09:03:10Z</time>
      </trkpt>
      <trkpt lat="45.83923" lon="1.18829">
        <ele>313.9</ele>
        <time>2024-10-21T09:03:11Z</time>
      </trkpt>
      <trkpt lat="45.83921" lon="1.18829">
        <ele>313.8</ele>
        <time>2024-10-21T09:03:12Z</time>
      </trkpt>
      <trkpt lat="45.83919" lon="1.18828">
        <ele>313.8</ele>
        <time>2024-10-21T09:03:13Z</time>
      </trkpt>
      <trkpt lat="45.83918" lon="1.18828">
        <ele>313.8</ele>
        <time>2024-10-21T09:03:14Z</time>
      </trkpt>
      <trkpt lat="45.83917" lon="1.18828">
        <ele>313.7</ele>
        <time>2024-10-21T09:03:15Z</time>
      </trkpt>
      <trkpt lat="45.83916" lon="1.18827">
        <ele>313.7</ele>
        <time>2024-10-21T09:03:16Z</time>
      </trkpt>
      <trkpt lat="45.83914" lon="1.18827">
        <ele>313.7</ele>
        <time>2024-10-21T09:03:17Z</time>
      </trkpt>
      <trkpt lat="45.83911" lon="1.18826">
        <ele>313.6</ele>
        <time>2024-10-21T09:03:18Z</time>
      </trkpt>
      <trkpt lat="45.8391" lon="1.18825">
        <ele>313.6</ele>
        <time>2024-10-21T09:03:19Z</time>
      </trkpt>
      <trkpt lat="45.83907" lon="1.18823">
        <ele>313.5</ele>
        <time>2024-10-21T09:03:20Z</time>
      </trkpt>
      <trkpt lat="45.83906" lon="1.18822">
        <ele>313.5</ele>
        <time>2024-10-21T09:03:21Z</time>
      </trkpt>
      <trkpt lat="45.83904" lon="1.18821">
        <ele>313.5</ele>
        <time>2024-10-21T09:03:22Z</time>
      </trkpt>
      <trkpt lat="45.83903" lon="1.1882">
        <ele>313.5</ele>
        <time>2024-10-21T09:03:23Z</time>
      </trkpt>
      <trkpt lat="45.83901" lon="1.18819">
        <ele>313.5</ele>
        <time>2024-10-21T09:03:24Z</time>
      </trkpt>
      <trkpt lat="45.839" lon="1.18818">
        <ele>313.5</ele>
        <time>2024-10-21T09:03:25Z</time>
      </trkpt>
      <trkpt lat="45.83899" lon="1.18818">
        <ele>313.5</ele>
        <time>2024-10-21T09:03:26Z</time>
      </trkpt>
      <trkpt lat="45.83898" lon="1.18817">
        <ele>313.5</ele>
        <time>2024-10-21T09:03:27Z</time>
      </trkpt>
      <trkpt lat="45.83897" lon="1.18817">
        <ele>313.5</ele>
        <time>2024-10-21T09:03:28Z</time>
      </trkpt>
      <trkpt lat="45.83895" lon="1.18816">
        <ele>313.4</ele>
        <time>2024-10-21T09:03:29Z</time>
      </trkpt>
      <trkpt lat="45.83894" lon="1.18816">
        <ele>313.4</ele>
        <time>2024-10-21T09:03:30Z</time>
      </trkpt>
      <trkpt lat="45.83893" lon="1.18816">
        <ele>313.4</ele>
        <time>2024-10-21T09:03:31Z</time>
      </trkpt>
      <trkpt lat="45.83892" lon="1.18816">
        <ele>313.4</ele>
        <time>2024-10-21T09:03:32Z</time>
      </trkpt>
      <trkpt lat="45.83891" lon="1.18816">
        <ele>313.4</ele>
        <time>2024-10-21T09:03:33Z</time>
      </trkpt>
      <trkpt lat="45.8389" lon="1.18816">
        <ele>313.5</ele>
        <time>2024-10-21T09:03:34Z</time>
      </trkpt>
      <trkpt lat="45.83888" lon="1.18815">
        <ele>313.5</ele>
        <time>2024-10-21T09:03:35Z</time>
      </trkpt>
      <trkpt lat="45.83887" lon="1.18815">
        <ele>313.5</ele>
        <time>2024-10-21T09:03:36Z</time>
      </trkpt>
      <trkpt lat="45.83886" lon="1.18815">
        <ele>313.5</ele>
        <time>2024-10-21T09:03:37Z</time>
      </trkpt>
      <trkpt lat="45.83885" lon="1.18815">
        <ele>313.5</ele>
        <time>2024-10-21T09:03:38Z</time>
      </trkpt>
      <trkpt lat="45.83884" lon="1.18815">
        <ele>313.5</ele>
        <time>2024-10-21T09:03:39Z</time>
      </trkpt>
      <trkpt lat="45.83883" lon="1.18814">
        <ele>313.5</ele>
        <time>2024-10-21T09:03:40Z</time>
      </trkpt>
      <trkpt lat="45.83881" lon="1.18814">
        <ele>313.5</ele>
        <time>2024-10-21T09:03:41Z</time>
      </trkpt>
      <trkpt lat="45.8388" lon="1.18815">
        <ele>313.5</ele>
        <time>2024-10-21T09:03:42Z</time>
      </trkpt>
      <trkpt lat="45.83878" lon="1.18815">
        <ele>313.5</ele>
        <time>2024-10-21T09:03:43Z</time>
      </trkpt>
      <trkpt lat="45.83877" lon="1.18815">
        <ele>313.6</ele>
        <time>2024-10-21T09:03:44Z</time>
      </trkpt>
      <trkpt lat="45.83876" lon="1.18814">
        <ele>313.6</ele>
        <time>2024-10-21T09:03:45Z</time>
      </trkpt>
      <trkpt lat="45.83874" lon="1.18814">
        <ele>313.6</ele>
        <time>2024-10-21T09:03:46Z</time>
      </trkpt>
      <trkpt lat="45.83873" lon="1.18813">
        <ele>313.6</ele>
        <time>2024-10-21T09:03:47Z</time>
      </trkpt>
      <trkpt lat="45.83872" lon="1.18813">
        <ele>313.6</ele>
        <time>2024-10-21T09:03:48Z</time>
      </trkpt>
      <trkpt lat="45.83871" lon="1.18812">
        <ele>313.6</ele>
        <time>2024-10-21T09:03:49Z</time>
      </trkpt>
      <trkpt lat="45.8387" lon="1.18811">
        <ele>313.6</ele>
        <time>2024-10-21T09:03:50Z</time>
      </trkpt>
      <trkpt lat="45.83869" lon="1.18811">
        <ele>313.7</ele>
        <time>2024-10-21T09:03:51Z</time>
      </trkpt>
      <trkpt lat="45.83868" lon="1.1881">
        <ele>313.7</ele>
        <time>2024-10-21T09:03:52Z</time>
      </trkpt>
      <trkpt lat="45.83866" lon="1.18809">
        <ele>313.7</ele>
        <time>2024-10-21T09:03:53Z</time>
      </trkpt>
      <trkpt lat="45.83865" lon="1.18809">
        <ele>313.7</ele>
        <time>2024-10-21T09:03:54Z</time>
      </trkpt>
      <trkpt lat="45.83865" lon="1.18808">
        <ele>313.7</ele>
        <time>2024-10-21T09:03:55Z</time>
      </trkpt>
      <trkpt lat="45.83863" lon="1.18807">
        <ele>313.7</ele>
        <time>2024-10-21T09:03:56Z</time>
      </trkpt>
      <trkpt lat="45.83862" lon="1.18807">
        <ele>313.7</ele>
        <time>2024-10-21T09:03:57Z</time>
      </trkpt>
      <trkpt lat="45.8386" lon="1.18805">
        <ele>313.8</ele>
        <time>2024-10-21T09:03:58Z</time>
      </trkpt>
      <trkpt lat="45.8386" lon="1.18804">
        <ele>313.8</ele>
        <time>2024-10-21T09:03:59Z</time>
      </trkpt>
      <trkpt lat="45.83859" lon="1.18803">
        <ele>313.8</ele>
        <time>2024-10-21T09:04:00Z</time>
      </trkpt>
      <trkpt lat="45.83858" lon="1.18802">
        <ele>313.8</ele>
        <time>2024-10-21T09:04:01Z</time>
      </trkpt>
      <trkpt lat="45.83857" lon="1.18801">
        <ele>313.8</ele>
        <time>2024-10-21T09:04:02Z</time>
      </trkpt>
      <trkpt lat="45.83856" lon="1.18799">
        <ele>313.8</ele>
        <time>2024-10-21T09:04:03Z</time>
      </trkpt>
      <trkpt lat="45.83855" lon="1.18798">
        <ele>313.8</ele>
        <time>2024-10-21T09:04:04Z</time>
      </trkpt>
      <trkpt lat="45.83853" lon="1.18796">
        <ele>313.8</ele>
        <time>2024-10-21T09:04:05Z</time>
      </trkpt>
      <trkpt lat="45.83852" lon="1.18796">
        <ele>313.8</ele>
        <time>2024-10-21T09:04:06Z</time>
      </trkpt>
      <trkpt lat="45.83852" lon="1.18795">
        <ele>313.8</ele>
        <time>2024-10-21T09:04:07Z</time>
      </trkpt>
      <trkpt lat="45.8385" lon="1.18795">
        <ele>313.8</ele>
        <time>2024-10-21T09:04:08Z</time>
      </trkpt>
      <trkpt lat="45.8385" lon="1.18795">
        <ele>313.8</ele>
        <time>2024-10-21T09:04:09Z</time>
      </trkpt>
      <trkpt lat="45.83847" lon="1.18794">
        <ele>313.8</ele>
        <time>2024-10-21T09:04:10Z</time>
      </trkpt>
      <trkpt lat="45.83846" lon="1.18794">
        <ele>313.8</ele>
        <time>2024-10-21T09:04:11Z</time>
      </trkpt>
      <trkpt lat="45.83844" lon="1.18795">
        <ele>313.8</ele>
        <time>2024-10-21T09:04:12Z</time>
      </trkpt>
      <trkpt lat="45.83844" lon="1.18796">
        <ele>313.8</ele>
        <time>2024-10-21T09:04:13Z</time>
      </trkpt>
      <trkpt lat="45.83843" lon="1.18796">
        <ele>313.8</ele>
        <time>2024-10-21T09:04:14Z</time>
      </trkpt>
      <trkpt lat="45.83842" lon="1.18796">
        <ele>313.8</ele>
        <time>2024-10-21T09:04:15Z</time>
      </trkpt>
      <trkpt lat="45.83842" lon="1.18797">
        <ele>313.8</ele>
        <time>2024-10-21T09:04:16Z</time>
      </trkpt>
      <trkpt lat="45.83841" lon="1.18797">
        <ele>313.8</ele>
        <time>2024-10-21T09:04:18Z</time>
      </trkpt>
      <trkpt lat="45.8384" lon="1.18797">
        <ele>313.8</ele>
        <time>2024-10-21T09:04:19Z</time>
      </trkpt>
      <trkpt lat="45.8384" lon="1.18798">
        <ele>313.8</ele>
        <time>2024-10-21T09:04:20Z</time>
      </trkpt>
      <trkpt lat="45.8384" lon="1.18798">
        <ele>313.8</ele>
        <time>2024-10-21T09:04:21Z</time>
      </trkpt>
      <trkpt lat="45.83839" lon="1.18799">
        <ele>313.8</ele>
        <time>2024-10-21T09:04:22Z</time>
      </trkpt>
      <trkpt lat="45.83838" lon="1.18798">
        <ele>313.8</ele>
        <time>2024-10-21T09:04:23Z</time>
      </trkpt>
      <trkpt lat="45.83837" lon="1.18798">
        <ele>313.8</ele>
        <time>2024-10-21T09:04:24Z</time>
      </trkpt>
      <trkpt lat="45.83835" lon="1.18797">
        <ele>313.9</ele>
        <time>2024-10-21T09:04:25Z</time>
      </trkpt>
      <trkpt lat="45.83834" lon="1.18797">
        <ele>313.9</ele>
        <time>2024-10-21T09:04:26Z</time>
      </trkpt>
      <trkpt lat="45.83834" lon="1.18797">
        <ele>313.9</ele>
        <time>2024-10-21T09:04:27Z</time>
      </trkpt>
      <trkpt lat="45.83832" lon="1.18796">
        <ele>313.9</ele>
        <time>2024-10-21T09:04:28Z</time>
      </trkpt>
      <trkpt lat="45.8383" lon="1.18795">
        <ele>313.9</ele>
        <time>2024-10-21T09:04:30Z</time>
      </trkpt>
      <trkpt lat="45.83829" lon="1.18795">
        <ele>313.9</ele>
        <time>2024-10-21T09:04:31Z</time>
      </trkpt>
      <trkpt lat="45.83828" lon="1.18793">
        <ele>313.9</ele>
        <time>2024-10-21T09:04:32Z</time>
      </trkpt>
      <trkpt lat="45.83826" lon="1.18792">
        <ele>313.9</ele>
        <time>2024-10-21T09:04:33Z</time>
      </trkpt>
      <trkpt lat="45.83825" lon="1.18791">
        <ele>314</ele>
        <time>2024-10-21T09:04:34Z</time>
      </trkpt>
      <trkpt lat="45.83823" lon="1.1879">
        <ele>314</ele>
        <time>2024-10-21T09:04:35Z</time>
      </trkpt>
      <trkpt lat="45.83821" lon="1.18788">
        <ele>314</ele>
        <time>2024-10-21T09:04:36Z</time>
      </trkpt>
      <trkpt lat="45.83819" lon="1.18786">
        <ele>314.1</ele>
        <time>2024-10-21T09:04:38Z</time>
      </trkpt>
      <trkpt lat="45.83818" lon="1.18785">
        <ele>314.1</ele>
        <time>2024-10-21T09:04:39Z</time>
      </trkpt>
      <trkpt lat="45.83816" lon="1.18784">
        <ele>314.2</ele>
        <time>2024-10-21T09:04:40Z</time>
      </trkpt>
      <trkpt lat="45.83815" lon="1.18783">
        <ele>314.2</ele>
        <time>2024-10-21T09:04:41Z</time>
      </trkpt>
      <trkpt lat="45.83813" lon="1.18782">
        <ele>314.3</ele>
        <time>2024-10-21T09:04:42Z</time>
      </trkpt>
      <trkpt lat="45.83812" lon="1.1878">
        <ele>314.4</ele>
        <time>2024-10-21T09:04:43Z</time>
      </trkpt>
      <trkpt lat="45.8381" lon="1.1878">
        <ele>314.4</ele>
        <time>2024-10-21T09:04:44Z</time>
      </trkpt>
      <trkpt lat="45.83809" lon="1.18779">
        <ele>314.4</ele>
        <time>2024-10-21T09:04:45Z</time>
      </trkpt>
      <trkpt lat="45.83808" lon="1.18778">
        <ele>314.5</ele>
        <time>2024-10-21T09:04:46Z</time>
      </trkpt>
      <trkpt lat="45.83806" lon="1.18777">
        <ele>314.5</ele>
        <time>2024-10-21T09:04:47Z</time>
      </trkpt>
      <trkpt lat="45.83804" lon="1.18776">
        <ele>314.6</ele>
        <time>2024-10-21T09:04:48Z</time>
      </trkpt>
      <trkpt lat="45.83803" lon="1.18775">
        <ele>314.7</ele>
        <time>2024-10-21T09:04:49Z</time>
      </trkpt>
      <trkpt lat="45.83802" lon="1.18774">
        <ele>314.7</ele>
        <time>2024-10-21T09:04:50Z</time>
      </trkpt>
      <trkpt lat="45.83801" lon="1.18773">
        <ele>314.7</ele>
        <time>2024-10-21T09:04:51Z</time>
      </trkpt>
      <trkpt lat="45.83799" lon="1.18772">
        <ele>314.8</ele>
        <time>2024-10-21T09:04:52Z</time>
      </trkpt>
      <trkpt lat="45.83797" lon="1.18771">
        <ele>314.9</ele>
        <time>2024-10-21T09:04:53Z</time>
      </trkpt>
      <trkpt lat="45.83797" lon="1.1877">
        <ele>314.9</ele>
        <time>2024-10-21T09:04:54Z</time>
      </trkpt>
      <trkpt lat="45.83795" lon="1.18769">
        <ele>315</ele>
        <time>2024-10-21T09:04:55Z</time>
      </trkpt>
      <trkpt lat="45.83794" lon="1.18768">
        <ele>315</ele>
        <time>2024-10-21T09:04:56Z</time>
      </trkpt>
      <trkpt lat="45.83793" lon="1.18767">
        <ele>315</ele>
        <time>2024-10-21T09:04:57Z</time>
      </trkpt>
      <trkpt lat="45.83792" lon="1.18766">
        <ele>315.1</ele>
        <time>2024-10-21T09:04:58Z</time>
      </trkpt>
      <trkpt lat="45.83791" lon="1.18766">
        <ele>315.1</ele>
        <time>2024-10-21T09:04:59Z</time>
      </trkpt>
      <trkpt lat="45.83789" lon="1.18765">
        <ele>315.2</ele>
        <time>2024-10-21T09:05:00Z</time>
      </trkpt>
      <trkpt lat="45.83788" lon="1.18764">
        <ele>315.2</ele>
        <time>2024-10-21T09:05:01Z</time>
      </trkpt>
      <trkpt lat="45.83786" lon="1.18763">
        <ele>315.3</ele>
        <time>2024-10-21T09:05:02Z</time>
      </trkpt>
      <trkpt lat="45.83785" lon="1.18762">
        <ele>315.3</ele>
        <time>2024-10-21T09:05:03Z</time>
      </trkpt>
      <trkpt lat="45.83783" lon="1.18761">
        <ele>315.4</ele>
        <time>2024-10-21T09:05:04Z</time>
      </trkpt>
      <trkpt lat="45.83782" lon="1.18761">
        <ele>315.4</ele>
        <time>2024-10-21T09:05:05Z</time>
      </trkpt>
      <trkpt lat="45.83781" lon="1.1876">
        <ele>315.4</ele>
        <time>2024-10-21T09:05:06Z</time>
      </trkpt>
      <trkpt lat="45.83778" lon="1.18759">
        <ele>315.5</ele>
        <time>2024-10-21T09:05:07Z</time>
      </trkpt>
      <trkpt lat="45.83777" lon="1.18758">
        <ele>315.5</ele>
        <time>2024-10-21T09:05:08Z</time>
      </trkpt>
      <trkpt lat="45.83776" lon="1.18758">
        <ele>315.6</ele>
        <time>2024-10-21T09:05:09Z</time>
      </trkpt>
      <trkpt lat="45.83775" lon="1.18757">
        <ele>315.6</ele>
        <time>2024-10-21T09:05:10Z</time>
      </trkpt>
      <trkpt lat="45.83774" lon="1.18757">
        <ele>315.6</ele>
        <time>2024-10-21T09:05:11Z</time>
      </trkpt>
      <trkpt lat="45.83773" lon="1.18756">
        <ele>315.6</ele>
        <time>2024-10-21T09:05:12Z</time>
      </trkpt>
      <trkpt lat="45.83771" lon="1.18755">
        <ele>315.7</ele>
        <time>2024-10-21T09:05:13Z</time>
      </trkpt>
      <trkpt lat="45.83769" lon="1.18754">
        <ele>315.7</ele>
        <time>2024-10-21T09:05:14Z</time>
      </trkpt>
      <trkpt lat="45.83769" lon="1.18753">
        <ele>315.8</ele>
        <time>2024-10-21T09:05:15Z</time>
      </trkpt>
      <trkpt lat="45.83768" lon="1.18753">
        <ele>315.8</ele>
        <time>2024-10-21T09:05:16Z</time>
      </trkpt>
      <trkpt lat="45.83766" lon="1.18752">
        <ele>315.9</ele>
        <time>2024-10-21T09:05:17Z</time>
      </trkpt>
      <trkpt lat="45.83764" lon="1.18751">
        <ele>315.9</ele>
        <time>2024-10-21T09:05:18Z</time>
      </trkpt>
      <trkpt lat="45.83763" lon="1.18749">
        <ele>316</ele>
        <time>2024-10-21T09:05:19Z</time>
      </trkpt>
      <trkpt lat="45.83762" lon="1.18748">
        <ele>316</ele>
        <time>2024-10-21T09:05:20Z</time>
      </trkpt>
      <trkpt lat="45.83762" lon="1.18747">
        <ele>316</ele>
        <time>2024-10-21T09:05:21Z</time>
      </trkpt>
      <trkpt lat="45.83761" lon="1.18746">
        <ele>316.1</ele>
        <time>2024-10-21T09:05:22Z</time>
      </trkpt>
      <trkpt lat="45.83761" lon="1.18744">
        <ele>316.2</ele>
        <time>2024-10-21T09:05:23Z</time>
      </trkpt>
      <trkpt lat="45.83761" lon="1.18742">
        <ele>316.3</ele>
        <time>2024-10-21T09:05:24Z</time>
      </trkpt>
      <trkpt lat="45.83762" lon="1.1874">
        <ele>316.4</ele>
        <time>2024-10-21T09:05:25Z</time>
      </trkpt>
      <trkpt lat="45.83762" lon="1.18738">
        <ele>316.5</ele>
        <time>2024-10-21T09:05:26Z</time>
      </trkpt>
      <trkpt lat="45.83763" lon="1.18736">
        <ele>316.6</ele>
        <time>2024-10-21T09:05:27Z</time>
      </trkpt>
      <trkpt lat="45.83764" lon="1.18733">
        <ele>316.7</ele>
        <time>2024-10-21T09:05:28Z</time>
      </trkpt>
      <trkpt lat="45.83765" lon="1.18732">
        <ele>316.8</ele>
        <time>2024-10-21T09:05:29Z</time>
      </trkpt>
      <trkpt lat="45.83765" lon="1.1873">
        <ele>316.8</ele>
        <time>2024-10-21T09:05:30Z</time>
      </trkpt>
      <trkpt lat="45.83766" lon="1.18728">
        <ele>316.9</ele>
        <time>2024-10-21T09:05:31Z</time>
      </trkpt>
      <trkpt lat="45.83767" lon="1.18724">
        <ele>317.1</ele>
        <time>2024-10-21T09:05:32Z</time>
      </trkpt>
      <trkpt lat="45.83768" lon="1.18723">
        <ele>317.2</ele>
        <time>2024-10-21T09:05:33Z</time>
      </trkpt>
      <trkpt lat="45.83769" lon="1.18721">
        <ele>317.3</ele>
        <time>2024-10-21T09:05:34Z</time>
      </trkpt>
      <trkpt lat="45.83769" lon="1.18719">
        <ele>317.3</ele>
        <time>2024-10-21T09:05:35Z</time>
      </trkpt>
      <trkpt lat="45.83769" lon="1.18718">
        <ele>317.4</ele>
        <time>2024-10-21T09:05:36Z</time>
      </trkpt>
      <trkpt lat="45.8377" lon="1.18717">
        <ele>317.5</ele>
        <time>2024-10-21T09:05:37Z</time>
      </trkpt>
      <trkpt lat="45.83771" lon="1.18715">
        <ele>317.5</ele>
        <time>2024-10-21T09:05:38Z</time>
      </trkpt>
      <trkpt lat="45.83771" lon="1.18713">
        <ele>317.6</ele>
        <time>2024-10-21T09:05:39Z</time>
      </trkpt>
      <trkpt lat="45.83771" lon="1.18712">
        <ele>317.6</ele>
        <time>2024-10-21T09:05:40Z</time>
      </trkpt>
      <trkpt lat="45.83771" lon="1.18711">
        <ele>317.7</ele>
        <time>2024-10-21T09:05:41Z</time>
      </trkpt>
      <trkpt lat="45.83772" lon="1.1871">
        <ele>317.7</ele>
        <time>2024-10-21T09:05:42Z</time>
      </trkpt>
      <trkpt lat="45.83772" lon="1.18709">
        <ele>317.8</ele>
        <time>2024-10-21T09:05:43Z</time>
      </trkpt>
      <trkpt lat="45.83772" lon="1.18709">
        <ele>317.8</ele>
        <time>2024-10-21T09:05:44Z</time>
      </trkpt>
      <trkpt lat="45.83772" lon="1.18708">
        <ele>317.8</ele>
        <time>2024-10-21T09:05:45Z</time>
      </trkpt>
      <trkpt lat="45.83772" lon="1.18707">
        <ele>317.9</ele>
        <time>2024-10-21T09:05:46Z</time>
      </trkpt>
      <trkpt lat="45.83772" lon="1.18706">
        <ele>317.9</ele>
        <time>2024-10-21T09:05:47Z</time>
      </trkpt>
      <trkpt lat="45.83772" lon="1.18704">
        <ele>318</ele>
        <time>2024-10-21T09:05:48Z</time>
      </trkpt>
      <trkpt lat="45.83772" lon="1.18704">
        <ele>318</ele>
        <time>2024-10-21T09:05:49Z</time>
      </trkpt>
      <trkpt lat="45.83771" lon="1.18703">
        <ele>318.1</ele>
        <time>2024-10-21T09:05:50Z</time>
      </trkpt>
      <trkpt lat="45.83771" lon="1.18702">
        <ele>318.2</ele>
        <time>2024-10-21T09:05:51Z</time>
      </trkpt>
      <trkpt lat="45.83771" lon="1.18697">
        <ele>318.4</ele>
        <time>2024-10-21T09:05:52Z</time>
      </trkpt>
      <trkpt lat="45.83773" lon="1.18695">
        <ele>318.5</ele>
        <time>2024-10-21T09:05:54Z</time>
      </trkpt>
      <trkpt lat="45.83774" lon="1.18694">
        <ele>318.6</ele>
        <time>2024-10-21T09:05:55Z</time>
      </trkpt>
      <trkpt lat="45.83775" lon="1.18693">
        <ele>318.7</ele>
        <time>2024-10-21T09:05:56Z</time>
      </trkpt>
      <trkpt lat="45.83775" lon="1.18691">
        <ele>318.8</ele>
        <time>2024-10-21T09:05:57Z</time>
      </trkpt>
      <trkpt lat="45.83777" lon="1.18689">
        <ele>318.9</ele>
        <time>2024-10-21T09:05:58Z</time>
      </trkpt>
      <trkpt lat="45.83778" lon="1.18685">
        <ele>319.1</ele>
        <time>2024-10-21T09:05:59Z</time>
      </trkpt>
      <trkpt lat="45.83779" lon="1.18683">
        <ele>319.2</ele>
        <time>2024-10-21T09:06:00Z</time>
      </trkpt>
      <trkpt lat="45.8378" lon="1.18682">
        <ele>319.3</ele>
        <time>2024-10-21T09:06:01Z</time>
      </trkpt>
      <trkpt lat="45.83781" lon="1.1868">
        <ele>319.4</ele>
        <time>2024-10-21T09:06:02Z</time>
      </trkpt>
      <trkpt lat="45.83782" lon="1.18678">
        <ele>319.5</ele>
        <time>2024-10-21T09:06:03Z</time>
      </trkpt>
      <trkpt lat="45.83783" lon="1.18677">
        <ele>319.6</ele>
        <time>2024-10-21T09:06:04Z</time>
      </trkpt>
      <trkpt lat="45.83784" lon="1.18676">
        <ele>319.6</ele>
        <time>2024-10-21T09:06:05Z</time>
      </trkpt>
      <trkpt lat="45.83784" lon="1.18674">
        <ele>319.7</ele>
        <time>2024-10-21T09:06:06Z</time>
      </trkpt>
      <trkpt lat="45.83785" lon="1.18672">
        <ele>319.8</ele>
        <time>2024-10-21T09:06:07Z</time>
      </trkpt>
      <trkpt lat="45.83786" lon="1.1867">
        <ele>319.9</ele>
        <time>2024-10-21T09:06:08Z</time>
      </trkpt>
      <trkpt lat="45.83787" lon="1.18668">
        <ele>320</ele>
        <time>2024-10-21T09:06:09Z</time>
      </trkpt>
      <trkpt lat="45.83788" lon="1.18666">
        <ele>320.1</ele>
        <time>2024-10-21T09:06:10Z</time>
      </trkpt>
      <trkpt lat="45.83789" lon="1.18664">
        <ele>320.2</ele>
        <time>2024-10-21T09:06:11Z</time>
      </trkpt>
      <trkpt lat="45.83789" lon="1.18663">
        <ele>320.3</ele>
        <time>2024-10-21T09:06:12Z</time>
      </trkpt>
      <trkpt lat="45.8379" lon="1.18661">
        <ele>320.3</ele>
        <time>2024-10-21T09:06:13Z</time>
      </trkpt>
      <trkpt lat="45.83791" lon="1.1866">
        <ele>320.4</ele>
        <time>2024-10-21T09:06:14Z</time>
      </trkpt>
      <trkpt lat="45.83792" lon="1.18658">
        <ele>320.5</ele>
        <time>2024-10-21T09:06:15Z</time>
      </trkpt>
      <trkpt lat="45.83792" lon="1.18657">
        <ele>320.6</ele>
        <time>2024-10-21T09:06:16Z</time>
      </trkpt>
      <trkpt lat="45.83793" lon="1.18655">
        <ele>320.7</ele>
        <time>2024-10-21T09:06:17Z</time>
      </trkpt>
      <trkpt lat="45.83794" lon="1.18654">
        <ele>320.8</ele>
        <time>2024-10-21T09:06:18Z</time>
      </trkpt>
      <trkpt lat="45.83795" lon="1.18653">
        <ele>320.8</ele>
        <time>2024-10-21T09:06:19Z</time>
      </trkpt>
      <trkpt lat="45.83796" lon="1.18651">
        <ele>320.9</ele>
        <time>2024-10-21T09:06:20Z</time>
      </trkpt>
      <trkpt lat="45.83797" lon="1.1865">
        <ele>321</ele>
        <time>2024-10-21T09:06:21Z</time>
      </trkpt>
      <trkpt lat="45.83797" lon="1.18648">
        <ele>321.1</ele>
        <time>2024-10-21T09:06:22Z</time>
      </trkpt>
      <trkpt lat="45.83798" lon="1.18647">
        <ele>321.2</ele>
        <time>2024-10-21T09:06:23Z</time>
      </trkpt>
      <trkpt lat="45.83798" lon="1.18645">
        <ele>321.3</ele>
        <time>2024-10-21T09:06:24Z</time>
      </trkpt>
      <trkpt lat="45.83799" lon="1.18643">
        <ele>321.4</ele>
        <time>2024-10-21T09:06:25Z</time>
      </trkpt>
      <trkpt lat="45.83799" lon="1.18641">
        <ele>321.4</ele>
        <time>2024-10-21T09:06:26Z</time>
      </trkpt>
      <trkpt lat="45.838" lon="1.1864">
        <ele>321.5</ele>
        <time>2024-10-21T09:06:27Z</time>
      </trkpt>
      <trkpt lat="45.838" lon="1.18638">
        <ele>321.6</ele>
        <time>2024-10-21T09:06:28Z</time>
      </trkpt>
      <trkpt lat="45.83801" lon="1.18635">
        <ele>321.8</ele>
        <time>2024-10-21T09:06:29Z</time>
      </trkpt>
      <trkpt lat="45.83801" lon="1.18634">
        <ele>321.8</ele>
        <time>2024-10-21T09:06:30Z</time>
      </trkpt>
      <trkpt lat="45.83801" lon="1.18633">
        <ele>321.9</ele>
        <time>2024-10-21T09:06:31Z</time>
      </trkpt>
      <trkpt lat="45.83801" lon="1.18631">
        <ele>321.9</ele>
        <time>2024-10-21T09:06:32Z</time>
      </trkpt>
      <trkpt lat="45.83801" lon="1.1863">
        <ele>322</ele>
        <time>2024-10-21T09:06:33Z</time>
      </trkpt>
      <trkpt lat="45.83801" lon="1.18629">
        <ele>322.1</ele>
        <time>2024-10-21T09:06:34Z</time>
      </trkpt>
      <trkpt lat="45.83801" lon="1.18628">
        <ele>322.1</ele>
        <time>2024-10-21T09:06:35Z</time>
      </trkpt>
      <trkpt lat="45.83801" lon="1.18627">
        <ele>322.2</ele>
        <time>2024-10-21T09:06:36Z</time>
      </trkpt>
      <trkpt lat="45.83801" lon="1.18626">
        <ele>322.2</ele>
        <time>2024-10-21T09:06:37Z</time>
      </trkpt>
      <trkpt lat="45.83801" lon="1.18625">
        <ele>322.3</ele>
        <time>2024-10-21T09:06:38Z</time>
      </trkpt>
      <trkpt lat="45.83802" lon="1.18624">
        <ele>322.3</ele>
        <time>2024-10-21T09:06:39Z</time>
      </trkpt>
      <trkpt lat="45.83802" lon="1.18622">
        <ele>322.4</ele>
        <time>2024-10-21T09:06:40Z</time>
      </trkpt>
      <trkpt lat="45.83803" lon="1.18622">
        <ele>322.5</ele>
        <time>2024-10-21T09:06:41Z</time>
      </trkpt>
      <trkpt lat="45.83803" lon="1.18622">
        <ele>322.5</ele>
        <time>2024-10-21T09:06:42Z</time>
      </trkpt>
      <trkpt lat="45.83804" lon="1.18622">
        <ele>322.6</ele>
        <time>2024-10-21T09:06:43Z</time>
      </trkpt>
      <trkpt lat="45.83806" lon="1.18622">
        <ele>322.7</ele>
        <time>2024-10-21T09:06:44Z</time>
      </trkpt>
      <trkpt lat="45.83807" lon="1.18621">
        <ele>322.8</ele>
        <time>2024-10-21T09:06:45Z</time>
      </trkpt>
      <trkpt lat="45.83808" lon="1.18619">
        <ele>322.9</ele>
        <time>2024-10-21T09:06:46Z</time>
      </trkpt>
      <trkpt lat="45.83809" lon="1.18617">
        <ele>323</ele>
        <time>2024-10-21T09:06:47Z</time>
      </trkpt>
      <trkpt lat="45.83809" lon="1.18617">
        <ele>323.1</ele>
        <time>2024-10-21T09:06:48Z</time>
      </trkpt>
      <trkpt lat="45.83808" lon="1.18618">
        <ele>323.1</ele>
        <time>2024-10-21T09:06:49Z</time>
      </trkpt>
      <trkpt lat="45.83807" lon="1.1862">
        <ele>323.2</ele>
        <time>2024-10-21T09:06:50Z</time>
      </trkpt>
      <trkpt lat="45.83807" lon="1.1862">
        <ele>323.2</ele>
        <time>2024-10-21T09:06:51Z</time>
      </trkpt>
      <trkpt lat="45.83808" lon="1.18619">
        <ele>323.3</ele>
        <time>2024-10-21T09:06:52Z</time>
      </trkpt>
      <trkpt lat="45.83808" lon="1.18617">
        <ele>323.4</ele>
        <time>2024-10-21T09:06:53Z</time>
      </trkpt>
      <trkpt lat="45.83808" lon="1.18616">
        <ele>323.4</ele>
        <time>2024-10-21T09:06:54Z</time>
      </trkpt>
      <trkpt lat="45.83808" lon="1.18615">
        <ele>323.5</ele>
        <time>2024-10-21T09:06:55Z</time>
      </trkpt>
      <trkpt lat="45.83808" lon="1.18614">
        <ele>323.5</ele>
        <time>2024-10-21T09:06:56Z</time>
      </trkpt>
      <trkpt lat="45.83809" lon="1.18614">
        <ele>323.5</ele>
        <time>2024-10-21T09:06:57Z</time>
      </trkpt>
      <trkpt lat="45.83809" lon="1.18614">
        <ele>323.5</ele>
        <time>2024-10-21T09:06:58Z</time>
      </trkpt>
      <trkpt lat="45.83809" lon="1.18613">
        <ele>323.6</ele>
        <time>2024-10-21T09:06:59Z</time>
      </trkpt>
      <trkpt lat="45.8381" lon="1.18613">
        <ele>323.6</ele>
        <time>2024-10-21T09:07:00Z</time>
      </trkpt>
      <trkpt lat="45.8381" lon="1.18612">
        <ele>323.6</ele>
        <time>2024-10-21T09:07:01Z</time>
      </trkpt>
      <trkpt lat="45.8381" lon="1.18612">
        <ele>323.7</ele>
        <time>2024-10-21T09:07:02Z</time>
      </trkpt>
      <trkpt lat="45.8381" lon="1.18611">
        <ele>323.7</ele>
        <time>2024-10-21T09:07:03Z</time>
      </trkpt>
      <trkpt lat="45.83811" lon="1.18609">
        <ele>323.8</ele>
        <time>2024-10-21T09:07:04Z</time>
      </trkpt>
      <trkpt lat="45.83811" lon="1.18608">
        <ele>323.8</ele>
        <time>2024-10-21T09:07:05Z</time>
      </trkpt>
      <trkpt lat="45.83814" lon="1.18603">
        <ele>324.1</ele>
        <time>2024-10-21T09:07:06Z</time>
      </trkpt>
      <trkpt lat="45.83815" lon="1.18601">
        <ele>324.2</ele>
        <time>2024-10-21T09:07:07Z</time>
      </trkpt>
      <trkpt lat="45.83815" lon="1.186">
        <ele>324.3</ele>
        <time>2024-10-21T09:07:08Z</time>
      </trkpt>
      <trkpt lat="45.83817" lon="1.18597">
        <ele>324.4</ele>
        <time>2024-10-21T09:07:09Z</time>
      </trkpt>
      <trkpt lat="45.83818" lon="1.18595">
        <ele>324.5</ele>
        <time>2024-10-21T09:07:10Z</time>
      </trkpt>
      <trkpt lat="45.83818" lon="1.18593">
        <ele>324.6</ele>
        <time>2024-10-21T09:07:11Z</time>
      </trkpt>
      <trkpt lat="45.8382" lon="1.1859">
        <ele>324.8</ele>
        <time>2024-10-21T09:07:12Z</time>
      </trkpt>
      <trkpt lat="45.83821" lon="1.18589">
        <ele>324.9</ele>
        <time>2024-10-21T09:07:13Z</time>
      </trkpt>
      <trkpt lat="45.83822" lon="1.18587">
        <ele>325</ele>
        <time>2024-10-21T09:07:14Z</time>
      </trkpt>
      <trkpt lat="45.83822" lon="1.18585">
        <ele>325.1</ele>
        <time>2024-10-21T09:07:15Z</time>
      </trkpt>
      <trkpt lat="45.83823" lon="1.18583">
        <ele>325.2</ele>
        <time>2024-10-21T09:07:16Z</time>
      </trkpt>
      <trkpt lat="45.83823" lon="1.18579">
        <ele>325.3</ele>
        <time>2024-10-21T09:07:17Z</time>
      </trkpt>
      <trkpt lat="45.83823" lon="1.18577">
        <ele>325.4</ele>
        <time>2024-10-21T09:07:18Z</time>
      </trkpt>
      <trkpt lat="45.83824" lon="1.18574">
        <ele>325.5</ele>
        <time>2024-10-21T09:07:20Z</time>
      </trkpt>
      <trkpt lat="45.83824" lon="1.18572">
        <ele>325.6</ele>
        <time>2024-10-21T09:07:21Z</time>
      </trkpt>
      <trkpt lat="45.83825" lon="1.1857">
        <ele>325.7</ele>
        <time>2024-10-21T09:07:22Z</time>
      </trkpt>
      <trkpt lat="45.83825" lon="1.18568">
        <ele>325.8</ele>
        <time>2024-10-21T09:07:23Z</time>
      </trkpt>
      <trkpt lat="45.83825" lon="1.18567">
        <ele>325.8</ele>
        <time>2024-10-21T09:07:24Z</time>
      </trkpt>
      <trkpt lat="45.83825" lon="1.18566">
        <ele>325.9</ele>
        <time>2024-10-21T09:07:25Z</time>
      </trkpt>
      <trkpt lat="45.83826" lon="1.18565">
        <ele>325.9</ele>
        <time>2024-10-21T09:07:26Z</time>
      </trkpt>
      <trkpt lat="45.83826" lon="1.18563">
        <ele>326</ele>
        <time>2024-10-21T09:07:27Z</time>
      </trkpt>
      <trkpt lat="45.83826" lon="1.18561">
        <ele>326.1</ele>
        <time>2024-10-21T09:07:28Z</time>
      </trkpt>
      <trkpt lat="45.83827" lon="1.18559">
        <ele>326.2</ele>
        <time>2024-10-21T09:07:29Z</time>
      </trkpt>
      <trkpt lat="45.83827" lon="1.18558">
        <ele>326.2</ele>
        <time>2024-10-21T09:07:30Z</time>
      </trkpt>
      <trkpt lat="45.83827" lon="1.18557">
        <ele>326.3</ele>
        <time>2024-10-21T09:07:31Z</time>
      </trkpt>
      <trkpt lat="45.83828" lon="1.18556">
        <ele>326.3</ele>
        <time>2024-10-21T09:07:32Z</time>
      </trkpt>
      <trkpt lat="45.83829" lon="1.18554">
        <ele>326.4</ele>
        <time>2024-10-21T09:07:33Z</time>
      </trkpt>
      <trkpt lat="45.8383" lon="1.18553">
        <ele>326.5</ele>
        <time>2024-10-21T09:07:34Z</time>
      </trkpt>
      <trkpt lat="45.83831" lon="1.18552">
        <ele>326.6</ele>
        <time>2024-10-21T09:07:35Z</time>
      </trkpt>
      <trkpt lat="45.83832" lon="1.1855">
        <ele>326.6</ele>
        <time>2024-10-21T09:07:36Z</time>
      </trkpt>
      <trkpt lat="45.83833" lon="1.18549">
        <ele>326.7</ele>
        <time>2024-10-21T09:07:37Z</time>
      </trkpt>
      <trkpt lat="45.83834" lon="1.18547">
        <ele>326.8</ele>
        <time>2024-10-21T09:07:38Z</time>
      </trkpt>
      <trkpt lat="45.83835" lon="1.18545">
        <ele>326.9</ele>
        <time>2024-10-21T09:07:39Z</time>
      </trkpt>
      <trkpt lat="45.83837" lon="1.18544">
        <ele>327</ele>
        <time>2024-10-21T09:07:40Z</time>
      </trkpt>
      <trkpt lat="45.83838" lon="1.18542">
        <ele>327.1</ele>
        <time>2024-10-21T09:07:41Z</time>
      </trkpt>
      <trkpt lat="45.8384" lon="1.18541">
        <ele>327.2</ele>
        <time>2024-10-21T09:07:42Z</time>
      </trkpt>
      <trkpt lat="45.83842" lon="1.18541">
        <ele>327.3</ele>
        <time>2024-10-21T09:07:43Z</time>
      </trkpt>
      <trkpt lat="45.83843" lon="1.1854">
        <ele>327.3</ele>
        <time>2024-10-21T09:07:44Z</time>
      </trkpt>
      <trkpt lat="45.83844" lon="1.18538">
        <ele>327.4</ele>
        <time>2024-10-21T09:07:45Z</time>
      </trkpt>
      <trkpt lat="45.83847" lon="1.18536">
        <ele>327.6</ele>
        <time>2024-10-21T09:07:46Z</time>
      </trkpt>
      <trkpt lat="45.83848" lon="1.18536">
        <ele>327.7</ele>
        <time>2024-10-21T09:07:47Z</time>
      </trkpt>
      <trkpt lat="45.83849" lon="1.18535">
        <ele>327.7</ele>
        <time>2024-10-21T09:07:48Z</time>
      </trkpt>
      <trkpt lat="45.83851" lon="1.18533">
        <ele>327.8</ele>
        <time>2024-10-21T09:07:49Z</time>
      </trkpt>
      <trkpt lat="45.83852" lon="1.18532">
        <ele>327.9</ele>
        <time>2024-10-21T09:07:50Z</time>
      </trkpt>
      <trkpt lat="45.83853" lon="1.18531">
        <ele>328</ele>
        <time>2024-10-21T09:07:51Z</time>
      </trkpt>
      <trkpt lat="45.83855" lon="1.18528">
        <ele>328.2</ele>
        <time>2024-10-21T09:07:52Z</time>
      </trkpt>
      <trkpt lat="45.83855" lon="1.18527">
        <ele>328.2</ele>
        <time>2024-10-21T09:07:53Z</time>
      </trkpt>
      <trkpt lat="45.83856" lon="1.18525">
        <ele>328.4</ele>
        <time>2024-10-21T09:07:54Z</time>
      </trkpt>
      <trkpt lat="45.83856" lon="1.18523">
        <ele>328.5</ele>
        <time>2024-10-21T09:07:55Z</time>
      </trkpt>
      <trkpt lat="45.83857" lon="1.18521">
        <ele>328.6</ele>
        <time>2024-10-21T09:07:56Z</time>
      </trkpt>
      <trkpt lat="45.83857" lon="1.18518">
        <ele>328.7</ele>
        <time>2024-10-21T09:07:57Z</time>
      </trkpt>
      <trkpt lat="45.83857" lon="1.18516">
        <ele>328.9</ele>
        <time>2024-10-21T09:07:58Z</time>
      </trkpt>
      <trkpt lat="45.83856" lon="1.18514">
        <ele>329</ele>
        <time>2024-10-21T09:07:59Z</time>
      </trkpt>
      <trkpt lat="45.83856" lon="1.18513">
        <ele>329</ele>
        <time>2024-10-21T09:08:00Z</time>
      </trkpt>
      <trkpt lat="45.83856" lon="1.18511">
        <ele>329.2</ele>
        <time>2024-10-21T09:08:01Z</time>
      </trkpt>
      <trkpt lat="45.83856" lon="1.18509">
        <ele>329.3</ele>
        <time>2024-10-21T09:08:02Z</time>
      </trkpt>
      <trkpt lat="45.83856" lon="1.18506">
        <ele>329.5</ele>
        <time>2024-10-21T09:08:03Z</time>
      </trkpt>
      <trkpt lat="45.83856" lon="1.18505">
        <ele>329.6</ele>
        <time>2024-10-21T09:08:04Z</time>
      </trkpt>
      <trkpt lat="45.83856" lon="1.18504">
        <ele>329.7</ele>
        <time>2024-10-21T09:08:05Z</time>
      </trkpt>
      <trkpt lat="45.83856" lon="1.18502">
        <ele>329.8</ele>
        <time>2024-10-21T09:08:06Z</time>
      </trkpt>
      <trkpt lat="45.83856" lon="1.185">
        <ele>330</ele>
        <time>2024-10-21T09:08:07Z</time>
      </trkpt>
      <trkpt lat="45.83856" lon="1.18498">
        <ele>330.1</ele>
        <time>2024-10-21T09:08:08Z</time>
      </trkpt>
      <trkpt lat="45.83856" lon="1.18497">
        <ele>330.2</ele>
        <time>2024-10-21T09:08:09Z</time>
      </trkpt>
      <trkpt lat="45.83856" lon="1.18495">
        <ele>330.3</ele>
        <time>2024-10-21T09:08:10Z</time>
      </trkpt>
      <trkpt lat="45.83856" lon="1.18494">
        <ele>330.4</ele>
        <time>2024-10-21T09:08:11Z</time>
      </trkpt>
      <trkpt lat="45.83856" lon="1.18492">
        <ele>330.5</ele>
        <time>2024-10-21T09:08:12Z</time>
      </trkpt>
      <trkpt lat="45.83855" lon="1.18491">
        <ele>330.6</ele>
        <time>2024-10-21T09:08:13Z</time>
      </trkpt>
      <trkpt lat="45.83855" lon="1.1849">
        <ele>330.7</ele>
        <time>2024-10-21T09:08:14Z</time>
      </trkpt>
      <trkpt lat="45.83855" lon="1.18488">
        <ele>330.8</ele>
        <time>2024-10-21T09:08:15Z</time>
      </trkpt>
      <trkpt lat="45.83855" lon="1.18487">
        <ele>330.9</ele>
        <time>2024-10-21T09:08:16Z</time>
      </trkpt>
      <trkpt lat="45.83855" lon="1.18485">
        <ele>331</ele>
        <time>2024-10-21T09:08:17Z</time>
      </trkpt>
      <trkpt lat="45.83855" lon="1.18484">
        <ele>331.1</ele>
        <time>2024-10-21T09:08:18Z</time>
      </trkpt>
      <trkpt lat="45.83856" lon="1.18482">
        <ele>331.2</ele>
        <time>2024-10-21T09:08:19Z</time>
      </trkpt>
      <trkpt lat="45.83856" lon="1.18481">
        <ele>331.3</ele>
        <time>2024-10-21T09:08:20Z</time>
      </trkpt>
      <trkpt lat="45.83856" lon="1.18479">
        <ele>331.4</ele>
        <time>2024-10-21T09:08:21Z</time>
      </trkpt>
      <trkpt lat="45.83856" lon="1.18478">
        <ele>331.6</ele>
        <time>2024-10-21T09:08:22Z</time>
      </trkpt>
      <trkpt lat="45.83856" lon="1.18476">
        <ele>331.7</ele>
        <time>2024-10-21T09:08:23Z</time>
      </trkpt>
      <trkpt lat="45.83856" lon="1.18475">
        <ele>331.8</ele>
        <time>2024-10-21T09:08:24Z</time>
      </trkpt>
      <trkpt lat="45.83856" lon="1.18473">
        <ele>331.9</ele>
        <time>2024-10-21T09:08:25Z</time>
      </trkpt>
      <trkpt lat="45.83856" lon="1.18472">
        <ele>332</ele>
        <time>2024-10-21T09:08:26Z</time>
      </trkpt>
      <trkpt lat="45.83856" lon="1.1847">
        <ele>332.1</ele>
        <time>2024-10-21T09:08:27Z</time>
      </trkpt>
      <trkpt lat="45.83856" lon="1.18469">
        <ele>332.2</ele>
        <time>2024-10-21T09:08:28Z</time>
      </trkpt>
      <trkpt lat="45.83856" lon="1.18468">
        <ele>332.3</ele>
        <time>2024-10-21T09:08:29Z</time>
      </trkpt>
      <trkpt lat="45.83857" lon="1.18467">
        <ele>332.3</ele>
        <time>2024-10-21T09:08:30Z</time>
      </trkpt>
      <trkpt lat="45.83857" lon="1.18465">
        <ele>332.4</ele>
        <time>2024-10-21T09:08:31Z</time>
      </trkpt>
      <trkpt lat="45.83857" lon="1.18464">
        <ele>332.6</ele>
        <time>2024-10-21T09:08:32Z</time>
      </trkpt>
      <trkpt lat="45.83857" lon="1.18462">
        <ele>332.7</ele>
        <time>2024-10-21T09:08:33Z</time>
      </trkpt>
      <trkpt lat="45.83858" lon="1.18461">
        <ele>332.7</ele>
        <time>2024-10-21T09:08:34Z</time>
      </trkpt>
      <trkpt lat="45.83859" lon="1.18459">
        <ele>332.9</ele>
        <time>2024-10-21T09:08:35Z</time>
      </trkpt>
      <trkpt lat="45.83859" lon="1.18457">
        <ele>333</ele>
        <time>2024-10-21T09:08:36Z</time>
      </trkpt>
      <trkpt lat="45.8386" lon="1.18456">
        <ele>333.1</ele>
        <time>2024-10-21T09:08:37Z</time>
      </trkpt>
      <trkpt lat="45.8386" lon="1.18455">
        <ele>333.2</ele>
        <time>2024-10-21T09:08:38Z</time>
      </trkpt>
      <trkpt lat="45.83861" lon="1.18454">
        <ele>333.2</ele>
        <time>2024-10-21T09:08:39Z</time>
      </trkpt>
      <trkpt lat="45.83861" lon="1.18452">
        <ele>333.4</ele>
        <time>2024-10-21T09:08:40Z</time>
      </trkpt>
      <trkpt lat="45.83862" lon="1.1845">
        <ele>333.5</ele>
        <time>2024-10-21T09:08:41Z</time>
      </trkpt>
      <trkpt lat="45.83862" lon="1.18448">
        <ele>333.6</ele>
        <time>2024-10-21T09:08:42Z</time>
      </trkpt>
      <trkpt lat="45.83862" lon="1.18447">
        <ele>333.7</ele>
        <time>2024-10-21T09:08:43Z</time>
      </trkpt>
      <trkpt lat="45.83862" lon="1.18445">
        <ele>333.7</ele>
        <time>2024-10-21T09:08:44Z</time>
      </trkpt>
      <trkpt lat="45.83863" lon="1.18442">
        <ele>333.9</ele>
        <time>2024-10-21T09:08:45Z</time>
      </trkpt>
      <trkpt lat="45.83863" lon="1.18442">
        <ele>333.9</ele>
        <time>2024-10-21T09:08:46Z</time>
      </trkpt>
      <trkpt lat="45.83863" lon="1.18439">
        <ele>334</ele>
        <time>2024-10-21T09:08:47Z</time>
      </trkpt>
      <trkpt lat="45.83864" lon="1.18438">
        <ele>334.1</ele>
        <time>2024-10-21T09:08:48Z</time>
      </trkpt>
      <trkpt lat="45.83864" lon="1.18437">
        <ele>334.2</ele>
        <time>2024-10-21T09:08:49Z</time>
      </trkpt>
      <trkpt lat="45.83865" lon="1.18435">
        <ele>334.2</ele>
        <time>2024-10-21T09:08:50Z</time>
      </trkpt>
      <trkpt lat="45.83865" lon="1.18434">
        <ele>334.3</ele>
        <time>2024-10-21T09:08:51Z</time>
      </trkpt>
      <trkpt lat="45.83866" lon="1.18431">
        <ele>334.4</ele>
        <time>2024-10-21T09:08:52Z</time>
      </trkpt>
      <trkpt lat="45.83866" lon="1.1843">
        <ele>334.5</ele>
        <time>2024-10-21T09:08:53Z</time>
      </trkpt>
      <trkpt lat="45.83867" lon="1.18429">
        <ele>334.6</ele>
        <time>2024-10-21T09:08:54Z</time>
      </trkpt>
      <trkpt lat="45.83867" lon="1.18427">
        <ele>334.6</ele>
        <time>2024-10-21T09:08:55Z</time>
      </trkpt>
      <trkpt lat="45.83868" lon="1.18425">
        <ele>334.7</ele>
        <time>2024-10-21T09:08:56Z</time>
      </trkpt>
      <trkpt lat="45.83868" lon="1.18423">
        <ele>334.8</ele>
        <time>2024-10-21T09:08:57Z</time>
      </trkpt>
      <trkpt lat="45.83869" lon="1.18422">
        <ele>334.9</ele>
        <time>2024-10-21T09:08:58Z</time>
      </trkpt>
      <trkpt lat="45.83869" lon="1.18421">
        <ele>334.9</ele>
        <time>2024-10-21T09:08:59Z</time>
      </trkpt>
      <trkpt lat="45.8387" lon="1.18419">
        <ele>335</ele>
        <time>2024-10-21T09:09:00Z</time>
      </trkpt>
      <trkpt lat="45.83871" lon="1.18417">
        <ele>335</ele>
        <time>2024-10-21T09:09:01Z</time>
      </trkpt>
      <trkpt lat="45.83872" lon="1.18415">
        <ele>335.1</ele>
        <time>2024-10-21T09:09:02Z</time>
      </trkpt>
      <trkpt lat="45.83872" lon="1.18414">
        <ele>335.2</ele>
        <time>2024-10-21T09:09:03Z</time>
      </trkpt>
      <trkpt lat="45.83873" lon="1.18413">
        <ele>335.2</ele>
        <time>2024-10-21T09:09:04Z</time>
      </trkpt>
      <trkpt lat="45.83874" lon="1.18411">
        <ele>335.3</ele>
        <time>2024-10-21T09:09:05Z</time>
      </trkpt>
      <trkpt lat="45.83875" lon="1.18409">
        <ele>335.4</ele>
        <time>2024-10-21T09:09:06Z</time>
      </trkpt>
      <trkpt lat="45.83875" lon="1.18408">
        <ele>335.4</ele>
        <time>2024-10-21T09:09:07Z</time>
      </trkpt>
      <trkpt lat="45.83876" lon="1.18407">
        <ele>335.5</ele>
        <time>2024-10-21T09:09:08Z</time>
      </trkpt>
      <trkpt lat="45.83877" lon="1.18404">
        <ele>335.6</ele>
        <time>2024-10-21T09:09:09Z</time>
      </trkpt>
      <trkpt lat="45.83878" lon="1.18403">
        <ele>335.6</ele>
        <time>2024-10-21T09:09:10Z</time>
      </trkpt>
      <trkpt lat="45.83879" lon="1.18402">
        <ele>335.7</ele>
        <time>2024-10-21T09:09:11Z</time>
      </trkpt>
      <trkpt lat="45.8388" lon="1.184">
        <ele>335.7</ele>
        <time>2024-10-21T09:09:12Z</time>
      </trkpt>
      <trkpt lat="45.8388" lon="1.18399">
        <ele>335.7</ele>
        <time>2024-10-21T09:09:13Z</time>
      </trkpt>
      <trkpt lat="45.8388" lon="1.18399">
        <ele>335.7</ele>
        <time>2024-10-21T09:09:14Z</time>
      </trkpt>
      <trkpt lat="45.83881" lon="1.18397">
        <ele>335.8</ele>
        <time>2024-10-21T09:09:15Z</time>
      </trkpt>
      <trkpt lat="45.83882" lon="1.18396">
        <ele>335.8</ele>
        <time>2024-10-21T09:09:16Z</time>
      </trkpt>
      <trkpt lat="45.83883" lon="1.18394">
        <ele>335.9</ele>
        <time>2024-10-21T09:09:17Z</time>
      </trkpt>
      <trkpt lat="45.83883" lon="1.18392">
        <ele>335.9</ele>
        <time>2024-10-21T09:09:18Z</time>
      </trkpt>
      <trkpt lat="45.83884" lon="1.18391">
        <ele>335.9</ele>
        <time>2024-10-21T09:09:20Z</time>
      </trkpt>
      <trkpt lat="45.83885" lon="1.1839">
        <ele>336</ele>
        <time>2024-10-21T09:09:21Z</time>
      </trkpt>
      <trkpt lat="45.83886" lon="1.18389">
        <ele>336</ele>
        <time>2024-10-21T09:09:22Z</time>
      </trkpt>
      <trkpt lat="45.83887" lon="1.18388">
        <ele>336.1</ele>
        <time>2024-10-21T09:09:23Z</time>
      </trkpt>
      <trkpt lat="45.83888" lon="1.18386">
        <ele>336.1</ele>
        <time>2024-10-21T09:09:24Z</time>
      </trkpt>
      <trkpt lat="45.83889" lon="1.18385">
        <ele>336.1</ele>
        <time>2024-10-21T09:09:25Z</time>
      </trkpt>
      <trkpt lat="45.83889" lon="1.18384">
        <ele>336.1</ele>
        <time>2024-10-21T09:09:26Z</time>
      </trkpt>
      <trkpt lat="45.8389" lon="1.18384">
        <ele>336.2</ele>
        <time>2024-10-21T09:09:27Z</time>
      </trkpt>
      <trkpt lat="45.83891" lon="1.18383">
        <ele>336.2</ele>
        <time>2024-10-21T09:09:28Z</time>
      </trkpt>
      <trkpt lat="45.83892" lon="1.18381">
        <ele>336.2</ele>
        <time>2024-10-21T09:09:29Z</time>
      </trkpt>
      <trkpt lat="45.83892" lon="1.1838">
        <ele>336.2</ele>
        <time>2024-10-21T09:09:30Z</time>
      </trkpt>
      <trkpt lat="45.83892" lon="1.18378">
        <ele>336.3</ele>
        <time>2024-10-21T09:09:31Z</time>
      </trkpt>
      <trkpt lat="45.83892" lon="1.18377">
        <ele>336.3</ele>
        <time>2024-10-21T09:09:32Z</time>
      </trkpt>
      <trkpt lat="45.83892" lon="1.18375">
        <ele>336.3</ele>
        <time>2024-10-21T09:09:33Z</time>
      </trkpt>
      <trkpt lat="45.83893" lon="1.18374">
        <ele>336.3</ele>
        <time>2024-10-21T09:09:34Z</time>
      </trkpt>
      <trkpt lat="45.83893" lon="1.18373">
        <ele>336.3</ele>
        <time>2024-10-21T09:09:35Z</time>
      </trkpt>
      <trkpt lat="45.83891" lon="1.1837">
        <ele>336.3</ele>
        <time>2024-10-21T09:09:36Z</time>
      </trkpt>
      <trkpt lat="45.83889" lon="1.18369">
        <ele>336.3</ele>
        <time>2024-10-21T09:09:37Z</time>
      </trkpt>
      <trkpt lat="45.83889" lon="1.18369">
        <ele>336.3</ele>
        <time>2024-10-21T09:09:38Z</time>
      </trkpt>
      <trkpt lat="45.83888" lon="1.18369">
        <ele>336.3</ele>
        <time>2024-10-21T09:09:39Z</time>
      </trkpt>
      <trkpt lat="45.83886" lon="1.18369">
        <ele>336.3</ele>
        <time>2024-10-21T09:09:40Z</time>
      </trkpt>
      <trkpt lat="45.83885" lon="1.1837">
        <ele>336.3</ele>
        <time>2024-10-21T09:09:41Z</time>
      </trkpt>
      <trkpt lat="45.83883" lon="1.1837">
        <ele>336.3</ele>
        <time>2024-10-21T09:09:42Z</time>
      </trkpt>
      <trkpt lat="45.83882" lon="1.18371">
        <ele>336.3</ele>
        <time>2024-10-21T09:09:43Z</time>
      </trkpt>
      <trkpt lat="45.8388" lon="1.18372">
        <ele>336.3</ele>
        <time>2024-10-21T09:09:44Z</time>
      </trkpt>
      <trkpt lat="45.83879" lon="1.18373">
        <ele>336.3</ele>
        <time>2024-10-21T09:09:45Z</time>
      </trkpt>
      <trkpt lat="45.83878" lon="1.18374">
        <ele>336.3</ele>
        <time>2024-10-21T09:09:46Z</time>
      </trkpt>
      <trkpt lat="45.83876" lon="1.18374">
        <ele>336.2</ele>
        <time>2024-10-21T09:09:47Z</time>
      </trkpt>
      <trkpt lat="45.83875" lon="1.18375">
        <ele>336.2</ele>
        <time>2024-10-21T09:09:48Z</time>
      </trkpt>
      <trkpt lat="45.83873" lon="1.18376">
        <ele>336.2</ele>
        <time>2024-10-21T09:09:49Z</time>
      </trkpt>
      <trkpt lat="45.83872" lon="1.18377">
        <ele>336.2</ele>
        <time>2024-10-21T09:09:50Z</time>
      </trkpt>
      <trkpt lat="45.83871" lon="1.18378">
        <ele>336.2</ele>
        <time>2024-10-21T09:09:51Z</time>
      </trkpt>
      <trkpt lat="45.83869" lon="1.18379">
        <ele>336.2</ele>
        <time>2024-10-21T09:09:52Z</time>
      </trkpt>
      <trkpt lat="45.83868" lon="1.1838">
        <ele>336.1</ele>
        <time>2024-10-21T09:09:53Z</time>
      </trkpt>
      <trkpt lat="45.83866" lon="1.1838">
        <ele>336.1</ele>
        <time>2024-10-21T09:09:54Z</time>
      </trkpt>
      <trkpt lat="45.83865" lon="1.18381">
        <ele>336.1</ele>
        <time>2024-10-21T09:09:55Z</time>
      </trkpt>
      <trkpt lat="45.83863" lon="1.18381">
        <ele>336</ele>
        <time>2024-10-21T09:09:56Z</time>
      </trkpt>
      <trkpt lat="45.83862" lon="1.18381">
        <ele>336</ele>
        <time>2024-10-21T09:09:57Z</time>
      </trkpt>
      <trkpt lat="45.8386" lon="1.18382">
        <ele>336</ele>
        <time>2024-10-21T09:09:58Z</time>
      </trkpt>
      <trkpt lat="45.83859" lon="1.18382">
        <ele>335.9</ele>
        <time>2024-10-21T09:09:59Z</time>
      </trkpt>
      <trkpt lat="45.83857" lon="1.18382">
        <ele>335.9</ele>
        <time>2024-10-21T09:10:00Z</time>
      </trkpt>
      <trkpt lat="45.83854" lon="1.18382">
        <ele>335.8</ele>
        <time>2024-10-21T09:10:01Z</time>
      </trkpt>
      <trkpt lat="45.83854" lon="1.18382">
        <ele>335.8</ele>
        <time>2024-10-21T09:10:02Z</time>
      </trkpt>
      <trkpt lat="45.83853" lon="1.18382">
        <ele>335.8</ele>
        <time>2024-10-21T09:10:03Z</time>
      </trkpt>
      <trkpt lat="45.83851" lon="1.18382">
        <ele>335.8</ele>
        <time>2024-10-21T09:10:04Z</time>
      </trkpt>
      <trkpt lat="45.8385" lon="1.18382">
        <ele>335.7</ele>
        <time>2024-10-21T09:10:05Z</time>
      </trkpt>
      <trkpt lat="45.83848" lon="1.18382">
        <ele>335.7</ele>
        <time>2024-10-21T09:10:06Z</time>
      </trkpt>
      <trkpt lat="45.83847" lon="1.18382">
        <ele>335.7</ele>
        <time>2024-10-21T09:10:07Z</time>
      </trkpt>
      <trkpt lat="45.83845" lon="1.18383">
        <ele>335.6</ele>
        <time>2024-10-21T09:10:08Z</time>
      </trkpt>
      <trkpt lat="45.83843" lon="1.18384">
        <ele>335.5</ele>
        <time>2024-10-21T09:10:09Z</time>
      </trkpt>
      <trkpt lat="45.83842" lon="1.18384">
        <ele>335.5</ele>
        <time>2024-10-21T09:10:10Z</time>
      </trkpt>
      <trkpt lat="45.83842" lon="1.18384">
        <ele>335.5</ele>
        <time>2024-10-21T09:10:11Z</time>
      </trkpt>
      <trkpt lat="45.8384" lon="1.18384">
        <ele>335.5</ele>
        <time>2024-10-21T09:10:12Z</time>
      </trkpt>
      <trkpt lat="45.83839" lon="1.18384">
        <ele>335.4</ele>
        <time>2024-10-21T09:10:13Z</time>
      </trkpt>
      <trkpt lat="45.83836" lon="1.18385">
        <ele>335.3</ele>
        <time>2024-10-21T09:10:14Z</time>
      </trkpt>
      <trkpt lat="45.83836" lon="1.18385">
        <ele>335.3</ele>
        <time>2024-10-21T09:10:15Z</time>
      </trkpt>
      <trkpt lat="45.83835" lon="1.18385">
        <ele>335.3</ele>
        <time>2024-10-21T09:10:16Z</time>
      </trkpt>
      <trkpt lat="45.83833" lon="1.18386">
        <ele>335.2</ele>
        <time>2024-10-21T09:10:17Z</time>
      </trkpt>
      <trkpt lat="45.83831" lon="1.18387">
        <ele>335.2</ele>
        <time>2024-10-21T09:10:18Z</time>
      </trkpt>
      <trkpt lat="45.83829" lon="1.18387">
        <ele>335.1</ele>
        <time>2024-10-21T09:10:19Z</time>
      </trkpt>
      <trkpt lat="45.83828" lon="1.18387">
        <ele>335.1</ele>
        <time>2024-10-21T09:10:20Z</time>
      </trkpt>
      <trkpt lat="45.83828" lon="1.18387">
        <ele>335.1</ele>
        <time>2024-10-21T09:10:21Z</time>
      </trkpt>
      <trkpt lat="45.83826" lon="1.18388">
        <ele>335</ele>
        <time>2024-10-21T09:10:22Z</time>
      </trkpt>
      <trkpt lat="45.83825" lon="1.18389">
        <ele>335</ele>
        <time>2024-10-21T09:10:23Z</time>
      </trkpt>
      <trkpt lat="45.83824" lon="1.18389">
        <ele>334.9</ele>
        <time>2024-10-21T09:10:24Z</time>
      </trkpt>
      <trkpt lat="45.83822" lon="1.18389">
        <ele>334.9</ele>
        <time>2024-10-21T09:10:25Z</time>
      </trkpt>
      <trkpt lat="45.83821" lon="1.1839">
        <ele>334.8</ele>
        <time>2024-10-21T09:10:26Z</time>
      </trkpt>
      <trkpt lat="45.83819" lon="1.18391">
        <ele>334.8</ele>
        <time>2024-10-21T09:10:27Z</time>
      </trkpt>
      <trkpt lat="45.83817" lon="1.18392">
        <ele>334.7</ele>
        <time>2024-10-21T09:10:28Z</time>
      </trkpt>
      <trkpt lat="45.83816" lon="1.18392">
        <ele>334.7</ele>
        <time>2024-10-21T09:10:29Z</time>
      </trkpt>
      <trkpt lat="45.83815" lon="1.18392">
        <ele>334.6</ele>
        <time>2024-10-21T09:10:30Z</time>
      </trkpt>
      <trkpt lat="45.83813" lon="1.18392">
        <ele>334.6</ele>
        <time>2024-10-21T09:10:31Z</time>
      </trkpt>
      <trkpt lat="45.83812" lon="1.18392">
        <ele>334.5</ele>
        <time>2024-10-21T09:10:32Z</time>
      </trkpt>
      <trkpt lat="45.8381" lon="1.18392">
        <ele>334.5</ele>
        <time>2024-10-21T09:10:33Z</time>
      </trkpt>
      <trkpt lat="45.83807" lon="1.18393">
        <ele>334.4</ele>
        <time>2024-10-21T09:10:34Z</time>
      </trkpt>
      <trkpt lat="45.83806" lon="1.18393">
        <ele>334.4</ele>
        <time>2024-10-21T09:10:35Z</time>
      </trkpt>
      <trkpt lat="45.83804" lon="1.18393">
        <ele>334.3</ele>
        <time>2024-10-21T09:10:36Z</time>
      </trkpt>
      <trkpt lat="45.83802" lon="1.18394">
        <ele>334.2</ele>
        <time>2024-10-21T09:10:38Z</time>
      </trkpt>
      <trkpt lat="45.83801" lon="1.18394">
        <ele>334.2</ele>
        <time>2024-10-21T09:10:39Z</time>
      </trkpt>
      <trkpt lat="45.838" lon="1.18394">
        <ele>334.1</ele>
        <time>2024-10-21T09:10:40Z</time>
      </trkpt>
      <trkpt lat="45.83799" lon="1.18394">
        <ele>334.1</ele>
        <time>2024-10-21T09:10:41Z</time>
      </trkpt>
      <trkpt lat="45.83797" lon="1.18395">
        <ele>334</ele>
        <time>2024-10-21T09:10:42Z</time>
      </trkpt>
      <trkpt lat="45.83795" lon="1.18396">
        <ele>334</ele>
        <time>2024-10-21T09:10:43Z</time>
      </trkpt>
      <trkpt lat="45.83794" lon="1.18396">
        <ele>333.9</ele>
        <time>2024-10-21T09:10:44Z</time>
      </trkpt>
      <trkpt lat="45.83792" lon="1.18396">
        <ele>333.8</ele>
        <time>2024-10-21T09:10:45Z</time>
      </trkpt>
      <trkpt lat="45.8379" lon="1.18397">
        <ele>333.8</ele>
        <time>2024-10-21T09:10:46Z</time>
      </trkpt>
      <trkpt lat="45.83789" lon="1.18398">
        <ele>333.7</ele>
        <time>2024-10-21T09:10:47Z</time>
      </trkpt>
      <trkpt lat="45.83787" lon="1.18399">
        <ele>333.6</ele>
        <time>2024-10-21T09:10:48Z</time>
      </trkpt>
      <trkpt lat="45.83785" lon="1.18399">
        <ele>333.6</ele>
        <time>2024-10-21T09:10:49Z</time>
      </trkpt>
      <trkpt lat="45.83784" lon="1.18399">
        <ele>333.5</ele>
        <time>2024-10-21T09:10:50Z</time>
      </trkpt>
      <trkpt lat="45.83782" lon="1.184">
        <ele>333.5</ele>
        <time>2024-10-21T09:10:51Z</time>
      </trkpt>
      <trkpt lat="45.83781" lon="1.184">
        <ele>333.4</ele>
        <time>2024-10-21T09:10:52Z</time>
      </trkpt>
      <trkpt lat="45.83779" lon="1.184">
        <ele>333.4</ele>
        <time>2024-10-21T09:10:53Z</time>
      </trkpt>
      <trkpt lat="45.83779" lon="1.18399">
        <ele>333.3</ele>
        <time>2024-10-21T09:10:54Z</time>
      </trkpt>
      <trkpt lat="45.83778" lon="1.184">
        <ele>333.3</ele>
        <time>2024-10-21T09:10:55Z</time>
      </trkpt>
      <trkpt lat="45.83776" lon="1.184">
        <ele>333.3</ele>
        <time>2024-10-21T09:10:56Z</time>
      </trkpt>
      <trkpt lat="45.83775" lon="1.18401">
        <ele>333.2</ele>
        <time>2024-10-21T09:10:57Z</time>
      </trkpt>
      <trkpt lat="45.83775" lon="1.18401">
        <ele>333.2</ele>
        <time>2024-10-21T09:10:58Z</time>
      </trkpt>
      <trkpt lat="45.83774" lon="1.18402">
        <ele>333.2</ele>
        <time>2024-10-21T09:10:59Z</time>
      </trkpt>
      <trkpt lat="45.83773" lon="1.18402">
        <ele>333.1</ele>
        <time>2024-10-21T09:11:00Z</time>
      </trkpt>
      <trkpt lat="45.83771" lon="1.18402">
        <ele>333.1</ele>
        <time>2024-10-21T09:11:01Z</time>
      </trkpt>
      <trkpt lat="45.8377" lon="1.18401">
        <ele>333</ele>
        <time>2024-10-21T09:11:02Z</time>
      </trkpt>
      <trkpt lat="45.83767" lon="1.184">
        <ele>332.9</ele>
        <time>2024-10-21T09:11:03Z</time>
      </trkpt>
      <trkpt lat="45.83766" lon="1.184">
        <ele>332.9</ele>
        <time>2024-10-21T09:11:04Z</time>
      </trkpt>
      <trkpt lat="45.83763" lon="1.18399">
        <ele>332.8</ele>
        <time>2024-10-21T09:11:05Z</time>
      </trkpt>
      <trkpt lat="45.83762" lon="1.18399">
        <ele>332.7</ele>
        <time>2024-10-21T09:11:06Z</time>
      </trkpt>
      <trkpt lat="45.8376" lon="1.18398">
        <ele>332.7</ele>
        <time>2024-10-21T09:11:07Z</time>
      </trkpt>
      <trkpt lat="45.83759" lon="1.18398">
        <ele>332.6</ele>
        <time>2024-10-21T09:11:08Z</time>
      </trkpt>
      <trkpt lat="45.83757" lon="1.18398">
        <ele>332.6</ele>
        <time>2024-10-21T09:11:09Z</time>
      </trkpt>
      <trkpt lat="45.83756" lon="1.18398">
        <ele>332.5</ele>
        <time>2024-10-21T09:11:10Z</time>
      </trkpt>
      <trkpt lat="45.83754" lon="1.18398">
        <ele>332.4</ele>
        <time>2024-10-21T09:11:11Z</time>
      </trkpt>
      <trkpt lat="45.83753" lon="1.18399">
        <ele>332.4</ele>
        <time>2024-10-21T09:11:12Z</time>
      </trkpt>
      <trkpt lat="45.83751" lon="1.18399">
        <ele>332.3</ele>
        <time>2024-10-21T09:11:13Z</time>
      </trkpt>
      <trkpt lat="45.83749" lon="1.18399">
        <ele>332.3</ele>
        <time>2024-10-21T09:11:14Z</time>
      </trkpt>
      <trkpt lat="45.83748" lon="1.184">
        <ele>332.2</ele>
        <time>2024-10-21T09:11:15Z</time>
      </trkpt>
      <trkpt lat="45.83746" lon="1.184">
        <ele>332.1</ele>
        <time>2024-10-21T09:11:16Z</time>
      </trkpt>
      <trkpt lat="45.83743" lon="1.18402">
        <ele>332</ele>
        <time>2024-10-21T09:11:17Z</time>
      </trkpt>
      <trkpt lat="45.83742" lon="1.18402">
        <ele>331.9</ele>
        <time>2024-10-21T09:11:18Z</time>
      </trkpt>
      <trkpt lat="45.8374" lon="1.18403">
        <ele>331.9</ele>
        <time>2024-10-21T09:11:20Z</time>
      </trkpt>
      <trkpt lat="45.83739" lon="1.18404">
        <ele>331.8</ele>
        <time>2024-10-21T09:11:21Z</time>
      </trkpt>
      <trkpt lat="45.83737" lon="1.18405">
        <ele>331.7</ele>
        <time>2024-10-21T09:11:22Z</time>
      </trkpt>
      <trkpt lat="45.83736" lon="1.18406">
        <ele>331.7</ele>
        <time>2024-10-21T09:11:23Z</time>
      </trkpt>
      <trkpt lat="45.83735" lon="1.18406">
        <ele>331.6</ele>
        <time>2024-10-21T09:11:24Z</time>
      </trkpt>
      <trkpt lat="45.83733" lon="1.18407">
        <ele>331.6</ele>
        <time>2024-10-21T09:11:25Z</time>
      </trkpt>
      <trkpt lat="45.83732" lon="1.18408">
        <ele>331.5</ele>
        <time>2024-10-21T09:11:26Z</time>
      </trkpt>
      <trkpt lat="45.83731" lon="1.18409">
        <ele>331.5</ele>
        <time>2024-10-21T09:11:27Z</time>
      </trkpt>
      <trkpt lat="45.83729" lon="1.1841">
        <ele>331.4</ele>
        <time>2024-10-21T09:11:28Z</time>
      </trkpt>
      <trkpt lat="45.83727" lon="1.18412">
        <ele>331.3</ele>
        <time>2024-10-21T09:11:29Z</time>
      </trkpt>
      <trkpt lat="45.83726" lon="1.18413">
        <ele>331.3</ele>
        <time>2024-10-21T09:11:30Z</time>
      </trkpt>
      <trkpt lat="45.83725" lon="1.18414">
        <ele>331.2</ele>
        <time>2024-10-21T09:11:32Z</time>
      </trkpt>
      <trkpt lat="45.83723" lon="1.18416">
        <ele>331.2</ele>
        <time>2024-10-21T09:11:33Z</time>
      </trkpt>
      <trkpt lat="45.83723" lon="1.18417">
        <ele>331.1</ele>
        <time>2024-10-21T09:11:34Z</time>
      </trkpt>
      <trkpt lat="45.83722" lon="1.18418">
        <ele>331.1</ele>
        <time>2024-10-21T09:11:35Z</time>
      </trkpt>
      <trkpt lat="45.83721" lon="1.18418">
        <ele>331.1</ele>
        <time>2024-10-21T09:11:36Z</time>
      </trkpt>
      <trkpt lat="45.8372" lon="1.18419">
        <ele>331</ele>
        <time>2024-10-21T09:11:37Z</time>
      </trkpt>
      <trkpt lat="45.83719" lon="1.1842">
        <ele>331</ele>
        <time>2024-10-21T09:11:38Z</time>
      </trkpt>
      <trkpt lat="45.83718" lon="1.18421">
        <ele>330.9</ele>
        <time>2024-10-21T09:11:39Z</time>
      </trkpt>
      <trkpt lat="45.83717" lon="1.18421">
        <ele>330.9</ele>
        <time>2024-10-21T09:11:40Z</time>
      </trkpt>
      <trkpt lat="45.83716" lon="1.18422">
        <ele>330.9</ele>
        <time>2024-10-21T09:11:41Z</time>
      </trkpt>
      <trkpt lat="45.83715" lon="1.18422">
        <ele>330.8</ele>
        <time>2024-10-21T09:11:42Z</time>
      </trkpt>
      <trkpt lat="45.83712" lon="1.18423">
        <ele>330.7</ele>
        <time>2024-10-21T09:11:43Z</time>
      </trkpt>
      <trkpt lat="45.83712" lon="1.18424">
        <ele>330.7</ele>
        <time>2024-10-21T09:11:44Z</time>
      </trkpt>
      <trkpt lat="45.83711" lon="1.18424">
        <ele>330.7</ele>
        <time>2024-10-21T09:11:45Z</time>
      </trkpt>
      <trkpt lat="45.8371" lon="1.18425">
        <ele>330.6</ele>
        <time>2024-10-21T09:11:46Z</time>
      </trkpt>
      <trkpt lat="45.83708" lon="1.18425">
        <ele>330.6</ele>
        <time>2024-10-21T09:11:47Z</time>
      </trkpt>
      <trkpt lat="45.83706" lon="1.18426">
        <ele>330.5</ele>
        <time>2024-10-21T09:11:48Z</time>
      </trkpt>
      <trkpt lat="45.83705" lon="1.18427">
        <ele>330.5</ele>
        <time>2024-10-21T09:11:49Z</time>
      </trkpt>
      <trkpt lat="45.83703" lon="1.18428">
        <ele>330.4</ele>
        <time>2024-10-21T09:11:50Z</time>
      </trkpt>
      <trkpt lat="45.83701" lon="1.18429">
        <ele>330.4</ele>
        <time>2024-10-21T09:11:52Z</time>
      </trkpt>
      <trkpt lat="45.837" lon="1.18429">
        <ele>330.3</ele>
        <time>2024-10-21T09:11:53Z</time>
      </trkpt>
      <trkpt lat="45.837" lon="1.18429">
        <ele>330.3</ele>
        <time>2024-10-21T09:11:54Z</time>
      </trkpt>
      <trkpt lat="45.83698" lon="1.1843">
        <ele>330.3</ele>
        <time>2024-10-21T09:11:55Z</time>
      </trkpt>
      <trkpt lat="45.83697" lon="1.1843">
        <ele>330.3</ele>
        <time>2024-10-21T09:11:56Z</time>
      </trkpt>
      <trkpt lat="45.83696" lon="1.1843">
        <ele>330.2</ele>
        <time>2024-10-21T09:11:57Z</time>
      </trkpt>
      <trkpt lat="45.83694" lon="1.18431">
        <ele>330.2</ele>
        <time>2024-10-21T09:11:58Z</time>
      </trkpt>
      <trkpt lat="45.83692" lon="1.18431">
        <ele>330.1</ele>
        <time>2024-10-21T09:11:59Z</time>
      </trkpt>
      <trkpt lat="45.83691" lon="1.18431">
        <ele>330.1</ele>
        <time>2024-10-21T09:12:00Z</time>
      </trkpt>
      <trkpt lat="45.8369" lon="1.18431">
        <ele>330.1</ele>
        <time>2024-10-21T09:12:01Z</time>
      </trkpt>
      <trkpt lat="45.83689" lon="1.1843">
        <ele>330.1</ele>
        <time>2024-10-21T09:12:02Z</time>
      </trkpt>
      <trkpt lat="45.83688" lon="1.18429">
        <ele>330.1</ele>
        <time>2024-10-21T09:12:03Z</time>
      </trkpt>
      <trkpt lat="45.83687" lon="1.18427">
        <ele>330.1</ele>
        <time>2024-10-21T09:12:04Z</time>
      </trkpt>
      <trkpt lat="45.83687" lon="1.18425">
        <ele>330.1</ele>
        <time>2024-10-21T09:12:05Z</time>
      </trkpt>
      <trkpt lat="45.83687" lon="1.18424">
        <ele>330.2</ele>
        <time>2024-10-21T09:12:06Z</time>
      </trkpt>
      <trkpt lat="45.83687" lon="1.1842">
        <ele>330.2</ele>
        <time>2024-10-21T09:12:07Z</time>
      </trkpt>
      <trkpt lat="45.83687" lon="1.18419">
        <ele>330.2</ele>
        <time>2024-10-21T09:12:08Z</time>
      </trkpt>
      <trkpt lat="45.83687" lon="1.18416">
        <ele>330.3</ele>
        <time>2024-10-21T09:12:09Z</time>
      </trkpt>
      <trkpt lat="45.83687" lon="1.18414">
        <ele>330.3</ele>
        <time>2024-10-21T09:12:10Z</time>
      </trkpt>
      <trkpt lat="45.83687" lon="1.18413">
        <ele>330.3</ele>
        <time>2024-10-21T09:12:11Z</time>
      </trkpt>
      <trkpt lat="45.83686" lon="1.18411">
        <ele>330.3</ele>
        <time>2024-10-21T09:12:12Z</time>
      </trkpt>
      <trkpt lat="45.83686" lon="1.18408">
        <ele>330.3</ele>
        <time>2024-10-21T09:12:13Z</time>
      </trkpt>
      <trkpt lat="45.83686" lon="1.18407">
        <ele>330.4</ele>
        <time>2024-10-21T09:12:14Z</time>
      </trkpt>
      <trkpt lat="45.83687" lon="1.18405">
        <ele>330.4</ele>
        <time>2024-10-21T09:12:15Z</time>
      </trkpt>
      <trkpt lat="45.83687" lon="1.18403">
        <ele>330.4</ele>
        <time>2024-10-21T09:12:16Z</time>
      </trkpt>
      <trkpt lat="45.83687" lon="1.184">
        <ele>330.4</ele>
        <time>2024-10-21T09:12:17Z</time>
      </trkpt>
      <trkpt lat="45.83687" lon="1.18399">
        <ele>330.4</ele>
        <time>2024-10-21T09:12:18Z</time>
      </trkpt>
      <trkpt lat="45.83687" lon="1.18398">
        <ele>330.4</ele>
        <time>2024-10-21T09:12:19Z</time>
      </trkpt>
      <trkpt lat="45.83688" lon="1.18395">
        <ele>330.4</ele>
        <time>2024-10-21T09:12:20Z</time>
      </trkpt>
      <trkpt lat="45.83688" lon="1.18393">
        <ele>330.4</ele>
        <time>2024-10-21T09:12:21Z</time>
      </trkpt>
      <trkpt lat="45.83688" lon="1.18392">
        <ele>330.4</ele>
        <time>2024-10-21T09:12:22Z</time>
      </trkpt>
      <trkpt lat="45.83689" lon="1.18389">
        <ele>330.4</ele>
        <time>2024-10-21T09:12:23Z</time>
      </trkpt>
      <trkpt lat="45.83689" lon="1.18388">
        <ele>330.4</ele>
        <time>2024-10-21T09:12:24Z</time>
      </trkpt>
      <trkpt lat="45.83689" lon="1.18387">
        <ele>330.4</ele>
        <time>2024-10-21T09:12:25Z</time>
      </trkpt>
      <trkpt lat="45.83689" lon="1.18384">
        <ele>330.4</ele>
        <time>2024-10-21T09:12:26Z</time>
      </trkpt>
      <trkpt lat="45.83689" lon="1.18383">
        <ele>330.4</ele>
        <time>2024-10-21T09:12:27Z</time>
      </trkpt>
      <trkpt lat="45.83689" lon="1.18382">
        <ele>330.4</ele>
        <time>2024-10-21T09:12:28Z</time>
      </trkpt>
      <trkpt lat="45.83689" lon="1.1838">
        <ele>330.4</ele>
        <time>2024-10-21T09:12:29Z</time>
      </trkpt>
      <trkpt lat="45.83689" lon="1.18379">
        <ele>330.4</ele>
        <time>2024-10-21T09:12:30Z</time>
      </trkpt>
      <trkpt lat="45.83689" lon="1.18377">
        <ele>330.4</ele>
        <time>2024-10-21T09:12:31Z</time>
      </trkpt>
      <trkpt lat="45.83689" lon="1.18375">
        <ele>330.4</ele>
        <time>2024-10-21T09:12:32Z</time>
      </trkpt>
      <trkpt lat="45.8369" lon="1.18373">
        <ele>330.3</ele>
        <time>2024-10-21T09:12:33Z</time>
      </trkpt>
      <trkpt lat="45.8369" lon="1.18372">
        <ele>330.3</ele>
        <time>2024-10-21T09:12:34Z</time>
      </trkpt>
      <trkpt lat="45.8369" lon="1.1837">
        <ele>330.3</ele>
        <time>2024-10-21T09:12:35Z</time>
      </trkpt>
      <trkpt lat="45.8369" lon="1.18369">
        <ele>330.3</ele>
        <time>2024-10-21T09:12:36Z</time>
      </trkpt>
      <trkpt lat="45.83691" lon="1.18367">
        <ele>330.3</ele>
        <time>2024-10-21T09:12:37Z</time>
      </trkpt>
      <trkpt lat="45.83691" lon="1.18365">
        <ele>330.2</ele>
        <time>2024-10-21T09:12:38Z</time>
      </trkpt>
      <trkpt lat="45.83691" lon="1.18364">
        <ele>330.2</ele>
        <time>2024-10-21T09:12:39Z</time>
      </trkpt>
      <trkpt lat="45.83692" lon="1.18363">
        <ele>330.2</ele>
        <time>2024-10-21T09:12:40Z</time>
      </trkpt>
      <trkpt lat="45.83692" lon="1.18361">
        <ele>330.2</ele>
        <time>2024-10-21T09:12:41Z</time>
      </trkpt>
      <trkpt lat="45.83692" lon="1.18359">
        <ele>330.1</ele>
        <time>2024-10-21T09:12:42Z</time>
      </trkpt>
      <trkpt lat="45.83692" lon="1.18357">
        <ele>330.1</ele>
        <time>2024-10-21T09:12:43Z</time>
      </trkpt>
      <trkpt lat="45.83692" lon="1.18356">
        <ele>330.1</ele>
        <time>2024-10-21T09:12:44Z</time>
      </trkpt>
      <trkpt lat="45.83691" lon="1.18354">
        <ele>330</ele>
        <time>2024-10-21T09:12:45Z</time>
      </trkpt>
      <trkpt lat="45.83691" lon="1.18353">
        <ele>330</ele>
        <time>2024-10-21T09:12:46Z</time>
      </trkpt>
      <trkpt lat="45.83691" lon="1.18351">
        <ele>330</ele>
        <time>2024-10-21T09:12:47Z</time>
      </trkpt>
      <trkpt lat="45.83691" lon="1.18348">
        <ele>329.9</ele>
        <time>2024-10-21T09:12:48Z</time>
      </trkpt>
      <trkpt lat="45.83692" lon="1.18346">
        <ele>329.9</ele>
        <time>2024-10-21T09:12:49Z</time>
      </trkpt>
      <trkpt lat="45.83693" lon="1.18345">
        <ele>329.8</ele>
        <time>2024-10-21T09:12:50Z</time>
      </trkpt>
      <trkpt lat="45.83693" lon="1.18344">
        <ele>329.8</ele>
        <time>2024-10-21T09:12:51Z</time>
      </trkpt>
      <trkpt lat="45.83695" lon="1.18341">
        <ele>329.7</ele>
        <time>2024-10-21T09:12:52Z</time>
      </trkpt>
      <trkpt lat="45.83696" lon="1.18339">
        <ele>329.6</ele>
        <time>2024-10-21T09:12:53Z</time>
      </trkpt>
      <trkpt lat="45.83696" lon="1.18337">
        <ele>329.6</ele>
        <time>2024-10-21T09:12:54Z</time>
      </trkpt>
      <trkpt lat="45.83697" lon="1.18335">
        <ele>329.5</ele>
        <time>2024-10-21T09:12:55Z</time>
      </trkpt>
      <trkpt lat="45.83697" lon="1.18333">
        <ele>329.4</ele>
        <time>2024-10-21T09:12:56Z</time>
      </trkpt>
      <trkpt lat="45.83698" lon="1.18331">
        <ele>329.3</ele>
        <time>2024-10-21T09:12:57Z</time>
      </trkpt>
      <trkpt lat="45.83699" lon="1.18329">
        <ele>329.2</ele>
        <time>2024-10-21T09:12:58Z</time>
      </trkpt>
      <trkpt lat="45.837" lon="1.18328">
        <ele>329.2</ele>
        <time>2024-10-21T09:12:59Z</time>
      </trkpt>
      <trkpt lat="45.83701" lon="1.18326">
        <ele>329.1</ele>
        <time>2024-10-21T09:13:00Z</time>
      </trkpt>
      <trkpt lat="45.83701" lon="1.18325">
        <ele>329.1</ele>
        <time>2024-10-21T09:13:01Z</time>
      </trkpt>
      <trkpt lat="45.83702" lon="1.18323">
        <ele>329</ele>
        <time>2024-10-21T09:13:02Z</time>
      </trkpt>
      <trkpt lat="45.83702" lon="1.18322">
        <ele>329</ele>
        <time>2024-10-21T09:13:03Z</time>
      </trkpt>
      <trkpt lat="45.83703" lon="1.1832">
        <ele>328.9</ele>
        <time>2024-10-21T09:13:04Z</time>
      </trkpt>
      <trkpt lat="45.83703" lon="1.18319">
        <ele>328.8</ele>
        <time>2024-10-21T09:13:05Z</time>
      </trkpt>
      <trkpt lat="45.83704" lon="1.18317">
        <ele>328.7</ele>
        <time>2024-10-21T09:13:06Z</time>
      </trkpt>
      <trkpt lat="45.83706" lon="1.18316">
        <ele>328.7</ele>
        <time>2024-10-21T09:13:08Z</time>
      </trkpt>
      <trkpt lat="45.83706" lon="1.18315">
        <ele>328.6</ele>
        <time>2024-10-21T09:13:09Z</time>
      </trkpt>
      <trkpt lat="45.83706" lon="1.18314">
        <ele>328.5</ele>
        <time>2024-10-21T09:13:10Z</time>
      </trkpt>
      <trkpt lat="45.83706" lon="1.18312">
        <ele>328.5</ele>
        <time>2024-10-21T09:13:11Z</time>
      </trkpt>
      <trkpt lat="45.83706" lon="1.18311">
        <ele>328.4</ele>
        <time>2024-10-21T09:13:12Z</time>
      </trkpt>
      <trkpt lat="45.83706" lon="1.18309">
        <ele>328.3</ele>
        <time>2024-10-21T09:13:13Z</time>
      </trkpt>
      <trkpt lat="45.83706" lon="1.18307">
        <ele>328.3</ele>
        <time>2024-10-21T09:13:14Z</time>
      </trkpt>
      <trkpt lat="45.83705" lon="1.18304">
        <ele>328.2</ele>
        <time>2024-10-21T09:13:15Z</time>
      </trkpt>
      <trkpt lat="45.83705" lon="1.18303">
        <ele>328.1</ele>
        <time>2024-10-21T09:13:16Z</time>
      </trkpt>
      <trkpt lat="45.83705" lon="1.18302">
        <ele>328.1</ele>
        <time>2024-10-21T09:13:17Z</time>
      </trkpt>
      <trkpt lat="45.83704" lon="1.18299">
        <ele>327.9</ele>
        <time>2024-10-21T09:13:18Z</time>
      </trkpt>
      <trkpt lat="45.83704" lon="1.18298">
        <ele>327.9</ele>
        <time>2024-10-21T09:13:19Z</time>
      </trkpt>
      <trkpt lat="45.83704" lon="1.18297">
        <ele>327.8</ele>
        <time>2024-10-21T09:13:20Z</time>
      </trkpt>
      <trkpt lat="45.83704" lon="1.18295">
        <ele>327.8</ele>
        <time>2024-10-21T09:13:21Z</time>
      </trkpt>
      <trkpt lat="45.83704" lon="1.18293">
        <ele>327.7</ele>
        <time>2024-10-21T09:13:22Z</time>
      </trkpt>
      <trkpt lat="45.83704" lon="1.18292">
        <ele>327.6</ele>
        <time>2024-10-21T09:13:23Z</time>
      </trkpt>
      <trkpt lat="45.83703" lon="1.18289">
        <ele>327.5</ele>
        <time>2024-10-21T09:13:24Z</time>
      </trkpt>
      <trkpt lat="45.83703" lon="1.18288">
        <ele>327.4</ele>
        <time>2024-10-21T09:13:25Z</time>
      </trkpt>
      <trkpt lat="45.83702" lon="1.18287">
        <ele>327.4</ele>
        <time>2024-10-21T09:13:26Z</time>
      </trkpt>
      <trkpt lat="45.837" lon="1.18284">
        <ele>327.2</ele>
        <time>2024-10-21T09:13:27Z</time>
      </trkpt>
      <trkpt lat="45.83699" lon="1.18284">
        <ele>327.1</ele>
        <time>2024-10-21T09:13:28Z</time>
      </trkpt>
      <trkpt lat="45.83698" lon="1.18283">
        <ele>327.1</ele>
        <time>2024-10-21T09:13:29Z</time>
      </trkpt>
      <trkpt lat="45.83698" lon="1.18283">
        <ele>327.1</ele>
        <time>2024-10-21T09:13:30Z</time>
      </trkpt>
      <trkpt lat="45.83697" lon="1.18282">
        <ele>327</ele>
        <time>2024-10-21T09:13:31Z</time>
      </trkpt>
      <trkpt lat="45.83696" lon="1.18281">
        <ele>326.9</ele>
        <time>2024-10-21T09:13:32Z</time>
      </trkpt>
      <trkpt lat="45.83695" lon="1.1828">
        <ele>326.9</ele>
        <time>2024-10-21T09:13:33Z</time>
      </trkpt>
      <trkpt lat="45.83694" lon="1.18277">
        <ele>326.7</ele>
        <time>2024-10-21T09:13:34Z</time>
      </trkpt>
      <trkpt lat="45.83694" lon="1.18275">
        <ele>326.6</ele>
        <time>2024-10-21T09:13:36Z</time>
      </trkpt>
      <trkpt lat="45.83694" lon="1.18273">
        <ele>326.6</ele>
        <time>2024-10-21T09:13:37Z</time>
      </trkpt>
      <trkpt lat="45.83693" lon="1.18271">
        <ele>326.5</ele>
        <time>2024-10-21T09:13:38Z</time>
      </trkpt>
      <trkpt lat="45.83694" lon="1.18269">
        <ele>326.5</ele>
        <time>2024-10-21T09:13:39Z</time>
      </trkpt>
      <trkpt lat="45.83694" lon="1.18266">
        <ele>326.4</ele>
        <time>2024-10-21T09:13:40Z</time>
      </trkpt>
      <trkpt lat="45.83695" lon="1.18265">
        <ele>326.3</ele>
        <time>2024-10-21T09:13:41Z</time>
      </trkpt>
      <trkpt lat="45.83695" lon="1.18264">
        <ele>326.3</ele>
        <time>2024-10-21T09:13:42Z</time>
      </trkpt>
      <trkpt lat="45.83696" lon="1.18262">
        <ele>326.3</ele>
        <time>2024-10-21T09:13:43Z</time>
      </trkpt>
      <trkpt lat="45.83696" lon="1.1826">
        <ele>326.2</ele>
        <time>2024-10-21T09:13:44Z</time>
      </trkpt>
      <trkpt lat="45.83696" lon="1.18259">
        <ele>326.2</ele>
        <time>2024-10-21T09:13:45Z</time>
      </trkpt>
      <trkpt lat="45.83695" lon="1.18257">
        <ele>326.2</ele>
        <time>2024-10-21T09:13:46Z</time>
      </trkpt>
      <trkpt lat="45.83694" lon="1.18257">
        <ele>326.1</ele>
        <time>2024-10-21T09:13:47Z</time>
      </trkpt>
      <trkpt lat="45.83691" lon="1.18255">
        <ele>326.1</ele>
        <time>2024-10-21T09:13:48Z</time>
      </trkpt>
      <trkpt lat="45.83689" lon="1.18254">
        <ele>326.1</ele>
        <time>2024-10-21T09:13:50Z</time>
      </trkpt>
      <trkpt lat="45.83689" lon="1.18254">
        <ele>326.1</ele>
        <time>2024-10-21T09:13:51Z</time>
      </trkpt>
      <trkpt lat="45.83688" lon="1.18254">
        <ele>326.1</ele>
        <time>2024-10-21T09:13:52Z</time>
      </trkpt>
      <trkpt lat="45.83685" lon="1.18253">
        <ele>326</ele>
        <time>2024-10-21T09:13:53Z</time>
      </trkpt>
      <trkpt lat="45.83685" lon="1.18253">
        <ele>326</ele>
        <time>2024-10-21T09:13:54Z</time>
      </trkpt>
      <trkpt lat="45.83684" lon="1.18253">
        <ele>326</ele>
        <time>2024-10-21T09:13:55Z</time>
      </trkpt>
      <trkpt lat="45.83682" lon="1.18253">
        <ele>326</ele>
        <time>2024-10-21T09:13:56Z</time>
      </trkpt>
      <trkpt lat="45.83681" lon="1.18252">
        <ele>326</ele>
        <time>2024-10-21T09:13:57Z</time>
      </trkpt>
      <trkpt lat="45.83679" lon="1.18252">
        <ele>326</ele>
        <time>2024-10-21T09:13:58Z</time>
      </trkpt>
      <trkpt lat="45.83676" lon="1.18251">
        <ele>325.9</ele>
        <time>2024-10-21T09:13:59Z</time>
      </trkpt>
      <trkpt lat="45.83674" lon="1.1825">
        <ele>325.9</ele>
        <time>2024-10-21T09:14:00Z</time>
      </trkpt>
      <trkpt lat="45.83674" lon="1.1825">
        <ele>325.9</ele>
        <time>2024-10-21T09:14:01Z</time>
      </trkpt>
      <trkpt lat="45.83674" lon="1.1825">
        <ele>325.9</ele>
        <time>2024-10-21T09:14:02Z</time>
      </trkpt>
      <trkpt lat="45.83672" lon="1.1825">
        <ele>325.9</ele>
        <time>2024-10-21T09:14:03Z</time>
      </trkpt>
      <trkpt lat="45.8367" lon="1.1825">
        <ele>325.9</ele>
        <time>2024-10-21T09:14:04Z</time>
      </trkpt>
      <trkpt lat="45.83669" lon="1.18249">
        <ele>325.8</ele>
        <time>2024-10-21T09:14:05Z</time>
      </trkpt>
      <trkpt lat="45.83668" lon="1.18249">
        <ele>325.8</ele>
        <time>2024-10-21T09:14:06Z</time>
      </trkpt>
      <trkpt lat="45.83666" lon="1.18249">
        <ele>325.8</ele>
        <time>2024-10-21T09:14:07Z</time>
      </trkpt>
      <trkpt lat="45.83665" lon="1.18248">
        <ele>325.8</ele>
        <time>2024-10-21T09:14:08Z</time>
      </trkpt>
      <trkpt lat="45.83663" lon="1.18248">
        <ele>325.7</ele>
        <time>2024-10-21T09:14:09Z</time>
      </trkpt>
      <trkpt lat="45.83662" lon="1.18248">
        <ele>325.7</ele>
        <time>2024-10-21T09:14:10Z</time>
      </trkpt>
      <trkpt lat="45.8366" lon="1.18247">
        <ele>325.7</ele>
        <time>2024-10-21T09:14:11Z</time>
      </trkpt>
      <trkpt lat="45.83659" lon="1.18247">
        <ele>325.6</ele>
        <time>2024-10-21T09:14:12Z</time>
      </trkpt>
      <trkpt lat="45.83658" lon="1.18247">
        <ele>325.6</ele>
        <time>2024-10-21T09:14:13Z</time>
      </trkpt>
      <trkpt lat="45.83656" lon="1.18246">
        <ele>325.6</ele>
        <time>2024-10-21T09:14:14Z</time>
      </trkpt>
      <trkpt lat="45.83655" lon="1.18246">
        <ele>325.5</ele>
        <time>2024-10-21T09:14:15Z</time>
      </trkpt>
      <trkpt lat="45.83653" lon="1.18245">
        <ele>325.5</ele>
        <time>2024-10-21T09:14:16Z</time>
      </trkpt>
      <trkpt lat="45.83652" lon="1.18245">
        <ele>325.4</ele>
        <time>2024-10-21T09:14:17Z</time>
      </trkpt>
      <trkpt lat="45.8365" lon="1.18245">
        <ele>325.4</ele>
        <time>2024-10-21T09:14:18Z</time>
      </trkpt>
      <trkpt lat="45.83649" lon="1.18244">
        <ele>325.4</ele>
        <time>2024-10-21T09:14:19Z</time>
      </trkpt>
      <trkpt lat="45.83647" lon="1.18244">
        <ele>325.3</ele>
        <time>2024-10-21T09:14:20Z</time>
      </trkpt>
      <trkpt lat="45.83646" lon="1.18243">
        <ele>325.3</ele>
        <time>2024-10-21T09:14:21Z</time>
      </trkpt>
      <trkpt lat="45.83643" lon="1.18243">
        <ele>325.2</ele>
        <time>2024-10-21T09:14:22Z</time>
      </trkpt>
      <trkpt lat="45.83641" lon="1.18242">
        <ele>325.2</ele>
        <time>2024-10-21T09:14:24Z</time>
      </trkpt>
      <trkpt lat="45.8364" lon="1.18242">
        <ele>325.1</ele>
        <time>2024-10-21T09:14:25Z</time>
      </trkpt>
      <trkpt lat="45.83638" lon="1.18242">
        <ele>325.1</ele>
        <time>2024-10-21T09:14:26Z</time>
      </trkpt>
      <trkpt lat="45.83637" lon="1.18242">
        <ele>325</ele>
        <time>2024-10-21T09:14:27Z</time>
      </trkpt>
      <trkpt lat="45.83635" lon="1.18242">
        <ele>325</ele>
        <time>2024-10-21T09:14:28Z</time>
      </trkpt>
      <trkpt lat="45.83633" lon="1.18241">
        <ele>325</ele>
        <time>2024-10-21T09:14:29Z</time>
      </trkpt>
      <trkpt lat="45.83632" lon="1.1824">
        <ele>324.9</ele>
        <time>2024-10-21T09:14:30Z</time>
      </trkpt>
      <trkpt lat="45.83631" lon="1.1824">
        <ele>324.9</ele>
        <time>2024-10-21T09:14:31Z</time>
      </trkpt>
      <trkpt lat="45.8363" lon="1.18239">
        <ele>324.8</ele>
        <time>2024-10-21T09:14:32Z</time>
      </trkpt>
      <trkpt lat="45.83628" lon="1.18239">
        <ele>324.8</ele>
        <time>2024-10-21T09:14:33Z</time>
      </trkpt>
      <trkpt lat="45.83627" lon="1.18238">
        <ele>324.8</ele>
        <time>2024-10-21T09:14:34Z</time>
      </trkpt>
      <trkpt lat="45.83625" lon="1.18238">
        <ele>324.7</ele>
        <time>2024-10-21T09:14:35Z</time>
      </trkpt>
      <trkpt lat="45.83624" lon="1.18238">
        <ele>324.7</ele>
        <time>2024-10-21T09:14:36Z</time>
      </trkpt>
      <trkpt lat="45.83623" lon="1.18237">
        <ele>324.7</ele>
        <time>2024-10-21T09:14:37Z</time>
      </trkpt>
      <trkpt lat="45.83621" lon="1.18237">
        <ele>324.6</ele>
        <time>2024-10-21T09:14:38Z</time>
      </trkpt>
      <trkpt lat="45.8362" lon="1.18237">
        <ele>324.6</ele>
        <time>2024-10-21T09:14:39Z</time>
      </trkpt>
      <trkpt lat="45.83618" lon="1.18236">
        <ele>324.5</ele>
        <time>2024-10-21T09:14:40Z</time>
      </trkpt>
      <trkpt lat="45.83617" lon="1.18236">
        <ele>324.5</ele>
        <time>2024-10-21T09:14:41Z</time>
      </trkpt>
      <trkpt lat="45.83616" lon="1.18236">
        <ele>324.5</ele>
        <time>2024-10-21T09:14:42Z</time>
      </trkpt>
      <trkpt lat="45.83614" lon="1.18235">
        <ele>324.4</ele>
        <time>2024-10-21T09:14:43Z</time>
      </trkpt>
      <trkpt lat="45.83613" lon="1.18235">
        <ele>324.4</ele>
        <time>2024-10-21T09:14:44Z</time>
      </trkpt>
      <trkpt lat="45.8361" lon="1.18234">
        <ele>324.3</ele>
        <time>2024-10-21T09:14:45Z</time>
      </trkpt>
      <trkpt lat="45.83609" lon="1.18234">
        <ele>324.3</ele>
        <time>2024-10-21T09:14:46Z</time>
      </trkpt>
      <trkpt lat="45.83607" lon="1.18234">
        <ele>324.2</ele>
        <time>2024-10-21T09:14:48Z</time>
      </trkpt>
      <trkpt lat="45.83606" lon="1.18233">
        <ele>324.2</ele>
        <time>2024-10-21T09:14:49Z</time>
      </trkpt>
      <trkpt lat="45.83605" lon="1.18233">
        <ele>324.1</ele>
        <time>2024-10-21T09:14:50Z</time>
      </trkpt>
      <trkpt lat="45.83603" lon="1.18233">
        <ele>324.1</ele>
        <time>2024-10-21T09:14:51Z</time>
      </trkpt>
      <trkpt lat="45.83602" lon="1.18233">
        <ele>324.1</ele>
        <time>2024-10-21T09:14:52Z</time>
      </trkpt>
      <trkpt lat="45.83601" lon="1.18233">
        <ele>324</ele>
        <time>2024-10-21T09:14:53Z</time>
      </trkpt>
      <trkpt lat="45.83599" lon="1.18232">
        <ele>324</ele>
        <time>2024-10-21T09:14:54Z</time>
      </trkpt>
      <trkpt lat="45.83598" lon="1.18232">
        <ele>324</ele>
        <time>2024-10-21T09:14:55Z</time>
      </trkpt>
      <trkpt lat="45.83598" lon="1.18232">
        <ele>323.9</ele>
        <time>2024-10-21T09:14:56Z</time>
      </trkpt>
      <trkpt lat="45.83596" lon="1.18231">
        <ele>323.9</ele>
        <time>2024-10-21T09:14:57Z</time>
      </trkpt>
      <trkpt lat="45.83595" lon="1.18231">
        <ele>323.8</ele>
        <time>2024-10-21T09:14:58Z</time>
      </trkpt>
      <trkpt lat="45.83593" lon="1.18231">
        <ele>323.8</ele>
        <time>2024-10-21T09:14:59Z</time>
      </trkpt>
      <trkpt lat="45.83592" lon="1.1823">
        <ele>323.8</ele>
        <time>2024-10-21T09:15:00Z</time>
      </trkpt>
      <trkpt lat="45.83591" lon="1.1823">
        <ele>323.7</ele>
        <time>2024-10-21T09:15:01Z</time>
      </trkpt>
      <trkpt lat="45.83589" lon="1.1823">
        <ele>323.7</ele>
        <time>2024-10-21T09:15:02Z</time>
      </trkpt>
      <trkpt lat="45.83588" lon="1.1823">
        <ele>323.6</ele>
        <time>2024-10-21T09:15:03Z</time>
      </trkpt>
      <trkpt lat="45.83586" lon="1.1823">
        <ele>323.6</ele>
        <time>2024-10-21T09:15:04Z</time>
      </trkpt>
      <trkpt lat="45.83585" lon="1.18229">
        <ele>323.5</ele>
        <time>2024-10-21T09:15:05Z</time>
      </trkpt>
      <trkpt lat="45.83583" lon="1.18229">
        <ele>323.5</ele>
        <time>2024-10-21T09:15:06Z</time>
      </trkpt>
      <trkpt lat="45.83582" lon="1.18228">
        <ele>323.4</ele>
        <time>2024-10-21T09:15:07Z</time>
      </trkpt>
      <trkpt lat="45.8358" lon="1.18228">
        <ele>323.4</ele>
        <time>2024-10-21T09:15:08Z</time>
      </trkpt>
      <trkpt lat="45.83579" lon="1.18228">
        <ele>323.3</ele>
        <time>2024-10-21T09:15:09Z</time>
      </trkpt>
      <trkpt lat="45.83577" lon="1.18227">
        <ele>323.3</ele>
        <time>2024-10-21T09:15:10Z</time>
      </trkpt>
      <trkpt lat="45.83576" lon="1.18227">
        <ele>323.3</ele>
        <time>2024-10-21T09:15:11Z</time>
      </trkpt>
      <trkpt lat="45.83575" lon="1.18226">
        <ele>323.2</ele>
        <time>2024-10-21T09:15:12Z</time>
      </trkpt>
      <trkpt lat="45.83573" lon="1.18226">
        <ele>323.2</ele>
        <time>2024-10-21T09:15:13Z</time>
      </trkpt>
      <trkpt lat="45.83571" lon="1.18225">
        <ele>323.1</ele>
        <time>2024-10-21T09:15:14Z</time>
      </trkpt>
      <trkpt lat="45.83569" lon="1.18224">
        <ele>323.1</ele>
        <time>2024-10-21T09:15:15Z</time>
      </trkpt>
      <trkpt lat="45.83568" lon="1.18224">
        <ele>323.1</ele>
        <time>2024-10-21T09:15:16Z</time>
      </trkpt>
      <trkpt lat="45.83567" lon="1.18224">
        <ele>323</ele>
        <time>2024-10-21T09:15:17Z</time>
      </trkpt>
      <trkpt lat="45.83566" lon="1.18223">
        <ele>323</ele>
        <time>2024-10-21T09:15:18Z</time>
      </trkpt>
      <trkpt lat="45.83564" lon="1.18222">
        <ele>322.9</ele>
        <time>2024-10-21T09:15:19Z</time>
      </trkpt>
      <trkpt lat="45.83562" lon="1.18221">
        <ele>322.9</ele>
        <time>2024-10-21T09:15:20Z</time>
      </trkpt>
      <trkpt lat="45.83561" lon="1.18221">
        <ele>322.9</ele>
        <time>2024-10-21T09:15:21Z</time>
      </trkpt>
      <trkpt lat="45.8356" lon="1.1822">
        <ele>322.8</ele>
        <time>2024-10-21T09:15:22Z</time>
      </trkpt>
      <trkpt lat="45.83559" lon="1.18219">
        <ele>322.8</ele>
        <time>2024-10-21T09:15:23Z</time>
      </trkpt>
      <trkpt lat="45.83557" lon="1.18218">
        <ele>322.8</ele>
        <time>2024-10-21T09:15:24Z</time>
      </trkpt>
      <trkpt lat="45.83555" lon="1.18217">
        <ele>322.7</ele>
        <time>2024-10-21T09:15:25Z</time>
      </trkpt>
      <trkpt lat="45.83555" lon="1.18217">
        <ele>322.7</ele>
        <time>2024-10-21T09:15:26Z</time>
      </trkpt>
      <trkpt lat="45.83554" lon="1.18216">
        <ele>322.7</ele>
        <time>2024-10-21T09:15:27Z</time>
      </trkpt>
      <trkpt lat="45.83552" lon="1.18216">
        <ele>322.6</ele>
        <time>2024-10-21T09:15:28Z</time>
      </trkpt>
      <trkpt lat="45.83551" lon="1.18216">
        <ele>322.6</ele>
        <time>2024-10-21T09:15:29Z</time>
      </trkpt>
      <trkpt lat="45.8355" lon="1.18215">
        <ele>322.6</ele>
        <time>2024-10-21T09:15:30Z</time>
      </trkpt>
      <trkpt lat="45.83548" lon="1.18215">
        <ele>322.5</ele>
        <time>2024-10-21T09:15:31Z</time>
      </trkpt>
      <trkpt lat="45.83547" lon="1.18214">
        <ele>322.5</ele>
        <time>2024-10-21T09:15:32Z</time>
      </trkpt>
      <trkpt lat="45.83545" lon="1.18214">
        <ele>322.4</ele>
        <time>2024-10-21T09:15:33Z</time>
      </trkpt>
      <trkpt lat="45.83544" lon="1.18213">
        <ele>322.4</ele>
        <time>2024-10-21T09:15:34Z</time>
      </trkpt>
      <trkpt lat="45.83542" lon="1.18213">
        <ele>322.4</ele>
        <time>2024-10-21T09:15:35Z</time>
      </trkpt>
      <trkpt lat="45.83541" lon="1.18212">
        <ele>322.3</ele>
        <time>2024-10-21T09:15:36Z</time>
      </trkpt>
      <trkpt lat="45.83539" lon="1.18212">
        <ele>322.3</ele>
        <time>2024-10-21T09:15:37Z</time>
      </trkpt>
      <trkpt lat="45.83536" lon="1.18211">
        <ele>322.3</ele>
        <time>2024-10-21T09:15:38Z</time>
      </trkpt>
      <trkpt lat="45.83535" lon="1.1821">
        <ele>322.2</ele>
        <time>2024-10-21T09:15:40Z</time>
      </trkpt>
      <trkpt lat="45.83534" lon="1.1821">
        <ele>322.2</ele>
        <time>2024-10-21T09:15:41Z</time>
      </trkpt>
      <trkpt lat="45.83533" lon="1.1821">
        <ele>322.2</ele>
        <time>2024-10-21T09:15:42Z</time>
      </trkpt>
      <trkpt lat="45.83531" lon="1.18209">
        <ele>322.2</ele>
        <time>2024-10-21T09:15:43Z</time>
      </trkpt>
      <trkpt lat="45.8353" lon="1.18208">
        <ele>322.1</ele>
        <time>2024-10-21T09:15:44Z</time>
      </trkpt>
      <trkpt lat="45.83529" lon="1.18208">
        <ele>322.1</ele>
        <time>2024-10-21T09:15:45Z</time>
      </trkpt>
      <trkpt lat="45.83528" lon="1.18207">
        <ele>322.1</ele>
        <time>2024-10-21T09:15:46Z</time>
      </trkpt>
      <trkpt lat="45.83527" lon="1.18207">
        <ele>322.1</ele>
        <time>2024-10-21T09:15:47Z</time>
      </trkpt>
      <trkpt lat="45.83525" lon="1.18206">
        <ele>322.1</ele>
        <time>2024-10-21T09:15:48Z</time>
      </trkpt>
      <trkpt lat="45.83524" lon="1.18205">
        <ele>322</ele>
        <time>2024-10-21T09:15:49Z</time>
      </trkpt>
      <trkpt lat="45.83522" lon="1.18204">
        <ele>322</ele>
        <time>2024-10-21T09:15:50Z</time>
      </trkpt>
      <trkpt lat="45.83521" lon="1.18204">
        <ele>322</ele>
        <time>2024-10-21T09:15:51Z</time>
      </trkpt>
      <trkpt lat="45.8352" lon="1.18203">
        <ele>322</ele>
        <time>2024-10-21T09:15:52Z</time>
      </trkpt>
      <trkpt lat="45.83519" lon="1.18203">
        <ele>322</ele>
        <time>2024-10-21T09:15:53Z</time>
      </trkpt>
      <trkpt lat="45.83517" lon="1.18202">
        <ele>321.9</ele>
        <time>2024-10-21T09:15:54Z</time>
      </trkpt>
      <trkpt lat="45.83515" lon="1.18201">
        <ele>321.9</ele>
        <time>2024-10-21T09:15:55Z</time>
      </trkpt>
      <trkpt lat="45.83514" lon="1.18201">
        <ele>321.9</ele>
        <time>2024-10-21T09:15:56Z</time>
      </trkpt>
      <trkpt lat="45.83513" lon="1.182">
        <ele>321.9</ele>
        <time>2024-10-21T09:15:57Z</time>
      </trkpt>
      <trkpt lat="45.83512" lon="1.182">
        <ele>321.8</ele>
        <time>2024-10-21T09:15:58Z</time>
      </trkpt>
      <trkpt lat="45.8351" lon="1.18199">
        <ele>321.8</ele>
        <time>2024-10-21T09:15:59Z</time>
      </trkpt>
      <trkpt lat="45.83509" lon="1.18198">
        <ele>321.8</ele>
        <time>2024-10-21T09:16:00Z</time>
      </trkpt>
      <trkpt lat="45.83508" lon="1.18198">
        <ele>321.8</ele>
        <time>2024-10-21T09:16:01Z</time>
      </trkpt>
      <trkpt lat="45.83506" lon="1.18196">
        <ele>321.7</ele>
        <time>2024-10-21T09:16:02Z</time>
      </trkpt>
      <trkpt lat="45.83505" lon="1.18196">
        <ele>321.7</ele>
        <time>2024-10-21T09:16:03Z</time>
      </trkpt>
      <trkpt lat="45.83503" lon="1.18195">
        <ele>321.7</ele>
        <time>2024-10-21T09:16:04Z</time>
      </trkpt>
      <trkpt lat="45.83502" lon="1.18194">
        <ele>321.7</ele>
        <time>2024-10-21T09:16:05Z</time>
      </trkpt>
      <trkpt lat="45.83501" lon="1.18193">
        <ele>321.7</ele>
        <time>2024-10-21T09:16:06Z</time>
      </trkpt>
      <trkpt lat="45.835" lon="1.18192">
        <ele>321.6</ele>
        <time>2024-10-21T09:16:07Z</time>
      </trkpt>
      <trkpt lat="45.83498" lon="1.18191">
        <ele>321.6</ele>
        <time>2024-10-21T09:16:08Z</time>
      </trkpt>
      <trkpt lat="45.83497" lon="1.18189">
        <ele>321.6</ele>
        <time>2024-10-21T09:16:09Z</time>
      </trkpt>
      <trkpt lat="45.83495" lon="1.18188">
        <ele>321.6</ele>
        <time>2024-10-21T09:16:10Z</time>
      </trkpt>
      <trkpt lat="45.83494" lon="1.18187">
        <ele>321.5</ele>
        <time>2024-10-21T09:16:11Z</time>
      </trkpt>
      <trkpt lat="45.83493" lon="1.18187">
        <ele>321.5</ele>
        <time>2024-10-21T09:16:12Z</time>
      </trkpt>
      <trkpt lat="45.83492" lon="1.18186">
        <ele>321.5</ele>
        <time>2024-10-21T09:16:13Z</time>
      </trkpt>
      <trkpt lat="45.8349" lon="1.18185">
        <ele>321.5</ele>
        <time>2024-10-21T09:16:14Z</time>
      </trkpt>
      <trkpt lat="45.83488" lon="1.18184">
        <ele>321.5</ele>
        <time>2024-10-21T09:16:15Z</time>
      </trkpt>
      <trkpt lat="45.83487" lon="1.18184">
        <ele>321.5</ele>
        <time>2024-10-21T09:16:16Z</time>
      </trkpt>
      <trkpt lat="45.83486" lon="1.18183">
        <ele>321.4</ele>
        <time>2024-10-21T09:16:17Z</time>
      </trkpt>
      <trkpt lat="45.83484" lon="1.18182">
        <ele>321.4</ele>
        <time>2024-10-21T09:16:18Z</time>
      </trkpt>
      <trkpt lat="45.83483" lon="1.18182">
        <ele>321.4</ele>
        <time>2024-10-21T09:16:19Z</time>
      </trkpt>
      <trkpt lat="45.83482" lon="1.18181">
        <ele>321.4</ele>
        <time>2024-10-21T09:16:20Z</time>
      </trkpt>
      <trkpt lat="45.83481" lon="1.1818">
        <ele>321.4</ele>
        <time>2024-10-21T09:16:21Z</time>
      </trkpt>
      <trkpt lat="45.8348" lon="1.18179">
        <ele>321.4</ele>
        <time>2024-10-21T09:16:22Z</time>
      </trkpt>
      <trkpt lat="45.83479" lon="1.18178">
        <ele>321.4</ele>
        <time>2024-10-21T09:16:23Z</time>
      </trkpt>
      <trkpt lat="45.83477" lon="1.18178">
        <ele>321.4</ele>
        <time>2024-10-21T09:16:24Z</time>
      </trkpt>
      <trkpt lat="45.83476" lon="1.18177">
        <ele>321.3</ele>
        <time>2024-10-21T09:16:25Z</time>
      </trkpt>
      <trkpt lat="45.83475" lon="1.18177">
        <ele>321.3</ele>
        <time>2024-10-21T09:16:26Z</time>
      </trkpt>
      <trkpt lat="45.83473" lon="1.18176">
        <ele>321.3</ele>
        <time>2024-10-21T09:16:27Z</time>
      </trkpt>
      <trkpt lat="45.83472" lon="1.18175">
        <ele>321.3</ele>
        <time>2024-10-21T09:16:28Z</time>
      </trkpt>
      <trkpt lat="45.83471" lon="1.18175">
        <ele>321.3</ele>
        <time>2024-10-21T09:16:29Z</time>
      </trkpt>
      <trkpt lat="45.8347" lon="1.18174">
        <ele>321.3</ele>
        <time>2024-10-21T09:16:30Z</time>
      </trkpt>
      <trkpt lat="45.8347" lon="1.18174">
        <ele>321.3</ele>
        <time>2024-10-21T09:16:31Z</time>
      </trkpt>
      <trkpt lat="45.83468" lon="1.18174">
        <ele>321.3</ele>
        <time>2024-10-21T09:16:32Z</time>
      </trkpt>
      <trkpt lat="45.83467" lon="1.18173">
        <ele>321.3</ele>
        <time>2024-10-21T09:16:33Z</time>
      </trkpt>
      <trkpt lat="45.83465" lon="1.18173">
        <ele>321.3</ele>
        <time>2024-10-21T09:16:34Z</time>
      </trkpt>
      <trkpt lat="45.83464" lon="1.18172">
        <ele>321.3</ele>
        <time>2024-10-21T09:16:35Z</time>
      </trkpt>
      <trkpt lat="45.83462" lon="1.18171">
        <ele>321.3</ele>
        <time>2024-10-21T09:16:36Z</time>
      </trkpt>
      <trkpt lat="45.83461" lon="1.1817">
        <ele>321.3</ele>
        <time>2024-10-21T09:16:37Z</time>
      </trkpt>
      <trkpt lat="45.8346" lon="1.18169">
        <ele>321.3</ele>
        <time>2024-10-21T09:16:38Z</time>
      </trkpt>
      <trkpt lat="45.83459" lon="1.18168">
        <ele>321.3</ele>
        <time>2024-10-21T09:16:39Z</time>
      </trkpt>
      <trkpt lat="45.83458" lon="1.18167">
        <ele>321.3</ele>
        <time>2024-10-21T09:16:40Z</time>
      </trkpt>
      <trkpt lat="45.83456" lon="1.18167">
        <ele>321.3</ele>
        <time>2024-10-21T09:16:41Z</time>
      </trkpt>
      <trkpt lat="45.83454" lon="1.18166">
        <ele>321.3</ele>
        <time>2024-10-21T09:16:42Z</time>
      </trkpt>
      <trkpt lat="45.83453" lon="1.18166">
        <ele>321.3</ele>
        <time>2024-10-21T09:16:43Z</time>
      </trkpt>
      <trkpt lat="45.83453" lon="1.18165">
        <ele>321.3</ele>
        <time>2024-10-21T09:16:44Z</time>
      </trkpt>
      <trkpt lat="45.83451" lon="1.18165">
        <ele>321.2</ele>
        <time>2024-10-21T09:16:45Z</time>
      </trkpt>
      <trkpt lat="45.8345" lon="1.18164">
        <ele>321.2</ele>
        <time>2024-10-21T09:16:46Z</time>
      </trkpt>
      <trkpt lat="45.83449" lon="1.18164">
        <ele>321.2</ele>
        <time>2024-10-21T09:16:47Z</time>
      </trkpt>
      <trkpt lat="45.83447" lon="1.18163">
        <ele>321.2</ele>
        <time>2024-10-21T09:16:48Z</time>
      </trkpt>
      <trkpt lat="45.83444" lon="1.18162">
        <ele>321.2</ele>
        <time>2024-10-21T09:16:49Z</time>
      </trkpt>
      <trkpt lat="45.83443" lon="1.18161">
        <ele>321.2</ele>
        <time>2024-10-21T09:16:50Z</time>
      </trkpt>
      <trkpt lat="45.83441" lon="1.1816">
        <ele>321.2</ele>
        <time>2024-10-21T09:16:52Z</time>
      </trkpt>
      <trkpt lat="45.83438" lon="1.18157">
        <ele>321.2</ele>
        <time>2024-10-21T09:16:54Z</time>
      </trkpt>
      <trkpt lat="45.83437" lon="1.18156">
        <ele>321.2</ele>
        <time>2024-10-21T09:16:56Z</time>
      </trkpt>
      <trkpt lat="45.83436" lon="1.18155">
        <ele>321.2</ele>
        <time>2024-10-21T09:16:57Z</time>
      </trkpt>
      <trkpt lat="45.83435" lon="1.18154">
        <ele>321.2</ele>
        <time>2024-10-21T09:16:58Z</time>
      </trkpt>
      <trkpt lat="45.83434" lon="1.18153">
        <ele>321.2</ele>
        <time>2024-10-21T09:16:59Z</time>
      </trkpt>
      <trkpt lat="45.83432" lon="1.18152">
        <ele>321.2</ele>
        <time>2024-10-21T09:17:00Z</time>
      </trkpt>
      <trkpt lat="45.83431" lon="1.18151">
        <ele>321.2</ele>
        <time>2024-10-21T09:17:01Z</time>
      </trkpt>
      <trkpt lat="45.8343" lon="1.1815">
        <ele>321.2</ele>
        <time>2024-10-21T09:17:02Z</time>
      </trkpt>
      <trkpt lat="45.83429" lon="1.18148">
        <ele>321.1</ele>
        <time>2024-10-21T09:17:03Z</time>
      </trkpt>
      <trkpt lat="45.83428" lon="1.18147">
        <ele>321.1</ele>
        <time>2024-10-21T09:17:04Z</time>
      </trkpt>
      <trkpt lat="45.83426" lon="1.18146">
        <ele>321.1</ele>
        <time>2024-10-21T09:17:05Z</time>
      </trkpt>
      <trkpt lat="45.83425" lon="1.18145">
        <ele>321.1</ele>
        <time>2024-10-21T09:17:06Z</time>
      </trkpt>
      <trkpt lat="45.83424" lon="1.18144">
        <ele>321.1</ele>
        <time>2024-10-21T09:17:07Z</time>
      </trkpt>
      <trkpt lat="45.83423" lon="1.18143">
        <ele>321.1</ele>
        <time>2024-10-21T09:17:08Z</time>
      </trkpt>
      <trkpt lat="45.83422" lon="1.18142">
        <ele>321.1</ele>
        <time>2024-10-21T09:17:09Z</time>
      </trkpt>
      <trkpt lat="45.83421" lon="1.1814">
        <ele>321.1</ele>
        <time>2024-10-21T09:17:10Z</time>
      </trkpt>
      <trkpt lat="45.83419" lon="1.18139">
        <ele>321.1</ele>
        <time>2024-10-21T09:17:11Z</time>
      </trkpt>
      <trkpt lat="45.83418" lon="1.18139">
        <ele>321.1</ele>
        <time>2024-10-21T09:17:12Z</time>
      </trkpt>
      <trkpt lat="45.83417" lon="1.18138">
        <ele>321.1</ele>
        <time>2024-10-21T09:17:13Z</time>
      </trkpt>
      <trkpt lat="45.83416" lon="1.18137">
        <ele>321.1</ele>
        <time>2024-10-21T09:17:14Z</time>
      </trkpt>
      <trkpt lat="45.83414" lon="1.18136">
        <ele>321.1</ele>
        <time>2024-10-21T09:17:15Z</time>
      </trkpt>
      <trkpt lat="45.83413" lon="1.18135">
        <ele>321.1</ele>
        <time>2024-10-21T09:17:16Z</time>
      </trkpt>
      <trkpt lat="45.83413" lon="1.18134">
        <ele>321.1</ele>
        <time>2024-10-21T09:17:17Z</time>
      </trkpt>
      <trkpt lat="45.83412" lon="1.18133">
        <ele>321.2</ele>
        <time>2024-10-21T09:17:18Z</time>
      </trkpt>
      <trkpt lat="45.83412" lon="1.1813">
        <ele>321.2</ele>
        <time>2024-10-21T09:17:19Z</time>
      </trkpt>
      <trkpt lat="45.83411" lon="1.18129">
        <ele>321.2</ele>
        <time>2024-10-21T09:17:20Z</time>
      </trkpt>
      <trkpt lat="45.83409" lon="1.18128">
        <ele>321.2</ele>
        <time>2024-10-21T09:17:21Z</time>
      </trkpt>
      <trkpt lat="45.83408" lon="1.18127">
        <ele>321.2</ele>
        <time>2024-10-21T09:17:22Z</time>
      </trkpt>
      <trkpt lat="45.83407" lon="1.18126">
        <ele>321.2</ele>
        <time>2024-10-21T09:17:23Z</time>
      </trkpt>
      <trkpt lat="45.83404" lon="1.18124">
        <ele>321.2</ele>
        <time>2024-10-21T09:17:24Z</time>
      </trkpt>
      <trkpt lat="45.83403" lon="1.18124">
        <ele>321.2</ele>
        <time>2024-10-21T09:17:26Z</time>
      </trkpt>
      <trkpt lat="45.83401" lon="1.18123">
        <ele>321.2</ele>
        <time>2024-10-21T09:17:27Z</time>
      </trkpt>
      <trkpt lat="45.834" lon="1.18122">
        <ele>321.2</ele>
        <time>2024-10-21T09:17:28Z</time>
      </trkpt>
      <trkpt lat="45.83398" lon="1.18121">
        <ele>321.2</ele>
        <time>2024-10-21T09:17:29Z</time>
      </trkpt>
      <trkpt lat="45.83397" lon="1.1812">
        <ele>321.2</ele>
        <time>2024-10-21T09:17:30Z</time>
      </trkpt>
      <trkpt lat="45.83397" lon="1.1812">
        <ele>321.2</ele>
        <time>2024-10-21T09:17:31Z</time>
      </trkpt>
      <trkpt lat="45.83394" lon="1.18118">
        <ele>321.2</ele>
        <time>2024-10-21T09:17:32Z</time>
      </trkpt>
      <trkpt lat="45.83393" lon="1.18117">
        <ele>321.2</ele>
        <time>2024-10-21T09:17:34Z</time>
      </trkpt>
      <trkpt lat="45.83392" lon="1.18116">
        <ele>321.2</ele>
        <time>2024-10-21T09:17:35Z</time>
      </trkpt>
      <trkpt lat="45.83391" lon="1.18114">
        <ele>321.2</ele>
        <time>2024-10-21T09:17:36Z</time>
      </trkpt>
      <trkpt lat="45.8339" lon="1.18113">
        <ele>321.2</ele>
        <time>2024-10-21T09:17:37Z</time>
      </trkpt>
      <trkpt lat="45.83388" lon="1.18112">
        <ele>321.3</ele>
        <time>2024-10-21T09:17:38Z</time>
      </trkpt>
      <trkpt lat="45.83387" lon="1.18112">
        <ele>321.3</ele>
        <time>2024-10-21T09:17:39Z</time>
      </trkpt>
      <trkpt lat="45.83386" lon="1.18111">
        <ele>321.3</ele>
        <time>2024-10-21T09:17:40Z</time>
      </trkpt>
      <trkpt lat="45.83385" lon="1.18109">
        <ele>321.3</ele>
        <time>2024-10-21T09:17:41Z</time>
      </trkpt>
      <trkpt lat="45.83383" lon="1.18108">
        <ele>321.3</ele>
        <time>2024-10-21T09:17:42Z</time>
      </trkpt>
      <trkpt lat="45.83382" lon="1.18107">
        <ele>321.3</ele>
        <time>2024-10-21T09:17:43Z</time>
      </trkpt>
      <trkpt lat="45.83381" lon="1.18106">
        <ele>321.4</ele>
        <time>2024-10-21T09:17:44Z</time>
      </trkpt>
      <trkpt lat="45.8338" lon="1.18105">
        <ele>321.4</ele>
        <time>2024-10-21T09:17:45Z</time>
      </trkpt>
      <trkpt lat="45.83378" lon="1.18104">
        <ele>321.4</ele>
        <time>2024-10-21T09:17:46Z</time>
      </trkpt>
      <trkpt lat="45.83377" lon="1.18103">
        <ele>321.4</ele>
        <time>2024-10-21T09:17:47Z</time>
      </trkpt>
      <trkpt lat="45.83375" lon="1.18102">
        <ele>321.5</ele>
        <time>2024-10-21T09:17:48Z</time>
      </trkpt>
      <trkpt lat="45.83373" lon="1.18101">
        <ele>321.5</ele>
        <time>2024-10-21T09:17:49Z</time>
      </trkpt>
      <trkpt lat="45.83372" lon="1.18101">
        <ele>321.5</ele>
        <time>2024-10-21T09:17:50Z</time>
      </trkpt>
      <trkpt lat="45.83372" lon="1.181">
        <ele>321.5</ele>
        <time>2024-10-21T09:17:51Z</time>
      </trkpt>
      <trkpt lat="45.8337" lon="1.18099">
        <ele>321.6</ele>
        <time>2024-10-21T09:17:52Z</time>
      </trkpt>
      <trkpt lat="45.83369" lon="1.18098">
        <ele>321.6</ele>
        <time>2024-10-21T09:17:53Z</time>
      </trkpt>
      <trkpt lat="45.83366" lon="1.18096">
        <ele>321.6</ele>
        <time>2024-10-21T09:17:54Z</time>
      </trkpt>
      <trkpt lat="45.83365" lon="1.18096">
        <ele>321.7</ele>
        <time>2024-10-21T09:17:55Z</time>
      </trkpt>
      <trkpt lat="45.83365" lon="1.18096">
        <ele>321.7</ele>
        <time>2024-10-21T09:17:56Z</time>
      </trkpt>
      <trkpt lat="45.83364" lon="1.18095">
        <ele>321.7</ele>
        <time>2024-10-21T09:17:57Z</time>
      </trkpt>
      <trkpt lat="45.83363" lon="1.18094">
        <ele>321.7</ele>
        <time>2024-10-21T09:17:58Z</time>
      </trkpt>
      <trkpt lat="45.83361" lon="1.18092">
        <ele>321.8</ele>
        <time>2024-10-21T09:17:59Z</time>
      </trkpt>
      <trkpt lat="45.8336" lon="1.18091">
        <ele>321.8</ele>
        <time>2024-10-21T09:18:00Z</time>
      </trkpt>
      <trkpt lat="45.8336" lon="1.1809">
        <ele>321.8</ele>
        <time>2024-10-21T09:18:01Z</time>
      </trkpt>
      <trkpt lat="45.83359" lon="1.18088">
        <ele>321.8</ele>
        <time>2024-10-21T09:18:02Z</time>
      </trkpt>
      <trkpt lat="45.83358" lon="1.18085">
        <ele>321.9</ele>
        <time>2024-10-21T09:18:03Z</time>
      </trkpt>
      <trkpt lat="45.83357" lon="1.18083">
        <ele>321.9</ele>
        <time>2024-10-21T09:18:04Z</time>
      </trkpt>
      <trkpt lat="45.83356" lon="1.18082">
        <ele>321.9</ele>
        <time>2024-10-21T09:18:05Z</time>
      </trkpt>
      <trkpt lat="45.83355" lon="1.18081">
        <ele>321.9</ele>
        <time>2024-10-21T09:18:06Z</time>
      </trkpt>
      <trkpt lat="45.83354" lon="1.1808">
        <ele>322</ele>
        <time>2024-10-21T09:18:07Z</time>
      </trkpt>
      <trkpt lat="45.83353" lon="1.18079">
        <ele>322</ele>
        <time>2024-10-21T09:18:08Z</time>
      </trkpt>
      <trkpt lat="45.83352" lon="1.18078">
        <ele>322</ele>
        <time>2024-10-21T09:18:09Z</time>
      </trkpt>
      <trkpt lat="45.8335" lon="1.18076">
        <ele>322.1</ele>
        <time>2024-10-21T09:18:10Z</time>
      </trkpt>
      <trkpt lat="45.83349" lon="1.18075">
        <ele>322.1</ele>
        <time>2024-10-21T09:18:12Z</time>
      </trkpt>
      <trkpt lat="45.83347" lon="1.18075">
        <ele>322.2</ele>
        <time>2024-10-21T09:18:13Z</time>
      </trkpt>
      <trkpt lat="45.83346" lon="1.18074">
        <ele>322.2</ele>
        <time>2024-10-21T09:18:14Z</time>
      </trkpt>
      <trkpt lat="45.83345" lon="1.18073">
        <ele>322.2</ele>
        <time>2024-10-21T09:18:15Z</time>
      </trkpt>
      <trkpt lat="45.83344" lon="1.18072">
        <ele>322.3</ele>
        <time>2024-10-21T09:18:16Z</time>
      </trkpt>
      <trkpt lat="45.83343" lon="1.18071">
        <ele>322.3</ele>
        <time>2024-10-21T09:18:17Z</time>
      </trkpt>
      <trkpt lat="45.83341" lon="1.1807">
        <ele>322.4</ele>
        <time>2024-10-21T09:18:18Z</time>
      </trkpt>
      <trkpt lat="45.83339" lon="1.18069">
        <ele>322.4</ele>
        <time>2024-10-21T09:18:19Z</time>
      </trkpt>
      <trkpt lat="45.83339" lon="1.18068">
        <ele>322.4</ele>
        <time>2024-10-21T09:18:20Z</time>
      </trkpt>
      <trkpt lat="45.83338" lon="1.18068">
        <ele>322.5</ele>
        <time>2024-10-21T09:18:21Z</time>
      </trkpt>
      <trkpt lat="45.83337" lon="1.18066">
        <ele>322.5</ele>
        <time>2024-10-21T09:18:22Z</time>
      </trkpt>
      <trkpt lat="45.83335" lon="1.18065">
        <ele>322.6</ele>
        <time>2024-10-21T09:18:23Z</time>
      </trkpt>
      <trkpt lat="45.83333" lon="1.18063">
        <ele>322.6</ele>
        <time>2024-10-21T09:18:24Z</time>
      </trkpt>
      <trkpt lat="45.83333" lon="1.18063">
        <ele>322.7</ele>
        <time>2024-10-21T09:18:25Z</time>
      </trkpt>
      <trkpt lat="45.83332" lon="1.18063">
        <ele>322.7</ele>
        <time>2024-10-21T09:18:26Z</time>
      </trkpt>
      <trkpt lat="45.8333" lon="1.18061">
        <ele>322.8</ele>
        <time>2024-10-21T09:18:27Z</time>
      </trkpt>
      <trkpt lat="45.83329" lon="1.18061">
        <ele>322.8</ele>
        <time>2024-10-21T09:18:28Z</time>
      </trkpt>
      <trkpt lat="45.83328" lon="1.1806">
        <ele>322.8</ele>
        <time>2024-10-21T09:18:29Z</time>
      </trkpt>
      <trkpt lat="45.83326" lon="1.18059">
        <ele>322.9</ele>
        <time>2024-10-21T09:18:30Z</time>
      </trkpt>
      <trkpt lat="45.83325" lon="1.18059">
        <ele>322.9</ele>
        <time>2024-10-21T09:18:31Z</time>
      </trkpt>
      <trkpt lat="45.83325" lon="1.18058">
        <ele>323</ele>
        <time>2024-10-21T09:18:32Z</time>
      </trkpt>
      <trkpt lat="45.83323" lon="1.18057">
        <ele>323</ele>
        <time>2024-10-21T09:18:33Z</time>
      </trkpt>
      <trkpt lat="45.83322" lon="1.18057">
        <ele>323.1</ele>
        <time>2024-10-21T09:18:34Z</time>
      </trkpt>
      <trkpt lat="45.8332" lon="1.18056">
        <ele>323.1</ele>
        <time>2024-10-21T09:18:35Z</time>
      </trkpt>
      <trkpt lat="45.83319" lon="1.18056">
        <ele>323.2</ele>
        <time>2024-10-21T09:18:36Z</time>
      </trkpt>
      <trkpt lat="45.83318" lon="1.18056">
        <ele>323.2</ele>
        <time>2024-10-21T09:18:37Z</time>
      </trkpt>
      <trkpt lat="45.83316" lon="1.18055">
        <ele>323.3</ele>
        <time>2024-10-21T09:18:38Z</time>
      </trkpt>
      <trkpt lat="45.83315" lon="1.18054">
        <ele>323.3</ele>
        <time>2024-10-21T09:18:39Z</time>
      </trkpt>
      <trkpt lat="45.83315" lon="1.18054">
        <ele>323.3</ele>
        <time>2024-10-21T09:18:40Z</time>
      </trkpt>
      <trkpt lat="45.83312" lon="1.18054">
        <ele>323.4</ele>
        <time>2024-10-21T09:18:41Z</time>
      </trkpt>
      <trkpt lat="45.83311" lon="1.18054">
        <ele>323.4</ele>
        <time>2024-10-21T09:18:42Z</time>
      </trkpt>
      <trkpt lat="45.8331" lon="1.18054">
        <ele>323.5</ele>
        <time>2024-10-21T09:18:43Z</time>
      </trkpt>
      <trkpt lat="45.83308" lon="1.18053">
        <ele>323.5</ele>
        <time>2024-10-21T09:18:44Z</time>
      </trkpt>
      <trkpt lat="45.83308" lon="1.18053">
        <ele>323.6</ele>
        <time>2024-10-21T09:18:45Z</time>
      </trkpt>
      <trkpt lat="45.83307" lon="1.18053">
        <ele>323.6</ele>
        <time>2024-10-21T09:18:46Z</time>
      </trkpt>
      <trkpt lat="45.83305" lon="1.18052">
        <ele>323.7</ele>
        <time>2024-10-21T09:18:47Z</time>
      </trkpt>
      <trkpt lat="45.83303" lon="1.18052">
        <ele>323.7</ele>
        <time>2024-10-21T09:18:48Z</time>
      </trkpt>
      <trkpt lat="45.83303" lon="1.18052">
        <ele>323.8</ele>
        <time>2024-10-21T09:18:49Z</time>
      </trkpt>
      <trkpt lat="45.83301" lon="1.18053">
        <ele>323.8</ele>
        <time>2024-10-21T09:18:50Z</time>
      </trkpt>
      <trkpt lat="45.833" lon="1.18053">
        <ele>323.8</ele>
        <time>2024-10-21T09:18:51Z</time>
      </trkpt>
      <trkpt lat="45.83299" lon="1.18053">
        <ele>323.9</ele>
        <time>2024-10-21T09:18:52Z</time>
      </trkpt>
      <trkpt lat="45.83297" lon="1.18053">
        <ele>324</ele>
        <time>2024-10-21T09:18:53Z</time>
      </trkpt>
      <trkpt lat="45.83295" lon="1.18052">
        <ele>324</ele>
        <time>2024-10-21T09:18:54Z</time>
      </trkpt>
      <trkpt lat="45.83294" lon="1.18051">
        <ele>324.1</ele>
        <time>2024-10-21T09:18:55Z</time>
      </trkpt>
      <trkpt lat="45.83294" lon="1.18051">
        <ele>324.1</ele>
        <time>2024-10-21T09:18:56Z</time>
      </trkpt>
      <trkpt lat="45.83291" lon="1.18049">
        <ele>324.2</ele>
        <time>2024-10-21T09:18:57Z</time>
      </trkpt>
      <trkpt lat="45.8329" lon="1.18049">
        <ele>324.2</ele>
        <time>2024-10-21T09:18:58Z</time>
      </trkpt>
      <trkpt lat="45.83289" lon="1.18047">
        <ele>324.3</ele>
        <time>2024-10-21T09:18:59Z</time>
      </trkpt>
      <trkpt lat="45.83288" lon="1.18047">
        <ele>324.3</ele>
        <time>2024-10-21T09:19:00Z</time>
      </trkpt>
      <trkpt lat="45.83287" lon="1.18046">
        <ele>324.3</ele>
        <time>2024-10-21T09:19:01Z</time>
      </trkpt>
      <trkpt lat="45.83285" lon="1.18045">
        <ele>324.4</ele>
        <time>2024-10-21T09:19:02Z</time>
      </trkpt>
      <trkpt lat="45.83283" lon="1.18044">
        <ele>324.4</ele>
        <time>2024-10-21T09:19:03Z</time>
      </trkpt>
      <trkpt lat="45.83283" lon="1.18044">
        <ele>324.5</ele>
        <time>2024-10-21T09:19:04Z</time>
      </trkpt>
      <trkpt lat="45.83281" lon="1.18043">
        <ele>324.5</ele>
        <time>2024-10-21T09:19:05Z</time>
      </trkpt>
      <trkpt lat="45.8328" lon="1.18042">
        <ele>324.6</ele>
        <time>2024-10-21T09:19:06Z</time>
      </trkpt>
      <trkpt lat="45.83278" lon="1.18042">
        <ele>324.6</ele>
        <time>2024-10-21T09:19:07Z</time>
      </trkpt>
      <trkpt lat="45.83277" lon="1.18042">
        <ele>324.6</ele>
        <time>2024-10-21T09:19:08Z</time>
      </trkpt>
      <trkpt lat="45.83277" lon="1.18042">
        <ele>324.7</ele>
        <time>2024-10-21T09:19:09Z</time>
      </trkpt>
      <trkpt lat="45.83275" lon="1.18042">
        <ele>324.7</ele>
        <time>2024-10-21T09:19:10Z</time>
      </trkpt>
      <trkpt lat="45.83274" lon="1.18042">
        <ele>324.7</ele>
        <time>2024-10-21T09:19:11Z</time>
      </trkpt>
      <trkpt lat="45.83273" lon="1.18042">
        <ele>324.8</ele>
        <time>2024-10-21T09:19:12Z</time>
      </trkpt>
      <trkpt lat="45.8327" lon="1.18041">
        <ele>324.8</ele>
        <time>2024-10-21T09:19:13Z</time>
      </trkpt>
      <trkpt lat="45.8327" lon="1.18041">
        <ele>324.8</ele>
        <time>2024-10-21T09:19:14Z</time>
      </trkpt>
      <trkpt lat="45.83269" lon="1.18041">
        <ele>324.9</ele>
        <time>2024-10-21T09:19:15Z</time>
      </trkpt>
      <trkpt lat="45.83268" lon="1.1804">
        <ele>324.9</ele>
        <time>2024-10-21T09:19:16Z</time>
      </trkpt>
      <trkpt lat="45.83266" lon="1.18039">
        <ele>324.9</ele>
        <time>2024-10-21T09:19:17Z</time>
      </trkpt>
      <trkpt lat="45.83264" lon="1.18039">
        <ele>325</ele>
        <time>2024-10-21T09:19:18Z</time>
      </trkpt>
      <trkpt lat="45.83264" lon="1.18039">
        <ele>325</ele>
        <time>2024-10-21T09:19:19Z</time>
      </trkpt>
      <trkpt lat="45.83262" lon="1.18038">
        <ele>325</ele>
        <time>2024-10-21T09:19:20Z</time>
      </trkpt>
      <trkpt lat="45.83261" lon="1.18038">
        <ele>325</ele>
        <time>2024-10-21T09:19:21Z</time>
      </trkpt>
      <trkpt lat="45.8326" lon="1.18038">
        <ele>325</ele>
        <time>2024-10-21T09:19:22Z</time>
      </trkpt>
      <trkpt lat="45.83258" lon="1.18037">
        <ele>325.1</ele>
        <time>2024-10-21T09:19:23Z</time>
      </trkpt>
      <trkpt lat="45.83257" lon="1.18037">
        <ele>325.1</ele>
        <time>2024-10-21T09:19:24Z</time>
      </trkpt>
      <trkpt lat="45.83255" lon="1.18036">
        <ele>325.1</ele>
        <time>2024-10-21T09:19:25Z</time>
      </trkpt>
      <trkpt lat="45.83254" lon="1.18036">
        <ele>325.1</ele>
        <time>2024-10-21T09:19:26Z</time>
      </trkpt>
      <trkpt lat="45.83253" lon="1.18036">
        <ele>325.1</ele>
        <time>2024-10-21T09:19:27Z</time>
      </trkpt>
      <trkpt lat="45.83251" lon="1.18036">
        <ele>325.1</ele>
        <time>2024-10-21T09:19:28Z</time>
      </trkpt>
      <trkpt lat="45.8325" lon="1.18035">
        <ele>325.2</ele>
        <time>2024-10-21T09:19:29Z</time>
      </trkpt>
      <trkpt lat="45.83249" lon="1.18035">
        <ele>325.2</ele>
        <time>2024-10-21T09:19:30Z</time>
      </trkpt>
      <trkpt lat="45.83248" lon="1.18034">
        <ele>325.2</ele>
        <time>2024-10-21T09:19:31Z</time>
      </trkpt>
      <trkpt lat="45.83246" lon="1.18034">
        <ele>325.2</ele>
        <time>2024-10-21T09:19:32Z</time>
      </trkpt>
      <trkpt lat="45.83244" lon="1.18033">
        <ele>325.2</ele>
        <time>2024-10-21T09:19:33Z</time>
      </trkpt>
      <trkpt lat="45.83243" lon="1.18033">
        <ele>325.2</ele>
        <time>2024-10-21T09:19:34Z</time>
      </trkpt>
      <trkpt lat="45.83242" lon="1.18032">
        <ele>325.2</ele>
        <time>2024-10-21T09:19:35Z</time>
      </trkpt>
      <trkpt lat="45.83241" lon="1.18031">
        <ele>325.2</ele>
        <time>2024-10-21T09:19:36Z</time>
      </trkpt>
      <trkpt lat="45.83239" lon="1.18031">
        <ele>325.2</ele>
        <time>2024-10-21T09:19:37Z</time>
      </trkpt>
      <trkpt lat="45.83237" lon="1.18031">
        <ele>325.3</ele>
        <time>2024-10-21T09:19:38Z</time>
      </trkpt>
      <trkpt lat="45.83237" lon="1.18031">
        <ele>325.3</ele>
        <time>2024-10-21T09:19:39Z</time>
      </trkpt>
      <trkpt lat="45.83234" lon="1.1803">
        <ele>325.3</ele>
        <time>2024-10-21T09:19:40Z</time>
      </trkpt>
      <trkpt lat="45.83232" lon="1.1803">
        <ele>325.3</ele>
        <time>2024-10-21T09:19:42Z</time>
      </trkpt>
      <trkpt lat="45.83231" lon="1.18029">
        <ele>325.3</ele>
        <time>2024-10-21T09:19:44Z</time>
      </trkpt>
      <trkpt lat="45.8323" lon="1.18028">
        <ele>325.3</ele>
        <time>2024-10-21T09:19:45Z</time>
      </trkpt>
      <trkpt lat="45.83228" lon="1.18028">
        <ele>325.3</ele>
        <time>2024-10-21T09:19:46Z</time>
      </trkpt>
      <trkpt lat="45.83227" lon="1.18027">
        <ele>325.3</ele>
        <time>2024-10-21T09:19:47Z</time>
      </trkpt>
      <trkpt lat="45.83225" lon="1.18026">
        <ele>325.4</ele>
        <time>2024-10-21T09:19:48Z</time>
      </trkpt>
      <trkpt lat="45.83224" lon="1.18026">
        <ele>325.4</ele>
        <time>2024-10-21T09:19:49Z</time>
      </trkpt>
      <trkpt lat="45.83223" lon="1.18026">
        <ele>325.4</ele>
        <time>2024-10-21T09:19:50Z</time>
      </trkpt>
      <trkpt lat="45.8322" lon="1.18026">
        <ele>325.4</ele>
        <time>2024-10-21T09:19:51Z</time>
      </trkpt>
      <trkpt lat="45.8322" lon="1.18026">
        <ele>325.4</ele>
        <time>2024-10-21T09:19:52Z</time>
      </trkpt>
      <trkpt lat="45.83219" lon="1.18026">
        <ele>325.4</ele>
        <time>2024-10-21T09:19:53Z</time>
      </trkpt>
      <trkpt lat="45.83217" lon="1.18026">
        <ele>325.4</ele>
        <time>2024-10-21T09:19:54Z</time>
      </trkpt>
      <trkpt lat="45.83217" lon="1.18026">
        <ele>325.4</ele>
        <time>2024-10-21T09:19:55Z</time>
      </trkpt>
      <trkpt lat="45.83216" lon="1.18026">
        <ele>325.5</ele>
        <time>2024-10-21T09:19:56Z</time>
      </trkpt>
      <trkpt lat="45.83214" lon="1.18026">
        <ele>325.5</ele>
        <time>2024-10-21T09:19:57Z</time>
      </trkpt>
      <trkpt lat="45.83213" lon="1.18026">
        <ele>325.5</ele>
        <time>2024-10-21T09:19:58Z</time>
      </trkpt>
      <trkpt lat="45.83211" lon="1.18026">
        <ele>325.5</ele>
        <time>2024-10-21T09:19:59Z</time>
      </trkpt>
      <trkpt lat="45.8321" lon="1.18026">
        <ele>325.5</ele>
        <time>2024-10-21T09:20:00Z</time>
      </trkpt>
      <trkpt lat="45.83209" lon="1.18025">
        <ele>325.5</ele>
        <time>2024-10-21T09:20:01Z</time>
      </trkpt>
      <trkpt lat="45.83208" lon="1.18025">
        <ele>325.6</ele>
        <time>2024-10-21T09:20:02Z</time>
      </trkpt>
      <trkpt lat="45.83205" lon="1.18024">
        <ele>325.6</ele>
        <time>2024-10-21T09:20:03Z</time>
      </trkpt>
      <trkpt lat="45.83204" lon="1.18023">
        <ele>325.6</ele>
        <time>2024-10-21T09:20:04Z</time>
      </trkpt>
      <trkpt lat="45.83203" lon="1.18023">
        <ele>325.6</ele>
        <time>2024-10-21T09:20:06Z</time>
      </trkpt>
      <trkpt lat="45.83201" lon="1.18022">
        <ele>325.6</ele>
        <time>2024-10-21T09:20:07Z</time>
      </trkpt>
      <trkpt lat="45.832" lon="1.18022">
        <ele>325.7</ele>
        <time>2024-10-21T09:20:08Z</time>
      </trkpt>
      <trkpt lat="45.83198" lon="1.18021">
        <ele>325.7</ele>
        <time>2024-10-21T09:20:09Z</time>
      </trkpt>
      <trkpt lat="45.83197" lon="1.18021">
        <ele>325.7</ele>
        <time>2024-10-21T09:20:10Z</time>
      </trkpt>
      <trkpt lat="45.83195" lon="1.1802">
        <ele>325.7</ele>
        <time>2024-10-21T09:20:11Z</time>
      </trkpt>
      <trkpt lat="45.83194" lon="1.1802">
        <ele>325.7</ele>
        <time>2024-10-21T09:20:12Z</time>
      </trkpt>
      <trkpt lat="45.83193" lon="1.1802">
        <ele>325.8</ele>
        <time>2024-10-21T09:20:13Z</time>
      </trkpt>
      <trkpt lat="45.83191" lon="1.1802">
        <ele>325.8</ele>
        <time>2024-10-21T09:20:14Z</time>
      </trkpt>
      <trkpt lat="45.8319" lon="1.1802">
        <ele>325.8</ele>
        <time>2024-10-21T09:20:15Z</time>
      </trkpt>
      <trkpt lat="45.83189" lon="1.1802">
        <ele>325.8</ele>
        <time>2024-10-21T09:20:16Z</time>
      </trkpt>
      <trkpt lat="45.83187" lon="1.1802">
        <ele>325.8</ele>
        <time>2024-10-21T09:20:17Z</time>
      </trkpt>
      <trkpt lat="45.83185" lon="1.1802">
        <ele>325.8</ele>
        <time>2024-10-21T09:20:18Z</time>
      </trkpt>
      <trkpt lat="45.83183" lon="1.1802">
        <ele>325.8</ele>
        <time>2024-10-21T09:20:19Z</time>
      </trkpt>
      <trkpt lat="45.83183" lon="1.1802">
        <ele>325.8</ele>
        <time>2024-10-21T09:20:20Z</time>
      </trkpt>
      <trkpt lat="45.83182" lon="1.18019">
        <ele>325.8</ele>
        <time>2024-10-21T09:20:21Z</time>
      </trkpt>
      <trkpt lat="45.83181" lon="1.18019">
        <ele>325.8</ele>
        <time>2024-10-21T09:20:22Z</time>
      </trkpt>
      <trkpt lat="45.83179" lon="1.18019">
        <ele>325.8</ele>
        <time>2024-10-21T09:20:23Z</time>
      </trkpt>
      <trkpt lat="45.83178" lon="1.18019">
        <ele>325.8</ele>
        <time>2024-10-21T09:20:24Z</time>
      </trkpt>
      <trkpt lat="45.83176" lon="1.18019">
        <ele>325.8</ele>
        <time>2024-10-21T09:20:25Z</time>
      </trkpt>
      <trkpt lat="45.83175" lon="1.18018">
        <ele>325.8</ele>
        <time>2024-10-21T09:20:26Z</time>
      </trkpt>
      <trkpt lat="45.83173" lon="1.18018">
        <ele>325.8</ele>
        <time>2024-10-21T09:20:27Z</time>
      </trkpt>
      <trkpt lat="45.83172" lon="1.18018">
        <ele>325.8</ele>
        <time>2024-10-21T09:20:28Z</time>
      </trkpt>
      <trkpt lat="45.83171" lon="1.18017">
        <ele>325.8</ele>
        <time>2024-10-21T09:20:29Z</time>
      </trkpt>
      <trkpt lat="45.83169" lon="1.18017">
        <ele>325.8</ele>
        <time>2024-10-21T09:20:30Z</time>
      </trkpt>
      <trkpt lat="45.83168" lon="1.18017">
        <ele>325.8</ele>
        <time>2024-10-21T09:20:31Z</time>
      </trkpt>
      <trkpt lat="45.83167" lon="1.18017">
        <ele>325.8</ele>
        <time>2024-10-21T09:20:32Z</time>
      </trkpt>
      <trkpt lat="45.83165" lon="1.18016">
        <ele>325.8</ele>
        <time>2024-10-21T09:20:33Z</time>
      </trkpt>
      <trkpt lat="45.83164" lon="1.18016">
        <ele>325.8</ele>
        <time>2024-10-21T09:20:34Z</time>
      </trkpt>
      <trkpt lat="45.83164" lon="1.18016">
        <ele>325.8</ele>
        <time>2024-10-21T09:20:35Z</time>
      </trkpt>
      <trkpt lat="45.83161" lon="1.18015">
        <ele>325.7</ele>
        <time>2024-10-21T09:20:36Z</time>
      </trkpt>
      <trkpt lat="45.8316" lon="1.18015">
        <ele>325.7</ele>
        <time>2024-10-21T09:20:37Z</time>
      </trkpt>
      <trkpt lat="45.83158" lon="1.18015">
        <ele>325.7</ele>
        <time>2024-10-21T09:20:39Z</time>
      </trkpt>
      <trkpt lat="45.83157" lon="1.18014">
        <ele>325.7</ele>
        <time>2024-10-21T09:20:40Z</time>
      </trkpt>
      <trkpt lat="45.83156" lon="1.18014">
        <ele>325.6</ele>
        <time>2024-10-21T09:20:41Z</time>
      </trkpt>
      <trkpt lat="45.83154" lon="1.18013">
        <ele>325.6</ele>
        <time>2024-10-21T09:20:42Z</time>
      </trkpt>
      <trkpt lat="45.83152" lon="1.18013">
        <ele>325.6</ele>
        <time>2024-10-21T09:20:43Z</time>
      </trkpt>
      <trkpt lat="45.83152" lon="1.18012">
        <ele>325.5</ele>
        <time>2024-10-21T09:20:44Z</time>
      </trkpt>
      <trkpt lat="45.83151" lon="1.18012">
        <ele>325.5</ele>
        <time>2024-10-21T09:20:45Z</time>
      </trkpt>
      <trkpt lat="45.83149" lon="1.18012">
        <ele>325.4</ele>
        <time>2024-10-21T09:20:46Z</time>
      </trkpt>
      <trkpt lat="45.83148" lon="1.18012">
        <ele>325.4</ele>
        <time>2024-10-21T09:20:47Z</time>
      </trkpt>
      <trkpt lat="45.83147" lon="1.18011">
        <ele>325.4</ele>
        <time>2024-10-21T09:20:48Z</time>
      </trkpt>
      <trkpt lat="45.83145" lon="1.18011">
        <ele>325.3</ele>
        <time>2024-10-21T09:20:49Z</time>
      </trkpt>
      <trkpt lat="45.83144" lon="1.18011">
        <ele>325.3</ele>
        <time>2024-10-21T09:20:50Z</time>
      </trkpt>
      <trkpt lat="45.83143" lon="1.18011">
        <ele>325.3</ele>
        <time>2024-10-21T09:20:51Z</time>
      </trkpt>
      <trkpt lat="45.83141" lon="1.1801">
        <ele>325.2</ele>
        <time>2024-10-21T09:20:52Z</time>
      </trkpt>
      <trkpt lat="45.83141" lon="1.1801">
        <ele>325.2</ele>
        <time>2024-10-21T09:20:53Z</time>
      </trkpt>
      <trkpt lat="45.8314" lon="1.1801">
        <ele>325.1</ele>
        <time>2024-10-21T09:20:54Z</time>
      </trkpt>
      <trkpt lat="45.83138" lon="1.18009">
        <ele>325</ele>
        <time>2024-10-21T09:20:55Z</time>
      </trkpt>
      <trkpt lat="45.83137" lon="1.18009">
        <ele>325</ele>
        <time>2024-10-21T09:20:56Z</time>
      </trkpt>
      <trkpt lat="45.83136" lon="1.18009">
        <ele>325</ele>
        <time>2024-10-21T09:20:57Z</time>
      </trkpt>
      <trkpt lat="45.83134" lon="1.18009">
        <ele>324.9</ele>
        <time>2024-10-21T09:20:58Z</time>
      </trkpt>
      <trkpt lat="45.83133" lon="1.18009">
        <ele>324.8</ele>
        <time>2024-10-21T09:20:59Z</time>
      </trkpt>
      <trkpt lat="45.83132" lon="1.18009">
        <ele>324.8</ele>
        <time>2024-10-21T09:21:00Z</time>
      </trkpt>
      <trkpt lat="45.8313" lon="1.18009">
        <ele>324.7</ele>
        <time>2024-10-21T09:21:01Z</time>
      </trkpt>
      <trkpt lat="45.83129" lon="1.18009">
        <ele>324.6</ele>
        <time>2024-10-21T09:21:02Z</time>
      </trkpt>
      <trkpt lat="45.83128" lon="1.18009">
        <ele>324.6</ele>
        <time>2024-10-21T09:21:03Z</time>
      </trkpt>
      <trkpt lat="45.83126" lon="1.18009">
        <ele>324.5</ele>
        <time>2024-10-21T09:21:04Z</time>
      </trkpt>
      <trkpt lat="45.83125" lon="1.18009">
        <ele>324.5</ele>
        <time>2024-10-21T09:21:05Z</time>
      </trkpt>
      <trkpt lat="45.83124" lon="1.18009">
        <ele>324.4</ele>
        <time>2024-10-21T09:21:06Z</time>
      </trkpt>
      <trkpt lat="45.83122" lon="1.18009">
        <ele>324.3</ele>
        <time>2024-10-21T09:21:07Z</time>
      </trkpt>
      <trkpt lat="45.83121" lon="1.18009">
        <ele>324.3</ele>
        <time>2024-10-21T09:21:08Z</time>
      </trkpt>
      <trkpt lat="45.8312" lon="1.18009">
        <ele>324.2</ele>
        <time>2024-10-21T09:21:09Z</time>
      </trkpt>
      <trkpt lat="45.83118" lon="1.18009">
        <ele>324.1</ele>
        <time>2024-10-21T09:21:10Z</time>
      </trkpt>
      <trkpt lat="45.83117" lon="1.18009">
        <ele>324.1</ele>
        <time>2024-10-21T09:21:11Z</time>
      </trkpt>
      <trkpt lat="45.83117" lon="1.18009">
        <ele>324.1</ele>
        <time>2024-10-21T09:21:12Z</time>
      </trkpt>
      <trkpt lat="45.83114" lon="1.18008">
        <ele>324</ele>
        <time>2024-10-21T09:21:13Z</time>
      </trkpt>
      <trkpt lat="45.83114" lon="1.18009">
        <ele>323.9</ele>
        <time>2024-10-21T09:21:14Z</time>
      </trkpt>
      <trkpt lat="45.83113" lon="1.18009">
        <ele>323.9</ele>
        <time>2024-10-21T09:21:15Z</time>
      </trkpt>
      <trkpt lat="45.83111" lon="1.18009">
        <ele>323.8</ele>
        <time>2024-10-21T09:21:16Z</time>
      </trkpt>
      <trkpt lat="45.8311" lon="1.18009">
        <ele>323.8</ele>
        <time>2024-10-21T09:21:17Z</time>
      </trkpt>
      <trkpt lat="45.83108" lon="1.18008">
        <ele>323.7</ele>
        <time>2024-10-21T09:21:18Z</time>
      </trkpt>
      <trkpt lat="45.83107" lon="1.18008">
        <ele>323.7</ele>
        <time>2024-10-21T09:21:19Z</time>
      </trkpt>
      <trkpt lat="45.83105" lon="1.18008">
        <ele>323.6</ele>
        <time>2024-10-21T09:21:20Z</time>
      </trkpt>
      <trkpt lat="45.83104" lon="1.18008">
        <ele>323.6</ele>
        <time>2024-10-21T09:21:21Z</time>
      </trkpt>
      <trkpt lat="45.83103" lon="1.18008">
        <ele>323.6</ele>
        <time>2024-10-21T09:21:22Z</time>
      </trkpt>
      <trkpt lat="45.83101" lon="1.18009">
        <ele>323.5</ele>
        <time>2024-10-21T09:21:23Z</time>
      </trkpt>
      <trkpt lat="45.831" lon="1.18009">
        <ele>323.5</ele>
        <time>2024-10-21T09:21:24Z</time>
      </trkpt>
      <trkpt lat="45.83099" lon="1.18009">
        <ele>323.5</ele>
        <time>2024-10-21T09:21:25Z</time>
      </trkpt>
      <trkpt lat="45.83098" lon="1.1801">
        <ele>323.5</ele>
        <time>2024-10-21T09:21:26Z</time>
      </trkpt>
      <trkpt lat="45.83095" lon="1.1801">
        <ele>323.5</ele>
        <time>2024-10-21T09:21:27Z</time>
      </trkpt>
      <trkpt lat="45.83093" lon="1.1801">
        <ele>323.5</ele>
        <time>2024-10-21T09:21:29Z</time>
      </trkpt>
      <trkpt lat="45.83092" lon="1.1801">
        <ele>323.5</ele>
        <time>2024-10-21T09:21:30Z</time>
      </trkpt>
      <trkpt lat="45.83091" lon="1.1801">
        <ele>323.5</ele>
        <time>2024-10-21T09:21:31Z</time>
      </trkpt>
      <trkpt lat="45.8309" lon="1.1801">
        <ele>323.5</ele>
        <time>2024-10-21T09:21:32Z</time>
      </trkpt>
      <trkpt lat="45.83088" lon="1.1801">
        <ele>323.5</ele>
        <time>2024-10-21T09:21:33Z</time>
      </trkpt>
      <trkpt lat="45.83087" lon="1.1801">
        <ele>323.4</ele>
        <time>2024-10-21T09:21:34Z</time>
      </trkpt>
      <trkpt lat="45.83086" lon="1.1801">
        <ele>323.4</ele>
        <time>2024-10-21T09:21:35Z</time>
      </trkpt>
      <trkpt lat="45.83086" lon="1.18009">
        <ele>323.4</ele>
        <time>2024-10-21T09:21:36Z</time>
      </trkpt>
      <trkpt lat="45.83087" lon="1.18008">
        <ele>323.4</ele>
        <time>2024-10-21T09:21:37Z</time>
      </trkpt>
      <trkpt lat="45.83088" lon="1.18007">
        <ele>323.4</ele>
        <time>2024-10-21T09:21:38Z</time>
      </trkpt>
      <trkpt lat="45.83088" lon="1.18007">
        <ele>323.4</ele>
        <time>2024-10-21T09:21:39Z</time>
      </trkpt>
      <trkpt lat="45.83088" lon="1.18007">
        <ele>323.4</ele>
        <time>2024-10-21T09:21:40Z</time>
      </trkpt>
      <trkpt lat="45.83088" lon="1.18008">
        <ele>323.4</ele>
        <time>2024-10-21T09:21:41Z</time>
      </trkpt>
      <trkpt lat="45.83088" lon="1.18008">
        <ele>323.4</ele>
        <time>2024-10-21T09:21:42Z</time>
      </trkpt>
      <trkpt lat="45.83088" lon="1.18009">
        <ele>323.4</ele>
        <time>2024-10-21T09:21:43Z</time>
      </trkpt>
      <trkpt lat="45.83087" lon="1.18009">
        <ele>323.4</ele>
        <time>2024-10-21T09:21:44Z</time>
      </trkpt>
      <trkpt lat="45.83087" lon="1.18009">
        <ele>323.4</ele>
        <time>2024-10-21T09:21:45Z</time>
      </trkpt>
      <trkpt lat="45.83087" lon="1.18009">
        <ele>323.4</ele>
        <time>2024-10-21T09:21:46Z</time>
      </trkpt>
      <trkpt lat="45.83086" lon="1.18009">
        <ele>323.4</ele>
        <time>2024-10-21T09:21:47Z</time>
      </trkpt>
      <trkpt lat="45.83086" lon="1.18009">
        <ele>323.4</ele>
        <time>2024-10-21T09:21:48Z</time>
      </trkpt>
      <trkpt lat="45.83083" lon="1.1801">
        <ele>323.4</ele>
        <time>2024-10-21T09:21:49Z</time>
      </trkpt>
      <trkpt lat="45.83082" lon="1.1801">
        <ele>323.4</ele>
        <time>2024-10-21T09:21:50Z</time>
      </trkpt>
      <trkpt lat="45.83079" lon="1.1801">
        <ele>323.4</ele>
        <time>2024-10-21T09:21:51Z</time>
      </trkpt>
      <trkpt lat="45.83078" lon="1.1801">
        <ele>323.4</ele>
        <time>2024-10-21T09:21:52Z</time>
      </trkpt>
      <trkpt lat="45.83076" lon="1.18009">
        <ele>323.4</ele>
        <time>2024-10-21T09:21:53Z</time>
      </trkpt>
      <trkpt lat="45.83075" lon="1.18009">
        <ele>323.4</ele>
        <time>2024-10-21T09:21:54Z</time>
      </trkpt>
      <trkpt lat="45.83073" lon="1.18008">
        <ele>323.4</ele>
        <time>2024-10-21T09:21:55Z</time>
      </trkpt>
      <trkpt lat="45.83072" lon="1.18007">
        <ele>323.5</ele>
        <time>2024-10-21T09:21:56Z</time>
      </trkpt>
      <trkpt lat="45.8307" lon="1.18006">
        <ele>323.5</ele>
        <time>2024-10-21T09:21:57Z</time>
      </trkpt>
      <trkpt lat="45.83069" lon="1.18005">
        <ele>323.5</ele>
        <time>2024-10-21T09:21:58Z</time>
      </trkpt>
      <trkpt lat="45.83067" lon="1.18004">
        <ele>323.5</ele>
        <time>2024-10-21T09:21:59Z</time>
      </trkpt>
      <trkpt lat="45.83066" lon="1.18003">
        <ele>323.5</ele>
        <time>2024-10-21T09:22:00Z</time>
      </trkpt>
      <trkpt lat="45.83065" lon="1.18002">
        <ele>323.5</ele>
        <time>2024-10-21T09:22:01Z</time>
      </trkpt>
      <trkpt lat="45.83064" lon="1.18001">
        <ele>323.6</ele>
        <time>2024-10-21T09:22:02Z</time>
      </trkpt>
      <trkpt lat="45.83063" lon="1.18">
        <ele>323.6</ele>
        <time>2024-10-21T09:22:03Z</time>
      </trkpt>
      <trkpt lat="45.83061" lon="1.18">
        <ele>323.6</ele>
        <time>2024-10-21T09:22:04Z</time>
      </trkpt>
      <trkpt lat="45.83059" lon="1.17999">
        <ele>323.6</ele>
        <time>2024-10-21T09:22:05Z</time>
      </trkpt>
      <trkpt lat="45.83058" lon="1.17999">
        <ele>323.7</ele>
        <time>2024-10-21T09:22:06Z</time>
      </trkpt>
      <trkpt lat="45.83057" lon="1.17999">
        <ele>323.7</ele>
        <time>2024-10-21T09:22:07Z</time>
      </trkpt>
      <trkpt lat="45.83056" lon="1.17999">
        <ele>323.7</ele>
        <time>2024-10-21T09:22:08Z</time>
      </trkpt>
      <trkpt lat="45.83054" lon="1.17998">
        <ele>323.7</ele>
        <time>2024-10-21T09:22:09Z</time>
      </trkpt>
      <trkpt lat="45.83052" lon="1.17998">
        <ele>323.8</ele>
        <time>2024-10-21T09:22:10Z</time>
      </trkpt>
      <trkpt lat="45.83051" lon="1.17998">
        <ele>323.8</ele>
        <time>2024-10-21T09:22:11Z</time>
      </trkpt>
      <trkpt lat="45.8305" lon="1.17998">
        <ele>323.8</ele>
        <time>2024-10-21T09:22:12Z</time>
      </trkpt>
      <trkpt lat="45.83049" lon="1.17998">
        <ele>323.8</ele>
        <time>2024-10-21T09:22:13Z</time>
      </trkpt>
      <trkpt lat="45.83047" lon="1.17998">
        <ele>323.9</ele>
        <time>2024-10-21T09:22:14Z</time>
      </trkpt>
      <trkpt lat="45.83046" lon="1.17998">
        <ele>323.9</ele>
        <time>2024-10-21T09:22:15Z</time>
      </trkpt>
      <trkpt lat="45.83044" lon="1.17998">
        <ele>323.9</ele>
        <time>2024-10-21T09:22:16Z</time>
      </trkpt>
      <trkpt lat="45.83042" lon="1.17997">
        <ele>323.9</ele>
        <time>2024-10-21T09:22:17Z</time>
      </trkpt>
      <trkpt lat="45.83041" lon="1.17997">
        <ele>323.9</ele>
        <time>2024-10-21T09:22:18Z</time>
      </trkpt>
      <trkpt lat="45.8304" lon="1.17997">
        <ele>323.9</ele>
        <time>2024-10-21T09:22:19Z</time>
      </trkpt>
      <trkpt lat="45.83039" lon="1.17996">
        <ele>323.9</ele>
        <time>2024-10-21T09:22:20Z</time>
      </trkpt>
      <trkpt lat="45.83038" lon="1.17997">
        <ele>323.9</ele>
        <time>2024-10-21T09:22:21Z</time>
      </trkpt>
      <trkpt lat="45.83038" lon="1.17998">
        <ele>323.9</ele>
        <time>2024-10-21T09:22:22Z</time>
      </trkpt>
      <trkpt lat="45.83037" lon="1.17999">
        <ele>323.9</ele>
        <time>2024-10-21T09:22:23Z</time>
      </trkpt>
      <trkpt lat="45.83037" lon="1.18">
        <ele>323.9</ele>
        <time>2024-10-21T09:22:24Z</time>
      </trkpt>
      <trkpt lat="45.83037" lon="1.18001">
        <ele>324</ele>
        <time>2024-10-21T09:22:25Z</time>
      </trkpt>
      <trkpt lat="45.83037" lon="1.18003">
        <ele>324</ele>
        <time>2024-10-21T09:22:26Z</time>
      </trkpt>
      <trkpt lat="45.83037" lon="1.18004">
        <ele>324</ele>
        <time>2024-10-21T09:22:27Z</time>
      </trkpt>
      <trkpt lat="45.83037" lon="1.18006">
        <ele>324</ele>
        <time>2024-10-21T09:22:28Z</time>
      </trkpt>
      <trkpt lat="45.83036" lon="1.18008">
        <ele>324</ele>
        <time>2024-10-21T09:22:29Z</time>
      </trkpt>
      <trkpt lat="45.83036" lon="1.1801">
        <ele>324</ele>
        <time>2024-10-21T09:22:30Z</time>
      </trkpt>
      <trkpt lat="45.83035" lon="1.18014">
        <ele>324</ele>
        <time>2024-10-21T09:22:31Z</time>
      </trkpt>
      <trkpt lat="45.83035" lon="1.18015">
        <ele>324</ele>
        <time>2024-10-21T09:22:32Z</time>
      </trkpt>
      <trkpt lat="45.83034" lon="1.18019">
        <ele>324</ele>
        <time>2024-10-21T09:22:33Z</time>
      </trkpt>
      <trkpt lat="45.83034" lon="1.1802">
        <ele>324</ele>
        <time>2024-10-21T09:22:34Z</time>
      </trkpt>
      <trkpt lat="45.83033" lon="1.18022">
        <ele>324</ele>
        <time>2024-10-21T09:22:35Z</time>
      </trkpt>
      <trkpt lat="45.83033" lon="1.18024">
        <ele>324</ele>
        <time>2024-10-21T09:22:36Z</time>
      </trkpt>
      <trkpt lat="45.83032" lon="1.18025">
        <ele>324.1</ele>
        <time>2024-10-21T09:22:37Z</time>
      </trkpt>
      <trkpt lat="45.83032" lon="1.18027">
        <ele>324.1</ele>
        <time>2024-10-21T09:22:38Z</time>
      </trkpt>
      <trkpt lat="45.83031" lon="1.18029">
        <ele>324.1</ele>
        <time>2024-10-21T09:22:39Z</time>
      </trkpt>
      <trkpt lat="45.83031" lon="1.18032">
        <ele>324.1</ele>
        <time>2024-10-21T09:22:40Z</time>
      </trkpt>
      <trkpt lat="45.83031" lon="1.18034">
        <ele>324.1</ele>
        <time>2024-10-21T09:22:41Z</time>
      </trkpt>
      <trkpt lat="45.83031" lon="1.18036">
        <ele>324.2</ele>
        <time>2024-10-21T09:22:42Z</time>
      </trkpt>
      <trkpt lat="45.83031" lon="1.18038">
        <ele>324.2</ele>
        <time>2024-10-21T09:22:43Z</time>
      </trkpt>
      <trkpt lat="45.83031" lon="1.1804">
        <ele>324.2</ele>
        <time>2024-10-21T09:22:44Z</time>
      </trkpt>
      <trkpt lat="45.83032" lon="1.18043">
        <ele>324.2</ele>
        <time>2024-10-21T09:22:45Z</time>
      </trkpt>
      <trkpt lat="45.8303" lon="1.18044">
        <ele>324.3</ele>
        <time>2024-10-21T09:22:46Z</time>
      </trkpt>
      <trkpt lat="45.83029" lon="1.18045">
        <ele>324.3</ele>
        <time>2024-10-21T09:22:47Z</time>
      </trkpt>
      <trkpt lat="45.83028" lon="1.18045">
        <ele>324.3</ele>
        <time>2024-10-21T09:22:48Z</time>
      </trkpt>
      <trkpt lat="45.83026" lon="1.18049">
        <ele>324.3</ele>
        <time>2024-10-21T09:22:49Z</time>
      </trkpt>
      <trkpt lat="45.83026" lon="1.18051">
        <ele>324.3</ele>
        <time>2024-10-21T09:22:50Z</time>
      </trkpt>
      <trkpt lat="45.83026" lon="1.18054">
        <ele>324.3</ele>
        <time>2024-10-21T09:22:51Z</time>
      </trkpt>
      <trkpt lat="45.83026" lon="1.18056">
        <ele>324.3</ele>
        <time>2024-10-21T09:22:52Z</time>
      </trkpt>
      <trkpt lat="45.83026" lon="1.18059">
        <ele>324.3</ele>
        <time>2024-10-21T09:22:53Z</time>
      </trkpt>
      <trkpt lat="45.83026" lon="1.18061">
        <ele>324.3</ele>
        <time>2024-10-21T09:22:54Z</time>
      </trkpt>
      <trkpt lat="45.83026" lon="1.18063">
        <ele>324.3</ele>
        <time>2024-10-21T09:22:55Z</time>
      </trkpt>
      <trkpt lat="45.83027" lon="1.18065">
        <ele>324.3</ele>
        <time>2024-10-21T09:22:56Z</time>
      </trkpt>
      <trkpt lat="45.83027" lon="1.18067">
        <ele>324.3</ele>
        <time>2024-10-21T09:22:57Z</time>
      </trkpt>
      <trkpt lat="45.83028" lon="1.18069">
        <ele>324.3</ele>
        <time>2024-10-21T09:22:58Z</time>
      </trkpt>
      <trkpt lat="45.83028" lon="1.18071">
        <ele>324.3</ele>
        <time>2024-10-21T09:22:59Z</time>
      </trkpt>
      <trkpt lat="45.83029" lon="1.18073">
        <ele>324.3</ele>
        <time>2024-10-21T09:23:00Z</time>
      </trkpt>
      <trkpt lat="45.83031" lon="1.18076">
        <ele>324.3</ele>
        <time>2024-10-21T09:23:01Z</time>
      </trkpt>
      <trkpt lat="45.83031" lon="1.18077">
        <ele>324.3</ele>
        <time>2024-10-21T09:23:02Z</time>
      </trkpt>
      <trkpt lat="45.83032" lon="1.18079">
        <ele>324.3</ele>
        <time>2024-10-21T09:23:03Z</time>
      </trkpt>
      <trkpt lat="45.83034" lon="1.18081">
        <ele>324.3</ele>
        <time>2024-10-21T09:23:04Z</time>
      </trkpt>
      <trkpt lat="45.83035" lon="1.18084">
        <ele>324.3</ele>
        <time>2024-10-21T09:23:05Z</time>
      </trkpt>
      <trkpt lat="45.83035" lon="1.18085">
        <ele>324.3</ele>
        <time>2024-10-21T09:23:06Z</time>
      </trkpt>
      <trkpt lat="45.83035" lon="1.18088">
        <ele>324.3</ele>
        <time>2024-10-21T09:23:07Z</time>
      </trkpt>
      <trkpt lat="45.83036" lon="1.1809">
        <ele>324.3</ele>
        <time>2024-10-21T09:23:08Z</time>
      </trkpt>
      <trkpt lat="45.83036" lon="1.18091">
        <ele>324.3</ele>
        <time>2024-10-21T09:23:09Z</time>
      </trkpt>
      <trkpt lat="45.83036" lon="1.18093">
        <ele>324.2</ele>
        <time>2024-10-21T09:23:10Z</time>
      </trkpt>
      <trkpt lat="45.83037" lon="1.18096">
        <ele>324.2</ele>
        <time>2024-10-21T09:23:11Z</time>
      </trkpt>
      <trkpt lat="45.83038" lon="1.18099">
        <ele>324.2</ele>
        <time>2024-10-21T09:23:13Z</time>
      </trkpt>
      <trkpt lat="45.83038" lon="1.181">
        <ele>324.2</ele>
        <time>2024-10-21T09:23:14Z</time>
      </trkpt>
      <trkpt lat="45.83039" lon="1.18102">
        <ele>324.2</ele>
        <time>2024-10-21T09:23:15Z</time>
      </trkpt>
      <trkpt lat="45.83039" lon="1.18104">
        <ele>324.2</ele>
        <time>2024-10-21T09:23:16Z</time>
      </trkpt>
      <trkpt lat="45.8304" lon="1.18107">
        <ele>324.2</ele>
        <time>2024-10-21T09:23:17Z</time>
      </trkpt>
      <trkpt lat="45.8304" lon="1.18108">
        <ele>324.2</ele>
        <time>2024-10-21T09:23:18Z</time>
      </trkpt>
      <trkpt lat="45.8304" lon="1.18109">
        <ele>324.2</ele>
        <time>2024-10-21T09:23:19Z</time>
      </trkpt>
      <trkpt lat="45.8304" lon="1.18111">
        <ele>324.2</ele>
        <time>2024-10-21T09:23:20Z</time>
      </trkpt>
      <trkpt lat="45.83039" lon="1.18113">
        <ele>324.2</ele>
        <time>2024-10-21T09:23:21Z</time>
      </trkpt>
      <trkpt lat="45.83039" lon="1.18116">
        <ele>324.2</ele>
        <time>2024-10-21T09:23:22Z</time>
      </trkpt>
      <trkpt lat="45.83039" lon="1.18118">
        <ele>324.2</ele>
        <time>2024-10-21T09:23:23Z</time>
      </trkpt>
      <trkpt lat="45.83039" lon="1.18119">
        <ele>324.2</ele>
        <time>2024-10-21T09:23:24Z</time>
      </trkpt>
      <trkpt lat="45.83039" lon="1.18121">
        <ele>324.2</ele>
        <time>2024-10-21T09:23:25Z</time>
      </trkpt>
      <trkpt lat="45.83039" lon="1.18123">
        <ele>324.2</ele>
        <time>2024-10-21T09:23:26Z</time>
      </trkpt>
      <trkpt lat="45.83039" lon="1.18126">
        <ele>324.2</ele>
        <time>2024-10-21T09:23:27Z</time>
      </trkpt>
      <trkpt lat="45.83039" lon="1.18127">
        <ele>324.2</ele>
        <time>2024-10-21T09:23:28Z</time>
      </trkpt>
      <trkpt lat="45.83039" lon="1.18128">
        <ele>324.2</ele>
        <time>2024-10-21T09:23:29Z</time>
      </trkpt>
      <trkpt lat="45.8304" lon="1.1813">
        <ele>324.2</ele>
        <time>2024-10-21T09:23:30Z</time>
      </trkpt>
      <trkpt lat="45.8304" lon="1.18132">
        <ele>324.2</ele>
        <time>2024-10-21T09:23:31Z</time>
      </trkpt>
      <trkpt lat="45.83041" lon="1.18134">
        <ele>324.2</ele>
        <time>2024-10-21T09:23:32Z</time>
      </trkpt>
      <trkpt lat="45.83042" lon="1.18137">
        <ele>324.3</ele>
        <time>2024-10-21T09:23:33Z</time>
      </trkpt>
      <trkpt lat="45.83042" lon="1.18139">
        <ele>324.3</ele>
        <time>2024-10-21T09:23:34Z</time>
      </trkpt>
      <trkpt lat="45.83042" lon="1.18139">
        <ele>324.3</ele>
        <time>2024-10-21T09:23:35Z</time>
      </trkpt>
      <trkpt lat="45.83042" lon="1.18141">
        <ele>324.3</ele>
        <time>2024-10-21T09:23:36Z</time>
      </trkpt>
      <trkpt lat="45.83043" lon="1.18144">
        <ele>324.3</ele>
        <time>2024-10-21T09:23:37Z</time>
      </trkpt>
      <trkpt lat="45.83044" lon="1.18145">
        <ele>324.3</ele>
        <time>2024-10-21T09:23:38Z</time>
      </trkpt>
      <trkpt lat="45.83044" lon="1.18146">
        <ele>324.3</ele>
        <time>2024-10-21T09:23:39Z</time>
      </trkpt>
      <trkpt lat="45.83044" lon="1.18148">
        <ele>324.3</ele>
        <time>2024-10-21T09:23:40Z</time>
      </trkpt>
      <trkpt lat="45.83045" lon="1.1815">
        <ele>324.3</ele>
        <time>2024-10-21T09:23:41Z</time>
      </trkpt>
      <trkpt lat="45.83045" lon="1.18153">
        <ele>324.4</ele>
        <time>2024-10-21T09:23:42Z</time>
      </trkpt>
      <trkpt lat="45.83045" lon="1.18154">
        <ele>324.4</ele>
        <time>2024-10-21T09:23:43Z</time>
      </trkpt>
      <trkpt lat="45.83045" lon="1.18155">
        <ele>324.4</ele>
        <time>2024-10-21T09:23:44Z</time>
      </trkpt>
      <trkpt lat="45.83044" lon="1.18157">
        <ele>324.4</ele>
        <time>2024-10-21T09:23:45Z</time>
      </trkpt>
      <trkpt lat="45.83044" lon="1.1816">
        <ele>324.4</ele>
        <time>2024-10-21T09:23:46Z</time>
      </trkpt>
      <trkpt lat="45.83043" lon="1.18161">
        <ele>324.4</ele>
        <time>2024-10-21T09:23:47Z</time>
      </trkpt>
      <trkpt lat="45.83043" lon="1.18162">
        <ele>324.4</ele>
        <time>2024-10-21T09:23:48Z</time>
      </trkpt>
      <trkpt lat="45.83042" lon="1.18163">
        <ele>324.4</ele>
        <time>2024-10-21T09:23:49Z</time>
      </trkpt>
      <trkpt lat="45.83042" lon="1.18164">
        <ele>324.4</ele>
        <time>2024-10-21T09:23:50Z</time>
      </trkpt>
      <trkpt lat="45.83042" lon="1.18166">
        <ele>324.5</ele>
        <time>2024-10-21T09:23:51Z</time>
      </trkpt>
      <trkpt lat="45.83042" lon="1.18167">
        <ele>324.5</ele>
        <time>2024-10-21T09:23:52Z</time>
      </trkpt>
      <trkpt lat="45.83043" lon="1.1817">
        <ele>324.5</ele>
        <time>2024-10-21T09:23:53Z</time>
      </trkpt>
      <trkpt lat="45.83043" lon="1.18171">
        <ele>324.5</ele>
        <time>2024-10-21T09:23:54Z</time>
      </trkpt>
      <trkpt lat="45.83043" lon="1.18173">
        <ele>324.5</ele>
        <time>2024-10-21T09:23:55Z</time>
      </trkpt>
      <trkpt lat="45.83044" lon="1.18176">
        <ele>324.5</ele>
        <time>2024-10-21T09:23:56Z</time>
      </trkpt>
      <trkpt lat="45.83044" lon="1.18177">
        <ele>324.5</ele>
        <time>2024-10-21T09:23:57Z</time>
      </trkpt>
      <trkpt lat="45.83044" lon="1.18178">
        <ele>324.5</ele>
        <time>2024-10-21T09:23:58Z</time>
      </trkpt>
      <trkpt lat="45.83044" lon="1.18181">
        <ele>324.6</ele>
        <time>2024-10-21T09:23:59Z</time>
      </trkpt>
      <trkpt lat="45.83044" lon="1.18182">
        <ele>324.6</ele>
        <time>2024-10-21T09:24:00Z</time>
      </trkpt>
      <trkpt lat="45.83044" lon="1.18183">
        <ele>324.6</ele>
        <time>2024-10-21T09:24:01Z</time>
      </trkpt>
      <trkpt lat="45.83046" lon="1.18186">
        <ele>324.6</ele>
        <time>2024-10-21T09:24:02Z</time>
      </trkpt>
      <trkpt lat="45.83046" lon="1.18187">
        <ele>324.6</ele>
        <time>2024-10-21T09:24:03Z</time>
      </trkpt>
      <trkpt lat="45.83047" lon="1.18188">
        <ele>324.6</ele>
        <time>2024-10-21T09:24:04Z</time>
      </trkpt>
      <trkpt lat="45.83048" lon="1.18189">
        <ele>324.6</ele>
        <time>2024-10-21T09:24:05Z</time>
      </trkpt>
      <trkpt lat="45.83049" lon="1.1819">
        <ele>324.6</ele>
        <time>2024-10-21T09:24:06Z</time>
      </trkpt>
      <trkpt lat="45.83051" lon="1.18191">
        <ele>324.7</ele>
        <time>2024-10-21T09:24:07Z</time>
      </trkpt>
      <trkpt lat="45.83052" lon="1.18192">
        <ele>324.7</ele>
        <time>2024-10-21T09:24:08Z</time>
      </trkpt>
      <trkpt lat="45.83053" lon="1.18192">
        <ele>324.7</ele>
        <time>2024-10-21T09:24:09Z</time>
      </trkpt>
      <trkpt lat="45.83054" lon="1.18193">
        <ele>324.7</ele>
        <time>2024-10-21T09:24:10Z</time>
      </trkpt>
      <trkpt lat="45.83056" lon="1.18193">
        <ele>324.7</ele>
        <time>2024-10-21T09:24:11Z</time>
      </trkpt>
      <trkpt lat="45.83057" lon="1.18194">
        <ele>324.7</ele>
        <time>2024-10-21T09:24:12Z</time>
      </trkpt>
      <trkpt lat="45.83057" lon="1.18195">
        <ele>324.7</ele>
        <time>2024-10-21T09:24:13Z</time>
      </trkpt>
      <trkpt lat="45.83058" lon="1.18197">
        <ele>324.7</ele>
        <time>2024-10-21T09:24:14Z</time>
      </trkpt>
      <trkpt lat="45.83057" lon="1.18199">
        <ele>324.8</ele>
        <time>2024-10-21T09:24:15Z</time>
      </trkpt>
      <trkpt lat="45.83057" lon="1.18201">
        <ele>324.8</ele>
        <time>2024-10-21T09:24:16Z</time>
      </trkpt>
      <trkpt lat="45.83057" lon="1.18202">
        <ele>324.8</ele>
        <time>2024-10-21T09:24:17Z</time>
      </trkpt>
      <trkpt lat="45.83058" lon="1.18202">
        <ele>324.8</ele>
        <time>2024-10-21T09:24:18Z</time>
      </trkpt>
      <trkpt lat="45.83058" lon="1.18202">
        <ele>324.8</ele>
        <time>2024-10-21T09:24:19Z</time>
      </trkpt>
      <trkpt lat="45.83058" lon="1.18203">
        <ele>324.8</ele>
        <time>2024-10-21T09:24:20Z</time>
      </trkpt>
      <trkpt lat="45.83058" lon="1.18205">
        <ele>324.8</ele>
        <time>2024-10-21T09:24:21Z</time>
      </trkpt>
      <trkpt lat="45.83058" lon="1.18208">
        <ele>324.9</ele>
        <time>2024-10-21T09:24:22Z</time>
      </trkpt>
      <trkpt lat="45.83058" lon="1.1821">
        <ele>324.9</ele>
        <time>2024-10-21T09:24:23Z</time>
      </trkpt>
      <trkpt lat="45.83058" lon="1.18211">
        <ele>324.9</ele>
        <time>2024-10-21T09:24:24Z</time>
      </trkpt>
      <trkpt lat="45.83057" lon="1.18213">
        <ele>324.9</ele>
        <time>2024-10-21T09:24:25Z</time>
      </trkpt>
      <trkpt lat="45.83057" lon="1.18216">
        <ele>325</ele>
        <time>2024-10-21T09:24:26Z</time>
      </trkpt>
      <trkpt lat="45.83057" lon="1.18219">
        <ele>325</ele>
        <time>2024-10-21T09:24:27Z</time>
      </trkpt>
      <trkpt lat="45.83057" lon="1.1822">
        <ele>325</ele>
        <time>2024-10-21T09:24:28Z</time>
      </trkpt>
      <trkpt lat="45.83057" lon="1.18221">
        <ele>325</ele>
        <time>2024-10-21T09:24:29Z</time>
      </trkpt>
      <trkpt lat="45.83057" lon="1.18223">
        <ele>325.1</ele>
        <time>2024-10-21T09:24:30Z</time>
      </trkpt>
      <trkpt lat="45.83056" lon="1.18226">
        <ele>325.1</ele>
        <time>2024-10-21T09:24:31Z</time>
      </trkpt>
      <trkpt lat="45.83056" lon="1.18227">
        <ele>325.1</ele>
        <time>2024-10-21T09:24:32Z</time>
      </trkpt>
      <trkpt lat="45.83056" lon="1.18228">
        <ele>325.1</ele>
        <time>2024-10-21T09:24:33Z</time>
      </trkpt>
      <trkpt lat="45.83056" lon="1.1823">
        <ele>325.2</ele>
        <time>2024-10-21T09:24:34Z</time>
      </trkpt>
      <trkpt lat="45.83056" lon="1.18231">
        <ele>325.2</ele>
        <time>2024-10-21T09:24:35Z</time>
      </trkpt>
      <trkpt lat="45.83055" lon="1.18233">
        <ele>325.2</ele>
        <time>2024-10-21T09:24:36Z</time>
      </trkpt>
      <trkpt lat="45.83054" lon="1.18233">
        <ele>325.2</ele>
        <time>2024-10-21T09:24:37Z</time>
      </trkpt>
      <trkpt lat="45.83054" lon="1.18233">
        <ele>325.2</ele>
        <time>2024-10-21T09:24:38Z</time>
      </trkpt>
      <trkpt lat="45.83054" lon="1.18234">
        <ele>325.3</ele>
        <time>2024-10-21T09:24:39Z</time>
      </trkpt>
      <trkpt lat="45.83054" lon="1.18235">
        <ele>325.3</ele>
        <time>2024-10-21T09:24:40Z</time>
      </trkpt>
      <trkpt lat="45.83054" lon="1.18235">
        <ele>325.3</ele>
        <time>2024-10-21T09:24:41Z</time>
      </trkpt>
      <trkpt lat="45.83054" lon="1.18236">
        <ele>325.3</ele>
        <time>2024-10-21T09:24:42Z</time>
      </trkpt>
      <trkpt lat="45.83053" lon="1.18237">
        <ele>325.3</ele>
        <time>2024-10-21T09:24:43Z</time>
      </trkpt>
      <trkpt lat="45.83053" lon="1.18237">
        <ele>325.3</ele>
        <time>2024-10-21T09:24:44Z</time>
      </trkpt>
      <trkpt lat="45.83053" lon="1.18238">
        <ele>325.3</ele>
        <time>2024-10-21T09:24:45Z</time>
      </trkpt>
      <trkpt lat="45.83053" lon="1.18241">
        <ele>325.4</ele>
        <time>2024-10-21T09:24:46Z</time>
      </trkpt>
      <trkpt lat="45.83052" lon="1.18243">
        <ele>325.4</ele>
        <time>2024-10-21T09:24:47Z</time>
      </trkpt>
      <trkpt lat="45.83052" lon="1.18245">
        <ele>325.5</ele>
        <time>2024-10-21T09:24:48Z</time>
      </trkpt>
      <trkpt lat="45.83052" lon="1.18247">
        <ele>325.5</ele>
        <time>2024-10-21T09:24:49Z</time>
      </trkpt>
      <trkpt lat="45.83052" lon="1.18248">
        <ele>325.6</ele>
        <time>2024-10-21T09:24:50Z</time>
      </trkpt>
      <trkpt lat="45.83053" lon="1.1825">
        <ele>325.6</ele>
        <time>2024-10-21T09:24:51Z</time>
      </trkpt>
      <trkpt lat="45.83054" lon="1.18251">
        <ele>325.7</ele>
        <time>2024-10-21T09:24:52Z</time>
      </trkpt>
      <trkpt lat="45.83055" lon="1.18252">
        <ele>325.7</ele>
        <time>2024-10-21T09:24:53Z</time>
      </trkpt>
      <trkpt lat="45.83055" lon="1.18254">
        <ele>325.7</ele>
        <time>2024-10-21T09:24:54Z</time>
      </trkpt>
      <trkpt lat="45.83055" lon="1.18255">
        <ele>325.7</ele>
        <time>2024-10-21T09:24:55Z</time>
      </trkpt>
      <trkpt lat="45.83056" lon="1.18257">
        <ele>325.8</ele>
        <time>2024-10-21T09:24:56Z</time>
      </trkpt>
      <trkpt lat="45.83056" lon="1.18258">
        <ele>325.8</ele>
        <time>2024-10-21T09:24:57Z</time>
      </trkpt>
      <trkpt lat="45.83056" lon="1.18259">
        <ele>325.9</ele>
        <time>2024-10-21T09:24:58Z</time>
      </trkpt>
      <trkpt lat="45.83057" lon="1.18261">
        <ele>325.9</ele>
        <time>2024-10-21T09:24:59Z</time>
      </trkpt>
      <trkpt lat="45.83057" lon="1.18262">
        <ele>325.9</ele>
        <time>2024-10-21T09:25:00Z</time>
      </trkpt>
      <trkpt lat="45.83058" lon="1.18265">
        <ele>326</ele>
        <time>2024-10-21T09:25:01Z</time>
      </trkpt>
      <trkpt lat="45.83059" lon="1.18265">
        <ele>326</ele>
        <time>2024-10-21T09:25:02Z</time>
      </trkpt>
      <trkpt lat="45.83059" lon="1.18267">
        <ele>326</ele>
        <time>2024-10-21T09:25:03Z</time>
      </trkpt>
      <trkpt lat="45.83059" lon="1.18268">
        <ele>326.1</ele>
        <time>2024-10-21T09:25:04Z</time>
      </trkpt>
      <trkpt lat="45.83059" lon="1.1827">
        <ele>326.1</ele>
        <time>2024-10-21T09:25:05Z</time>
      </trkpt>
      <trkpt lat="45.83057" lon="1.18271">
        <ele>326.1</ele>
        <time>2024-10-21T09:25:06Z</time>
      </trkpt>
      <trkpt lat="45.83057" lon="1.18271">
        <ele>326.2</ele>
        <time>2024-10-21T09:25:07Z</time>
      </trkpt>
      <trkpt lat="45.83056" lon="1.18272">
        <ele>326.2</ele>
        <time>2024-10-21T09:25:08Z</time>
      </trkpt>
      <trkpt lat="45.83056" lon="1.18274">
        <ele>326.2</ele>
        <time>2024-10-21T09:25:09Z</time>
      </trkpt>
      <trkpt lat="45.83056" lon="1.18275">
        <ele>326.2</ele>
        <time>2024-10-21T09:25:10Z</time>
      </trkpt>
      <trkpt lat="45.83056" lon="1.18277">
        <ele>326.3</ele>
        <time>2024-10-21T09:25:11Z</time>
      </trkpt>
      <trkpt lat="45.83056" lon="1.18278">
        <ele>326.3</ele>
        <time>2024-10-21T09:25:12Z</time>
      </trkpt>
      <trkpt lat="45.83055" lon="1.1828">
        <ele>326.3</ele>
        <time>2024-10-21T09:25:13Z</time>
      </trkpt>
      <trkpt lat="45.83054" lon="1.18281">
        <ele>326.4</ele>
        <time>2024-10-21T09:25:14Z</time>
      </trkpt>
      <trkpt lat="45.83053" lon="1.18282">
        <ele>326.4</ele>
        <time>2024-10-21T09:25:15Z</time>
      </trkpt>
      <trkpt lat="45.83052" lon="1.18283">
        <ele>326.4</ele>
        <time>2024-10-21T09:25:16Z</time>
      </trkpt>
      <trkpt lat="45.83051" lon="1.18284">
        <ele>326.4</ele>
        <time>2024-10-21T09:25:17Z</time>
      </trkpt>
      <trkpt lat="45.83051" lon="1.18285">
        <ele>326.4</ele>
        <time>2024-10-21T09:25:18Z</time>
      </trkpt>
      <trkpt lat="45.8305" lon="1.18286">
        <ele>326.4</ele>
        <time>2024-10-21T09:25:19Z</time>
      </trkpt>
      <trkpt lat="45.8305" lon="1.18286">
        <ele>326.4</ele>
        <time>2024-10-21T09:25:20Z</time>
      </trkpt>
      <trkpt lat="45.8305" lon="1.18287">
        <ele>326.4</ele>
        <time>2024-10-21T09:25:21Z</time>
      </trkpt>
      <trkpt lat="45.8305" lon="1.18286">
        <ele>326.4</ele>
        <time>2024-10-21T09:25:22Z</time>
      </trkpt>
      <trkpt lat="45.83051" lon="1.18285">
        <ele>326.4</ele>
        <time>2024-10-21T09:25:23Z</time>
      </trkpt>
      <trkpt lat="45.83053" lon="1.18284">
        <ele>326.4</ele>
        <time>2024-10-21T09:25:24Z</time>
      </trkpt>
      <trkpt lat="45.83054" lon="1.18284">
        <ele>326.4</ele>
        <time>2024-10-21T09:25:25Z</time>
      </trkpt>
      <trkpt lat="45.83056" lon="1.18285">
        <ele>326.4</ele>
        <time>2024-10-21T09:25:26Z</time>
      </trkpt>
      <trkpt lat="45.83056" lon="1.18284">
        <ele>326.4</ele>
        <time>2024-10-21T09:25:27Z</time>
      </trkpt>
      <trkpt lat="45.83058" lon="1.18285">
        <ele>326.4</ele>
        <time>2024-10-21T09:25:28Z</time>
      </trkpt>
      <trkpt lat="45.83059" lon="1.18284">
        <ele>326.4</ele>
        <time>2024-10-21T09:25:29Z</time>
      </trkpt>
      <trkpt lat="45.8306" lon="1.18283">
        <ele>326.4</ele>
        <time>2024-10-21T09:25:30Z</time>
      </trkpt>
      <trkpt lat="45.83062" lon="1.18281">
        <ele>326.4</ele>
        <time>2024-10-21T09:25:31Z</time>
      </trkpt>
      <trkpt lat="45.83062" lon="1.1828">
        <ele>326.4</ele>
        <time>2024-10-21T09:25:32Z</time>
      </trkpt>
      <trkpt lat="45.83063" lon="1.18279">
        <ele>326.4</ele>
        <time>2024-10-21T09:25:33Z</time>
      </trkpt>
      <trkpt lat="45.83064" lon="1.18278">
        <ele>326.4</ele>
        <time>2024-10-21T09:25:34Z</time>
      </trkpt>
      <trkpt lat="45.83065" lon="1.18278">
        <ele>326.4</ele>
        <time>2024-10-21T09:25:35Z</time>
      </trkpt>
      <trkpt lat="45.83067" lon="1.18279">
        <ele>326.4</ele>
        <time>2024-10-21T09:25:36Z</time>
      </trkpt>
      <trkpt lat="45.83068" lon="1.18281">
        <ele>326.3</ele>
        <time>2024-10-21T09:25:37Z</time>
      </trkpt>
      <trkpt lat="45.83068" lon="1.18283">
        <ele>326.3</ele>
        <time>2024-10-21T09:25:39Z</time>
      </trkpt>
      <trkpt lat="45.83069" lon="1.18284">
        <ele>326.3</ele>
        <time>2024-10-21T09:25:40Z</time>
      </trkpt>
      <trkpt lat="45.83069" lon="1.18288">
        <ele>326.3</ele>
        <time>2024-10-21T09:25:41Z</time>
      </trkpt>
      <trkpt lat="45.83069" lon="1.18289">
        <ele>326.2</ele>
        <time>2024-10-21T09:25:42Z</time>
      </trkpt>
      <trkpt lat="45.83069" lon="1.18292">
        <ele>326.2</ele>
        <time>2024-10-21T09:25:43Z</time>
      </trkpt>
      <trkpt lat="45.8307" lon="1.18294">
        <ele>326.1</ele>
        <time>2024-10-21T09:25:44Z</time>
      </trkpt>
      <trkpt lat="45.83071" lon="1.18296">
        <ele>326.1</ele>
        <time>2024-10-21T09:25:45Z</time>
      </trkpt>
      <trkpt lat="45.83072" lon="1.18298">
        <ele>326</ele>
        <time>2024-10-21T09:25:46Z</time>
      </trkpt>
      <trkpt lat="45.83073" lon="1.183">
        <ele>326</ele>
        <time>2024-10-21T09:25:47Z</time>
      </trkpt>
      <trkpt lat="45.83074" lon="1.18302">
        <ele>325.9</ele>
        <time>2024-10-21T09:25:48Z</time>
      </trkpt>
      <trkpt lat="45.83075" lon="1.18304">
        <ele>325.9</ele>
        <time>2024-10-21T09:25:49Z</time>
      </trkpt>
      <trkpt lat="45.83076" lon="1.18306">
        <ele>325.8</ele>
        <time>2024-10-21T09:25:50Z</time>
      </trkpt>
      <trkpt lat="45.83077" lon="1.18307">
        <ele>325.8</ele>
        <time>2024-10-21T09:25:51Z</time>
      </trkpt>
      <trkpt lat="45.83077" lon="1.1831">
        <ele>325.7</ele>
        <time>2024-10-21T09:25:52Z</time>
      </trkpt>
      <trkpt lat="45.83077" lon="1.18312">
        <ele>325.7</ele>
        <time>2024-10-21T09:25:53Z</time>
      </trkpt>
      <trkpt lat="45.83077" lon="1.18314">
        <ele>325.6</ele>
        <time>2024-10-21T09:25:54Z</time>
      </trkpt>
      <trkpt lat="45.83079" lon="1.18314">
        <ele>325.6</ele>
        <time>2024-10-21T09:25:55Z</time>
      </trkpt>
      <trkpt lat="45.83079" lon="1.18316">
        <ele>325.6</ele>
        <time>2024-10-21T09:25:56Z</time>
      </trkpt>
      <trkpt lat="45.83079" lon="1.18318">
        <ele>325.5</ele>
        <time>2024-10-21T09:25:57Z</time>
      </trkpt>
      <trkpt lat="45.83079" lon="1.18319">
        <ele>325.5</ele>
        <time>2024-10-21T09:25:58Z</time>
      </trkpt>
      <trkpt lat="45.83079" lon="1.18321">
        <ele>325.4</ele>
        <time>2024-10-21T09:25:59Z</time>
      </trkpt>
      <trkpt lat="45.83079" lon="1.18323">
        <ele>325.4</ele>
        <time>2024-10-21T09:26:00Z</time>
      </trkpt>
      <trkpt lat="45.83079" lon="1.18325">
        <ele>325.4</ele>
        <time>2024-10-21T09:26:01Z</time>
      </trkpt>
      <trkpt lat="45.83079" lon="1.18325">
        <ele>325.3</ele>
        <time>2024-10-21T09:26:02Z</time>
      </trkpt>
      <trkpt lat="45.83078" lon="1.18326">
        <ele>325.3</ele>
        <time>2024-10-21T09:26:03Z</time>
      </trkpt>
      <trkpt lat="45.83078" lon="1.18328">
        <ele>325.3</ele>
        <time>2024-10-21T09:26:04Z</time>
      </trkpt>
      <trkpt lat="45.83078" lon="1.18329">
        <ele>325.2</ele>
        <time>2024-10-21T09:26:05Z</time>
      </trkpt>
      <trkpt lat="45.83078" lon="1.18333">
        <ele>325.2</ele>
        <time>2024-10-21T09:26:06Z</time>
      </trkpt>
      <trkpt lat="45.83078" lon="1.18333">
        <ele>325.2</ele>
        <time>2024-10-21T09:26:07Z</time>
      </trkpt>
      <trkpt lat="45.83078" lon="1.18333">
        <ele>325.1</ele>
        <time>2024-10-21T09:26:08Z</time>
      </trkpt>
      <trkpt lat="45.83078" lon="1.18335">
        <ele>325.1</ele>
        <time>2024-10-21T09:26:09Z</time>
      </trkpt>
      <trkpt lat="45.83078" lon="1.18337">
        <ele>325</ele>
        <time>2024-10-21T09:26:10Z</time>
      </trkpt>
      <trkpt lat="45.83077" lon="1.18339">
        <ele>325</ele>
        <time>2024-10-21T09:26:11Z</time>
      </trkpt>
      <trkpt lat="45.83077" lon="1.1834">
        <ele>325</ele>
        <time>2024-10-21T09:26:12Z</time>
      </trkpt>
      <trkpt lat="45.83077" lon="1.1834">
        <ele>324.9</ele>
        <time>2024-10-21T09:26:13Z</time>
      </trkpt>
      <trkpt lat="45.83077" lon="1.18341">
        <ele>324.9</ele>
        <time>2024-10-21T09:26:14Z</time>
      </trkpt>
      <trkpt lat="45.83076" lon="1.18342">
        <ele>324.9</ele>
        <time>2024-10-21T09:26:15Z</time>
      </trkpt>
      <trkpt lat="45.83076" lon="1.18345">
        <ele>324.8</ele>
        <time>2024-10-21T09:26:16Z</time>
      </trkpt>
      <trkpt lat="45.83077" lon="1.18346">
        <ele>324.8</ele>
        <time>2024-10-21T09:26:17Z</time>
      </trkpt>
      <trkpt lat="45.83077" lon="1.18348">
        <ele>324.8</ele>
        <time>2024-10-21T09:26:18Z</time>
      </trkpt>
      <trkpt lat="45.83077" lon="1.18349">
        <ele>324.7</ele>
        <time>2024-10-21T09:26:19Z</time>
      </trkpt>
      <trkpt lat="45.83078" lon="1.18351">
        <ele>324.7</ele>
        <time>2024-10-21T09:26:20Z</time>
      </trkpt>
      <trkpt lat="45.83079" lon="1.18353">
        <ele>324.6</ele>
        <time>2024-10-21T09:26:21Z</time>
      </trkpt>
      <trkpt lat="45.83079" lon="1.18355">
        <ele>324.6</ele>
        <time>2024-10-21T09:26:22Z</time>
      </trkpt>
      <trkpt lat="45.83079" lon="1.18357">
        <ele>324.5</ele>
        <time>2024-10-21T09:26:23Z</time>
      </trkpt>
      <trkpt lat="45.8308" lon="1.18359">
        <ele>324.4</ele>
        <time>2024-10-21T09:26:24Z</time>
      </trkpt>
      <trkpt lat="45.8308" lon="1.18362">
        <ele>324.4</ele>
        <time>2024-10-21T09:26:25Z</time>
      </trkpt>
      <trkpt lat="45.83081" lon="1.18364">
        <ele>324.3</ele>
        <time>2024-10-21T09:26:26Z</time>
      </trkpt>
      <trkpt lat="45.83081" lon="1.18366">
        <ele>324.3</ele>
        <time>2024-10-21T09:26:27Z</time>
      </trkpt>
      <trkpt lat="45.83081" lon="1.18368">
        <ele>324.2</ele>
        <time>2024-10-21T09:26:28Z</time>
      </trkpt>
      <trkpt lat="45.83081" lon="1.18371">
        <ele>324.2</ele>
        <time>2024-10-21T09:26:29Z</time>
      </trkpt>
      <trkpt lat="45.83081" lon="1.18373">
        <ele>324.1</ele>
        <time>2024-10-21T09:26:30Z</time>
      </trkpt>
      <trkpt lat="45.83081" lon="1.18375">
        <ele>324.1</ele>
        <time>2024-10-21T09:26:31Z</time>
      </trkpt>
      <trkpt lat="45.83081" lon="1.18378">
        <ele>324</ele>
        <time>2024-10-21T09:26:32Z</time>
      </trkpt>
      <trkpt lat="45.83081" lon="1.1838">
        <ele>324</ele>
        <time>2024-10-21T09:26:33Z</time>
      </trkpt>
      <trkpt lat="45.83081" lon="1.18382">
        <ele>324</ele>
        <time>2024-10-21T09:26:34Z</time>
      </trkpt>
      <trkpt lat="45.8308" lon="1.18384">
        <ele>323.9</ele>
        <time>2024-10-21T09:26:35Z</time>
      </trkpt>
      <trkpt lat="45.8308" lon="1.18386">
        <ele>323.9</ele>
        <time>2024-10-21T09:26:36Z</time>
      </trkpt>
      <trkpt lat="45.8308" lon="1.18389">
        <ele>323.8</ele>
        <time>2024-10-21T09:26:37Z</time>
      </trkpt>
      <trkpt lat="45.83079" lon="1.18391">
        <ele>323.8</ele>
        <time>2024-10-21T09:26:38Z</time>
      </trkpt>
      <trkpt lat="45.83079" lon="1.18393">
        <ele>323.8</ele>
        <time>2024-10-21T09:26:39Z</time>
      </trkpt>
      <trkpt lat="45.83079" lon="1.18395">
        <ele>323.7</ele>
        <time>2024-10-21T09:26:40Z</time>
      </trkpt>
      <trkpt lat="45.83079" lon="1.18397">
        <ele>323.7</ele>
        <time>2024-10-21T09:26:41Z</time>
      </trkpt>
      <trkpt lat="45.83078" lon="1.18399">
        <ele>323.6</ele>
        <time>2024-10-21T09:26:42Z</time>
      </trkpt>
      <trkpt lat="45.83078" lon="1.18401">
        <ele>323.6</ele>
        <time>2024-10-21T09:26:43Z</time>
      </trkpt>
      <trkpt lat="45.83077" lon="1.18402">
        <ele>323.6</ele>
        <time>2024-10-21T09:26:44Z</time>
      </trkpt>
      <trkpt lat="45.83076" lon="1.18404">
        <ele>323.5</ele>
        <time>2024-10-21T09:26:45Z</time>
      </trkpt>
      <trkpt lat="45.83075" lon="1.18406">
        <ele>323.5</ele>
        <time>2024-10-21T09:26:46Z</time>
      </trkpt>
      <trkpt lat="45.83075" lon="1.18408">
        <ele>323.4</ele>
        <time>2024-10-21T09:26:47Z</time>
      </trkpt>
      <trkpt lat="45.83074" lon="1.18409">
        <ele>323.4</ele>
        <time>2024-10-21T09:26:48Z</time>
      </trkpt>
      <trkpt lat="45.83075" lon="1.18412">
        <ele>323.3</ele>
        <time>2024-10-21T09:26:49Z</time>
      </trkpt>
      <trkpt lat="45.83075" lon="1.18413">
        <ele>323.3</ele>
        <time>2024-10-21T09:26:50Z</time>
      </trkpt>
      <trkpt lat="45.83075" lon="1.18415">
        <ele>323.2</ele>
        <time>2024-10-21T09:26:51Z</time>
      </trkpt>
      <trkpt lat="45.83076" lon="1.18418">
        <ele>323.2</ele>
        <time>2024-10-21T09:26:52Z</time>
      </trkpt>
      <trkpt lat="45.83077" lon="1.18418">
        <ele>323.1</ele>
        <time>2024-10-21T09:26:53Z</time>
      </trkpt>
      <trkpt lat="45.83077" lon="1.18419">
        <ele>323.1</ele>
        <time>2024-10-21T09:26:54Z</time>
      </trkpt>
      <trkpt lat="45.83078" lon="1.18422">
        <ele>323</ele>
        <time>2024-10-21T09:26:55Z</time>
      </trkpt>
      <trkpt lat="45.83079" lon="1.18423">
        <ele>322.9</ele>
        <time>2024-10-21T09:26:56Z</time>
      </trkpt>
      <trkpt lat="45.83079" lon="1.18424">
        <ele>322.9</ele>
        <time>2024-10-21T09:26:57Z</time>
      </trkpt>
      <trkpt lat="45.83079" lon="1.18426">
        <ele>322.8</ele>
        <time>2024-10-21T09:26:58Z</time>
      </trkpt>
      <trkpt lat="45.83079" lon="1.18427">
        <ele>322.8</ele>
        <time>2024-10-21T09:26:59Z</time>
      </trkpt>
      <trkpt lat="45.83079" lon="1.18429">
        <ele>322.7</ele>
        <time>2024-10-21T09:27:00Z</time>
      </trkpt>
      <trkpt lat="45.83079" lon="1.18432">
        <ele>322.6</ele>
        <time>2024-10-21T09:27:01Z</time>
      </trkpt>
      <trkpt lat="45.83079" lon="1.18433">
        <ele>322.6</ele>
        <time>2024-10-21T09:27:02Z</time>
      </trkpt>
      <trkpt lat="45.83078" lon="1.18434">
        <ele>322.6</ele>
        <time>2024-10-21T09:27:03Z</time>
      </trkpt>
      <trkpt lat="45.83078" lon="1.18437">
        <ele>322.5</ele>
        <time>2024-10-21T09:27:04Z</time>
      </trkpt>
      <trkpt lat="45.83078" lon="1.18438">
        <ele>322.4</ele>
        <time>2024-10-21T09:27:05Z</time>
      </trkpt>
      <trkpt lat="45.83077" lon="1.18439">
        <ele>322.4</ele>
        <time>2024-10-21T09:27:06Z</time>
      </trkpt>
      <trkpt lat="45.83077" lon="1.1844">
        <ele>322.3</ele>
        <time>2024-10-21T09:27:07Z</time>
      </trkpt>
      <trkpt lat="45.83077" lon="1.18442">
        <ele>322.3</ele>
        <time>2024-10-21T09:27:08Z</time>
      </trkpt>
      <trkpt lat="45.83076" lon="1.18442">
        <ele>322.3</ele>
        <time>2024-10-21T09:27:09Z</time>
      </trkpt>
      <trkpt lat="45.83076" lon="1.18444">
        <ele>322.2</ele>
        <time>2024-10-21T09:27:10Z</time>
      </trkpt>
      <trkpt lat="45.83075" lon="1.18444">
        <ele>322.2</ele>
        <time>2024-10-21T09:27:11Z</time>
      </trkpt>
      <trkpt lat="45.83074" lon="1.18445">
        <ele>322.1</ele>
        <time>2024-10-21T09:27:12Z</time>
      </trkpt>
      <trkpt lat="45.83074" lon="1.18446">
        <ele>322.1</ele>
        <time>2024-10-21T09:27:13Z</time>
      </trkpt>
      <trkpt lat="45.83073" lon="1.18447">
        <ele>322.1</ele>
        <time>2024-10-21T09:27:14Z</time>
      </trkpt>
      <trkpt lat="45.83073" lon="1.18449">
        <ele>322</ele>
        <time>2024-10-21T09:27:15Z</time>
      </trkpt>
      <trkpt lat="45.83072" lon="1.1845">
        <ele>322</ele>
        <time>2024-10-21T09:27:16Z</time>
      </trkpt>
      <trkpt lat="45.83071" lon="1.18451">
        <ele>321.9</ele>
        <time>2024-10-21T09:27:17Z</time>
      </trkpt>
      <trkpt lat="45.8307" lon="1.18451">
        <ele>321.8</ele>
        <time>2024-10-21T09:27:19Z</time>
      </trkpt>
      <trkpt lat="45.83069" lon="1.18451">
        <ele>321.8</ele>
        <time>2024-10-21T09:27:20Z</time>
      </trkpt>
      <trkpt lat="45.83069" lon="1.18451">
        <ele>321.8</ele>
        <time>2024-10-21T09:27:21Z</time>
      </trkpt>
      <trkpt lat="45.83068" lon="1.18451">
        <ele>321.8</ele>
        <time>2024-10-21T09:27:22Z</time>
      </trkpt>
      <trkpt lat="45.83065" lon="1.1845">
        <ele>321.7</ele>
        <time>2024-10-21T09:27:23Z</time>
      </trkpt>
      <trkpt lat="45.83064" lon="1.1845">
        <ele>321.6</ele>
        <time>2024-10-21T09:27:25Z</time>
      </trkpt>
      <trkpt lat="45.83061" lon="1.18449">
        <ele>321.5</ele>
        <time>2024-10-21T09:27:26Z</time>
      </trkpt>
      <trkpt lat="45.8306" lon="1.18448">
        <ele>321.5</ele>
        <time>2024-10-21T09:27:27Z</time>
      </trkpt>
      <trkpt lat="45.83059" lon="1.18448">
        <ele>321.5</ele>
        <time>2024-10-21T09:27:28Z</time>
      </trkpt>
      <trkpt lat="45.83058" lon="1.18448">
        <ele>321.5</ele>
        <time>2024-10-21T09:27:29Z</time>
      </trkpt>
      <trkpt lat="45.83057" lon="1.18448">
        <ele>321.5</ele>
        <time>2024-10-21T09:27:30Z</time>
      </trkpt>
      <trkpt lat="45.83055" lon="1.18448">
        <ele>321.4</ele>
        <time>2024-10-21T09:27:31Z</time>
      </trkpt>
      <trkpt lat="45.83052" lon="1.18448">
        <ele>321.4</ele>
        <time>2024-10-21T09:27:32Z</time>
      </trkpt>
      <trkpt lat="45.83052" lon="1.18448">
        <ele>321.4</ele>
        <time>2024-10-21T09:27:33Z</time>
      </trkpt>
      <trkpt lat="45.8305" lon="1.18448">
        <ele>321.4</ele>
        <time>2024-10-21T09:27:34Z</time>
      </trkpt>
      <trkpt lat="45.83047" lon="1.18448">
        <ele>321.4</ele>
        <time>2024-10-21T09:27:35Z</time>
      </trkpt>
      <trkpt lat="45.83046" lon="1.18448">
        <ele>321.5</ele>
        <time>2024-10-21T09:27:36Z</time>
      </trkpt>
      <trkpt lat="45.83044" lon="1.18448">
        <ele>321.5</ele>
        <time>2024-10-21T09:27:37Z</time>
      </trkpt>
      <trkpt lat="45.83043" lon="1.18449">
        <ele>321.5</ele>
        <time>2024-10-21T09:27:38Z</time>
      </trkpt>
      <trkpt lat="45.83042" lon="1.18451">
        <ele>321.5</ele>
        <time>2024-10-21T09:27:39Z</time>
      </trkpt>
      <trkpt lat="45.83041" lon="1.18451">
        <ele>321.5</ele>
        <time>2024-10-21T09:27:40Z</time>
      </trkpt>
      <trkpt lat="45.83039" lon="1.18453">
        <ele>321.6</ele>
        <time>2024-10-21T09:27:41Z</time>
      </trkpt>
      <trkpt lat="45.83038" lon="1.18453">
        <ele>321.6</ele>
        <time>2024-10-21T09:27:42Z</time>
      </trkpt>
      <trkpt lat="45.83038" lon="1.18454">
        <ele>321.6</ele>
        <time>2024-10-21T09:27:43Z</time>
      </trkpt>
      <trkpt lat="45.83037" lon="1.18455">
        <ele>321.6</ele>
        <time>2024-10-21T09:27:44Z</time>
      </trkpt>
      <trkpt lat="45.83035" lon="1.18455">
        <ele>321.6</ele>
        <time>2024-10-21T09:27:45Z</time>
      </trkpt>
      <trkpt lat="45.83035" lon="1.18456">
        <ele>321.7</ele>
        <time>2024-10-21T09:27:46Z</time>
      </trkpt>
      <trkpt lat="45.83034" lon="1.18456">
        <ele>321.7</ele>
        <time>2024-10-21T09:27:47Z</time>
      </trkpt>
      <trkpt lat="45.83033" lon="1.18456">
        <ele>321.7</ele>
        <time>2024-10-21T09:27:48Z</time>
      </trkpt>
      <trkpt lat="45.83032" lon="1.18457">
        <ele>321.7</ele>
        <time>2024-10-21T09:27:49Z</time>
      </trkpt>
      <trkpt lat="45.83031" lon="1.18457">
        <ele>321.7</ele>
        <time>2024-10-21T09:27:50Z</time>
      </trkpt>
      <trkpt lat="45.83031" lon="1.18457">
        <ele>321.7</ele>
        <time>2024-10-21T09:27:51Z</time>
      </trkpt>
      <trkpt lat="45.8303" lon="1.18458">
        <ele>321.8</ele>
        <time>2024-10-21T09:27:52Z</time>
      </trkpt>
      <trkpt lat="45.83029" lon="1.18458">
        <ele>321.8</ele>
        <time>2024-10-21T09:27:53Z</time>
      </trkpt>
      <trkpt lat="45.83028" lon="1.18458">
        <ele>321.8</ele>
        <time>2024-10-21T09:27:54Z</time>
      </trkpt>
      <trkpt lat="45.83028" lon="1.18457">
        <ele>321.8</ele>
        <time>2024-10-21T09:27:55Z</time>
      </trkpt>
      <trkpt lat="45.83027" lon="1.18456">
        <ele>321.8</ele>
        <time>2024-10-21T09:27:56Z</time>
      </trkpt>
      <trkpt lat="45.83026" lon="1.18455">
        <ele>321.8</ele>
        <time>2024-10-21T09:27:57Z</time>
      </trkpt>
      <trkpt lat="45.83025" lon="1.18454">
        <ele>321.9</ele>
        <time>2024-10-21T09:27:58Z</time>
      </trkpt>
      <trkpt lat="45.83024" lon="1.18453">
        <ele>321.9</ele>
        <time>2024-10-21T09:27:59Z</time>
      </trkpt>
      <trkpt lat="45.83023" lon="1.18453">
        <ele>321.9</ele>
        <time>2024-10-21T09:28:00Z</time>
      </trkpt>
      <trkpt lat="45.83022" lon="1.18452">
        <ele>321.9</ele>
        <time>2024-10-21T09:28:01Z</time>
      </trkpt>
      <trkpt lat="45.8302" lon="1.18451">
        <ele>322</ele>
        <time>2024-10-21T09:28:02Z</time>
      </trkpt>
      <trkpt lat="45.83019" lon="1.1845">
        <ele>322</ele>
        <time>2024-10-21T09:28:03Z</time>
      </trkpt>
      <trkpt lat="45.83017" lon="1.1845">
        <ele>322.1</ele>
        <time>2024-10-21T09:28:04Z</time>
      </trkpt>
      <trkpt lat="45.83016" lon="1.18449">
        <ele>322.1</ele>
        <time>2024-10-21T09:28:05Z</time>
      </trkpt>
      <trkpt lat="45.83015" lon="1.18448">
        <ele>322.1</ele>
        <time>2024-10-21T09:28:06Z</time>
      </trkpt>
      <trkpt lat="45.83013" lon="1.18447">
        <ele>322.2</ele>
        <time>2024-10-21T09:28:07Z</time>
      </trkpt>
      <trkpt lat="45.83012" lon="1.18447">
        <ele>322.2</ele>
        <time>2024-10-21T09:28:08Z</time>
      </trkpt>
      <trkpt lat="45.8301" lon="1.18446">
        <ele>322.2</ele>
        <time>2024-10-21T09:28:09Z</time>
      </trkpt>
      <trkpt lat="45.83009" lon="1.18446">
        <ele>322.3</ele>
        <time>2024-10-21T09:28:10Z</time>
      </trkpt>
      <trkpt lat="45.83006" lon="1.18445">
        <ele>322.4</ele>
        <time>2024-10-21T09:28:11Z</time>
      </trkpt>
      <trkpt lat="45.83005" lon="1.18445">
        <ele>322.4</ele>
        <time>2024-10-21T09:28:12Z</time>
      </trkpt>
      <trkpt lat="45.83004" lon="1.18443">
        <ele>322.4</ele>
        <time>2024-10-21T09:28:13Z</time>
      </trkpt>
      <trkpt lat="45.83003" lon="1.18442">
        <ele>322.5</ele>
        <time>2024-10-21T09:28:14Z</time>
      </trkpt>
      <trkpt lat="45.83001" lon="1.18441">
        <ele>322.5</ele>
        <time>2024-10-21T09:28:15Z</time>
      </trkpt>
      <trkpt lat="45.83" lon="1.1844">
        <ele>322.6</ele>
        <time>2024-10-21T09:28:16Z</time>
      </trkpt>
      <trkpt lat="45.82999" lon="1.18439">
        <ele>322.6</ele>
        <time>2024-10-21T09:28:17Z</time>
      </trkpt>
      <trkpt lat="45.82998" lon="1.18439">
        <ele>322.6</ele>
        <time>2024-10-21T09:28:18Z</time>
      </trkpt>
      <trkpt lat="45.82997" lon="1.18438">
        <ele>322.7</ele>
        <time>2024-10-21T09:28:19Z</time>
      </trkpt>
      <trkpt lat="45.82996" lon="1.18437">
        <ele>322.7</ele>
        <time>2024-10-21T09:28:20Z</time>
      </trkpt>
      <trkpt lat="45.82995" lon="1.18436">
        <ele>322.8</ele>
        <time>2024-10-21T09:28:21Z</time>
      </trkpt>
      <trkpt lat="45.82994" lon="1.18435">
        <ele>322.8</ele>
        <time>2024-10-21T09:28:22Z</time>
      </trkpt>
      <trkpt lat="45.82991" lon="1.18433">
        <ele>322.9</ele>
        <time>2024-10-21T09:28:23Z</time>
      </trkpt>
      <trkpt lat="45.8299" lon="1.18432">
        <ele>322.9</ele>
        <time>2024-10-21T09:28:24Z</time>
      </trkpt>
      <trkpt lat="45.82988" lon="1.18429">
        <ele>323</ele>
        <time>2024-10-21T09:28:25Z</time>
      </trkpt>
      <trkpt lat="45.82986" lon="1.18428">
        <ele>323</ele>
        <time>2024-10-21T09:28:26Z</time>
      </trkpt>
      <trkpt lat="45.82985" lon="1.18427">
        <ele>323</ele>
        <time>2024-10-21T09:28:27Z</time>
      </trkpt>
      <trkpt lat="45.82982" lon="1.18428">
        <ele>323.1</ele>
        <time>2024-10-21T09:28:28Z</time>
      </trkpt>
      <trkpt lat="45.82982" lon="1.18429">
        <ele>323.1</ele>
        <time>2024-10-21T09:28:29Z</time>
      </trkpt>
      <trkpt lat="45.82981" lon="1.18429">
        <ele>323.1</ele>
        <time>2024-10-21T09:28:30Z</time>
      </trkpt>
      <trkpt lat="45.82979" lon="1.18429">
        <ele>323.1</ele>
        <time>2024-10-21T09:28:31Z</time>
      </trkpt>
      <trkpt lat="45.82978" lon="1.18429">
        <ele>323.1</ele>
        <time>2024-10-21T09:28:32Z</time>
      </trkpt>
      <trkpt lat="45.82976" lon="1.18428">
        <ele>323.2</ele>
        <time>2024-10-21T09:28:33Z</time>
      </trkpt>
      <trkpt lat="45.82975" lon="1.18428">
        <ele>323.2</ele>
        <time>2024-10-21T09:28:34Z</time>
      </trkpt>
      <trkpt lat="45.82973" lon="1.18426">
        <ele>323.2</ele>
        <time>2024-10-21T09:28:35Z</time>
      </trkpt>
      <trkpt lat="45.82971" lon="1.18426">
        <ele>323.2</ele>
        <time>2024-10-21T09:28:36Z</time>
      </trkpt>
      <trkpt lat="45.8297" lon="1.18426">
        <ele>323.2</ele>
        <time>2024-10-21T09:28:37Z</time>
      </trkpt>
      <trkpt lat="45.82968" lon="1.18425">
        <ele>323.3</ele>
        <time>2024-10-21T09:28:38Z</time>
      </trkpt>
      <trkpt lat="45.82966" lon="1.18425">
        <ele>323.3</ele>
        <time>2024-10-21T09:28:39Z</time>
      </trkpt>
      <trkpt lat="45.82965" lon="1.18425">
        <ele>323.3</ele>
        <time>2024-10-21T09:28:40Z</time>
      </trkpt>
      <trkpt lat="45.82963" lon="1.18424">
        <ele>323.3</ele>
        <time>2024-10-21T09:28:41Z</time>
      </trkpt>
      <trkpt lat="45.82962" lon="1.18424">
        <ele>323.3</ele>
        <time>2024-10-21T09:28:42Z</time>
      </trkpt>
      <trkpt lat="45.82961" lon="1.18424">
        <ele>323.3</ele>
        <time>2024-10-21T09:28:43Z</time>
      </trkpt>
      <trkpt lat="45.82959" lon="1.18423">
        <ele>323.3</ele>
        <time>2024-10-21T09:28:44Z</time>
      </trkpt>
      <trkpt lat="45.82957" lon="1.18422">
        <ele>323.4</ele>
        <time>2024-10-21T09:28:45Z</time>
      </trkpt>
      <trkpt lat="45.82955" lon="1.18421">
        <ele>323.4</ele>
        <time>2024-10-21T09:28:47Z</time>
      </trkpt>
      <trkpt lat="45.82954" lon="1.18421">
        <ele>323.4</ele>
        <time>2024-10-21T09:28:48Z</time>
      </trkpt>
      <trkpt lat="45.82953" lon="1.1842">
        <ele>323.4</ele>
        <time>2024-10-21T09:28:49Z</time>
      </trkpt>
      <trkpt lat="45.82951" lon="1.18418">
        <ele>323.4</ele>
        <time>2024-10-21T09:28:50Z</time>
      </trkpt>
      <trkpt lat="45.8295" lon="1.18418">
        <ele>323.4</ele>
        <time>2024-10-21T09:28:51Z</time>
      </trkpt>
      <trkpt lat="45.82948" lon="1.18417">
        <ele>323.5</ele>
        <time>2024-10-21T09:28:52Z</time>
      </trkpt>
      <trkpt lat="45.82946" lon="1.18417">
        <ele>323.5</ele>
        <time>2024-10-21T09:28:53Z</time>
      </trkpt>
      <trkpt lat="45.82946" lon="1.18417">
        <ele>323.5</ele>
        <time>2024-10-21T09:28:54Z</time>
      </trkpt>
      <trkpt lat="45.82945" lon="1.18418">
        <ele>323.5</ele>
        <time>2024-10-21T09:28:55Z</time>
      </trkpt>
      <trkpt lat="45.82944" lon="1.1842">
        <ele>323.5</ele>
        <time>2024-10-21T09:28:56Z</time>
      </trkpt>
      <trkpt lat="45.82944" lon="1.18422">
        <ele>323.4</ele>
        <time>2024-10-21T09:28:57Z</time>
      </trkpt>
      <trkpt lat="45.82944" lon="1.18423">
        <ele>323.3</ele>
        <time>2024-10-21T09:28:58Z</time>
      </trkpt>
      <trkpt lat="45.82945" lon="1.18428">
        <ele>323.1</ele>
        <time>2024-10-21T09:28:59Z</time>
      </trkpt>
      <trkpt lat="45.82945" lon="1.1843">
        <ele>323</ele>
        <time>2024-10-21T09:29:01Z</time>
      </trkpt>
      <trkpt lat="45.82946" lon="1.18432">
        <ele>322.9</ele>
        <time>2024-10-21T09:29:02Z</time>
      </trkpt>
      <trkpt lat="45.82946" lon="1.18434">
        <ele>322.8</ele>
        <time>2024-10-21T09:29:03Z</time>
      </trkpt>
      <trkpt lat="45.82946" lon="1.18437">
        <ele>322.7</ele>
        <time>2024-10-21T09:29:04Z</time>
      </trkpt>
      <trkpt lat="45.82947" lon="1.18439">
        <ele>322.6</ele>
        <time>2024-10-21T09:29:05Z</time>
      </trkpt>
      <trkpt lat="45.82947" lon="1.18441">
        <ele>322.5</ele>
        <time>2024-10-21T09:29:06Z</time>
      </trkpt>
      <trkpt lat="45.82948" lon="1.18445">
        <ele>322.3</ele>
        <time>2024-10-21T09:29:07Z</time>
      </trkpt>
      <trkpt lat="45.82948" lon="1.18448">
        <ele>322.2</ele>
        <time>2024-10-21T09:29:09Z</time>
      </trkpt>
      <trkpt lat="45.82949" lon="1.1845">
        <ele>322</ele>
        <time>2024-10-21T09:29:10Z</time>
      </trkpt>
      <trkpt lat="45.82949" lon="1.18454">
        <ele>321.9</ele>
        <time>2024-10-21T09:29:11Z</time>
      </trkpt>
      <trkpt lat="45.82949" lon="1.18456">
        <ele>321.8</ele>
        <time>2024-10-21T09:29:12Z</time>
      </trkpt>
      <trkpt lat="45.82949" lon="1.18456">
        <ele>321.8</ele>
        <time>2024-10-21T09:29:13Z</time>
      </trkpt>
      <trkpt lat="45.8295" lon="1.18458">
        <ele>321.7</ele>
        <time>2024-10-21T09:29:14Z</time>
      </trkpt>
      <trkpt lat="45.8295" lon="1.1846">
        <ele>321.6</ele>
        <time>2024-10-21T09:29:15Z</time>
      </trkpt>
      <trkpt lat="45.8295" lon="1.18462">
        <ele>321.5</ele>
        <time>2024-10-21T09:29:16Z</time>
      </trkpt>
      <trkpt lat="45.8295" lon="1.18464">
        <ele>321.4</ele>
        <time>2024-10-21T09:29:17Z</time>
      </trkpt>
      <trkpt lat="45.8295" lon="1.18467">
        <ele>321.3</ele>
        <time>2024-10-21T09:29:18Z</time>
      </trkpt>
      <trkpt lat="45.8295" lon="1.18469">
        <ele>321.2</ele>
        <time>2024-10-21T09:29:19Z</time>
      </trkpt>
      <trkpt lat="45.82951" lon="1.18473">
        <ele>321</ele>
        <time>2024-10-21T09:29:20Z</time>
      </trkpt>
      <trkpt lat="45.82951" lon="1.18473">
        <ele>321</ele>
        <time>2024-10-21T09:29:21Z</time>
      </trkpt>
      <trkpt lat="45.8295" lon="1.18475">
        <ele>320.9</ele>
        <time>2024-10-21T09:29:22Z</time>
      </trkpt>
      <trkpt lat="45.8295" lon="1.18477">
        <ele>320.8</ele>
        <time>2024-10-21T09:29:23Z</time>
      </trkpt>
      <trkpt lat="45.8295" lon="1.18479">
        <ele>320.7</ele>
        <time>2024-10-21T09:29:24Z</time>
      </trkpt>
      <trkpt lat="45.8295" lon="1.18482">
        <ele>320.5</ele>
        <time>2024-10-21T09:29:25Z</time>
      </trkpt>
      <trkpt lat="45.8295" lon="1.18483">
        <ele>320.5</ele>
        <time>2024-10-21T09:29:26Z</time>
      </trkpt>
      <trkpt lat="45.82951" lon="1.18486">
        <ele>320.3</ele>
        <time>2024-10-21T09:29:27Z</time>
      </trkpt>
      <trkpt lat="45.82951" lon="1.18488">
        <ele>320.2</ele>
        <time>2024-10-21T09:29:28Z</time>
      </trkpt>
      <trkpt lat="45.82952" lon="1.1849">
        <ele>320.1</ele>
        <time>2024-10-21T09:29:29Z</time>
      </trkpt>
      <trkpt lat="45.82953" lon="1.18493">
        <ele>320</ele>
        <time>2024-10-21T09:29:30Z</time>
      </trkpt>
      <trkpt lat="45.82953" lon="1.18494">
        <ele>319.9</ele>
        <time>2024-10-21T09:29:31Z</time>
      </trkpt>
      <trkpt lat="45.82953" lon="1.18495">
        <ele>319.9</ele>
        <time>2024-10-21T09:29:32Z</time>
      </trkpt>
      <trkpt lat="45.82953" lon="1.18497">
        <ele>319.7</ele>
        <time>2024-10-21T09:29:33Z</time>
      </trkpt>
      <trkpt lat="45.82952" lon="1.18499">
        <ele>319.7</ele>
        <time>2024-10-21T09:29:34Z</time>
      </trkpt>
      <trkpt lat="45.82952" lon="1.185">
        <ele>319.6</ele>
        <time>2024-10-21T09:29:35Z</time>
      </trkpt>
      <trkpt lat="45.82952" lon="1.18501">
        <ele>319.6</ele>
        <time>2024-10-21T09:29:36Z</time>
      </trkpt>
      <trkpt lat="45.82951" lon="1.18502">
        <ele>319.5</ele>
        <time>2024-10-21T09:29:37Z</time>
      </trkpt>
      <trkpt lat="45.82951" lon="1.18503">
        <ele>319.4</ele>
        <time>2024-10-21T09:29:38Z</time>
      </trkpt>
      <trkpt lat="45.8295" lon="1.18505">
        <ele>319.4</ele>
        <time>2024-10-21T09:29:39Z</time>
      </trkpt>
      <trkpt lat="45.8295" lon="1.18507">
        <ele>319.2</ele>
        <time>2024-10-21T09:29:40Z</time>
      </trkpt>
      <trkpt lat="45.8295" lon="1.18508">
        <ele>319.2</ele>
        <time>2024-10-21T09:29:41Z</time>
      </trkpt>
      <trkpt lat="45.8295" lon="1.1851">
        <ele>319.1</ele>
        <time>2024-10-21T09:29:42Z</time>
      </trkpt>
      <trkpt lat="45.8295" lon="1.18512">
        <ele>319</ele>
        <time>2024-10-21T09:29:43Z</time>
      </trkpt>
      <trkpt lat="45.82949" lon="1.18513">
        <ele>319</ele>
        <time>2024-10-21T09:29:44Z</time>
      </trkpt>
      <trkpt lat="45.82949" lon="1.18514">
        <ele>318.9</ele>
        <time>2024-10-21T09:29:45Z</time>
      </trkpt>
      <trkpt lat="45.82949" lon="1.18515">
        <ele>318.9</ele>
        <time>2024-10-21T09:29:46Z</time>
      </trkpt>
      <trkpt lat="45.82949" lon="1.18516">
        <ele>318.8</ele>
        <time>2024-10-21T09:29:47Z</time>
      </trkpt>
      <trkpt lat="45.82949" lon="1.18517">
        <ele>318.8</ele>
        <time>2024-10-21T09:29:48Z</time>
      </trkpt>
      <trkpt lat="45.82949" lon="1.18517">
        <ele>318.8</ele>
        <time>2024-10-21T09:29:49Z</time>
      </trkpt>
      <trkpt lat="45.8295" lon="1.18519">
        <ele>318.7</ele>
        <time>2024-10-21T09:29:50Z</time>
      </trkpt>
      <trkpt lat="45.82951" lon="1.18521">
        <ele>318.6</ele>
        <time>2024-10-21T09:29:51Z</time>
      </trkpt>
      <trkpt lat="45.82951" lon="1.18523">
        <ele>318.5</ele>
        <time>2024-10-21T09:29:52Z</time>
      </trkpt>
      <trkpt lat="45.82951" lon="1.18525">
        <ele>318.4</ele>
        <time>2024-10-21T09:29:53Z</time>
      </trkpt>
      <trkpt lat="45.82952" lon="1.18527">
        <ele>318.4</ele>
        <time>2024-10-21T09:29:54Z</time>
      </trkpt>
      <trkpt lat="45.82952" lon="1.18529">
        <ele>318.3</ele>
        <time>2024-10-21T09:29:55Z</time>
      </trkpt>
      <trkpt lat="45.82952" lon="1.18532">
        <ele>318.2</ele>
        <time>2024-10-21T09:29:56Z</time>
      </trkpt>
      <trkpt lat="45.82952" lon="1.18534">
        <ele>318.1</ele>
        <time>2024-10-21T09:29:57Z</time>
      </trkpt>
      <trkpt lat="45.82952" lon="1.18536">
        <ele>318</ele>
        <time>2024-10-21T09:29:58Z</time>
      </trkpt>
      <trkpt lat="45.82951" lon="1.18538">
        <ele>317.9</ele>
        <time>2024-10-21T09:29:59Z</time>
      </trkpt>
      <trkpt lat="45.8295" lon="1.18541">
        <ele>317.8</ele>
        <time>2024-10-21T09:30:00Z</time>
      </trkpt>
      <trkpt lat="45.82949" lon="1.18542">
        <ele>317.7</ele>
        <time>2024-10-21T09:30:01Z</time>
      </trkpt>
      <trkpt lat="45.82948" lon="1.18545">
        <ele>317.6</ele>
        <time>2024-10-21T09:30:02Z</time>
      </trkpt>
      <trkpt lat="45.82948" lon="1.18546">
        <ele>317.6</ele>
        <time>2024-10-21T09:30:03Z</time>
      </trkpt>
      <trkpt lat="45.82947" lon="1.18547">
        <ele>317.5</ele>
        <time>2024-10-21T09:30:04Z</time>
      </trkpt>
      <trkpt lat="45.82947" lon="1.18548">
        <ele>317.4</ele>
        <time>2024-10-21T09:30:05Z</time>
      </trkpt>
      <trkpt lat="45.82946" lon="1.18549">
        <ele>317.4</ele>
        <time>2024-10-21T09:30:06Z</time>
      </trkpt>
      <trkpt lat="45.82946" lon="1.18551">
        <ele>317.3</ele>
        <time>2024-10-21T09:30:07Z</time>
      </trkpt>
      <trkpt lat="45.82946" lon="1.18552">
        <ele>317.3</ele>
        <time>2024-10-21T09:30:08Z</time>
      </trkpt>
      <trkpt lat="45.82945" lon="1.18553">
        <ele>317.2</ele>
        <time>2024-10-21T09:30:09Z</time>
      </trkpt>
      <trkpt lat="45.82944" lon="1.18555">
        <ele>317.1</ele>
        <time>2024-10-21T09:30:10Z</time>
      </trkpt>
      <trkpt lat="45.82943" lon="1.18555">
        <ele>317.1</ele>
        <time>2024-10-21T09:30:11Z</time>
      </trkpt>
      <trkpt lat="45.82943" lon="1.18555">
        <ele>317</ele>
        <time>2024-10-21T09:30:12Z</time>
      </trkpt>
      <trkpt lat="45.82942" lon="1.18555">
        <ele>317</ele>
        <time>2024-10-21T09:30:13Z</time>
      </trkpt>
      <trkpt lat="45.82941" lon="1.18556">
        <ele>316.9</ele>
        <time>2024-10-21T09:30:14Z</time>
      </trkpt>
      <trkpt lat="45.82941" lon="1.18556">
        <ele>316.9</ele>
        <time>2024-10-21T09:30:15Z</time>
      </trkpt>
      <trkpt lat="45.82939" lon="1.18556">
        <ele>316.8</ele>
        <time>2024-10-21T09:30:16Z</time>
      </trkpt>
      <trkpt lat="45.82938" lon="1.18555">
        <ele>316.7</ele>
        <time>2024-10-21T09:30:17Z</time>
      </trkpt>
      <trkpt lat="45.82936" lon="1.18554">
        <ele>316.6</ele>
        <time>2024-10-21T09:30:18Z</time>
      </trkpt>
      <trkpt lat="45.82935" lon="1.18555">
        <ele>316.4</ele>
        <time>2024-10-21T09:30:19Z</time>
      </trkpt>
      <trkpt lat="45.82933" lon="1.18556">
        <ele>316.3</ele>
        <time>2024-10-21T09:30:20Z</time>
      </trkpt>
      <trkpt lat="45.82932" lon="1.18558">
        <ele>316.2</ele>
        <time>2024-10-21T09:30:21Z</time>
      </trkpt>
      <trkpt lat="45.82931" lon="1.1856">
        <ele>316.1</ele>
        <time>2024-10-21T09:30:22Z</time>
      </trkpt>
      <trkpt lat="45.82931" lon="1.18561">
        <ele>316</ele>
        <time>2024-10-21T09:30:23Z</time>
      </trkpt>
      <trkpt lat="45.8293" lon="1.18564">
        <ele>315.9</ele>
        <time>2024-10-21T09:30:24Z</time>
      </trkpt>
      <trkpt lat="45.82929" lon="1.18566">
        <ele>315.8</ele>
        <time>2024-10-21T09:30:25Z</time>
      </trkpt>
      <trkpt lat="45.82928" lon="1.18567">
        <ele>315.7</ele>
        <time>2024-10-21T09:30:26Z</time>
      </trkpt>
      <trkpt lat="45.82926" lon="1.18569">
        <ele>315.6</ele>
        <time>2024-10-21T09:30:27Z</time>
      </trkpt>
      <trkpt lat="45.82925" lon="1.1857">
        <ele>315.5</ele>
        <time>2024-10-21T09:30:28Z</time>
      </trkpt>
      <trkpt lat="45.82924" lon="1.18572">
        <ele>315.4</ele>
        <time>2024-10-21T09:30:29Z</time>
      </trkpt>
      <trkpt lat="45.82922" lon="1.18573">
        <ele>315.3</ele>
        <time>2024-10-21T09:30:30Z</time>
      </trkpt>
      <trkpt lat="45.82921" lon="1.18574">
        <ele>315.3</ele>
        <time>2024-10-21T09:30:31Z</time>
      </trkpt>
      <trkpt lat="45.8292" lon="1.18575">
        <ele>315.2</ele>
        <time>2024-10-21T09:30:32Z</time>
      </trkpt>
      <trkpt lat="45.82918" lon="1.18576">
        <ele>315.2</ele>
        <time>2024-10-21T09:30:33Z</time>
      </trkpt>
      <trkpt lat="45.82916" lon="1.18575">
        <ele>315.1</ele>
        <time>2024-10-21T09:30:34Z</time>
      </trkpt>
      <trkpt lat="45.82915" lon="1.18575">
        <ele>315.1</ele>
        <time>2024-10-21T09:30:35Z</time>
      </trkpt>
      <trkpt lat="45.82914" lon="1.18574">
        <ele>315.1</ele>
        <time>2024-10-21T09:30:36Z</time>
      </trkpt>
      <trkpt lat="45.82913" lon="1.18572">
        <ele>315.1</ele>
        <time>2024-10-21T09:30:37Z</time>
      </trkpt>
      <trkpt lat="45.82913" lon="1.18571">
        <ele>315.1</ele>
        <time>2024-10-21T09:30:38Z</time>
      </trkpt>
      <trkpt lat="45.82912" lon="1.1857">
        <ele>315.1</ele>
        <time>2024-10-21T09:30:39Z</time>
      </trkpt>
      <trkpt lat="45.82912" lon="1.18568">
        <ele>315.1</ele>
        <time>2024-10-21T09:30:40Z</time>
      </trkpt>
      <trkpt lat="45.82911" lon="1.18567">
        <ele>315.1</ele>
        <time>2024-10-21T09:30:41Z</time>
      </trkpt>
      <trkpt lat="45.82911" lon="1.18566">
        <ele>315.1</ele>
        <time>2024-10-21T09:30:42Z</time>
      </trkpt>
      <trkpt lat="45.8291" lon="1.18565">
        <ele>315.1</ele>
        <time>2024-10-21T09:30:43Z</time>
      </trkpt>
      <trkpt lat="45.82909" lon="1.18565">
        <ele>315.2</ele>
        <time>2024-10-21T09:30:44Z</time>
      </trkpt>
      <trkpt lat="45.82908" lon="1.18564">
        <ele>315.2</ele>
        <time>2024-10-21T09:30:45Z</time>
      </trkpt>
      <trkpt lat="45.82907" lon="1.18563">
        <ele>315.2</ele>
        <time>2024-10-21T09:30:46Z</time>
      </trkpt>
      <trkpt lat="45.82906" lon="1.18563">
        <ele>315.2</ele>
        <time>2024-10-21T09:30:47Z</time>
      </trkpt>
      <trkpt lat="45.82903" lon="1.18561">
        <ele>315.3</ele>
        <time>2024-10-21T09:30:48Z</time>
      </trkpt>
      <trkpt lat="45.82902" lon="1.18561">
        <ele>315.4</ele>
        <time>2024-10-21T09:30:49Z</time>
      </trkpt>
      <trkpt lat="45.82901" lon="1.1856">
        <ele>315.4</ele>
        <time>2024-10-21T09:30:50Z</time>
      </trkpt>
      <trkpt lat="45.82901" lon="1.1856">
        <ele>315.4</ele>
        <time>2024-10-21T09:30:51Z</time>
      </trkpt>
      <trkpt lat="45.82901" lon="1.1856">
        <ele>315.5</ele>
        <time>2024-10-21T09:30:52Z</time>
      </trkpt>
      <trkpt lat="45.829" lon="1.18559">
        <ele>315.5</ele>
        <time>2024-10-21T09:30:53Z</time>
      </trkpt>
      <trkpt lat="45.82899" lon="1.18559">
        <ele>315.6</ele>
        <time>2024-10-21T09:30:54Z</time>
      </trkpt>
      <trkpt lat="45.82898" lon="1.1856">
        <ele>315.6</ele>
        <time>2024-10-21T09:30:55Z</time>
      </trkpt>
      <trkpt lat="45.82896" lon="1.1856">
        <ele>315.7</ele>
        <time>2024-10-21T09:30:56Z</time>
      </trkpt>
      <trkpt lat="45.82895" lon="1.1856">
        <ele>315.8</ele>
        <time>2024-10-21T09:30:57Z</time>
      </trkpt>
      <trkpt lat="45.82894" lon="1.18559">
        <ele>315.8</ele>
        <time>2024-10-21T09:30:58Z</time>
      </trkpt>
      <trkpt lat="45.82893" lon="1.18558">
        <ele>315.9</ele>
        <time>2024-10-21T09:30:59Z</time>
      </trkpt>
      <trkpt lat="45.82894" lon="1.18557">
        <ele>315.9</ele>
        <time>2024-10-21T09:31:00Z</time>
      </trkpt>
      <trkpt lat="45.82894" lon="1.18555">
        <ele>316</ele>
        <time>2024-10-21T09:31:01Z</time>
      </trkpt>
      <trkpt lat="45.82895" lon="1.18554">
        <ele>316</ele>
        <time>2024-10-21T09:31:03Z</time>
      </trkpt>
      <trkpt lat="45.82895" lon="1.18552">
        <ele>316.1</ele>
        <time>2024-10-21T09:31:04Z</time>
      </trkpt>
      <trkpt lat="45.82896" lon="1.18547">
        <ele>316.3</ele>
        <time>2024-10-21T09:31:05Z</time>
      </trkpt>
      <trkpt lat="45.82895" lon="1.18546">
        <ele>316.4</ele>
        <time>2024-10-21T09:31:06Z</time>
      </trkpt>
      <trkpt lat="45.82894" lon="1.18545">
        <ele>316.5</ele>
        <time>2024-10-21T09:31:07Z</time>
      </trkpt>
      <trkpt lat="45.82893" lon="1.18544">
        <ele>316.5</ele>
        <time>2024-10-21T09:31:08Z</time>
      </trkpt>
      <trkpt lat="45.82892" lon="1.18544">
        <ele>316.6</ele>
        <time>2024-10-21T09:31:09Z</time>
      </trkpt>
      <trkpt lat="45.8289" lon="1.18543">
        <ele>316.7</ele>
        <time>2024-10-21T09:31:10Z</time>
      </trkpt>
      <trkpt lat="45.82889" lon="1.18542">
        <ele>316.8</ele>
        <time>2024-10-21T09:31:11Z</time>
      </trkpt>
      <trkpt lat="45.82888" lon="1.18541">
        <ele>316.9</ele>
        <time>2024-10-21T09:31:12Z</time>
      </trkpt>
      <trkpt lat="45.82887" lon="1.18541">
        <ele>317</ele>
        <time>2024-10-21T09:31:13Z</time>
      </trkpt>
      <trkpt lat="45.82886" lon="1.1854">
        <ele>317.1</ele>
        <time>2024-10-21T09:31:14Z</time>
      </trkpt>
      <trkpt lat="45.82885" lon="1.1854">
        <ele>317.1</ele>
        <time>2024-10-21T09:31:15Z</time>
      </trkpt>
      <trkpt lat="45.82884" lon="1.18538">
        <ele>317.2</ele>
        <time>2024-10-21T09:31:16Z</time>
      </trkpt>
      <trkpt lat="45.82883" lon="1.18538">
        <ele>317.3</ele>
        <time>2024-10-21T09:31:17Z</time>
      </trkpt>
      <trkpt lat="45.82882" lon="1.18537">
        <ele>317.3</ele>
        <time>2024-10-21T09:31:18Z</time>
      </trkpt>
      <trkpt lat="45.82882" lon="1.18536">
        <ele>317.4</ele>
        <time>2024-10-21T09:31:19Z</time>
      </trkpt>
      <trkpt lat="45.82881" lon="1.18536">
        <ele>317.4</ele>
        <time>2024-10-21T09:31:20Z</time>
      </trkpt>
      <trkpt lat="45.82881" lon="1.18535">
        <ele>317.5</ele>
        <time>2024-10-21T09:31:21Z</time>
      </trkpt>
      <trkpt lat="45.8288" lon="1.18535">
        <ele>317.5</ele>
        <time>2024-10-21T09:31:22Z</time>
      </trkpt>
      <trkpt lat="45.82879" lon="1.18534">
        <ele>317.6</ele>
        <time>2024-10-21T09:31:23Z</time>
      </trkpt>
      <trkpt lat="45.82878" lon="1.18534">
        <ele>317.6</ele>
        <time>2024-10-21T09:31:24Z</time>
      </trkpt>
      <trkpt lat="45.82877" lon="1.18533">
        <ele>317.7</ele>
        <time>2024-10-21T09:31:25Z</time>
      </trkpt>
      <trkpt lat="45.82876" lon="1.18533">
        <ele>317.7</ele>
        <time>2024-10-21T09:31:26Z</time>
      </trkpt>
      <trkpt lat="45.82875" lon="1.18533">
        <ele>317.8</ele>
        <time>2024-10-21T09:31:27Z</time>
      </trkpt>
      <trkpt lat="45.82874" lon="1.18532">
        <ele>317.8</ele>
        <time>2024-10-21T09:31:28Z</time>
      </trkpt>
      <trkpt lat="45.82873" lon="1.18532">
        <ele>317.9</ele>
        <time>2024-10-21T09:31:29Z</time>
      </trkpt>
      <trkpt lat="45.82871" lon="1.18533">
        <ele>317.9</ele>
        <time>2024-10-21T09:31:30Z</time>
      </trkpt>
      <trkpt lat="45.8287" lon="1.18533">
        <ele>317.9</ele>
        <time>2024-10-21T09:31:31Z</time>
      </trkpt>
      <trkpt lat="45.82869" lon="1.18533">
        <ele>318</ele>
        <time>2024-10-21T09:31:32Z</time>
      </trkpt>
      <trkpt lat="45.82867" lon="1.18533">
        <ele>318</ele>
        <time>2024-10-21T09:31:33Z</time>
      </trkpt>
      <trkpt lat="45.82866" lon="1.18532">
        <ele>318.1</ele>
        <time>2024-10-21T09:31:34Z</time>
      </trkpt>
      <trkpt lat="45.82864" lon="1.18532">
        <ele>318.1</ele>
        <time>2024-10-21T09:31:35Z</time>
      </trkpt>
      <trkpt lat="45.82862" lon="1.18531">
        <ele>318.1</ele>
        <time>2024-10-21T09:31:36Z</time>
      </trkpt>
      <trkpt lat="45.82861" lon="1.18531">
        <ele>318.1</ele>
        <time>2024-10-21T09:31:37Z</time>
      </trkpt>
      <trkpt lat="45.82859" lon="1.1853">
        <ele>318.2</ele>
        <time>2024-10-21T09:31:38Z</time>
      </trkpt>
      <trkpt lat="45.82857" lon="1.1853">
        <ele>318.2</ele>
        <time>2024-10-21T09:31:39Z</time>
      </trkpt>
      <trkpt lat="45.82856" lon="1.1853">
        <ele>318.2</ele>
        <time>2024-10-21T09:31:40Z</time>
      </trkpt>
      <trkpt lat="45.82855" lon="1.1853">
        <ele>318.1</ele>
        <time>2024-10-21T09:31:41Z</time>
      </trkpt>
      <trkpt lat="45.82853" lon="1.1853">
        <ele>318</ele>
        <time>2024-10-21T09:31:42Z</time>
      </trkpt>
      <trkpt lat="45.82851" lon="1.18531">
        <ele>317.8</ele>
        <time>2024-10-21T09:31:43Z</time>
      </trkpt>
      <trkpt lat="45.8285" lon="1.18532">
        <ele>317.7</ele>
        <time>2024-10-21T09:31:44Z</time>
      </trkpt>
      <trkpt lat="45.82849" lon="1.18532">
        <ele>317.7</ele>
        <time>2024-10-21T09:31:45Z</time>
      </trkpt>
      <trkpt lat="45.82848" lon="1.18535">
        <ele>317.5</ele>
        <time>2024-10-21T09:31:46Z</time>
      </trkpt>
      <trkpt lat="45.82848" lon="1.18536">
        <ele>317.4</ele>
        <time>2024-10-21T09:31:47Z</time>
      </trkpt>
      <trkpt lat="45.82848" lon="1.18537">
        <ele>317.4</ele>
        <time>2024-10-21T09:31:48Z</time>
      </trkpt>
      <trkpt lat="45.82847" lon="1.1854">
        <ele>317.2</ele>
        <time>2024-10-21T09:31:49Z</time>
      </trkpt>
      <trkpt lat="45.82847" lon="1.18541">
        <ele>317.1</ele>
        <time>2024-10-21T09:31:50Z</time>
      </trkpt>
      <trkpt lat="45.82847" lon="1.18542">
        <ele>317</ele>
        <time>2024-10-21T09:31:51Z</time>
      </trkpt>
      <trkpt lat="45.82847" lon="1.18544">
        <ele>316.9</ele>
        <time>2024-10-21T09:31:52Z</time>
      </trkpt>
      <trkpt lat="45.82847" lon="1.18547">
        <ele>316.6</ele>
        <time>2024-10-21T09:31:53Z</time>
      </trkpt>
      <trkpt lat="45.82847" lon="1.18549">
        <ele>316.5</ele>
        <time>2024-10-21T09:31:55Z</time>
      </trkpt>
      <trkpt lat="45.82847" lon="1.1855">
        <ele>316.4</ele>
        <time>2024-10-21T09:31:56Z</time>
      </trkpt>
      <trkpt lat="45.82847" lon="1.18551">
        <ele>316.3</ele>
        <time>2024-10-21T09:31:57Z</time>
      </trkpt>
      <trkpt lat="45.82847" lon="1.18552">
        <ele>316.2</ele>
        <time>2024-10-21T09:31:58Z</time>
      </trkpt>
      <trkpt lat="45.82847" lon="1.18554">
        <ele>316.1</ele>
        <time>2024-10-21T09:31:59Z</time>
      </trkpt>
      <trkpt lat="45.82846" lon="1.18555">
        <ele>316</ele>
        <time>2024-10-21T09:32:00Z</time>
      </trkpt>
      <trkpt lat="45.82846" lon="1.18558">
        <ele>315.8</ele>
        <time>2024-10-21T09:32:01Z</time>
      </trkpt>
      <trkpt lat="45.82845" lon="1.18559">
        <ele>315.6</ele>
        <time>2024-10-21T09:32:03Z</time>
      </trkpt>
      <trkpt lat="45.82845" lon="1.1856">
        <ele>315.5</ele>
        <time>2024-10-21T09:32:04Z</time>
      </trkpt>
      <trkpt lat="45.82844" lon="1.18561">
        <ele>315.4</ele>
        <time>2024-10-21T09:32:05Z</time>
      </trkpt>
      <trkpt lat="45.82843" lon="1.18564">
        <ele>315.1</ele>
        <time>2024-10-21T09:32:06Z</time>
      </trkpt>
      <trkpt lat="45.82843" lon="1.18564">
        <ele>315.1</ele>
        <time>2024-10-21T09:32:07Z</time>
      </trkpt>
      <trkpt lat="45.82843" lon="1.18566">
        <ele>315</ele>
        <time>2024-10-21T09:32:08Z</time>
      </trkpt>
      <trkpt lat="45.82843" lon="1.18567">
        <ele>314.9</ele>
        <time>2024-10-21T09:32:09Z</time>
      </trkpt>
      <trkpt lat="45.82843" lon="1.18569">
        <ele>314.7</ele>
        <time>2024-10-21T09:32:10Z</time>
      </trkpt>
      <trkpt lat="45.82843" lon="1.18571">
        <ele>314.6</ele>
        <time>2024-10-21T09:32:11Z</time>
      </trkpt>
      <trkpt lat="45.82843" lon="1.18573">
        <ele>314.4</ele>
        <time>2024-10-21T09:32:12Z</time>
      </trkpt>
      <trkpt lat="45.82843" lon="1.18574">
        <ele>314.3</ele>
        <time>2024-10-21T09:32:13Z</time>
      </trkpt>
      <trkpt lat="45.82842" lon="1.18577">
        <ele>314.1</ele>
        <time>2024-10-21T09:32:14Z</time>
      </trkpt>
      <trkpt lat="45.82842" lon="1.18578">
        <ele>314</ele>
        <time>2024-10-21T09:32:15Z</time>
      </trkpt>
      <trkpt lat="45.82842" lon="1.18579">
        <ele>313.9</ele>
        <time>2024-10-21T09:32:16Z</time>
      </trkpt>
      <trkpt lat="45.82841" lon="1.18582">
        <ele>313.7</ele>
        <time>2024-10-21T09:32:17Z</time>
      </trkpt>
      <trkpt lat="45.82841" lon="1.18584">
        <ele>313.5</ele>
        <time>2024-10-21T09:32:19Z</time>
      </trkpt>
      <trkpt lat="45.8284" lon="1.18585">
        <ele>313.4</ele>
        <time>2024-10-21T09:32:20Z</time>
      </trkpt>
      <trkpt lat="45.82839" lon="1.18584">
        <ele>313.2</ele>
        <time>2024-10-21T09:32:21Z</time>
      </trkpt>
      <trkpt lat="45.82838" lon="1.18583">
        <ele>313.2</ele>
        <time>2024-10-21T09:32:22Z</time>
      </trkpt>
      <trkpt lat="45.82838" lon="1.18582">
        <ele>313.1</ele>
        <time>2024-10-21T09:32:23Z</time>
      </trkpt>
      <trkpt lat="45.82838" lon="1.1858">
        <ele>313</ele>
        <time>2024-10-21T09:32:24Z</time>
      </trkpt>
      <trkpt lat="45.82838" lon="1.1858">
        <ele>312.9</ele>
        <time>2024-10-21T09:32:25Z</time>
      </trkpt>
      <trkpt lat="45.82837" lon="1.1858">
        <ele>312.8</ele>
        <time>2024-10-21T09:32:26Z</time>
      </trkpt>
      <trkpt lat="45.82837" lon="1.18581">
        <ele>312.7</ele>
        <time>2024-10-21T09:32:27Z</time>
      </trkpt>
      <trkpt lat="45.82836" lon="1.18583">
        <ele>312.6</ele>
        <time>2024-10-21T09:32:28Z</time>
      </trkpt>
      <trkpt lat="45.82835" lon="1.18585">
        <ele>312.5</ele>
        <time>2024-10-21T09:32:29Z</time>
      </trkpt>
      <trkpt lat="45.82835" lon="1.18587">
        <ele>312.3</ele>
        <time>2024-10-21T09:32:30Z</time>
      </trkpt>
      <trkpt lat="45.82835" lon="1.1859">
        <ele>312.1</ele>
        <time>2024-10-21T09:32:31Z</time>
      </trkpt>
      <trkpt lat="45.82835" lon="1.18591">
        <ele>312</ele>
        <time>2024-10-21T09:32:32Z</time>
      </trkpt>
      <trkpt lat="45.82834" lon="1.18593">
        <ele>311.9</ele>
        <time>2024-10-21T09:32:33Z</time>
      </trkpt>
      <trkpt lat="45.82834" lon="1.18595">
        <ele>311.8</ele>
        <time>2024-10-21T09:32:34Z</time>
      </trkpt>
      <trkpt lat="45.82834" lon="1.18598">
        <ele>311.7</ele>
        <time>2024-10-21T09:32:35Z</time>
      </trkpt>
      <trkpt lat="45.82834" lon="1.186">
        <ele>311.5</ele>
        <time>2024-10-21T09:32:36Z</time>
      </trkpt>
      <trkpt lat="45.82833" lon="1.18602">
        <ele>311.4</ele>
        <time>2024-10-21T09:32:37Z</time>
      </trkpt>
      <trkpt lat="45.82833" lon="1.18604">
        <ele>311.3</ele>
        <time>2024-10-21T09:32:38Z</time>
      </trkpt>
      <trkpt lat="45.82833" lon="1.18606">
        <ele>311.2</ele>
        <time>2024-10-21T09:32:39Z</time>
      </trkpt>
      <trkpt lat="45.82832" lon="1.18608">
        <ele>311.1</ele>
        <time>2024-10-21T09:32:40Z</time>
      </trkpt>
      <trkpt lat="45.82832" lon="1.1861">
        <ele>311</ele>
        <time>2024-10-21T09:32:41Z</time>
      </trkpt>
      <trkpt lat="45.82831" lon="1.18614">
        <ele>310.8</ele>
        <time>2024-10-21T09:32:42Z</time>
      </trkpt>
      <trkpt lat="45.8283" lon="1.18615">
        <ele>310.7</ele>
        <time>2024-10-21T09:32:43Z</time>
      </trkpt>
      <trkpt lat="45.8283" lon="1.18617">
        <ele>310.6</ele>
        <time>2024-10-21T09:32:45Z</time>
      </trkpt>
      <trkpt lat="45.82829" lon="1.18619">
        <ele>310.5</ele>
        <time>2024-10-21T09:32:46Z</time>
      </trkpt>
      <trkpt lat="45.82829" lon="1.1862">
        <ele>310.5</ele>
        <time>2024-10-21T09:32:47Z</time>
      </trkpt>
      <trkpt lat="45.82828" lon="1.18622">
        <ele>310.4</ele>
        <time>2024-10-21T09:32:48Z</time>
      </trkpt>
      <trkpt lat="45.82828" lon="1.18623">
        <ele>310.3</ele>
        <time>2024-10-21T09:32:49Z</time>
      </trkpt>
      <trkpt lat="45.82828" lon="1.18624">
        <ele>310.3</ele>
        <time>2024-10-21T09:32:50Z</time>
      </trkpt>
      <trkpt lat="45.82827" lon="1.18627">
        <ele>310.1</ele>
        <time>2024-10-21T09:32:51Z</time>
      </trkpt>
      <trkpt lat="45.82826" lon="1.18627">
        <ele>310.1</ele>
        <time>2024-10-21T09:32:53Z</time>
      </trkpt>
      <trkpt lat="45.82826" lon="1.18629">
        <ele>310</ele>
        <time>2024-10-21T09:32:54Z</time>
      </trkpt>
      <trkpt lat="45.82825" lon="1.18631">
        <ele>309.9</ele>
        <time>2024-10-21T09:32:55Z</time>
      </trkpt>
      <trkpt lat="45.82825" lon="1.18634">
        <ele>309.8</ele>
        <time>2024-10-21T09:32:56Z</time>
      </trkpt>
      <trkpt lat="45.82825" lon="1.18635">
        <ele>309.8</ele>
        <time>2024-10-21T09:32:57Z</time>
      </trkpt>
      <trkpt lat="45.82824" lon="1.18635">
        <ele>309.7</ele>
        <time>2024-10-21T09:32:58Z</time>
      </trkpt>
      <trkpt lat="45.82824" lon="1.18636">
        <ele>309.7</ele>
        <time>2024-10-21T09:32:59Z</time>
      </trkpt>
      <trkpt lat="45.82824" lon="1.18637">
        <ele>309.7</ele>
        <time>2024-10-21T09:33:00Z</time>
      </trkpt>
      <trkpt lat="45.82824" lon="1.18639">
        <ele>309.6</ele>
        <time>2024-10-21T09:33:01Z</time>
      </trkpt>
      <trkpt lat="45.82824" lon="1.18639">
        <ele>309.6</ele>
        <time>2024-10-21T09:33:02Z</time>
      </trkpt>
      <trkpt lat="45.82824" lon="1.18637">
        <ele>309.5</ele>
        <time>2024-10-21T09:33:03Z</time>
      </trkpt>
      <trkpt lat="45.82825" lon="1.18634">
        <ele>309.4</ele>
        <time>2024-10-21T09:33:04Z</time>
      </trkpt>
      <trkpt lat="45.82825" lon="1.18632">
        <ele>309.3</ele>
        <time>2024-10-21T09:33:05Z</time>
      </trkpt>
      <trkpt lat="45.82825" lon="1.18632">
        <ele>309.3</ele>
        <time>2024-10-21T09:33:06Z</time>
      </trkpt>
      <trkpt lat="45.82825" lon="1.18631">
        <ele>309.3</ele>
        <time>2024-10-21T09:33:07Z</time>
      </trkpt>
      <trkpt lat="45.82824" lon="1.18631">
        <ele>309.2</ele>
        <time>2024-10-21T09:33:08Z</time>
      </trkpt>
      <trkpt lat="45.82824" lon="1.1863">
        <ele>309.2</ele>
        <time>2024-10-21T09:33:09Z</time>
      </trkpt>
      <trkpt lat="45.82824" lon="1.1863">
        <ele>309.2</ele>
        <time>2024-10-21T09:33:10Z</time>
      </trkpt>
      <trkpt lat="45.82824" lon="1.18629">
        <ele>309.2</ele>
        <time>2024-10-21T09:33:11Z</time>
      </trkpt>
      <trkpt lat="45.82824" lon="1.18629">
        <ele>309.2</ele>
        <time>2024-10-21T09:33:12Z</time>
      </trkpt>
      <trkpt lat="45.82823" lon="1.18629">
        <ele>309.1</ele>
        <time>2024-10-21T09:33:13Z</time>
      </trkpt>
      <trkpt lat="45.82823" lon="1.1863">
        <ele>309.1</ele>
        <time>2024-10-21T09:33:14Z</time>
      </trkpt>
      <trkpt lat="45.82823" lon="1.18631">
        <ele>309.1</ele>
        <time>2024-10-21T09:33:15Z</time>
      </trkpt>
      <trkpt lat="45.82822" lon="1.18634">
        <ele>308.9</ele>
        <time>2024-10-21T09:33:16Z</time>
      </trkpt>
      <trkpt lat="45.82821" lon="1.18637">
        <ele>308.8</ele>
        <time>2024-10-21T09:33:17Z</time>
      </trkpt>
      <trkpt lat="45.8282" lon="1.18639">
        <ele>308.7</ele>
        <time>2024-10-21T09:33:18Z</time>
      </trkpt>
      <trkpt lat="45.82819" lon="1.1864">
        <ele>308.6</ele>
        <time>2024-10-21T09:33:19Z</time>
      </trkpt>
      <trkpt lat="45.82818" lon="1.18643">
        <ele>308.5</ele>
        <time>2024-10-21T09:33:21Z</time>
      </trkpt>
      <trkpt lat="45.82816" lon="1.18644">
        <ele>308.4</ele>
        <time>2024-10-21T09:33:22Z</time>
      </trkpt>
      <trkpt lat="45.82815" lon="1.18645">
        <ele>308.3</ele>
        <time>2024-10-21T09:33:23Z</time>
      </trkpt>
      <trkpt lat="45.82814" lon="1.18645">
        <ele>308.2</ele>
        <time>2024-10-21T09:33:24Z</time>
      </trkpt>
      <trkpt lat="45.82813" lon="1.18647">
        <ele>308.2</ele>
        <time>2024-10-21T09:33:25Z</time>
      </trkpt>
      <trkpt lat="45.82812" lon="1.18649">
        <ele>308</ele>
        <time>2024-10-21T09:33:26Z</time>
      </trkpt>
      <trkpt lat="45.82812" lon="1.1865">
        <ele>308</ele>
        <time>2024-10-21T09:33:27Z</time>
      </trkpt>
      <trkpt lat="45.82811" lon="1.18653">
        <ele>307.8</ele>
        <time>2024-10-21T09:33:28Z</time>
      </trkpt>
      <trkpt lat="45.8281" lon="1.18655">
        <ele>307.7</ele>
        <time>2024-10-21T09:33:29Z</time>
      </trkpt>
      <trkpt lat="45.8281" lon="1.18657">
        <ele>307.6</ele>
        <time>2024-10-21T09:33:30Z</time>
      </trkpt>
      <trkpt lat="45.8281" lon="1.1866">
        <ele>307.5</ele>
        <time>2024-10-21T09:33:31Z</time>
      </trkpt>
      <trkpt lat="45.8281" lon="1.18661">
        <ele>307.4</ele>
        <time>2024-10-21T09:33:32Z</time>
      </trkpt>
      <trkpt lat="45.82809" lon="1.18663">
        <ele>307.3</ele>
        <time>2024-10-21T09:33:33Z</time>
      </trkpt>
      <trkpt lat="45.82809" lon="1.18666">
        <ele>307.2</ele>
        <time>2024-10-21T09:33:34Z</time>
      </trkpt>
      <trkpt lat="45.82808" lon="1.1867">
        <ele>307</ele>
        <time>2024-10-21T09:33:35Z</time>
      </trkpt>
      <trkpt lat="45.82808" lon="1.18671">
        <ele>306.9</ele>
        <time>2024-10-21T09:33:36Z</time>
      </trkpt>
      <trkpt lat="45.82808" lon="1.18674">
        <ele>306.8</ele>
        <time>2024-10-21T09:33:37Z</time>
      </trkpt>
      <trkpt lat="45.82808" lon="1.18675">
        <ele>306.7</ele>
        <time>2024-10-21T09:33:38Z</time>
      </trkpt>
      <trkpt lat="45.82809" lon="1.18677">
        <ele>306.6</ele>
        <time>2024-10-21T09:33:39Z</time>
      </trkpt>
      <trkpt lat="45.82809" lon="1.18678">
        <ele>306.5</ele>
        <time>2024-10-21T09:33:40Z</time>
      </trkpt>
      <trkpt lat="45.82809" lon="1.18681">
        <ele>306.2</ele>
        <time>2024-10-21T09:33:41Z</time>
      </trkpt>
      <trkpt lat="45.82809" lon="1.18682">
        <ele>306.1</ele>
        <time>2024-10-21T09:33:42Z</time>
      </trkpt>
      <trkpt lat="45.82809" lon="1.18683">
        <ele>306</ele>
        <time>2024-10-21T09:33:43Z</time>
      </trkpt>
      <trkpt lat="45.82809" lon="1.18686">
        <ele>305.7</ele>
        <time>2024-10-21T09:33:44Z</time>
      </trkpt>
      <trkpt lat="45.82809" lon="1.18689">
        <ele>305.4</ele>
        <time>2024-10-21T09:33:45Z</time>
      </trkpt>
      <trkpt lat="45.82809" lon="1.18689">
        <ele>305.4</ele>
        <time>2024-10-21T09:33:47Z</time>
      </trkpt>
      <trkpt lat="45.82809" lon="1.1869">
        <ele>305.3</ele>
        <time>2024-10-21T09:33:48Z</time>
      </trkpt>
      <trkpt lat="45.82809" lon="1.18692">
        <ele>305</ele>
        <time>2024-10-21T09:33:49Z</time>
      </trkpt>
      <trkpt lat="45.82809" lon="1.18694">
        <ele>304.9</ele>
        <time>2024-10-21T09:33:50Z</time>
      </trkpt>
      <trkpt lat="45.82809" lon="1.18695">
        <ele>304.7</ele>
        <time>2024-10-21T09:33:51Z</time>
      </trkpt>
      <trkpt lat="45.82809" lon="1.18699">
        <ele>304.3</ele>
        <time>2024-10-21T09:33:52Z</time>
      </trkpt>
      <trkpt lat="45.82808" lon="1.18702">
        <ele>304</ele>
        <time>2024-10-21T09:33:53Z</time>
      </trkpt>
      <trkpt lat="45.82806" lon="1.18706">
        <ele>303.6</ele>
        <time>2024-10-21T09:33:54Z</time>
      </trkpt>
      <trkpt lat="45.82805" lon="1.18707">
        <ele>303.5</ele>
        <time>2024-10-21T09:33:55Z</time>
      </trkpt>
      <trkpt lat="45.82805" lon="1.18707">
        <ele>303.4</ele>
        <time>2024-10-21T09:33:56Z</time>
      </trkpt>
      <trkpt lat="45.82804" lon="1.18711">
        <ele>303</ele>
        <time>2024-10-21T09:33:57Z</time>
      </trkpt>
      <trkpt lat="45.82803" lon="1.18715">
        <ele>302.6</ele>
        <time>2024-10-21T09:33:58Z</time>
      </trkpt>
      <trkpt lat="45.82803" lon="1.18717">
        <ele>302.4</ele>
        <time>2024-10-21T09:33:59Z</time>
      </trkpt>
      <trkpt lat="45.82804" lon="1.18719">
        <ele>302.1</ele>
        <time>2024-10-21T09:34:00Z</time>
      </trkpt>
      <trkpt lat="45.82804" lon="1.18721">
        <ele>302</ele>
        <time>2024-10-21T09:34:01Z</time>
      </trkpt>
      <trkpt lat="45.82804" lon="1.18723">
        <ele>301.8</ele>
        <time>2024-10-21T09:34:02Z</time>
      </trkpt>
      <trkpt lat="45.82805" lon="1.18725">
        <ele>301.6</ele>
        <time>2024-10-21T09:34:03Z</time>
      </trkpt>
      <trkpt lat="45.82805" lon="1.18727">
        <ele>301.4</ele>
        <time>2024-10-21T09:34:04Z</time>
      </trkpt>
      <trkpt lat="45.82806" lon="1.1873">
        <ele>301.1</ele>
        <time>2024-10-21T09:34:05Z</time>
      </trkpt>
      <trkpt lat="45.82806" lon="1.18731">
        <ele>301</ele>
        <time>2024-10-21T09:34:06Z</time>
      </trkpt>
      <trkpt lat="45.82807" lon="1.18733">
        <ele>300.8</ele>
        <time>2024-10-21T09:34:07Z</time>
      </trkpt>
      <trkpt lat="45.82807" lon="1.18735">
        <ele>300.6</ele>
        <time>2024-10-21T09:34:08Z</time>
      </trkpt>
      <trkpt lat="45.82807" lon="1.18736">
        <ele>300.4</ele>
        <time>2024-10-21T09:34:09Z</time>
      </trkpt>
      <trkpt lat="45.82807" lon="1.18738">
        <ele>300.2</ele>
        <time>2024-10-21T09:34:10Z</time>
      </trkpt>
      <trkpt lat="45.82807" lon="1.1874">
        <ele>300.1</ele>
        <time>2024-10-21T09:34:11Z</time>
      </trkpt>
      <trkpt lat="45.82807" lon="1.18741">
        <ele>300</ele>
        <time>2024-10-21T09:34:12Z</time>
      </trkpt>
      <trkpt lat="45.82808" lon="1.18742">
        <ele>299.8</ele>
        <time>2024-10-21T09:34:13Z</time>
      </trkpt>
      <trkpt lat="45.82808" lon="1.18744">
        <ele>299.7</ele>
        <time>2024-10-21T09:34:14Z</time>
      </trkpt>
      <trkpt lat="45.82807" lon="1.18745">
        <ele>299.6</ele>
        <time>2024-10-21T09:34:15Z</time>
      </trkpt>
      <trkpt lat="45.82807" lon="1.18746">
        <ele>299.5</ele>
        <time>2024-10-21T09:34:16Z</time>
      </trkpt>
      <trkpt lat="45.82807" lon="1.18747">
        <ele>299.4</ele>
        <time>2024-10-21T09:34:17Z</time>
      </trkpt>
      <trkpt lat="45.82807" lon="1.18749">
        <ele>299.2</ele>
        <time>2024-10-21T09:34:18Z</time>
      </trkpt>
      <trkpt lat="45.82807" lon="1.1875">
        <ele>299.1</ele>
        <time>2024-10-21T09:34:19Z</time>
      </trkpt>
      <trkpt lat="45.82807" lon="1.18752">
        <ele>298.9</ele>
        <time>2024-10-21T09:34:20Z</time>
      </trkpt>
      <trkpt lat="45.82807" lon="1.18753">
        <ele>298.8</ele>
        <time>2024-10-21T09:34:21Z</time>
      </trkpt>
      <trkpt lat="45.82806" lon="1.18754">
        <ele>298.7</ele>
        <time>2024-10-21T09:34:22Z</time>
      </trkpt>
      <trkpt lat="45.82806" lon="1.18754">
        <ele>298.7</ele>
        <time>2024-10-21T09:34:23Z</time>
      </trkpt>
      <trkpt lat="45.82806" lon="1.18756">
        <ele>298.5</ele>
        <time>2024-10-21T09:34:24Z</time>
      </trkpt>
      <trkpt lat="45.82806" lon="1.18757">
        <ele>298.4</ele>
        <time>2024-10-21T09:34:25Z</time>
      </trkpt>
      <trkpt lat="45.82806" lon="1.18758">
        <ele>298.2</ele>
        <time>2024-10-21T09:34:26Z</time>
      </trkpt>
      <trkpt lat="45.82806" lon="1.1876">
        <ele>298</ele>
        <time>2024-10-21T09:34:27Z</time>
      </trkpt>
      <trkpt lat="45.82806" lon="1.18762">
        <ele>297.9</ele>
        <time>2024-10-21T09:34:28Z</time>
      </trkpt>
      <trkpt lat="45.82806" lon="1.18764">
        <ele>297.7</ele>
        <time>2024-10-21T09:34:29Z</time>
      </trkpt>
      <trkpt lat="45.82806" lon="1.18766">
        <ele>297.5</ele>
        <time>2024-10-21T09:34:30Z</time>
      </trkpt>
      <trkpt lat="45.82804" lon="1.18765">
        <ele>297.3</ele>
        <time>2024-10-21T09:34:31Z</time>
      </trkpt>
      <trkpt lat="45.82803" lon="1.18765">
        <ele>297.1</ele>
        <time>2024-10-21T09:34:32Z</time>
      </trkpt>
      <trkpt lat="45.82803" lon="1.18766">
        <ele>297</ele>
        <time>2024-10-21T09:34:33Z</time>
      </trkpt>
      <trkpt lat="45.82802" lon="1.18767">
        <ele>296.9</ele>
        <time>2024-10-21T09:34:34Z</time>
      </trkpt>
      <trkpt lat="45.82802" lon="1.18768">
        <ele>296.8</ele>
        <time>2024-10-21T09:34:35Z</time>
      </trkpt>
      <trkpt lat="45.82802" lon="1.18769">
        <ele>296.7</ele>
        <time>2024-10-21T09:34:36Z</time>
      </trkpt>
      <trkpt lat="45.82802" lon="1.18769">
        <ele>296.6</ele>
        <time>2024-10-21T09:34:37Z</time>
      </trkpt>
      <trkpt lat="45.82802" lon="1.18772">
        <ele>296.4</ele>
        <time>2024-10-21T09:34:38Z</time>
      </trkpt>
      <trkpt lat="45.82802" lon="1.18774">
        <ele>296.2</ele>
        <time>2024-10-21T09:34:39Z</time>
      </trkpt>
      <trkpt lat="45.82802" lon="1.18777">
        <ele>295.9</ele>
        <time>2024-10-21T09:34:40Z</time>
      </trkpt>
      <trkpt lat="45.82802" lon="1.18778">
        <ele>295.7</ele>
        <time>2024-10-21T09:34:41Z</time>
      </trkpt>
      <trkpt lat="45.82802" lon="1.18781">
        <ele>295.4</ele>
        <time>2024-10-21T09:34:42Z</time>
      </trkpt>
      <trkpt lat="45.82802" lon="1.18782">
        <ele>295.3</ele>
        <time>2024-10-21T09:34:43Z</time>
      </trkpt>
      <trkpt lat="45.82802" lon="1.18783">
        <ele>295.2</ele>
        <time>2024-10-21T09:34:44Z</time>
      </trkpt>
      <trkpt lat="45.82802" lon="1.18786">
        <ele>294.9</ele>
        <time>2024-10-21T09:34:45Z</time>
      </trkpt>
      <trkpt lat="45.82802" lon="1.18788">
        <ele>294.8</ele>
        <time>2024-10-21T09:34:46Z</time>
      </trkpt>
      <trkpt lat="45.82802" lon="1.18789">
        <ele>294.7</ele>
        <time>2024-10-21T09:34:47Z</time>
      </trkpt>
      <trkpt lat="45.82802" lon="1.18792">
        <ele>294.4</ele>
        <time>2024-10-21T09:34:48Z</time>
      </trkpt>
      <trkpt lat="45.82803" lon="1.18793">
        <ele>294.3</ele>
        <time>2024-10-21T09:34:49Z</time>
      </trkpt>
      <trkpt lat="45.82803" lon="1.18794">
        <ele>294.2</ele>
        <time>2024-10-21T09:34:50Z</time>
      </trkpt>
      <trkpt lat="45.82803" lon="1.18795">
        <ele>294.1</ele>
        <time>2024-10-21T09:34:51Z</time>
      </trkpt>
      <trkpt lat="45.82803" lon="1.18797">
        <ele>293.9</ele>
        <time>2024-10-21T09:34:52Z</time>
      </trkpt>
      <trkpt lat="45.82803" lon="1.18798">
        <ele>293.8</ele>
        <time>2024-10-21T09:34:53Z</time>
      </trkpt>
      <trkpt lat="45.82803" lon="1.18801">
        <ele>293.5</ele>
        <time>2024-10-21T09:34:54Z</time>
      </trkpt>
      <trkpt lat="45.82803" lon="1.18801">
        <ele>293.5</ele>
        <time>2024-10-21T09:34:55Z</time>
      </trkpt>
      <trkpt lat="45.82803" lon="1.18805">
        <ele>293.3</ele>
        <time>2024-10-21T09:34:56Z</time>
      </trkpt>
      <trkpt lat="45.82804" lon="1.18806">
        <ele>293.2</ele>
        <time>2024-10-21T09:34:57Z</time>
      </trkpt>
      <trkpt lat="45.82804" lon="1.18807">
        <ele>293.1</ele>
        <time>2024-10-21T09:34:58Z</time>
      </trkpt>
      <trkpt lat="45.82804" lon="1.18808">
        <ele>293</ele>
        <time>2024-10-21T09:34:59Z</time>
      </trkpt>
      <trkpt lat="45.82805" lon="1.1881">
        <ele>292.8</ele>
        <time>2024-10-21T09:35:00Z</time>
      </trkpt>
      <trkpt lat="45.82806" lon="1.18811">
        <ele>292.7</ele>
        <time>2024-10-21T09:35:01Z</time>
      </trkpt>
      <trkpt lat="45.82807" lon="1.18812">
        <ele>292.6</ele>
        <time>2024-10-21T09:35:02Z</time>
      </trkpt>
      <trkpt lat="45.82807" lon="1.18814">
        <ele>292.4</ele>
        <time>2024-10-21T09:35:03Z</time>
      </trkpt>
      <trkpt lat="45.82807" lon="1.18816">
        <ele>292.3</ele>
        <time>2024-10-21T09:35:04Z</time>
      </trkpt>
      <trkpt lat="45.82808" lon="1.18817">
        <ele>292.2</ele>
        <time>2024-10-21T09:35:05Z</time>
      </trkpt>
      <trkpt lat="45.82807" lon="1.1882">
        <ele>292</ele>
        <time>2024-10-21T09:35:06Z</time>
      </trkpt>
      <trkpt lat="45.82806" lon="1.18821">
        <ele>291.9</ele>
        <time>2024-10-21T09:35:07Z</time>
      </trkpt>
      <trkpt lat="45.82805" lon="1.18822">
        <ele>291.8</ele>
        <time>2024-10-21T09:35:08Z</time>
      </trkpt>
      <trkpt lat="45.82805" lon="1.18824">
        <ele>291.6</ele>
        <time>2024-10-21T09:35:09Z</time>
      </trkpt>
      <trkpt lat="45.82804" lon="1.18826">
        <ele>291.4</ele>
        <time>2024-10-21T09:35:10Z</time>
      </trkpt>
      <trkpt lat="45.82803" lon="1.18829">
        <ele>291.2</ele>
        <time>2024-10-21T09:35:11Z</time>
      </trkpt>
      <trkpt lat="45.82802" lon="1.18831">
        <ele>291</ele>
        <time>2024-10-21T09:35:12Z</time>
      </trkpt>
      <trkpt lat="45.82801" lon="1.18832">
        <ele>290.8</ele>
        <time>2024-10-21T09:35:13Z</time>
      </trkpt>
      <trkpt lat="45.82801" lon="1.18834">
        <ele>290.6</ele>
        <time>2024-10-21T09:35:14Z</time>
      </trkpt>
      <trkpt lat="45.828" lon="1.18837">
        <ele>290.4</ele>
        <time>2024-10-21T09:35:15Z</time>
      </trkpt>
      <trkpt lat="45.828" lon="1.18838">
        <ele>290.3</ele>
        <time>2024-10-21T09:35:16Z</time>
      </trkpt>
      <trkpt lat="45.82799" lon="1.18842">
        <ele>290</ele>
        <time>2024-10-21T09:35:17Z</time>
      </trkpt>
      <trkpt lat="45.82798" lon="1.18843">
        <ele>289.8</ele>
        <time>2024-10-21T09:35:18Z</time>
      </trkpt>
      <trkpt lat="45.82798" lon="1.18845">
        <ele>289.7</ele>
        <time>2024-10-21T09:35:19Z</time>
      </trkpt>
      <trkpt lat="45.82798" lon="1.18845">
        <ele>289.7</ele>
        <time>2024-10-21T09:35:20Z</time>
      </trkpt>
      <trkpt lat="45.82798" lon="1.18845">
        <ele>289.7</ele>
        <time>2024-10-21T09:35:21Z</time>
      </trkpt>
      <trkpt lat="45.82797" lon="1.18846">
        <ele>289.6</ele>
        <time>2024-10-21T09:35:22Z</time>
      </trkpt>
      <trkpt lat="45.82797" lon="1.18848">
        <ele>289.5</ele>
        <time>2024-10-21T09:35:23Z</time>
      </trkpt>
      <trkpt lat="45.82796" lon="1.18849">
        <ele>289.3</ele>
        <time>2024-10-21T09:35:24Z</time>
      </trkpt>
      <trkpt lat="45.82796" lon="1.1885">
        <ele>289.2</ele>
        <time>2024-10-21T09:35:25Z</time>
      </trkpt>
      <trkpt lat="45.82795" lon="1.18851">
        <ele>289.1</ele>
        <time>2024-10-21T09:35:26Z</time>
      </trkpt>
      <trkpt lat="45.82795" lon="1.18853">
        <ele>289</ele>
        <time>2024-10-21T09:35:27Z</time>
      </trkpt>
      <trkpt lat="45.82794" lon="1.18853">
        <ele>289</ele>
        <time>2024-10-21T09:35:28Z</time>
      </trkpt>
      <trkpt lat="45.82794" lon="1.18854">
        <ele>288.9</ele>
        <time>2024-10-21T09:35:29Z</time>
      </trkpt>
      <trkpt lat="45.82793" lon="1.18855">
        <ele>288.9</ele>
        <time>2024-10-21T09:35:30Z</time>
      </trkpt>
      <trkpt lat="45.82792" lon="1.18856">
        <ele>288.8</ele>
        <time>2024-10-21T09:35:31Z</time>
      </trkpt>
      <trkpt lat="45.82791" lon="1.18857">
        <ele>288.8</ele>
        <time>2024-10-21T09:35:32Z</time>
      </trkpt>
      <trkpt lat="45.82791" lon="1.18858">
        <ele>288.7</ele>
        <time>2024-10-21T09:35:33Z</time>
      </trkpt>
      <trkpt lat="45.82789" lon="1.1886">
        <ele>288.6</ele>
        <time>2024-10-21T09:35:34Z</time>
      </trkpt>
      <trkpt lat="45.82788" lon="1.18861">
        <ele>288.6</ele>
        <time>2024-10-21T09:35:35Z</time>
      </trkpt>
      <trkpt lat="45.82788" lon="1.18861">
        <ele>288.5</ele>
        <time>2024-10-21T09:35:36Z</time>
      </trkpt>
      <trkpt lat="45.82787" lon="1.18863">
        <ele>288.5</ele>
        <time>2024-10-21T09:35:37Z</time>
      </trkpt>
      <trkpt lat="45.82785" lon="1.18866">
        <ele>288.3</ele>
        <time>2024-10-21T09:35:38Z</time>
      </trkpt>
      <trkpt lat="45.82785" lon="1.18868">
        <ele>288.3</ele>
        <time>2024-10-21T09:35:39Z</time>
      </trkpt>
      <trkpt lat="45.82784" lon="1.1887">
        <ele>288.2</ele>
        <time>2024-10-21T09:35:40Z</time>
      </trkpt>
      <trkpt lat="45.82783" lon="1.18872">
        <ele>288.2</ele>
        <time>2024-10-21T09:35:41Z</time>
      </trkpt>
      <trkpt lat="45.82783" lon="1.18873">
        <ele>288.1</ele>
        <time>2024-10-21T09:35:42Z</time>
      </trkpt>
      <trkpt lat="45.82782" lon="1.18874">
        <ele>288.1</ele>
        <time>2024-10-21T09:35:43Z</time>
      </trkpt>
      <trkpt lat="45.8278" lon="1.18878">
        <ele>288</ele>
        <time>2024-10-21T09:35:44Z</time>
      </trkpt>
      <trkpt lat="45.8278" lon="1.18878">
        <ele>288</ele>
        <time>2024-10-21T09:35:45Z</time>
      </trkpt>
      <trkpt lat="45.82779" lon="1.1888">
        <ele>288</ele>
        <time>2024-10-21T09:35:47Z</time>
      </trkpt>
      <trkpt lat="45.82779" lon="1.18881">
        <ele>288</ele>
        <time>2024-10-21T09:35:48Z</time>
      </trkpt>
      <trkpt lat="45.82779" lon="1.18882">
        <ele>288</ele>
        <time>2024-10-21T09:35:49Z</time>
      </trkpt>
      <trkpt lat="45.82779" lon="1.18884">
        <ele>288</ele>
        <time>2024-10-21T09:35:50Z</time>
      </trkpt>
      <trkpt lat="45.82779" lon="1.18885">
        <ele>287.9</ele>
        <time>2024-10-21T09:35:51Z</time>
      </trkpt>
      <trkpt lat="45.82779" lon="1.18886">
        <ele>287.9</ele>
        <time>2024-10-21T09:35:52Z</time>
      </trkpt>
      <trkpt lat="45.82779" lon="1.18886">
        <ele>287.9</ele>
        <time>2024-10-21T09:35:53Z</time>
      </trkpt>
      <trkpt lat="45.82779" lon="1.18887">
        <ele>287.9</ele>
        <time>2024-10-21T09:35:54Z</time>
      </trkpt>
      <trkpt lat="45.82778" lon="1.1889">
        <ele>287.9</ele>
        <time>2024-10-21T09:35:55Z</time>
      </trkpt>
      <trkpt lat="45.82778" lon="1.1889">
        <ele>287.9</ele>
        <time>2024-10-21T09:35:56Z</time>
      </trkpt>
      <trkpt lat="45.82776" lon="1.18892">
        <ele>287.9</ele>
        <time>2024-10-21T09:35:57Z</time>
      </trkpt>
      <trkpt lat="45.82776" lon="1.18893">
        <ele>287.9</ele>
        <time>2024-10-21T09:35:58Z</time>
      </trkpt>
      <trkpt lat="45.82775" lon="1.18894">
        <ele>287.9</ele>
        <time>2024-10-21T09:35:59Z</time>
      </trkpt>
      <trkpt lat="45.82775" lon="1.18895">
        <ele>287.9</ele>
        <time>2024-10-21T09:36:00Z</time>
      </trkpt>
      <trkpt lat="45.82774" lon="1.18896">
        <ele>287.9</ele>
        <time>2024-10-21T09:36:01Z</time>
      </trkpt>
      <trkpt lat="45.82773" lon="1.18897">
        <ele>287.9</ele>
        <time>2024-10-21T09:36:02Z</time>
      </trkpt>
      <trkpt lat="45.82772" lon="1.18899">
        <ele>288</ele>
        <time>2024-10-21T09:36:03Z</time>
      </trkpt>
      <trkpt lat="45.8277" lon="1.189">
        <ele>288</ele>
        <time>2024-10-21T09:36:04Z</time>
      </trkpt>
      <trkpt lat="45.82769" lon="1.18901">
        <ele>288</ele>
        <time>2024-10-21T09:36:05Z</time>
      </trkpt>
      <trkpt lat="45.82768" lon="1.18902">
        <ele>288</ele>
        <time>2024-10-21T09:36:06Z</time>
      </trkpt>
      <trkpt lat="45.82766" lon="1.18902">
        <ele>288</ele>
        <time>2024-10-21T09:36:07Z</time>
      </trkpt>
      <trkpt lat="45.82762" lon="1.18903">
        <ele>288.1</ele>
        <time>2024-10-21T09:36:08Z</time>
      </trkpt>
      <trkpt lat="45.8276" lon="1.18903">
        <ele>288.1</ele>
        <time>2024-10-21T09:36:09Z</time>
      </trkpt>
      <trkpt lat="45.82756" lon="1.18902">
        <ele>288.2</ele>
        <time>2024-10-21T09:36:11Z</time>
      </trkpt>
      <trkpt lat="45.82753" lon="1.18903">
        <ele>288.2</ele>
        <time>2024-10-21T09:36:12Z</time>
      </trkpt>
      <trkpt lat="45.82749" lon="1.18904">
        <ele>288.3</ele>
        <time>2024-10-21T09:36:13Z</time>
      </trkpt>
      <trkpt lat="45.82748" lon="1.18904">
        <ele>288.3</ele>
        <time>2024-10-21T09:36:14Z</time>
      </trkpt>
      <trkpt lat="45.82745" lon="1.18907">
        <ele>288.3</ele>
        <time>2024-10-21T09:36:15Z</time>
      </trkpt>
      <trkpt lat="45.82745" lon="1.18908">
        <ele>288.3</ele>
        <time>2024-10-21T09:36:16Z</time>
      </trkpt>
      <trkpt lat="45.82743" lon="1.18909">
        <ele>288.2</ele>
        <time>2024-10-21T09:36:17Z</time>
      </trkpt>
      <trkpt lat="45.82742" lon="1.1891">
        <ele>288.2</ele>
        <time>2024-10-21T09:36:18Z</time>
      </trkpt>
      <trkpt lat="45.82741" lon="1.18911">
        <ele>288.2</ele>
        <time>2024-10-21T09:36:19Z</time>
      </trkpt>
      <trkpt lat="45.8274" lon="1.18913">
        <ele>288.2</ele>
        <time>2024-10-21T09:36:20Z</time>
      </trkpt>
      <trkpt lat="45.82739" lon="1.18915">
        <ele>288.2</ele>
        <time>2024-10-21T09:36:21Z</time>
      </trkpt>
      <trkpt lat="45.82739" lon="1.18916">
        <ele>288.1</ele>
        <time>2024-10-21T09:36:22Z</time>
      </trkpt>
      <trkpt lat="45.82738" lon="1.18918">
        <ele>288.1</ele>
        <time>2024-10-21T09:36:23Z</time>
      </trkpt>
      <trkpt lat="45.82737" lon="1.1892">
        <ele>288</ele>
        <time>2024-10-21T09:36:24Z</time>
      </trkpt>
      <trkpt lat="45.82736" lon="1.18921">
        <ele>288</ele>
        <time>2024-10-21T09:36:25Z</time>
      </trkpt>
      <trkpt lat="45.82736" lon="1.18922">
        <ele>288</ele>
        <time>2024-10-21T09:36:26Z</time>
      </trkpt>
      <trkpt lat="45.82735" lon="1.18923">
        <ele>287.9</ele>
        <time>2024-10-21T09:36:27Z</time>
      </trkpt>
      <trkpt lat="45.82735" lon="1.18924">
        <ele>287.9</ele>
        <time>2024-10-21T09:36:28Z</time>
      </trkpt>
      <trkpt lat="45.82733" lon="1.18926">
        <ele>287.8</ele>
        <time>2024-10-21T09:36:29Z</time>
      </trkpt>
      <trkpt lat="45.82733" lon="1.18927">
        <ele>287.8</ele>
        <time>2024-10-21T09:36:30Z</time>
      </trkpt>
      <trkpt lat="45.82733" lon="1.18927">
        <ele>287.8</ele>
        <time>2024-10-21T09:36:31Z</time>
      </trkpt>
      <trkpt lat="45.82732" lon="1.18928">
        <ele>287.8</ele>
        <time>2024-10-21T09:36:32Z</time>
      </trkpt>
      <trkpt lat="45.82731" lon="1.18929">
        <ele>287.7</ele>
        <time>2024-10-21T09:36:33Z</time>
      </trkpt>
      <trkpt lat="45.82731" lon="1.18929">
        <ele>287.7</ele>
        <time>2024-10-21T09:36:34Z</time>
      </trkpt>
      <trkpt lat="45.8273" lon="1.18931">
        <ele>287.6</ele>
        <time>2024-10-21T09:36:35Z</time>
      </trkpt>
      <trkpt lat="45.82728" lon="1.1893">
        <ele>287.4</ele>
        <time>2024-10-21T09:36:36Z</time>
      </trkpt>
      <trkpt lat="45.82727" lon="1.18928">
        <ele>287.3</ele>
        <time>2024-10-21T09:36:37Z</time>
      </trkpt>
      <trkpt lat="45.82726" lon="1.18927">
        <ele>287.2</ele>
        <time>2024-10-21T09:36:38Z</time>
      </trkpt>
      <trkpt lat="45.82726" lon="1.18924">
        <ele>286.9</ele>
        <time>2024-10-21T09:36:39Z</time>
      </trkpt>
      <trkpt lat="45.82725" lon="1.18923">
        <ele>286.8</ele>
        <time>2024-10-21T09:36:40Z</time>
      </trkpt>
      <trkpt lat="45.82722" lon="1.18922">
        <ele>286.5</ele>
        <time>2024-10-21T09:36:41Z</time>
      </trkpt>
      <trkpt lat="45.82721" lon="1.18922">
        <ele>286.3</ele>
        <time>2024-10-21T09:36:42Z</time>
      </trkpt>
      <trkpt lat="45.82717" lon="1.18924">
        <ele>286</ele>
        <time>2024-10-21T09:36:43Z</time>
      </trkpt>
      <trkpt lat="45.82716" lon="1.18924">
        <ele>285.8</ele>
        <time>2024-10-21T09:36:44Z</time>
      </trkpt>
      <trkpt lat="45.82715" lon="1.18925">
        <ele>285.7</ele>
        <time>2024-10-21T09:36:45Z</time>
      </trkpt>
      <trkpt lat="45.82713" lon="1.18925">
        <ele>285.5</ele>
        <time>2024-10-21T09:36:46Z</time>
      </trkpt>
      <trkpt lat="45.82711" lon="1.18925">
        <ele>285.3</ele>
        <time>2024-10-21T09:36:47Z</time>
      </trkpt>
      <trkpt lat="45.8271" lon="1.18925">
        <ele>285.2</ele>
        <time>2024-10-21T09:36:48Z</time>
      </trkpt>
      <trkpt lat="45.82709" lon="1.18925">
        <ele>285.1</ele>
        <time>2024-10-21T09:36:49Z</time>
      </trkpt>
      <trkpt lat="45.82708" lon="1.18925">
        <ele>285</ele>
        <time>2024-10-21T09:36:50Z</time>
      </trkpt>
      <trkpt lat="45.82707" lon="1.18925">
        <ele>284.8</ele>
        <time>2024-10-21T09:36:51Z</time>
      </trkpt>
      <trkpt lat="45.82706" lon="1.18926">
        <ele>284.7</ele>
        <time>2024-10-21T09:36:52Z</time>
      </trkpt>
      <trkpt lat="45.82705" lon="1.18927">
        <ele>284.5</ele>
        <time>2024-10-21T09:36:53Z</time>
      </trkpt>
      <trkpt lat="45.82704" lon="1.18928">
        <ele>284.5</ele>
        <time>2024-10-21T09:36:54Z</time>
      </trkpt>
      <trkpt lat="45.82704" lon="1.18928">
        <ele>284.4</ele>
        <time>2024-10-21T09:36:55Z</time>
      </trkpt>
      <trkpt lat="45.82703" lon="1.18928">
        <ele>284.3</ele>
        <time>2024-10-21T09:36:56Z</time>
      </trkpt>
      <trkpt lat="45.82702" lon="1.18929">
        <ele>284.2</ele>
        <time>2024-10-21T09:36:57Z</time>
      </trkpt>
      <trkpt lat="45.82701" lon="1.18929">
        <ele>284.1</ele>
        <time>2024-10-21T09:36:58Z</time>
      </trkpt>
      <trkpt lat="45.82699" lon="1.18929">
        <ele>283.9</ele>
        <time>2024-10-21T09:36:59Z</time>
      </trkpt>
      <trkpt lat="45.82698" lon="1.18929">
        <ele>283.8</ele>
        <time>2024-10-21T09:37:00Z</time>
      </trkpt>
      <trkpt lat="45.82696" lon="1.1893">
        <ele>283.6</ele>
        <time>2024-10-21T09:37:01Z</time>
      </trkpt>
      <trkpt lat="45.82694" lon="1.1893">
        <ele>283.2</ele>
        <time>2024-10-21T09:37:02Z</time>
      </trkpt>
      <trkpt lat="45.8269" lon="1.18931">
        <ele>282.8</ele>
        <time>2024-10-21T09:37:03Z</time>
      </trkpt>
      <trkpt lat="45.82689" lon="1.18931">
        <ele>282.7</ele>
        <time>2024-10-21T09:37:04Z</time>
      </trkpt>
      <trkpt lat="45.82685" lon="1.18932">
        <ele>282.3</ele>
        <time>2024-10-21T09:37:05Z</time>
      </trkpt>
      <trkpt lat="45.82684" lon="1.18933">
        <ele>282.2</ele>
        <time>2024-10-21T09:37:06Z</time>
      </trkpt>
      <trkpt lat="45.82683" lon="1.18934">
        <ele>282.1</ele>
        <time>2024-10-21T09:37:07Z</time>
      </trkpt>
      <trkpt lat="45.82681" lon="1.18935">
        <ele>281.9</ele>
        <time>2024-10-21T09:37:08Z</time>
      </trkpt>
      <trkpt lat="45.8268" lon="1.18936">
        <ele>281.7</ele>
        <time>2024-10-21T09:37:09Z</time>
      </trkpt>
      <trkpt lat="45.82679" lon="1.18937">
        <ele>281.6</ele>
        <time>2024-10-21T09:37:10Z</time>
      </trkpt>
      <trkpt lat="45.82677" lon="1.18938">
        <ele>281.5</ele>
        <time>2024-10-21T09:37:11Z</time>
      </trkpt>
      <trkpt lat="45.82676" lon="1.1894">
        <ele>281.3</ele>
        <time>2024-10-21T09:37:12Z</time>
      </trkpt>
      <trkpt lat="45.82675" lon="1.18941">
        <ele>281.2</ele>
        <time>2024-10-21T09:37:13Z</time>
      </trkpt>
      <trkpt lat="45.82675" lon="1.18943">
        <ele>281.1</ele>
        <time>2024-10-21T09:37:14Z</time>
      </trkpt>
      <trkpt lat="45.82674" lon="1.18945">
        <ele>281</ele>
        <time>2024-10-21T09:37:15Z</time>
      </trkpt>
      <trkpt lat="45.82674" lon="1.18947">
        <ele>280.8</ele>
        <time>2024-10-21T09:37:16Z</time>
      </trkpt>
      <trkpt lat="45.82675" lon="1.18949">
        <ele>280.7</ele>
        <time>2024-10-21T09:37:17Z</time>
      </trkpt>
      <trkpt lat="45.82675" lon="1.18951">
        <ele>280.6</ele>
        <time>2024-10-21T09:37:18Z</time>
      </trkpt>
      <trkpt lat="45.82676" lon="1.18953">
        <ele>280.5</ele>
        <time>2024-10-21T09:37:19Z</time>
      </trkpt>
      <trkpt lat="45.82676" lon="1.18955">
        <ele>280.4</ele>
        <time>2024-10-21T09:37:20Z</time>
      </trkpt>
      <trkpt lat="45.82677" lon="1.18957">
        <ele>280.3</ele>
        <time>2024-10-21T09:37:21Z</time>
      </trkpt>
      <trkpt lat="45.82677" lon="1.18958">
        <ele>280.2</ele>
        <time>2024-10-21T09:37:22Z</time>
      </trkpt>
      <trkpt lat="45.82676" lon="1.1896">
        <ele>280.1</ele>
        <time>2024-10-21T09:37:23Z</time>
      </trkpt>
      <trkpt lat="45.82676" lon="1.18962">
        <ele>280</ele>
        <time>2024-10-21T09:37:24Z</time>
      </trkpt>
      <trkpt lat="45.82677" lon="1.18964">
        <ele>279.9</ele>
        <time>2024-10-21T09:37:25Z</time>
      </trkpt>
      <trkpt lat="45.82678" lon="1.18965">
        <ele>279.8</ele>
        <time>2024-10-21T09:37:26Z</time>
      </trkpt>
      <trkpt lat="45.82678" lon="1.18967">
        <ele>279.7</ele>
        <time>2024-10-21T09:37:27Z</time>
      </trkpt>
      <trkpt lat="45.82679" lon="1.18968">
        <ele>279.7</ele>
        <time>2024-10-21T09:37:28Z</time>
      </trkpt>
      <trkpt lat="45.8268" lon="1.1897">
        <ele>279.5</ele>
        <time>2024-10-21T09:37:29Z</time>
      </trkpt>
      <trkpt lat="45.82681" lon="1.18972">
        <ele>279.5</ele>
        <time>2024-10-21T09:37:30Z</time>
      </trkpt>
      <trkpt lat="45.82682" lon="1.18974">
        <ele>279.4</ele>
        <time>2024-10-21T09:37:31Z</time>
      </trkpt>
      <trkpt lat="45.82682" lon="1.18976">
        <ele>279.3</ele>
        <time>2024-10-21T09:37:32Z</time>
      </trkpt>
      <trkpt lat="45.82682" lon="1.18978">
        <ele>279.2</ele>
        <time>2024-10-21T09:37:33Z</time>
      </trkpt>
      <trkpt lat="45.82683" lon="1.18981">
        <ele>279</ele>
        <time>2024-10-21T09:37:34Z</time>
      </trkpt>
      <trkpt lat="45.82683" lon="1.18983">
        <ele>279</ele>
        <time>2024-10-21T09:37:35Z</time>
      </trkpt>
      <trkpt lat="45.82683" lon="1.18985">
        <ele>278.9</ele>
        <time>2024-10-21T09:37:36Z</time>
      </trkpt>
      <trkpt lat="45.82683" lon="1.18987">
        <ele>278.8</ele>
        <time>2024-10-21T09:37:37Z</time>
      </trkpt>
      <trkpt lat="45.82684" lon="1.18989">
        <ele>278.7</ele>
        <time>2024-10-21T09:37:38Z</time>
      </trkpt>
      <trkpt lat="45.82684" lon="1.18992">
        <ele>278.6</ele>
        <time>2024-10-21T09:37:39Z</time>
      </trkpt>
      <trkpt lat="45.82685" lon="1.18994">
        <ele>278.5</ele>
        <time>2024-10-21T09:37:40Z</time>
      </trkpt>
      <trkpt lat="45.82685" lon="1.18996">
        <ele>278.4</ele>
        <time>2024-10-21T09:37:41Z</time>
      </trkpt>
      <trkpt lat="45.82686" lon="1.18998">
        <ele>278.3</ele>
        <time>2024-10-21T09:37:42Z</time>
      </trkpt>
      <trkpt lat="45.82686" lon="1.19">
        <ele>278.3</ele>
        <time>2024-10-21T09:37:43Z</time>
      </trkpt>
      <trkpt lat="45.82687" lon="1.19002">
        <ele>278.2</ele>
        <time>2024-10-21T09:37:44Z</time>
      </trkpt>
      <trkpt lat="45.82688" lon="1.19005">
        <ele>278.1</ele>
        <time>2024-10-21T09:37:45Z</time>
      </trkpt>
      <trkpt lat="45.82688" lon="1.19006">
        <ele>278</ele>
        <time>2024-10-21T09:37:46Z</time>
      </trkpt>
      <trkpt lat="45.82688" lon="1.19007">
        <ele>278</ele>
        <time>2024-10-21T09:37:47Z</time>
      </trkpt>
      <trkpt lat="45.82689" lon="1.19011">
        <ele>277.8</ele>
        <time>2024-10-21T09:37:48Z</time>
      </trkpt>
      <trkpt lat="45.82689" lon="1.19013">
        <ele>277.7</ele>
        <time>2024-10-21T09:37:49Z</time>
      </trkpt>
      <trkpt lat="45.8269" lon="1.19015">
        <ele>277.6</ele>
        <time>2024-10-21T09:37:51Z</time>
      </trkpt>
      <trkpt lat="45.8269" lon="1.19017">
        <ele>277.6</ele>
        <time>2024-10-21T09:37:52Z</time>
      </trkpt>
      <trkpt lat="45.82691" lon="1.19019">
        <ele>277.5</ele>
        <time>2024-10-21T09:37:53Z</time>
      </trkpt>
      <trkpt lat="45.82691" lon="1.19021">
        <ele>277.4</ele>
        <time>2024-10-21T09:37:54Z</time>
      </trkpt>
      <trkpt lat="45.82691" lon="1.19023">
        <ele>277.3</ele>
        <time>2024-10-21T09:37:55Z</time>
      </trkpt>
      <trkpt lat="45.82692" lon="1.19025">
        <ele>277.2</ele>
        <time>2024-10-21T09:37:56Z</time>
      </trkpt>
      <trkpt lat="45.82692" lon="1.19027">
        <ele>277.1</ele>
        <time>2024-10-21T09:37:57Z</time>
      </trkpt>
      <trkpt lat="45.82692" lon="1.19029">
        <ele>277.1</ele>
        <time>2024-10-21T09:37:58Z</time>
      </trkpt>
      <trkpt lat="45.82693" lon="1.19031">
        <ele>277</ele>
        <time>2024-10-21T09:37:59Z</time>
      </trkpt>
      <trkpt lat="45.82693" lon="1.19034">
        <ele>276.8</ele>
        <time>2024-10-21T09:38:00Z</time>
      </trkpt>
      <trkpt lat="45.82693" lon="1.19036">
        <ele>276.8</ele>
        <time>2024-10-21T09:38:01Z</time>
      </trkpt>
      <trkpt lat="45.82693" lon="1.19037">
        <ele>276.7</ele>
        <time>2024-10-21T09:38:02Z</time>
      </trkpt>
      <trkpt lat="45.82693" lon="1.19039">
        <ele>276.6</ele>
        <time>2024-10-21T09:38:03Z</time>
      </trkpt>
      <trkpt lat="45.82693" lon="1.19041">
        <ele>276.5</ele>
        <time>2024-10-21T09:38:04Z</time>
      </trkpt>
      <trkpt lat="45.82693" lon="1.19043">
        <ele>276.4</ele>
        <time>2024-10-21T09:38:05Z</time>
      </trkpt>
      <trkpt lat="45.82693" lon="1.19045">
        <ele>276.4</ele>
        <time>2024-10-21T09:38:06Z</time>
      </trkpt>
      <trkpt lat="45.82693" lon="1.19047">
        <ele>276.3</ele>
        <time>2024-10-21T09:38:07Z</time>
      </trkpt>
      <trkpt lat="45.82693" lon="1.19049">
        <ele>276.1</ele>
        <time>2024-10-21T09:38:08Z</time>
      </trkpt>
      <trkpt lat="45.82693" lon="1.19051">
        <ele>276.1</ele>
        <time>2024-10-21T09:38:09Z</time>
      </trkpt>
      <trkpt lat="45.82692" lon="1.19052">
        <ele>276</ele>
        <time>2024-10-21T09:38:10Z</time>
      </trkpt>
      <trkpt lat="45.82692" lon="1.19054">
        <ele>275.9</ele>
        <time>2024-10-21T09:38:11Z</time>
      </trkpt>
      <trkpt lat="45.82692" lon="1.19056">
        <ele>275.8</ele>
        <time>2024-10-21T09:38:12Z</time>
      </trkpt>
      <trkpt lat="45.82691" lon="1.19058">
        <ele>275.7</ele>
        <time>2024-10-21T09:38:13Z</time>
      </trkpt>
      <trkpt lat="45.82691" lon="1.1906">
        <ele>275.6</ele>
        <time>2024-10-21T09:38:14Z</time>
      </trkpt>
      <trkpt lat="45.8269" lon="1.19063">
        <ele>275.4</ele>
        <time>2024-10-21T09:38:15Z</time>
      </trkpt>
      <trkpt lat="45.8269" lon="1.19064">
        <ele>275.4</ele>
        <time>2024-10-21T09:38:16Z</time>
      </trkpt>
      <trkpt lat="45.82689" lon="1.19065">
        <ele>275.3</ele>
        <time>2024-10-21T09:38:17Z</time>
      </trkpt>
      <trkpt lat="45.82689" lon="1.19067">
        <ele>275.2</ele>
        <time>2024-10-21T09:38:18Z</time>
      </trkpt>
      <trkpt lat="45.82688" lon="1.19069">
        <ele>275.1</ele>
        <time>2024-10-21T09:38:19Z</time>
      </trkpt>
      <trkpt lat="45.82687" lon="1.19072">
        <ele>274.9</ele>
        <time>2024-10-21T09:38:20Z</time>
      </trkpt>
      <trkpt lat="45.82687" lon="1.19073">
        <ele>274.8</ele>
        <time>2024-10-21T09:38:21Z</time>
      </trkpt>
      <trkpt lat="45.82687" lon="1.19074">
        <ele>274.8</ele>
        <time>2024-10-21T09:38:22Z</time>
      </trkpt>
      <trkpt lat="45.82686" lon="1.19076">
        <ele>274.7</ele>
        <time>2024-10-21T09:38:23Z</time>
      </trkpt>
      <trkpt lat="45.82685" lon="1.19078">
        <ele>274.5</ele>
        <time>2024-10-21T09:38:24Z</time>
      </trkpt>
      <trkpt lat="45.82685" lon="1.1908">
        <ele>274.4</ele>
        <time>2024-10-21T09:38:25Z</time>
      </trkpt>
      <trkpt lat="45.82684" lon="1.19082">
        <ele>274.3</ele>
        <time>2024-10-21T09:38:26Z</time>
      </trkpt>
      <trkpt lat="45.82683" lon="1.19083">
        <ele>274.2</ele>
        <time>2024-10-21T09:38:27Z</time>
      </trkpt>
      <trkpt lat="45.82682" lon="1.19085">
        <ele>274.1</ele>
        <time>2024-10-21T09:38:28Z</time>
      </trkpt>
      <trkpt lat="45.82681" lon="1.19087">
        <ele>274</ele>
        <time>2024-10-21T09:38:29Z</time>
      </trkpt>
      <trkpt lat="45.82681" lon="1.19088">
        <ele>273.9</ele>
        <time>2024-10-21T09:38:30Z</time>
      </trkpt>
      <trkpt lat="45.82679" lon="1.19091">
        <ele>273.7</ele>
        <time>2024-10-21T09:38:31Z</time>
      </trkpt>
      <trkpt lat="45.82679" lon="1.19092">
        <ele>273.7</ele>
        <time>2024-10-21T09:38:32Z</time>
      </trkpt>
      <trkpt lat="45.82678" lon="1.19093">
        <ele>273.6</ele>
        <time>2024-10-21T09:38:33Z</time>
      </trkpt>
      <trkpt lat="45.82677" lon="1.19096">
        <ele>273.4</ele>
        <time>2024-10-21T09:38:34Z</time>
      </trkpt>
      <trkpt lat="45.82677" lon="1.19097">
        <ele>273.4</ele>
        <time>2024-10-21T09:38:35Z</time>
      </trkpt>
      <trkpt lat="45.82676" lon="1.19097">
        <ele>273.3</ele>
        <time>2024-10-21T09:38:36Z</time>
      </trkpt>
      <trkpt lat="45.82675" lon="1.191">
        <ele>273.2</ele>
        <time>2024-10-21T09:38:37Z</time>
      </trkpt>
      <trkpt lat="45.82674" lon="1.19101">
        <ele>273.1</ele>
        <time>2024-10-21T09:38:38Z</time>
      </trkpt>
      <trkpt lat="45.82673" lon="1.19102">
        <ele>273</ele>
        <time>2024-10-21T09:38:39Z</time>
      </trkpt>
      <trkpt lat="45.82672" lon="1.19104">
        <ele>272.9</ele>
        <time>2024-10-21T09:38:40Z</time>
      </trkpt>
      <trkpt lat="45.82672" lon="1.19106">
        <ele>272.9</ele>
        <time>2024-10-21T09:38:41Z</time>
      </trkpt>
      <trkpt lat="45.82672" lon="1.19107">
        <ele>272.8</ele>
        <time>2024-10-21T09:38:42Z</time>
      </trkpt>
      <trkpt lat="45.82671" lon="1.19108">
        <ele>272.7</ele>
        <time>2024-10-21T09:38:43Z</time>
      </trkpt>
      <trkpt lat="45.8267" lon="1.1911">
        <ele>272.6</ele>
        <time>2024-10-21T09:38:44Z</time>
      </trkpt>
      <trkpt lat="45.82669" lon="1.19111">
        <ele>272.6</ele>
        <time>2024-10-21T09:38:45Z</time>
      </trkpt>
      <trkpt lat="45.82668" lon="1.19113">
        <ele>272.5</ele>
        <time>2024-10-21T09:38:46Z</time>
      </trkpt>
      <trkpt lat="45.82667" lon="1.19115">
        <ele>272.4</ele>
        <time>2024-10-21T09:38:47Z</time>
      </trkpt>
      <trkpt lat="45.82666" lon="1.19116">
        <ele>272.4</ele>
        <time>2024-10-21T09:38:48Z</time>
      </trkpt>
      <trkpt lat="45.82665" lon="1.19118">
        <ele>272.3</ele>
        <time>2024-10-21T09:38:49Z</time>
      </trkpt>
      <trkpt lat="45.82664" lon="1.19119">
        <ele>272.3</ele>
        <time>2024-10-21T09:38:50Z</time>
      </trkpt>
      <trkpt lat="45.82662" lon="1.19122">
        <ele>272.2</ele>
        <time>2024-10-21T09:38:51Z</time>
      </trkpt>
      <trkpt lat="45.82662" lon="1.19123">
        <ele>272.2</ele>
        <time>2024-10-21T09:38:52Z</time>
      </trkpt>
      <trkpt lat="45.82661" lon="1.19123">
        <ele>272.2</ele>
        <time>2024-10-21T09:38:53Z</time>
      </trkpt>
      <trkpt lat="45.8266" lon="1.19126">
        <ele>272.1</ele>
        <time>2024-10-21T09:38:54Z</time>
      </trkpt>
      <trkpt lat="45.82659" lon="1.19127">
        <ele>272.1</ele>
        <time>2024-10-21T09:38:55Z</time>
      </trkpt>
      <trkpt lat="45.82659" lon="1.19128">
        <ele>272.1</ele>
        <time>2024-10-21T09:38:56Z</time>
      </trkpt>
      <trkpt lat="45.82656" lon="1.19131">
        <ele>272</ele>
        <time>2024-10-21T09:38:57Z</time>
      </trkpt>
      <trkpt lat="45.82656" lon="1.19132">
        <ele>272</ele>
        <time>2024-10-21T09:38:58Z</time>
      </trkpt>
      <trkpt lat="45.82655" lon="1.19133">
        <ele>272</ele>
        <time>2024-10-21T09:38:59Z</time>
      </trkpt>
      <trkpt lat="45.82655" lon="1.19134">
        <ele>272</ele>
        <time>2024-10-21T09:39:00Z</time>
      </trkpt>
      <trkpt lat="45.82654" lon="1.19135">
        <ele>272</ele>
        <time>2024-10-21T09:39:01Z</time>
      </trkpt>
      <trkpt lat="45.82654" lon="1.19136">
        <ele>272</ele>
        <time>2024-10-21T09:39:02Z</time>
      </trkpt>
      <trkpt lat="45.82653" lon="1.19138">
        <ele>272</ele>
        <time>2024-10-21T09:39:03Z</time>
      </trkpt>
      <trkpt lat="45.82652" lon="1.1914">
        <ele>272</ele>
        <time>2024-10-21T09:39:04Z</time>
      </trkpt>
      <trkpt lat="45.82652" lon="1.19143">
        <ele>271.9</ele>
        <time>2024-10-21T09:39:05Z</time>
      </trkpt>
      <trkpt lat="45.82651" lon="1.19145">
        <ele>271.9</ele>
        <time>2024-10-21T09:39:06Z</time>
      </trkpt>
      <trkpt lat="45.82651" lon="1.19146">
        <ele>271.9</ele>
        <time>2024-10-21T09:39:07Z</time>
      </trkpt>
      <trkpt lat="45.82651" lon="1.19148">
        <ele>271.9</ele>
        <time>2024-10-21T09:39:08Z</time>
      </trkpt>
      <trkpt lat="45.82651" lon="1.1915">
        <ele>271.9</ele>
        <time>2024-10-21T09:39:09Z</time>
      </trkpt>
      <trkpt lat="45.82652" lon="1.19153">
        <ele>271.9</ele>
        <time>2024-10-21T09:39:10Z</time>
      </trkpt>
      <trkpt lat="45.82652" lon="1.19154">
        <ele>271.9</ele>
        <time>2024-10-21T09:39:11Z</time>
      </trkpt>
      <trkpt lat="45.82653" lon="1.19155">
        <ele>271.9</ele>
        <time>2024-10-21T09:39:12Z</time>
      </trkpt>
      <trkpt lat="45.82655" lon="1.19158">
        <ele>271.9</ele>
        <time>2024-10-21T09:39:13Z</time>
      </trkpt>
      <trkpt lat="45.82657" lon="1.1916">
        <ele>272.1</ele>
        <time>2024-10-21T09:39:15Z</time>
      </trkpt>
      <trkpt lat="45.82658" lon="1.1916">
        <ele>272.2</ele>
        <time>2024-10-21T09:39:16Z</time>
      </trkpt>
      <trkpt lat="45.82659" lon="1.19161">
        <ele>272.2</ele>
        <time>2024-10-21T09:39:17Z</time>
      </trkpt>
      <trkpt lat="45.8266" lon="1.19162">
        <ele>272.4</ele>
        <time>2024-10-21T09:39:18Z</time>
      </trkpt>
      <trkpt lat="45.82661" lon="1.19163">
        <ele>272.5</ele>
        <time>2024-10-21T09:39:19Z</time>
      </trkpt>
      <trkpt lat="45.82663" lon="1.19164">
        <ele>272.7</ele>
        <time>2024-10-21T09:39:20Z</time>
      </trkpt>
      <trkpt lat="45.82664" lon="1.19165">
        <ele>272.8</ele>
        <time>2024-10-21T09:39:21Z</time>
      </trkpt>
      <trkpt lat="45.82665" lon="1.19165">
        <ele>272.8</ele>
        <time>2024-10-21T09:39:22Z</time>
      </trkpt>
      <trkpt lat="45.82666" lon="1.19166">
        <ele>273</ele>
        <time>2024-10-21T09:39:23Z</time>
      </trkpt>
      <trkpt lat="45.82667" lon="1.19168">
        <ele>273.1</ele>
        <time>2024-10-21T09:39:24Z</time>
      </trkpt>
      <trkpt lat="45.82669" lon="1.19169">
        <ele>273.3</ele>
        <time>2024-10-21T09:39:25Z</time>
      </trkpt>
      <trkpt lat="45.8267" lon="1.19169">
        <ele>273.4</ele>
        <time>2024-10-21T09:39:26Z</time>
      </trkpt>
      <trkpt lat="45.82671" lon="1.1917">
        <ele>273.5</ele>
        <time>2024-10-21T09:39:27Z</time>
      </trkpt>
      <trkpt lat="45.82673" lon="1.19173">
        <ele>273.8</ele>
        <time>2024-10-21T09:39:28Z</time>
      </trkpt>
      <trkpt lat="45.82673" lon="1.19173">
        <ele>273.8</ele>
        <time>2024-10-21T09:39:29Z</time>
      </trkpt>
      <trkpt lat="45.82673" lon="1.19174">
        <ele>273.9</ele>
        <time>2024-10-21T09:39:30Z</time>
      </trkpt>
      <trkpt lat="45.82674" lon="1.19175">
        <ele>274</ele>
        <time>2024-10-21T09:39:31Z</time>
      </trkpt>
      <trkpt lat="45.82675" lon="1.19177">
        <ele>274.2</ele>
        <time>2024-10-21T09:39:32Z</time>
      </trkpt>
      <trkpt lat="45.82676" lon="1.19178">
        <ele>274.3</ele>
        <time>2024-10-21T09:39:33Z</time>
      </trkpt>
      <trkpt lat="45.82677" lon="1.19179">
        <ele>274.5</ele>
        <time>2024-10-21T09:39:34Z</time>
      </trkpt>
      <trkpt lat="45.82678" lon="1.1918">
        <ele>274.6</ele>
        <time>2024-10-21T09:39:35Z</time>
      </trkpt>
      <trkpt lat="45.82679" lon="1.19181">
        <ele>274.7</ele>
        <time>2024-10-21T09:39:36Z</time>
      </trkpt>
      <trkpt lat="45.8268" lon="1.19182">
        <ele>274.8</ele>
        <time>2024-10-21T09:39:37Z</time>
      </trkpt>
      <trkpt lat="45.82681" lon="1.19184">
        <ele>275</ele>
        <time>2024-10-21T09:39:38Z</time>
      </trkpt>
      <trkpt lat="45.82682" lon="1.19185">
        <ele>275.1</ele>
        <time>2024-10-21T09:39:39Z</time>
      </trkpt>
      <trkpt lat="45.82682" lon="1.19186">
        <ele>275.2</ele>
        <time>2024-10-21T09:39:40Z</time>
      </trkpt>
      <trkpt lat="45.82683" lon="1.19187">
        <ele>275.3</ele>
        <time>2024-10-21T09:39:41Z</time>
      </trkpt>
      <trkpt lat="45.82684" lon="1.19188">
        <ele>275.4</ele>
        <time>2024-10-21T09:39:42Z</time>
      </trkpt>
      <trkpt lat="45.82685" lon="1.19189">
        <ele>275.6</ele>
        <time>2024-10-21T09:39:43Z</time>
      </trkpt>
      <trkpt lat="45.82686" lon="1.19191">
        <ele>275.7</ele>
        <time>2024-10-21T09:39:44Z</time>
      </trkpt>
      <trkpt lat="45.82687" lon="1.19192">
        <ele>275.8</ele>
        <time>2024-10-21T09:39:45Z</time>
      </trkpt>
      <trkpt lat="45.82687" lon="1.19193">
        <ele>275.9</ele>
        <time>2024-10-21T09:39:46Z</time>
      </trkpt>
      <trkpt lat="45.82689" lon="1.19195">
        <ele>276.2</ele>
        <time>2024-10-21T09:39:47Z</time>
      </trkpt>
      <trkpt lat="45.8269" lon="1.19196">
        <ele>276.3</ele>
        <time>2024-10-21T09:39:48Z</time>
      </trkpt>
      <trkpt lat="45.82691" lon="1.19197">
        <ele>276.4</ele>
        <time>2024-10-21T09:39:49Z</time>
      </trkpt>
      <trkpt lat="45.82691" lon="1.19197">
        <ele>276.5</ele>
        <time>2024-10-21T09:39:50Z</time>
      </trkpt>
      <trkpt lat="45.82692" lon="1.19198">
        <ele>276.6</ele>
        <time>2024-10-21T09:39:51Z</time>
      </trkpt>
      <trkpt lat="45.82693" lon="1.19199">
        <ele>276.7</ele>
        <time>2024-10-21T09:39:52Z</time>
      </trkpt>
      <trkpt lat="45.82695" lon="1.19199">
        <ele>276.8</ele>
        <time>2024-10-21T09:39:53Z</time>
      </trkpt>
      <trkpt lat="45.82696" lon="1.192">
        <ele>277</ele>
        <time>2024-10-21T09:39:54Z</time>
      </trkpt>
      <trkpt lat="45.82697" lon="1.192">
        <ele>277.1</ele>
        <time>2024-10-21T09:39:55Z</time>
      </trkpt>
      <trkpt lat="45.82698" lon="1.19201">
        <ele>277.2</ele>
        <time>2024-10-21T09:39:56Z</time>
      </trkpt>
      <trkpt lat="45.82699" lon="1.19202">
        <ele>277.3</ele>
        <time>2024-10-21T09:39:57Z</time>
      </trkpt>
      <trkpt lat="45.827" lon="1.19203">
        <ele>277.4</ele>
        <time>2024-10-21T09:39:58Z</time>
      </trkpt>
      <trkpt lat="45.82702" lon="1.19204">
        <ele>277.7</ele>
        <time>2024-10-21T09:39:59Z</time>
      </trkpt>
      <trkpt lat="45.82703" lon="1.19204">
        <ele>277.8</ele>
        <time>2024-10-21T09:40:00Z</time>
      </trkpt>
      <trkpt lat="45.82703" lon="1.19205">
        <ele>277.8</ele>
        <time>2024-10-21T09:40:01Z</time>
      </trkpt>
      <trkpt lat="45.82705" lon="1.19206">
        <ele>278</ele>
        <time>2024-10-21T09:40:02Z</time>
      </trkpt>
      <trkpt lat="45.82706" lon="1.19206">
        <ele>278.1</ele>
        <time>2024-10-21T09:40:03Z</time>
      </trkpt>
      <trkpt lat="45.82707" lon="1.19207">
        <ele>278.2</ele>
        <time>2024-10-21T09:40:04Z</time>
      </trkpt>
      <trkpt lat="45.82707" lon="1.19208">
        <ele>278.3</ele>
        <time>2024-10-21T09:40:05Z</time>
      </trkpt>
      <trkpt lat="45.82708" lon="1.19208">
        <ele>278.4</ele>
        <time>2024-10-21T09:40:06Z</time>
      </trkpt>
      <trkpt lat="45.82709" lon="1.19209">
        <ele>278.5</ele>
        <time>2024-10-21T09:40:07Z</time>
      </trkpt>
      <trkpt lat="45.8271" lon="1.1921">
        <ele>278.6</ele>
        <time>2024-10-21T09:40:08Z</time>
      </trkpt>
      <trkpt lat="45.82711" lon="1.19211">
        <ele>278.8</ele>
        <time>2024-10-21T09:40:09Z</time>
      </trkpt>
      <trkpt lat="45.82712" lon="1.19211">
        <ele>278.9</ele>
        <time>2024-10-21T09:40:10Z</time>
      </trkpt>
      <trkpt lat="45.82713" lon="1.19212">
        <ele>279</ele>
        <time>2024-10-21T09:40:11Z</time>
      </trkpt>
      <trkpt lat="45.82714" lon="1.19213">
        <ele>279.1</ele>
        <time>2024-10-21T09:40:12Z</time>
      </trkpt>
      <trkpt lat="45.82715" lon="1.19214">
        <ele>279.2</ele>
        <time>2024-10-21T09:40:13Z</time>
      </trkpt>
      <trkpt lat="45.82716" lon="1.19215">
        <ele>279.3</ele>
        <time>2024-10-21T09:40:14Z</time>
      </trkpt>
      <trkpt lat="45.82716" lon="1.19215">
        <ele>279.3</ele>
        <time>2024-10-21T09:40:15Z</time>
      </trkpt>
      <trkpt lat="45.82717" lon="1.19216">
        <ele>279.4</ele>
        <time>2024-10-21T09:40:16Z</time>
      </trkpt>
      <trkpt lat="45.82719" lon="1.19218">
        <ele>279.6</ele>
        <time>2024-10-21T09:40:17Z</time>
      </trkpt>
      <trkpt lat="45.8272" lon="1.19219">
        <ele>279.7</ele>
        <time>2024-10-21T09:40:18Z</time>
      </trkpt>
      <trkpt lat="45.8272" lon="1.1922">
        <ele>279.8</ele>
        <time>2024-10-21T09:40:19Z</time>
      </trkpt>
      <trkpt lat="45.82721" lon="1.1922">
        <ele>279.8</ele>
        <time>2024-10-21T09:40:20Z</time>
      </trkpt>
      <trkpt lat="45.82722" lon="1.19221">
        <ele>279.9</ele>
        <time>2024-10-21T09:40:21Z</time>
      </trkpt>
      <trkpt lat="45.82723" lon="1.19222">
        <ele>280</ele>
        <time>2024-10-21T09:40:22Z</time>
      </trkpt>
      <trkpt lat="45.82724" lon="1.19224">
        <ele>280.1</ele>
        <time>2024-10-21T09:40:23Z</time>
      </trkpt>
      <trkpt lat="45.82725" lon="1.19225">
        <ele>280.3</ele>
        <time>2024-10-21T09:40:24Z</time>
      </trkpt>
      <trkpt lat="45.82726" lon="1.19226">
        <ele>280.3</ele>
        <time>2024-10-21T09:40:25Z</time>
      </trkpt>
      <trkpt lat="45.82726" lon="1.19227">
        <ele>280.4</ele>
        <time>2024-10-21T09:40:26Z</time>
      </trkpt>
      <trkpt lat="45.82727" lon="1.19228">
        <ele>280.5</ele>
        <time>2024-10-21T09:40:27Z</time>
      </trkpt>
      <trkpt lat="45.82727" lon="1.1923">
        <ele>280.6</ele>
        <time>2024-10-21T09:40:28Z</time>
      </trkpt>
      <trkpt lat="45.82728" lon="1.19231">
        <ele>280.7</ele>
        <time>2024-10-21T09:40:29Z</time>
      </trkpt>
      <trkpt lat="45.82728" lon="1.19233">
        <ele>280.8</ele>
        <time>2024-10-21T09:40:30Z</time>
      </trkpt>
      <trkpt lat="45.82729" lon="1.19234">
        <ele>280.9</ele>
        <time>2024-10-21T09:40:31Z</time>
      </trkpt>
      <trkpt lat="45.82729" lon="1.19236">
        <ele>281</ele>
        <time>2024-10-21T09:40:32Z</time>
      </trkpt>
      <trkpt lat="45.82729" lon="1.19237">
        <ele>281.1</ele>
        <time>2024-10-21T09:40:33Z</time>
      </trkpt>
      <trkpt lat="45.8273" lon="1.19239">
        <ele>281.2</ele>
        <time>2024-10-21T09:40:34Z</time>
      </trkpt>
      <trkpt lat="45.8273" lon="1.1924">
        <ele>281.3</ele>
        <time>2024-10-21T09:40:35Z</time>
      </trkpt>
      <trkpt lat="45.82731" lon="1.19242">
        <ele>281.4</ele>
        <time>2024-10-21T09:40:36Z</time>
      </trkpt>
      <trkpt lat="45.82732" lon="1.19243">
        <ele>281.4</ele>
        <time>2024-10-21T09:40:37Z</time>
      </trkpt>
      <trkpt lat="45.82732" lon="1.19244">
        <ele>281.5</ele>
        <time>2024-10-21T09:40:38Z</time>
      </trkpt>
      <trkpt lat="45.82733" lon="1.19246">
        <ele>281.7</ele>
        <time>2024-10-21T09:40:39Z</time>
      </trkpt>
      <trkpt lat="45.82733" lon="1.19248">
        <ele>281.8</ele>
        <time>2024-10-21T09:40:40Z</time>
      </trkpt>
      <trkpt lat="45.82734" lon="1.19249">
        <ele>281.8</ele>
        <time>2024-10-21T09:40:41Z</time>
      </trkpt>
      <trkpt lat="45.82734" lon="1.1925">
        <ele>281.9</ele>
        <time>2024-10-21T09:40:42Z</time>
      </trkpt>
      <trkpt lat="45.82734" lon="1.19251">
        <ele>282</ele>
        <time>2024-10-21T09:40:43Z</time>
      </trkpt>
      <trkpt lat="45.82735" lon="1.19253">
        <ele>282.1</ele>
        <time>2024-10-21T09:40:44Z</time>
      </trkpt>
      <trkpt lat="45.82735" lon="1.19254">
        <ele>282.2</ele>
        <time>2024-10-21T09:40:45Z</time>
      </trkpt>
      <trkpt lat="45.82736" lon="1.19255">
        <ele>282.3</ele>
        <time>2024-10-21T09:40:46Z</time>
      </trkpt>
      <trkpt lat="45.82736" lon="1.19256">
        <ele>282.4</ele>
        <time>2024-10-21T09:40:47Z</time>
      </trkpt>
      <trkpt lat="45.82737" lon="1.19257">
        <ele>282.5</ele>
        <time>2024-10-21T09:40:48Z</time>
      </trkpt>
      <trkpt lat="45.82737" lon="1.1926">
        <ele>282.6</ele>
        <time>2024-10-21T09:40:49Z</time>
      </trkpt>
      <trkpt lat="45.82737" lon="1.1926">
        <ele>282.6</ele>
        <time>2024-10-21T09:40:50Z</time>
      </trkpt>
      <trkpt lat="45.82738" lon="1.19261">
        <ele>282.7</ele>
        <time>2024-10-21T09:40:51Z</time>
      </trkpt>
      <trkpt lat="45.82738" lon="1.19263">
        <ele>282.8</ele>
        <time>2024-10-21T09:40:52Z</time>
      </trkpt>
      <trkpt lat="45.82738" lon="1.19264">
        <ele>282.9</ele>
        <time>2024-10-21T09:40:53Z</time>
      </trkpt>
      <trkpt lat="45.82738" lon="1.19266">
        <ele>283</ele>
        <time>2024-10-21T09:40:54Z</time>
      </trkpt>
      <trkpt lat="45.82739" lon="1.19267">
        <ele>283.1</ele>
        <time>2024-10-21T09:40:55Z</time>
      </trkpt>
      <trkpt lat="45.82739" lon="1.19269">
        <ele>283.2</ele>
        <time>2024-10-21T09:40:56Z</time>
      </trkpt>
      <trkpt lat="45.82739" lon="1.1927">
        <ele>283.3</ele>
        <time>2024-10-21T09:40:57Z</time>
      </trkpt>
      <trkpt lat="45.8274" lon="1.19272">
        <ele>283.4</ele>
        <time>2024-10-21T09:40:58Z</time>
      </trkpt>
      <trkpt lat="45.8274" lon="1.19273">
        <ele>283.5</ele>
        <time>2024-10-21T09:40:59Z</time>
      </trkpt>
      <trkpt lat="45.8274" lon="1.19275">
        <ele>283.6</ele>
        <time>2024-10-21T09:41:00Z</time>
      </trkpt>
      <trkpt lat="45.8274" lon="1.19277">
        <ele>283.7</ele>
        <time>2024-10-21T09:41:01Z</time>
      </trkpt>
      <trkpt lat="45.8274" lon="1.19278">
        <ele>283.8</ele>
        <time>2024-10-21T09:41:02Z</time>
      </trkpt>
      <trkpt lat="45.8274" lon="1.19279">
        <ele>283.9</ele>
        <time>2024-10-21T09:41:03Z</time>
      </trkpt>
      <trkpt lat="45.8274" lon="1.19281">
        <ele>284</ele>
        <time>2024-10-21T09:41:04Z</time>
      </trkpt>
      <trkpt lat="45.8274" lon="1.19283">
        <ele>284.1</ele>
        <time>2024-10-21T09:41:05Z</time>
      </trkpt>
      <trkpt lat="45.8274" lon="1.19284">
        <ele>284.3</ele>
        <time>2024-10-21T09:41:06Z</time>
      </trkpt>
      <trkpt lat="45.8274" lon="1.19286">
        <ele>284.3</ele>
        <time>2024-10-21T09:41:07Z</time>
      </trkpt>
      <trkpt lat="45.82739" lon="1.19288">
        <ele>284.5</ele>
        <time>2024-10-21T09:41:08Z</time>
      </trkpt>
      <trkpt lat="45.82739" lon="1.19289">
        <ele>284.6</ele>
        <time>2024-10-21T09:41:09Z</time>
      </trkpt>
      <trkpt lat="45.82739" lon="1.19291">
        <ele>284.7</ele>
        <time>2024-10-21T09:41:10Z</time>
      </trkpt>
      <trkpt lat="45.82738" lon="1.19292">
        <ele>284.8</ele>
        <time>2024-10-21T09:41:11Z</time>
      </trkpt>
      <trkpt lat="45.82738" lon="1.19294">
        <ele>284.8</ele>
        <time>2024-10-21T09:41:12Z</time>
      </trkpt>
      <trkpt lat="45.82737" lon="1.19295">
        <ele>284.9</ele>
        <time>2024-10-21T09:41:13Z</time>
      </trkpt>
      <trkpt lat="45.82738" lon="1.19298">
        <ele>285.1</ele>
        <time>2024-10-21T09:41:14Z</time>
      </trkpt>
      <trkpt lat="45.82738" lon="1.19299">
        <ele>285.2</ele>
        <time>2024-10-21T09:41:16Z</time>
      </trkpt>
      <trkpt lat="45.8274" lon="1.19302">
        <ele>285.3</ele>
        <time>2024-10-21T09:41:17Z</time>
      </trkpt>
      <trkpt lat="45.8274" lon="1.19302">
        <ele>285.3</ele>
        <time>2024-10-21T09:41:18Z</time>
      </trkpt>
      <trkpt lat="45.8274" lon="1.19303">
        <ele>285.4</ele>
        <time>2024-10-21T09:41:19Z</time>
      </trkpt>
      <trkpt lat="45.82741" lon="1.19304">
        <ele>285.5</ele>
        <time>2024-10-21T09:41:20Z</time>
      </trkpt>
      <trkpt lat="45.82742" lon="1.19304">
        <ele>285.6</ele>
        <time>2024-10-21T09:41:21Z</time>
      </trkpt>
      <trkpt lat="45.82743" lon="1.19305">
        <ele>285.6</ele>
        <time>2024-10-21T09:41:22Z</time>
      </trkpt>
      <trkpt lat="45.82744" lon="1.19306">
        <ele>285.7</ele>
        <time>2024-10-21T09:41:23Z</time>
      </trkpt>
      <trkpt lat="45.82745" lon="1.19306">
        <ele>285.8</ele>
        <time>2024-10-21T09:41:24Z</time>
      </trkpt>
      <trkpt lat="45.82746" lon="1.19307">
        <ele>285.9</ele>
        <time>2024-10-21T09:41:25Z</time>
      </trkpt>
      <trkpt lat="45.82747" lon="1.19308">
        <ele>285.9</ele>
        <time>2024-10-21T09:41:26Z</time>
      </trkpt>
      <trkpt lat="45.82748" lon="1.19309">
        <ele>286</ele>
        <time>2024-10-21T09:41:27Z</time>
      </trkpt>
      <trkpt lat="45.82748" lon="1.19309">
        <ele>286.1</ele>
        <time>2024-10-21T09:41:28Z</time>
      </trkpt>
      <trkpt lat="45.82749" lon="1.1931">
        <ele>286.1</ele>
        <time>2024-10-21T09:41:29Z</time>
      </trkpt>
      <trkpt lat="45.8275" lon="1.19309">
        <ele>286.2</ele>
        <time>2024-10-21T09:41:30Z</time>
      </trkpt>
      <trkpt lat="45.82749" lon="1.19308">
        <ele>286.2</ele>
        <time>2024-10-21T09:41:31Z</time>
      </trkpt>
      <trkpt lat="45.82749" lon="1.19308">
        <ele>286.2</ele>
        <time>2024-10-21T09:41:32Z</time>
      </trkpt>
      <trkpt lat="45.82749" lon="1.19308">
        <ele>286.3</ele>
        <time>2024-10-21T09:41:33Z</time>
      </trkpt>
      <trkpt lat="45.82748" lon="1.19308">
        <ele>286.3</ele>
        <time>2024-10-21T09:41:34Z</time>
      </trkpt>
      <trkpt lat="45.82748" lon="1.19308">
        <ele>286.3</ele>
        <time>2024-10-21T09:41:35Z</time>
      </trkpt>
      <trkpt lat="45.82748" lon="1.19308">
        <ele>286.3</ele>
        <time>2024-10-21T09:41:36Z</time>
      </trkpt>
      <trkpt lat="45.82748" lon="1.19308">
        <ele>286.3</ele>
        <time>2024-10-21T09:41:37Z</time>
      </trkpt>
      <trkpt lat="45.82748" lon="1.19308">
        <ele>286.3</ele>
        <time>2024-10-21T09:41:38Z</time>
      </trkpt>
      <trkpt lat="45.82748" lon="1.19308">
        <ele>286.3</ele>
        <time>2024-10-21T09:41:39Z</time>
      </trkpt>
      <trkpt lat="45.82748" lon="1.19308">
        <ele>286.3</ele>
        <time>2024-10-21T09:41:40Z</time>
      </trkpt>
      <trkpt lat="45.82748" lon="1.19308">
        <ele>286.3</ele>
        <time>2024-10-21T09:41:41Z</time>
      </trkpt>
      <trkpt lat="45.82748" lon="1.19308">
        <ele>286.3</ele>
        <time>2024-10-21T09:41:42Z</time>
      </trkpt>
      <trkpt lat="45.82748" lon="1.19308">
        <ele>286.3</ele>
        <time>2024-10-21T09:41:43Z</time>
      </trkpt>
      <trkpt lat="45.82748" lon="1.19308">
        <ele>286.3</ele>
        <time>2024-10-21T09:41:44Z</time>
      </trkpt>
      <trkpt lat="45.82747" lon="1.19308">
        <ele>286.4</ele>
        <time>2024-10-21T09:41:45Z</time>
      </trkpt>
      <trkpt lat="45.82747" lon="1.19308">
        <ele>286.4</ele>
        <time>2024-10-21T09:41:46Z</time>
      </trkpt>
      <trkpt lat="45.82747" lon="1.19308">
        <ele>286.4</ele>
        <time>2024-10-21T09:41:47Z</time>
      </trkpt>
      <trkpt lat="45.82747" lon="1.19308">
        <ele>286.4</ele>
        <time>2024-10-21T09:41:48Z</time>
      </trkpt>
      <trkpt lat="45.82746" lon="1.19308">
        <ele>286.4</ele>
        <time>2024-10-21T09:41:49Z</time>
      </trkpt>
      <trkpt lat="45.82745" lon="1.19308">
        <ele>286.5</ele>
        <time>2024-10-21T09:41:50Z</time>
      </trkpt>
      <trkpt lat="45.82745" lon="1.19308">
        <ele>286.6</ele>
        <time>2024-10-21T09:41:51Z</time>
      </trkpt>
      <trkpt lat="45.82746" lon="1.19308">
        <ele>286.6</ele>
        <time>2024-10-21T09:41:52Z</time>
      </trkpt>
      <trkpt lat="45.82746" lon="1.19307">
        <ele>286.6</ele>
        <time>2024-10-21T09:41:53Z</time>
      </trkpt>
      <trkpt lat="45.82745" lon="1.19307">
        <ele>286.7</ele>
        <time>2024-10-21T09:41:54Z</time>
      </trkpt>
      <trkpt lat="45.82745" lon="1.19306">
        <ele>286.7</ele>
        <time>2024-10-21T09:41:55Z</time>
      </trkpt>
      <trkpt lat="45.82745" lon="1.19305">
        <ele>286.8</ele>
        <time>2024-10-21T09:41:56Z</time>
      </trkpt>
      <trkpt lat="45.82744" lon="1.19303">
        <ele>286.9</ele>
        <time>2024-10-21T09:41:57Z</time>
      </trkpt>
      <trkpt lat="45.82743" lon="1.193">
        <ele>287</ele>
        <time>2024-10-21T09:41:58Z</time>
      </trkpt>
      <trkpt lat="45.82741" lon="1.19299">
        <ele>287.2</ele>
        <time>2024-10-21T09:41:59Z</time>
      </trkpt>
      <trkpt lat="45.82739" lon="1.19298">
        <ele>287.3</ele>
        <time>2024-10-21T09:42:00Z</time>
      </trkpt>
      <trkpt lat="45.82737" lon="1.19298">
        <ele>287.5</ele>
        <time>2024-10-21T09:42:02Z</time>
      </trkpt>
      <trkpt lat="45.82736" lon="1.19299">
        <ele>287.5</ele>
        <time>2024-10-21T09:42:03Z</time>
      </trkpt>
      <trkpt lat="45.82735" lon="1.193">
        <ele>287.6</ele>
        <time>2024-10-21T09:42:04Z</time>
      </trkpt>
      <trkpt lat="45.82734" lon="1.19302">
        <ele>287.7</ele>
        <time>2024-10-21T09:42:05Z</time>
      </trkpt>
      <trkpt lat="45.82733" lon="1.19304">
        <ele>287.9</ele>
        <time>2024-10-21T09:42:06Z</time>
      </trkpt>
      <trkpt lat="45.82733" lon="1.19305">
        <ele>287.9</ele>
        <time>2024-10-21T09:42:07Z</time>
      </trkpt>
      <trkpt lat="45.82732" lon="1.19306">
        <ele>288</ele>
        <time>2024-10-21T09:42:08Z</time>
      </trkpt>
      <trkpt lat="45.82732" lon="1.19308">
        <ele>288.1</ele>
        <time>2024-10-21T09:42:09Z</time>
      </trkpt>
      <trkpt lat="45.82732" lon="1.19311">
        <ele>288.2</ele>
        <time>2024-10-21T09:42:10Z</time>
      </trkpt>
      <trkpt lat="45.82731" lon="1.19312">
        <ele>288.2</ele>
        <time>2024-10-21T09:42:11Z</time>
      </trkpt>
      <trkpt lat="45.82731" lon="1.19313">
        <ele>288.3</ele>
        <time>2024-10-21T09:42:12Z</time>
      </trkpt>
      <trkpt lat="45.8273" lon="1.19315">
        <ele>288.4</ele>
        <time>2024-10-21T09:42:13Z</time>
      </trkpt>
      <trkpt lat="45.8273" lon="1.19316">
        <ele>288.4</ele>
        <time>2024-10-21T09:42:14Z</time>
      </trkpt>
      <trkpt lat="45.8273" lon="1.19318">
        <ele>288.5</ele>
        <time>2024-10-21T09:42:15Z</time>
      </trkpt>
      <trkpt lat="45.82729" lon="1.19319">
        <ele>288.6</ele>
        <time>2024-10-21T09:42:16Z</time>
      </trkpt>
      <trkpt lat="45.82729" lon="1.19321">
        <ele>288.7</ele>
        <time>2024-10-21T09:42:17Z</time>
      </trkpt>
      <trkpt lat="45.82729" lon="1.19322">
        <ele>288.7</ele>
        <time>2024-10-21T09:42:18Z</time>
      </trkpt>
      <trkpt lat="45.82729" lon="1.19326">
        <ele>288.9</ele>
        <time>2024-10-21T09:42:19Z</time>
      </trkpt>
      <trkpt lat="45.82729" lon="1.19326">
        <ele>288.9</ele>
        <time>2024-10-21T09:42:20Z</time>
      </trkpt>
      <trkpt lat="45.82729" lon="1.19327">
        <ele>288.9</ele>
        <time>2024-10-21T09:42:21Z</time>
      </trkpt>
      <trkpt lat="45.82728" lon="1.19329">
        <ele>289</ele>
        <time>2024-10-21T09:42:22Z</time>
      </trkpt>
      <trkpt lat="45.82728" lon="1.1933">
        <ele>289</ele>
        <time>2024-10-21T09:42:23Z</time>
      </trkpt>
      <trkpt lat="45.82728" lon="1.19332">
        <ele>289.1</ele>
        <time>2024-10-21T09:42:24Z</time>
      </trkpt>
      <trkpt lat="45.82728" lon="1.19333">
        <ele>289.2</ele>
        <time>2024-10-21T09:42:25Z</time>
      </trkpt>
      <trkpt lat="45.82728" lon="1.19333">
        <ele>289.2</ele>
        <time>2024-10-21T09:42:26Z</time>
      </trkpt>
      <trkpt lat="45.82729" lon="1.19333">
        <ele>289.2</ele>
        <time>2024-10-21T09:42:27Z</time>
      </trkpt>
      <trkpt lat="45.82729" lon="1.19335">
        <ele>289.3</ele>
        <time>2024-10-21T09:42:28Z</time>
      </trkpt>
      <trkpt lat="45.82729" lon="1.19336">
        <ele>289.4</ele>
        <time>2024-10-21T09:42:29Z</time>
      </trkpt>
      <trkpt lat="45.82728" lon="1.19338">
        <ele>289.4</ele>
        <time>2024-10-21T09:42:30Z</time>
      </trkpt>
      <trkpt lat="45.82728" lon="1.1934">
        <ele>289.5</ele>
        <time>2024-10-21T09:42:31Z</time>
      </trkpt>
      <trkpt lat="45.82728" lon="1.19342">
        <ele>289.6</ele>
        <time>2024-10-21T09:42:32Z</time>
      </trkpt>
      <trkpt lat="45.82727" lon="1.19345">
        <ele>289.7</ele>
        <time>2024-10-21T09:42:33Z</time>
      </trkpt>
      <trkpt lat="45.82727" lon="1.19346">
        <ele>289.7</ele>
        <time>2024-10-21T09:42:34Z</time>
      </trkpt>
      <trkpt lat="45.82727" lon="1.19348">
        <ele>289.8</ele>
        <time>2024-10-21T09:42:35Z</time>
      </trkpt>
      <trkpt lat="45.82726" lon="1.1935">
        <ele>289.9</ele>
        <time>2024-10-21T09:42:36Z</time>
      </trkpt>
      <trkpt lat="45.82726" lon="1.19352">
        <ele>289.9</ele>
        <time>2024-10-21T09:42:37Z</time>
      </trkpt>
      <trkpt lat="45.82726" lon="1.19353">
        <ele>290</ele>
        <time>2024-10-21T09:42:38Z</time>
      </trkpt>
      <trkpt lat="45.82725" lon="1.19356">
        <ele>290.1</ele>
        <time>2024-10-21T09:42:39Z</time>
      </trkpt>
      <trkpt lat="45.82725" lon="1.19357">
        <ele>290.1</ele>
        <time>2024-10-21T09:42:40Z</time>
      </trkpt>
      <trkpt lat="45.82724" lon="1.19358">
        <ele>290.1</ele>
        <time>2024-10-21T09:42:41Z</time>
      </trkpt>
      <trkpt lat="45.82724" lon="1.19359">
        <ele>290.2</ele>
        <time>2024-10-21T09:42:42Z</time>
      </trkpt>
      <trkpt lat="45.82723" lon="1.19361">
        <ele>290.2</ele>
        <time>2024-10-21T09:42:43Z</time>
      </trkpt>
      <trkpt lat="45.82724" lon="1.19362">
        <ele>290.3</ele>
        <time>2024-10-21T09:42:44Z</time>
      </trkpt>
      <trkpt lat="45.82725" lon="1.19363">
        <ele>290.3</ele>
        <time>2024-10-21T09:42:45Z</time>
      </trkpt>
      <trkpt lat="45.82725" lon="1.19364">
        <ele>290.3</ele>
        <time>2024-10-21T09:42:46Z</time>
      </trkpt>
      <trkpt lat="45.82725" lon="1.19366">
        <ele>290.4</ele>
        <time>2024-10-21T09:42:47Z</time>
      </trkpt>
      <trkpt lat="45.82724" lon="1.19369">
        <ele>290.5</ele>
        <time>2024-10-21T09:42:48Z</time>
      </trkpt>
      <trkpt lat="45.82724" lon="1.1937">
        <ele>290.5</ele>
        <time>2024-10-21T09:42:49Z</time>
      </trkpt>
      <trkpt lat="45.82723" lon="1.19372">
        <ele>290.5</ele>
        <time>2024-10-21T09:42:50Z</time>
      </trkpt>
      <trkpt lat="45.82723" lon="1.19374">
        <ele>290.6</ele>
        <time>2024-10-21T09:42:51Z</time>
      </trkpt>
      <trkpt lat="45.82722" lon="1.19375">
        <ele>290.6</ele>
        <time>2024-10-21T09:42:52Z</time>
      </trkpt>
      <trkpt lat="45.82722" lon="1.19377">
        <ele>290.6</ele>
        <time>2024-10-21T09:42:53Z</time>
      </trkpt>
      <trkpt lat="45.82721" lon="1.19379">
        <ele>290.7</ele>
        <time>2024-10-21T09:42:54Z</time>
      </trkpt>
      <trkpt lat="45.82721" lon="1.1938">
        <ele>290.7</ele>
        <time>2024-10-21T09:42:55Z</time>
      </trkpt>
      <trkpt lat="45.8272" lon="1.19381">
        <ele>290.7</ele>
        <time>2024-10-21T09:42:56Z</time>
      </trkpt>
      <trkpt lat="45.8272" lon="1.19384">
        <ele>290.8</ele>
        <time>2024-10-21T09:42:57Z</time>
      </trkpt>
      <trkpt lat="45.8272" lon="1.19385">
        <ele>290.8</ele>
        <time>2024-10-21T09:42:58Z</time>
      </trkpt>
      <trkpt lat="45.8272" lon="1.19386">
        <ele>290.8</ele>
        <time>2024-10-21T09:42:59Z</time>
      </trkpt>
      <trkpt lat="45.8272" lon="1.1939">
        <ele>290.9</ele>
        <time>2024-10-21T09:43:00Z</time>
      </trkpt>
      <trkpt lat="45.82721" lon="1.19391">
        <ele>290.9</ele>
        <time>2024-10-21T09:43:01Z</time>
      </trkpt>
      <trkpt lat="45.82721" lon="1.19392">
        <ele>290.9</ele>
        <time>2024-10-21T09:43:02Z</time>
      </trkpt>
      <trkpt lat="45.82722" lon="1.19394">
        <ele>291</ele>
        <time>2024-10-21T09:43:03Z</time>
      </trkpt>
      <trkpt lat="45.82722" lon="1.19396">
        <ele>291</ele>
        <time>2024-10-21T09:43:04Z</time>
      </trkpt>
      <trkpt lat="45.82723" lon="1.19397">
        <ele>291</ele>
        <time>2024-10-21T09:43:05Z</time>
      </trkpt>
      <trkpt lat="45.82723" lon="1.19398">
        <ele>291</ele>
        <time>2024-10-21T09:43:06Z</time>
      </trkpt>
      <trkpt lat="45.82724" lon="1.194">
        <ele>291</ele>
        <time>2024-10-21T09:43:07Z</time>
      </trkpt>
      <trkpt lat="45.82725" lon="1.19401">
        <ele>291.1</ele>
        <time>2024-10-21T09:43:08Z</time>
      </trkpt>
      <trkpt lat="45.82726" lon="1.19403">
        <ele>291.1</ele>
        <time>2024-10-21T09:43:09Z</time>
      </trkpt>
      <trkpt lat="45.82727" lon="1.19405">
        <ele>291.1</ele>
        <time>2024-10-21T09:43:10Z</time>
      </trkpt>
      <trkpt lat="45.82727" lon="1.19406">
        <ele>291.1</ele>
        <time>2024-10-21T09:43:11Z</time>
      </trkpt>
      <trkpt lat="45.82728" lon="1.19407">
        <ele>291.2</ele>
        <time>2024-10-21T09:43:12Z</time>
      </trkpt>
      <trkpt lat="45.82728" lon="1.19409">
        <ele>291.2</ele>
        <time>2024-10-21T09:43:13Z</time>
      </trkpt>
      <trkpt lat="45.82729" lon="1.1941">
        <ele>291.2</ele>
        <time>2024-10-21T09:43:14Z</time>
      </trkpt>
      <trkpt lat="45.8273" lon="1.19411">
        <ele>291.2</ele>
        <time>2024-10-21T09:43:15Z</time>
      </trkpt>
      <trkpt lat="45.82731" lon="1.19412">
        <ele>291.2</ele>
        <time>2024-10-21T09:43:16Z</time>
      </trkpt>
      <trkpt lat="45.82731" lon="1.19414">
        <ele>291.3</ele>
        <time>2024-10-21T09:43:17Z</time>
      </trkpt>
      <trkpt lat="45.82732" lon="1.19415">
        <ele>291.3</ele>
        <time>2024-10-21T09:43:18Z</time>
      </trkpt>
      <trkpt lat="45.82733" lon="1.19417">
        <ele>291.3</ele>
        <time>2024-10-21T09:43:19Z</time>
      </trkpt>
      <trkpt lat="45.82734" lon="1.19419">
        <ele>291.3</ele>
        <time>2024-10-21T09:43:20Z</time>
      </trkpt>
      <trkpt lat="45.82735" lon="1.1942">
        <ele>291.3</ele>
        <time>2024-10-21T09:43:21Z</time>
      </trkpt>
      <trkpt lat="45.82735" lon="1.1942">
        <ele>291.4</ele>
        <time>2024-10-21T09:43:22Z</time>
      </trkpt>
      <trkpt lat="45.82737" lon="1.19422">
        <ele>291.4</ele>
        <time>2024-10-21T09:43:23Z</time>
      </trkpt>
      <trkpt lat="45.82738" lon="1.19423">
        <ele>291.4</ele>
        <time>2024-10-21T09:43:24Z</time>
      </trkpt>
      <trkpt lat="45.82739" lon="1.19424">
        <ele>291.4</ele>
        <time>2024-10-21T09:43:25Z</time>
      </trkpt>
      <trkpt lat="45.82739" lon="1.19425">
        <ele>291.5</ele>
        <time>2024-10-21T09:43:26Z</time>
      </trkpt>
      <trkpt lat="45.8274" lon="1.19425">
        <ele>291.5</ele>
        <time>2024-10-21T09:43:27Z</time>
      </trkpt>
      <trkpt lat="45.82742" lon="1.19426">
        <ele>291.5</ele>
        <time>2024-10-21T09:43:28Z</time>
      </trkpt>
      <trkpt lat="45.82743" lon="1.19428">
        <ele>291.5</ele>
        <time>2024-10-21T09:43:29Z</time>
      </trkpt>
      <trkpt lat="45.82744" lon="1.19429">
        <ele>291.6</ele>
        <time>2024-10-21T09:43:30Z</time>
      </trkpt>
      <trkpt lat="45.82744" lon="1.1943">
        <ele>291.6</ele>
        <time>2024-10-21T09:43:31Z</time>
      </trkpt>
      <trkpt lat="45.82746" lon="1.19432">
        <ele>291.6</ele>
        <time>2024-10-21T09:43:32Z</time>
      </trkpt>
      <trkpt lat="45.82747" lon="1.19432">
        <ele>291.6</ele>
        <time>2024-10-21T09:43:33Z</time>
      </trkpt>
      <trkpt lat="45.82747" lon="1.19433">
        <ele>291.7</ele>
        <time>2024-10-21T09:43:34Z</time>
      </trkpt>
      <trkpt lat="45.82749" lon="1.19435">
        <ele>291.7</ele>
        <time>2024-10-21T09:43:35Z</time>
      </trkpt>
      <trkpt lat="45.8275" lon="1.19436">
        <ele>291.7</ele>
        <time>2024-10-21T09:43:36Z</time>
      </trkpt>
      <trkpt lat="45.8275" lon="1.19436">
        <ele>291.7</ele>
        <time>2024-10-21T09:43:37Z</time>
      </trkpt>
      <trkpt lat="45.82752" lon="1.19438">
        <ele>291.8</ele>
        <time>2024-10-21T09:43:38Z</time>
      </trkpt>
      <trkpt lat="45.82753" lon="1.19439">
        <ele>291.8</ele>
        <time>2024-10-21T09:43:39Z</time>
      </trkpt>
      <trkpt lat="45.82754" lon="1.19439">
        <ele>291.8</ele>
        <time>2024-10-21T09:43:40Z</time>
      </trkpt>
      <trkpt lat="45.82755" lon="1.1944">
        <ele>291.8</ele>
        <time>2024-10-21T09:43:41Z</time>
      </trkpt>
      <trkpt lat="45.82756" lon="1.19441">
        <ele>291.9</ele>
        <time>2024-10-21T09:43:42Z</time>
      </trkpt>
      <trkpt lat="45.82757" lon="1.19442">
        <ele>291.9</ele>
        <time>2024-10-21T09:43:43Z</time>
      </trkpt>
      <trkpt lat="45.82758" lon="1.19443">
        <ele>291.9</ele>
        <time>2024-10-21T09:43:44Z</time>
      </trkpt>
      <trkpt lat="45.82759" lon="1.19445">
        <ele>292</ele>
        <time>2024-10-21T09:43:45Z</time>
      </trkpt>
      <trkpt lat="45.8276" lon="1.19446">
        <ele>292</ele>
        <time>2024-10-21T09:43:46Z</time>
      </trkpt>
      <trkpt lat="45.82761" lon="1.19447">
        <ele>292</ele>
        <time>2024-10-21T09:43:47Z</time>
      </trkpt>
      <trkpt lat="45.82762" lon="1.19447">
        <ele>292</ele>
        <time>2024-10-21T09:43:48Z</time>
      </trkpt>
      <trkpt lat="45.82763" lon="1.19448">
        <ele>292.1</ele>
        <time>2024-10-21T09:43:49Z</time>
      </trkpt>
      <trkpt lat="45.82764" lon="1.1945">
        <ele>292.1</ele>
        <time>2024-10-21T09:43:50Z</time>
      </trkpt>
      <trkpt lat="45.82765" lon="1.1945">
        <ele>292.2</ele>
        <time>2024-10-21T09:43:51Z</time>
      </trkpt>
      <trkpt lat="45.82766" lon="1.19451">
        <ele>292.2</ele>
        <time>2024-10-21T09:43:52Z</time>
      </trkpt>
      <trkpt lat="45.82767" lon="1.19452">
        <ele>292.2</ele>
        <time>2024-10-21T09:43:53Z</time>
      </trkpt>
      <trkpt lat="45.82768" lon="1.19453">
        <ele>292.3</ele>
        <time>2024-10-21T09:43:54Z</time>
      </trkpt>
      <trkpt lat="45.8277" lon="1.19454">
        <ele>292.3</ele>
        <time>2024-10-21T09:43:55Z</time>
      </trkpt>
      <trkpt lat="45.82771" lon="1.19455">
        <ele>292.3</ele>
        <time>2024-10-21T09:43:56Z</time>
      </trkpt>
      <trkpt lat="45.82772" lon="1.19456">
        <ele>292.4</ele>
        <time>2024-10-21T09:43:57Z</time>
      </trkpt>
      <trkpt lat="45.82773" lon="1.19457">
        <ele>292.4</ele>
        <time>2024-10-21T09:43:58Z</time>
      </trkpt>
      <trkpt lat="45.82774" lon="1.19459">
        <ele>292.5</ele>
        <time>2024-10-21T09:43:59Z</time>
      </trkpt>
      <trkpt lat="45.82775" lon="1.1946">
        <ele>292.5</ele>
        <time>2024-10-21T09:44:00Z</time>
      </trkpt>
      <trkpt lat="45.82775" lon="1.19461">
        <ele>292.5</ele>
        <time>2024-10-21T09:44:01Z</time>
      </trkpt>
      <trkpt lat="45.82777" lon="1.19464">
        <ele>292.6</ele>
        <time>2024-10-21T09:44:02Z</time>
      </trkpt>
      <trkpt lat="45.82777" lon="1.19465">
        <ele>292.6</ele>
        <time>2024-10-21T09:44:03Z</time>
      </trkpt>
      <trkpt lat="45.82778" lon="1.19466">
        <ele>292.7</ele>
        <time>2024-10-21T09:44:04Z</time>
      </trkpt>
      <trkpt lat="45.82779" lon="1.19467">
        <ele>292.7</ele>
        <time>2024-10-21T09:44:05Z</time>
      </trkpt>
      <trkpt lat="45.8278" lon="1.19468">
        <ele>292.8</ele>
        <time>2024-10-21T09:44:06Z</time>
      </trkpt>
      <trkpt lat="45.82781" lon="1.19471">
        <ele>292.8</ele>
        <time>2024-10-21T09:44:07Z</time>
      </trkpt>
      <trkpt lat="45.82782" lon="1.19471">
        <ele>292.9</ele>
        <time>2024-10-21T09:44:08Z</time>
      </trkpt>
      <trkpt lat="45.82782" lon="1.19472">
        <ele>292.9</ele>
        <time>2024-10-21T09:44:09Z</time>
      </trkpt>
      <trkpt lat="45.82784" lon="1.19474">
        <ele>293</ele>
        <time>2024-10-21T09:44:10Z</time>
      </trkpt>
      <trkpt lat="45.82784" lon="1.19475">
        <ele>293</ele>
        <time>2024-10-21T09:44:11Z</time>
      </trkpt>
      <trkpt lat="45.82786" lon="1.19477">
        <ele>293.1</ele>
        <time>2024-10-21T09:44:12Z</time>
      </trkpt>
      <trkpt lat="45.82786" lon="1.19478">
        <ele>293.1</ele>
        <time>2024-10-21T09:44:13Z</time>
      </trkpt>
      <trkpt lat="45.82787" lon="1.19478">
        <ele>293.2</ele>
        <time>2024-10-21T09:44:14Z</time>
      </trkpt>
      <trkpt lat="45.8279" lon="1.19481">
        <ele>293.3</ele>
        <time>2024-10-21T09:44:15Z</time>
      </trkpt>
      <trkpt lat="45.8279" lon="1.19482">
        <ele>293.3</ele>
        <time>2024-10-21T09:44:16Z</time>
      </trkpt>
      <trkpt lat="45.82791" lon="1.19482">
        <ele>293.4</ele>
        <time>2024-10-21T09:44:17Z</time>
      </trkpt>
      <trkpt lat="45.82792" lon="1.19484">
        <ele>293.4</ele>
        <time>2024-10-21T09:44:18Z</time>
      </trkpt>
      <trkpt lat="45.82794" lon="1.19485">
        <ele>293.5</ele>
        <time>2024-10-21T09:44:20Z</time>
      </trkpt>
      <trkpt lat="45.82795" lon="1.19486">
        <ele>293.6</ele>
        <time>2024-10-21T09:44:21Z</time>
      </trkpt>
      <trkpt lat="45.82796" lon="1.19487">
        <ele>293.6</ele>
        <time>2024-10-21T09:44:22Z</time>
      </trkpt>
      <trkpt lat="45.82797" lon="1.19488">
        <ele>293.7</ele>
        <time>2024-10-21T09:44:23Z</time>
      </trkpt>
      <trkpt lat="45.82798" lon="1.19489">
        <ele>293.7</ele>
        <time>2024-10-21T09:44:24Z</time>
      </trkpt>
      <trkpt lat="45.82799" lon="1.1949">
        <ele>293.8</ele>
        <time>2024-10-21T09:44:25Z</time>
      </trkpt>
      <trkpt lat="45.82801" lon="1.19492">
        <ele>293.9</ele>
        <time>2024-10-21T09:44:26Z</time>
      </trkpt>
      <trkpt lat="45.82802" lon="1.19493">
        <ele>293.9</ele>
        <time>2024-10-21T09:44:27Z</time>
      </trkpt>
      <trkpt lat="45.82803" lon="1.19493">
        <ele>293.9</ele>
        <time>2024-10-21T09:44:28Z</time>
      </trkpt>
      <trkpt lat="45.82803" lon="1.19494">
        <ele>294</ele>
        <time>2024-10-21T09:44:29Z</time>
      </trkpt>
      <trkpt lat="45.82805" lon="1.19496">
        <ele>294</ele>
        <time>2024-10-21T09:44:30Z</time>
      </trkpt>
      <trkpt lat="45.82805" lon="1.19497">
        <ele>294.1</ele>
        <time>2024-10-21T09:44:31Z</time>
      </trkpt>
      <trkpt lat="45.82806" lon="1.19499">
        <ele>294.1</ele>
        <time>2024-10-21T09:44:32Z</time>
      </trkpt>
      <trkpt lat="45.82807" lon="1.195">
        <ele>294.2</ele>
        <time>2024-10-21T09:44:33Z</time>
      </trkpt>
      <trkpt lat="45.82808" lon="1.19502">
        <ele>294.2</ele>
        <time>2024-10-21T09:44:34Z</time>
      </trkpt>
      <trkpt lat="45.82809" lon="1.19504">
        <ele>294.3</ele>
        <time>2024-10-21T09:44:35Z</time>
      </trkpt>
      <trkpt lat="45.8281" lon="1.19506">
        <ele>294.4</ele>
        <time>2024-10-21T09:44:36Z</time>
      </trkpt>
      <trkpt lat="45.8281" lon="1.19507">
        <ele>294.4</ele>
        <time>2024-10-21T09:44:37Z</time>
      </trkpt>
      <trkpt lat="45.82811" lon="1.19508">
        <ele>294.5</ele>
        <time>2024-10-21T09:44:38Z</time>
      </trkpt>
      <trkpt lat="45.82812" lon="1.1951">
        <ele>294.5</ele>
        <time>2024-10-21T09:44:39Z</time>
      </trkpt>
      <trkpt lat="45.82813" lon="1.19512">
        <ele>294.5</ele>
        <time>2024-10-21T09:44:40Z</time>
      </trkpt>
      <trkpt lat="45.82814" lon="1.19514">
        <ele>294.6</ele>
        <time>2024-10-21T09:44:41Z</time>
      </trkpt>
      <trkpt lat="45.82815" lon="1.19515">
        <ele>294.6</ele>
        <time>2024-10-21T09:44:42Z</time>
      </trkpt>
      <trkpt lat="45.82815" lon="1.19516">
        <ele>294.7</ele>
        <time>2024-10-21T09:44:43Z</time>
      </trkpt>
      <trkpt lat="45.82816" lon="1.19517">
        <ele>294.8</ele>
        <time>2024-10-21T09:44:44Z</time>
      </trkpt>
      <trkpt lat="45.82817" lon="1.19519">
        <ele>294.8</ele>
        <time>2024-10-21T09:44:45Z</time>
      </trkpt>
      <trkpt lat="45.82818" lon="1.1952">
        <ele>294.9</ele>
        <time>2024-10-21T09:44:46Z</time>
      </trkpt>
      <trkpt lat="45.82819" lon="1.19521">
        <ele>295</ele>
        <time>2024-10-21T09:44:47Z</time>
      </trkpt>
      <trkpt lat="45.82819" lon="1.19523">
        <ele>295</ele>
        <time>2024-10-21T09:44:48Z</time>
      </trkpt>
      <trkpt lat="45.8282" lon="1.19524">
        <ele>295.1</ele>
        <time>2024-10-21T09:44:49Z</time>
      </trkpt>
      <trkpt lat="45.82821" lon="1.19526">
        <ele>295.2</ele>
        <time>2024-10-21T09:44:50Z</time>
      </trkpt>
      <trkpt lat="45.82822" lon="1.19528">
        <ele>295.3</ele>
        <time>2024-10-21T09:44:51Z</time>
      </trkpt>
      <trkpt lat="45.82822" lon="1.1953">
        <ele>295.3</ele>
        <time>2024-10-21T09:44:52Z</time>
      </trkpt>
      <trkpt lat="45.82823" lon="1.19531">
        <ele>295.4</ele>
        <time>2024-10-21T09:44:53Z</time>
      </trkpt>
      <trkpt lat="45.82823" lon="1.19533">
        <ele>295.5</ele>
        <time>2024-10-21T09:44:54Z</time>
      </trkpt>
      <trkpt lat="45.82824" lon="1.19535">
        <ele>295.6</ele>
        <time>2024-10-21T09:44:55Z</time>
      </trkpt>
      <trkpt lat="45.82825" lon="1.19537">
        <ele>295.7</ele>
        <time>2024-10-21T09:44:56Z</time>
      </trkpt>
      <trkpt lat="45.82825" lon="1.19538">
        <ele>295.7</ele>
        <time>2024-10-21T09:44:57Z</time>
      </trkpt>
      <trkpt lat="45.82826" lon="1.19539">
        <ele>295.8</ele>
        <time>2024-10-21T09:44:58Z</time>
      </trkpt>
      <trkpt lat="45.82826" lon="1.19541">
        <ele>295.8</ele>
        <time>2024-10-21T09:44:59Z</time>
      </trkpt>
      <trkpt lat="45.82827" lon="1.19543">
        <ele>295.9</ele>
        <time>2024-10-21T09:45:00Z</time>
      </trkpt>
      <trkpt lat="45.82828" lon="1.19545">
        <ele>296</ele>
        <time>2024-10-21T09:45:01Z</time>
      </trkpt>
      <trkpt lat="45.82828" lon="1.19545">
        <ele>296</ele>
        <time>2024-10-21T09:45:02Z</time>
      </trkpt>
      <trkpt lat="45.82829" lon="1.19547">
        <ele>296</ele>
        <time>2024-10-21T09:45:03Z</time>
      </trkpt>
      <trkpt lat="45.82829" lon="1.19548">
        <ele>296.1</ele>
        <time>2024-10-21T09:45:04Z</time>
      </trkpt>
      <trkpt lat="45.8283" lon="1.1955">
        <ele>296.1</ele>
        <time>2024-10-21T09:45:05Z</time>
      </trkpt>
      <trkpt lat="45.82831" lon="1.19552">
        <ele>296.2</ele>
        <time>2024-10-21T09:45:06Z</time>
      </trkpt>
      <trkpt lat="45.82831" lon="1.19553">
        <ele>296.3</ele>
        <time>2024-10-21T09:45:07Z</time>
      </trkpt>
      <trkpt lat="45.82832" lon="1.19554">
        <ele>296.3</ele>
        <time>2024-10-21T09:45:08Z</time>
      </trkpt>
      <trkpt lat="45.82832" lon="1.19555">
        <ele>296.3</ele>
        <time>2024-10-21T09:45:09Z</time>
      </trkpt>
      <trkpt lat="45.82833" lon="1.19556">
        <ele>296.4</ele>
        <time>2024-10-21T09:45:10Z</time>
      </trkpt>
      <trkpt lat="45.82834" lon="1.19557">
        <ele>296.4</ele>
        <time>2024-10-21T09:45:11Z</time>
      </trkpt>
      <trkpt lat="45.82836" lon="1.19558">
        <ele>296.5</ele>
        <time>2024-10-21T09:45:12Z</time>
      </trkpt>
      <trkpt lat="45.82837" lon="1.19559">
        <ele>296.5</ele>
        <time>2024-10-21T09:45:13Z</time>
      </trkpt>
      <trkpt lat="45.82838" lon="1.19559">
        <ele>296.6</ele>
        <time>2024-10-21T09:45:14Z</time>
      </trkpt>
      <trkpt lat="45.8284" lon="1.1956">
        <ele>296.6</ele>
        <time>2024-10-21T09:45:15Z</time>
      </trkpt>
      <trkpt lat="45.8284" lon="1.1956">
        <ele>296.6</ele>
        <time>2024-10-21T09:45:16Z</time>
      </trkpt>
      <trkpt lat="45.82841" lon="1.19561">
        <ele>296.7</ele>
        <time>2024-10-21T09:45:17Z</time>
      </trkpt>
      <trkpt lat="45.82843" lon="1.19561">
        <ele>296.7</ele>
        <time>2024-10-21T09:45:18Z</time>
      </trkpt>
      <trkpt lat="45.82844" lon="1.19561">
        <ele>296.7</ele>
        <time>2024-10-21T09:45:19Z</time>
      </trkpt>
      <trkpt lat="45.82845" lon="1.19561">
        <ele>296.8</ele>
        <time>2024-10-21T09:45:20Z</time>
      </trkpt>
      <trkpt lat="45.82848" lon="1.19562">
        <ele>296.8</ele>
        <time>2024-10-21T09:45:21Z</time>
      </trkpt>
      <trkpt lat="45.82849" lon="1.19562">
        <ele>296.8</ele>
        <time>2024-10-21T09:45:22Z</time>
      </trkpt>
      <trkpt lat="45.82851" lon="1.19563">
        <ele>296.9</ele>
        <time>2024-10-21T09:45:24Z</time>
      </trkpt>
      <trkpt lat="45.82853" lon="1.19563">
        <ele>296.9</ele>
        <time>2024-10-21T09:45:26Z</time>
      </trkpt>
      <trkpt lat="45.82854" lon="1.19564">
        <ele>296.9</ele>
        <time>2024-10-21T09:45:27Z</time>
      </trkpt>
      <trkpt lat="45.82855" lon="1.19564">
        <ele>296.9</ele>
        <time>2024-10-21T09:45:28Z</time>
      </trkpt>
      <trkpt lat="45.82856" lon="1.19565">
        <ele>296.9</ele>
        <time>2024-10-21T09:45:29Z</time>
      </trkpt>
      <trkpt lat="45.82858" lon="1.19566">
        <ele>297</ele>
        <time>2024-10-21T09:45:30Z</time>
      </trkpt>
      <trkpt lat="45.82858" lon="1.19567">
        <ele>297</ele>
        <time>2024-10-21T09:45:31Z</time>
      </trkpt>
      <trkpt lat="45.82859" lon="1.19568">
        <ele>297</ele>
        <time>2024-10-21T09:45:32Z</time>
      </trkpt>
      <trkpt lat="45.82862" lon="1.1957">
        <ele>297</ele>
        <time>2024-10-21T09:45:33Z</time>
      </trkpt>
      <trkpt lat="45.82862" lon="1.1957">
        <ele>297</ele>
        <time>2024-10-21T09:45:34Z</time>
      </trkpt>
      <trkpt lat="45.82862" lon="1.19571">
        <ele>297</ele>
        <time>2024-10-21T09:45:35Z</time>
      </trkpt>
      <trkpt lat="45.82864" lon="1.19572">
        <ele>297</ele>
        <time>2024-10-21T09:45:36Z</time>
      </trkpt>
      <trkpt lat="45.82865" lon="1.19573">
        <ele>297</ele>
        <time>2024-10-21T09:45:37Z</time>
      </trkpt>
      <trkpt lat="45.82866" lon="1.19575">
        <ele>297.1</ele>
        <time>2024-10-21T09:45:38Z</time>
      </trkpt>
      <trkpt lat="45.82867" lon="1.19575">
        <ele>297.1</ele>
        <time>2024-10-21T09:45:39Z</time>
      </trkpt>
      <trkpt lat="45.82868" lon="1.19576">
        <ele>297.1</ele>
        <time>2024-10-21T09:45:40Z</time>
      </trkpt>
      <trkpt lat="45.82869" lon="1.19577">
        <ele>297.1</ele>
        <time>2024-10-21T09:45:41Z</time>
      </trkpt>
      <trkpt lat="45.8287" lon="1.19578">
        <ele>297.1</ele>
        <time>2024-10-21T09:45:42Z</time>
      </trkpt>
      <trkpt lat="45.82872" lon="1.1958">
        <ele>297.1</ele>
        <time>2024-10-21T09:45:43Z</time>
      </trkpt>
      <trkpt lat="45.82872" lon="1.1958">
        <ele>297.1</ele>
        <time>2024-10-21T09:45:44Z</time>
      </trkpt>
      <trkpt lat="45.82873" lon="1.19581">
        <ele>297.1</ele>
        <time>2024-10-21T09:45:45Z</time>
      </trkpt>
      <trkpt lat="45.82875" lon="1.19583">
        <ele>297.1</ele>
        <time>2024-10-21T09:45:46Z</time>
      </trkpt>
      <trkpt lat="45.82876" lon="1.19583">
        <ele>297.1</ele>
        <time>2024-10-21T09:45:47Z</time>
      </trkpt>
      <trkpt lat="45.82876" lon="1.19584">
        <ele>297.1</ele>
        <time>2024-10-21T09:45:48Z</time>
      </trkpt>
      <trkpt lat="45.82878" lon="1.19586">
        <ele>297.1</ele>
        <time>2024-10-21T09:45:49Z</time>
      </trkpt>
      <trkpt lat="45.82879" lon="1.19586">
        <ele>297.1</ele>
        <time>2024-10-21T09:45:50Z</time>
      </trkpt>
      <trkpt lat="45.8288" lon="1.19587">
        <ele>297</ele>
        <time>2024-10-21T09:45:51Z</time>
      </trkpt>
      <trkpt lat="45.82881" lon="1.19589">
        <ele>297</ele>
        <time>2024-10-21T09:45:52Z</time>
      </trkpt>
      <trkpt lat="45.82882" lon="1.1959">
        <ele>297</ele>
        <time>2024-10-21T09:45:53Z</time>
      </trkpt>
      <trkpt lat="45.82882" lon="1.19591">
        <ele>297</ele>
        <time>2024-10-21T09:45:54Z</time>
      </trkpt>
      <trkpt lat="45.82883" lon="1.19592">
        <ele>297</ele>
        <time>2024-10-21T09:45:55Z</time>
      </trkpt>
      <trkpt lat="45.82884" lon="1.19594">
        <ele>297</ele>
        <time>2024-10-21T09:45:56Z</time>
      </trkpt>
      <trkpt lat="45.82885" lon="1.19597">
        <ele>297</ele>
        <time>2024-10-21T09:45:57Z</time>
      </trkpt>
      <trkpt lat="45.82885" lon="1.19598">
        <ele>297</ele>
        <time>2024-10-21T09:45:58Z</time>
      </trkpt>
      <trkpt lat="45.82886" lon="1.19599">
        <ele>297</ele>
        <time>2024-10-21T09:45:59Z</time>
      </trkpt>
      <trkpt lat="45.82886" lon="1.19601">
        <ele>297.1</ele>
        <time>2024-10-21T09:46:00Z</time>
      </trkpt>
      <trkpt lat="45.82886" lon="1.19604">
        <ele>297.1</ele>
        <time>2024-10-21T09:46:01Z</time>
      </trkpt>
      <trkpt lat="45.82887" lon="1.19606">
        <ele>297.1</ele>
        <time>2024-10-21T09:46:02Z</time>
      </trkpt>
      <trkpt lat="45.82887" lon="1.19608">
        <ele>297.1</ele>
        <time>2024-10-21T09:46:03Z</time>
      </trkpt>
      <trkpt lat="45.82887" lon="1.1961">
        <ele>297.1</ele>
        <time>2024-10-21T09:46:04Z</time>
      </trkpt>
      <trkpt lat="45.82887" lon="1.19612">
        <ele>297.1</ele>
        <time>2024-10-21T09:46:05Z</time>
      </trkpt>
      <trkpt lat="45.82888" lon="1.19616">
        <ele>297.1</ele>
        <time>2024-10-21T09:46:06Z</time>
      </trkpt>
      <trkpt lat="45.82888" lon="1.19617">
        <ele>297.1</ele>
        <time>2024-10-21T09:46:07Z</time>
      </trkpt>
      <trkpt lat="45.82888" lon="1.19618">
        <ele>297.1</ele>
        <time>2024-10-21T09:46:08Z</time>
      </trkpt>
      <trkpt lat="45.82889" lon="1.19621">
        <ele>297.1</ele>
        <time>2024-10-21T09:46:09Z</time>
      </trkpt>
      <trkpt lat="45.82889" lon="1.19622">
        <ele>297.1</ele>
        <time>2024-10-21T09:46:10Z</time>
      </trkpt>
      <trkpt lat="45.82889" lon="1.19623">
        <ele>297.1</ele>
        <time>2024-10-21T09:46:11Z</time>
      </trkpt>
      <trkpt lat="45.82889" lon="1.19625">
        <ele>297.1</ele>
        <time>2024-10-21T09:46:12Z</time>
      </trkpt>
      <trkpt lat="45.82889" lon="1.19627">
        <ele>297.1</ele>
        <time>2024-10-21T09:46:13Z</time>
      </trkpt>
      <trkpt lat="45.8289" lon="1.19628">
        <ele>297</ele>
        <time>2024-10-21T09:46:14Z</time>
      </trkpt>
      <trkpt lat="45.8289" lon="1.19631">
        <ele>297</ele>
        <time>2024-10-21T09:46:15Z</time>
      </trkpt>
      <trkpt lat="45.82891" lon="1.19632">
        <ele>297</ele>
        <time>2024-10-21T09:46:16Z</time>
      </trkpt>
      <trkpt lat="45.82891" lon="1.19633">
        <ele>297</ele>
        <time>2024-10-21T09:46:17Z</time>
      </trkpt>
      <trkpt lat="45.82891" lon="1.19636">
        <ele>297</ele>
        <time>2024-10-21T09:46:18Z</time>
      </trkpt>
      <trkpt lat="45.82892" lon="1.19637">
        <ele>297</ele>
        <time>2024-10-21T09:46:19Z</time>
      </trkpt>
      <trkpt lat="45.82892" lon="1.19638">
        <ele>297</ele>
        <time>2024-10-21T09:46:20Z</time>
      </trkpt>
      <trkpt lat="45.82892" lon="1.1964">
        <ele>297</ele>
        <time>2024-10-21T09:46:21Z</time>
      </trkpt>
      <trkpt lat="45.82893" lon="1.19642">
        <ele>296.9</ele>
        <time>2024-10-21T09:46:22Z</time>
      </trkpt>
      <trkpt lat="45.82893" lon="1.19645">
        <ele>296.9</ele>
        <time>2024-10-21T09:46:23Z</time>
      </trkpt>
      <trkpt lat="45.82894" lon="1.19647">
        <ele>296.9</ele>
        <time>2024-10-21T09:46:24Z</time>
      </trkpt>
      <trkpt lat="45.82894" lon="1.19648">
        <ele>296.9</ele>
        <time>2024-10-21T09:46:25Z</time>
      </trkpt>
      <trkpt lat="45.82895" lon="1.19651">
        <ele>296.8</ele>
        <time>2024-10-21T09:46:26Z</time>
      </trkpt>
      <trkpt lat="45.82895" lon="1.19652">
        <ele>296.8</ele>
        <time>2024-10-21T09:46:27Z</time>
      </trkpt>
      <trkpt lat="45.82896" lon="1.19653">
        <ele>296.8</ele>
        <time>2024-10-21T09:46:28Z</time>
      </trkpt>
      <trkpt lat="45.82897" lon="1.19655">
        <ele>296.8</ele>
        <time>2024-10-21T09:46:29Z</time>
      </trkpt>
      <trkpt lat="45.82897" lon="1.19657">
        <ele>296.7</ele>
        <time>2024-10-21T09:46:30Z</time>
      </trkpt>
      <trkpt lat="45.82897" lon="1.19658">
        <ele>296.7</ele>
        <time>2024-10-21T09:46:31Z</time>
      </trkpt>
      <trkpt lat="45.82898" lon="1.1966">
        <ele>296.7</ele>
        <time>2024-10-21T09:46:32Z</time>
      </trkpt>
      <trkpt lat="45.82898" lon="1.19662">
        <ele>296.6</ele>
        <time>2024-10-21T09:46:33Z</time>
      </trkpt>
      <trkpt lat="45.82898" lon="1.19663">
        <ele>296.6</ele>
        <time>2024-10-21T09:46:34Z</time>
      </trkpt>
      <trkpt lat="45.82899" lon="1.19664">
        <ele>296.6</ele>
        <time>2024-10-21T09:46:35Z</time>
      </trkpt>
      <trkpt lat="45.82899" lon="1.19667">
        <ele>296.5</ele>
        <time>2024-10-21T09:46:36Z</time>
      </trkpt>
      <trkpt lat="45.829" lon="1.19669">
        <ele>296.5</ele>
        <time>2024-10-21T09:46:37Z</time>
      </trkpt>
      <trkpt lat="45.829" lon="1.19671">
        <ele>296.4</ele>
        <time>2024-10-21T09:46:38Z</time>
      </trkpt>
      <trkpt lat="45.829" lon="1.19672">
        <ele>296.4</ele>
        <time>2024-10-21T09:46:39Z</time>
      </trkpt>
      <trkpt lat="45.82901" lon="1.19674">
        <ele>296.4</ele>
        <time>2024-10-21T09:46:40Z</time>
      </trkpt>
      <trkpt lat="45.82901" lon="1.19676">
        <ele>296.3</ele>
        <time>2024-10-21T09:46:41Z</time>
      </trkpt>
      <trkpt lat="45.82901" lon="1.19679">
        <ele>296.2</ele>
        <time>2024-10-21T09:46:42Z</time>
      </trkpt>
      <trkpt lat="45.82901" lon="1.1968">
        <ele>296.2</ele>
        <time>2024-10-21T09:46:43Z</time>
      </trkpt>
      <trkpt lat="45.82901" lon="1.19681">
        <ele>296.2</ele>
        <time>2024-10-21T09:46:44Z</time>
      </trkpt>
      <trkpt lat="45.82902" lon="1.19683">
        <ele>296.1</ele>
        <time>2024-10-21T09:46:45Z</time>
      </trkpt>
      <trkpt lat="45.82902" lon="1.19685">
        <ele>296</ele>
        <time>2024-10-21T09:46:46Z</time>
      </trkpt>
      <trkpt lat="45.82903" lon="1.19688">
        <ele>295.9</ele>
        <time>2024-10-21T09:46:47Z</time>
      </trkpt>
      <trkpt lat="45.82903" lon="1.1969">
        <ele>295.8</ele>
        <time>2024-10-21T09:46:48Z</time>
      </trkpt>
      <trkpt lat="45.82903" lon="1.19691">
        <ele>295.8</ele>
        <time>2024-10-21T09:46:49Z</time>
      </trkpt>
      <trkpt lat="45.82904" lon="1.19693">
        <ele>295.7</ele>
        <time>2024-10-21T09:46:50Z</time>
      </trkpt>
      <trkpt lat="45.82904" lon="1.19695">
        <ele>295.6</ele>
        <time>2024-10-21T09:46:51Z</time>
      </trkpt>
      <trkpt lat="45.82905" lon="1.19698">
        <ele>295.5</ele>
        <time>2024-10-21T09:46:52Z</time>
      </trkpt>
      <trkpt lat="45.82905" lon="1.19699">
        <ele>295.5</ele>
        <time>2024-10-21T09:46:53Z</time>
      </trkpt>
      <trkpt lat="45.82905" lon="1.197">
        <ele>295.4</ele>
        <time>2024-10-21T09:46:54Z</time>
      </trkpt>
      <trkpt lat="45.82905" lon="1.19702">
        <ele>295.3</ele>
        <time>2024-10-21T09:46:55Z</time>
      </trkpt>
      <trkpt lat="45.82905" lon="1.19705">
        <ele>295.2</ele>
        <time>2024-10-21T09:46:56Z</time>
      </trkpt>
      <trkpt lat="45.82906" lon="1.19707">
        <ele>295.1</ele>
        <time>2024-10-21T09:46:57Z</time>
      </trkpt>
      <trkpt lat="45.82906" lon="1.19709">
        <ele>295.1</ele>
        <time>2024-10-21T09:46:58Z</time>
      </trkpt>
      <trkpt lat="45.82906" lon="1.1971">
        <ele>295</ele>
        <time>2024-10-21T09:46:59Z</time>
      </trkpt>
      <trkpt lat="45.82906" lon="1.19712">
        <ele>294.9</ele>
        <time>2024-10-21T09:47:00Z</time>
      </trkpt>
      <trkpt lat="45.82906" lon="1.19713">
        <ele>294.9</ele>
        <time>2024-10-21T09:47:01Z</time>
      </trkpt>
      <trkpt lat="45.82906" lon="1.19715">
        <ele>294.8</ele>
        <time>2024-10-21T09:47:02Z</time>
      </trkpt>
      <trkpt lat="45.82906" lon="1.19716">
        <ele>294.7</ele>
        <time>2024-10-21T09:47:03Z</time>
      </trkpt>
      <trkpt lat="45.82906" lon="1.19718">
        <ele>294.7</ele>
        <time>2024-10-21T09:47:04Z</time>
      </trkpt>
      <trkpt lat="45.82907" lon="1.1972">
        <ele>294.6</ele>
        <time>2024-10-21T09:47:05Z</time>
      </trkpt>
      <trkpt lat="45.82908" lon="1.19722">
        <ele>294.4</ele>
        <time>2024-10-21T09:47:06Z</time>
      </trkpt>
      <trkpt lat="45.82908" lon="1.19723">
        <ele>294.4</ele>
        <time>2024-10-21T09:47:07Z</time>
      </trkpt>
      <trkpt lat="45.82909" lon="1.19725">
        <ele>294.3</ele>
        <time>2024-10-21T09:47:08Z</time>
      </trkpt>
      <trkpt lat="45.82909" lon="1.19727">
        <ele>294.1</ele>
        <time>2024-10-21T09:47:09Z</time>
      </trkpt>
      <trkpt lat="45.8291" lon="1.19729">
        <ele>294</ele>
        <time>2024-10-21T09:47:10Z</time>
      </trkpt>
      <trkpt lat="45.8291" lon="1.19732">
        <ele>293.9</ele>
        <time>2024-10-21T09:47:11Z</time>
      </trkpt>
      <trkpt lat="45.82911" lon="1.19734">
        <ele>293.7</ele>
        <time>2024-10-21T09:47:12Z</time>
      </trkpt>
      <trkpt lat="45.82911" lon="1.19735">
        <ele>293.7</ele>
        <time>2024-10-21T09:47:13Z</time>
      </trkpt>
      <trkpt lat="45.82911" lon="1.19737">
        <ele>293.6</ele>
        <time>2024-10-21T09:47:14Z</time>
      </trkpt>
      <trkpt lat="45.82912" lon="1.19738">
        <ele>293.5</ele>
        <time>2024-10-21T09:47:15Z</time>
      </trkpt>
      <trkpt lat="45.82912" lon="1.19741">
        <ele>293.3</ele>
        <time>2024-10-21T09:47:16Z</time>
      </trkpt>
      <trkpt lat="45.82914" lon="1.19745">
        <ele>293.1</ele>
        <time>2024-10-21T09:47:17Z</time>
      </trkpt>
      <trkpt lat="45.82914" lon="1.19746">
        <ele>293</ele>
        <time>2024-10-21T09:47:18Z</time>
      </trkpt>
      <trkpt lat="45.82914" lon="1.19748">
        <ele>292.9</ele>
        <time>2024-10-21T09:47:19Z</time>
      </trkpt>
      <trkpt lat="45.82914" lon="1.19748">
        <ele>292.9</ele>
        <time>2024-10-21T09:47:20Z</time>
      </trkpt>
      <trkpt lat="45.82915" lon="1.19751">
        <ele>292.7</ele>
        <time>2024-10-21T09:47:21Z</time>
      </trkpt>
      <trkpt lat="45.82915" lon="1.19754">
        <ele>292.5</ele>
        <time>2024-10-21T09:47:22Z</time>
      </trkpt>
      <trkpt lat="45.82915" lon="1.19755">
        <ele>292.5</ele>
        <time>2024-10-21T09:47:23Z</time>
      </trkpt>
      <trkpt lat="45.82916" lon="1.19756">
        <ele>292.4</ele>
        <time>2024-10-21T09:47:24Z</time>
      </trkpt>
      <trkpt lat="45.82916" lon="1.19758">
        <ele>292.3</ele>
        <time>2024-10-21T09:47:25Z</time>
      </trkpt>
      <trkpt lat="45.82916" lon="1.1976">
        <ele>292.1</ele>
        <time>2024-10-21T09:47:26Z</time>
      </trkpt>
      <trkpt lat="45.82917" lon="1.19763">
        <ele>292</ele>
        <time>2024-10-21T09:47:27Z</time>
      </trkpt>
      <trkpt lat="45.82917" lon="1.19765">
        <ele>291.9</ele>
        <time>2024-10-21T09:47:28Z</time>
      </trkpt>
      <trkpt lat="45.82917" lon="1.19766">
        <ele>291.8</ele>
        <time>2024-10-21T09:47:29Z</time>
      </trkpt>
      <trkpt lat="45.82918" lon="1.19769">
        <ele>291.6</ele>
        <time>2024-10-21T09:47:30Z</time>
      </trkpt>
      <trkpt lat="45.82918" lon="1.1977">
        <ele>291.6</ele>
        <time>2024-10-21T09:47:31Z</time>
      </trkpt>
      <trkpt lat="45.82918" lon="1.19771">
        <ele>291.5</ele>
        <time>2024-10-21T09:47:32Z</time>
      </trkpt>
      <trkpt lat="45.82919" lon="1.19774">
        <ele>291.3</ele>
        <time>2024-10-21T09:47:33Z</time>
      </trkpt>
      <trkpt lat="45.82919" lon="1.19775">
        <ele>291.2</ele>
        <time>2024-10-21T09:47:34Z</time>
      </trkpt>
      <trkpt lat="45.8292" lon="1.19777">
        <ele>291.2</ele>
        <time>2024-10-21T09:47:35Z</time>
      </trkpt>
      <trkpt lat="45.8292" lon="1.1978">
        <ele>291</ele>
        <time>2024-10-21T09:47:36Z</time>
      </trkpt>
      <trkpt lat="45.8292" lon="1.19781">
        <ele>290.9</ele>
        <time>2024-10-21T09:47:37Z</time>
      </trkpt>
      <trkpt lat="45.8292" lon="1.19782">
        <ele>290.9</ele>
        <time>2024-10-21T09:47:38Z</time>
      </trkpt>
      <trkpt lat="45.8292" lon="1.19785">
        <ele>290.7</ele>
        <time>2024-10-21T09:47:39Z</time>
      </trkpt>
      <trkpt lat="45.8292" lon="1.19786">
        <ele>290.6</ele>
        <time>2024-10-21T09:47:40Z</time>
      </trkpt>
      <trkpt lat="45.8292" lon="1.19788">
        <ele>290.6</ele>
        <time>2024-10-21T09:47:41Z</time>
      </trkpt>
      <trkpt lat="45.8292" lon="1.19789">
        <ele>290.5</ele>
        <time>2024-10-21T09:47:42Z</time>
      </trkpt>
      <trkpt lat="45.82921" lon="1.19793">
        <ele>290.3</ele>
        <time>2024-10-21T09:47:43Z</time>
      </trkpt>
      <trkpt lat="45.82921" lon="1.19793">
        <ele>290.3</ele>
        <time>2024-10-21T09:47:44Z</time>
      </trkpt>
      <trkpt lat="45.82921" lon="1.19795">
        <ele>290.2</ele>
        <time>2024-10-21T09:47:45Z</time>
      </trkpt>
      <trkpt lat="45.82922" lon="1.19797">
        <ele>290</ele>
        <time>2024-10-21T09:47:46Z</time>
      </trkpt>
      <trkpt lat="45.82922" lon="1.19798">
        <ele>290</ele>
        <time>2024-10-21T09:47:47Z</time>
      </trkpt>
      <trkpt lat="45.82922" lon="1.198">
        <ele>289.9</ele>
        <time>2024-10-21T09:47:48Z</time>
      </trkpt>
      <trkpt lat="45.82923" lon="1.19802">
        <ele>289.8</ele>
        <time>2024-10-21T09:47:49Z</time>
      </trkpt>
      <trkpt lat="45.82923" lon="1.19804">
        <ele>289.7</ele>
        <time>2024-10-21T09:47:50Z</time>
      </trkpt>
      <trkpt lat="45.82923" lon="1.19806">
        <ele>289.6</ele>
        <time>2024-10-21T09:47:51Z</time>
      </trkpt>
      <trkpt lat="45.82923" lon="1.19808">
        <ele>289.5</ele>
        <time>2024-10-21T09:47:52Z</time>
      </trkpt>
      <trkpt lat="45.82923" lon="1.19809">
        <ele>289.4</ele>
        <time>2024-10-21T09:47:53Z</time>
      </trkpt>
      <trkpt lat="45.82923" lon="1.19811">
        <ele>289.3</ele>
        <time>2024-10-21T09:47:54Z</time>
      </trkpt>
      <trkpt lat="45.82924" lon="1.19813">
        <ele>289.2</ele>
        <time>2024-10-21T09:47:55Z</time>
      </trkpt>
      <trkpt lat="45.82924" lon="1.19815">
        <ele>289.1</ele>
        <time>2024-10-21T09:47:56Z</time>
      </trkpt>
      <trkpt lat="45.82923" lon="1.19817">
        <ele>289</ele>
        <time>2024-10-21T09:47:57Z</time>
      </trkpt>
      <trkpt lat="45.82923" lon="1.19818">
        <ele>289</ele>
        <time>2024-10-21T09:47:58Z</time>
      </trkpt>
      <trkpt lat="45.82923" lon="1.19819">
        <ele>288.9</ele>
        <time>2024-10-21T09:47:59Z</time>
      </trkpt>
      <trkpt lat="45.82924" lon="1.1982">
        <ele>288.9</ele>
        <time>2024-10-21T09:48:00Z</time>
      </trkpt>
      <trkpt lat="45.82924" lon="1.19824">
        <ele>288.7</ele>
        <time>2024-10-21T09:48:01Z</time>
      </trkpt>
      <trkpt lat="45.82925" lon="1.19825">
        <ele>288.7</ele>
        <time>2024-10-21T09:48:02Z</time>
      </trkpt>
      <trkpt lat="45.82925" lon="1.19827">
        <ele>288.6</ele>
        <time>2024-10-21T09:48:03Z</time>
      </trkpt>
      <trkpt lat="45.82926" lon="1.19828">
        <ele>288.6</ele>
        <time>2024-10-21T09:48:04Z</time>
      </trkpt>
      <trkpt lat="45.82926" lon="1.19829">
        <ele>288.5</ele>
        <time>2024-10-21T09:48:05Z</time>
      </trkpt>
      <trkpt lat="45.82926" lon="1.19831">
        <ele>288.4</ele>
        <time>2024-10-21T09:48:06Z</time>
      </trkpt>
      <trkpt lat="45.82927" lon="1.19833">
        <ele>288.3</ele>
        <time>2024-10-21T09:48:07Z</time>
      </trkpt>
      <trkpt lat="45.82927" lon="1.19836">
        <ele>288.2</ele>
        <time>2024-10-21T09:48:08Z</time>
      </trkpt>
      <trkpt lat="45.82927" lon="1.19839">
        <ele>288.1</ele>
        <time>2024-10-21T09:48:09Z</time>
      </trkpt>
      <trkpt lat="45.82927" lon="1.1984">
        <ele>288.1</ele>
        <time>2024-10-21T09:48:10Z</time>
      </trkpt>
      <trkpt lat="45.82927" lon="1.19841">
        <ele>288</ele>
        <time>2024-10-21T09:48:11Z</time>
      </trkpt>
      <trkpt lat="45.82927" lon="1.19844">
        <ele>287.9</ele>
        <time>2024-10-21T09:48:12Z</time>
      </trkpt>
      <trkpt lat="45.82927" lon="1.19846">
        <ele>287.8</ele>
        <time>2024-10-21T09:48:13Z</time>
      </trkpt>
      <trkpt lat="45.82926" lon="1.19847">
        <ele>287.8</ele>
        <time>2024-10-21T09:48:14Z</time>
      </trkpt>
      <trkpt lat="45.82926" lon="1.19849">
        <ele>287.7</ele>
        <time>2024-10-21T09:48:15Z</time>
      </trkpt>
      <trkpt lat="45.82924" lon="1.19852">
        <ele>287.6</ele>
        <time>2024-10-21T09:48:16Z</time>
      </trkpt>
      <trkpt lat="45.82924" lon="1.19853">
        <ele>287.5</ele>
        <time>2024-10-21T09:48:17Z</time>
      </trkpt>
      <trkpt lat="45.82923" lon="1.19854">
        <ele>287.5</ele>
        <time>2024-10-21T09:48:18Z</time>
      </trkpt>
      <trkpt lat="45.82923" lon="1.19855">
        <ele>287.4</ele>
        <time>2024-10-21T09:48:19Z</time>
      </trkpt>
      <trkpt lat="45.82922" lon="1.19856">
        <ele>287.4</ele>
        <time>2024-10-21T09:48:20Z</time>
      </trkpt>
      <trkpt lat="45.82922" lon="1.19858">
        <ele>287.3</ele>
        <time>2024-10-21T09:48:21Z</time>
      </trkpt>
      <trkpt lat="45.82922" lon="1.1986">
        <ele>287.2</ele>
        <time>2024-10-21T09:48:22Z</time>
      </trkpt>
      <trkpt lat="45.82922" lon="1.19863">
        <ele>287.1</ele>
        <time>2024-10-21T09:48:23Z</time>
      </trkpt>
      <trkpt lat="45.82922" lon="1.19864">
        <ele>287.1</ele>
        <time>2024-10-21T09:48:24Z</time>
      </trkpt>
      <trkpt lat="45.82923" lon="1.19866">
        <ele>287</ele>
        <time>2024-10-21T09:48:25Z</time>
      </trkpt>
      <trkpt lat="45.82923" lon="1.19868">
        <ele>286.9</ele>
        <time>2024-10-21T09:48:26Z</time>
      </trkpt>
      <trkpt lat="45.82924" lon="1.19869">
        <ele>286.9</ele>
        <time>2024-10-21T09:48:27Z</time>
      </trkpt>
      <trkpt lat="45.82925" lon="1.1987">
        <ele>286.8</ele>
        <time>2024-10-21T09:48:28Z</time>
      </trkpt>
      <trkpt lat="45.82925" lon="1.19871">
        <ele>286.7</ele>
        <time>2024-10-21T09:48:29Z</time>
      </trkpt>
      <trkpt lat="45.82926" lon="1.19872">
        <ele>286.7</ele>
        <time>2024-10-21T09:48:30Z</time>
      </trkpt>
      <trkpt lat="45.82927" lon="1.19873">
        <ele>286.6</ele>
        <time>2024-10-21T09:48:31Z</time>
      </trkpt>
      <trkpt lat="45.82927" lon="1.19875">
        <ele>286.5</ele>
        <time>2024-10-21T09:48:32Z</time>
      </trkpt>
      <trkpt lat="45.82929" lon="1.19879">
        <ele>286.3</ele>
        <time>2024-10-21T09:48:33Z</time>
      </trkpt>
      <trkpt lat="45.8293" lon="1.19881">
        <ele>286.2</ele>
        <time>2024-10-21T09:48:34Z</time>
      </trkpt>
      <trkpt lat="45.8293" lon="1.19882">
        <ele>286.2</ele>
        <time>2024-10-21T09:48:35Z</time>
      </trkpt>
      <trkpt lat="45.8293" lon="1.19883">
        <ele>286.2</ele>
        <time>2024-10-21T09:48:36Z</time>
      </trkpt>
      <trkpt lat="45.8293" lon="1.19884">
        <ele>286.1</ele>
        <time>2024-10-21T09:48:37Z</time>
      </trkpt>
      <trkpt lat="45.8293" lon="1.19884">
        <ele>286.1</ele>
        <time>2024-10-21T09:48:38Z</time>
      </trkpt>
      <trkpt lat="45.8293" lon="1.19886">
        <ele>286</ele>
        <time>2024-10-21T09:48:39Z</time>
      </trkpt>
      <trkpt lat="45.82931" lon="1.19889">
        <ele>285.9</ele>
        <time>2024-10-21T09:48:40Z</time>
      </trkpt>
      <trkpt lat="45.82931" lon="1.19892">
        <ele>285.8</ele>
        <time>2024-10-21T09:48:41Z</time>
      </trkpt>
      <trkpt lat="45.82932" lon="1.19893">
        <ele>285.7</ele>
        <time>2024-10-21T09:48:42Z</time>
      </trkpt>
      <trkpt lat="45.82932" lon="1.19894">
        <ele>285.7</ele>
        <time>2024-10-21T09:48:43Z</time>
      </trkpt>
      <trkpt lat="45.82932" lon="1.19896">
        <ele>285.6</ele>
        <time>2024-10-21T09:48:44Z</time>
      </trkpt>
      <trkpt lat="45.82932" lon="1.19899">
        <ele>285.5</ele>
        <time>2024-10-21T09:48:45Z</time>
      </trkpt>
      <trkpt lat="45.82932" lon="1.19902">
        <ele>285.4</ele>
        <time>2024-10-21T09:48:46Z</time>
      </trkpt>
      <trkpt lat="45.82932" lon="1.19903">
        <ele>285.3</ele>
        <time>2024-10-21T09:48:47Z</time>
      </trkpt>
      <trkpt lat="45.82932" lon="1.19905">
        <ele>285.3</ele>
        <time>2024-10-21T09:48:48Z</time>
      </trkpt>
      <trkpt lat="45.82932" lon="1.19907">
        <ele>285.2</ele>
        <time>2024-10-21T09:48:49Z</time>
      </trkpt>
      <trkpt lat="45.82932" lon="1.19909">
        <ele>285.1</ele>
        <time>2024-10-21T09:48:50Z</time>
      </trkpt>
      <trkpt lat="45.82932" lon="1.19913">
        <ele>285</ele>
        <time>2024-10-21T09:48:51Z</time>
      </trkpt>
      <trkpt lat="45.82932" lon="1.19914">
        <ele>284.9</ele>
        <time>2024-10-21T09:48:52Z</time>
      </trkpt>
      <trkpt lat="45.82932" lon="1.19916">
        <ele>284.8</ele>
        <time>2024-10-21T09:48:53Z</time>
      </trkpt>
      <trkpt lat="45.82932" lon="1.19918">
        <ele>284.7</ele>
        <time>2024-10-21T09:48:54Z</time>
      </trkpt>
      <trkpt lat="45.82932" lon="1.1992">
        <ele>284.7</ele>
        <time>2024-10-21T09:48:55Z</time>
      </trkpt>
      <trkpt lat="45.82933" lon="1.19921">
        <ele>284.6</ele>
        <time>2024-10-21T09:48:56Z</time>
      </trkpt>
      <trkpt lat="45.82933" lon="1.19923">
        <ele>284.5</ele>
        <time>2024-10-21T09:48:57Z</time>
      </trkpt>
      <trkpt lat="45.82933" lon="1.19924">
        <ele>284.5</ele>
        <time>2024-10-21T09:48:58Z</time>
      </trkpt>
      <trkpt lat="45.82934" lon="1.19926">
        <ele>284.4</ele>
        <time>2024-10-21T09:48:59Z</time>
      </trkpt>
      <trkpt lat="45.82934" lon="1.19928">
        <ele>284.3</ele>
        <time>2024-10-21T09:49:00Z</time>
      </trkpt>
      <trkpt lat="45.82934" lon="1.1993">
        <ele>284.3</ele>
        <time>2024-10-21T09:49:01Z</time>
      </trkpt>
      <trkpt lat="45.82934" lon="1.19932">
        <ele>284.2</ele>
        <time>2024-10-21T09:49:02Z</time>
      </trkpt>
      <trkpt lat="45.82933" lon="1.19934">
        <ele>284.1</ele>
        <time>2024-10-21T09:49:03Z</time>
      </trkpt>
      <trkpt lat="45.82933" lon="1.19936">
        <ele>284</ele>
        <time>2024-10-21T09:49:04Z</time>
      </trkpt>
      <trkpt lat="45.82933" lon="1.19938">
        <ele>283.9</ele>
        <time>2024-10-21T09:49:05Z</time>
      </trkpt>
      <trkpt lat="45.82934" lon="1.1994">
        <ele>283.8</ele>
        <time>2024-10-21T09:49:06Z</time>
      </trkpt>
      <trkpt lat="45.82934" lon="1.19942">
        <ele>283.8</ele>
        <time>2024-10-21T09:49:07Z</time>
      </trkpt>
      <trkpt lat="45.82934" lon="1.19944">
        <ele>283.7</ele>
        <time>2024-10-21T09:49:08Z</time>
      </trkpt>
      <trkpt lat="45.82934" lon="1.19946">
        <ele>283.6</ele>
        <time>2024-10-21T09:49:09Z</time>
      </trkpt>
      <trkpt lat="45.82934" lon="1.19948">
        <ele>283.5</ele>
        <time>2024-10-21T09:49:10Z</time>
      </trkpt>
      <trkpt lat="45.82934" lon="1.19949">
        <ele>283.5</ele>
        <time>2024-10-21T09:49:11Z</time>
      </trkpt>
      <trkpt lat="45.82933" lon="1.19952">
        <ele>283.4</ele>
        <time>2024-10-21T09:49:12Z</time>
      </trkpt>
      <trkpt lat="45.82933" lon="1.19953">
        <ele>283.3</ele>
        <time>2024-10-21T09:49:13Z</time>
      </trkpt>
      <trkpt lat="45.82933" lon="1.19954">
        <ele>283.3</ele>
        <time>2024-10-21T09:49:14Z</time>
      </trkpt>
      <trkpt lat="45.82933" lon="1.19958">
        <ele>283.2</ele>
        <time>2024-10-21T09:49:15Z</time>
      </trkpt>
      <trkpt lat="45.82933" lon="1.19959">
        <ele>283.1</ele>
        <time>2024-10-21T09:49:16Z</time>
      </trkpt>
      <trkpt lat="45.82933" lon="1.1996">
        <ele>283.1</ele>
        <time>2024-10-21T09:49:17Z</time>
      </trkpt>
      <trkpt lat="45.82934" lon="1.19963">
        <ele>283</ele>
        <time>2024-10-21T09:49:18Z</time>
      </trkpt>
      <trkpt lat="45.82934" lon="1.19964">
        <ele>282.9</ele>
        <time>2024-10-21T09:49:19Z</time>
      </trkpt>
      <trkpt lat="45.82934" lon="1.19965">
        <ele>282.9</ele>
        <time>2024-10-21T09:49:20Z</time>
      </trkpt>
      <trkpt lat="45.82935" lon="1.19969">
        <ele>282.7</ele>
        <time>2024-10-21T09:49:21Z</time>
      </trkpt>
      <trkpt lat="45.82935" lon="1.1997">
        <ele>282.7</ele>
        <time>2024-10-21T09:49:22Z</time>
      </trkpt>
      <trkpt lat="45.82935" lon="1.19971">
        <ele>282.6</ele>
        <time>2024-10-21T09:49:23Z</time>
      </trkpt>
      <trkpt lat="45.82935" lon="1.19973">
        <ele>282.6</ele>
        <time>2024-10-21T09:49:24Z</time>
      </trkpt>
      <trkpt lat="45.82936" lon="1.19976">
        <ele>282.5</ele>
        <time>2024-10-21T09:49:25Z</time>
      </trkpt>
      <trkpt lat="45.82936" lon="1.19977">
        <ele>282.4</ele>
        <time>2024-10-21T09:49:26Z</time>
      </trkpt>
      <trkpt lat="45.82937" lon="1.1998">
        <ele>282.3</ele>
        <time>2024-10-21T09:49:27Z</time>
      </trkpt>
      <trkpt lat="45.82937" lon="1.19983">
        <ele>282.2</ele>
        <time>2024-10-21T09:49:28Z</time>
      </trkpt>
      <trkpt lat="45.82937" lon="1.19984">
        <ele>282.2</ele>
        <time>2024-10-21T09:49:29Z</time>
      </trkpt>
      <trkpt lat="45.82937" lon="1.19986">
        <ele>282.1</ele>
        <time>2024-10-21T09:49:30Z</time>
      </trkpt>
      <trkpt lat="45.82937" lon="1.19988">
        <ele>282</ele>
        <time>2024-10-21T09:49:31Z</time>
      </trkpt>
      <trkpt lat="45.82937" lon="1.19991">
        <ele>281.9</ele>
        <time>2024-10-21T09:49:32Z</time>
      </trkpt>
      <trkpt lat="45.82937" lon="1.19992">
        <ele>281.9</ele>
        <time>2024-10-21T09:49:33Z</time>
      </trkpt>
      <trkpt lat="45.82937" lon="1.19994">
        <ele>281.8</ele>
        <time>2024-10-21T09:49:34Z</time>
      </trkpt>
      <trkpt lat="45.82937" lon="1.19996">
        <ele>281.7</ele>
        <time>2024-10-21T09:49:35Z</time>
      </trkpt>
      <trkpt lat="45.82937" lon="1.19998">
        <ele>281.7</ele>
        <time>2024-10-21T09:49:36Z</time>
      </trkpt>
      <trkpt lat="45.82937" lon="1.2">
        <ele>281.6</ele>
        <time>2024-10-21T09:49:37Z</time>
      </trkpt>
      <trkpt lat="45.82937" lon="1.20003">
        <ele>281.5</ele>
        <time>2024-10-21T09:49:38Z</time>
      </trkpt>
      <trkpt lat="45.82937" lon="1.20004">
        <ele>281.4</ele>
        <time>2024-10-21T09:49:39Z</time>
      </trkpt>
      <trkpt lat="45.82937" lon="1.20006">
        <ele>281.4</ele>
        <time>2024-10-21T09:49:40Z</time>
      </trkpt>
      <trkpt lat="45.82937" lon="1.20008">
        <ele>281.3</ele>
        <time>2024-10-21T09:49:41Z</time>
      </trkpt>
      <trkpt lat="45.82937" lon="1.20011">
        <ele>281.2</ele>
        <time>2024-10-21T09:49:42Z</time>
      </trkpt>
      <trkpt lat="45.82937" lon="1.20012">
        <ele>281.2</ele>
        <time>2024-10-21T09:49:43Z</time>
      </trkpt>
      <trkpt lat="45.82937" lon="1.20014">
        <ele>281.1</ele>
        <time>2024-10-21T09:49:44Z</time>
      </trkpt>
      <trkpt lat="45.82937" lon="1.20016">
        <ele>281.1</ele>
        <time>2024-10-21T09:49:45Z</time>
      </trkpt>
      <trkpt lat="45.82937" lon="1.20018">
        <ele>281</ele>
        <time>2024-10-21T09:49:46Z</time>
      </trkpt>
      <trkpt lat="45.82937" lon="1.2002">
        <ele>280.9</ele>
        <time>2024-10-21T09:49:47Z</time>
      </trkpt>
      <trkpt lat="45.82937" lon="1.20022">
        <ele>280.9</ele>
        <time>2024-10-21T09:49:48Z</time>
      </trkpt>
      <trkpt lat="45.82937" lon="1.20023">
        <ele>280.8</ele>
        <time>2024-10-21T09:49:49Z</time>
      </trkpt>
      <trkpt lat="45.82936" lon="1.20025">
        <ele>280.8</ele>
        <time>2024-10-21T09:49:50Z</time>
      </trkpt>
      <trkpt lat="45.82936" lon="1.20027">
        <ele>280.7</ele>
        <time>2024-10-21T09:49:51Z</time>
      </trkpt>
      <trkpt lat="45.82936" lon="1.2003">
        <ele>280.6</ele>
        <time>2024-10-21T09:49:52Z</time>
      </trkpt>
      <trkpt lat="45.82936" lon="1.20032">
        <ele>280.6</ele>
        <time>2024-10-21T09:49:53Z</time>
      </trkpt>
      <trkpt lat="45.82936" lon="1.20034">
        <ele>280.5</ele>
        <time>2024-10-21T09:49:54Z</time>
      </trkpt>
      <trkpt lat="45.82936" lon="1.20035">
        <ele>280.5</ele>
        <time>2024-10-21T09:49:55Z</time>
      </trkpt>
      <trkpt lat="45.82937" lon="1.20038">
        <ele>280.4</ele>
        <time>2024-10-21T09:49:56Z</time>
      </trkpt>
      <trkpt lat="45.82937" lon="1.20039">
        <ele>280.4</ele>
        <time>2024-10-21T09:49:57Z</time>
      </trkpt>
      <trkpt lat="45.82937" lon="1.2004">
        <ele>280.3</ele>
        <time>2024-10-21T09:49:58Z</time>
      </trkpt>
      <trkpt lat="45.82937" lon="1.20043">
        <ele>280.2</ele>
        <time>2024-10-21T09:49:59Z</time>
      </trkpt>
      <trkpt lat="45.82937" lon="1.20045">
        <ele>280.2</ele>
        <time>2024-10-21T09:50:00Z</time>
      </trkpt>
      <trkpt lat="45.82937" lon="1.20046">
        <ele>280.1</ele>
        <time>2024-10-21T09:50:01Z</time>
      </trkpt>
      <trkpt lat="45.82937" lon="1.20049">
        <ele>280.1</ele>
        <time>2024-10-21T09:50:02Z</time>
      </trkpt>
      <trkpt lat="45.82937" lon="1.2005">
        <ele>280</ele>
        <time>2024-10-21T09:50:03Z</time>
      </trkpt>
      <trkpt lat="45.82937" lon="1.20052">
        <ele>280</ele>
        <time>2024-10-21T09:50:04Z</time>
      </trkpt>
      <trkpt lat="45.82938" lon="1.20055">
        <ele>279.9</ele>
        <time>2024-10-21T09:50:05Z</time>
      </trkpt>
      <trkpt lat="45.82938" lon="1.20057">
        <ele>279.9</ele>
        <time>2024-10-21T09:50:06Z</time>
      </trkpt>
      <trkpt lat="45.82939" lon="1.20059">
        <ele>279.8</ele>
        <time>2024-10-21T09:50:07Z</time>
      </trkpt>
      <trkpt lat="45.82939" lon="1.2006">
        <ele>279.7</ele>
        <time>2024-10-21T09:50:08Z</time>
      </trkpt>
      <trkpt lat="45.8294" lon="1.20062">
        <ele>279.7</ele>
        <time>2024-10-21T09:50:09Z</time>
      </trkpt>
      <trkpt lat="45.8294" lon="1.20065">
        <ele>279.6</ele>
        <time>2024-10-21T09:50:10Z</time>
      </trkpt>
      <trkpt lat="45.82941" lon="1.20067">
        <ele>279.6</ele>
        <time>2024-10-21T09:50:11Z</time>
      </trkpt>
      <trkpt lat="45.82941" lon="1.20069">
        <ele>279.5</ele>
        <time>2024-10-21T09:50:12Z</time>
      </trkpt>
      <trkpt lat="45.82941" lon="1.20071">
        <ele>279.5</ele>
        <time>2024-10-21T09:50:13Z</time>
      </trkpt>
      <trkpt lat="45.82942" lon="1.20072">
        <ele>279.5</ele>
        <time>2024-10-21T09:50:14Z</time>
      </trkpt>
      <trkpt lat="45.82942" lon="1.20074">
        <ele>279.4</ele>
        <time>2024-10-21T09:50:15Z</time>
      </trkpt>
      <trkpt lat="45.82942" lon="1.20077">
        <ele>279.3</ele>
        <time>2024-10-21T09:50:16Z</time>
      </trkpt>
      <trkpt lat="45.82942" lon="1.20078">
        <ele>279.3</ele>
        <time>2024-10-21T09:50:17Z</time>
      </trkpt>
      <trkpt lat="45.82943" lon="1.20081">
        <ele>279.2</ele>
        <time>2024-10-21T09:50:18Z</time>
      </trkpt>
      <trkpt lat="45.82943" lon="1.20083">
        <ele>279.2</ele>
        <time>2024-10-21T09:50:19Z</time>
      </trkpt>
      <trkpt lat="45.82943" lon="1.20085">
        <ele>279.1</ele>
        <time>2024-10-21T09:50:20Z</time>
      </trkpt>
      <trkpt lat="45.82943" lon="1.20087">
        <ele>279.1</ele>
        <time>2024-10-21T09:50:21Z</time>
      </trkpt>
      <trkpt lat="45.82943" lon="1.20089">
        <ele>279</ele>
        <time>2024-10-21T09:50:22Z</time>
      </trkpt>
      <trkpt lat="45.82943" lon="1.20091">
        <ele>279</ele>
        <time>2024-10-21T09:50:23Z</time>
      </trkpt>
      <trkpt lat="45.82944" lon="1.20093">
        <ele>278.9</ele>
        <time>2024-10-21T09:50:24Z</time>
      </trkpt>
      <trkpt lat="45.82943" lon="1.20094">
        <ele>278.9</ele>
        <time>2024-10-21T09:50:25Z</time>
      </trkpt>
      <trkpt lat="45.82943" lon="1.20096">
        <ele>278.9</ele>
        <time>2024-10-21T09:50:26Z</time>
      </trkpt>
      <trkpt lat="45.82943" lon="1.20097">
        <ele>278.8</ele>
        <time>2024-10-21T09:50:27Z</time>
      </trkpt>
      <trkpt lat="45.82943" lon="1.20099">
        <ele>278.8</ele>
        <time>2024-10-21T09:50:28Z</time>
      </trkpt>
      <trkpt lat="45.82943" lon="1.20101">
        <ele>278.7</ele>
        <time>2024-10-21T09:50:29Z</time>
      </trkpt>
      <trkpt lat="45.82943" lon="1.20104">
        <ele>278.6</ele>
        <time>2024-10-21T09:50:30Z</time>
      </trkpt>
      <trkpt lat="45.82943" lon="1.20105">
        <ele>278.6</ele>
        <time>2024-10-21T09:50:31Z</time>
      </trkpt>
      <trkpt lat="45.82943" lon="1.20107">
        <ele>278.6</ele>
        <time>2024-10-21T09:50:32Z</time>
      </trkpt>
      <trkpt lat="45.82944" lon="1.20109">
        <ele>278.5</ele>
        <time>2024-10-21T09:50:33Z</time>
      </trkpt>
      <trkpt lat="45.82944" lon="1.20111">
        <ele>278.5</ele>
        <time>2024-10-21T09:50:34Z</time>
      </trkpt>
      <trkpt lat="45.82944" lon="1.20113">
        <ele>278.4</ele>
        <time>2024-10-21T09:50:35Z</time>
      </trkpt>
      <trkpt lat="45.82945" lon="1.20115">
        <ele>278.3</ele>
        <time>2024-10-21T09:50:36Z</time>
      </trkpt>
      <trkpt lat="45.82945" lon="1.20117">
        <ele>278.3</ele>
        <time>2024-10-21T09:50:38Z</time>
      </trkpt>
      <trkpt lat="45.82945" lon="1.20119">
        <ele>278.3</ele>
        <time>2024-10-21T09:50:39Z</time>
      </trkpt>
      <trkpt lat="45.82945" lon="1.20121">
        <ele>278.3</ele>
        <time>2024-10-21T09:50:40Z</time>
      </trkpt>
      <trkpt lat="45.82945" lon="1.20123">
        <ele>278.3</ele>
        <time>2024-10-21T09:50:41Z</time>
      </trkpt>
      <trkpt lat="45.82946" lon="1.20125">
        <ele>278.3</ele>
        <time>2024-10-21T09:50:42Z</time>
      </trkpt>
      <trkpt lat="45.82946" lon="1.20127">
        <ele>278.3</ele>
        <time>2024-10-21T09:50:43Z</time>
      </trkpt>
      <trkpt lat="45.82946" lon="1.20129">
        <ele>278.2</ele>
        <time>2024-10-21T09:50:44Z</time>
      </trkpt>
      <trkpt lat="45.82947" lon="1.20133">
        <ele>278.1</ele>
        <time>2024-10-21T09:50:45Z</time>
      </trkpt>
      <trkpt lat="45.82947" lon="1.20136">
        <ele>278</ele>
        <time>2024-10-21T09:50:46Z</time>
      </trkpt>
      <trkpt lat="45.82948" lon="1.20138">
        <ele>277.9</ele>
        <time>2024-10-21T09:50:47Z</time>
      </trkpt>
      <trkpt lat="45.82948" lon="1.2014">
        <ele>277.8</ele>
        <time>2024-10-21T09:50:48Z</time>
      </trkpt>
      <trkpt lat="45.82949" lon="1.20141">
        <ele>277.8</ele>
        <time>2024-10-21T09:50:49Z</time>
      </trkpt>
      <trkpt lat="45.8295" lon="1.20144">
        <ele>277.7</ele>
        <time>2024-10-21T09:50:50Z</time>
      </trkpt>
      <trkpt lat="45.8295" lon="1.20146">
        <ele>277.6</ele>
        <time>2024-10-21T09:50:52Z</time>
      </trkpt>
      <trkpt lat="45.8295" lon="1.20147">
        <ele>277.6</ele>
        <time>2024-10-21T09:50:53Z</time>
      </trkpt>
      <trkpt lat="45.82951" lon="1.20149">
        <ele>277.5</ele>
        <time>2024-10-21T09:50:54Z</time>
      </trkpt>
      <trkpt lat="45.82951" lon="1.2015">
        <ele>277.4</ele>
        <time>2024-10-21T09:50:55Z</time>
      </trkpt>
      <trkpt lat="45.82952" lon="1.20152">
        <ele>277.4</ele>
        <time>2024-10-21T09:50:56Z</time>
      </trkpt>
      <trkpt lat="45.82952" lon="1.20154">
        <ele>277.3</ele>
        <time>2024-10-21T09:50:57Z</time>
      </trkpt>
      <trkpt lat="45.82953" lon="1.20157">
        <ele>277.2</ele>
        <time>2024-10-21T09:50:58Z</time>
      </trkpt>
      <trkpt lat="45.82953" lon="1.20158">
        <ele>277.1</ele>
        <time>2024-10-21T09:50:59Z</time>
      </trkpt>
      <trkpt lat="45.82954" lon="1.20159">
        <ele>277.1</ele>
        <time>2024-10-21T09:51:00Z</time>
      </trkpt>
      <trkpt lat="45.82955" lon="1.20162">
        <ele>276.9</ele>
        <time>2024-10-21T09:51:01Z</time>
      </trkpt>
      <trkpt lat="45.82955" lon="1.20163">
        <ele>276.9</ele>
        <time>2024-10-21T09:51:02Z</time>
      </trkpt>
      <trkpt lat="45.82955" lon="1.20164">
        <ele>276.9</ele>
        <time>2024-10-21T09:51:03Z</time>
      </trkpt>
      <trkpt lat="45.82957" lon="1.20167">
        <ele>276.7</ele>
        <time>2024-10-21T09:51:04Z</time>
      </trkpt>
      <trkpt lat="45.82957" lon="1.20168">
        <ele>276.7</ele>
        <time>2024-10-21T09:51:05Z</time>
      </trkpt>
      <trkpt lat="45.82958" lon="1.20169">
        <ele>276.6</ele>
        <time>2024-10-21T09:51:06Z</time>
      </trkpt>
      <trkpt lat="45.82959" lon="1.20171">
        <ele>276.5</ele>
        <time>2024-10-21T09:51:07Z</time>
      </trkpt>
      <trkpt lat="45.8296" lon="1.20172">
        <ele>276.5</ele>
        <time>2024-10-21T09:51:08Z</time>
      </trkpt>
      <trkpt lat="45.8296" lon="1.20173">
        <ele>276.4</ele>
        <time>2024-10-21T09:51:09Z</time>
      </trkpt>
      <trkpt lat="45.82962" lon="1.20176">
        <ele>276.3</ele>
        <time>2024-10-21T09:51:10Z</time>
      </trkpt>
      <trkpt lat="45.82962" lon="1.20177">
        <ele>276.2</ele>
        <time>2024-10-21T09:51:11Z</time>
      </trkpt>
      <trkpt lat="45.82963" lon="1.20178">
        <ele>276.2</ele>
        <time>2024-10-21T09:51:12Z</time>
      </trkpt>
      <trkpt lat="45.82963" lon="1.20179">
        <ele>276.1</ele>
        <time>2024-10-21T09:51:13Z</time>
      </trkpt>
      <trkpt lat="45.82964" lon="1.2018">
        <ele>276.1</ele>
        <time>2024-10-21T09:51:14Z</time>
      </trkpt>
      <trkpt lat="45.82965" lon="1.20182">
        <ele>276</ele>
        <time>2024-10-21T09:51:15Z</time>
      </trkpt>
      <trkpt lat="45.82965" lon="1.20184">
        <ele>275.9</ele>
        <time>2024-10-21T09:51:16Z</time>
      </trkpt>
      <trkpt lat="45.82966" lon="1.20185">
        <ele>275.8</ele>
        <time>2024-10-21T09:51:17Z</time>
      </trkpt>
      <trkpt lat="45.82968" lon="1.20187">
        <ele>275.7</ele>
        <time>2024-10-21T09:51:18Z</time>
      </trkpt>
      <trkpt lat="45.82968" lon="1.20188">
        <ele>275.7</ele>
        <time>2024-10-21T09:51:19Z</time>
      </trkpt>
      <trkpt lat="45.82969" lon="1.20189">
        <ele>275.6</ele>
        <time>2024-10-21T09:51:20Z</time>
      </trkpt>
      <trkpt lat="45.8297" lon="1.20192">
        <ele>275.5</ele>
        <time>2024-10-21T09:51:21Z</time>
      </trkpt>
      <trkpt lat="45.8297" lon="1.20193">
        <ele>275.5</ele>
        <time>2024-10-21T09:51:22Z</time>
      </trkpt>
      <trkpt lat="45.82971" lon="1.20194">
        <ele>275.4</ele>
        <time>2024-10-21T09:51:23Z</time>
      </trkpt>
      <trkpt lat="45.82972" lon="1.20196">
        <ele>275.3</ele>
        <time>2024-10-21T09:51:24Z</time>
      </trkpt>
      <trkpt lat="45.82973" lon="1.20197">
        <ele>275.3</ele>
        <time>2024-10-21T09:51:25Z</time>
      </trkpt>
      <trkpt lat="45.82973" lon="1.20198">
        <ele>275.2</ele>
        <time>2024-10-21T09:51:26Z</time>
      </trkpt>
      <trkpt lat="45.82975" lon="1.202">
        <ele>275.1</ele>
        <time>2024-10-21T09:51:27Z</time>
      </trkpt>
      <trkpt lat="45.82975" lon="1.20201">
        <ele>275</ele>
        <time>2024-10-21T09:51:28Z</time>
      </trkpt>
      <trkpt lat="45.82976" lon="1.20202">
        <ele>275</ele>
        <time>2024-10-21T09:51:29Z</time>
      </trkpt>
      <trkpt lat="45.82977" lon="1.20205">
        <ele>274.9</ele>
        <time>2024-10-21T09:51:30Z</time>
      </trkpt>
      <trkpt lat="45.82977" lon="1.20207">
        <ele>274.8</ele>
        <time>2024-10-21T09:51:32Z</time>
      </trkpt>
      <trkpt lat="45.82979" lon="1.20209">
        <ele>274.7</ele>
        <time>2024-10-21T09:51:33Z</time>
      </trkpt>
      <trkpt lat="45.82979" lon="1.2021">
        <ele>274.6</ele>
        <time>2024-10-21T09:51:34Z</time>
      </trkpt>
      <trkpt lat="45.8298" lon="1.20211">
        <ele>274.6</ele>
        <time>2024-10-21T09:51:35Z</time>
      </trkpt>
      <trkpt lat="45.82981" lon="1.20213">
        <ele>274.5</ele>
        <time>2024-10-21T09:51:36Z</time>
      </trkpt>
      <trkpt lat="45.82981" lon="1.20214">
        <ele>274.4</ele>
        <time>2024-10-21T09:51:37Z</time>
      </trkpt>
      <trkpt lat="45.82982" lon="1.20216">
        <ele>274.4</ele>
        <time>2024-10-21T09:51:38Z</time>
      </trkpt>
      <trkpt lat="45.82983" lon="1.20217">
        <ele>274.3</ele>
        <time>2024-10-21T09:51:39Z</time>
      </trkpt>
      <trkpt lat="45.82984" lon="1.20218">
        <ele>274.2</ele>
        <time>2024-10-21T09:51:40Z</time>
      </trkpt>
      <trkpt lat="45.82984" lon="1.2022">
        <ele>274.2</ele>
        <time>2024-10-21T09:51:41Z</time>
      </trkpt>
      <trkpt lat="45.82985" lon="1.20221">
        <ele>274.1</ele>
        <time>2024-10-21T09:51:42Z</time>
      </trkpt>
      <trkpt lat="45.82986" lon="1.20222">
        <ele>274.1</ele>
        <time>2024-10-21T09:51:43Z</time>
      </trkpt>
      <trkpt lat="45.82987" lon="1.20223">
        <ele>274</ele>
        <time>2024-10-21T09:51:44Z</time>
      </trkpt>
      <trkpt lat="45.82988" lon="1.20224">
        <ele>273.9</ele>
        <time>2024-10-21T09:51:45Z</time>
      </trkpt>
      <trkpt lat="45.82989" lon="1.20225">
        <ele>273.9</ele>
        <time>2024-10-21T09:51:46Z</time>
      </trkpt>
      <trkpt lat="45.82991" lon="1.20228">
        <ele>273.7</ele>
        <time>2024-10-21T09:51:47Z</time>
      </trkpt>
      <trkpt lat="45.82991" lon="1.20228">
        <ele>273.7</ele>
        <time>2024-10-21T09:51:48Z</time>
      </trkpt>
      <trkpt lat="45.82992" lon="1.20229">
        <ele>273.7</ele>
        <time>2024-10-21T09:51:49Z</time>
      </trkpt>
      <trkpt lat="45.82993" lon="1.2023">
        <ele>273.6</ele>
        <time>2024-10-21T09:51:50Z</time>
      </trkpt>
      <trkpt lat="45.82994" lon="1.20231">
        <ele>273.5</ele>
        <time>2024-10-21T09:51:51Z</time>
      </trkpt>
      <trkpt lat="45.82995" lon="1.20232">
        <ele>273.5</ele>
        <time>2024-10-21T09:51:52Z</time>
      </trkpt>
      <trkpt lat="45.82996" lon="1.20233">
        <ele>273.4</ele>
        <time>2024-10-21T09:51:53Z</time>
      </trkpt>
      <trkpt lat="45.82997" lon="1.20234">
        <ele>273.3</ele>
        <time>2024-10-21T09:51:54Z</time>
      </trkpt>
      <trkpt lat="45.82998" lon="1.20234">
        <ele>273.3</ele>
        <time>2024-10-21T09:51:55Z</time>
      </trkpt>
      <trkpt lat="45.82999" lon="1.20235">
        <ele>273.2</ele>
        <time>2024-10-21T09:51:56Z</time>
      </trkpt>
      <trkpt lat="45.83001" lon="1.20236">
        <ele>273.1</ele>
        <time>2024-10-21T09:51:57Z</time>
      </trkpt>
      <trkpt lat="45.83002" lon="1.20237">
        <ele>273</ele>
        <time>2024-10-21T09:51:58Z</time>
      </trkpt>
      <trkpt lat="45.83003" lon="1.20237">
        <ele>273</ele>
        <time>2024-10-21T09:51:59Z</time>
      </trkpt>
      <trkpt lat="45.83004" lon="1.20238">
        <ele>272.9</ele>
        <time>2024-10-21T09:52:00Z</time>
      </trkpt>
      <trkpt lat="45.83005" lon="1.20239">
        <ele>272.9</ele>
        <time>2024-10-21T09:52:01Z</time>
      </trkpt>
      <trkpt lat="45.83006" lon="1.20239">
        <ele>272.8</ele>
        <time>2024-10-21T09:52:02Z</time>
      </trkpt>
      <trkpt lat="45.83007" lon="1.2024">
        <ele>272.7</ele>
        <time>2024-10-21T09:52:03Z</time>
      </trkpt>
      <trkpt lat="45.83009" lon="1.20241">
        <ele>272.6</ele>
        <time>2024-10-21T09:52:04Z</time>
      </trkpt>
      <trkpt lat="45.8301" lon="1.20242">
        <ele>272.6</ele>
        <time>2024-10-21T09:52:05Z</time>
      </trkpt>
      <trkpt lat="45.83011" lon="1.20242">
        <ele>272.5</ele>
        <time>2024-10-21T09:52:06Z</time>
      </trkpt>
      <trkpt lat="45.83012" lon="1.20243">
        <ele>272.4</ele>
        <time>2024-10-21T09:52:07Z</time>
      </trkpt>
      <trkpt lat="45.83013" lon="1.20244">
        <ele>272.4</ele>
        <time>2024-10-21T09:52:08Z</time>
      </trkpt>
      <trkpt lat="45.83015" lon="1.20245">
        <ele>272.2</ele>
        <time>2024-10-21T09:52:09Z</time>
      </trkpt>
      <trkpt lat="45.83016" lon="1.20246">
        <ele>272.2</ele>
        <time>2024-10-21T09:52:10Z</time>
      </trkpt>
      <trkpt lat="45.83017" lon="1.20246">
        <ele>272.1</ele>
        <time>2024-10-21T09:52:11Z</time>
      </trkpt>
      <trkpt lat="45.83018" lon="1.20248">
        <ele>272</ele>
        <time>2024-10-21T09:52:12Z</time>
      </trkpt>
      <trkpt lat="45.83019" lon="1.20248">
        <ele>272</ele>
        <time>2024-10-21T09:52:13Z</time>
      </trkpt>
      <trkpt lat="45.83021" lon="1.20249">
        <ele>271.9</ele>
        <time>2024-10-21T09:52:14Z</time>
      </trkpt>
      <trkpt lat="45.83022" lon="1.2025">
        <ele>271.8</ele>
        <time>2024-10-21T09:52:15Z</time>
      </trkpt>
      <trkpt lat="45.83023" lon="1.2025">
        <ele>271.8</ele>
        <time>2024-10-21T09:52:16Z</time>
      </trkpt>
      <trkpt lat="45.83024" lon="1.20251">
        <ele>271.7</ele>
        <time>2024-10-21T09:52:17Z</time>
      </trkpt>
      <trkpt lat="45.83025" lon="1.20252">
        <ele>271.7</ele>
        <time>2024-10-21T09:52:18Z</time>
      </trkpt>
      <trkpt lat="45.83027" lon="1.20253">
        <ele>271.6</ele>
        <time>2024-10-21T09:52:19Z</time>
      </trkpt>
      <trkpt lat="45.83028" lon="1.20253">
        <ele>271.5</ele>
        <time>2024-10-21T09:52:20Z</time>
      </trkpt>
      <trkpt lat="45.83029" lon="1.20254">
        <ele>271.5</ele>
        <time>2024-10-21T09:52:21Z</time>
      </trkpt>
      <trkpt lat="45.83031" lon="1.20255">
        <ele>271.4</ele>
        <time>2024-10-21T09:52:22Z</time>
      </trkpt>
      <trkpt lat="45.83031" lon="1.20256">
        <ele>271.3</ele>
        <time>2024-10-21T09:52:23Z</time>
      </trkpt>
      <trkpt lat="45.83032" lon="1.20256">
        <ele>271.3</ele>
        <time>2024-10-21T09:52:24Z</time>
      </trkpt>
      <trkpt lat="45.83034" lon="1.20257">
        <ele>271.2</ele>
        <time>2024-10-21T09:52:25Z</time>
      </trkpt>
      <trkpt lat="45.83035" lon="1.20258">
        <ele>271.2</ele>
        <time>2024-10-21T09:52:26Z</time>
      </trkpt>
      <trkpt lat="45.83036" lon="1.20259">
        <ele>271.1</ele>
        <time>2024-10-21T09:52:27Z</time>
      </trkpt>
      <trkpt lat="45.83036" lon="1.2026">
        <ele>271.1</ele>
        <time>2024-10-21T09:52:28Z</time>
      </trkpt>
      <trkpt lat="45.83037" lon="1.20261">
        <ele>271</ele>
        <time>2024-10-21T09:52:29Z</time>
      </trkpt>
      <trkpt lat="45.83038" lon="1.20263">
        <ele>271</ele>
        <time>2024-10-21T09:52:30Z</time>
      </trkpt>
      <trkpt lat="45.83039" lon="1.20264">
        <ele>270.9</ele>
        <time>2024-10-21T09:52:31Z</time>
      </trkpt>
      <trkpt lat="45.8304" lon="1.20265">
        <ele>270.8</ele>
        <time>2024-10-21T09:52:32Z</time>
      </trkpt>
      <trkpt lat="45.83041" lon="1.20266">
        <ele>270.8</ele>
        <time>2024-10-21T09:52:33Z</time>
      </trkpt>
      <trkpt lat="45.83042" lon="1.20268">
        <ele>270.7</ele>
        <time>2024-10-21T09:52:34Z</time>
      </trkpt>
      <trkpt lat="45.83043" lon="1.20269">
        <ele>270.7</ele>
        <time>2024-10-21T09:52:35Z</time>
      </trkpt>
      <trkpt lat="45.83044" lon="1.2027">
        <ele>270.6</ele>
        <time>2024-10-21T09:52:36Z</time>
      </trkpt>
      <trkpt lat="45.83045" lon="1.20272">
        <ele>270.5</ele>
        <time>2024-10-21T09:52:37Z</time>
      </trkpt>
      <trkpt lat="45.83046" lon="1.20273">
        <ele>270.5</ele>
        <time>2024-10-21T09:52:38Z</time>
      </trkpt>
      <trkpt lat="45.83046" lon="1.20275">
        <ele>270.4</ele>
        <time>2024-10-21T09:52:39Z</time>
      </trkpt>
      <trkpt lat="45.83047" lon="1.20276">
        <ele>270.3</ele>
        <time>2024-10-21T09:52:40Z</time>
      </trkpt>
      <trkpt lat="45.83048" lon="1.20278">
        <ele>270.3</ele>
        <time>2024-10-21T09:52:41Z</time>
      </trkpt>
      <trkpt lat="45.83049" lon="1.2028">
        <ele>270.2</ele>
        <time>2024-10-21T09:52:42Z</time>
      </trkpt>
      <trkpt lat="45.83049" lon="1.20281">
        <ele>270.1</ele>
        <time>2024-10-21T09:52:43Z</time>
      </trkpt>
      <trkpt lat="45.8305" lon="1.20283">
        <ele>270.1</ele>
        <time>2024-10-21T09:52:44Z</time>
      </trkpt>
      <trkpt lat="45.8305" lon="1.20284">
        <ele>270</ele>
        <time>2024-10-21T09:52:45Z</time>
      </trkpt>
      <trkpt lat="45.83051" lon="1.20286">
        <ele>270</ele>
        <time>2024-10-21T09:52:46Z</time>
      </trkpt>
      <trkpt lat="45.83052" lon="1.20288">
        <ele>269.9</ele>
        <time>2024-10-21T09:52:47Z</time>
      </trkpt>
      <trkpt lat="45.83053" lon="1.20289">
        <ele>269.8</ele>
        <time>2024-10-21T09:52:48Z</time>
      </trkpt>
      <trkpt lat="45.83053" lon="1.20291">
        <ele>269.8</ele>
        <time>2024-10-21T09:52:49Z</time>
      </trkpt>
      <trkpt lat="45.83053" lon="1.20293">
        <ele>269.7</ele>
        <time>2024-10-21T09:52:50Z</time>
      </trkpt>
      <trkpt lat="45.83054" lon="1.20295">
        <ele>269.6</ele>
        <time>2024-10-21T09:52:51Z</time>
      </trkpt>
      <trkpt lat="45.83054" lon="1.20297">
        <ele>269.5</ele>
        <time>2024-10-21T09:52:52Z</time>
      </trkpt>
      <trkpt lat="45.83054" lon="1.203">
        <ele>269.5</ele>
        <time>2024-10-21T09:52:53Z</time>
      </trkpt>
      <trkpt lat="45.83054" lon="1.20302">
        <ele>269.4</ele>
        <time>2024-10-21T09:52:54Z</time>
      </trkpt>
      <trkpt lat="45.83054" lon="1.20303">
        <ele>269.4</ele>
        <time>2024-10-21T09:52:55Z</time>
      </trkpt>
      <trkpt lat="45.83054" lon="1.20305">
        <ele>269.3</ele>
        <time>2024-10-21T09:52:56Z</time>
      </trkpt>
      <trkpt lat="45.83053" lon="1.20308">
        <ele>269.2</ele>
        <time>2024-10-21T09:52:57Z</time>
      </trkpt>
      <trkpt lat="45.83052" lon="1.2031">
        <ele>269.1</ele>
        <time>2024-10-21T09:52:58Z</time>
      </trkpt>
      <trkpt lat="45.83052" lon="1.20312">
        <ele>269.1</ele>
        <time>2024-10-21T09:52:59Z</time>
      </trkpt>
      <trkpt lat="45.83052" lon="1.20313">
        <ele>269</ele>
        <time>2024-10-21T09:53:00Z</time>
      </trkpt>
      <trkpt lat="45.83051" lon="1.20315">
        <ele>269</ele>
        <time>2024-10-21T09:53:01Z</time>
      </trkpt>
      <trkpt lat="45.83051" lon="1.20317">
        <ele>268.9</ele>
        <time>2024-10-21T09:53:02Z</time>
      </trkpt>
      <trkpt lat="45.8305" lon="1.20319">
        <ele>268.8</ele>
        <time>2024-10-21T09:53:03Z</time>
      </trkpt>
      <trkpt lat="45.83049" lon="1.2032">
        <ele>268.8</ele>
        <time>2024-10-21T09:53:04Z</time>
      </trkpt>
      <trkpt lat="45.83048" lon="1.20324">
        <ele>268.7</ele>
        <time>2024-10-21T09:53:05Z</time>
      </trkpt>
      <trkpt lat="45.83048" lon="1.20325">
        <ele>268.7</ele>
        <time>2024-10-21T09:53:06Z</time>
      </trkpt>
      <trkpt lat="45.83047" lon="1.20326">
        <ele>268.6</ele>
        <time>2024-10-21T09:53:07Z</time>
      </trkpt>
      <trkpt lat="45.83047" lon="1.20328">
        <ele>268.6</ele>
        <time>2024-10-21T09:53:08Z</time>
      </trkpt>
      <trkpt lat="45.83047" lon="1.20329">
        <ele>268.5</ele>
        <time>2024-10-21T09:53:09Z</time>
      </trkpt>
      <trkpt lat="45.83046" lon="1.20331">
        <ele>268.5</ele>
        <time>2024-10-21T09:53:10Z</time>
      </trkpt>
      <trkpt lat="45.83045" lon="1.20334">
        <ele>268.4</ele>
        <time>2024-10-21T09:53:11Z</time>
      </trkpt>
      <trkpt lat="45.83045" lon="1.20336">
        <ele>268.3</ele>
        <time>2024-10-21T09:53:12Z</time>
      </trkpt>
      <trkpt lat="45.83044" lon="1.20339">
        <ele>268.3</ele>
        <time>2024-10-21T09:53:13Z</time>
      </trkpt>
      <trkpt lat="45.83044" lon="1.2034">
        <ele>268.3</ele>
        <time>2024-10-21T09:53:14Z</time>
      </trkpt>
      <trkpt lat="45.83044" lon="1.20341">
        <ele>268.3</ele>
        <time>2024-10-21T09:53:15Z</time>
      </trkpt>
      <trkpt lat="45.83044" lon="1.20341">
        <ele>268.2</ele>
        <time>2024-10-21T09:53:16Z</time>
      </trkpt>
      <trkpt lat="45.83044" lon="1.20345">
        <ele>268.2</ele>
        <time>2024-10-21T09:53:17Z</time>
      </trkpt>
      <trkpt lat="45.83043" lon="1.20346">
        <ele>268.2</ele>
        <time>2024-10-21T09:53:18Z</time>
      </trkpt>
      <trkpt lat="45.83043" lon="1.20347">
        <ele>268.1</ele>
        <time>2024-10-21T09:53:19Z</time>
      </trkpt>
      <trkpt lat="45.83043" lon="1.2035">
        <ele>268.1</ele>
        <time>2024-10-21T09:53:20Z</time>
      </trkpt>
      <trkpt lat="45.83043" lon="1.20352">
        <ele>268.1</ele>
        <time>2024-10-21T09:53:21Z</time>
      </trkpt>
      <trkpt lat="45.83043" lon="1.20353">
        <ele>268.1</ele>
        <time>2024-10-21T09:53:22Z</time>
      </trkpt>
      <trkpt lat="45.83042" lon="1.20356">
        <ele>268</ele>
        <time>2024-10-21T09:53:23Z</time>
      </trkpt>
      <trkpt lat="45.83042" lon="1.20357">
        <ele>268</ele>
        <time>2024-10-21T09:53:24Z</time>
      </trkpt>
      <trkpt lat="45.83042" lon="1.20358">
        <ele>268</ele>
        <time>2024-10-21T09:53:25Z</time>
      </trkpt>
      <trkpt lat="45.83042" lon="1.2036">
        <ele>268</ele>
        <time>2024-10-21T09:53:26Z</time>
      </trkpt>
      <trkpt lat="45.83042" lon="1.20362">
        <ele>268</ele>
        <time>2024-10-21T09:53:27Z</time>
      </trkpt>
      <trkpt lat="45.83042" lon="1.20365">
        <ele>268</ele>
        <time>2024-10-21T09:53:28Z</time>
      </trkpt>
      <trkpt lat="45.83042" lon="1.20367">
        <ele>268</ele>
        <time>2024-10-21T09:53:29Z</time>
      </trkpt>
      <trkpt lat="45.83042" lon="1.20368">
        <ele>268</ele>
        <time>2024-10-21T09:53:30Z</time>
      </trkpt>
      <trkpt lat="45.83041" lon="1.2037">
        <ele>268</ele>
        <time>2024-10-21T09:53:31Z</time>
      </trkpt>
      <trkpt lat="45.83041" lon="1.20372">
        <ele>268</ele>
        <time>2024-10-21T09:53:32Z</time>
      </trkpt>
      <trkpt lat="45.83041" lon="1.20375">
        <ele>268</ele>
        <time>2024-10-21T09:53:33Z</time>
      </trkpt>
      <trkpt lat="45.83041" lon="1.20377">
        <ele>268</ele>
        <time>2024-10-21T09:53:34Z</time>
      </trkpt>
      <trkpt lat="45.83041" lon="1.20378">
        <ele>268</ele>
        <time>2024-10-21T09:53:35Z</time>
      </trkpt>
      <trkpt lat="45.83041" lon="1.20381">
        <ele>268</ele>
        <time>2024-10-21T09:53:36Z</time>
      </trkpt>
      <trkpt lat="45.83042" lon="1.20382">
        <ele>268</ele>
        <time>2024-10-21T09:53:37Z</time>
      </trkpt>
      <trkpt lat="45.83042" lon="1.20383">
        <ele>268</ele>
        <time>2024-10-21T09:53:38Z</time>
      </trkpt>
      <trkpt lat="45.83042" lon="1.20386">
        <ele>268</ele>
        <time>2024-10-21T09:53:39Z</time>
      </trkpt>
      <trkpt lat="45.83042" lon="1.20387">
        <ele>268</ele>
        <time>2024-10-21T09:53:40Z</time>
      </trkpt>
      <trkpt lat="45.83042" lon="1.20389">
        <ele>268</ele>
        <time>2024-10-21T09:53:41Z</time>
      </trkpt>
      <trkpt lat="45.83043" lon="1.2039">
        <ele>268.1</ele>
        <time>2024-10-21T09:53:42Z</time>
      </trkpt>
      <trkpt lat="45.83043" lon="1.20393">
        <ele>268.1</ele>
        <time>2024-10-21T09:53:43Z</time>
      </trkpt>
      <trkpt lat="45.83044" lon="1.20395">
        <ele>268.1</ele>
        <time>2024-10-21T09:53:44Z</time>
      </trkpt>
      <trkpt lat="45.83044" lon="1.20397">
        <ele>268.2</ele>
        <time>2024-10-21T09:53:45Z</time>
      </trkpt>
      <trkpt lat="45.83044" lon="1.20398">
        <ele>268.2</ele>
        <time>2024-10-21T09:53:46Z</time>
      </trkpt>
      <trkpt lat="45.83045" lon="1.204">
        <ele>268.2</ele>
        <time>2024-10-21T09:53:47Z</time>
      </trkpt>
      <trkpt lat="45.83045" lon="1.20402">
        <ele>268.3</ele>
        <time>2024-10-21T09:53:48Z</time>
      </trkpt>
      <trkpt lat="45.83046" lon="1.20405">
        <ele>268.3</ele>
        <time>2024-10-21T09:53:49Z</time>
      </trkpt>
      <trkpt lat="45.83046" lon="1.20407">
        <ele>268.4</ele>
        <time>2024-10-21T09:53:50Z</time>
      </trkpt>
      <trkpt lat="45.83047" lon="1.20409">
        <ele>268.4</ele>
        <time>2024-10-21T09:53:52Z</time>
      </trkpt>
      <trkpt lat="45.83047" lon="1.20411">
        <ele>268.5</ele>
        <time>2024-10-21T09:53:53Z</time>
      </trkpt>
      <trkpt lat="45.83048" lon="1.20412">
        <ele>268.5</ele>
        <time>2024-10-21T09:53:54Z</time>
      </trkpt>
      <trkpt lat="45.83048" lon="1.20414">
        <ele>268.5</ele>
        <time>2024-10-21T09:53:55Z</time>
      </trkpt>
      <trkpt lat="45.83049" lon="1.20416">
        <ele>268.6</ele>
        <time>2024-10-21T09:53:56Z</time>
      </trkpt>
      <trkpt lat="45.8305" lon="1.20419">
        <ele>268.7</ele>
        <time>2024-10-21T09:53:57Z</time>
      </trkpt>
      <trkpt lat="45.8305" lon="1.2042">
        <ele>268.7</ele>
        <time>2024-10-21T09:53:58Z</time>
      </trkpt>
      <trkpt lat="45.8305" lon="1.20421">
        <ele>268.7</ele>
        <time>2024-10-21T09:53:59Z</time>
      </trkpt>
      <trkpt lat="45.83051" lon="1.20424">
        <ele>268.8</ele>
        <time>2024-10-21T09:54:00Z</time>
      </trkpt>
      <trkpt lat="45.83052" lon="1.20425">
        <ele>268.8</ele>
        <time>2024-10-21T09:54:01Z</time>
      </trkpt>
      <trkpt lat="45.83052" lon="1.20426">
        <ele>268.9</ele>
        <time>2024-10-21T09:54:02Z</time>
      </trkpt>
      <trkpt lat="45.83053" lon="1.2043">
        <ele>269</ele>
        <time>2024-10-21T09:54:03Z</time>
      </trkpt>
      <trkpt lat="45.83054" lon="1.20432">
        <ele>269.1</ele>
        <time>2024-10-21T09:54:04Z</time>
      </trkpt>
      <trkpt lat="45.83055" lon="1.20434">
        <ele>269.1</ele>
        <time>2024-10-21T09:54:05Z</time>
      </trkpt>
      <trkpt lat="45.83055" lon="1.20435">
        <ele>269.1</ele>
        <time>2024-10-21T09:54:06Z</time>
      </trkpt>
      <trkpt lat="45.83056" lon="1.20437">
        <ele>269.2</ele>
        <time>2024-10-21T09:54:08Z</time>
      </trkpt>
      <trkpt lat="45.83057" lon="1.20438">
        <ele>269.3</ele>
        <time>2024-10-21T09:54:09Z</time>
      </trkpt>
      <trkpt lat="45.83058" lon="1.2044">
        <ele>269.3</ele>
        <time>2024-10-21T09:54:10Z</time>
      </trkpt>
      <trkpt lat="45.83059" lon="1.20441">
        <ele>269.4</ele>
        <time>2024-10-21T09:54:11Z</time>
      </trkpt>
      <trkpt lat="45.83059" lon="1.20443">
        <ele>269.5</ele>
        <time>2024-10-21T09:54:12Z</time>
      </trkpt>
      <trkpt lat="45.8306" lon="1.20445">
        <ele>269.6</ele>
        <time>2024-10-21T09:54:13Z</time>
      </trkpt>
      <trkpt lat="45.83061" lon="1.20447">
        <ele>269.6</ele>
        <time>2024-10-21T09:54:14Z</time>
      </trkpt>
      <trkpt lat="45.83061" lon="1.20448">
        <ele>269.7</ele>
        <time>2024-10-21T09:54:15Z</time>
      </trkpt>
      <trkpt lat="45.83062" lon="1.2045">
        <ele>269.7</ele>
        <time>2024-10-21T09:54:16Z</time>
      </trkpt>
      <trkpt lat="45.83062" lon="1.20451">
        <ele>269.8</ele>
        <time>2024-10-21T09:54:17Z</time>
      </trkpt>
      <trkpt lat="45.83063" lon="1.20453">
        <ele>269.9</ele>
        <time>2024-10-21T09:54:18Z</time>
      </trkpt>
      <trkpt lat="45.83064" lon="1.20456">
        <ele>270</ele>
        <time>2024-10-21T09:54:19Z</time>
      </trkpt>
      <trkpt lat="45.83064" lon="1.20457">
        <ele>270</ele>
        <time>2024-10-21T09:54:20Z</time>
      </trkpt>
      <trkpt lat="45.83065" lon="1.20458">
        <ele>270.1</ele>
        <time>2024-10-21T09:54:21Z</time>
      </trkpt>
      <trkpt lat="45.83066" lon="1.2046">
        <ele>270.2</ele>
        <time>2024-10-21T09:54:22Z</time>
      </trkpt>
      <trkpt lat="45.83066" lon="1.20462">
        <ele>270.2</ele>
        <time>2024-10-21T09:54:23Z</time>
      </trkpt>
      <trkpt lat="45.83067" lon="1.20463">
        <ele>270.3</ele>
        <time>2024-10-21T09:54:24Z</time>
      </trkpt>
      <trkpt lat="45.83068" lon="1.20465">
        <ele>270.4</ele>
        <time>2024-10-21T09:54:25Z</time>
      </trkpt>
      <trkpt lat="45.83068" lon="1.20466">
        <ele>270.4</ele>
        <time>2024-10-21T09:54:26Z</time>
      </trkpt>
      <trkpt lat="45.83068" lon="1.20467">
        <ele>270.5</ele>
        <time>2024-10-21T09:54:27Z</time>
      </trkpt>
      <trkpt lat="45.8307" lon="1.20469">
        <ele>270.5</ele>
        <time>2024-10-21T09:54:28Z</time>
      </trkpt>
      <trkpt lat="45.8307" lon="1.20469">
        <ele>270.6</ele>
        <time>2024-10-21T09:54:29Z</time>
      </trkpt>
      <trkpt lat="45.8307" lon="1.20468">
        <ele>270.6</ele>
        <time>2024-10-21T09:54:30Z</time>
      </trkpt>
      <trkpt lat="45.8307" lon="1.20467">
        <ele>270.6</ele>
        <time>2024-10-21T09:54:31Z</time>
      </trkpt>
      <trkpt lat="45.8307" lon="1.20467">
        <ele>270.6</ele>
        <time>2024-10-21T09:54:32Z</time>
      </trkpt>
      <trkpt lat="45.8307" lon="1.20467">
        <ele>270.7</ele>
        <time>2024-10-21T09:54:34Z</time>
      </trkpt>
      <trkpt lat="45.8307" lon="1.20472">
        <ele>270.8</ele>
        <time>2024-10-21T09:54:35Z</time>
      </trkpt>
      <trkpt lat="45.83071" lon="1.20478">
        <ele>271.1</ele>
        <time>2024-10-21T09:54:36Z</time>
      </trkpt>
      <trkpt lat="45.83071" lon="1.20481">
        <ele>271.2</ele>
        <time>2024-10-21T09:54:37Z</time>
      </trkpt>
      <trkpt lat="45.83072" lon="1.20483">
        <ele>271.3</ele>
        <time>2024-10-21T09:54:38Z</time>
      </trkpt>
      <trkpt lat="45.83072" lon="1.20484">
        <ele>271.3</ele>
        <time>2024-10-21T09:54:39Z</time>
      </trkpt>
      <trkpt lat="45.83072" lon="1.20485">
        <ele>271.4</ele>
        <time>2024-10-21T09:54:40Z</time>
      </trkpt>
      <trkpt lat="45.83073" lon="1.20487">
        <ele>271.5</ele>
        <time>2024-10-21T09:54:41Z</time>
      </trkpt>
      <trkpt lat="45.83074" lon="1.20488">
        <ele>271.5</ele>
        <time>2024-10-21T09:54:42Z</time>
      </trkpt>
      <trkpt lat="45.83075" lon="1.20489">
        <ele>271.6</ele>
        <time>2024-10-21T09:54:43Z</time>
      </trkpt>
      <trkpt lat="45.83076" lon="1.2049">
        <ele>271.7</ele>
        <time>2024-10-21T09:54:44Z</time>
      </trkpt>
      <trkpt lat="45.83077" lon="1.20491">
        <ele>271.8</ele>
        <time>2024-10-21T09:54:45Z</time>
      </trkpt>
      <trkpt lat="45.83078" lon="1.20493">
        <ele>271.8</ele>
        <time>2024-10-21T09:54:46Z</time>
      </trkpt>
      <trkpt lat="45.83079" lon="1.20494">
        <ele>271.9</ele>
        <time>2024-10-21T09:54:47Z</time>
      </trkpt>
      <trkpt lat="45.83079" lon="1.20496">
        <ele>272</ele>
        <time>2024-10-21T09:54:48Z</time>
      </trkpt>
      <trkpt lat="45.8308" lon="1.20498">
        <ele>272.1</ele>
        <time>2024-10-21T09:54:49Z</time>
      </trkpt>
      <trkpt lat="45.8308" lon="1.20499">
        <ele>272.1</ele>
        <time>2024-10-21T09:54:50Z</time>
      </trkpt>
      <trkpt lat="45.83081" lon="1.20501">
        <ele>272.2</ele>
        <time>2024-10-21T09:54:51Z</time>
      </trkpt>
      <trkpt lat="45.83081" lon="1.20504">
        <ele>272.3</ele>
        <time>2024-10-21T09:54:52Z</time>
      </trkpt>
      <trkpt lat="45.83082" lon="1.20505">
        <ele>272.4</ele>
        <time>2024-10-21T09:54:53Z</time>
      </trkpt>
      <trkpt lat="45.83082" lon="1.20506">
        <ele>272.4</ele>
        <time>2024-10-21T09:54:54Z</time>
      </trkpt>
      <trkpt lat="45.83082" lon="1.20507">
        <ele>272.5</ele>
        <time>2024-10-21T09:54:55Z</time>
      </trkpt>
      <trkpt lat="45.83083" lon="1.20509">
        <ele>272.6</ele>
        <time>2024-10-21T09:54:56Z</time>
      </trkpt>
      <trkpt lat="45.83083" lon="1.2051">
        <ele>272.6</ele>
        <time>2024-10-21T09:54:57Z</time>
      </trkpt>
      <trkpt lat="45.83084" lon="1.20513">
        <ele>272.7</ele>
        <time>2024-10-21T09:54:58Z</time>
      </trkpt>
      <trkpt lat="45.83084" lon="1.20514">
        <ele>272.8</ele>
        <time>2024-10-21T09:54:59Z</time>
      </trkpt>
      <trkpt lat="45.83084" lon="1.20515">
        <ele>272.8</ele>
        <time>2024-10-21T09:55:00Z</time>
      </trkpt>
      <trkpt lat="45.83085" lon="1.20518">
        <ele>273</ele>
        <time>2024-10-21T09:55:01Z</time>
      </trkpt>
      <trkpt lat="45.83085" lon="1.20519">
        <ele>273</ele>
        <time>2024-10-21T09:55:02Z</time>
      </trkpt>
      <trkpt lat="45.83085" lon="1.20521">
        <ele>273</ele>
        <time>2024-10-21T09:55:03Z</time>
      </trkpt>
      <trkpt lat="45.83086" lon="1.20522">
        <ele>273.1</ele>
        <time>2024-10-21T09:55:04Z</time>
      </trkpt>
      <trkpt lat="45.83086" lon="1.20523">
        <ele>273.2</ele>
        <time>2024-10-21T09:55:05Z</time>
      </trkpt>
      <trkpt lat="45.83086" lon="1.20525">
        <ele>273.2</ele>
        <time>2024-10-21T09:55:06Z</time>
      </trkpt>
      <trkpt lat="45.83087" lon="1.20526">
        <ele>273.3</ele>
        <time>2024-10-21T09:55:07Z</time>
      </trkpt>
      <trkpt lat="45.83087" lon="1.20528">
        <ele>273.4</ele>
        <time>2024-10-21T09:55:08Z</time>
      </trkpt>
      <trkpt lat="45.83088" lon="1.20529">
        <ele>273.4</ele>
        <time>2024-10-21T09:55:09Z</time>
      </trkpt>
      <trkpt lat="45.83088" lon="1.20531">
        <ele>273.5</ele>
        <time>2024-10-21T09:55:10Z</time>
      </trkpt>
      <trkpt lat="45.83088" lon="1.20533">
        <ele>273.5</ele>
        <time>2024-10-21T09:55:11Z</time>
      </trkpt>
      <trkpt lat="45.83088" lon="1.20534">
        <ele>273.6</ele>
        <time>2024-10-21T09:55:12Z</time>
      </trkpt>
      <trkpt lat="45.83089" lon="1.20535">
        <ele>273.7</ele>
        <time>2024-10-21T09:55:13Z</time>
      </trkpt>
      <trkpt lat="45.83089" lon="1.20537">
        <ele>273.7</ele>
        <time>2024-10-21T09:55:14Z</time>
      </trkpt>
      <trkpt lat="45.8309" lon="1.20538">
        <ele>273.8</ele>
        <time>2024-10-21T09:55:15Z</time>
      </trkpt>
      <trkpt lat="45.8309" lon="1.20541">
        <ele>273.9</ele>
        <time>2024-10-21T09:55:16Z</time>
      </trkpt>
      <trkpt lat="45.83091" lon="1.20542">
        <ele>273.9</ele>
        <time>2024-10-21T09:55:17Z</time>
      </trkpt>
      <trkpt lat="45.83091" lon="1.20543">
        <ele>274</ele>
        <time>2024-10-21T09:55:18Z</time>
      </trkpt>
      <trkpt lat="45.83091" lon="1.20544">
        <ele>274</ele>
        <time>2024-10-21T09:55:19Z</time>
      </trkpt>
      <trkpt lat="45.83092" lon="1.20545">
        <ele>274.1</ele>
        <time>2024-10-21T09:55:20Z</time>
      </trkpt>
      <trkpt lat="45.83092" lon="1.20547">
        <ele>274.1</ele>
        <time>2024-10-21T09:55:21Z</time>
      </trkpt>
      <trkpt lat="45.83093" lon="1.2055">
        <ele>274.3</ele>
        <time>2024-10-21T09:55:22Z</time>
      </trkpt>
      <trkpt lat="45.83094" lon="1.20551">
        <ele>274.3</ele>
        <time>2024-10-21T09:55:24Z</time>
      </trkpt>
      <trkpt lat="45.83094" lon="1.20553">
        <ele>274.4</ele>
        <time>2024-10-21T09:55:25Z</time>
      </trkpt>
      <trkpt lat="45.83095" lon="1.20554">
        <ele>274.4</ele>
        <time>2024-10-21T09:55:26Z</time>
      </trkpt>
      <trkpt lat="45.83095" lon="1.20556">
        <ele>274.5</ele>
        <time>2024-10-21T09:55:27Z</time>
      </trkpt>
      <trkpt lat="45.83096" lon="1.20558">
        <ele>274.6</ele>
        <time>2024-10-21T09:55:28Z</time>
      </trkpt>
      <trkpt lat="45.83096" lon="1.2056">
        <ele>274.6</ele>
        <time>2024-10-21T09:55:29Z</time>
      </trkpt>
      <trkpt lat="45.83096" lon="1.20561">
        <ele>274.7</ele>
        <time>2024-10-21T09:55:30Z</time>
      </trkpt>
      <trkpt lat="45.83096" lon="1.20563">
        <ele>274.7</ele>
        <time>2024-10-21T09:55:31Z</time>
      </trkpt>
      <trkpt lat="45.83096" lon="1.20564">
        <ele>274.8</ele>
        <time>2024-10-21T09:55:32Z</time>
      </trkpt>
      <trkpt lat="45.83097" lon="1.20567">
        <ele>274.9</ele>
        <time>2024-10-21T09:55:33Z</time>
      </trkpt>
      <trkpt lat="45.83098" lon="1.20568">
        <ele>275</ele>
        <time>2024-10-21T09:55:34Z</time>
      </trkpt>
      <trkpt lat="45.83098" lon="1.20569">
        <ele>275</ele>
        <time>2024-10-21T09:55:35Z</time>
      </trkpt>
      <trkpt lat="45.83099" lon="1.20572">
        <ele>275.1</ele>
        <time>2024-10-21T09:55:36Z</time>
      </trkpt>
      <trkpt lat="45.83099" lon="1.20573">
        <ele>275.1</ele>
        <time>2024-10-21T09:55:37Z</time>
      </trkpt>
      <trkpt lat="45.83099" lon="1.20574">
        <ele>275.2</ele>
        <time>2024-10-21T09:55:38Z</time>
      </trkpt>
      <trkpt lat="45.831" lon="1.20575">
        <ele>275.2</ele>
        <time>2024-10-21T09:55:39Z</time>
      </trkpt>
      <trkpt lat="45.831" lon="1.20577">
        <ele>275.3</ele>
        <time>2024-10-21T09:55:40Z</time>
      </trkpt>
      <trkpt lat="45.83101" lon="1.20578">
        <ele>275.3</ele>
        <time>2024-10-21T09:55:41Z</time>
      </trkpt>
      <trkpt lat="45.83101" lon="1.2058">
        <ele>275.4</ele>
        <time>2024-10-21T09:55:42Z</time>
      </trkpt>
      <trkpt lat="45.83102" lon="1.20581">
        <ele>275.5</ele>
        <time>2024-10-21T09:55:43Z</time>
      </trkpt>
      <trkpt lat="45.83102" lon="1.20582">
        <ele>275.5</ele>
        <time>2024-10-21T09:55:44Z</time>
      </trkpt>
      <trkpt lat="45.83104" lon="1.20585">
        <ele>275.6</ele>
        <time>2024-10-21T09:55:45Z</time>
      </trkpt>
      <trkpt lat="45.83104" lon="1.20585">
        <ele>275.6</ele>
        <time>2024-10-21T09:55:46Z</time>
      </trkpt>
      <trkpt lat="45.83105" lon="1.20586">
        <ele>275.7</ele>
        <time>2024-10-21T09:55:47Z</time>
      </trkpt>
      <trkpt lat="45.83106" lon="1.20589">
        <ele>275.8</ele>
        <time>2024-10-21T09:55:48Z</time>
      </trkpt>
      <trkpt lat="45.83106" lon="1.2059">
        <ele>275.8</ele>
        <time>2024-10-21T09:55:49Z</time>
      </trkpt>
      <trkpt lat="45.83107" lon="1.20591">
        <ele>275.8</ele>
        <time>2024-10-21T09:55:50Z</time>
      </trkpt>
      <trkpt lat="45.83108" lon="1.20595">
        <ele>276</ele>
        <time>2024-10-21T09:55:51Z</time>
      </trkpt>
      <trkpt lat="45.83108" lon="1.20597">
        <ele>276</ele>
        <time>2024-10-21T09:55:52Z</time>
      </trkpt>
      <trkpt lat="45.83108" lon="1.20598">
        <ele>276.1</ele>
        <time>2024-10-21T09:55:54Z</time>
      </trkpt>
      <trkpt lat="45.83109" lon="1.20599">
        <ele>276.1</ele>
        <time>2024-10-21T09:55:55Z</time>
      </trkpt>
      <trkpt lat="45.83109" lon="1.20601">
        <ele>276.2</ele>
        <time>2024-10-21T09:55:56Z</time>
      </trkpt>
      <trkpt lat="45.8311" lon="1.20602">
        <ele>276.2</ele>
        <time>2024-10-21T09:55:57Z</time>
      </trkpt>
      <trkpt lat="45.8311" lon="1.20604">
        <ele>276.3</ele>
        <time>2024-10-21T09:55:58Z</time>
      </trkpt>
      <trkpt lat="45.83111" lon="1.20606">
        <ele>276.3</ele>
        <time>2024-10-21T09:55:59Z</time>
      </trkpt>
      <trkpt lat="45.83112" lon="1.20609">
        <ele>276.4</ele>
        <time>2024-10-21T09:56:00Z</time>
      </trkpt>
      <trkpt lat="45.83113" lon="1.2061">
        <ele>276.5</ele>
        <time>2024-10-21T09:56:02Z</time>
      </trkpt>
      <trkpt lat="45.83114" lon="1.20613">
        <ele>276.6</ele>
        <time>2024-10-21T09:56:03Z</time>
      </trkpt>
      <trkpt lat="45.83114" lon="1.20613">
        <ele>276.6</ele>
        <time>2024-10-21T09:56:04Z</time>
      </trkpt>
      <trkpt lat="45.83115" lon="1.20615">
        <ele>276.6</ele>
        <time>2024-10-21T09:56:05Z</time>
      </trkpt>
      <trkpt lat="45.83115" lon="1.20616">
        <ele>276.7</ele>
        <time>2024-10-21T09:56:06Z</time>
      </trkpt>
      <trkpt lat="45.83116" lon="1.20618">
        <ele>276.8</ele>
        <time>2024-10-21T09:56:07Z</time>
      </trkpt>
      <trkpt lat="45.83117" lon="1.2062">
        <ele>276.8</ele>
        <time>2024-10-21T09:56:08Z</time>
      </trkpt>
      <trkpt lat="45.83117" lon="1.20621">
        <ele>276.9</ele>
        <time>2024-10-21T09:56:09Z</time>
      </trkpt>
      <trkpt lat="45.83118" lon="1.20623">
        <ele>276.9</ele>
        <time>2024-10-21T09:56:10Z</time>
      </trkpt>
      <trkpt lat="45.83118" lon="1.20624">
        <ele>277</ele>
        <time>2024-10-21T09:56:11Z</time>
      </trkpt>
      <trkpt lat="45.83119" lon="1.20626">
        <ele>277</ele>
        <time>2024-10-21T09:56:12Z</time>
      </trkpt>
      <trkpt lat="45.83119" lon="1.20628">
        <ele>277.1</ele>
        <time>2024-10-21T09:56:13Z</time>
      </trkpt>
      <trkpt lat="45.8312" lon="1.20631">
        <ele>277.2</ele>
        <time>2024-10-21T09:56:14Z</time>
      </trkpt>
      <trkpt lat="45.83121" lon="1.20633">
        <ele>277.2</ele>
        <time>2024-10-21T09:56:16Z</time>
      </trkpt>
      <trkpt lat="45.83121" lon="1.20634">
        <ele>277.3</ele>
        <time>2024-10-21T09:56:17Z</time>
      </trkpt>
      <trkpt lat="45.83122" lon="1.20636">
        <ele>277.3</ele>
        <time>2024-10-21T09:56:18Z</time>
      </trkpt>
      <trkpt lat="45.83122" lon="1.20638">
        <ele>277.4</ele>
        <time>2024-10-21T09:56:19Z</time>
      </trkpt>
      <trkpt lat="45.83123" lon="1.2064">
        <ele>277.5</ele>
        <time>2024-10-21T09:56:20Z</time>
      </trkpt>
      <trkpt lat="45.83123" lon="1.20642">
        <ele>277.5</ele>
        <time>2024-10-21T09:56:21Z</time>
      </trkpt>
      <trkpt lat="45.83124" lon="1.20643">
        <ele>277.6</ele>
        <time>2024-10-21T09:56:22Z</time>
      </trkpt>
      <trkpt lat="45.83124" lon="1.20645">
        <ele>277.6</ele>
        <time>2024-10-21T09:56:23Z</time>
      </trkpt>
      <trkpt lat="45.83124" lon="1.20646">
        <ele>277.7</ele>
        <time>2024-10-21T09:56:24Z</time>
      </trkpt>
      <trkpt lat="45.83125" lon="1.20647">
        <ele>277.7</ele>
        <time>2024-10-21T09:56:25Z</time>
      </trkpt>
      <trkpt lat="45.83125" lon="1.20649">
        <ele>277.8</ele>
        <time>2024-10-21T09:56:26Z</time>
      </trkpt>
      <trkpt lat="45.83126" lon="1.20651">
        <ele>277.8</ele>
        <time>2024-10-21T09:56:27Z</time>
      </trkpt>
      <trkpt lat="45.83126" lon="1.20654">
        <ele>277.9</ele>
        <time>2024-10-21T09:56:28Z</time>
      </trkpt>
      <trkpt lat="45.83127" lon="1.20655">
        <ele>278</ele>
        <time>2024-10-21T09:56:29Z</time>
      </trkpt>
      <trkpt lat="45.83128" lon="1.20658">
        <ele>278.1</ele>
        <time>2024-10-21T09:56:30Z</time>
      </trkpt>
      <trkpt lat="45.83128" lon="1.20659">
        <ele>278.1</ele>
        <time>2024-10-21T09:56:31Z</time>
      </trkpt>
      <trkpt lat="45.83128" lon="1.2066">
        <ele>278.1</ele>
        <time>2024-10-21T09:56:32Z</time>
      </trkpt>
      <trkpt lat="45.83129" lon="1.20662">
        <ele>278.2</ele>
        <time>2024-10-21T09:56:33Z</time>
      </trkpt>
      <trkpt lat="45.83129" lon="1.20663">
        <ele>278.3</ele>
        <time>2024-10-21T09:56:34Z</time>
      </trkpt>
      <trkpt lat="45.8313" lon="1.20664">
        <ele>278.3</ele>
        <time>2024-10-21T09:56:35Z</time>
      </trkpt>
      <trkpt lat="45.83131" lon="1.20668">
        <ele>278.4</ele>
        <time>2024-10-21T09:56:36Z</time>
      </trkpt>
      <trkpt lat="45.83132" lon="1.2067">
        <ele>278.5</ele>
        <time>2024-10-21T09:56:37Z</time>
      </trkpt>
      <trkpt lat="45.83132" lon="1.20671">
        <ele>278.6</ele>
        <time>2024-10-21T09:56:38Z</time>
      </trkpt>
      <trkpt lat="45.83133" lon="1.20672">
        <ele>278.6</ele>
        <time>2024-10-21T09:56:39Z</time>
      </trkpt>
      <trkpt lat="45.83133" lon="1.20672">
        <ele>278.6</ele>
        <time>2024-10-21T09:56:40Z</time>
      </trkpt>
      <trkpt lat="45.83133" lon="1.20674">
        <ele>278.7</ele>
        <time>2024-10-21T09:56:41Z</time>
      </trkpt>
      <trkpt lat="45.83134" lon="1.20676">
        <ele>278.8</ele>
        <time>2024-10-21T09:56:42Z</time>
      </trkpt>
      <trkpt lat="45.83135" lon="1.20678">
        <ele>278.8</ele>
        <time>2024-10-21T09:56:43Z</time>
      </trkpt>
      <trkpt lat="45.83135" lon="1.20679">
        <ele>278.9</ele>
        <time>2024-10-21T09:56:44Z</time>
      </trkpt>
      <trkpt lat="45.83136" lon="1.20681">
        <ele>278.9</ele>
        <time>2024-10-21T09:56:45Z</time>
      </trkpt>
      <trkpt lat="45.83136" lon="1.20682">
        <ele>279</ele>
        <time>2024-10-21T09:56:46Z</time>
      </trkpt>
      <trkpt lat="45.83137" lon="1.20684">
        <ele>279.1</ele>
        <time>2024-10-21T09:56:47Z</time>
      </trkpt>
      <trkpt lat="45.83137" lon="1.20686">
        <ele>279.2</ele>
        <time>2024-10-21T09:56:48Z</time>
      </trkpt>
      <trkpt lat="45.83138" lon="1.20688">
        <ele>279.2</ele>
        <time>2024-10-21T09:56:49Z</time>
      </trkpt>
      <trkpt lat="45.83138" lon="1.20689">
        <ele>279.3</ele>
        <time>2024-10-21T09:56:50Z</time>
      </trkpt>
      <trkpt lat="45.83138" lon="1.20691">
        <ele>279.3</ele>
        <time>2024-10-21T09:56:51Z</time>
      </trkpt>
      <trkpt lat="45.83139" lon="1.20694">
        <ele>279.5</ele>
        <time>2024-10-21T09:56:52Z</time>
      </trkpt>
      <trkpt lat="45.8314" lon="1.20696">
        <ele>279.5</ele>
        <time>2024-10-21T09:56:54Z</time>
      </trkpt>
      <trkpt lat="45.8314" lon="1.20699">
        <ele>279.7</ele>
        <time>2024-10-21T09:56:55Z</time>
      </trkpt>
      <trkpt lat="45.83141" lon="1.207">
        <ele>279.7</ele>
        <time>2024-10-21T09:56:56Z</time>
      </trkpt>
      <trkpt lat="45.83141" lon="1.20701">
        <ele>279.7</ele>
        <time>2024-10-21T09:56:57Z</time>
      </trkpt>
      <trkpt lat="45.83141" lon="1.20704">
        <ele>279.8</ele>
        <time>2024-10-21T09:56:58Z</time>
      </trkpt>
      <trkpt lat="45.83142" lon="1.20705">
        <ele>279.9</ele>
        <time>2024-10-21T09:56:59Z</time>
      </trkpt>
      <trkpt lat="45.83142" lon="1.20708">
        <ele>280</ele>
        <time>2024-10-21T09:57:00Z</time>
      </trkpt>
      <trkpt lat="45.83143" lon="1.20711">
        <ele>280.1</ele>
        <time>2024-10-21T09:57:02Z</time>
      </trkpt>
      <trkpt lat="45.83143" lon="1.20712">
        <ele>280.1</ele>
        <time>2024-10-21T09:57:03Z</time>
      </trkpt>
      <trkpt lat="45.83144" lon="1.20713">
        <ele>280.2</ele>
        <time>2024-10-21T09:57:04Z</time>
      </trkpt>
      <trkpt lat="45.83144" lon="1.20715">
        <ele>280.3</ele>
        <time>2024-10-21T09:57:05Z</time>
      </trkpt>
      <trkpt lat="45.83144" lon="1.20717">
        <ele>280.3</ele>
        <time>2024-10-21T09:57:06Z</time>
      </trkpt>
      <trkpt lat="45.83145" lon="1.20718">
        <ele>280.4</ele>
        <time>2024-10-21T09:57:07Z</time>
      </trkpt>
      <trkpt lat="45.83146" lon="1.2072">
        <ele>280.5</ele>
        <time>2024-10-21T09:57:08Z</time>
      </trkpt>
      <trkpt lat="45.83146" lon="1.20721">
        <ele>280.5</ele>
        <time>2024-10-21T09:57:09Z</time>
      </trkpt>
      <trkpt lat="45.83147" lon="1.20723">
        <ele>280.6</ele>
        <time>2024-10-21T09:57:10Z</time>
      </trkpt>
      <trkpt lat="45.83147" lon="1.20724">
        <ele>280.7</ele>
        <time>2024-10-21T09:57:11Z</time>
      </trkpt>
      <trkpt lat="45.83148" lon="1.20725">
        <ele>280.7</ele>
        <time>2024-10-21T09:57:12Z</time>
      </trkpt>
      <trkpt lat="45.83149" lon="1.20728">
        <ele>280.8</ele>
        <time>2024-10-21T09:57:13Z</time>
      </trkpt>
      <trkpt lat="45.83149" lon="1.20729">
        <ele>280.9</ele>
        <time>2024-10-21T09:57:14Z</time>
      </trkpt>
      <trkpt lat="45.83149" lon="1.2073">
        <ele>280.9</ele>
        <time>2024-10-21T09:57:15Z</time>
      </trkpt>
      <trkpt lat="45.83151" lon="1.20733">
        <ele>281</ele>
        <time>2024-10-21T09:57:16Z</time>
      </trkpt>
      <trkpt lat="45.83151" lon="1.20734">
        <ele>281.1</ele>
        <time>2024-10-21T09:57:17Z</time>
      </trkpt>
      <trkpt lat="45.83151" lon="1.20735">
        <ele>281.2</ele>
        <time>2024-10-21T09:57:18Z</time>
      </trkpt>
      <trkpt lat="45.83152" lon="1.20736">
        <ele>281.2</ele>
        <time>2024-10-21T09:57:19Z</time>
      </trkpt>
      <trkpt lat="45.83153" lon="1.20738">
        <ele>281.3</ele>
        <time>2024-10-21T09:57:20Z</time>
      </trkpt>
      <trkpt lat="45.83153" lon="1.20739">
        <ele>281.3</ele>
        <time>2024-10-21T09:57:21Z</time>
      </trkpt>
      <trkpt lat="45.83154" lon="1.20741">
        <ele>281.4</ele>
        <time>2024-10-21T09:57:22Z</time>
      </trkpt>
      <trkpt lat="45.83155" lon="1.20743">
        <ele>281.5</ele>
        <time>2024-10-21T09:57:23Z</time>
      </trkpt>
      <trkpt lat="45.83155" lon="1.20744">
        <ele>281.5</ele>
        <time>2024-10-21T09:57:24Z</time>
      </trkpt>
      <trkpt lat="45.83156" lon="1.20745">
        <ele>281.6</ele>
        <time>2024-10-21T09:57:25Z</time>
      </trkpt>
      <trkpt lat="45.83157" lon="1.20746">
        <ele>281.7</ele>
        <time>2024-10-21T09:57:26Z</time>
      </trkpt>
      <trkpt lat="45.83158" lon="1.20748">
        <ele>281.8</ele>
        <time>2024-10-21T09:57:27Z</time>
      </trkpt>
      <trkpt lat="45.83158" lon="1.2075">
        <ele>281.8</ele>
        <time>2024-10-21T09:57:28Z</time>
      </trkpt>
      <trkpt lat="45.83159" lon="1.20752">
        <ele>281.9</ele>
        <time>2024-10-21T09:57:29Z</time>
      </trkpt>
      <trkpt lat="45.8316" lon="1.20753">
        <ele>282</ele>
        <time>2024-10-21T09:57:30Z</time>
      </trkpt>
      <trkpt lat="45.8316" lon="1.20754">
        <ele>282</ele>
        <time>2024-10-21T09:57:31Z</time>
      </trkpt>
      <trkpt lat="45.83161" lon="1.20756">
        <ele>282.1</ele>
        <time>2024-10-21T09:57:32Z</time>
      </trkpt>
      <trkpt lat="45.83161" lon="1.20758">
        <ele>282.2</ele>
        <time>2024-10-21T09:57:33Z</time>
      </trkpt>
      <trkpt lat="45.83163" lon="1.20761">
        <ele>282.3</ele>
        <time>2024-10-21T09:57:34Z</time>
      </trkpt>
      <trkpt lat="45.83163" lon="1.20763">
        <ele>282.4</ele>
        <time>2024-10-21T09:57:35Z</time>
      </trkpt>
      <trkpt lat="45.83164" lon="1.20764">
        <ele>282.4</ele>
        <time>2024-10-21T09:57:36Z</time>
      </trkpt>
      <trkpt lat="45.83165" lon="1.20767">
        <ele>282.5</ele>
        <time>2024-10-21T09:57:38Z</time>
      </trkpt>
      <trkpt lat="45.83165" lon="1.20768">
        <ele>282.6</ele>
        <time>2024-10-21T09:57:39Z</time>
      </trkpt>
      <trkpt lat="45.83166" lon="1.20771">
        <ele>282.7</ele>
        <time>2024-10-21T09:57:40Z</time>
      </trkpt>
      <trkpt lat="45.83166" lon="1.20772">
        <ele>282.7</ele>
        <time>2024-10-21T09:57:41Z</time>
      </trkpt>
      <trkpt lat="45.83166" lon="1.20773">
        <ele>282.8</ele>
        <time>2024-10-21T09:57:42Z</time>
      </trkpt>
      <trkpt lat="45.83167" lon="1.20776">
        <ele>282.9</ele>
        <time>2024-10-21T09:57:43Z</time>
      </trkpt>
      <trkpt lat="45.83167" lon="1.20778">
        <ele>282.9</ele>
        <time>2024-10-21T09:57:44Z</time>
      </trkpt>
      <trkpt lat="45.83167" lon="1.20779">
        <ele>283</ele>
        <time>2024-10-21T09:57:45Z</time>
      </trkpt>
      <trkpt lat="45.83168" lon="1.20782">
        <ele>283.1</ele>
        <time>2024-10-21T09:57:46Z</time>
      </trkpt>
      <trkpt lat="45.83168" lon="1.20783">
        <ele>283.1</ele>
        <time>2024-10-21T09:57:47Z</time>
      </trkpt>
      <trkpt lat="45.83168" lon="1.20784">
        <ele>283.2</ele>
        <time>2024-10-21T09:57:48Z</time>
      </trkpt>
      <trkpt lat="45.83169" lon="1.20787">
        <ele>283.3</ele>
        <time>2024-10-21T09:57:49Z</time>
      </trkpt>
      <trkpt lat="45.83169" lon="1.20788">
        <ele>283.3</ele>
        <time>2024-10-21T09:57:50Z</time>
      </trkpt>
      <trkpt lat="45.8317" lon="1.20789">
        <ele>283.4</ele>
        <time>2024-10-21T09:57:51Z</time>
      </trkpt>
      <trkpt lat="45.8317" lon="1.20792">
        <ele>283.5</ele>
        <time>2024-10-21T09:57:52Z</time>
      </trkpt>
      <trkpt lat="45.83171" lon="1.20793">
        <ele>283.5</ele>
        <time>2024-10-21T09:57:53Z</time>
      </trkpt>
      <trkpt lat="45.83171" lon="1.20794">
        <ele>283.5</ele>
        <time>2024-10-21T09:57:54Z</time>
      </trkpt>
      <trkpt lat="45.83172" lon="1.20797">
        <ele>283.6</ele>
        <time>2024-10-21T09:57:55Z</time>
      </trkpt>
      <trkpt lat="45.83173" lon="1.20798">
        <ele>283.7</ele>
        <time>2024-10-21T09:57:56Z</time>
      </trkpt>
      <trkpt lat="45.83173" lon="1.20799">
        <ele>283.7</ele>
        <time>2024-10-21T09:57:57Z</time>
      </trkpt>
      <trkpt lat="45.83175" lon="1.20801">
        <ele>283.8</ele>
        <time>2024-10-21T09:57:58Z</time>
      </trkpt>
      <trkpt lat="45.83175" lon="1.20802">
        <ele>283.9</ele>
        <time>2024-10-21T09:57:59Z</time>
      </trkpt>
      <trkpt lat="45.83176" lon="1.20803">
        <ele>283.9</ele>
        <time>2024-10-21T09:58:00Z</time>
      </trkpt>
      <trkpt lat="45.83177" lon="1.20805">
        <ele>284</ele>
        <time>2024-10-21T09:58:01Z</time>
      </trkpt>
      <trkpt lat="45.83178" lon="1.20806">
        <ele>284</ele>
        <time>2024-10-21T09:58:02Z</time>
      </trkpt>
      <trkpt lat="45.83178" lon="1.20807">
        <ele>284.1</ele>
        <time>2024-10-21T09:58:03Z</time>
      </trkpt>
      <trkpt lat="45.83179" lon="1.20809">
        <ele>284.1</ele>
        <time>2024-10-21T09:58:04Z</time>
      </trkpt>
      <trkpt lat="45.8318" lon="1.2081">
        <ele>284.2</ele>
        <time>2024-10-21T09:58:05Z</time>
      </trkpt>
      <trkpt lat="45.83181" lon="1.20813">
        <ele>284.3</ele>
        <time>2024-10-21T09:58:06Z</time>
      </trkpt>
      <trkpt lat="45.83181" lon="1.20814">
        <ele>284.3</ele>
        <time>2024-10-21T09:58:07Z</time>
      </trkpt>
      <trkpt lat="45.83182" lon="1.20815">
        <ele>284.3</ele>
        <time>2024-10-21T09:58:08Z</time>
      </trkpt>
      <trkpt lat="45.83183" lon="1.20817">
        <ele>284.4</ele>
        <time>2024-10-21T09:58:09Z</time>
      </trkpt>
      <trkpt lat="45.83183" lon="1.20818">
        <ele>284.5</ele>
        <time>2024-10-21T09:58:10Z</time>
      </trkpt>
      <trkpt lat="45.83184" lon="1.20821">
        <ele>284.5</ele>
        <time>2024-10-21T09:58:11Z</time>
      </trkpt>
      <trkpt lat="45.83185" lon="1.20822">
        <ele>284.6</ele>
        <time>2024-10-21T09:58:12Z</time>
      </trkpt>
      <trkpt lat="45.83185" lon="1.20823">
        <ele>284.6</ele>
        <time>2024-10-21T09:58:13Z</time>
      </trkpt>
      <trkpt lat="45.83186" lon="1.20824">
        <ele>284.6</ele>
        <time>2024-10-21T09:58:14Z</time>
      </trkpt>
      <trkpt lat="45.83187" lon="1.20823">
        <ele>284.7</ele>
        <time>2024-10-21T09:58:15Z</time>
      </trkpt>
      <trkpt lat="45.83187" lon="1.20822">
        <ele>284.7</ele>
        <time>2024-10-21T09:58:16Z</time>
      </trkpt>
      <trkpt lat="45.83187" lon="1.20821">
        <ele>284.7</ele>
        <time>2024-10-21T09:58:17Z</time>
      </trkpt>
      <trkpt lat="45.8319" lon="1.20822">
        <ele>284.8</ele>
        <time>2024-10-21T09:58:18Z</time>
      </trkpt>
      <trkpt lat="45.83191" lon="1.20822">
        <ele>284.8</ele>
        <time>2024-10-21T09:58:20Z</time>
      </trkpt>
      <trkpt lat="45.83192" lon="1.20823">
        <ele>284.9</ele>
        <time>2024-10-21T09:58:21Z</time>
      </trkpt>
      <trkpt lat="45.83194" lon="1.20823">
        <ele>284.9</ele>
        <time>2024-10-21T09:58:22Z</time>
      </trkpt>
      <trkpt lat="45.83195" lon="1.20824">
        <ele>285</ele>
        <time>2024-10-21T09:58:23Z</time>
      </trkpt>
      <trkpt lat="45.83197" lon="1.20825">
        <ele>285</ele>
        <time>2024-10-21T09:58:24Z</time>
      </trkpt>
      <trkpt lat="45.83199" lon="1.20826">
        <ele>285.1</ele>
        <time>2024-10-21T09:58:25Z</time>
      </trkpt>
      <trkpt lat="45.83199" lon="1.20827">
        <ele>285.1</ele>
        <time>2024-10-21T09:58:26Z</time>
      </trkpt>
      <trkpt lat="45.832" lon="1.20828">
        <ele>285.1</ele>
        <time>2024-10-21T09:58:27Z</time>
      </trkpt>
      <trkpt lat="45.83201" lon="1.2083">
        <ele>285.2</ele>
        <time>2024-10-21T09:58:28Z</time>
      </trkpt>
      <trkpt lat="45.83202" lon="1.20832">
        <ele>285.2</ele>
        <time>2024-10-21T09:58:29Z</time>
      </trkpt>
      <trkpt lat="45.83203" lon="1.20835">
        <ele>285.3</ele>
        <time>2024-10-21T09:58:30Z</time>
      </trkpt>
      <trkpt lat="45.83204" lon="1.20836">
        <ele>285.3</ele>
        <time>2024-10-21T09:58:31Z</time>
      </trkpt>
      <trkpt lat="45.83204" lon="1.20836">
        <ele>285.3</ele>
        <time>2024-10-21T09:58:32Z</time>
      </trkpt>
      <trkpt lat="45.83205" lon="1.20838">
        <ele>285.4</ele>
        <time>2024-10-21T09:58:33Z</time>
      </trkpt>
      <trkpt lat="45.83206" lon="1.2084">
        <ele>285.4</ele>
        <time>2024-10-21T09:58:34Z</time>
      </trkpt>
      <trkpt lat="45.83206" lon="1.20842">
        <ele>285.4</ele>
        <time>2024-10-21T09:58:35Z</time>
      </trkpt>
      <trkpt lat="45.83207" lon="1.20843">
        <ele>285.5</ele>
        <time>2024-10-21T09:58:36Z</time>
      </trkpt>
      <trkpt lat="45.83208" lon="1.20845">
        <ele>285.5</ele>
        <time>2024-10-21T09:58:37Z</time>
      </trkpt>
      <trkpt lat="45.83209" lon="1.20848">
        <ele>285.6</ele>
        <time>2024-10-21T09:58:38Z</time>
      </trkpt>
      <trkpt lat="45.8321" lon="1.20849">
        <ele>285.6</ele>
        <time>2024-10-21T09:58:39Z</time>
      </trkpt>
      <trkpt lat="45.8321" lon="1.20851">
        <ele>285.6</ele>
        <time>2024-10-21T09:58:40Z</time>
      </trkpt>
      <trkpt lat="45.83211" lon="1.20853">
        <ele>285.7</ele>
        <time>2024-10-21T09:58:42Z</time>
      </trkpt>
      <trkpt lat="45.83212" lon="1.20854">
        <ele>285.7</ele>
        <time>2024-10-21T09:58:43Z</time>
      </trkpt>
      <trkpt lat="45.83213" lon="1.20856">
        <ele>285.7</ele>
        <time>2024-10-21T09:58:44Z</time>
      </trkpt>
      <trkpt lat="45.83213" lon="1.20857">
        <ele>285.8</ele>
        <time>2024-10-21T09:58:45Z</time>
      </trkpt>
      <trkpt lat="45.83214" lon="1.20858">
        <ele>285.8</ele>
        <time>2024-10-21T09:58:46Z</time>
      </trkpt>
      <trkpt lat="45.83215" lon="1.2086">
        <ele>285.8</ele>
        <time>2024-10-21T09:58:47Z</time>
      </trkpt>
      <trkpt lat="45.83216" lon="1.20861">
        <ele>285.8</ele>
        <time>2024-10-21T09:58:48Z</time>
      </trkpt>
      <trkpt lat="45.83217" lon="1.20863">
        <ele>285.9</ele>
        <time>2024-10-21T09:58:49Z</time>
      </trkpt>
      <trkpt lat="45.83217" lon="1.20865">
        <ele>285.9</ele>
        <time>2024-10-21T09:58:50Z</time>
      </trkpt>
      <trkpt lat="45.83218" lon="1.20866">
        <ele>285.9</ele>
        <time>2024-10-21T09:58:51Z</time>
      </trkpt>
      <trkpt lat="45.83219" lon="1.20868">
        <ele>285.9</ele>
        <time>2024-10-21T09:58:52Z</time>
      </trkpt>
      <trkpt lat="45.8322" lon="1.2087">
        <ele>286</ele>
        <time>2024-10-21T09:58:53Z</time>
      </trkpt>
      <trkpt lat="45.8322" lon="1.20872">
        <ele>286</ele>
        <time>2024-10-21T09:58:54Z</time>
      </trkpt>
      <trkpt lat="45.83222" lon="1.20874">
        <ele>286</ele>
        <time>2024-10-21T09:58:55Z</time>
      </trkpt>
      <trkpt lat="45.83222" lon="1.20875">
        <ele>286</ele>
        <time>2024-10-21T09:58:56Z</time>
      </trkpt>
      <trkpt lat="45.83223" lon="1.20876">
        <ele>286</ele>
        <time>2024-10-21T09:58:57Z</time>
      </trkpt>
      <trkpt lat="45.83224" lon="1.20877">
        <ele>286.1</ele>
        <time>2024-10-21T09:58:58Z</time>
      </trkpt>
      <trkpt lat="45.83225" lon="1.20879">
        <ele>286.1</ele>
        <time>2024-10-21T09:58:59Z</time>
      </trkpt>
      <trkpt lat="45.83227" lon="1.20881">
        <ele>286.1</ele>
        <time>2024-10-21T09:59:00Z</time>
      </trkpt>
      <trkpt lat="45.83228" lon="1.20882">
        <ele>286.2</ele>
        <time>2024-10-21T09:59:01Z</time>
      </trkpt>
      <trkpt lat="45.83228" lon="1.20882">
        <ele>286.2</ele>
        <time>2024-10-21T09:59:02Z</time>
      </trkpt>
      <trkpt lat="45.83229" lon="1.20884">
        <ele>286.2</ele>
        <time>2024-10-21T09:59:03Z</time>
      </trkpt>
      <trkpt lat="45.8323" lon="1.20885">
        <ele>286.2</ele>
        <time>2024-10-21T09:59:04Z</time>
      </trkpt>
      <trkpt lat="45.83232" lon="1.20888">
        <ele>286.2</ele>
        <time>2024-10-21T09:59:05Z</time>
      </trkpt>
      <trkpt lat="45.83233" lon="1.20889">
        <ele>286.2</ele>
        <time>2024-10-21T09:59:06Z</time>
      </trkpt>
      <trkpt lat="45.83233" lon="1.2089">
        <ele>286.3</ele>
        <time>2024-10-21T09:59:07Z</time>
      </trkpt>
      <trkpt lat="45.83235" lon="1.20892">
        <ele>286.3</ele>
        <time>2024-10-21T09:59:08Z</time>
      </trkpt>
      <trkpt lat="45.83236" lon="1.20894">
        <ele>286.3</ele>
        <time>2024-10-21T09:59:10Z</time>
      </trkpt>
      <trkpt lat="45.83237" lon="1.20895">
        <ele>286.3</ele>
        <time>2024-10-21T09:59:11Z</time>
      </trkpt>
      <trkpt lat="45.83237" lon="1.20896">
        <ele>286.3</ele>
        <time>2024-10-21T09:59:12Z</time>
      </trkpt>
      <trkpt lat="45.83238" lon="1.20898">
        <ele>286.3</ele>
        <time>2024-10-21T09:59:13Z</time>
      </trkpt>
      <trkpt lat="45.83239" lon="1.20899">
        <ele>286.3</ele>
        <time>2024-10-21T09:59:14Z</time>
      </trkpt>
      <trkpt lat="45.8324" lon="1.20901">
        <ele>286.3</ele>
        <time>2024-10-21T09:59:15Z</time>
      </trkpt>
      <trkpt lat="45.83241" lon="1.20902">
        <ele>286.3</ele>
        <time>2024-10-21T09:59:16Z</time>
      </trkpt>
      <trkpt lat="45.83241" lon="1.20903">
        <ele>286.3</ele>
        <time>2024-10-21T09:59:17Z</time>
      </trkpt>
      <trkpt lat="45.83242" lon="1.20905">
        <ele>286.3</ele>
        <time>2024-10-21T09:59:18Z</time>
      </trkpt>
      <trkpt lat="45.83243" lon="1.20907">
        <ele>286.3</ele>
        <time>2024-10-21T09:59:19Z</time>
      </trkpt>
      <trkpt lat="45.83245" lon="1.20909">
        <ele>286.3</ele>
        <time>2024-10-21T09:59:20Z</time>
      </trkpt>
      <trkpt lat="45.83245" lon="1.2091">
        <ele>286.3</ele>
        <time>2024-10-21T09:59:21Z</time>
      </trkpt>
      <trkpt lat="45.83246" lon="1.20911">
        <ele>286.3</ele>
        <time>2024-10-21T09:59:22Z</time>
      </trkpt>
      <trkpt lat="45.83246" lon="1.20912">
        <ele>286.3</ele>
        <time>2024-10-21T09:59:23Z</time>
      </trkpt>
      <trkpt lat="45.83247" lon="1.20913">
        <ele>286.3</ele>
        <time>2024-10-21T09:59:24Z</time>
      </trkpt>
      <trkpt lat="45.83248" lon="1.20914">
        <ele>286.3</ele>
        <time>2024-10-21T09:59:25Z</time>
      </trkpt>
      <trkpt lat="45.83249" lon="1.20916">
        <ele>286.3</ele>
        <time>2024-10-21T09:59:26Z</time>
      </trkpt>
      <trkpt lat="45.8325" lon="1.20917">
        <ele>286.3</ele>
        <time>2024-10-21T09:59:27Z</time>
      </trkpt>
      <trkpt lat="45.83251" lon="1.20919">
        <ele>286.3</ele>
        <time>2024-10-21T09:59:28Z</time>
      </trkpt>
      <trkpt lat="45.83252" lon="1.2092">
        <ele>286.3</ele>
        <time>2024-10-21T09:59:29Z</time>
      </trkpt>
      <trkpt lat="45.83253" lon="1.20922">
        <ele>286.3</ele>
        <time>2024-10-21T09:59:30Z</time>
      </trkpt>
      <trkpt lat="45.83254" lon="1.20923">
        <ele>286.2</ele>
        <time>2024-10-21T09:59:31Z</time>
      </trkpt>
      <trkpt lat="45.83255" lon="1.20925">
        <ele>286.2</ele>
        <time>2024-10-21T09:59:32Z</time>
      </trkpt>
      <trkpt lat="45.83256" lon="1.20926">
        <ele>286.2</ele>
        <time>2024-10-21T09:59:33Z</time>
      </trkpt>
      <trkpt lat="45.83257" lon="1.20928">
        <ele>286.2</ele>
        <time>2024-10-21T09:59:34Z</time>
      </trkpt>
      <trkpt lat="45.83258" lon="1.2093">
        <ele>286.2</ele>
        <time>2024-10-21T09:59:35Z</time>
      </trkpt>
      <trkpt lat="45.83258" lon="1.20931">
        <ele>286.2</ele>
        <time>2024-10-21T09:59:36Z</time>
      </trkpt>
      <trkpt lat="45.83258" lon="1.20932">
        <ele>286.2</ele>
        <time>2024-10-21T09:59:37Z</time>
      </trkpt>
      <trkpt lat="45.83258" lon="1.20931">
        <ele>286.2</ele>
        <time>2024-10-21T09:59:38Z</time>
      </trkpt>
      <trkpt lat="45.83258" lon="1.20931">
        <ele>286.2</ele>
        <time>2024-10-21T09:59:39Z</time>
      </trkpt>
      <trkpt lat="45.83258" lon="1.20931">
        <ele>286.2</ele>
        <time>2024-10-21T09:59:40Z</time>
      </trkpt>
      <trkpt lat="45.83258" lon="1.20932">
        <ele>286.1</ele>
        <time>2024-10-21T09:59:41Z</time>
      </trkpt>
      <trkpt lat="45.83259" lon="1.20932">
        <ele>286.1</ele>
        <time>2024-10-21T09:59:42Z</time>
      </trkpt>
      <trkpt lat="45.83259" lon="1.20933">
        <ele>286.1</ele>
        <time>2024-10-21T09:59:43Z</time>
      </trkpt>
      <trkpt lat="45.8326" lon="1.20934">
        <ele>286.1</ele>
        <time>2024-10-21T09:59:44Z</time>
      </trkpt>
      <trkpt lat="45.8326" lon="1.20936">
        <ele>286.1</ele>
        <time>2024-10-21T09:59:45Z</time>
      </trkpt>
      <trkpt lat="45.83261" lon="1.20937">
        <ele>286.1</ele>
        <time>2024-10-21T09:59:46Z</time>
      </trkpt>
      <trkpt lat="45.83264" lon="1.20939">
        <ele>286</ele>
        <time>2024-10-21T09:59:47Z</time>
      </trkpt>
      <trkpt lat="45.83265" lon="1.2094">
        <ele>286</ele>
        <time>2024-10-21T09:59:48Z</time>
      </trkpt>
      <trkpt lat="45.83269" lon="1.20943">
        <ele>286</ele>
        <time>2024-10-21T09:59:49Z</time>
      </trkpt>
      <trkpt lat="45.83271" lon="1.20944">
        <ele>285.9</ele>
        <time>2024-10-21T09:59:50Z</time>
      </trkpt>
      <trkpt lat="45.83272" lon="1.20945">
        <ele>285.9</ele>
        <time>2024-10-21T09:59:51Z</time>
      </trkpt>
      <trkpt lat="45.83273" lon="1.20947">
        <ele>285.9</ele>
        <time>2024-10-21T09:59:52Z</time>
      </trkpt>
      <trkpt lat="45.83275" lon="1.20949">
        <ele>285.9</ele>
        <time>2024-10-21T09:59:53Z</time>
      </trkpt>
      <trkpt lat="45.83277" lon="1.20952">
        <ele>285.8</ele>
        <time>2024-10-21T09:59:54Z</time>
      </trkpt>
      <trkpt lat="45.83277" lon="1.20953">
        <ele>285.8</ele>
        <time>2024-10-21T09:59:55Z</time>
      </trkpt>
      <trkpt lat="45.83278" lon="1.20954">
        <ele>285.7</ele>
        <time>2024-10-21T09:59:56Z</time>
      </trkpt>
      <trkpt lat="45.83279" lon="1.20956">
        <ele>285.7</ele>
        <time>2024-10-21T09:59:57Z</time>
      </trkpt>
      <trkpt lat="45.8328" lon="1.2096">
        <ele>285.6</ele>
        <time>2024-10-21T09:59:58Z</time>
      </trkpt>
      <trkpt lat="45.83281" lon="1.20961">
        <ele>285.5</ele>
        <time>2024-10-21T09:59:59Z</time>
      </trkpt>
      <trkpt lat="45.83282" lon="1.20963">
        <ele>285.5</ele>
        <time>2024-10-21T10:00:00Z</time>
      </trkpt>
      <trkpt lat="45.83282" lon="1.20963">
        <ele>285.5</ele>
        <time>2024-10-21T10:00:01Z</time>
      </trkpt>
      <trkpt lat="45.83282" lon="1.20965">
        <ele>285.4</ele>
        <time>2024-10-21T10:00:02Z</time>
      </trkpt>
      <trkpt lat="45.83283" lon="1.20967">
        <ele>285.4</ele>
        <time>2024-10-21T10:00:03Z</time>
      </trkpt>
      <trkpt lat="45.83284" lon="1.20968">
        <ele>285.3</ele>
        <time>2024-10-21T10:00:04Z</time>
      </trkpt>
      <trkpt lat="45.83285" lon="1.20971">
        <ele>285.3</ele>
        <time>2024-10-21T10:00:05Z</time>
      </trkpt>
      <trkpt lat="45.83285" lon="1.20972">
        <ele>285.2</ele>
        <time>2024-10-21T10:00:06Z</time>
      </trkpt>
      <trkpt lat="45.83286" lon="1.20973">
        <ele>285.2</ele>
        <time>2024-10-21T10:00:07Z</time>
      </trkpt>
      <trkpt lat="45.83288" lon="1.20975">
        <ele>285.1</ele>
        <time>2024-10-21T10:00:08Z</time>
      </trkpt>
      <trkpt lat="45.83289" lon="1.20975">
        <ele>285.1</ele>
        <time>2024-10-21T10:00:09Z</time>
      </trkpt>
      <trkpt lat="45.83289" lon="1.20976">
        <ele>285.1</ele>
        <time>2024-10-21T10:00:10Z</time>
      </trkpt>
      <trkpt lat="45.83291" lon="1.20978">
        <ele>285</ele>
        <time>2024-10-21T10:00:11Z</time>
      </trkpt>
      <trkpt lat="45.83292" lon="1.20979">
        <ele>285</ele>
        <time>2024-10-21T10:00:12Z</time>
      </trkpt>
      <trkpt lat="45.83293" lon="1.20979">
        <ele>284.9</ele>
        <time>2024-10-21T10:00:13Z</time>
      </trkpt>
      <trkpt lat="45.83294" lon="1.2098">
        <ele>284.9</ele>
        <time>2024-10-21T10:00:14Z</time>
      </trkpt>
      <trkpt lat="45.83295" lon="1.20981">
        <ele>284.8</ele>
        <time>2024-10-21T10:00:15Z</time>
      </trkpt>
      <trkpt lat="45.83297" lon="1.20983">
        <ele>284.7</ele>
        <time>2024-10-21T10:00:16Z</time>
      </trkpt>
      <trkpt lat="45.83298" lon="1.20984">
        <ele>284.7</ele>
        <time>2024-10-21T10:00:17Z</time>
      </trkpt>
      <trkpt lat="45.83298" lon="1.20985">
        <ele>284.7</ele>
        <time>2024-10-21T10:00:18Z</time>
      </trkpt>
      <trkpt lat="45.833" lon="1.20987">
        <ele>284.6</ele>
        <time>2024-10-21T10:00:19Z</time>
      </trkpt>
      <trkpt lat="45.833" lon="1.20988">
        <ele>284.6</ele>
        <time>2024-10-21T10:00:20Z</time>
      </trkpt>
      <trkpt lat="45.83301" lon="1.20989">
        <ele>284.5</ele>
        <time>2024-10-21T10:00:21Z</time>
      </trkpt>
      <trkpt lat="45.83302" lon="1.2099">
        <ele>284.5</ele>
        <time>2024-10-21T10:00:22Z</time>
      </trkpt>
      <trkpt lat="45.83303" lon="1.20991">
        <ele>284.4</ele>
        <time>2024-10-21T10:00:23Z</time>
      </trkpt>
      <trkpt lat="45.83304" lon="1.20993">
        <ele>284.3</ele>
        <time>2024-10-21T10:00:24Z</time>
      </trkpt>
      <trkpt lat="45.83305" lon="1.20994">
        <ele>284.3</ele>
        <time>2024-10-21T10:00:25Z</time>
      </trkpt>
      <trkpt lat="45.83306" lon="1.20995">
        <ele>284.3</ele>
        <time>2024-10-21T10:00:26Z</time>
      </trkpt>
      <trkpt lat="45.83307" lon="1.20997">
        <ele>284.2</ele>
        <time>2024-10-21T10:00:27Z</time>
      </trkpt>
      <trkpt lat="45.83308" lon="1.20998">
        <ele>284.2</ele>
        <time>2024-10-21T10:00:28Z</time>
      </trkpt>
      <trkpt lat="45.83308" lon="1.20999">
        <ele>284.1</ele>
        <time>2024-10-21T10:00:29Z</time>
      </trkpt>
      <trkpt lat="45.83309" lon="1.21001">
        <ele>284.1</ele>
        <time>2024-10-21T10:00:30Z</time>
      </trkpt>
      <trkpt lat="45.8331" lon="1.21002">
        <ele>284</ele>
        <time>2024-10-21T10:00:31Z</time>
      </trkpt>
      <trkpt lat="45.83311" lon="1.21005">
        <ele>283.9</ele>
        <time>2024-10-21T10:00:32Z</time>
      </trkpt>
      <trkpt lat="45.83312" lon="1.21006">
        <ele>283.9</ele>
        <time>2024-10-21T10:00:33Z</time>
      </trkpt>
      <trkpt lat="45.83312" lon="1.21007">
        <ele>283.9</ele>
        <time>2024-10-21T10:00:34Z</time>
      </trkpt>
      <trkpt lat="45.83313" lon="1.21008">
        <ele>283.8</ele>
        <time>2024-10-21T10:00:35Z</time>
      </trkpt>
      <trkpt lat="45.83313" lon="1.21009">
        <ele>283.8</ele>
        <time>2024-10-21T10:00:36Z</time>
      </trkpt>
      <trkpt lat="45.83313" lon="1.2101">
        <ele>283.8</ele>
        <time>2024-10-21T10:00:37Z</time>
      </trkpt>
      <trkpt lat="45.83314" lon="1.21012">
        <ele>283.7</ele>
        <time>2024-10-21T10:00:38Z</time>
      </trkpt>
      <trkpt lat="45.83315" lon="1.21013">
        <ele>283.7</ele>
        <time>2024-10-21T10:00:39Z</time>
      </trkpt>
      <trkpt lat="45.83316" lon="1.21015">
        <ele>283.6</ele>
        <time>2024-10-21T10:00:40Z</time>
      </trkpt>
      <trkpt lat="45.83318" lon="1.21017">
        <ele>283.6</ele>
        <time>2024-10-21T10:00:41Z</time>
      </trkpt>
      <trkpt lat="45.83318" lon="1.21018">
        <ele>283.6</ele>
        <time>2024-10-21T10:00:42Z</time>
      </trkpt>
      <trkpt lat="45.83319" lon="1.2102">
        <ele>283.5</ele>
        <time>2024-10-21T10:00:43Z</time>
      </trkpt>
      <trkpt lat="45.8332" lon="1.21022">
        <ele>283.5</ele>
        <time>2024-10-21T10:00:44Z</time>
      </trkpt>
      <trkpt lat="45.83321" lon="1.21024">
        <ele>283.5</ele>
        <time>2024-10-21T10:00:45Z</time>
      </trkpt>
      <trkpt lat="45.83321" lon="1.21027">
        <ele>283.5</ele>
        <time>2024-10-21T10:00:46Z</time>
      </trkpt>
      <trkpt lat="45.83322" lon="1.21028">
        <ele>283.4</ele>
        <time>2024-10-21T10:00:47Z</time>
      </trkpt>
      <trkpt lat="45.83322" lon="1.2103">
        <ele>283.4</ele>
        <time>2024-10-21T10:00:48Z</time>
      </trkpt>
      <trkpt lat="45.83323" lon="1.21032">
        <ele>283.3</ele>
        <time>2024-10-21T10:00:49Z</time>
      </trkpt>
      <trkpt lat="45.83324" lon="1.21035">
        <ele>283.2</ele>
        <time>2024-10-21T10:00:50Z</time>
      </trkpt>
      <trkpt lat="45.83324" lon="1.21036">
        <ele>283.2</ele>
        <time>2024-10-21T10:00:51Z</time>
      </trkpt>
      <trkpt lat="45.83324" lon="1.21037">
        <ele>283.1</ele>
        <time>2024-10-21T10:00:52Z</time>
      </trkpt>
      <trkpt lat="45.83324" lon="1.21039">
        <ele>283</ele>
        <time>2024-10-21T10:00:53Z</time>
      </trkpt>
      <trkpt lat="45.83324" lon="1.21041">
        <ele>283</ele>
        <time>2024-10-21T10:00:54Z</time>
      </trkpt>
      <trkpt lat="45.83325" lon="1.21042">
        <ele>282.9</ele>
        <time>2024-10-21T10:00:55Z</time>
      </trkpt>
      <trkpt lat="45.83325" lon="1.21044">
        <ele>282.9</ele>
        <time>2024-10-21T10:00:56Z</time>
      </trkpt>
      <trkpt lat="45.83326" lon="1.21046">
        <ele>282.8</ele>
        <time>2024-10-21T10:00:57Z</time>
      </trkpt>
      <trkpt lat="45.83327" lon="1.21048">
        <ele>282.7</ele>
        <time>2024-10-21T10:00:58Z</time>
      </trkpt>
      <trkpt lat="45.83327" lon="1.2105">
        <ele>282.7</ele>
        <time>2024-10-21T10:00:59Z</time>
      </trkpt>
      <trkpt lat="45.83329" lon="1.21053">
        <ele>282.5</ele>
        <time>2024-10-21T10:01:00Z</time>
      </trkpt>
      <trkpt lat="45.83329" lon="1.21054">
        <ele>282.5</ele>
        <time>2024-10-21T10:01:01Z</time>
      </trkpt>
      <trkpt lat="45.83329" lon="1.21054">
        <ele>282.5</ele>
        <time>2024-10-21T10:01:02Z</time>
      </trkpt>
      <trkpt lat="45.8333" lon="1.21056">
        <ele>282.4</ele>
        <time>2024-10-21T10:01:03Z</time>
      </trkpt>
      <trkpt lat="45.83331" lon="1.21058">
        <ele>282.3</ele>
        <time>2024-10-21T10:01:04Z</time>
      </trkpt>
      <trkpt lat="45.83331" lon="1.21061">
        <ele>282.2</ele>
        <time>2024-10-21T10:01:05Z</time>
      </trkpt>
      <trkpt lat="45.83332" lon="1.21062">
        <ele>282.2</ele>
        <time>2024-10-21T10:01:06Z</time>
      </trkpt>
      <trkpt lat="45.83332" lon="1.21063">
        <ele>282.1</ele>
        <time>2024-10-21T10:01:07Z</time>
      </trkpt>
      <trkpt lat="45.83332" lon="1.21065">
        <ele>282.1</ele>
        <time>2024-10-21T10:01:08Z</time>
      </trkpt>
      <trkpt lat="45.83333" lon="1.21067">
        <ele>282</ele>
        <time>2024-10-21T10:01:09Z</time>
      </trkpt>
      <trkpt lat="45.83333" lon="1.2107">
        <ele>281.9</ele>
        <time>2024-10-21T10:01:10Z</time>
      </trkpt>
      <trkpt lat="45.83333" lon="1.21071">
        <ele>281.8</ele>
        <time>2024-10-21T10:01:11Z</time>
      </trkpt>
      <trkpt lat="45.83334" lon="1.21073">
        <ele>281.8</ele>
        <time>2024-10-21T10:01:12Z</time>
      </trkpt>
      <trkpt lat="45.83334" lon="1.21075">
        <ele>281.7</ele>
        <time>2024-10-21T10:01:13Z</time>
      </trkpt>
      <trkpt lat="45.83335" lon="1.21077">
        <ele>281.6</ele>
        <time>2024-10-21T10:01:14Z</time>
      </trkpt>
      <trkpt lat="45.83335" lon="1.21079">
        <ele>281.6</ele>
        <time>2024-10-21T10:01:15Z</time>
      </trkpt>
      <trkpt lat="45.83335" lon="1.2108">
        <ele>281.5</ele>
        <time>2024-10-21T10:01:16Z</time>
      </trkpt>
      <trkpt lat="45.83335" lon="1.21082">
        <ele>281.5</ele>
        <time>2024-10-21T10:01:17Z</time>
      </trkpt>
      <trkpt lat="45.83335" lon="1.21085">
        <ele>281.3</ele>
        <time>2024-10-21T10:01:18Z</time>
      </trkpt>
      <trkpt lat="45.83335" lon="1.21086">
        <ele>281.3</ele>
        <time>2024-10-21T10:01:19Z</time>
      </trkpt>
      <trkpt lat="45.83336" lon="1.21088">
        <ele>281.2</ele>
        <time>2024-10-21T10:01:20Z</time>
      </trkpt>
      <trkpt lat="45.83336" lon="1.2109">
        <ele>281.1</ele>
        <time>2024-10-21T10:01:21Z</time>
      </trkpt>
      <trkpt lat="45.83336" lon="1.21092">
        <ele>281.1</ele>
        <time>2024-10-21T10:01:22Z</time>
      </trkpt>
      <trkpt lat="45.83337" lon="1.21094">
        <ele>281</ele>
        <time>2024-10-21T10:01:23Z</time>
      </trkpt>
      <trkpt lat="45.83337" lon="1.21096">
        <ele>280.9</ele>
        <time>2024-10-21T10:01:24Z</time>
      </trkpt>
      <trkpt lat="45.83337" lon="1.21099">
        <ele>280.8</ele>
        <time>2024-10-21T10:01:25Z</time>
      </trkpt>
      <trkpt lat="45.83338" lon="1.211">
        <ele>280.7</ele>
        <time>2024-10-21T10:01:26Z</time>
      </trkpt>
      <trkpt lat="45.83338" lon="1.21102">
        <ele>280.7</ele>
        <time>2024-10-21T10:01:27Z</time>
      </trkpt>
      <trkpt lat="45.83338" lon="1.21104">
        <ele>280.6</ele>
        <time>2024-10-21T10:01:28Z</time>
      </trkpt>
      <trkpt lat="45.83338" lon="1.21106">
        <ele>280.5</ele>
        <time>2024-10-21T10:01:29Z</time>
      </trkpt>
      <trkpt lat="45.83339" lon="1.21109">
        <ele>280.4</ele>
        <time>2024-10-21T10:01:30Z</time>
      </trkpt>
      <trkpt lat="45.83339" lon="1.2111">
        <ele>280.3</ele>
        <time>2024-10-21T10:01:31Z</time>
      </trkpt>
      <trkpt lat="45.83339" lon="1.21112">
        <ele>280.3</ele>
        <time>2024-10-21T10:01:32Z</time>
      </trkpt>
      <trkpt lat="45.83339" lon="1.21114">
        <ele>280.2</ele>
        <time>2024-10-21T10:01:33Z</time>
      </trkpt>
      <trkpt lat="45.8334" lon="1.21118">
        <ele>280</ele>
        <time>2024-10-21T10:01:34Z</time>
      </trkpt>
      <trkpt lat="45.8334" lon="1.21118">
        <ele>280</ele>
        <time>2024-10-21T10:01:35Z</time>
      </trkpt>
      <trkpt lat="45.8334" lon="1.21119">
        <ele>280</ele>
        <time>2024-10-21T10:01:36Z</time>
      </trkpt>
      <trkpt lat="45.83339" lon="1.21121">
        <ele>279.9</ele>
        <time>2024-10-21T10:01:37Z</time>
      </trkpt>
      <trkpt lat="45.8334" lon="1.21124">
        <ele>279.8</ele>
        <time>2024-10-21T10:01:38Z</time>
      </trkpt>
      <trkpt lat="45.8334" lon="1.21125">
        <ele>279.7</ele>
        <time>2024-10-21T10:01:39Z</time>
      </trkpt>
      <trkpt lat="45.8334" lon="1.21126">
        <ele>279.7</ele>
        <time>2024-10-21T10:01:40Z</time>
      </trkpt>
      <trkpt lat="45.83341" lon="1.21128">
        <ele>279.6</ele>
        <time>2024-10-21T10:01:41Z</time>
      </trkpt>
      <trkpt lat="45.83341" lon="1.21129">
        <ele>279.5</ele>
        <time>2024-10-21T10:01:42Z</time>
      </trkpt>
      <trkpt lat="45.83341" lon="1.21131">
        <ele>279.5</ele>
        <time>2024-10-21T10:01:43Z</time>
      </trkpt>
      <trkpt lat="45.83341" lon="1.21134">
        <ele>279.3</ele>
        <time>2024-10-21T10:01:44Z</time>
      </trkpt>
      <trkpt lat="45.83341" lon="1.21135">
        <ele>279.2</ele>
        <time>2024-10-21T10:01:45Z</time>
      </trkpt>
      <trkpt lat="45.83342" lon="1.21136">
        <ele>279.2</ele>
        <time>2024-10-21T10:01:46Z</time>
      </trkpt>
      <trkpt lat="45.83342" lon="1.21139">
        <ele>279.1</ele>
        <time>2024-10-21T10:01:47Z</time>
      </trkpt>
      <trkpt lat="45.83343" lon="1.2114">
        <ele>279</ele>
        <time>2024-10-21T10:01:48Z</time>
      </trkpt>
      <trkpt lat="45.83343" lon="1.21142">
        <ele>278.9</ele>
        <time>2024-10-21T10:01:49Z</time>
      </trkpt>
      <trkpt lat="45.83343" lon="1.21145">
        <ele>278.8</ele>
        <time>2024-10-21T10:01:50Z</time>
      </trkpt>
      <trkpt lat="45.83343" lon="1.2115">
        <ele>278.5</ele>
        <time>2024-10-21T10:01:51Z</time>
      </trkpt>
      <trkpt lat="45.83344" lon="1.21151">
        <ele>278.4</ele>
        <time>2024-10-21T10:01:52Z</time>
      </trkpt>
      <trkpt lat="45.83344" lon="1.21153">
        <ele>278.3</ele>
        <time>2024-10-21T10:01:53Z</time>
      </trkpt>
      <trkpt lat="45.83344" lon="1.21155">
        <ele>278.2</ele>
        <time>2024-10-21T10:01:54Z</time>
      </trkpt>
      <trkpt lat="45.83345" lon="1.21158">
        <ele>278.1</ele>
        <time>2024-10-21T10:01:55Z</time>
      </trkpt>
      <trkpt lat="45.83345" lon="1.21159">
        <ele>278</ele>
        <time>2024-10-21T10:01:56Z</time>
      </trkpt>
      <trkpt lat="45.83345" lon="1.2116">
        <ele>278</ele>
        <time>2024-10-21T10:01:57Z</time>
      </trkpt>
      <trkpt lat="45.83345" lon="1.21162">
        <ele>277.9</ele>
        <time>2024-10-21T10:01:58Z</time>
      </trkpt>
      <trkpt lat="45.83345" lon="1.21164">
        <ele>277.8</ele>
        <time>2024-10-21T10:01:59Z</time>
      </trkpt>
      <trkpt lat="45.83345" lon="1.21166">
        <ele>277.7</ele>
        <time>2024-10-21T10:02:00Z</time>
      </trkpt>
      <trkpt lat="45.83345" lon="1.21168">
        <ele>277.5</ele>
        <time>2024-10-21T10:02:01Z</time>
      </trkpt>
      <trkpt lat="45.83345" lon="1.2117">
        <ele>277.5</ele>
        <time>2024-10-21T10:02:02Z</time>
      </trkpt>
      <trkpt lat="45.83346" lon="1.21172">
        <ele>277.3</ele>
        <time>2024-10-21T10:02:03Z</time>
      </trkpt>
      <trkpt lat="45.83346" lon="1.21174">
        <ele>277.3</ele>
        <time>2024-10-21T10:02:04Z</time>
      </trkpt>
      <trkpt lat="45.83346" lon="1.21176">
        <ele>277.2</ele>
        <time>2024-10-21T10:02:05Z</time>
      </trkpt>
      <trkpt lat="45.83346" lon="1.21177">
        <ele>277.1</ele>
        <time>2024-10-21T10:02:06Z</time>
      </trkpt>
      <trkpt lat="45.83347" lon="1.21179">
        <ele>277</ele>
        <time>2024-10-21T10:02:07Z</time>
      </trkpt>
      <trkpt lat="45.83347" lon="1.21181">
        <ele>276.9</ele>
        <time>2024-10-21T10:02:08Z</time>
      </trkpt>
      <trkpt lat="45.83348" lon="1.21184">
        <ele>276.7</ele>
        <time>2024-10-21T10:02:09Z</time>
      </trkpt>
      <trkpt lat="45.83348" lon="1.21185">
        <ele>276.7</ele>
        <time>2024-10-21T10:02:10Z</time>
      </trkpt>
      <trkpt lat="45.83348" lon="1.21186">
        <ele>276.6</ele>
        <time>2024-10-21T10:02:11Z</time>
      </trkpt>
      <trkpt lat="45.83348" lon="1.21188">
        <ele>276.5</ele>
        <time>2024-10-21T10:02:12Z</time>
      </trkpt>
      <trkpt lat="45.83348" lon="1.2119">
        <ele>276.4</ele>
        <time>2024-10-21T10:02:13Z</time>
      </trkpt>
      <trkpt lat="45.83349" lon="1.21193">
        <ele>276.3</ele>
        <time>2024-10-21T10:02:14Z</time>
      </trkpt>
      <trkpt lat="45.83349" lon="1.21194">
        <ele>276.2</ele>
        <time>2024-10-21T10:02:15Z</time>
      </trkpt>
      <trkpt lat="45.83349" lon="1.21195">
        <ele>276.1</ele>
        <time>2024-10-21T10:02:16Z</time>
      </trkpt>
      <trkpt lat="45.83349" lon="1.21197">
        <ele>276</ele>
        <time>2024-10-21T10:02:17Z</time>
      </trkpt>
      <trkpt lat="45.83351" lon="1.21201">
        <ele>275.8</ele>
        <time>2024-10-21T10:02:18Z</time>
      </trkpt>
      <trkpt lat="45.83351" lon="1.21202">
        <ele>275.7</ele>
        <time>2024-10-21T10:02:19Z</time>
      </trkpt>
      <trkpt lat="45.83351" lon="1.21203">
        <ele>275.7</ele>
        <time>2024-10-21T10:02:20Z</time>
      </trkpt>
      <trkpt lat="45.83351" lon="1.21204">
        <ele>275.6</ele>
        <time>2024-10-21T10:02:21Z</time>
      </trkpt>
      <trkpt lat="45.83351" lon="1.21205">
        <ele>275.5</ele>
        <time>2024-10-21T10:02:22Z</time>
      </trkpt>
      <trkpt lat="45.83352" lon="1.21208">
        <ele>275.4</ele>
        <time>2024-10-21T10:02:23Z</time>
      </trkpt>
      <trkpt lat="45.83352" lon="1.2121">
        <ele>275.3</ele>
        <time>2024-10-21T10:02:24Z</time>
      </trkpt>
      <trkpt lat="45.83352" lon="1.21212">
        <ele>275.2</ele>
        <time>2024-10-21T10:02:25Z</time>
      </trkpt>
      <trkpt lat="45.83352" lon="1.21214">
        <ele>275.1</ele>
        <time>2024-10-21T10:02:26Z</time>
      </trkpt>
      <trkpt lat="45.83352" lon="1.21216">
        <ele>274.9</ele>
        <time>2024-10-21T10:02:27Z</time>
      </trkpt>
      <trkpt lat="45.83352" lon="1.21218">
        <ele>274.8</ele>
        <time>2024-10-21T10:02:28Z</time>
      </trkpt>
      <trkpt lat="45.83352" lon="1.21223">
        <ele>274.6</ele>
        <time>2024-10-21T10:02:29Z</time>
      </trkpt>
      <trkpt lat="45.83351" lon="1.21224">
        <ele>274.5</ele>
        <time>2024-10-21T10:02:30Z</time>
      </trkpt>
      <trkpt lat="45.83351" lon="1.21226">
        <ele>274.4</ele>
        <time>2024-10-21T10:02:31Z</time>
      </trkpt>
      <trkpt lat="45.83351" lon="1.21229">
        <ele>274.3</ele>
        <time>2024-10-21T10:02:32Z</time>
      </trkpt>
      <trkpt lat="45.83351" lon="1.21231">
        <ele>274.1</ele>
        <time>2024-10-21T10:02:33Z</time>
      </trkpt>
      <trkpt lat="45.83352" lon="1.21233">
        <ele>274</ele>
        <time>2024-10-21T10:02:34Z</time>
      </trkpt>
      <trkpt lat="45.83352" lon="1.21233">
        <ele>274</ele>
        <time>2024-10-21T10:02:35Z</time>
      </trkpt>
      <trkpt lat="45.83352" lon="1.21235">
        <ele>273.9</ele>
        <time>2024-10-21T10:02:36Z</time>
      </trkpt>
      <trkpt lat="45.83352" lon="1.21237">
        <ele>273.8</ele>
        <time>2024-10-21T10:02:37Z</time>
      </trkpt>
      <trkpt lat="45.83353" lon="1.21239">
        <ele>273.7</ele>
        <time>2024-10-21T10:02:38Z</time>
      </trkpt>
      <trkpt lat="45.83353" lon="1.21241">
        <ele>273.6</ele>
        <time>2024-10-21T10:02:39Z</time>
      </trkpt>
      <trkpt lat="45.83353" lon="1.21242">
        <ele>273.5</ele>
        <time>2024-10-21T10:02:40Z</time>
      </trkpt>
      <trkpt lat="45.83353" lon="1.21243">
        <ele>273.5</ele>
        <time>2024-10-21T10:02:41Z</time>
      </trkpt>
      <trkpt lat="45.83353" lon="1.21244">
        <ele>273.4</ele>
        <time>2024-10-21T10:02:42Z</time>
      </trkpt>
      <trkpt lat="45.83354" lon="1.21246">
        <ele>273.3</ele>
        <time>2024-10-21T10:02:43Z</time>
      </trkpt>
      <trkpt lat="45.83354" lon="1.21248">
        <ele>273.2</ele>
        <time>2024-10-21T10:02:44Z</time>
      </trkpt>
      <trkpt lat="45.83354" lon="1.2125">
        <ele>273.1</ele>
        <time>2024-10-21T10:02:45Z</time>
      </trkpt>
      <trkpt lat="45.83354" lon="1.21252">
        <ele>273</ele>
        <time>2024-10-21T10:02:46Z</time>
      </trkpt>
      <trkpt lat="45.83355" lon="1.21255">
        <ele>272.8</ele>
        <time>2024-10-21T10:02:47Z</time>
      </trkpt>
      <trkpt lat="45.83355" lon="1.21258">
        <ele>272.7</ele>
        <time>2024-10-21T10:02:48Z</time>
      </trkpt>
      <trkpt lat="45.83355" lon="1.21259">
        <ele>272.6</ele>
        <time>2024-10-21T10:02:49Z</time>
      </trkpt>
      <trkpt lat="45.83355" lon="1.2126">
        <ele>272.6</ele>
        <time>2024-10-21T10:02:50Z</time>
      </trkpt>
      <trkpt lat="45.83355" lon="1.21262">
        <ele>272.5</ele>
        <time>2024-10-21T10:02:51Z</time>
      </trkpt>
      <trkpt lat="45.83355" lon="1.21265">
        <ele>272.3</ele>
        <time>2024-10-21T10:02:52Z</time>
      </trkpt>
      <trkpt lat="45.83356" lon="1.21266">
        <ele>272.3</ele>
        <time>2024-10-21T10:02:53Z</time>
      </trkpt>
      <trkpt lat="45.83356" lon="1.21268">
        <ele>272.2</ele>
        <time>2024-10-21T10:02:54Z</time>
      </trkpt>
      <trkpt lat="45.83357" lon="1.21269">
        <ele>272.1</ele>
        <time>2024-10-21T10:02:55Z</time>
      </trkpt>
      <trkpt lat="45.83357" lon="1.21271">
        <ele>272</ele>
        <time>2024-10-21T10:02:56Z</time>
      </trkpt>
      <trkpt lat="45.83357" lon="1.21274">
        <ele>271.9</ele>
        <time>2024-10-21T10:02:57Z</time>
      </trkpt>
      <trkpt lat="45.83357" lon="1.21277">
        <ele>271.7</ele>
        <time>2024-10-21T10:02:58Z</time>
      </trkpt>
      <trkpt lat="45.83358" lon="1.21278">
        <ele>271.6</ele>
        <time>2024-10-21T10:02:59Z</time>
      </trkpt>
      <trkpt lat="45.83358" lon="1.21279">
        <ele>271.6</ele>
        <time>2024-10-21T10:03:00Z</time>
      </trkpt>
      <trkpt lat="45.83358" lon="1.21281">
        <ele>271.5</ele>
        <time>2024-10-21T10:03:01Z</time>
      </trkpt>
      <trkpt lat="45.83358" lon="1.21284">
        <ele>271.3</ele>
        <time>2024-10-21T10:03:02Z</time>
      </trkpt>
      <trkpt lat="45.83359" lon="1.21287">
        <ele>271.2</ele>
        <time>2024-10-21T10:03:03Z</time>
      </trkpt>
      <trkpt lat="45.83359" lon="1.21288">
        <ele>271.1</ele>
        <time>2024-10-21T10:03:04Z</time>
      </trkpt>
      <trkpt lat="45.8336" lon="1.21289">
        <ele>271.1</ele>
        <time>2024-10-21T10:03:05Z</time>
      </trkpt>
      <trkpt lat="45.8336" lon="1.21291">
        <ele>271</ele>
        <time>2024-10-21T10:03:06Z</time>
      </trkpt>
      <trkpt lat="45.8336" lon="1.21293">
        <ele>270.8</ele>
        <time>2024-10-21T10:03:07Z</time>
      </trkpt>
      <trkpt lat="45.8336" lon="1.21295">
        <ele>270.8</ele>
        <time>2024-10-21T10:03:08Z</time>
      </trkpt>
      <trkpt lat="45.8336" lon="1.21297">
        <ele>270.7</ele>
        <time>2024-10-21T10:03:09Z</time>
      </trkpt>
      <trkpt lat="45.8336" lon="1.21298">
        <ele>270.6</ele>
        <time>2024-10-21T10:03:10Z</time>
      </trkpt>
      <trkpt lat="45.8336" lon="1.21302">
        <ele>270.4</ele>
        <time>2024-10-21T10:03:11Z</time>
      </trkpt>
      <trkpt lat="45.8336" lon="1.21303">
        <ele>270.4</ele>
        <time>2024-10-21T10:03:12Z</time>
      </trkpt>
      <trkpt lat="45.8336" lon="1.21304">
        <ele>270.3</ele>
        <time>2024-10-21T10:03:13Z</time>
      </trkpt>
      <trkpt lat="45.8336" lon="1.21307">
        <ele>270.1</ele>
        <time>2024-10-21T10:03:14Z</time>
      </trkpt>
      <trkpt lat="45.8336" lon="1.21309">
        <ele>270.1</ele>
        <time>2024-10-21T10:03:15Z</time>
      </trkpt>
      <trkpt lat="45.8336" lon="1.2131">
        <ele>270</ele>
        <time>2024-10-21T10:03:16Z</time>
      </trkpt>
      <trkpt lat="45.8336" lon="1.21312">
        <ele>269.9</ele>
        <time>2024-10-21T10:03:17Z</time>
      </trkpt>
      <trkpt lat="45.8336" lon="1.21314">
        <ele>269.8</ele>
        <time>2024-10-21T10:03:18Z</time>
      </trkpt>
      <trkpt lat="45.83361" lon="1.21318">
        <ele>269.6</ele>
        <time>2024-10-21T10:03:19Z</time>
      </trkpt>
      <trkpt lat="45.83361" lon="1.21319">
        <ele>269.5</ele>
        <time>2024-10-21T10:03:20Z</time>
      </trkpt>
      <trkpt lat="45.83362" lon="1.21321">
        <ele>269.4</ele>
        <time>2024-10-21T10:03:21Z</time>
      </trkpt>
      <trkpt lat="45.83362" lon="1.21323">
        <ele>269.3</ele>
        <time>2024-10-21T10:03:23Z</time>
      </trkpt>
      <trkpt lat="45.83363" lon="1.21325">
        <ele>269.2</ele>
        <time>2024-10-21T10:03:24Z</time>
      </trkpt>
      <trkpt lat="45.83363" lon="1.21327">
        <ele>269.2</ele>
        <time>2024-10-21T10:03:25Z</time>
      </trkpt>
      <trkpt lat="45.83363" lon="1.21329">
        <ele>269.1</ele>
        <time>2024-10-21T10:03:26Z</time>
      </trkpt>
      <trkpt lat="45.83361" lon="1.2133">
        <ele>268.9</ele>
        <time>2024-10-21T10:03:27Z</time>
      </trkpt>
      <trkpt lat="45.8336" lon="1.21331">
        <ele>268.8</ele>
        <time>2024-10-21T10:03:28Z</time>
      </trkpt>
      <trkpt lat="45.83359" lon="1.21333">
        <ele>268.7</ele>
        <time>2024-10-21T10:03:29Z</time>
      </trkpt>
      <trkpt lat="45.83358" lon="1.21334">
        <ele>268.6</ele>
        <time>2024-10-21T10:03:30Z</time>
      </trkpt>
      <trkpt lat="45.83357" lon="1.21336">
        <ele>268.5</ele>
        <time>2024-10-21T10:03:31Z</time>
      </trkpt>
      <trkpt lat="45.83356" lon="1.21337">
        <ele>268.4</ele>
        <time>2024-10-21T10:03:32Z</time>
      </trkpt>
      <trkpt lat="45.83356" lon="1.21338">
        <ele>268.4</ele>
        <time>2024-10-21T10:03:33Z</time>
      </trkpt>
      <trkpt lat="45.83356" lon="1.2134">
        <ele>268.3</ele>
        <time>2024-10-21T10:03:34Z</time>
      </trkpt>
      <trkpt lat="45.83357" lon="1.21341">
        <ele>268.2</ele>
        <time>2024-10-21T10:03:35Z</time>
      </trkpt>
      <trkpt lat="45.83358" lon="1.21344">
        <ele>268</ele>
        <time>2024-10-21T10:03:36Z</time>
      </trkpt>
      <trkpt lat="45.83358" lon="1.21347">
        <ele>267.9</ele>
        <time>2024-10-21T10:03:37Z</time>
      </trkpt>
      <trkpt lat="45.83358" lon="1.21348">
        <ele>267.8</ele>
        <time>2024-10-21T10:03:38Z</time>
      </trkpt>
      <trkpt lat="45.83358" lon="1.21349">
        <ele>267.7</ele>
        <time>2024-10-21T10:03:39Z</time>
      </trkpt>
      <trkpt lat="45.83357" lon="1.21351">
        <ele>267.7</ele>
        <time>2024-10-21T10:03:40Z</time>
      </trkpt>
      <trkpt lat="45.83357" lon="1.21352">
        <ele>267.6</ele>
        <time>2024-10-21T10:03:41Z</time>
      </trkpt>
      <trkpt lat="45.83357" lon="1.21354">
        <ele>267.5</ele>
        <time>2024-10-21T10:03:42Z</time>
      </trkpt>
      <trkpt lat="45.83357" lon="1.21358">
        <ele>267.3</ele>
        <time>2024-10-21T10:03:43Z</time>
      </trkpt>
      <trkpt lat="45.83357" lon="1.21359">
        <ele>267.2</ele>
        <time>2024-10-21T10:03:44Z</time>
      </trkpt>
      <trkpt lat="45.83357" lon="1.21361">
        <ele>267.1</ele>
        <time>2024-10-21T10:03:45Z</time>
      </trkpt>
      <trkpt lat="45.83358" lon="1.21363">
        <ele>266.9</ele>
        <time>2024-10-21T10:03:46Z</time>
      </trkpt>
      <trkpt lat="45.83358" lon="1.21365">
        <ele>266.9</ele>
        <time>2024-10-21T10:03:47Z</time>
      </trkpt>
      <trkpt lat="45.83359" lon="1.21366">
        <ele>266.8</ele>
        <time>2024-10-21T10:03:48Z</time>
      </trkpt>
      <trkpt lat="45.83359" lon="1.21368">
        <ele>266.7</ele>
        <time>2024-10-21T10:03:49Z</time>
      </trkpt>
      <trkpt lat="45.8336" lon="1.21371">
        <ele>266.5</ele>
        <time>2024-10-21T10:03:50Z</time>
      </trkpt>
      <trkpt lat="45.8336" lon="1.21374">
        <ele>266.3</ele>
        <time>2024-10-21T10:03:51Z</time>
      </trkpt>
      <trkpt lat="45.8336" lon="1.21375">
        <ele>266.3</ele>
        <time>2024-10-21T10:03:52Z</time>
      </trkpt>
      <trkpt lat="45.83361" lon="1.21376">
        <ele>266.2</ele>
        <time>2024-10-21T10:03:53Z</time>
      </trkpt>
      <trkpt lat="45.83361" lon="1.21378">
        <ele>266.1</ele>
        <time>2024-10-21T10:03:54Z</time>
      </trkpt>
      <trkpt lat="45.83361" lon="1.21381">
        <ele>265.9</ele>
        <time>2024-10-21T10:03:55Z</time>
      </trkpt>
      <trkpt lat="45.83361" lon="1.21382">
        <ele>265.9</ele>
        <time>2024-10-21T10:03:56Z</time>
      </trkpt>
      <trkpt lat="45.83362" lon="1.21384">
        <ele>265.8</ele>
        <time>2024-10-21T10:03:57Z</time>
      </trkpt>
      <trkpt lat="45.83362" lon="1.21385">
        <ele>265.7</ele>
        <time>2024-10-21T10:03:58Z</time>
      </trkpt>
      <trkpt lat="45.83362" lon="1.21387">
        <ele>265.6</ele>
        <time>2024-10-21T10:03:59Z</time>
      </trkpt>
      <trkpt lat="45.83363" lon="1.21389">
        <ele>265.4</ele>
        <time>2024-10-21T10:04:00Z</time>
      </trkpt>
      <trkpt lat="45.83362" lon="1.21392">
        <ele>265.3</ele>
        <time>2024-10-21T10:04:01Z</time>
      </trkpt>
      <trkpt lat="45.83362" lon="1.21393">
        <ele>265.2</ele>
        <time>2024-10-21T10:04:02Z</time>
      </trkpt>
      <trkpt lat="45.83362" lon="1.21395">
        <ele>265.1</ele>
        <time>2024-10-21T10:04:03Z</time>
      </trkpt>
      <trkpt lat="45.83363" lon="1.21397">
        <ele>265</ele>
        <time>2024-10-21T10:04:04Z</time>
      </trkpt>
      <trkpt lat="45.83362" lon="1.21399">
        <ele>264.9</ele>
        <time>2024-10-21T10:04:05Z</time>
      </trkpt>
      <trkpt lat="45.83362" lon="1.21402">
        <ele>264.7</ele>
        <time>2024-10-21T10:04:06Z</time>
      </trkpt>
      <trkpt lat="45.83362" lon="1.21403">
        <ele>264.6</ele>
        <time>2024-10-21T10:04:07Z</time>
      </trkpt>
      <trkpt lat="45.83362" lon="1.21404">
        <ele>264.5</ele>
        <time>2024-10-21T10:04:08Z</time>
      </trkpt>
      <trkpt lat="45.83362" lon="1.21406">
        <ele>264.4</ele>
        <time>2024-10-21T10:04:09Z</time>
      </trkpt>
      <trkpt lat="45.83362" lon="1.21408">
        <ele>264.3</ele>
        <time>2024-10-21T10:04:10Z</time>
      </trkpt>
      <trkpt lat="45.83362" lon="1.21409">
        <ele>264.2</ele>
        <time>2024-10-21T10:04:11Z</time>
      </trkpt>
      <trkpt lat="45.83362" lon="1.21412">
        <ele>264</ele>
        <time>2024-10-21T10:04:12Z</time>
      </trkpt>
      <trkpt lat="45.83362" lon="1.21414">
        <ele>263.9</ele>
        <time>2024-10-21T10:04:13Z</time>
      </trkpt>
      <trkpt lat="45.83363" lon="1.21415">
        <ele>263.8</ele>
        <time>2024-10-21T10:04:14Z</time>
      </trkpt>
      <trkpt lat="45.83363" lon="1.21417">
        <ele>263.7</ele>
        <time>2024-10-21T10:04:15Z</time>
      </trkpt>
      <trkpt lat="45.83362" lon="1.21419">
        <ele>263.6</ele>
        <time>2024-10-21T10:04:16Z</time>
      </trkpt>
      <trkpt lat="45.83362" lon="1.2142">
        <ele>263.5</ele>
        <time>2024-10-21T10:04:17Z</time>
      </trkpt>
      <trkpt lat="45.83362" lon="1.21425">
        <ele>263.2</ele>
        <time>2024-10-21T10:04:18Z</time>
      </trkpt>
      <trkpt lat="45.83362" lon="1.21426">
        <ele>263.1</ele>
        <time>2024-10-21T10:04:19Z</time>
      </trkpt>
      <trkpt lat="45.83362" lon="1.21427">
        <ele>263</ele>
        <time>2024-10-21T10:04:21Z</time>
      </trkpt>
      <trkpt lat="45.83362" lon="1.21429">
        <ele>262.9</ele>
        <time>2024-10-21T10:04:22Z</time>
      </trkpt>
      <trkpt lat="45.83362" lon="1.21431">
        <ele>262.8</ele>
        <time>2024-10-21T10:04:23Z</time>
      </trkpt>
      <trkpt lat="45.83362" lon="1.21433">
        <ele>262.6</ele>
        <time>2024-10-21T10:04:24Z</time>
      </trkpt>
      <trkpt lat="45.83363" lon="1.21435">
        <ele>262.5</ele>
        <time>2024-10-21T10:04:25Z</time>
      </trkpt>
      <trkpt lat="45.83363" lon="1.21437">
        <ele>262.3</ele>
        <time>2024-10-21T10:04:26Z</time>
      </trkpt>
      <trkpt lat="45.83363" lon="1.21439">
        <ele>262.2</ele>
        <time>2024-10-21T10:04:27Z</time>
      </trkpt>
      <trkpt lat="45.83364" lon="1.2144">
        <ele>262.1</ele>
        <time>2024-10-21T10:04:28Z</time>
      </trkpt>
      <trkpt lat="45.83364" lon="1.21441">
        <ele>262</ele>
        <time>2024-10-21T10:04:29Z</time>
      </trkpt>
      <trkpt lat="45.83364" lon="1.21443">
        <ele>261.9</ele>
        <time>2024-10-21T10:04:30Z</time>
      </trkpt>
      <trkpt lat="45.83365" lon="1.21445">
        <ele>261.8</ele>
        <time>2024-10-21T10:04:31Z</time>
      </trkpt>
      <trkpt lat="45.83365" lon="1.21449">
        <ele>261.5</ele>
        <time>2024-10-21T10:04:32Z</time>
      </trkpt>
      <trkpt lat="45.83365" lon="1.21449">
        <ele>261.4</ele>
        <time>2024-10-21T10:04:33Z</time>
      </trkpt>
      <trkpt lat="45.83365" lon="1.2145">
        <ele>261.4</ele>
        <time>2024-10-21T10:04:34Z</time>
      </trkpt>
      <trkpt lat="45.83366" lon="1.21451">
        <ele>261.3</ele>
        <time>2024-10-21T10:04:35Z</time>
      </trkpt>
      <trkpt lat="45.83366" lon="1.21453">
        <ele>261.2</ele>
        <time>2024-10-21T10:04:36Z</time>
      </trkpt>
      <trkpt lat="45.83366" lon="1.21455">
        <ele>261.1</ele>
        <time>2024-10-21T10:04:37Z</time>
      </trkpt>
      <trkpt lat="45.83367" lon="1.21458">
        <ele>260.8</ele>
        <time>2024-10-21T10:04:38Z</time>
      </trkpt>
      <trkpt lat="45.83367" lon="1.21459">
        <ele>260.8</ele>
        <time>2024-10-21T10:04:39Z</time>
      </trkpt>
      <trkpt lat="45.83368" lon="1.2146">
        <ele>260.7</ele>
        <time>2024-10-21T10:04:40Z</time>
      </trkpt>
      <trkpt lat="45.83368" lon="1.21463">
        <ele>260.5</ele>
        <time>2024-10-21T10:04:41Z</time>
      </trkpt>
      <trkpt lat="45.83368" lon="1.21464">
        <ele>260.4</ele>
        <time>2024-10-21T10:04:42Z</time>
      </trkpt>
      <trkpt lat="45.83369" lon="1.21465">
        <ele>260.3</ele>
        <time>2024-10-21T10:04:43Z</time>
      </trkpt>
      <trkpt lat="45.83369" lon="1.21467">
        <ele>260.2</ele>
        <time>2024-10-21T10:04:44Z</time>
      </trkpt>
      <trkpt lat="45.8337" lon="1.21469">
        <ele>260</ele>
        <time>2024-10-21T10:04:45Z</time>
      </trkpt>
      <trkpt lat="45.8337" lon="1.21471">
        <ele>259.9</ele>
        <time>2024-10-21T10:04:46Z</time>
      </trkpt>
      <trkpt lat="45.83371" lon="1.21472">
        <ele>259.8</ele>
        <time>2024-10-21T10:04:47Z</time>
      </trkpt>
      <trkpt lat="45.83371" lon="1.21474">
        <ele>259.7</ele>
        <time>2024-10-21T10:04:48Z</time>
      </trkpt>
      <trkpt lat="45.83371" lon="1.21476">
        <ele>259.5</ele>
        <time>2024-10-21T10:04:49Z</time>
      </trkpt>
      <trkpt lat="45.83372" lon="1.21478">
        <ele>259.4</ele>
        <time>2024-10-21T10:04:50Z</time>
      </trkpt>
      <trkpt lat="45.83372" lon="1.21478">
        <ele>259.4</ele>
        <time>2024-10-21T10:04:51Z</time>
      </trkpt>
      <trkpt lat="45.83372" lon="1.2148">
        <ele>259.2</ele>
        <time>2024-10-21T10:04:52Z</time>
      </trkpt>
      <trkpt lat="45.83373" lon="1.21482">
        <ele>259.1</ele>
        <time>2024-10-21T10:04:53Z</time>
      </trkpt>
      <trkpt lat="45.83373" lon="1.21484">
        <ele>259</ele>
        <time>2024-10-21T10:04:54Z</time>
      </trkpt>
      <trkpt lat="45.83374" lon="1.21485">
        <ele>258.9</ele>
        <time>2024-10-21T10:04:55Z</time>
      </trkpt>
      <trkpt lat="45.83374" lon="1.21487">
        <ele>258.7</ele>
        <time>2024-10-21T10:04:56Z</time>
      </trkpt>
      <trkpt lat="45.83374" lon="1.21489">
        <ele>258.6</ele>
        <time>2024-10-21T10:04:57Z</time>
      </trkpt>
      <trkpt lat="45.83374" lon="1.21491">
        <ele>258.5</ele>
        <time>2024-10-21T10:04:58Z</time>
      </trkpt>
      <trkpt lat="45.83374" lon="1.21494">
        <ele>258.3</ele>
        <time>2024-10-21T10:04:59Z</time>
      </trkpt>
      <trkpt lat="45.83374" lon="1.21496">
        <ele>258.2</ele>
        <time>2024-10-21T10:05:00Z</time>
      </trkpt>
      <trkpt lat="45.83374" lon="1.21497">
        <ele>258.2</ele>
        <time>2024-10-21T10:05:01Z</time>
      </trkpt>
      <trkpt lat="45.83375" lon="1.21499">
        <ele>258.1</ele>
        <time>2024-10-21T10:05:02Z</time>
      </trkpt>
      <trkpt lat="45.83376" lon="1.215">
        <ele>258</ele>
        <time>2024-10-21T10:05:03Z</time>
      </trkpt>
      <trkpt lat="45.83377" lon="1.21502">
        <ele>258</ele>
        <time>2024-10-21T10:05:04Z</time>
      </trkpt>
      <trkpt lat="45.83377" lon="1.21504">
        <ele>257.9</ele>
        <time>2024-10-21T10:05:05Z</time>
      </trkpt>
      <trkpt lat="45.83378" lon="1.21505">
        <ele>257.9</ele>
        <time>2024-10-21T10:05:06Z</time>
      </trkpt>
      <trkpt lat="45.83378" lon="1.21507">
        <ele>257.8</ele>
        <time>2024-10-21T10:05:07Z</time>
      </trkpt>
      <trkpt lat="45.83379" lon="1.21508">
        <ele>257.7</ele>
        <time>2024-10-21T10:05:08Z</time>
      </trkpt>
      <trkpt lat="45.8338" lon="1.2151">
        <ele>257.7</ele>
        <time>2024-10-21T10:05:09Z</time>
      </trkpt>
      <trkpt lat="45.83381" lon="1.21512">
        <ele>257.6</ele>
        <time>2024-10-21T10:05:10Z</time>
      </trkpt>
      <trkpt lat="45.83381" lon="1.21514">
        <ele>257.5</ele>
        <time>2024-10-21T10:05:11Z</time>
      </trkpt>
      <trkpt lat="45.83382" lon="1.21515">
        <ele>257.5</ele>
        <time>2024-10-21T10:05:12Z</time>
      </trkpt>
      <trkpt lat="45.83383" lon="1.21517">
        <ele>257.4</ele>
        <time>2024-10-21T10:05:13Z</time>
      </trkpt>
      <trkpt lat="45.83384" lon="1.21518">
        <ele>257.4</ele>
        <time>2024-10-21T10:05:14Z</time>
      </trkpt>
      <trkpt lat="45.83384" lon="1.21519">
        <ele>257.4</ele>
        <time>2024-10-21T10:05:15Z</time>
      </trkpt>
      <trkpt lat="45.83385" lon="1.2152">
        <ele>257.3</ele>
        <time>2024-10-21T10:05:16Z</time>
      </trkpt>
      <trkpt lat="45.83386" lon="1.21522">
        <ele>257.3</ele>
        <time>2024-10-21T10:05:17Z</time>
      </trkpt>
      <trkpt lat="45.83387" lon="1.21523">
        <ele>257.2</ele>
        <time>2024-10-21T10:05:18Z</time>
      </trkpt>
      <trkpt lat="45.83388" lon="1.21525">
        <ele>257.2</ele>
        <time>2024-10-21T10:05:19Z</time>
      </trkpt>
      <trkpt lat="45.8339" lon="1.21527">
        <ele>257.1</ele>
        <time>2024-10-21T10:05:20Z</time>
      </trkpt>
      <trkpt lat="45.8339" lon="1.21528">
        <ele>257.1</ele>
        <time>2024-10-21T10:05:21Z</time>
      </trkpt>
      <trkpt lat="45.83391" lon="1.21529">
        <ele>257.1</ele>
        <time>2024-10-21T10:05:22Z</time>
      </trkpt>
      <trkpt lat="45.83392" lon="1.2153">
        <ele>257</ele>
        <time>2024-10-21T10:05:23Z</time>
      </trkpt>
      <trkpt lat="45.83393" lon="1.21532">
        <ele>257</ele>
        <time>2024-10-21T10:05:24Z</time>
      </trkpt>
      <trkpt lat="45.83394" lon="1.21534">
        <ele>256.9</ele>
        <time>2024-10-21T10:05:25Z</time>
      </trkpt>
      <trkpt lat="45.83395" lon="1.21535">
        <ele>256.9</ele>
        <time>2024-10-21T10:05:26Z</time>
      </trkpt>
      <trkpt lat="45.83395" lon="1.21536">
        <ele>256.9</ele>
        <time>2024-10-21T10:05:27Z</time>
      </trkpt>
      <trkpt lat="45.83396" lon="1.21537">
        <ele>256.8</ele>
        <time>2024-10-21T10:05:28Z</time>
      </trkpt>
      <trkpt lat="45.83397" lon="1.21539">
        <ele>256.8</ele>
        <time>2024-10-21T10:05:29Z</time>
      </trkpt>
      <trkpt lat="45.83397" lon="1.2154">
        <ele>256.8</ele>
        <time>2024-10-21T10:05:30Z</time>
      </trkpt>
      <trkpt lat="45.83398" lon="1.21543">
        <ele>256.7</ele>
        <time>2024-10-21T10:05:31Z</time>
      </trkpt>
      <trkpt lat="45.83399" lon="1.21544">
        <ele>256.7</ele>
        <time>2024-10-21T10:05:32Z</time>
      </trkpt>
      <trkpt lat="45.83399" lon="1.21545">
        <ele>256.7</ele>
        <time>2024-10-21T10:05:33Z</time>
      </trkpt>
      <trkpt lat="45.83401" lon="1.21547">
        <ele>256.6</ele>
        <time>2024-10-21T10:05:34Z</time>
      </trkpt>
      <trkpt lat="45.83401" lon="1.21547">
        <ele>256.6</ele>
        <time>2024-10-21T10:05:35Z</time>
      </trkpt>
      <trkpt lat="45.83402" lon="1.21548">
        <ele>256.6</ele>
        <time>2024-10-21T10:05:36Z</time>
      </trkpt>
      <trkpt lat="45.83404" lon="1.21547">
        <ele>256.5</ele>
        <time>2024-10-21T10:05:37Z</time>
      </trkpt>
      <trkpt lat="45.83404" lon="1.21547">
        <ele>256.5</ele>
        <time>2024-10-21T10:05:38Z</time>
      </trkpt>
      <trkpt lat="45.83405" lon="1.21546">
        <ele>256.5</ele>
        <time>2024-10-21T10:05:39Z</time>
      </trkpt>
      <trkpt lat="45.83407" lon="1.21545">
        <ele>256.5</ele>
        <time>2024-10-21T10:05:40Z</time>
      </trkpt>
      <trkpt lat="45.83408" lon="1.21544">
        <ele>256.4</ele>
        <time>2024-10-21T10:05:41Z</time>
      </trkpt>
      <trkpt lat="45.83409" lon="1.21544">
        <ele>256.4</ele>
        <time>2024-10-21T10:05:42Z</time>
      </trkpt>
      <trkpt lat="45.8341" lon="1.21543">
        <ele>256.4</ele>
        <time>2024-10-21T10:05:43Z</time>
      </trkpt>
      <trkpt lat="45.83411" lon="1.21541">
        <ele>256.3</ele>
        <time>2024-10-21T10:05:44Z</time>
      </trkpt>
      <trkpt lat="45.83412" lon="1.21539">
        <ele>256.3</ele>
        <time>2024-10-21T10:05:45Z</time>
      </trkpt>
      <trkpt lat="45.83413" lon="1.21538">
        <ele>256.3</ele>
        <time>2024-10-21T10:05:46Z</time>
      </trkpt>
      <trkpt lat="45.83414" lon="1.21536">
        <ele>256.2</ele>
        <time>2024-10-21T10:05:47Z</time>
      </trkpt>
      <trkpt lat="45.83415" lon="1.21534">
        <ele>256.2</ele>
        <time>2024-10-21T10:05:48Z</time>
      </trkpt>
      <trkpt lat="45.83416" lon="1.21532">
        <ele>256.1</ele>
        <time>2024-10-21T10:05:49Z</time>
      </trkpt>
      <trkpt lat="45.83417" lon="1.21531">
        <ele>256.1</ele>
        <time>2024-10-21T10:05:50Z</time>
      </trkpt>
      <trkpt lat="45.83418" lon="1.2153">
        <ele>256.1</ele>
        <time>2024-10-21T10:05:51Z</time>
      </trkpt>
      <trkpt lat="45.83419" lon="1.21529">
        <ele>256.1</ele>
        <time>2024-10-21T10:05:52Z</time>
      </trkpt>
      <trkpt lat="45.83421" lon="1.21529">
        <ele>256</ele>
        <time>2024-10-21T10:05:53Z</time>
      </trkpt>
      <trkpt lat="45.83422" lon="1.21529">
        <ele>256</ele>
        <time>2024-10-21T10:05:54Z</time>
      </trkpt>
      <trkpt lat="45.83424" lon="1.21529">
        <ele>256</ele>
        <time>2024-10-21T10:05:55Z</time>
      </trkpt>
      <trkpt lat="45.83425" lon="1.21528">
        <ele>255.9</ele>
        <time>2024-10-21T10:05:56Z</time>
      </trkpt>
      <trkpt lat="45.83426" lon="1.21528">
        <ele>255.9</ele>
        <time>2024-10-21T10:05:57Z</time>
      </trkpt>
      <trkpt lat="45.83428" lon="1.21528">
        <ele>255.9</ele>
        <time>2024-10-21T10:05:58Z</time>
      </trkpt>
      <trkpt lat="45.8343" lon="1.21528">
        <ele>255.8</ele>
        <time>2024-10-21T10:05:59Z</time>
      </trkpt>
      <trkpt lat="45.83432" lon="1.21528">
        <ele>255.8</ele>
        <time>2024-10-21T10:06:00Z</time>
      </trkpt>
      <trkpt lat="45.83433" lon="1.21527">
        <ele>255.8</ele>
        <time>2024-10-21T10:06:01Z</time>
      </trkpt>
      <trkpt lat="45.83434" lon="1.21527">
        <ele>255.8</ele>
        <time>2024-10-21T10:06:02Z</time>
      </trkpt>
      <trkpt lat="45.83435" lon="1.21527">
        <ele>255.7</ele>
        <time>2024-10-21T10:06:03Z</time>
      </trkpt>
      <trkpt lat="45.83437" lon="1.21527">
        <ele>255.7</ele>
        <time>2024-10-21T10:06:04Z</time>
      </trkpt>
      <trkpt lat="45.83439" lon="1.21527">
        <ele>255.7</ele>
        <time>2024-10-21T10:06:05Z</time>
      </trkpt>
      <trkpt lat="45.8344" lon="1.21527">
        <ele>255.6</ele>
        <time>2024-10-21T10:06:06Z</time>
      </trkpt>
      <trkpt lat="45.83441" lon="1.21527">
        <ele>255.6</ele>
        <time>2024-10-21T10:06:07Z</time>
      </trkpt>
      <trkpt lat="45.83443" lon="1.21528">
        <ele>255.6</ele>
        <time>2024-10-21T10:06:08Z</time>
      </trkpt>
      <trkpt lat="45.83444" lon="1.21528">
        <ele>255.6</ele>
        <time>2024-10-21T10:06:09Z</time>
      </trkpt>
      <trkpt lat="45.83445" lon="1.21529">
        <ele>255.5</ele>
        <time>2024-10-21T10:06:10Z</time>
      </trkpt>
      <trkpt lat="45.83446" lon="1.21529">
        <ele>255.5</ele>
        <time>2024-10-21T10:06:11Z</time>
      </trkpt>
      <trkpt lat="45.83447" lon="1.2153">
        <ele>255.5</ele>
        <time>2024-10-21T10:06:12Z</time>
      </trkpt>
      <trkpt lat="45.83448" lon="1.21531">
        <ele>255.5</ele>
        <time>2024-10-21T10:06:13Z</time>
      </trkpt>
      <trkpt lat="45.8345" lon="1.21532">
        <ele>255.4</ele>
        <time>2024-10-21T10:06:14Z</time>
      </trkpt>
      <trkpt lat="45.83452" lon="1.21534">
        <ele>255.4</ele>
        <time>2024-10-21T10:06:15Z</time>
      </trkpt>
      <trkpt lat="45.83452" lon="1.21534">
        <ele>255.4</ele>
        <time>2024-10-21T10:06:16Z</time>
      </trkpt>
      <trkpt lat="45.83453" lon="1.21535">
        <ele>255.4</ele>
        <time>2024-10-21T10:06:17Z</time>
      </trkpt>
      <trkpt lat="45.83454" lon="1.21537">
        <ele>255.4</ele>
        <time>2024-10-21T10:06:18Z</time>
      </trkpt>
      <trkpt lat="45.83455" lon="1.21539">
        <ele>255.3</ele>
        <time>2024-10-21T10:06:19Z</time>
      </trkpt>
      <trkpt lat="45.83456" lon="1.21541">
        <ele>255.3</ele>
        <time>2024-10-21T10:06:20Z</time>
      </trkpt>
      <trkpt lat="45.83457" lon="1.21542">
        <ele>255.3</ele>
        <time>2024-10-21T10:06:21Z</time>
      </trkpt>
      <trkpt lat="45.83457" lon="1.21543">
        <ele>255.3</ele>
        <time>2024-10-21T10:06:22Z</time>
      </trkpt>
      <trkpt lat="45.83458" lon="1.21545">
        <ele>255.3</ele>
        <time>2024-10-21T10:06:23Z</time>
      </trkpt>
      <trkpt lat="45.83459" lon="1.21547">
        <ele>255.2</ele>
        <time>2024-10-21T10:06:24Z</time>
      </trkpt>
      <trkpt lat="45.83461" lon="1.21549">
        <ele>255.2</ele>
        <time>2024-10-21T10:06:25Z</time>
      </trkpt>
      <trkpt lat="45.83461" lon="1.2155">
        <ele>255.2</ele>
        <time>2024-10-21T10:06:26Z</time>
      </trkpt>
      <trkpt lat="45.83462" lon="1.21552">
        <ele>255.2</ele>
        <time>2024-10-21T10:06:27Z</time>
      </trkpt>
      <trkpt lat="45.83463" lon="1.21554">
        <ele>255.1</ele>
        <time>2024-10-21T10:06:28Z</time>
      </trkpt>
      <trkpt lat="45.83464" lon="1.21554">
        <ele>255.1</ele>
        <time>2024-10-21T10:06:29Z</time>
      </trkpt>
      <trkpt lat="45.83464" lon="1.21555">
        <ele>255.1</ele>
        <time>2024-10-21T10:06:30Z</time>
      </trkpt>
      <trkpt lat="45.83466" lon="1.21557">
        <ele>255.1</ele>
        <time>2024-10-21T10:06:31Z</time>
      </trkpt>
      <trkpt lat="45.83467" lon="1.21558">
        <ele>255.1</ele>
        <time>2024-10-21T10:06:32Z</time>
      </trkpt>
      <trkpt lat="45.83468" lon="1.21558">
        <ele>255.1</ele>
        <time>2024-10-21T10:06:33Z</time>
      </trkpt>
      <trkpt lat="45.8347" lon="1.21559">
        <ele>255</ele>
        <time>2024-10-21T10:06:34Z</time>
      </trkpt>
      <trkpt lat="45.83471" lon="1.2156">
        <ele>255</ele>
        <time>2024-10-21T10:06:35Z</time>
      </trkpt>
      <trkpt lat="45.83471" lon="1.2156">
        <ele>255</ele>
        <time>2024-10-21T10:06:36Z</time>
      </trkpt>
      <trkpt lat="45.83474" lon="1.21561">
        <ele>255</ele>
        <time>2024-10-21T10:06:37Z</time>
      </trkpt>
      <trkpt lat="45.83475" lon="1.21562">
        <ele>255</ele>
        <time>2024-10-21T10:06:38Z</time>
      </trkpt>
      <trkpt lat="45.83476" lon="1.21562">
        <ele>255</ele>
        <time>2024-10-21T10:06:39Z</time>
      </trkpt>
      <trkpt lat="45.83477" lon="1.21563">
        <ele>255</ele>
        <time>2024-10-21T10:06:41Z</time>
      </trkpt>
      <trkpt lat="45.83478" lon="1.21564">
        <ele>255</ele>
        <time>2024-10-21T10:06:42Z</time>
      </trkpt>
      <trkpt lat="45.8348" lon="1.21564">
        <ele>254.9</ele>
        <time>2024-10-21T10:06:43Z</time>
      </trkpt>
      <trkpt lat="45.83481" lon="1.21565">
        <ele>254.9</ele>
        <time>2024-10-21T10:06:44Z</time>
      </trkpt>
      <trkpt lat="45.83483" lon="1.21566">
        <ele>254.9</ele>
        <time>2024-10-21T10:06:45Z</time>
      </trkpt>
      <trkpt lat="45.83484" lon="1.21567">
        <ele>254.9</ele>
        <time>2024-10-21T10:06:46Z</time>
      </trkpt>
      <trkpt lat="45.83485" lon="1.21567">
        <ele>254.9</ele>
        <time>2024-10-21T10:06:47Z</time>
      </trkpt>
      <trkpt lat="45.83486" lon="1.21568">
        <ele>254.9</ele>
        <time>2024-10-21T10:06:48Z</time>
      </trkpt>
      <trkpt lat="45.83487" lon="1.21569">
        <ele>254.9</ele>
        <time>2024-10-21T10:06:49Z</time>
      </trkpt>
      <trkpt lat="45.83488" lon="1.21569">
        <ele>254.9</ele>
        <time>2024-10-21T10:06:50Z</time>
      </trkpt>
      <trkpt lat="45.8349" lon="1.2157">
        <ele>254.9</ele>
        <time>2024-10-21T10:06:51Z</time>
      </trkpt>
      <trkpt lat="45.83491" lon="1.2157">
        <ele>254.9</ele>
        <time>2024-10-21T10:06:52Z</time>
      </trkpt>
      <trkpt lat="45.83492" lon="1.2157">
        <ele>254.9</ele>
        <time>2024-10-21T10:06:53Z</time>
      </trkpt>
      <trkpt lat="45.83494" lon="1.21571">
        <ele>254.9</ele>
        <time>2024-10-21T10:06:54Z</time>
      </trkpt>
      <trkpt lat="45.83494" lon="1.21572">
        <ele>254.9</ele>
        <time>2024-10-21T10:06:55Z</time>
      </trkpt>
      <trkpt lat="45.83495" lon="1.21573">
        <ele>254.9</ele>
        <time>2024-10-21T10:06:56Z</time>
      </trkpt>
      <trkpt lat="45.83496" lon="1.21574">
        <ele>254.9</ele>
        <time>2024-10-21T10:06:57Z</time>
      </trkpt>
      <trkpt lat="45.83497" lon="1.21576">
        <ele>254.8</ele>
        <time>2024-10-21T10:06:58Z</time>
      </trkpt>
      <trkpt lat="45.83499" lon="1.21578">
        <ele>254.8</ele>
        <time>2024-10-21T10:06:59Z</time>
      </trkpt>
      <trkpt lat="45.83499" lon="1.21579">
        <ele>254.8</ele>
        <time>2024-10-21T10:07:00Z</time>
      </trkpt>
      <trkpt lat="45.83501" lon="1.21579">
        <ele>254.8</ele>
        <time>2024-10-21T10:07:01Z</time>
      </trkpt>
      <trkpt lat="45.83502" lon="1.2158">
        <ele>254.8</ele>
        <time>2024-10-21T10:07:02Z</time>
      </trkpt>
      <trkpt lat="45.83505" lon="1.21582">
        <ele>254.8</ele>
        <time>2024-10-21T10:07:03Z</time>
      </trkpt>
      <trkpt lat="45.83506" lon="1.21582">
        <ele>254.8</ele>
        <time>2024-10-21T10:07:04Z</time>
      </trkpt>
      <trkpt lat="45.83506" lon="1.21583">
        <ele>254.8</ele>
        <time>2024-10-21T10:07:05Z</time>
      </trkpt>
      <trkpt lat="45.83507" lon="1.21584">
        <ele>254.8</ele>
        <time>2024-10-21T10:07:06Z</time>
      </trkpt>
      <trkpt lat="45.83508" lon="1.21585">
        <ele>254.8</ele>
        <time>2024-10-21T10:07:07Z</time>
      </trkpt>
      <trkpt lat="45.83508" lon="1.21586">
        <ele>254.8</ele>
        <time>2024-10-21T10:07:08Z</time>
      </trkpt>
      <trkpt lat="45.83509" lon="1.21586">
        <ele>254.8</ele>
        <time>2024-10-21T10:07:09Z</time>
      </trkpt>
      <trkpt lat="45.83509" lon="1.21586">
        <ele>254.8</ele>
        <time>2024-10-21T10:07:10Z</time>
      </trkpt>
      <trkpt lat="45.8351" lon="1.21588">
        <ele>254.8</ele>
        <time>2024-10-21T10:07:11Z</time>
      </trkpt>
      <trkpt lat="45.83512" lon="1.21589">
        <ele>254.8</ele>
        <time>2024-10-21T10:07:12Z</time>
      </trkpt>
      <trkpt lat="45.83512" lon="1.2159">
        <ele>254.7</ele>
        <time>2024-10-21T10:07:13Z</time>
      </trkpt>
      <trkpt lat="45.83513" lon="1.2159">
        <ele>254.7</ele>
        <time>2024-10-21T10:07:14Z</time>
      </trkpt>
      <trkpt lat="45.83515" lon="1.21591">
        <ele>254.7</ele>
        <time>2024-10-21T10:07:15Z</time>
      </trkpt>
      <trkpt lat="45.83516" lon="1.21592">
        <ele>254.7</ele>
        <time>2024-10-21T10:07:16Z</time>
      </trkpt>
      <trkpt lat="45.83518" lon="1.21593">
        <ele>254.7</ele>
        <time>2024-10-21T10:07:17Z</time>
      </trkpt>
      <trkpt lat="45.83519" lon="1.21593">
        <ele>254.7</ele>
        <time>2024-10-21T10:07:18Z</time>
      </trkpt>
      <trkpt lat="45.8352" lon="1.21594">
        <ele>254.7</ele>
        <time>2024-10-21T10:07:19Z</time>
      </trkpt>
      <trkpt lat="45.83521" lon="1.21594">
        <ele>254.7</ele>
        <time>2024-10-21T10:07:20Z</time>
      </trkpt>
      <trkpt lat="45.83524" lon="1.21595">
        <ele>254.7</ele>
        <time>2024-10-21T10:07:21Z</time>
      </trkpt>
      <trkpt lat="45.83525" lon="1.21596">
        <ele>254.7</ele>
        <time>2024-10-21T10:07:22Z</time>
      </trkpt>
      <trkpt lat="45.83526" lon="1.21596">
        <ele>254.7</ele>
        <time>2024-10-21T10:07:23Z</time>
      </trkpt>
      <trkpt lat="45.83527" lon="1.21597">
        <ele>254.7</ele>
        <time>2024-10-21T10:07:24Z</time>
      </trkpt>
      <trkpt lat="45.83523" lon="1.21598">
        <ele>254.7</ele>
        <time>2024-10-21T10:07:25Z</time>
      </trkpt>
      <trkpt lat="45.83522" lon="1.21599">
        <ele>254.7</ele>
        <time>2024-10-21T10:07:26Z</time>
      </trkpt>
      <trkpt lat="45.83521" lon="1.216">
        <ele>254.7</ele>
        <time>2024-10-21T10:07:27Z</time>
      </trkpt>
      <trkpt lat="45.83522" lon="1.21602">
        <ele>254.7</ele>
        <time>2024-10-21T10:07:28Z</time>
      </trkpt>
      <trkpt lat="45.83523" lon="1.21603">
        <ele>254.7</ele>
        <time>2024-10-21T10:07:29Z</time>
      </trkpt>
      <trkpt lat="45.83524" lon="1.21604">
        <ele>254.7</ele>
        <time>2024-10-21T10:07:30Z</time>
      </trkpt>
      <trkpt lat="45.83526" lon="1.21605">
        <ele>254.7</ele>
        <time>2024-10-21T10:07:31Z</time>
      </trkpt>
      <trkpt lat="45.83527" lon="1.21606">
        <ele>254.7</ele>
        <time>2024-10-21T10:07:32Z</time>
      </trkpt>
      <trkpt lat="45.83528" lon="1.21606">
        <ele>254.7</ele>
        <time>2024-10-21T10:07:33Z</time>
      </trkpt>
      <trkpt lat="45.8353" lon="1.21606">
        <ele>254.7</ele>
        <time>2024-10-21T10:07:34Z</time>
      </trkpt>
      <trkpt lat="45.83532" lon="1.21606">
        <ele>254.7</ele>
        <time>2024-10-21T10:07:35Z</time>
      </trkpt>
      <trkpt lat="45.83533" lon="1.21605">
        <ele>254.7</ele>
        <time>2024-10-21T10:07:36Z</time>
      </trkpt>
      <trkpt lat="45.83535" lon="1.21605">
        <ele>254.7</ele>
        <time>2024-10-21T10:07:37Z</time>
      </trkpt>
      <trkpt lat="45.83536" lon="1.21605">
        <ele>254.7</ele>
        <time>2024-10-21T10:07:38Z</time>
      </trkpt>
      <trkpt lat="45.83538" lon="1.21605">
        <ele>254.7</ele>
        <time>2024-10-21T10:07:39Z</time>
      </trkpt>
      <trkpt lat="45.8354" lon="1.21606">
        <ele>254.7</ele>
        <time>2024-10-21T10:07:40Z</time>
      </trkpt>
      <trkpt lat="45.83541" lon="1.21606">
        <ele>254.7</ele>
        <time>2024-10-21T10:07:41Z</time>
      </trkpt>
      <trkpt lat="45.83541" lon="1.21607">
        <ele>254.7</ele>
        <time>2024-10-21T10:07:42Z</time>
      </trkpt>
      <trkpt lat="45.83543" lon="1.21607">
        <ele>254.7</ele>
        <time>2024-10-21T10:07:43Z</time>
      </trkpt>
      <trkpt lat="45.83544" lon="1.21606">
        <ele>254.7</ele>
        <time>2024-10-21T10:07:44Z</time>
      </trkpt>
      <trkpt lat="45.83545" lon="1.21606">
        <ele>254.7</ele>
        <time>2024-10-21T10:07:45Z</time>
      </trkpt>
      <trkpt lat="45.83546" lon="1.21606">
        <ele>254.7</ele>
        <time>2024-10-21T10:07:46Z</time>
      </trkpt>
      <trkpt lat="45.83547" lon="1.21608">
        <ele>254.7</ele>
        <time>2024-10-21T10:07:47Z</time>
      </trkpt>
      <trkpt lat="45.83546" lon="1.21609">
        <ele>254.7</ele>
        <time>2024-10-21T10:07:48Z</time>
      </trkpt>
      <trkpt lat="45.83544" lon="1.21609">
        <ele>254.7</ele>
        <time>2024-10-21T10:07:49Z</time>
      </trkpt>
      <trkpt lat="45.83543" lon="1.21609">
        <ele>254.7</ele>
        <time>2024-10-21T10:07:50Z</time>
      </trkpt>
      <trkpt lat="45.83543" lon="1.21609">
        <ele>254.7</ele>
        <time>2024-10-21T10:07:51Z</time>
      </trkpt>
      <trkpt lat="45.83542" lon="1.21609">
        <ele>254.7</ele>
        <time>2024-10-21T10:07:52Z</time>
      </trkpt>
      <trkpt lat="45.83542" lon="1.21609">
        <ele>254.7</ele>
        <time>2024-10-21T10:07:53Z</time>
      </trkpt>
      <trkpt lat="45.83542" lon="1.2161">
        <ele>254.7</ele>
        <time>2024-10-21T10:07:54Z</time>
      </trkpt>
      <trkpt lat="45.83542" lon="1.2161">
        <ele>254.7</ele>
        <time>2024-10-21T10:07:55Z</time>
      </trkpt>
      <trkpt lat="45.83541" lon="1.2161">
        <ele>254.7</ele>
        <time>2024-10-21T10:07:56Z</time>
      </trkpt>
      <trkpt lat="45.83541" lon="1.2161">
        <ele>254.7</ele>
        <time>2024-10-21T10:07:57Z</time>
      </trkpt>
      <trkpt lat="45.83541" lon="1.2161">
        <ele>254.7</ele>
        <time>2024-10-21T10:07:58Z</time>
      </trkpt>
      <trkpt lat="45.83541" lon="1.2161">
        <ele>254.7</ele>
        <time>2024-10-21T10:07:59Z</time>
      </trkpt>
      <trkpt lat="45.83541" lon="1.2161">
        <ele>254.7</ele>
        <time>2024-10-21T10:08:00Z</time>
      </trkpt>
      <trkpt lat="45.83542" lon="1.21609">
        <ele>254.7</ele>
        <time>2024-10-21T10:08:01Z</time>
      </trkpt>
      <trkpt lat="45.83542" lon="1.21609">
        <ele>254.7</ele>
        <time>2024-10-21T10:08:02Z</time>
      </trkpt>
      <trkpt lat="45.83542" lon="1.21609">
        <ele>254.7</ele>
        <time>2024-10-21T10:08:03Z</time>
      </trkpt>
      <trkpt lat="45.83543" lon="1.21608">
        <ele>254.7</ele>
        <time>2024-10-21T10:08:04Z</time>
      </trkpt>
      <trkpt lat="45.83544" lon="1.21608">
        <ele>254.7</ele>
        <time>2024-10-21T10:08:05Z</time>
      </trkpt>
      <trkpt lat="45.83545" lon="1.21608">
        <ele>254.7</ele>
        <time>2024-10-21T10:08:06Z</time>
      </trkpt>
      <trkpt lat="45.83547" lon="1.21608">
        <ele>254.7</ele>
        <time>2024-10-21T10:08:07Z</time>
      </trkpt>
      <trkpt lat="45.8355" lon="1.21609">
        <ele>254.7</ele>
        <time>2024-10-21T10:08:08Z</time>
      </trkpt>
      <trkpt lat="45.83551" lon="1.2161">
        <ele>254.7</ele>
        <time>2024-10-21T10:08:09Z</time>
      </trkpt>
      <trkpt lat="45.83553" lon="1.21613">
        <ele>254.7</ele>
        <time>2024-10-21T10:08:10Z</time>
      </trkpt>
      <trkpt lat="45.83554" lon="1.21614">
        <ele>254.7</ele>
        <time>2024-10-21T10:08:11Z</time>
      </trkpt>
      <trkpt lat="45.83556" lon="1.21616">
        <ele>254.8</ele>
        <time>2024-10-21T10:08:12Z</time>
      </trkpt>
      <trkpt lat="45.83557" lon="1.21617">
        <ele>254.8</ele>
        <time>2024-10-21T10:08:13Z</time>
      </trkpt>
      <trkpt lat="45.83559" lon="1.21619">
        <ele>254.8</ele>
        <time>2024-10-21T10:08:14Z</time>
      </trkpt>
      <trkpt lat="45.8356" lon="1.2162">
        <ele>254.8</ele>
        <time>2024-10-21T10:08:15Z</time>
      </trkpt>
      <trkpt lat="45.83562" lon="1.21621">
        <ele>254.8</ele>
        <time>2024-10-21T10:08:16Z</time>
      </trkpt>
      <trkpt lat="45.83563" lon="1.21622">
        <ele>254.8</ele>
        <time>2024-10-21T10:08:17Z</time>
      </trkpt>
      <trkpt lat="45.83565" lon="1.21623">
        <ele>254.8</ele>
        <time>2024-10-21T10:08:18Z</time>
      </trkpt>
      <trkpt lat="45.83566" lon="1.21624">
        <ele>254.8</ele>
        <time>2024-10-21T10:08:19Z</time>
      </trkpt>
      <trkpt lat="45.83568" lon="1.21625">
        <ele>254.8</ele>
        <time>2024-10-21T10:08:20Z</time>
      </trkpt>
      <trkpt lat="45.83569" lon="1.21626">
        <ele>254.8</ele>
        <time>2024-10-21T10:08:21Z</time>
      </trkpt>
      <trkpt lat="45.83571" lon="1.21627">
        <ele>254.8</ele>
        <time>2024-10-21T10:08:22Z</time>
      </trkpt>
      <trkpt lat="45.83574" lon="1.21629">
        <ele>254.8</ele>
        <time>2024-10-21T10:08:23Z</time>
      </trkpt>
      <trkpt lat="45.83575" lon="1.2163">
        <ele>254.8</ele>
        <time>2024-10-21T10:08:24Z</time>
      </trkpt>
      <trkpt lat="45.83575" lon="1.2163">
        <ele>254.8</ele>
        <time>2024-10-21T10:08:25Z</time>
      </trkpt>
      <trkpt lat="45.83576" lon="1.21631">
        <ele>254.8</ele>
        <time>2024-10-21T10:08:26Z</time>
      </trkpt>
      <trkpt lat="45.83578" lon="1.21632">
        <ele>254.8</ele>
        <time>2024-10-21T10:08:27Z</time>
      </trkpt>
      <trkpt lat="45.83579" lon="1.21633">
        <ele>254.8</ele>
        <time>2024-10-21T10:08:28Z</time>
      </trkpt>
      <trkpt lat="45.83581" lon="1.21635">
        <ele>254.8</ele>
        <time>2024-10-21T10:08:29Z</time>
      </trkpt>
      <trkpt lat="45.83582" lon="1.21636">
        <ele>254.9</ele>
        <time>2024-10-21T10:08:30Z</time>
      </trkpt>
      <trkpt lat="45.83583" lon="1.21637">
        <ele>254.9</ele>
        <time>2024-10-21T10:08:31Z</time>
      </trkpt>
      <trkpt lat="45.83585" lon="1.21638">
        <ele>254.9</ele>
        <time>2024-10-21T10:08:32Z</time>
      </trkpt>
      <trkpt lat="45.83586" lon="1.2164">
        <ele>254.9</ele>
        <time>2024-10-21T10:08:33Z</time>
      </trkpt>
      <trkpt lat="45.83587" lon="1.21642">
        <ele>254.9</ele>
        <time>2024-10-21T10:08:34Z</time>
      </trkpt>
      <trkpt lat="45.83588" lon="1.21643">
        <ele>254.9</ele>
        <time>2024-10-21T10:08:35Z</time>
      </trkpt>
      <trkpt lat="45.8359" lon="1.21645">
        <ele>254.9</ele>
        <time>2024-10-21T10:08:36Z</time>
      </trkpt>
      <trkpt lat="45.83591" lon="1.21646">
        <ele>254.9</ele>
        <time>2024-10-21T10:08:37Z</time>
      </trkpt>
      <trkpt lat="45.83592" lon="1.21647">
        <ele>254.9</ele>
        <time>2024-10-21T10:08:38Z</time>
      </trkpt>
      <trkpt lat="45.83594" lon="1.21648">
        <ele>254.9</ele>
        <time>2024-10-21T10:08:39Z</time>
      </trkpt>
      <trkpt lat="45.83595" lon="1.21649">
        <ele>254.9</ele>
        <time>2024-10-21T10:08:40Z</time>
      </trkpt>
      <trkpt lat="45.83596" lon="1.2165">
        <ele>255</ele>
        <time>2024-10-21T10:08:41Z</time>
      </trkpt>
      <trkpt lat="45.83597" lon="1.21651">
        <ele>255</ele>
        <time>2024-10-21T10:08:42Z</time>
      </trkpt>
      <trkpt lat="45.83598" lon="1.21652">
        <ele>255</ele>
        <time>2024-10-21T10:08:43Z</time>
      </trkpt>
      <trkpt lat="45.836" lon="1.21654">
        <ele>255</ele>
        <time>2024-10-21T10:08:44Z</time>
      </trkpt>
      <trkpt lat="45.83601" lon="1.21655">
        <ele>255</ele>
        <time>2024-10-21T10:08:45Z</time>
      </trkpt>
      <trkpt lat="45.83602" lon="1.21656">
        <ele>255</ele>
        <time>2024-10-21T10:08:46Z</time>
      </trkpt>
      <trkpt lat="45.83603" lon="1.21658">
        <ele>255</ele>
        <time>2024-10-21T10:08:47Z</time>
      </trkpt>
      <trkpt lat="45.83604" lon="1.21659">
        <ele>255</ele>
        <time>2024-10-21T10:08:48Z</time>
      </trkpt>
      <trkpt lat="45.83605" lon="1.21661">
        <ele>255.1</ele>
        <time>2024-10-21T10:08:49Z</time>
      </trkpt>
      <trkpt lat="45.83607" lon="1.21663">
        <ele>255.1</ele>
        <time>2024-10-21T10:08:50Z</time>
      </trkpt>
      <trkpt lat="45.83607" lon="1.21664">
        <ele>255.1</ele>
        <time>2024-10-21T10:08:51Z</time>
      </trkpt>
      <trkpt lat="45.83608" lon="1.21665">
        <ele>255.1</ele>
        <time>2024-10-21T10:08:52Z</time>
      </trkpt>
      <trkpt lat="45.83609" lon="1.21666">
        <ele>255.1</ele>
        <time>2024-10-21T10:08:53Z</time>
      </trkpt>
      <trkpt lat="45.83611" lon="1.21667">
        <ele>255.1</ele>
        <time>2024-10-21T10:08:54Z</time>
      </trkpt>
      <trkpt lat="45.83612" lon="1.21667">
        <ele>255.1</ele>
        <time>2024-10-21T10:08:55Z</time>
      </trkpt>
      <trkpt lat="45.83613" lon="1.21668">
        <ele>255.2</ele>
        <time>2024-10-21T10:08:56Z</time>
      </trkpt>
      <trkpt lat="45.83616" lon="1.2167">
        <ele>255.2</ele>
        <time>2024-10-21T10:08:57Z</time>
      </trkpt>
      <trkpt lat="45.83617" lon="1.21671">
        <ele>255.2</ele>
        <time>2024-10-21T10:08:59Z</time>
      </trkpt>
      <trkpt lat="45.83618" lon="1.21672">
        <ele>255.2</ele>
        <time>2024-10-21T10:09:00Z</time>
      </trkpt>
      <trkpt lat="45.83619" lon="1.21673">
        <ele>255.2</ele>
        <time>2024-10-21T10:09:01Z</time>
      </trkpt>
      <trkpt lat="45.83621" lon="1.21674">
        <ele>255.3</ele>
        <time>2024-10-21T10:09:02Z</time>
      </trkpt>
      <trkpt lat="45.83622" lon="1.21674">
        <ele>255.3</ele>
        <time>2024-10-21T10:09:03Z</time>
      </trkpt>
      <trkpt lat="45.83623" lon="1.21675">
        <ele>255.3</ele>
        <time>2024-10-21T10:09:04Z</time>
      </trkpt>
      <trkpt lat="45.83624" lon="1.21676">
        <ele>255.3</ele>
        <time>2024-10-21T10:09:05Z</time>
      </trkpt>
      <trkpt lat="45.83626" lon="1.21677">
        <ele>255.3</ele>
        <time>2024-10-21T10:09:06Z</time>
      </trkpt>
      <trkpt lat="45.83627" lon="1.21678">
        <ele>255.3</ele>
        <time>2024-10-21T10:09:07Z</time>
      </trkpt>
      <trkpt lat="45.83629" lon="1.21679">
        <ele>255.4</ele>
        <time>2024-10-21T10:09:08Z</time>
      </trkpt>
      <trkpt lat="45.8363" lon="1.2168">
        <ele>255.4</ele>
        <time>2024-10-21T10:09:09Z</time>
      </trkpt>
      <trkpt lat="45.83631" lon="1.2168">
        <ele>255.4</ele>
        <time>2024-10-21T10:09:10Z</time>
      </trkpt>
      <trkpt lat="45.83633" lon="1.2168">
        <ele>255.4</ele>
        <time>2024-10-21T10:09:11Z</time>
      </trkpt>
      <trkpt lat="45.83634" lon="1.2168">
        <ele>255.4</ele>
        <time>2024-10-21T10:09:12Z</time>
      </trkpt>
      <trkpt lat="45.83636" lon="1.21681">
        <ele>255.4</ele>
        <time>2024-10-21T10:09:13Z</time>
      </trkpt>
      <trkpt lat="45.83638" lon="1.21681">
        <ele>255.5</ele>
        <time>2024-10-21T10:09:14Z</time>
      </trkpt>
      <trkpt lat="45.8364" lon="1.2168">
        <ele>255.5</ele>
        <time>2024-10-21T10:09:15Z</time>
      </trkpt>
      <trkpt lat="45.83642" lon="1.2168">
        <ele>255.5</ele>
        <time>2024-10-21T10:09:17Z</time>
      </trkpt>
      <trkpt lat="45.83643" lon="1.2168">
        <ele>255.5</ele>
        <time>2024-10-21T10:09:18Z</time>
      </trkpt>
      <trkpt lat="45.83644" lon="1.2168">
        <ele>255.5</ele>
        <time>2024-10-21T10:09:19Z</time>
      </trkpt>
      <trkpt lat="45.83646" lon="1.21679">
        <ele>255.5</ele>
        <time>2024-10-21T10:09:20Z</time>
      </trkpt>
      <trkpt lat="45.83647" lon="1.21678">
        <ele>255.5</ele>
        <time>2024-10-21T10:09:21Z</time>
      </trkpt>
      <trkpt lat="45.83648" lon="1.21677">
        <ele>255.5</ele>
        <time>2024-10-21T10:09:22Z</time>
      </trkpt>
      <trkpt lat="45.83649" lon="1.21676">
        <ele>255.5</ele>
        <time>2024-10-21T10:09:23Z</time>
      </trkpt>
      <trkpt lat="45.8365" lon="1.21674">
        <ele>255.5</ele>
        <time>2024-10-21T10:09:24Z</time>
      </trkpt>
      <trkpt lat="45.83651" lon="1.21673">
        <ele>255.5</ele>
        <time>2024-10-21T10:09:25Z</time>
      </trkpt>
      <trkpt lat="45.83652" lon="1.21671">
        <ele>255.5</ele>
        <time>2024-10-21T10:09:26Z</time>
      </trkpt>
      <trkpt lat="45.83654" lon="1.2167">
        <ele>255.6</ele>
        <time>2024-10-21T10:09:27Z</time>
      </trkpt>
      <trkpt lat="45.83655" lon="1.21671">
        <ele>255.6</ele>
        <time>2024-10-21T10:09:28Z</time>
      </trkpt>
      <trkpt lat="45.83657" lon="1.21671">
        <ele>255.6</ele>
        <time>2024-10-21T10:09:29Z</time>
      </trkpt>
      <trkpt lat="45.83658" lon="1.21672">
        <ele>255.6</ele>
        <time>2024-10-21T10:09:30Z</time>
      </trkpt>
      <trkpt lat="45.8366" lon="1.21672">
        <ele>255.6</ele>
        <time>2024-10-21T10:09:31Z</time>
      </trkpt>
      <trkpt lat="45.83661" lon="1.21673">
        <ele>255.6</ele>
        <time>2024-10-21T10:09:32Z</time>
      </trkpt>
      <trkpt lat="45.83664" lon="1.21674">
        <ele>255.6</ele>
        <time>2024-10-21T10:09:33Z</time>
      </trkpt>
      <trkpt lat="45.83665" lon="1.21675">
        <ele>255.6</ele>
        <time>2024-10-21T10:09:35Z</time>
      </trkpt>
      <trkpt lat="45.83667" lon="1.21676">
        <ele>255.6</ele>
        <time>2024-10-21T10:09:36Z</time>
      </trkpt>
      <trkpt lat="45.83668" lon="1.21676">
        <ele>255.6</ele>
        <time>2024-10-21T10:09:37Z</time>
      </trkpt>
      <trkpt lat="45.8367" lon="1.21677">
        <ele>255.6</ele>
        <time>2024-10-21T10:09:38Z</time>
      </trkpt>
      <trkpt lat="45.83672" lon="1.21679">
        <ele>255.6</ele>
        <time>2024-10-21T10:09:39Z</time>
      </trkpt>
      <trkpt lat="45.83672" lon="1.2168">
        <ele>255.6</ele>
        <time>2024-10-21T10:09:40Z</time>
      </trkpt>
      <trkpt lat="45.83673" lon="1.2168">
        <ele>255.6</ele>
        <time>2024-10-21T10:09:41Z</time>
      </trkpt>
      <trkpt lat="45.83674" lon="1.21683">
        <ele>255.6</ele>
        <time>2024-10-21T10:09:42Z</time>
      </trkpt>
      <trkpt lat="45.83675" lon="1.21684">
        <ele>255.6</ele>
        <time>2024-10-21T10:09:43Z</time>
      </trkpt>
      <trkpt lat="45.83675" lon="1.21685">
        <ele>255.6</ele>
        <time>2024-10-21T10:09:44Z</time>
      </trkpt>
      <trkpt lat="45.83676" lon="1.21687">
        <ele>255.6</ele>
        <time>2024-10-21T10:09:45Z</time>
      </trkpt>
      <trkpt lat="45.83676" lon="1.21689">
        <ele>255.6</ele>
        <time>2024-10-21T10:09:46Z</time>
      </trkpt>
      <trkpt lat="45.83676" lon="1.2169">
        <ele>255.6</ele>
        <time>2024-10-21T10:09:47Z</time>
      </trkpt>
      <trkpt lat="45.83677" lon="1.21692">
        <ele>255.6</ele>
        <time>2024-10-21T10:09:48Z</time>
      </trkpt>
      <trkpt lat="45.83677" lon="1.21694">
        <ele>255.6</ele>
        <time>2024-10-21T10:09:49Z</time>
      </trkpt>
      <trkpt lat="45.83678" lon="1.21696">
        <ele>255.6</ele>
        <time>2024-10-21T10:09:50Z</time>
      </trkpt>
      <trkpt lat="45.83678" lon="1.21697">
        <ele>255.6</ele>
        <time>2024-10-21T10:09:51Z</time>
      </trkpt>
      <trkpt lat="45.83679" lon="1.21699">
        <ele>255.6</ele>
        <time>2024-10-21T10:09:52Z</time>
      </trkpt>
      <trkpt lat="45.83679" lon="1.21702">
        <ele>255.6</ele>
        <time>2024-10-21T10:09:53Z</time>
      </trkpt>
      <trkpt lat="45.83679" lon="1.21703">
        <ele>255.6</ele>
        <time>2024-10-21T10:09:54Z</time>
      </trkpt>
      <trkpt lat="45.83679" lon="1.21704">
        <ele>255.6</ele>
        <time>2024-10-21T10:09:55Z</time>
      </trkpt>
      <trkpt lat="45.83678" lon="1.21705">
        <ele>255.6</ele>
        <time>2024-10-21T10:09:56Z</time>
      </trkpt>
      <trkpt lat="45.83677" lon="1.21704">
        <ele>255.6</ele>
        <time>2024-10-21T10:09:57Z</time>
      </trkpt>
      <trkpt lat="45.83677" lon="1.21704">
        <ele>255.6</ele>
        <time>2024-10-21T10:09:58Z</time>
      </trkpt>
      <trkpt lat="45.83678" lon="1.21704">
        <ele>255.6</ele>
        <time>2024-10-21T10:09:59Z</time>
      </trkpt>
      <trkpt lat="45.83678" lon="1.21703">
        <ele>255.6</ele>
        <time>2024-10-21T10:10:00Z</time>
      </trkpt>
      <trkpt lat="45.83678" lon="1.21703">
        <ele>255.6</ele>
        <time>2024-10-21T10:10:01Z</time>
      </trkpt>
      <trkpt lat="45.83677" lon="1.21703">
        <ele>255.6</ele>
        <time>2024-10-21T10:10:02Z</time>
      </trkpt>
      <trkpt lat="45.83677" lon="1.21703">
        <ele>255.6</ele>
        <time>2024-10-21T10:10:03Z</time>
      </trkpt>
      <trkpt lat="45.83677" lon="1.21703">
        <ele>255.6</ele>
        <time>2024-10-21T10:10:04Z</time>
      </trkpt>
      <trkpt lat="45.83676" lon="1.21703">
        <ele>255.6</ele>
        <time>2024-10-21T10:10:05Z</time>
      </trkpt>
      <trkpt lat="45.83676" lon="1.21703">
        <ele>255.6</ele>
        <time>2024-10-21T10:10:06Z</time>
      </trkpt>
      <trkpt lat="45.83676" lon="1.21704">
        <ele>255.6</ele>
        <time>2024-10-21T10:10:07Z</time>
      </trkpt>
      <trkpt lat="45.83676" lon="1.21704">
        <ele>255.6</ele>
        <time>2024-10-21T10:10:08Z</time>
      </trkpt>
      <trkpt lat="45.83676" lon="1.21704">
        <ele>255.6</ele>
        <time>2024-10-21T10:10:09Z</time>
      </trkpt>
      <trkpt lat="45.83676" lon="1.21704">
        <ele>255.6</ele>
        <time>2024-10-21T10:10:10Z</time>
      </trkpt>
      <trkpt lat="45.83676" lon="1.21704">
        <ele>255.6</ele>
        <time>2024-10-21T10:10:11Z</time>
      </trkpt>
      <trkpt lat="45.83676" lon="1.21704">
        <ele>255.6</ele>
        <time>2024-10-21T10:10:12Z</time>
      </trkpt>
      <trkpt lat="45.83676" lon="1.21705">
        <ele>255.6</ele>
        <time>2024-10-21T10:10:13Z</time>
      </trkpt>
      <trkpt lat="45.83676" lon="1.21704">
        <ele>255.6</ele>
        <time>2024-10-21T10:10:14Z</time>
      </trkpt>
      <trkpt lat="45.83676" lon="1.21704">
        <ele>255.6</ele>
        <time>2024-10-21T10:10:15Z</time>
      </trkpt>
      <trkpt lat="45.83675" lon="1.21704">
        <ele>255.6</ele>
        <time>2024-10-21T10:10:16Z</time>
      </trkpt>
      <trkpt lat="45.83675" lon="1.21705">
        <ele>255.6</ele>
        <time>2024-10-21T10:10:17Z</time>
      </trkpt>
      <trkpt lat="45.83674" lon="1.21705">
        <ele>255.6</ele>
        <time>2024-10-21T10:10:18Z</time>
      </trkpt>
      <trkpt lat="45.83674" lon="1.21705">
        <ele>255.6</ele>
        <time>2024-10-21T10:10:19Z</time>
      </trkpt>
      <trkpt lat="45.83674" lon="1.21705">
        <ele>255.6</ele>
        <time>2024-10-21T10:10:20Z</time>
      </trkpt>
      <trkpt lat="45.83674" lon="1.21705">
        <ele>255.6</ele>
        <time>2024-10-21T10:10:21Z</time>
      </trkpt>
      <trkpt lat="45.83673" lon="1.21707">
        <ele>255.6</ele>
        <time>2024-10-21T10:10:22Z</time>
      </trkpt>
      <trkpt lat="45.83672" lon="1.21715">
        <ele>255.6</ele>
        <time>2024-10-21T10:10:23Z</time>
      </trkpt>
      <trkpt lat="45.83671" lon="1.21718">
        <ele>255.5</ele>
        <time>2024-10-21T10:10:24Z</time>
      </trkpt>
      <trkpt lat="45.83671" lon="1.21719">
        <ele>255.5</ele>
        <time>2024-10-21T10:10:25Z</time>
      </trkpt>
      <trkpt lat="45.8367" lon="1.21721">
        <ele>255.5</ele>
        <time>2024-10-21T10:10:26Z</time>
      </trkpt>
      <trkpt lat="45.83669" lon="1.21723">
        <ele>255.5</ele>
        <time>2024-10-21T10:10:27Z</time>
      </trkpt>
      <trkpt lat="45.83668" lon="1.21727">
        <ele>255.6</ele>
        <time>2024-10-21T10:10:28Z</time>
      </trkpt>
      <trkpt lat="45.83667" lon="1.21729">
        <ele>255.6</ele>
        <time>2024-10-21T10:10:29Z</time>
      </trkpt>
      <trkpt lat="45.83667" lon="1.21733">
        <ele>255.6</ele>
        <time>2024-10-21T10:10:30Z</time>
      </trkpt>
      <trkpt lat="45.83667" lon="1.21734">
        <ele>255.6</ele>
        <time>2024-10-21T10:10:31Z</time>
      </trkpt>
      <trkpt lat="45.83668" lon="1.21738">
        <ele>255.6</ele>
        <time>2024-10-21T10:10:32Z</time>
      </trkpt>
      <trkpt lat="45.83668" lon="1.2174">
        <ele>255.6</ele>
        <time>2024-10-21T10:10:33Z</time>
      </trkpt>
      <trkpt lat="45.83669" lon="1.21742">
        <ele>255.6</ele>
        <time>2024-10-21T10:10:34Z</time>
      </trkpt>
      <trkpt lat="45.8367" lon="1.21743">
        <ele>255.7</ele>
        <time>2024-10-21T10:10:35Z</time>
      </trkpt>
      <trkpt lat="45.83671" lon="1.21745">
        <ele>255.7</ele>
        <time>2024-10-21T10:10:36Z</time>
      </trkpt>
      <trkpt lat="45.83672" lon="1.21746">
        <ele>255.7</ele>
        <time>2024-10-21T10:10:37Z</time>
      </trkpt>
      <trkpt lat="45.83675" lon="1.21748">
        <ele>255.8</ele>
        <time>2024-10-21T10:10:38Z</time>
      </trkpt>
      <trkpt lat="45.83678" lon="1.21749">
        <ele>255.8</ele>
        <time>2024-10-21T10:10:39Z</time>
      </trkpt>
      <trkpt lat="45.83679" lon="1.2175">
        <ele>255.8</ele>
        <time>2024-10-21T10:10:41Z</time>
      </trkpt>
      <trkpt lat="45.8368" lon="1.2175">
        <ele>255.8</ele>
        <time>2024-10-21T10:10:42Z</time>
      </trkpt>
      <trkpt lat="45.83681" lon="1.21751">
        <ele>255.9</ele>
        <time>2024-10-21T10:10:43Z</time>
      </trkpt>
      <trkpt lat="45.83682" lon="1.21751">
        <ele>255.9</ele>
        <time>2024-10-21T10:10:44Z</time>
      </trkpt>
      <trkpt lat="45.83683" lon="1.21752">
        <ele>255.9</ele>
        <time>2024-10-21T10:10:45Z</time>
      </trkpt>
      <trkpt lat="45.83685" lon="1.21754">
        <ele>255.9</ele>
        <time>2024-10-21T10:10:46Z</time>
      </trkpt>
      <trkpt lat="45.83685" lon="1.21754">
        <ele>255.9</ele>
        <time>2024-10-21T10:10:47Z</time>
      </trkpt>
      <trkpt lat="45.83686" lon="1.21755">
        <ele>256</ele>
        <time>2024-10-21T10:10:48Z</time>
      </trkpt>
      <trkpt lat="45.83687" lon="1.21756">
        <ele>256</ele>
        <time>2024-10-21T10:10:49Z</time>
      </trkpt>
      <trkpt lat="45.83689" lon="1.21758">
        <ele>256</ele>
        <time>2024-10-21T10:10:50Z</time>
      </trkpt>
      <trkpt lat="45.8369" lon="1.21758">
        <ele>256.1</ele>
        <time>2024-10-21T10:10:51Z</time>
      </trkpt>
      <trkpt lat="45.83691" lon="1.21759">
        <ele>256.1</ele>
        <time>2024-10-21T10:10:52Z</time>
      </trkpt>
      <trkpt lat="45.83692" lon="1.21759">
        <ele>256.2</ele>
        <time>2024-10-21T10:10:53Z</time>
      </trkpt>
      <trkpt lat="45.83693" lon="1.2176">
        <ele>256.2</ele>
        <time>2024-10-21T10:10:54Z</time>
      </trkpt>
      <trkpt lat="45.83694" lon="1.2176">
        <ele>256.2</ele>
        <time>2024-10-21T10:10:55Z</time>
      </trkpt>
      <trkpt lat="45.83696" lon="1.2176">
        <ele>256.3</ele>
        <time>2024-10-21T10:10:56Z</time>
      </trkpt>
      <trkpt lat="45.83697" lon="1.2176">
        <ele>256.4</ele>
        <time>2024-10-21T10:10:57Z</time>
      </trkpt>
      <trkpt lat="45.83698" lon="1.2176">
        <ele>256.4</ele>
        <time>2024-10-21T10:10:58Z</time>
      </trkpt>
      <trkpt lat="45.837" lon="1.21759">
        <ele>256.5</ele>
        <time>2024-10-21T10:10:59Z</time>
      </trkpt>
      <trkpt lat="45.83701" lon="1.21759">
        <ele>256.5</ele>
        <time>2024-10-21T10:11:00Z</time>
      </trkpt>
      <trkpt lat="45.83703" lon="1.21759">
        <ele>256.6</ele>
        <time>2024-10-21T10:11:01Z</time>
      </trkpt>
      <trkpt lat="45.83705" lon="1.21759">
        <ele>256.7</ele>
        <time>2024-10-21T10:11:02Z</time>
      </trkpt>
      <trkpt lat="45.83705" lon="1.21759">
        <ele>256.7</ele>
        <time>2024-10-21T10:11:03Z</time>
      </trkpt>
      <trkpt lat="45.83706" lon="1.21758">
        <ele>256.7</ele>
        <time>2024-10-21T10:11:04Z</time>
      </trkpt>
      <trkpt lat="45.83707" lon="1.21758">
        <ele>256.8</ele>
        <time>2024-10-21T10:11:05Z</time>
      </trkpt>
      <trkpt lat="45.83709" lon="1.21757">
        <ele>256.8</ele>
        <time>2024-10-21T10:11:06Z</time>
      </trkpt>
      <trkpt lat="45.8371" lon="1.21757">
        <ele>256.9</ele>
        <time>2024-10-21T10:11:07Z</time>
      </trkpt>
      <trkpt lat="45.83711" lon="1.21756">
        <ele>256.9</ele>
        <time>2024-10-21T10:11:08Z</time>
      </trkpt>
      <trkpt lat="45.83712" lon="1.21756">
        <ele>257</ele>
        <time>2024-10-21T10:11:09Z</time>
      </trkpt>
      <trkpt lat="45.83714" lon="1.21756">
        <ele>257</ele>
        <time>2024-10-21T10:11:10Z</time>
      </trkpt>
      <trkpt lat="45.83715" lon="1.21756">
        <ele>257.1</ele>
        <time>2024-10-21T10:11:11Z</time>
      </trkpt>
      <trkpt lat="45.83716" lon="1.21756">
        <ele>257.1</ele>
        <time>2024-10-21T10:11:12Z</time>
      </trkpt>
      <trkpt lat="45.83717" lon="1.21756">
        <ele>257.1</ele>
        <time>2024-10-21T10:11:13Z</time>
      </trkpt>
      <trkpt lat="45.83718" lon="1.21756">
        <ele>257.2</ele>
        <time>2024-10-21T10:11:14Z</time>
      </trkpt>
      <trkpt lat="45.8372" lon="1.21756">
        <ele>257.2</ele>
        <time>2024-10-21T10:11:15Z</time>
      </trkpt>
      <trkpt lat="45.83721" lon="1.21758">
        <ele>257.2</ele>
        <time>2024-10-21T10:11:16Z</time>
      </trkpt>
      <trkpt lat="45.83722" lon="1.21759">
        <ele>257.3</ele>
        <time>2024-10-21T10:11:17Z</time>
      </trkpt>
      <trkpt lat="45.83724" lon="1.21759">
        <ele>257.3</ele>
        <time>2024-10-21T10:11:18Z</time>
      </trkpt>
      <trkpt lat="45.83728" lon="1.21759">
        <ele>257.4</ele>
        <time>2024-10-21T10:11:19Z</time>
      </trkpt>
      <trkpt lat="45.8373" lon="1.21759">
        <ele>257.5</ele>
        <time>2024-10-21T10:11:20Z</time>
      </trkpt>
      <trkpt lat="45.83733" lon="1.21757">
        <ele>257.5</ele>
        <time>2024-10-21T10:11:21Z</time>
      </trkpt>
      <trkpt lat="45.83735" lon="1.21754">
        <ele>257.6</ele>
        <time>2024-10-21T10:11:23Z</time>
      </trkpt>
      <trkpt lat="45.83736" lon="1.21753">
        <ele>257.6</ele>
        <time>2024-10-21T10:11:24Z</time>
      </trkpt>
      <trkpt lat="45.83736" lon="1.21752">
        <ele>257.7</ele>
        <time>2024-10-21T10:11:25Z</time>
      </trkpt>
      <trkpt lat="45.83737" lon="1.2175">
        <ele>257.7</ele>
        <time>2024-10-21T10:11:26Z</time>
      </trkpt>
      <trkpt lat="45.83737" lon="1.21749">
        <ele>257.7</ele>
        <time>2024-10-21T10:11:27Z</time>
      </trkpt>
      <trkpt lat="45.83737" lon="1.21747">
        <ele>257.8</ele>
        <time>2024-10-21T10:11:28Z</time>
      </trkpt>
      <trkpt lat="45.83739" lon="1.21745">
        <ele>257.8</ele>
        <time>2024-10-21T10:11:29Z</time>
      </trkpt>
      <trkpt lat="45.8374" lon="1.21744">
        <ele>257.9</ele>
        <time>2024-10-21T10:11:30Z</time>
      </trkpt>
      <trkpt lat="45.83741" lon="1.21743">
        <ele>257.9</ele>
        <time>2024-10-21T10:11:31Z</time>
      </trkpt>
      <trkpt lat="45.83743" lon="1.21741">
        <ele>257.9</ele>
        <time>2024-10-21T10:11:32Z</time>
      </trkpt>
      <trkpt lat="45.83744" lon="1.2174">
        <ele>258</ele>
        <time>2024-10-21T10:11:33Z</time>
      </trkpt>
      <trkpt lat="45.83744" lon="1.21739">
        <ele>258</ele>
        <time>2024-10-21T10:11:34Z</time>
      </trkpt>
      <trkpt lat="45.83745" lon="1.21738">
        <ele>258</ele>
        <time>2024-10-21T10:11:35Z</time>
      </trkpt>
      <trkpt lat="45.83746" lon="1.21738">
        <ele>258.1</ele>
        <time>2024-10-21T10:11:36Z</time>
      </trkpt>
      <trkpt lat="45.83747" lon="1.21736">
        <ele>258.1</ele>
        <time>2024-10-21T10:11:37Z</time>
      </trkpt>
      <trkpt lat="45.83748" lon="1.21735">
        <ele>258.1</ele>
        <time>2024-10-21T10:11:38Z</time>
      </trkpt>
      <trkpt lat="45.83749" lon="1.21734">
        <ele>258.2</ele>
        <time>2024-10-21T10:11:39Z</time>
      </trkpt>
      <trkpt lat="45.8375" lon="1.21733">
        <ele>258.2</ele>
        <time>2024-10-21T10:11:40Z</time>
      </trkpt>
      <trkpt lat="45.83752" lon="1.21732">
        <ele>258.2</ele>
        <time>2024-10-21T10:11:41Z</time>
      </trkpt>
      <trkpt lat="45.83753" lon="1.21731">
        <ele>258.3</ele>
        <time>2024-10-21T10:11:42Z</time>
      </trkpt>
      <trkpt lat="45.83754" lon="1.2173">
        <ele>258.3</ele>
        <time>2024-10-21T10:11:43Z</time>
      </trkpt>
      <trkpt lat="45.83756" lon="1.21728">
        <ele>258.4</ele>
        <time>2024-10-21T10:11:44Z</time>
      </trkpt>
      <trkpt lat="45.83756" lon="1.21727">
        <ele>258.4</ele>
        <time>2024-10-21T10:11:45Z</time>
      </trkpt>
      <trkpt lat="45.83757" lon="1.21726">
        <ele>258.4</ele>
        <time>2024-10-21T10:11:46Z</time>
      </trkpt>
      <trkpt lat="45.83758" lon="1.21725">
        <ele>258.5</ele>
        <time>2024-10-21T10:11:47Z</time>
      </trkpt>
      <trkpt lat="45.83759" lon="1.21724">
        <ele>258.5</ele>
        <time>2024-10-21T10:11:48Z</time>
      </trkpt>
      <trkpt lat="45.83761" lon="1.21722">
        <ele>258.6</ele>
        <time>2024-10-21T10:11:49Z</time>
      </trkpt>
      <trkpt lat="45.83762" lon="1.21721">
        <ele>258.6</ele>
        <time>2024-10-21T10:11:50Z</time>
      </trkpt>
      <trkpt lat="45.83763" lon="1.2172">
        <ele>258.6</ele>
        <time>2024-10-21T10:11:51Z</time>
      </trkpt>
      <trkpt lat="45.83764" lon="1.21719">
        <ele>258.7</ele>
        <time>2024-10-21T10:11:52Z</time>
      </trkpt>
      <trkpt lat="45.83766" lon="1.21718">
        <ele>258.7</ele>
        <time>2024-10-21T10:11:53Z</time>
      </trkpt>
      <trkpt lat="45.83767" lon="1.21717">
        <ele>258.8</ele>
        <time>2024-10-21T10:11:54Z</time>
      </trkpt>
      <trkpt lat="45.83768" lon="1.21716">
        <ele>258.8</ele>
        <time>2024-10-21T10:11:55Z</time>
      </trkpt>
      <trkpt lat="45.83769" lon="1.21715">
        <ele>258.9</ele>
        <time>2024-10-21T10:11:56Z</time>
      </trkpt>
      <trkpt lat="45.83771" lon="1.21713">
        <ele>258.9</ele>
        <time>2024-10-21T10:11:57Z</time>
      </trkpt>
      <trkpt lat="45.83772" lon="1.21712">
        <ele>258.9</ele>
        <time>2024-10-21T10:11:58Z</time>
      </trkpt>
      <trkpt lat="45.83773" lon="1.21711">
        <ele>259</ele>
        <time>2024-10-21T10:11:59Z</time>
      </trkpt>
      <trkpt lat="45.83774" lon="1.2171">
        <ele>259</ele>
        <time>2024-10-21T10:12:00Z</time>
      </trkpt>
      <trkpt lat="45.83775" lon="1.21709">
        <ele>259.1</ele>
        <time>2024-10-21T10:12:01Z</time>
      </trkpt>
      <trkpt lat="45.83777" lon="1.21708">
        <ele>259.1</ele>
        <time>2024-10-21T10:12:02Z</time>
      </trkpt>
      <trkpt lat="45.83778" lon="1.21707">
        <ele>259.2</ele>
        <time>2024-10-21T10:12:03Z</time>
      </trkpt>
      <trkpt lat="45.83779" lon="1.21705">
        <ele>259.2</ele>
        <time>2024-10-21T10:12:04Z</time>
      </trkpt>
      <trkpt lat="45.83781" lon="1.21704">
        <ele>259.3</ele>
        <time>2024-10-21T10:12:05Z</time>
      </trkpt>
      <trkpt lat="45.83782" lon="1.21703">
        <ele>259.3</ele>
        <time>2024-10-21T10:12:06Z</time>
      </trkpt>
      <trkpt lat="45.83782" lon="1.21703">
        <ele>259.3</ele>
        <time>2024-10-21T10:12:07Z</time>
      </trkpt>
      <trkpt lat="45.83784" lon="1.21701">
        <ele>259.4</ele>
        <time>2024-10-21T10:12:08Z</time>
      </trkpt>
      <trkpt lat="45.83786" lon="1.21699">
        <ele>259.4</ele>
        <time>2024-10-21T10:12:09Z</time>
      </trkpt>
      <trkpt lat="45.83787" lon="1.21698">
        <ele>259.5</ele>
        <time>2024-10-21T10:12:11Z</time>
      </trkpt>
      <trkpt lat="45.83788" lon="1.21697">
        <ele>259.5</ele>
        <time>2024-10-21T10:12:12Z</time>
      </trkpt>
      <trkpt lat="45.83789" lon="1.21696">
        <ele>259.6</ele>
        <time>2024-10-21T10:12:13Z</time>
      </trkpt>
      <trkpt lat="45.83791" lon="1.21695">
        <ele>259.6</ele>
        <time>2024-10-21T10:12:14Z</time>
      </trkpt>
      <trkpt lat="45.83792" lon="1.21693">
        <ele>259.7</ele>
        <time>2024-10-21T10:12:15Z</time>
      </trkpt>
      <trkpt lat="45.83793" lon="1.21693">
        <ele>259.7</ele>
        <time>2024-10-21T10:12:16Z</time>
      </trkpt>
      <trkpt lat="45.83794" lon="1.21692">
        <ele>259.7</ele>
        <time>2024-10-21T10:12:17Z</time>
      </trkpt>
      <trkpt lat="45.83795" lon="1.21691">
        <ele>259.7</ele>
        <time>2024-10-21T10:12:18Z</time>
      </trkpt>
      <trkpt lat="45.83796" lon="1.21689">
        <ele>259.8</ele>
        <time>2024-10-21T10:12:19Z</time>
      </trkpt>
      <trkpt lat="45.83797" lon="1.21687">
        <ele>259.8</ele>
        <time>2024-10-21T10:12:20Z</time>
      </trkpt>
      <trkpt lat="45.83798" lon="1.21686">
        <ele>259.9</ele>
        <time>2024-10-21T10:12:21Z</time>
      </trkpt>
      <trkpt lat="45.83799" lon="1.21685">
        <ele>259.9</ele>
        <time>2024-10-21T10:12:22Z</time>
      </trkpt>
      <trkpt lat="45.838" lon="1.21683">
        <ele>259.9</ele>
        <time>2024-10-21T10:12:23Z</time>
      </trkpt>
      <trkpt lat="45.83801" lon="1.21681">
        <ele>259.9</ele>
        <time>2024-10-21T10:12:24Z</time>
      </trkpt>
      <trkpt lat="45.83802" lon="1.21679">
        <ele>260</ele>
        <time>2024-10-21T10:12:25Z</time>
      </trkpt>
      <trkpt lat="45.83803" lon="1.21678">
        <ele>260</ele>
        <time>2024-10-21T10:12:26Z</time>
      </trkpt>
      <trkpt lat="45.83804" lon="1.21677">
        <ele>260</ele>
        <time>2024-10-21T10:12:27Z</time>
      </trkpt>
      <trkpt lat="45.83805" lon="1.21676">
        <ele>260</ele>
        <time>2024-10-21T10:12:28Z</time>
      </trkpt>
      <trkpt lat="45.83806" lon="1.21674">
        <ele>260.1</ele>
        <time>2024-10-21T10:12:29Z</time>
      </trkpt>
      <trkpt lat="45.83807" lon="1.21671">
        <ele>260.1</ele>
        <time>2024-10-21T10:12:30Z</time>
      </trkpt>
      <trkpt lat="45.83808" lon="1.2167">
        <ele>260.2</ele>
        <time>2024-10-21T10:12:31Z</time>
      </trkpt>
      <trkpt lat="45.83809" lon="1.21668">
        <ele>260.2</ele>
        <time>2024-10-21T10:12:32Z</time>
      </trkpt>
      <trkpt lat="45.8381" lon="1.21667">
        <ele>260.2</ele>
        <time>2024-10-21T10:12:33Z</time>
      </trkpt>
      <trkpt lat="45.83811" lon="1.21665">
        <ele>260.2</ele>
        <time>2024-10-21T10:12:34Z</time>
      </trkpt>
      <trkpt lat="45.83812" lon="1.21664">
        <ele>260.3</ele>
        <time>2024-10-21T10:12:35Z</time>
      </trkpt>
      <trkpt lat="45.83813" lon="1.21663">
        <ele>260.3</ele>
        <time>2024-10-21T10:12:36Z</time>
      </trkpt>
      <trkpt lat="45.83814" lon="1.21662">
        <ele>260.3</ele>
        <time>2024-10-21T10:12:37Z</time>
      </trkpt>
      <trkpt lat="45.83815" lon="1.2166">
        <ele>260.3</ele>
        <time>2024-10-21T10:12:38Z</time>
      </trkpt>
      <trkpt lat="45.83816" lon="1.21659">
        <ele>260.3</ele>
        <time>2024-10-21T10:12:39Z</time>
      </trkpt>
      <trkpt lat="45.83817" lon="1.21656">
        <ele>260.4</ele>
        <time>2024-10-21T10:12:40Z</time>
      </trkpt>
      <trkpt lat="45.83818" lon="1.21655">
        <ele>260.4</ele>
        <time>2024-10-21T10:12:41Z</time>
      </trkpt>
      <trkpt lat="45.83818" lon="1.21654">
        <ele>260.4</ele>
        <time>2024-10-21T10:12:42Z</time>
      </trkpt>
      <trkpt lat="45.83819" lon="1.21653">
        <ele>260.4</ele>
        <time>2024-10-21T10:12:43Z</time>
      </trkpt>
      <trkpt lat="45.8382" lon="1.21652">
        <ele>260.4</ele>
        <time>2024-10-21T10:12:44Z</time>
      </trkpt>
      <trkpt lat="45.83821" lon="1.21651">
        <ele>260.5</ele>
        <time>2024-10-21T10:12:45Z</time>
      </trkpt>
      <trkpt lat="45.83821" lon="1.2165">
        <ele>260.5</ele>
        <time>2024-10-21T10:12:46Z</time>
      </trkpt>
      <trkpt lat="45.83822" lon="1.21648">
        <ele>260.5</ele>
        <time>2024-10-21T10:12:47Z</time>
      </trkpt>
      <trkpt lat="45.83823" lon="1.21647">
        <ele>260.5</ele>
        <time>2024-10-21T10:12:48Z</time>
      </trkpt>
      <trkpt lat="45.83824" lon="1.21645">
        <ele>260.6</ele>
        <time>2024-10-21T10:12:49Z</time>
      </trkpt>
      <trkpt lat="45.83825" lon="1.21643">
        <ele>260.6</ele>
        <time>2024-10-21T10:12:50Z</time>
      </trkpt>
      <trkpt lat="45.83826" lon="1.2164">
        <ele>260.6</ele>
        <time>2024-10-21T10:12:51Z</time>
      </trkpt>
      <trkpt lat="45.83827" lon="1.21637">
        <ele>260.7</ele>
        <time>2024-10-21T10:12:53Z</time>
      </trkpt>
      <trkpt lat="45.83828" lon="1.21635">
        <ele>260.7</ele>
        <time>2024-10-21T10:12:54Z</time>
      </trkpt>
      <trkpt lat="45.83829" lon="1.21634">
        <ele>260.7</ele>
        <time>2024-10-21T10:12:55Z</time>
      </trkpt>
      <trkpt lat="45.83829" lon="1.21632">
        <ele>260.7</ele>
        <time>2024-10-21T10:12:56Z</time>
      </trkpt>
      <trkpt lat="45.8383" lon="1.2163">
        <ele>260.8</ele>
        <time>2024-10-21T10:12:57Z</time>
      </trkpt>
      <trkpt lat="45.83831" lon="1.21628">
        <ele>260.8</ele>
        <time>2024-10-21T10:12:58Z</time>
      </trkpt>
      <trkpt lat="45.83832" lon="1.21626">
        <ele>260.8</ele>
        <time>2024-10-21T10:12:59Z</time>
      </trkpt>
      <trkpt lat="45.83833" lon="1.21623">
        <ele>260.9</ele>
        <time>2024-10-21T10:13:00Z</time>
      </trkpt>
      <trkpt lat="45.83833" lon="1.21623">
        <ele>260.9</ele>
        <time>2024-10-21T10:13:01Z</time>
      </trkpt>
      <trkpt lat="45.83834" lon="1.2162">
        <ele>260.9</ele>
        <time>2024-10-21T10:13:02Z</time>
      </trkpt>
      <trkpt lat="45.83835" lon="1.21618">
        <ele>260.9</ele>
        <time>2024-10-21T10:13:03Z</time>
      </trkpt>
      <trkpt lat="45.83836" lon="1.21616">
        <ele>261</ele>
        <time>2024-10-21T10:13:04Z</time>
      </trkpt>
      <trkpt lat="45.83836" lon="1.21614">
        <ele>261</ele>
        <time>2024-10-21T10:13:05Z</time>
      </trkpt>
      <trkpt lat="45.83837" lon="1.21613">
        <ele>261</ele>
        <time>2024-10-21T10:13:06Z</time>
      </trkpt>
      <trkpt lat="45.83838" lon="1.21611">
        <ele>261</ele>
        <time>2024-10-21T10:13:07Z</time>
      </trkpt>
      <trkpt lat="45.83839" lon="1.21609">
        <ele>261.1</ele>
        <time>2024-10-21T10:13:08Z</time>
      </trkpt>
      <trkpt lat="45.83839" lon="1.21607">
        <ele>261</ele>
        <time>2024-10-21T10:13:09Z</time>
      </trkpt>
      <trkpt lat="45.8384" lon="1.21604">
        <ele>260.8</ele>
        <time>2024-10-21T10:13:10Z</time>
      </trkpt>
      <trkpt lat="45.83841" lon="1.21603">
        <ele>260.9</ele>
        <time>2024-10-21T10:13:11Z</time>
      </trkpt>
      <trkpt lat="45.83841" lon="1.21602">
        <ele>261</ele>
        <time>2024-10-21T10:13:12Z</time>
      </trkpt>
      <trkpt lat="45.83842" lon="1.216">
        <ele>261</ele>
        <time>2024-10-21T10:13:13Z</time>
      </trkpt>
      <trkpt lat="45.83843" lon="1.21599">
        <ele>261.1</ele>
        <time>2024-10-21T10:13:14Z</time>
      </trkpt>
      <trkpt lat="45.83845" lon="1.21597">
        <ele>261.2</ele>
        <time>2024-10-21T10:13:15Z</time>
      </trkpt>
      <trkpt lat="45.83846" lon="1.21596">
        <ele>261.3</ele>
        <time>2024-10-21T10:13:16Z</time>
      </trkpt>
      <trkpt lat="45.83848" lon="1.21595">
        <ele>261.4</ele>
        <time>2024-10-21T10:13:17Z</time>
      </trkpt>
      <trkpt lat="45.83849" lon="1.21595">
        <ele>261.5</ele>
        <time>2024-10-21T10:13:18Z</time>
      </trkpt>
      <trkpt lat="45.8385" lon="1.21594">
        <ele>261.6</ele>
        <time>2024-10-21T10:13:19Z</time>
      </trkpt>
      <trkpt lat="45.83852" lon="1.21594">
        <ele>261.7</ele>
        <time>2024-10-21T10:13:20Z</time>
      </trkpt>
      <trkpt lat="45.83854" lon="1.21592">
        <ele>261.9</ele>
        <time>2024-10-21T10:13:21Z</time>
      </trkpt>
      <trkpt lat="45.83855" lon="1.21591">
        <ele>262</ele>
        <time>2024-10-21T10:13:23Z</time>
      </trkpt>
      <trkpt lat="45.83857" lon="1.2159">
        <ele>262.2</ele>
        <time>2024-10-21T10:13:24Z</time>
      </trkpt>
      <trkpt lat="45.83858" lon="1.2159">
        <ele>262.3</ele>
        <time>2024-10-21T10:13:25Z</time>
      </trkpt>
      <trkpt lat="45.83859" lon="1.21589">
        <ele>262.3</ele>
        <time>2024-10-21T10:13:26Z</time>
      </trkpt>
      <trkpt lat="45.83861" lon="1.21588">
        <ele>262.5</ele>
        <time>2024-10-21T10:13:27Z</time>
      </trkpt>
      <trkpt lat="45.83862" lon="1.21588">
        <ele>262.6</ele>
        <time>2024-10-21T10:13:28Z</time>
      </trkpt>
      <trkpt lat="45.83863" lon="1.21587">
        <ele>262.7</ele>
        <time>2024-10-21T10:13:29Z</time>
      </trkpt>
      <trkpt lat="45.83864" lon="1.21587">
        <ele>262.8</ele>
        <time>2024-10-21T10:13:30Z</time>
      </trkpt>
      <trkpt lat="45.83865" lon="1.21586">
        <ele>262.9</ele>
        <time>2024-10-21T10:13:31Z</time>
      </trkpt>
      <trkpt lat="45.83867" lon="1.21585">
        <ele>263.1</ele>
        <time>2024-10-21T10:13:32Z</time>
      </trkpt>
      <trkpt lat="45.83868" lon="1.21584">
        <ele>263.2</ele>
        <time>2024-10-21T10:13:33Z</time>
      </trkpt>
      <trkpt lat="45.83869" lon="1.21584">
        <ele>263.3</ele>
        <time>2024-10-21T10:13:34Z</time>
      </trkpt>
      <trkpt lat="45.8387" lon="1.21583">
        <ele>263.4</ele>
        <time>2024-10-21T10:13:35Z</time>
      </trkpt>
      <trkpt lat="45.83871" lon="1.21582">
        <ele>263.5</ele>
        <time>2024-10-21T10:13:36Z</time>
      </trkpt>
      <trkpt lat="45.83872" lon="1.21581">
        <ele>263.6</ele>
        <time>2024-10-21T10:13:37Z</time>
      </trkpt>
      <trkpt lat="45.83873" lon="1.2158">
        <ele>263.7</ele>
        <time>2024-10-21T10:13:38Z</time>
      </trkpt>
      <trkpt lat="45.83874" lon="1.21579">
        <ele>263.9</ele>
        <time>2024-10-21T10:13:39Z</time>
      </trkpt>
      <trkpt lat="45.83875" lon="1.21579">
        <ele>263.9</ele>
        <time>2024-10-21T10:13:40Z</time>
      </trkpt>
      <trkpt lat="45.83876" lon="1.21578">
        <ele>264</ele>
        <time>2024-10-21T10:13:41Z</time>
      </trkpt>
      <trkpt lat="45.83877" lon="1.21577">
        <ele>264.1</ele>
        <time>2024-10-21T10:13:42Z</time>
      </trkpt>
      <trkpt lat="45.83878" lon="1.21577">
        <ele>264.2</ele>
        <time>2024-10-21T10:13:43Z</time>
      </trkpt>
      <trkpt lat="45.8388" lon="1.21576">
        <ele>264.3</ele>
        <time>2024-10-21T10:13:44Z</time>
      </trkpt>
      <trkpt lat="45.8388" lon="1.21575">
        <ele>264.4</ele>
        <time>2024-10-21T10:13:45Z</time>
      </trkpt>
      <trkpt lat="45.83881" lon="1.21575">
        <ele>264.5</ele>
        <time>2024-10-21T10:13:46Z</time>
      </trkpt>
      <trkpt lat="45.83883" lon="1.21573">
        <ele>264.6</ele>
        <time>2024-10-21T10:13:47Z</time>
      </trkpt>
      <trkpt lat="45.83884" lon="1.21573">
        <ele>264.7</ele>
        <time>2024-10-21T10:13:48Z</time>
      </trkpt>
      <trkpt lat="45.83885" lon="1.21572">
        <ele>264.8</ele>
        <time>2024-10-21T10:13:49Z</time>
      </trkpt>
      <trkpt lat="45.83886" lon="1.21572">
        <ele>264.8</ele>
        <time>2024-10-21T10:13:50Z</time>
      </trkpt>
      <trkpt lat="45.83887" lon="1.21571">
        <ele>264.9</ele>
        <time>2024-10-21T10:13:51Z</time>
      </trkpt>
      <trkpt lat="45.83888" lon="1.2157">
        <ele>265</ele>
        <time>2024-10-21T10:13:52Z</time>
      </trkpt>
      <trkpt lat="45.83889" lon="1.21569">
        <ele>265.1</ele>
        <time>2024-10-21T10:13:53Z</time>
      </trkpt>
      <trkpt lat="45.8389" lon="1.21568">
        <ele>265.2</ele>
        <time>2024-10-21T10:13:54Z</time>
      </trkpt>
      <trkpt lat="45.83891" lon="1.21567">
        <ele>265.2</ele>
        <time>2024-10-21T10:13:55Z</time>
      </trkpt>
      <trkpt lat="45.83892" lon="1.21566">
        <ele>265.3</ele>
        <time>2024-10-21T10:13:56Z</time>
      </trkpt>
      <trkpt lat="45.83893" lon="1.21566">
        <ele>265.4</ele>
        <time>2024-10-21T10:13:57Z</time>
      </trkpt>
      <trkpt lat="45.83894" lon="1.21566">
        <ele>265.5</ele>
        <time>2024-10-21T10:13:58Z</time>
      </trkpt>
      <trkpt lat="45.83896" lon="1.21565">
        <ele>265.6</ele>
        <time>2024-10-21T10:13:59Z</time>
      </trkpt>
      <trkpt lat="45.83897" lon="1.21564">
        <ele>265.7</ele>
        <time>2024-10-21T10:14:00Z</time>
      </trkpt>
      <trkpt lat="45.83897" lon="1.21564">
        <ele>265.7</ele>
        <time>2024-10-21T10:14:01Z</time>
      </trkpt>
      <trkpt lat="45.83897" lon="1.21562">
        <ele>265.8</ele>
        <time>2024-10-21T10:14:02Z</time>
      </trkpt>
      <trkpt lat="45.83898" lon="1.2156">
        <ele>265.8</ele>
        <time>2024-10-21T10:14:03Z</time>
      </trkpt>
      <trkpt lat="45.83898" lon="1.21559">
        <ele>265.9</ele>
        <time>2024-10-21T10:14:04Z</time>
      </trkpt>
      <trkpt lat="45.83898" lon="1.21557">
        <ele>266</ele>
        <time>2024-10-21T10:14:05Z</time>
      </trkpt>
      <trkpt lat="45.83899" lon="1.21556">
        <ele>266</ele>
        <time>2024-10-21T10:14:06Z</time>
      </trkpt>
      <trkpt lat="45.839" lon="1.21554">
        <ele>266.1</ele>
        <time>2024-10-21T10:14:07Z</time>
      </trkpt>
      <trkpt lat="45.83901" lon="1.21553">
        <ele>266.2</ele>
        <time>2024-10-21T10:14:08Z</time>
      </trkpt>
      <trkpt lat="45.83901" lon="1.21552">
        <ele>266.3</ele>
        <time>2024-10-21T10:14:09Z</time>
      </trkpt>
      <trkpt lat="45.83902" lon="1.21551">
        <ele>266.4</ele>
        <time>2024-10-21T10:14:10Z</time>
      </trkpt>
      <trkpt lat="45.83902" lon="1.21551">
        <ele>266.4</ele>
        <time>2024-10-21T10:14:11Z</time>
      </trkpt>
      <trkpt lat="45.83902" lon="1.21551">
        <ele>266.4</ele>
        <time>2024-10-21T10:14:12Z</time>
      </trkpt>
      <trkpt lat="45.83903" lon="1.21551">
        <ele>266.4</ele>
        <time>2024-10-21T10:14:13Z</time>
      </trkpt>
      <trkpt lat="45.83903" lon="1.2155">
        <ele>266.5</ele>
        <time>2024-10-21T10:14:14Z</time>
      </trkpt>
      <trkpt lat="45.83904" lon="1.21549">
        <ele>266.5</ele>
        <time>2024-10-21T10:14:15Z</time>
      </trkpt>
      <trkpt lat="45.83905" lon="1.21546">
        <ele>266.7</ele>
        <time>2024-10-21T10:14:16Z</time>
      </trkpt>
      <trkpt lat="45.83905" lon="1.21545">
        <ele>266.8</ele>
        <time>2024-10-21T10:14:17Z</time>
      </trkpt>
      <trkpt lat="45.83904" lon="1.21544">
        <ele>266.8</ele>
        <time>2024-10-21T10:14:18Z</time>
      </trkpt>
      <trkpt lat="45.83904" lon="1.21541">
        <ele>266.9</ele>
        <time>2024-10-21T10:14:19Z</time>
      </trkpt>
      <trkpt lat="45.83905" lon="1.21541">
        <ele>267</ele>
        <time>2024-10-21T10:14:20Z</time>
      </trkpt>
      <trkpt lat="45.83905" lon="1.2154">
        <ele>267</ele>
        <time>2024-10-21T10:14:21Z</time>
      </trkpt>
      <trkpt lat="45.83906" lon="1.21539">
        <ele>267.1</ele>
        <time>2024-10-21T10:14:22Z</time>
      </trkpt>
      <trkpt lat="45.83907" lon="1.21538">
        <ele>267.2</ele>
        <time>2024-10-21T10:14:23Z</time>
      </trkpt>
      <trkpt lat="45.83908" lon="1.21538">
        <ele>267.3</ele>
        <time>2024-10-21T10:14:24Z</time>
      </trkpt>
      <trkpt lat="45.83909" lon="1.21537">
        <ele>267.3</ele>
        <time>2024-10-21T10:14:25Z</time>
      </trkpt>
      <trkpt lat="45.8391" lon="1.21537">
        <ele>267.4</ele>
        <time>2024-10-21T10:14:26Z</time>
      </trkpt>
      <trkpt lat="45.8391" lon="1.21536">
        <ele>267.4</ele>
        <time>2024-10-21T10:14:27Z</time>
      </trkpt>
      <trkpt lat="45.83911" lon="1.21535">
        <ele>267.5</ele>
        <time>2024-10-21T10:14:28Z</time>
      </trkpt>
      <trkpt lat="45.83913" lon="1.21536">
        <ele>267.6</ele>
        <time>2024-10-21T10:14:29Z</time>
      </trkpt>
      <trkpt lat="45.83914" lon="1.21536">
        <ele>267.7</ele>
        <time>2024-10-21T10:14:30Z</time>
      </trkpt>
      <trkpt lat="45.83915" lon="1.21536">
        <ele>267.7</ele>
        <time>2024-10-21T10:14:31Z</time>
      </trkpt>
      <trkpt lat="45.83917" lon="1.21537">
        <ele>267.9</ele>
        <time>2024-10-21T10:14:32Z</time>
      </trkpt>
      <trkpt lat="45.83918" lon="1.21537">
        <ele>267.9</ele>
        <time>2024-10-21T10:14:33Z</time>
      </trkpt>
      <trkpt lat="45.83918" lon="1.21537">
        <ele>268</ele>
        <time>2024-10-21T10:14:34Z</time>
      </trkpt>
      <trkpt lat="45.83919" lon="1.21537">
        <ele>268.1</ele>
        <time>2024-10-21T10:14:35Z</time>
      </trkpt>
      <trkpt lat="45.83921" lon="1.21537">
        <ele>268.1</ele>
        <time>2024-10-21T10:14:36Z</time>
      </trkpt>
      <trkpt lat="45.83922" lon="1.21537">
        <ele>268.2</ele>
        <time>2024-10-21T10:14:37Z</time>
      </trkpt>
      <trkpt lat="45.83924" lon="1.21535">
        <ele>268.4</ele>
        <time>2024-10-21T10:14:38Z</time>
      </trkpt>
      <trkpt lat="45.83924" lon="1.21535">
        <ele>268.4</ele>
        <time>2024-10-21T10:14:39Z</time>
      </trkpt>
      <trkpt lat="45.83925" lon="1.21534">
        <ele>268.5</ele>
        <time>2024-10-21T10:14:40Z</time>
      </trkpt>
      <trkpt lat="45.83925" lon="1.21533">
        <ele>268.5</ele>
        <time>2024-10-21T10:14:41Z</time>
      </trkpt>
      <trkpt lat="45.83926" lon="1.21532">
        <ele>268.6</ele>
        <time>2024-10-21T10:14:42Z</time>
      </trkpt>
      <trkpt lat="45.83927" lon="1.21531">
        <ele>268.7</ele>
        <time>2024-10-21T10:14:43Z</time>
      </trkpt>
      <trkpt lat="45.83928" lon="1.21529">
        <ele>268.8</ele>
        <time>2024-10-21T10:14:44Z</time>
      </trkpt>
      <trkpt lat="45.83928" lon="1.21528">
        <ele>268.8</ele>
        <time>2024-10-21T10:14:45Z</time>
      </trkpt>
      <trkpt lat="45.8393" lon="1.21526">
        <ele>268.9</ele>
        <time>2024-10-21T10:14:46Z</time>
      </trkpt>
      <trkpt lat="45.8393" lon="1.21526">
        <ele>269</ele>
        <time>2024-10-21T10:14:47Z</time>
      </trkpt>
      <trkpt lat="45.83931" lon="1.21525">
        <ele>269</ele>
        <time>2024-10-21T10:14:48Z</time>
      </trkpt>
      <trkpt lat="45.83933" lon="1.21523">
        <ele>269.1</ele>
        <time>2024-10-21T10:14:49Z</time>
      </trkpt>
      <trkpt lat="45.83934" lon="1.21523">
        <ele>269.2</ele>
        <time>2024-10-21T10:14:50Z</time>
      </trkpt>
      <trkpt lat="45.83935" lon="1.21522">
        <ele>269.2</ele>
        <time>2024-10-21T10:14:51Z</time>
      </trkpt>
      <trkpt lat="45.83937" lon="1.21521">
        <ele>269.3</ele>
        <time>2024-10-21T10:14:52Z</time>
      </trkpt>
      <trkpt lat="45.83938" lon="1.21521">
        <ele>269.3</ele>
        <time>2024-10-21T10:14:53Z</time>
      </trkpt>
      <trkpt lat="45.83938" lon="1.21521">
        <ele>269.4</ele>
        <time>2024-10-21T10:14:54Z</time>
      </trkpt>
      <trkpt lat="45.83939" lon="1.21521">
        <ele>269.4</ele>
        <time>2024-10-21T10:14:55Z</time>
      </trkpt>
      <trkpt lat="45.8394" lon="1.2152">
        <ele>269.5</ele>
        <time>2024-10-21T10:14:56Z</time>
      </trkpt>
      <trkpt lat="45.83941" lon="1.2152">
        <ele>269.5</ele>
        <time>2024-10-21T10:14:57Z</time>
      </trkpt>
      <trkpt lat="45.83944" lon="1.21518">
        <ele>269.6</ele>
        <time>2024-10-21T10:14:58Z</time>
      </trkpt>
      <trkpt lat="45.83944" lon="1.21518">
        <ele>269.6</ele>
        <time>2024-10-21T10:14:59Z</time>
      </trkpt>
      <trkpt lat="45.83944" lon="1.21518">
        <ele>269.7</ele>
        <time>2024-10-21T10:15:00Z</time>
      </trkpt>
      <trkpt lat="45.83945" lon="1.21517">
        <ele>269.7</ele>
        <time>2024-10-21T10:15:01Z</time>
      </trkpt>
      <trkpt lat="45.83946" lon="1.21516">
        <ele>269.8</ele>
        <time>2024-10-21T10:15:02Z</time>
      </trkpt>
      <trkpt lat="45.83947" lon="1.21516">
        <ele>269.8</ele>
        <time>2024-10-21T10:15:03Z</time>
      </trkpt>
      <trkpt lat="45.83948" lon="1.21515">
        <ele>269.8</ele>
        <time>2024-10-21T10:15:04Z</time>
      </trkpt>
      <trkpt lat="45.83948" lon="1.21515">
        <ele>269.9</ele>
        <time>2024-10-21T10:15:05Z</time>
      </trkpt>
      <trkpt lat="45.83949" lon="1.21515">
        <ele>269.9</ele>
        <time>2024-10-21T10:15:06Z</time>
      </trkpt>
      <trkpt lat="45.83949" lon="1.21515">
        <ele>269.9</ele>
        <time>2024-10-21T10:15:07Z</time>
      </trkpt>
      <trkpt lat="45.8395" lon="1.21514">
        <ele>269.9</ele>
        <time>2024-10-21T10:15:08Z</time>
      </trkpt>
      <trkpt lat="45.83952" lon="1.21513">
        <ele>270</ele>
        <time>2024-10-21T10:15:09Z</time>
      </trkpt>
      <trkpt lat="45.83952" lon="1.21513">
        <ele>270</ele>
        <time>2024-10-21T10:15:10Z</time>
      </trkpt>
      <trkpt lat="45.83953" lon="1.21512">
        <ele>270</ele>
        <time>2024-10-21T10:15:11Z</time>
      </trkpt>
      <trkpt lat="45.83955" lon="1.21511">
        <ele>270.1</ele>
        <time>2024-10-21T10:15:12Z</time>
      </trkpt>
      <trkpt lat="45.83956" lon="1.2151">
        <ele>270.2</ele>
        <time>2024-10-21T10:15:13Z</time>
      </trkpt>
      <trkpt lat="45.83957" lon="1.21508">
        <ele>270.3</ele>
        <time>2024-10-21T10:15:15Z</time>
      </trkpt>
      <trkpt lat="45.83958" lon="1.21507">
        <ele>270.3</ele>
        <time>2024-10-21T10:15:16Z</time>
      </trkpt>
      <trkpt lat="45.83958" lon="1.21507">
        <ele>270.4</ele>
        <time>2024-10-21T10:15:17Z</time>
      </trkpt>
      <trkpt lat="45.83959" lon="1.21506">
        <ele>270.4</ele>
        <time>2024-10-21T10:15:18Z</time>
      </trkpt>
      <trkpt lat="45.83961" lon="1.21505">
        <ele>270.5</ele>
        <time>2024-10-21T10:15:19Z</time>
      </trkpt>
      <trkpt lat="45.83961" lon="1.21505">
        <ele>270.5</ele>
        <time>2024-10-21T10:15:20Z</time>
      </trkpt>
      <trkpt lat="45.83962" lon="1.21504">
        <ele>270.6</ele>
        <time>2024-10-21T10:15:21Z</time>
      </trkpt>
      <trkpt lat="45.83963" lon="1.21503">
        <ele>270.6</ele>
        <time>2024-10-21T10:15:22Z</time>
      </trkpt>
      <trkpt lat="45.83964" lon="1.21503">
        <ele>270.7</ele>
        <time>2024-10-21T10:15:23Z</time>
      </trkpt>
      <trkpt lat="45.83966" lon="1.21501">
        <ele>270.8</ele>
        <time>2024-10-21T10:15:24Z</time>
      </trkpt>
      <trkpt lat="45.83967" lon="1.21501">
        <ele>270.8</ele>
        <time>2024-10-21T10:15:25Z</time>
      </trkpt>
      <trkpt lat="45.83968" lon="1.21501">
        <ele>270.9</ele>
        <time>2024-10-21T10:15:26Z</time>
      </trkpt>
      <trkpt lat="45.8397" lon="1.21499">
        <ele>271</ele>
        <time>2024-10-21T10:15:27Z</time>
      </trkpt>
      <trkpt lat="45.83971" lon="1.21499">
        <ele>271.1</ele>
        <time>2024-10-21T10:15:28Z</time>
      </trkpt>
      <trkpt lat="45.83972" lon="1.21498">
        <ele>271.1</ele>
        <time>2024-10-21T10:15:29Z</time>
      </trkpt>
      <trkpt lat="45.83972" lon="1.21498">
        <ele>271.2</ele>
        <time>2024-10-21T10:15:30Z</time>
      </trkpt>
      <trkpt lat="45.83974" lon="1.21497">
        <ele>271.2</ele>
        <time>2024-10-21T10:15:31Z</time>
      </trkpt>
      <trkpt lat="45.83976" lon="1.21496">
        <ele>271.4</ele>
        <time>2024-10-21T10:15:32Z</time>
      </trkpt>
      <trkpt lat="45.83976" lon="1.21496">
        <ele>271.4</ele>
        <time>2024-10-21T10:15:33Z</time>
      </trkpt>
      <trkpt lat="45.83977" lon="1.21495">
        <ele>271.4</ele>
        <time>2024-10-21T10:15:34Z</time>
      </trkpt>
      <trkpt lat="45.83979" lon="1.21494">
        <ele>271.6</ele>
        <time>2024-10-21T10:15:35Z</time>
      </trkpt>
      <trkpt lat="45.83979" lon="1.21493">
        <ele>271.6</ele>
        <time>2024-10-21T10:15:37Z</time>
      </trkpt>
      <trkpt lat="45.8398" lon="1.21493">
        <ele>271.7</ele>
        <time>2024-10-21T10:15:38Z</time>
      </trkpt>
      <trkpt lat="45.83981" lon="1.21493">
        <ele>271.7</ele>
        <time>2024-10-21T10:15:39Z</time>
      </trkpt>
      <trkpt lat="45.83982" lon="1.21493">
        <ele>271.8</ele>
        <time>2024-10-21T10:15:40Z</time>
      </trkpt>
      <trkpt lat="45.83982" lon="1.21493">
        <ele>271.8</ele>
        <time>2024-10-21T10:15:41Z</time>
      </trkpt>
      <trkpt lat="45.83983" lon="1.21492">
        <ele>271.8</ele>
        <time>2024-10-21T10:15:42Z</time>
      </trkpt>
      <trkpt lat="45.83984" lon="1.21492">
        <ele>271.9</ele>
        <time>2024-10-21T10:15:43Z</time>
      </trkpt>
      <trkpt lat="45.83986" lon="1.21491">
        <ele>272</ele>
        <time>2024-10-21T10:15:44Z</time>
      </trkpt>
      <trkpt lat="45.83986" lon="1.2149">
        <ele>272.1</ele>
        <time>2024-10-21T10:15:45Z</time>
      </trkpt>
      <trkpt lat="45.83987" lon="1.2149">
        <ele>272.1</ele>
        <time>2024-10-21T10:15:46Z</time>
      </trkpt>
      <trkpt lat="45.83988" lon="1.2149">
        <ele>272.1</ele>
        <time>2024-10-21T10:15:47Z</time>
      </trkpt>
      <trkpt lat="45.83989" lon="1.21489">
        <ele>272.2</ele>
        <time>2024-10-21T10:15:48Z</time>
      </trkpt>
      <trkpt lat="45.8399" lon="1.21487">
        <ele>272.3</ele>
        <time>2024-10-21T10:15:49Z</time>
      </trkpt>
      <trkpt lat="45.83992" lon="1.21487">
        <ele>272.4</ele>
        <time>2024-10-21T10:15:50Z</time>
      </trkpt>
      <trkpt lat="45.83993" lon="1.21486">
        <ele>272.4</ele>
        <time>2024-10-21T10:15:51Z</time>
      </trkpt>
      <trkpt lat="45.83994" lon="1.21485">
        <ele>272.5</ele>
        <time>2024-10-21T10:15:52Z</time>
      </trkpt>
      <trkpt lat="45.83994" lon="1.21485">
        <ele>272.5</ele>
        <time>2024-10-21T10:15:53Z</time>
      </trkpt>
      <trkpt lat="45.83994" lon="1.21486">
        <ele>272.6</ele>
        <time>2024-10-21T10:15:54Z</time>
      </trkpt>
      <trkpt lat="45.83994" lon="1.21488">
        <ele>272.7</ele>
        <time>2024-10-21T10:15:55Z</time>
      </trkpt>
      <trkpt lat="45.83995" lon="1.21488">
        <ele>272.7</ele>
        <time>2024-10-21T10:15:56Z</time>
      </trkpt>
      <trkpt lat="45.83996" lon="1.21488">
        <ele>272.7</ele>
        <time>2024-10-21T10:15:57Z</time>
      </trkpt>
      <trkpt lat="45.83996" lon="1.21487">
        <ele>272.8</ele>
        <time>2024-10-21T10:15:58Z</time>
      </trkpt>
      <trkpt lat="45.83997" lon="1.21487">
        <ele>272.8</ele>
        <time>2024-10-21T10:15:59Z</time>
      </trkpt>
      <trkpt lat="45.83998" lon="1.21486">
        <ele>272.9</ele>
        <time>2024-10-21T10:16:00Z</time>
      </trkpt>
      <trkpt lat="45.83999" lon="1.21486">
        <ele>273</ele>
        <time>2024-10-21T10:16:01Z</time>
      </trkpt>
      <trkpt lat="45.84" lon="1.21486">
        <ele>273.1</ele>
        <time>2024-10-21T10:16:02Z</time>
      </trkpt>
      <trkpt lat="45.84001" lon="1.21486">
        <ele>273.1</ele>
        <time>2024-10-21T10:16:03Z</time>
      </trkpt>
      <trkpt lat="45.84003" lon="1.21489">
        <ele>273.2</ele>
        <time>2024-10-21T10:16:04Z</time>
      </trkpt>
      <trkpt lat="45.84004" lon="1.2149">
        <ele>273.3</ele>
        <time>2024-10-21T10:16:05Z</time>
      </trkpt>
      <trkpt lat="45.84006" lon="1.21492">
        <ele>273.4</ele>
        <time>2024-10-21T10:16:07Z</time>
      </trkpt>
      <trkpt lat="45.84006" lon="1.21493">
        <ele>273.4</ele>
        <time>2024-10-21T10:16:08Z</time>
      </trkpt>
      <trkpt lat="45.84007" lon="1.21494">
        <ele>273.5</ele>
        <time>2024-10-21T10:16:09Z</time>
      </trkpt>
      <trkpt lat="45.84008" lon="1.21495">
        <ele>273.5</ele>
        <time>2024-10-21T10:16:10Z</time>
      </trkpt>
      <trkpt lat="45.84009" lon="1.21496">
        <ele>273.6</ele>
        <time>2024-10-21T10:16:11Z</time>
      </trkpt>
      <trkpt lat="45.84009" lon="1.21498">
        <ele>273.7</ele>
        <time>2024-10-21T10:16:12Z</time>
      </trkpt>
      <trkpt lat="45.8401" lon="1.215">
        <ele>273.8</ele>
        <time>2024-10-21T10:16:13Z</time>
      </trkpt>
      <trkpt lat="45.84011" lon="1.21502">
        <ele>273.9</ele>
        <time>2024-10-21T10:16:14Z</time>
      </trkpt>
      <trkpt lat="45.84012" lon="1.21504">
        <ele>274</ele>
        <time>2024-10-21T10:16:15Z</time>
      </trkpt>
      <trkpt lat="45.84013" lon="1.21505">
        <ele>274.1</ele>
        <time>2024-10-21T10:16:16Z</time>
      </trkpt>
      <trkpt lat="45.84014" lon="1.21507">
        <ele>274.2</ele>
        <time>2024-10-21T10:16:17Z</time>
      </trkpt>
      <trkpt lat="45.84016" lon="1.21508">
        <ele>274.3</ele>
        <time>2024-10-21T10:16:18Z</time>
      </trkpt>
      <trkpt lat="45.84017" lon="1.21509">
        <ele>274.4</ele>
        <time>2024-10-21T10:16:19Z</time>
      </trkpt>
      <trkpt lat="45.84019" lon="1.21511">
        <ele>274.5</ele>
        <time>2024-10-21T10:16:20Z</time>
      </trkpt>
      <trkpt lat="45.8402" lon="1.21512">
        <ele>274.6</ele>
        <time>2024-10-21T10:16:21Z</time>
      </trkpt>
      <trkpt lat="45.84021" lon="1.21513">
        <ele>274.8</ele>
        <time>2024-10-21T10:16:22Z</time>
      </trkpt>
      <trkpt lat="45.84022" lon="1.21514">
        <ele>274.9</ele>
        <time>2024-10-21T10:16:23Z</time>
      </trkpt>
      <trkpt lat="45.84023" lon="1.21515">
        <ele>275</ele>
        <time>2024-10-21T10:16:24Z</time>
      </trkpt>
      <trkpt lat="45.84025" lon="1.21516">
        <ele>275.2</ele>
        <time>2024-10-21T10:16:25Z</time>
      </trkpt>
      <trkpt lat="45.84027" lon="1.21518">
        <ele>275.4</ele>
        <time>2024-10-21T10:16:26Z</time>
      </trkpt>
      <trkpt lat="45.84027" lon="1.21518">
        <ele>275.5</ele>
        <time>2024-10-21T10:16:27Z</time>
      </trkpt>
      <trkpt lat="45.84028" lon="1.21519">
        <ele>275.5</ele>
        <time>2024-10-21T10:16:28Z</time>
      </trkpt>
      <trkpt lat="45.84029" lon="1.2152">
        <ele>275.7</ele>
        <time>2024-10-21T10:16:29Z</time>
      </trkpt>
      <trkpt lat="45.84031" lon="1.21521">
        <ele>275.9</ele>
        <time>2024-10-21T10:16:30Z</time>
      </trkpt>
      <trkpt lat="45.84032" lon="1.21521">
        <ele>276</ele>
        <time>2024-10-21T10:16:31Z</time>
      </trkpt>
      <trkpt lat="45.84034" lon="1.21522">
        <ele>276.2</ele>
        <time>2024-10-21T10:16:32Z</time>
      </trkpt>
      <trkpt lat="45.84036" lon="1.21523">
        <ele>276.5</ele>
        <time>2024-10-21T10:16:33Z</time>
      </trkpt>
      <trkpt lat="45.84037" lon="1.21523">
        <ele>276.6</ele>
        <time>2024-10-21T10:16:34Z</time>
      </trkpt>
      <trkpt lat="45.84038" lon="1.21523">
        <ele>276.7</ele>
        <time>2024-10-21T10:16:35Z</time>
      </trkpt>
      <trkpt lat="45.84039" lon="1.21523">
        <ele>276.8</ele>
        <time>2024-10-21T10:16:36Z</time>
      </trkpt>
      <trkpt lat="45.8404" lon="1.21524">
        <ele>276.9</ele>
        <time>2024-10-21T10:16:37Z</time>
      </trkpt>
      <trkpt lat="45.84041" lon="1.21524">
        <ele>277.1</ele>
        <time>2024-10-21T10:16:38Z</time>
      </trkpt>
      <trkpt lat="45.84042" lon="1.21524">
        <ele>277.2</ele>
        <time>2024-10-21T10:16:39Z</time>
      </trkpt>
      <trkpt lat="45.84043" lon="1.21524">
        <ele>277.4</ele>
        <time>2024-10-21T10:16:40Z</time>
      </trkpt>
      <trkpt lat="45.84044" lon="1.21524">
        <ele>277.5</ele>
        <time>2024-10-21T10:16:41Z</time>
      </trkpt>
      <trkpt lat="45.84045" lon="1.21524">
        <ele>277.6</ele>
        <time>2024-10-21T10:16:42Z</time>
      </trkpt>
      <trkpt lat="45.84046" lon="1.21524">
        <ele>277.8</ele>
        <time>2024-10-21T10:16:43Z</time>
      </trkpt>
      <trkpt lat="45.84047" lon="1.21524">
        <ele>277.9</ele>
        <time>2024-10-21T10:16:44Z</time>
      </trkpt>
      <trkpt lat="45.84049" lon="1.21523">
        <ele>278.1</ele>
        <time>2024-10-21T10:16:45Z</time>
      </trkpt>
      <trkpt lat="45.84049" lon="1.21523">
        <ele>278.2</ele>
        <time>2024-10-21T10:16:46Z</time>
      </trkpt>
      <trkpt lat="45.84051" lon="1.21522">
        <ele>278.3</ele>
        <time>2024-10-21T10:16:47Z</time>
      </trkpt>
      <trkpt lat="45.84053" lon="1.21522">
        <ele>278.6</ele>
        <time>2024-10-21T10:16:48Z</time>
      </trkpt>
      <trkpt lat="45.84054" lon="1.21521">
        <ele>278.7</ele>
        <time>2024-10-21T10:16:49Z</time>
      </trkpt>
      <trkpt lat="45.84054" lon="1.21521">
        <ele>278.8</ele>
        <time>2024-10-21T10:16:50Z</time>
      </trkpt>
      <trkpt lat="45.84056" lon="1.21521">
        <ele>278.9</ele>
        <time>2024-10-21T10:16:51Z</time>
      </trkpt>
      <trkpt lat="45.84057" lon="1.21521">
        <ele>279</ele>
        <time>2024-10-21T10:16:52Z</time>
      </trkpt>
      <trkpt lat="45.84058" lon="1.2152">
        <ele>279.2</ele>
        <time>2024-10-21T10:16:53Z</time>
      </trkpt>
      <trkpt lat="45.84059" lon="1.2152">
        <ele>279.3</ele>
        <time>2024-10-21T10:16:54Z</time>
      </trkpt>
      <trkpt lat="45.8406" lon="1.21519">
        <ele>279.5</ele>
        <time>2024-10-21T10:16:55Z</time>
      </trkpt>
      <trkpt lat="45.84061" lon="1.21519">
        <ele>279.6</ele>
        <time>2024-10-21T10:16:56Z</time>
      </trkpt>
      <trkpt lat="45.84062" lon="1.21519">
        <ele>279.7</ele>
        <time>2024-10-21T10:16:57Z</time>
      </trkpt>
      <trkpt lat="45.84063" lon="1.21519">
        <ele>279.8</ele>
        <time>2024-10-21T10:16:58Z</time>
      </trkpt>
      <trkpt lat="45.84064" lon="1.21519">
        <ele>279.9</ele>
        <time>2024-10-21T10:16:59Z</time>
      </trkpt>
      <trkpt lat="45.84065" lon="1.21519">
        <ele>280</ele>
        <time>2024-10-21T10:17:00Z</time>
      </trkpt>
      <trkpt lat="45.84066" lon="1.21519">
        <ele>280.1</ele>
        <time>2024-10-21T10:17:01Z</time>
      </trkpt>
      <trkpt lat="45.84067" lon="1.21518">
        <ele>280.2</ele>
        <time>2024-10-21T10:17:02Z</time>
      </trkpt>
      <trkpt lat="45.84068" lon="1.21518">
        <ele>280.3</ele>
        <time>2024-10-21T10:17:03Z</time>
      </trkpt>
      <trkpt lat="45.84069" lon="1.21518">
        <ele>280.4</ele>
        <time>2024-10-21T10:17:04Z</time>
      </trkpt>
      <trkpt lat="45.8407" lon="1.21517">
        <ele>280.6</ele>
        <time>2024-10-21T10:17:05Z</time>
      </trkpt>
      <trkpt lat="45.84072" lon="1.21516">
        <ele>280.7</ele>
        <time>2024-10-21T10:17:06Z</time>
      </trkpt>
      <trkpt lat="45.84072" lon="1.21516">
        <ele>280.8</ele>
        <time>2024-10-21T10:17:07Z</time>
      </trkpt>
      <trkpt lat="45.84073" lon="1.21516">
        <ele>280.9</ele>
        <time>2024-10-21T10:17:08Z</time>
      </trkpt>
      <trkpt lat="45.84074" lon="1.21516">
        <ele>281</ele>
        <time>2024-10-21T10:17:09Z</time>
      </trkpt>
      <trkpt lat="45.84075" lon="1.21515">
        <ele>281.1</ele>
        <time>2024-10-21T10:17:10Z</time>
      </trkpt>
      <trkpt lat="45.84076" lon="1.21515">
        <ele>281.2</ele>
        <time>2024-10-21T10:17:11Z</time>
      </trkpt>
      <trkpt lat="45.84077" lon="1.21514">
        <ele>281.4</ele>
        <time>2024-10-21T10:17:12Z</time>
      </trkpt>
      <trkpt lat="45.84077" lon="1.21514">
        <ele>281.4</ele>
        <time>2024-10-21T10:17:13Z</time>
      </trkpt>
      <trkpt lat="45.84078" lon="1.21514">
        <ele>281.5</ele>
        <time>2024-10-21T10:17:14Z</time>
      </trkpt>
      <trkpt lat="45.8408" lon="1.21514">
        <ele>281.7</ele>
        <time>2024-10-21T10:17:15Z</time>
      </trkpt>
      <trkpt lat="45.8408" lon="1.21514">
        <ele>281.8</ele>
        <time>2024-10-21T10:17:16Z</time>
      </trkpt>
      <trkpt lat="45.84081" lon="1.21514">
        <ele>281.9</ele>
        <time>2024-10-21T10:17:17Z</time>
      </trkpt>
      <trkpt lat="45.84082" lon="1.21514">
        <ele>282</ele>
        <time>2024-10-21T10:17:18Z</time>
      </trkpt>
      <trkpt lat="45.84083" lon="1.21514">
        <ele>282.1</ele>
        <time>2024-10-21T10:17:19Z</time>
      </trkpt>
      <trkpt lat="45.84085" lon="1.21513">
        <ele>282.2</ele>
        <time>2024-10-21T10:17:20Z</time>
      </trkpt>
      <trkpt lat="45.84085" lon="1.21514">
        <ele>282.3</ele>
        <time>2024-10-21T10:17:21Z</time>
      </trkpt>
      <trkpt lat="45.84087" lon="1.21513">
        <ele>282.5</ele>
        <time>2024-10-21T10:17:22Z</time>
      </trkpt>
      <trkpt lat="45.84087" lon="1.21513">
        <ele>282.6</ele>
        <time>2024-10-21T10:17:23Z</time>
      </trkpt>
      <trkpt lat="45.84088" lon="1.21513">
        <ele>282.6</ele>
        <time>2024-10-21T10:17:24Z</time>
      </trkpt>
      <trkpt lat="45.84089" lon="1.21513">
        <ele>282.7</ele>
        <time>2024-10-21T10:17:25Z</time>
      </trkpt>
      <trkpt lat="45.8409" lon="1.21512">
        <ele>282.8</ele>
        <time>2024-10-21T10:17:26Z</time>
      </trkpt>
      <trkpt lat="45.84091" lon="1.21512">
        <ele>282.9</ele>
        <time>2024-10-21T10:17:27Z</time>
      </trkpt>
      <trkpt lat="45.84092" lon="1.21512">
        <ele>283</ele>
        <time>2024-10-21T10:17:28Z</time>
      </trkpt>
      <trkpt lat="45.84093" lon="1.21511">
        <ele>283.1</ele>
        <time>2024-10-21T10:17:29Z</time>
      </trkpt>
      <trkpt lat="45.84094" lon="1.21511">
        <ele>283.3</ele>
        <time>2024-10-21T10:17:30Z</time>
      </trkpt>
      <trkpt lat="45.84096" lon="1.21511">
        <ele>283.5</ele>
        <time>2024-10-21T10:17:31Z</time>
      </trkpt>
      <trkpt lat="45.84097" lon="1.21511">
        <ele>283.6</ele>
        <time>2024-10-21T10:17:33Z</time>
      </trkpt>
      <trkpt lat="45.84098" lon="1.21511">
        <ele>283.7</ele>
        <time>2024-10-21T10:17:34Z</time>
      </trkpt>
      <trkpt lat="45.84099" lon="1.2151">
        <ele>283.8</ele>
        <time>2024-10-21T10:17:35Z</time>
      </trkpt>
      <trkpt lat="45.841" lon="1.2151">
        <ele>283.9</ele>
        <time>2024-10-21T10:17:36Z</time>
      </trkpt>
      <trkpt lat="45.84101" lon="1.21509">
        <ele>284</ele>
        <time>2024-10-21T10:17:37Z</time>
      </trkpt>
      <trkpt lat="45.84102" lon="1.21509">
        <ele>284.2</ele>
        <time>2024-10-21T10:17:38Z</time>
      </trkpt>
      <trkpt lat="45.84103" lon="1.21509">
        <ele>284.3</ele>
        <time>2024-10-21T10:17:39Z</time>
      </trkpt>
      <trkpt lat="45.84104" lon="1.21508">
        <ele>284.4</ele>
        <time>2024-10-21T10:17:40Z</time>
      </trkpt>
      <trkpt lat="45.84105" lon="1.21508">
        <ele>284.5</ele>
        <time>2024-10-21T10:17:41Z</time>
      </trkpt>
      <trkpt lat="45.84106" lon="1.21508">
        <ele>284.6</ele>
        <time>2024-10-21T10:17:42Z</time>
      </trkpt>
      <trkpt lat="45.84107" lon="1.21508">
        <ele>284.7</ele>
        <time>2024-10-21T10:17:43Z</time>
      </trkpt>
      <trkpt lat="45.84109" lon="1.21507">
        <ele>284.9</ele>
        <time>2024-10-21T10:17:44Z</time>
      </trkpt>
      <trkpt lat="45.84109" lon="1.21507">
        <ele>284.9</ele>
        <time>2024-10-21T10:17:45Z</time>
      </trkpt>
      <trkpt lat="45.8411" lon="1.21508">
        <ele>285</ele>
        <time>2024-10-21T10:17:46Z</time>
      </trkpt>
      <trkpt lat="45.84111" lon="1.21508">
        <ele>285.1</ele>
        <time>2024-10-21T10:17:47Z</time>
      </trkpt>
      <trkpt lat="45.84112" lon="1.21509">
        <ele>285.1</ele>
        <time>2024-10-21T10:17:48Z</time>
      </trkpt>
      <trkpt lat="45.84113" lon="1.21509">
        <ele>285.2</ele>
        <time>2024-10-21T10:17:49Z</time>
      </trkpt>
      <trkpt lat="45.84114" lon="1.2151">
        <ele>285.3</ele>
        <time>2024-10-21T10:17:50Z</time>
      </trkpt>
      <trkpt lat="45.84115" lon="1.21512">
        <ele>285.5</ele>
        <time>2024-10-21T10:17:51Z</time>
      </trkpt>
      <trkpt lat="45.84116" lon="1.21515">
        <ele>285.7</ele>
        <time>2024-10-21T10:17:53Z</time>
      </trkpt>
      <trkpt lat="45.84116" lon="1.21516">
        <ele>285.8</ele>
        <time>2024-10-21T10:17:54Z</time>
      </trkpt>
      <trkpt lat="45.84116" lon="1.21518">
        <ele>285.8</ele>
        <time>2024-10-21T10:17:55Z</time>
      </trkpt>
      <trkpt lat="45.84116" lon="1.2152">
        <ele>286</ele>
        <time>2024-10-21T10:17:56Z</time>
      </trkpt>
      <trkpt lat="45.84115" lon="1.21521">
        <ele>286.1</ele>
        <time>2024-10-21T10:17:57Z</time>
      </trkpt>
      <trkpt lat="45.84115" lon="1.21522">
        <ele>286.1</ele>
        <time>2024-10-21T10:17:58Z</time>
      </trkpt>
      <trkpt lat="45.84114" lon="1.21524">
        <ele>286.2</ele>
        <time>2024-10-21T10:17:59Z</time>
      </trkpt>
      <trkpt lat="45.84113" lon="1.21526">
        <ele>286.3</ele>
        <time>2024-10-21T10:18:00Z</time>
      </trkpt>
      <trkpt lat="45.84112" lon="1.21527">
        <ele>286.4</ele>
        <time>2024-10-21T10:18:01Z</time>
      </trkpt>
      <trkpt lat="45.84112" lon="1.21528">
        <ele>286.5</ele>
        <time>2024-10-21T10:18:02Z</time>
      </trkpt>
      <trkpt lat="45.84111" lon="1.2153">
        <ele>286.6</ele>
        <time>2024-10-21T10:18:03Z</time>
      </trkpt>
      <trkpt lat="45.8411" lon="1.21531">
        <ele>286.7</ele>
        <time>2024-10-21T10:18:04Z</time>
      </trkpt>
      <trkpt lat="45.84109" lon="1.21532">
        <ele>286.7</ele>
        <time>2024-10-21T10:18:05Z</time>
      </trkpt>
      <trkpt lat="45.84108" lon="1.21534">
        <ele>286.8</ele>
        <time>2024-10-21T10:18:06Z</time>
      </trkpt>
      <trkpt lat="45.84108" lon="1.21535">
        <ele>286.9</ele>
        <time>2024-10-21T10:18:07Z</time>
      </trkpt>
      <trkpt lat="45.84107" lon="1.21536">
        <ele>286.9</ele>
        <time>2024-10-21T10:18:08Z</time>
      </trkpt>
      <trkpt lat="45.84106" lon="1.21537">
        <ele>287</ele>
        <time>2024-10-21T10:18:09Z</time>
      </trkpt>
      <trkpt lat="45.84105" lon="1.21539">
        <ele>287.1</ele>
        <time>2024-10-21T10:18:10Z</time>
      </trkpt>
      <trkpt lat="45.84104" lon="1.2154">
        <ele>287.2</ele>
        <time>2024-10-21T10:18:11Z</time>
      </trkpt>
      <trkpt lat="45.84104" lon="1.21541">
        <ele>287.2</ele>
        <time>2024-10-21T10:18:12Z</time>
      </trkpt>
      <trkpt lat="45.84103" lon="1.21543">
        <ele>287.3</ele>
        <time>2024-10-21T10:18:13Z</time>
      </trkpt>
      <trkpt lat="45.84102" lon="1.21547">
        <ele>287.5</ele>
        <time>2024-10-21T10:18:14Z</time>
      </trkpt>
      <trkpt lat="45.84102" lon="1.21547">
        <ele>287.5</ele>
        <time>2024-10-21T10:18:15Z</time>
      </trkpt>
      <trkpt lat="45.84101" lon="1.21548">
        <ele>287.5</ele>
        <time>2024-10-21T10:18:16Z</time>
      </trkpt>
      <trkpt lat="45.84101" lon="1.2155">
        <ele>287.6</ele>
        <time>2024-10-21T10:18:17Z</time>
      </trkpt>
      <trkpt lat="45.84101" lon="1.21551">
        <ele>287.6</ele>
        <time>2024-10-21T10:18:18Z</time>
      </trkpt>
      <trkpt lat="45.841" lon="1.21553">
        <ele>287.7</ele>
        <time>2024-10-21T10:18:19Z</time>
      </trkpt>
      <trkpt lat="45.841" lon="1.21555">
        <ele>287.8</ele>
        <time>2024-10-21T10:18:20Z</time>
      </trkpt>
      <trkpt lat="45.84099" lon="1.21556">
        <ele>287.8</ele>
        <time>2024-10-21T10:18:21Z</time>
      </trkpt>
      <trkpt lat="45.84099" lon="1.21556">
        <ele>287.9</ele>
        <time>2024-10-21T10:18:22Z</time>
      </trkpt>
      <trkpt lat="45.84098" lon="1.21557">
        <ele>287.9</ele>
        <time>2024-10-21T10:18:23Z</time>
      </trkpt>
      <trkpt lat="45.84097" lon="1.21557">
        <ele>288</ele>
        <time>2024-10-21T10:18:24Z</time>
      </trkpt>
      <trkpt lat="45.84096" lon="1.21558">
        <ele>288</ele>
        <time>2024-10-21T10:18:25Z</time>
      </trkpt>
      <trkpt lat="45.84096" lon="1.21558">
        <ele>288</ele>
        <time>2024-10-21T10:18:26Z</time>
      </trkpt>
      <trkpt lat="45.84096" lon="1.21559">
        <ele>288.1</ele>
        <time>2024-10-21T10:18:27Z</time>
      </trkpt>
      <trkpt lat="45.84095" lon="1.21561">
        <ele>288.1</ele>
        <time>2024-10-21T10:18:28Z</time>
      </trkpt>
      <trkpt lat="45.84095" lon="1.21562">
        <ele>288.2</ele>
        <time>2024-10-21T10:18:29Z</time>
      </trkpt>
      <trkpt lat="45.84095" lon="1.21564">
        <ele>288.2</ele>
        <time>2024-10-21T10:18:30Z</time>
      </trkpt>
      <trkpt lat="45.84095" lon="1.21565">
        <ele>288.3</ele>
        <time>2024-10-21T10:18:31Z</time>
      </trkpt>
      <trkpt lat="45.84095" lon="1.21567">
        <ele>288.3</ele>
        <time>2024-10-21T10:18:32Z</time>
      </trkpt>
      <trkpt lat="45.84095" lon="1.21568">
        <ele>288.4</ele>
        <time>2024-10-21T10:18:33Z</time>
      </trkpt>
      <trkpt lat="45.84095" lon="1.2157">
        <ele>288.4</ele>
        <time>2024-10-21T10:18:34Z</time>
      </trkpt>
      <trkpt lat="45.84095" lon="1.21571">
        <ele>288.5</ele>
        <time>2024-10-21T10:18:35Z</time>
      </trkpt>
      <trkpt lat="45.84096" lon="1.21573">
        <ele>288.6</ele>
        <time>2024-10-21T10:18:36Z</time>
      </trkpt>
      <trkpt lat="45.84096" lon="1.21574">
        <ele>288.6</ele>
        <time>2024-10-21T10:18:37Z</time>
      </trkpt>
      <trkpt lat="45.84097" lon="1.21575">
        <ele>288.6</ele>
        <time>2024-10-21T10:18:38Z</time>
      </trkpt>
      <trkpt lat="45.84098" lon="1.21577">
        <ele>288.7</ele>
        <time>2024-10-21T10:18:39Z</time>
      </trkpt>
      <trkpt lat="45.84099" lon="1.21579">
        <ele>288.8</ele>
        <time>2024-10-21T10:18:40Z</time>
      </trkpt>
      <trkpt lat="45.84101" lon="1.2158">
        <ele>288.9</ele>
        <time>2024-10-21T10:18:41Z</time>
      </trkpt>
      <trkpt lat="45.84102" lon="1.21581">
        <ele>288.9</ele>
        <time>2024-10-21T10:18:42Z</time>
      </trkpt>
      <trkpt lat="45.84102" lon="1.21582">
        <ele>289</ele>
        <time>2024-10-21T10:18:43Z</time>
      </trkpt>
      <trkpt lat="45.84104" lon="1.21582">
        <ele>289</ele>
        <time>2024-10-21T10:18:44Z</time>
      </trkpt>
      <trkpt lat="45.84105" lon="1.21583">
        <ele>289.1</ele>
        <time>2024-10-21T10:18:45Z</time>
      </trkpt>
      <trkpt lat="45.84106" lon="1.21584">
        <ele>289.1</ele>
        <time>2024-10-21T10:18:46Z</time>
      </trkpt>
      <trkpt lat="45.84108" lon="1.21585">
        <ele>289.2</ele>
        <time>2024-10-21T10:18:47Z</time>
      </trkpt>
      <trkpt lat="45.8411" lon="1.21585">
        <ele>289.3</ele>
        <time>2024-10-21T10:18:49Z</time>
      </trkpt>
      <trkpt lat="45.84111" lon="1.21586">
        <ele>289.4</ele>
        <time>2024-10-21T10:18:50Z</time>
      </trkpt>
      <trkpt lat="45.84112" lon="1.21586">
        <ele>289.4</ele>
        <time>2024-10-21T10:18:51Z</time>
      </trkpt>
      <trkpt lat="45.84113" lon="1.21587">
        <ele>289.4</ele>
        <time>2024-10-21T10:18:52Z</time>
      </trkpt>
      <trkpt lat="45.84114" lon="1.21588">
        <ele>289.5</ele>
        <time>2024-10-21T10:18:53Z</time>
      </trkpt>
      <trkpt lat="45.84115" lon="1.21589">
        <ele>289.6</ele>
        <time>2024-10-21T10:18:54Z</time>
      </trkpt>
      <trkpt lat="45.84117" lon="1.21589">
        <ele>289.6</ele>
        <time>2024-10-21T10:18:55Z</time>
      </trkpt>
      <trkpt lat="45.84118" lon="1.2159">
        <ele>289.7</ele>
        <time>2024-10-21T10:18:56Z</time>
      </trkpt>
      <trkpt lat="45.84119" lon="1.2159">
        <ele>289.7</ele>
        <time>2024-10-21T10:18:57Z</time>
      </trkpt>
      <trkpt lat="45.84121" lon="1.21592">
        <ele>289.8</ele>
        <time>2024-10-21T10:18:58Z</time>
      </trkpt>
      <trkpt lat="45.84121" lon="1.21592">
        <ele>289.8</ele>
        <time>2024-10-21T10:18:59Z</time>
      </trkpt>
      <trkpt lat="45.8412" lon="1.21594">
        <ele>289.9</ele>
        <time>2024-10-21T10:19:00Z</time>
      </trkpt>
      <trkpt lat="45.8412" lon="1.21595">
        <ele>289.9</ele>
        <time>2024-10-21T10:19:01Z</time>
      </trkpt>
      <trkpt lat="45.84122" lon="1.21597">
        <ele>290</ele>
        <time>2024-10-21T10:19:02Z</time>
      </trkpt>
      <trkpt lat="45.84122" lon="1.21597">
        <ele>290</ele>
        <time>2024-10-21T10:19:03Z</time>
      </trkpt>
      <trkpt lat="45.84123" lon="1.21598">
        <ele>290.1</ele>
        <time>2024-10-21T10:19:04Z</time>
      </trkpt>
      <trkpt lat="45.84125" lon="1.21599">
        <ele>290.2</ele>
        <time>2024-10-21T10:19:05Z</time>
      </trkpt>
      <trkpt lat="45.84126" lon="1.21599">
        <ele>290.2</ele>
        <time>2024-10-21T10:19:06Z</time>
      </trkpt>
      <trkpt lat="45.84127" lon="1.21601">
        <ele>290.3</ele>
        <time>2024-10-21T10:19:07Z</time>
      </trkpt>
      <trkpt lat="45.84128" lon="1.21601">
        <ele>290.3</ele>
        <time>2024-10-21T10:19:08Z</time>
      </trkpt>
      <trkpt lat="45.84129" lon="1.21602">
        <ele>290.3</ele>
        <time>2024-10-21T10:19:09Z</time>
      </trkpt>
      <trkpt lat="45.84131" lon="1.21603">
        <ele>290.4</ele>
        <time>2024-10-21T10:19:10Z</time>
      </trkpt>
      <trkpt lat="45.84132" lon="1.21603">
        <ele>290.5</ele>
        <time>2024-10-21T10:19:11Z</time>
      </trkpt>
      <trkpt lat="45.84133" lon="1.21604">
        <ele>290.5</ele>
        <time>2024-10-21T10:19:12Z</time>
      </trkpt>
      <trkpt lat="45.84134" lon="1.21604">
        <ele>290.6</ele>
        <time>2024-10-21T10:19:13Z</time>
      </trkpt>
      <trkpt lat="45.84137" lon="1.21605">
        <ele>290.7</ele>
        <time>2024-10-21T10:19:14Z</time>
      </trkpt>
      <trkpt lat="45.84138" lon="1.21606">
        <ele>290.7</ele>
        <time>2024-10-21T10:19:15Z</time>
      </trkpt>
      <trkpt lat="45.84138" lon="1.21606">
        <ele>290.7</ele>
        <time>2024-10-21T10:19:16Z</time>
      </trkpt>
      <trkpt lat="45.8414" lon="1.21606">
        <ele>290.8</ele>
        <time>2024-10-21T10:19:17Z</time>
      </trkpt>
      <trkpt lat="45.84141" lon="1.21607">
        <ele>290.9</ele>
        <time>2024-10-21T10:19:18Z</time>
      </trkpt>
      <trkpt lat="45.84142" lon="1.21607">
        <ele>290.9</ele>
        <time>2024-10-21T10:19:19Z</time>
      </trkpt>
      <trkpt lat="45.84144" lon="1.21608">
        <ele>291</ele>
        <time>2024-10-21T10:19:20Z</time>
      </trkpt>
      <trkpt lat="45.84144" lon="1.21608">
        <ele>291</ele>
        <time>2024-10-21T10:19:21Z</time>
      </trkpt>
      <trkpt lat="45.84145" lon="1.21609">
        <ele>291.1</ele>
        <time>2024-10-21T10:19:22Z</time>
      </trkpt>
      <trkpt lat="45.84146" lon="1.2161">
        <ele>291.1</ele>
        <time>2024-10-21T10:19:23Z</time>
      </trkpt>
      <trkpt lat="45.84147" lon="1.2161">
        <ele>291.2</ele>
        <time>2024-10-21T10:19:24Z</time>
      </trkpt>
      <trkpt lat="45.84149" lon="1.2161">
        <ele>291.2</ele>
        <time>2024-10-21T10:19:25Z</time>
      </trkpt>
      <trkpt lat="45.84151" lon="1.21611">
        <ele>291.3</ele>
        <time>2024-10-21T10:19:26Z</time>
      </trkpt>
      <trkpt lat="45.84151" lon="1.21611">
        <ele>291.4</ele>
        <time>2024-10-21T10:19:27Z</time>
      </trkpt>
      <trkpt lat="45.84152" lon="1.21612">
        <ele>291.4</ele>
        <time>2024-10-21T10:19:28Z</time>
      </trkpt>
      <trkpt lat="45.84154" lon="1.21612">
        <ele>291.5</ele>
        <time>2024-10-21T10:19:29Z</time>
      </trkpt>
      <trkpt lat="45.84155" lon="1.21613">
        <ele>291.5</ele>
        <time>2024-10-21T10:19:30Z</time>
      </trkpt>
      <trkpt lat="45.84156" lon="1.21613">
        <ele>291.6</ele>
        <time>2024-10-21T10:19:31Z</time>
      </trkpt>
      <trkpt lat="45.84157" lon="1.21613">
        <ele>291.6</ele>
        <time>2024-10-21T10:19:32Z</time>
      </trkpt>
      <trkpt lat="45.84158" lon="1.21613">
        <ele>291.7</ele>
        <time>2024-10-21T10:19:33Z</time>
      </trkpt>
      <trkpt lat="45.84159" lon="1.21614">
        <ele>291.7</ele>
        <time>2024-10-21T10:19:34Z</time>
      </trkpt>
      <trkpt lat="45.8416" lon="1.21614">
        <ele>291.8</ele>
        <time>2024-10-21T10:19:35Z</time>
      </trkpt>
      <trkpt lat="45.84161" lon="1.21614">
        <ele>291.8</ele>
        <time>2024-10-21T10:19:36Z</time>
      </trkpt>
      <trkpt lat="45.84162" lon="1.21614">
        <ele>291.9</ele>
        <time>2024-10-21T10:19:37Z</time>
      </trkpt>
      <trkpt lat="45.84162" lon="1.21613">
        <ele>291.9</ele>
        <time>2024-10-21T10:19:38Z</time>
      </trkpt>
      <trkpt lat="45.84162" lon="1.21614">
        <ele>291.9</ele>
        <time>2024-10-21T10:19:39Z</time>
      </trkpt>
      <trkpt lat="45.84162" lon="1.21614">
        <ele>291.9</ele>
        <time>2024-10-21T10:19:40Z</time>
      </trkpt>
      <trkpt lat="45.84163" lon="1.21615">
        <ele>291.9</ele>
        <time>2024-10-21T10:19:41Z</time>
      </trkpt>
      <trkpt lat="45.84165" lon="1.21616">
        <ele>292</ele>
        <time>2024-10-21T10:19:42Z</time>
      </trkpt>
      <trkpt lat="45.84166" lon="1.21616">
        <ele>292.1</ele>
        <time>2024-10-21T10:19:43Z</time>
      </trkpt>
      <trkpt lat="45.84167" lon="1.21617">
        <ele>292.2</ele>
        <time>2024-10-21T10:19:44Z</time>
      </trkpt>
      <trkpt lat="45.84168" lon="1.21618">
        <ele>292.2</ele>
        <time>2024-10-21T10:19:45Z</time>
      </trkpt>
      <trkpt lat="45.8417" lon="1.21619">
        <ele>292.3</ele>
        <time>2024-10-21T10:19:46Z</time>
      </trkpt>
      <trkpt lat="45.84171" lon="1.2162">
        <ele>292.3</ele>
        <time>2024-10-21T10:19:47Z</time>
      </trkpt>
      <trkpt lat="45.84172" lon="1.21621">
        <ele>292.4</ele>
        <time>2024-10-21T10:19:48Z</time>
      </trkpt>
      <trkpt lat="45.84173" lon="1.21621">
        <ele>292.4</ele>
        <time>2024-10-21T10:19:49Z</time>
      </trkpt>
      <trkpt lat="45.84174" lon="1.21622">
        <ele>292.5</ele>
        <time>2024-10-21T10:19:50Z</time>
      </trkpt>
      <trkpt lat="45.84176" lon="1.21622">
        <ele>292.5</ele>
        <time>2024-10-21T10:19:51Z</time>
      </trkpt>
      <trkpt lat="45.84177" lon="1.21622">
        <ele>292.6</ele>
        <time>2024-10-21T10:19:52Z</time>
      </trkpt>
      <trkpt lat="45.84178" lon="1.21623">
        <ele>292.6</ele>
        <time>2024-10-21T10:19:53Z</time>
      </trkpt>
      <trkpt lat="45.84181" lon="1.21623">
        <ele>292.7</ele>
        <time>2024-10-21T10:19:54Z</time>
      </trkpt>
      <trkpt lat="45.84181" lon="1.21623">
        <ele>292.7</ele>
        <time>2024-10-21T10:19:55Z</time>
      </trkpt>
      <trkpt lat="45.84182" lon="1.21624">
        <ele>292.8</ele>
        <time>2024-10-21T10:19:56Z</time>
      </trkpt>
      <trkpt lat="45.84183" lon="1.21624">
        <ele>292.9</ele>
        <time>2024-10-21T10:19:57Z</time>
      </trkpt>
      <trkpt lat="45.84185" lon="1.21625">
        <ele>292.9</ele>
        <time>2024-10-21T10:19:58Z</time>
      </trkpt>
      <trkpt lat="45.84186" lon="1.21625">
        <ele>293</ele>
        <time>2024-10-21T10:19:59Z</time>
      </trkpt>
      <trkpt lat="45.84187" lon="1.21626">
        <ele>293</ele>
        <time>2024-10-21T10:20:00Z</time>
      </trkpt>
      <trkpt lat="45.84189" lon="1.21627">
        <ele>293.1</ele>
        <time>2024-10-21T10:20:01Z</time>
      </trkpt>
      <trkpt lat="45.84191" lon="1.21627">
        <ele>293.2</ele>
        <time>2024-10-21T10:20:02Z</time>
      </trkpt>
      <trkpt lat="45.84192" lon="1.21628">
        <ele>293.2</ele>
        <time>2024-10-21T10:20:03Z</time>
      </trkpt>
      <trkpt lat="45.84193" lon="1.21628">
        <ele>293.3</ele>
        <time>2024-10-21T10:20:04Z</time>
      </trkpt>
      <trkpt lat="45.84193" lon="1.21628">
        <ele>293.3</ele>
        <time>2024-10-21T10:20:05Z</time>
      </trkpt>
      <trkpt lat="45.84195" lon="1.21629">
        <ele>293.3</ele>
        <time>2024-10-21T10:20:06Z</time>
      </trkpt>
      <trkpt lat="45.84196" lon="1.2163">
        <ele>293.4</ele>
        <time>2024-10-21T10:20:07Z</time>
      </trkpt>
      <trkpt lat="45.84197" lon="1.21631">
        <ele>293.4</ele>
        <time>2024-10-21T10:20:08Z</time>
      </trkpt>
      <trkpt lat="45.84199" lon="1.21631">
        <ele>293.5</ele>
        <time>2024-10-21T10:20:09Z</time>
      </trkpt>
      <trkpt lat="45.84201" lon="1.21632">
        <ele>293.6</ele>
        <time>2024-10-21T10:20:11Z</time>
      </trkpt>
      <trkpt lat="45.84202" lon="1.21632">
        <ele>293.6</ele>
        <time>2024-10-21T10:20:12Z</time>
      </trkpt>
      <trkpt lat="45.84204" lon="1.21633">
        <ele>293.7</ele>
        <time>2024-10-21T10:20:13Z</time>
      </trkpt>
      <trkpt lat="45.84205" lon="1.21634">
        <ele>293.7</ele>
        <time>2024-10-21T10:20:14Z</time>
      </trkpt>
      <trkpt lat="45.84205" lon="1.21634">
        <ele>293.8</ele>
        <time>2024-10-21T10:20:15Z</time>
      </trkpt>
      <trkpt lat="45.84208" lon="1.21635">
        <ele>293.8</ele>
        <time>2024-10-21T10:20:16Z</time>
      </trkpt>
      <trkpt lat="45.84208" lon="1.21635">
        <ele>293.9</ele>
        <time>2024-10-21T10:20:17Z</time>
      </trkpt>
      <trkpt lat="45.84209" lon="1.21636">
        <ele>293.9</ele>
        <time>2024-10-21T10:20:18Z</time>
      </trkpt>
      <trkpt lat="45.84211" lon="1.21637">
        <ele>294</ele>
        <time>2024-10-21T10:20:19Z</time>
      </trkpt>
      <trkpt lat="45.84212" lon="1.21637">
        <ele>294</ele>
        <time>2024-10-21T10:20:20Z</time>
      </trkpt>
      <trkpt lat="45.84213" lon="1.21637">
        <ele>294</ele>
        <time>2024-10-21T10:20:21Z</time>
      </trkpt>
      <trkpt lat="45.84216" lon="1.21639">
        <ele>294.1</ele>
        <time>2024-10-21T10:20:22Z</time>
      </trkpt>
      <trkpt lat="45.84217" lon="1.21639">
        <ele>294.1</ele>
        <time>2024-10-21T10:20:23Z</time>
      </trkpt>
      <trkpt lat="45.84217" lon="1.21639">
        <ele>294.2</ele>
        <time>2024-10-21T10:20:24Z</time>
      </trkpt>
      <trkpt lat="45.84218" lon="1.2164">
        <ele>294.2</ele>
        <time>2024-10-21T10:20:25Z</time>
      </trkpt>
      <trkpt lat="45.84219" lon="1.21641">
        <ele>294.2</ele>
        <time>2024-10-21T10:20:26Z</time>
      </trkpt>
      <trkpt lat="45.84221" lon="1.21642">
        <ele>294.3</ele>
        <time>2024-10-21T10:20:27Z</time>
      </trkpt>
      <trkpt lat="45.84222" lon="1.21643">
        <ele>294.3</ele>
        <time>2024-10-21T10:20:28Z</time>
      </trkpt>
      <trkpt lat="45.84223" lon="1.21643">
        <ele>294.4</ele>
        <time>2024-10-21T10:20:29Z</time>
      </trkpt>
      <trkpt lat="45.84225" lon="1.21644">
        <ele>294.4</ele>
        <time>2024-10-21T10:20:30Z</time>
      </trkpt>
      <trkpt lat="45.84226" lon="1.21645">
        <ele>294.4</ele>
        <time>2024-10-21T10:20:31Z</time>
      </trkpt>
      <trkpt lat="45.84227" lon="1.21645">
        <ele>294.5</ele>
        <time>2024-10-21T10:20:32Z</time>
      </trkpt>
      <trkpt lat="45.84229" lon="1.21646">
        <ele>294.5</ele>
        <time>2024-10-21T10:20:33Z</time>
      </trkpt>
      <trkpt lat="45.8423" lon="1.21647">
        <ele>294.6</ele>
        <time>2024-10-21T10:20:34Z</time>
      </trkpt>
      <trkpt lat="45.84233" lon="1.21648">
        <ele>294.6</ele>
        <time>2024-10-21T10:20:35Z</time>
      </trkpt>
      <trkpt lat="45.84233" lon="1.21648">
        <ele>294.6</ele>
        <time>2024-10-21T10:20:36Z</time>
      </trkpt>
      <trkpt lat="45.84234" lon="1.21649">
        <ele>294.7</ele>
        <time>2024-10-21T10:20:37Z</time>
      </trkpt>
      <trkpt lat="45.84235" lon="1.2165">
        <ele>294.7</ele>
        <time>2024-10-21T10:20:38Z</time>
      </trkpt>
      <trkpt lat="45.84237" lon="1.21651">
        <ele>294.8</ele>
        <time>2024-10-21T10:20:39Z</time>
      </trkpt>
      <trkpt lat="45.84238" lon="1.21651">
        <ele>294.8</ele>
        <time>2024-10-21T10:20:40Z</time>
      </trkpt>
      <trkpt lat="45.8424" lon="1.21652">
        <ele>294.8</ele>
        <time>2024-10-21T10:20:41Z</time>
      </trkpt>
      <trkpt lat="45.84241" lon="1.21653">
        <ele>294.9</ele>
        <time>2024-10-21T10:20:42Z</time>
      </trkpt>
      <trkpt lat="45.84242" lon="1.21653">
        <ele>294.9</ele>
        <time>2024-10-21T10:20:43Z</time>
      </trkpt>
      <trkpt lat="45.84245" lon="1.21654">
        <ele>295</ele>
        <time>2024-10-21T10:20:44Z</time>
      </trkpt>
      <trkpt lat="45.84247" lon="1.21656">
        <ele>295.1</ele>
        <time>2024-10-21T10:20:46Z</time>
      </trkpt>
      <trkpt lat="45.84248" lon="1.21656">
        <ele>295.1</ele>
        <time>2024-10-21T10:20:47Z</time>
      </trkpt>
      <trkpt lat="45.84249" lon="1.21656">
        <ele>295.2</ele>
        <time>2024-10-21T10:20:48Z</time>
      </trkpt>
      <trkpt lat="45.8425" lon="1.21657">
        <ele>295.2</ele>
        <time>2024-10-21T10:20:49Z</time>
      </trkpt>
      <trkpt lat="45.84251" lon="1.21658">
        <ele>295.2</ele>
        <time>2024-10-21T10:20:50Z</time>
      </trkpt>
      <trkpt lat="45.84253" lon="1.21658">
        <ele>295.3</ele>
        <time>2024-10-21T10:20:51Z</time>
      </trkpt>
      <trkpt lat="45.84254" lon="1.21659">
        <ele>295.3</ele>
        <time>2024-10-21T10:20:52Z</time>
      </trkpt>
      <trkpt lat="45.84255" lon="1.21659">
        <ele>295.4</ele>
        <time>2024-10-21T10:20:53Z</time>
      </trkpt>
      <trkpt lat="45.84256" lon="1.2166">
        <ele>295.4</ele>
        <time>2024-10-21T10:20:54Z</time>
      </trkpt>
      <trkpt lat="45.84258" lon="1.21661">
        <ele>295.5</ele>
        <time>2024-10-21T10:20:55Z</time>
      </trkpt>
      <trkpt lat="45.84259" lon="1.21662">
        <ele>295.5</ele>
        <time>2024-10-21T10:20:56Z</time>
      </trkpt>
      <trkpt lat="45.8426" lon="1.21662">
        <ele>295.6</ele>
        <time>2024-10-21T10:20:57Z</time>
      </trkpt>
      <trkpt lat="45.84262" lon="1.21663">
        <ele>295.6</ele>
        <time>2024-10-21T10:20:58Z</time>
      </trkpt>
      <trkpt lat="45.84263" lon="1.21664">
        <ele>295.7</ele>
        <time>2024-10-21T10:20:59Z</time>
      </trkpt>
      <trkpt lat="45.84264" lon="1.21664">
        <ele>295.7</ele>
        <time>2024-10-21T10:21:00Z</time>
      </trkpt>
      <trkpt lat="45.84265" lon="1.21665">
        <ele>295.7</ele>
        <time>2024-10-21T10:21:01Z</time>
      </trkpt>
      <trkpt lat="45.84266" lon="1.21665">
        <ele>295.8</ele>
        <time>2024-10-21T10:21:02Z</time>
      </trkpt>
      <trkpt lat="45.84267" lon="1.21666">
        <ele>295.8</ele>
        <time>2024-10-21T10:21:03Z</time>
      </trkpt>
      <trkpt lat="45.84269" lon="1.21667">
        <ele>295.9</ele>
        <time>2024-10-21T10:21:04Z</time>
      </trkpt>
      <trkpt lat="45.8427" lon="1.21667">
        <ele>295.9</ele>
        <time>2024-10-21T10:21:05Z</time>
      </trkpt>
      <trkpt lat="45.84271" lon="1.21668">
        <ele>296</ele>
        <time>2024-10-21T10:21:06Z</time>
      </trkpt>
      <trkpt lat="45.84273" lon="1.21669">
        <ele>296.1</ele>
        <time>2024-10-21T10:21:07Z</time>
      </trkpt>
      <trkpt lat="45.84273" lon="1.21669">
        <ele>296.1</ele>
        <time>2024-10-21T10:21:08Z</time>
      </trkpt>
      <trkpt lat="45.84274" lon="1.2167">
        <ele>296.1</ele>
        <time>2024-10-21T10:21:09Z</time>
      </trkpt>
      <trkpt lat="45.84275" lon="1.21671">
        <ele>296.2</ele>
        <time>2024-10-21T10:21:10Z</time>
      </trkpt>
      <trkpt lat="45.84277" lon="1.21672">
        <ele>296.2</ele>
        <time>2024-10-21T10:21:11Z</time>
      </trkpt>
      <trkpt lat="45.84278" lon="1.21673">
        <ele>296.3</ele>
        <time>2024-10-21T10:21:12Z</time>
      </trkpt>
      <trkpt lat="45.84279" lon="1.21674">
        <ele>296.4</ele>
        <time>2024-10-21T10:21:13Z</time>
      </trkpt>
      <trkpt lat="45.8428" lon="1.21674">
        <ele>296.4</ele>
        <time>2024-10-21T10:21:14Z</time>
      </trkpt>
      <trkpt lat="45.84281" lon="1.21676">
        <ele>296.5</ele>
        <time>2024-10-21T10:21:15Z</time>
      </trkpt>
      <trkpt lat="45.84282" lon="1.21677">
        <ele>296.5</ele>
        <time>2024-10-21T10:21:16Z</time>
      </trkpt>
      <trkpt lat="45.84283" lon="1.21678">
        <ele>296.6</ele>
        <time>2024-10-21T10:21:17Z</time>
      </trkpt>
      <trkpt lat="45.84284" lon="1.2168">
        <ele>296.7</ele>
        <time>2024-10-21T10:21:18Z</time>
      </trkpt>
      <trkpt lat="45.84285" lon="1.21681">
        <ele>296.7</ele>
        <time>2024-10-21T10:21:19Z</time>
      </trkpt>
      <trkpt lat="45.84286" lon="1.21681">
        <ele>296.7</ele>
        <time>2024-10-21T10:21:20Z</time>
      </trkpt>
      <trkpt lat="45.84287" lon="1.21684">
        <ele>296.8</ele>
        <time>2024-10-21T10:21:21Z</time>
      </trkpt>
      <trkpt lat="45.84288" lon="1.21685">
        <ele>296.9</ele>
        <time>2024-10-21T10:21:22Z</time>
      </trkpt>
      <trkpt lat="45.84288" lon="1.21685">
        <ele>296.9</ele>
        <time>2024-10-21T10:21:23Z</time>
      </trkpt>
      <trkpt lat="45.84289" lon="1.21687">
        <ele>297</ele>
        <time>2024-10-21T10:21:24Z</time>
      </trkpt>
      <trkpt lat="45.8429" lon="1.21689">
        <ele>297</ele>
        <time>2024-10-21T10:21:25Z</time>
      </trkpt>
      <trkpt lat="45.84291" lon="1.21692">
        <ele>297.2</ele>
        <time>2024-10-21T10:21:26Z</time>
      </trkpt>
      <trkpt lat="45.84291" lon="1.21694">
        <ele>297.2</ele>
        <time>2024-10-21T10:21:28Z</time>
      </trkpt>
      <trkpt lat="45.84292" lon="1.21696">
        <ele>297.3</ele>
        <time>2024-10-21T10:21:29Z</time>
      </trkpt>
      <trkpt lat="45.84292" lon="1.21698">
        <ele>297.4</ele>
        <time>2024-10-21T10:21:30Z</time>
      </trkpt>
      <trkpt lat="45.84293" lon="1.21702">
        <ele>297.5</ele>
        <time>2024-10-21T10:21:31Z</time>
      </trkpt>
      <trkpt lat="45.84293" lon="1.21702">
        <ele>297.5</ele>
        <time>2024-10-21T10:21:32Z</time>
      </trkpt>
      <trkpt lat="45.84293" lon="1.21704">
        <ele>297.6</ele>
        <time>2024-10-21T10:21:33Z</time>
      </trkpt>
      <trkpt lat="45.84294" lon="1.21706">
        <ele>297.7</ele>
        <time>2024-10-21T10:21:34Z</time>
      </trkpt>
      <trkpt lat="45.84294" lon="1.21708">
        <ele>297.7</ele>
        <time>2024-10-21T10:21:35Z</time>
      </trkpt>
      <trkpt lat="45.84295" lon="1.2171">
        <ele>297.8</ele>
        <time>2024-10-21T10:21:36Z</time>
      </trkpt>
      <trkpt lat="45.84295" lon="1.21711">
        <ele>297.9</ele>
        <time>2024-10-21T10:21:37Z</time>
      </trkpt>
      <trkpt lat="45.84295" lon="1.21713">
        <ele>297.9</ele>
        <time>2024-10-21T10:21:38Z</time>
      </trkpt>
      <trkpt lat="45.84296" lon="1.21716">
        <ele>298.1</ele>
        <time>2024-10-21T10:21:39Z</time>
      </trkpt>
      <trkpt lat="45.84296" lon="1.21716">
        <ele>298.1</ele>
        <time>2024-10-21T10:21:40Z</time>
      </trkpt>
      <trkpt lat="45.84296" lon="1.21718">
        <ele>298.1</ele>
        <time>2024-10-21T10:21:41Z</time>
      </trkpt>
      <trkpt lat="45.84297" lon="1.2172">
        <ele>298.2</ele>
        <time>2024-10-21T10:21:42Z</time>
      </trkpt>
      <trkpt lat="45.84297" lon="1.21721">
        <ele>298.3</ele>
        <time>2024-10-21T10:21:43Z</time>
      </trkpt>
      <trkpt lat="45.84297" lon="1.21723">
        <ele>298.3</ele>
        <time>2024-10-21T10:21:44Z</time>
      </trkpt>
      <trkpt lat="45.84298" lon="1.21724">
        <ele>298.4</ele>
        <time>2024-10-21T10:21:45Z</time>
      </trkpt>
      <trkpt lat="45.84299" lon="1.21725">
        <ele>298.5</ele>
        <time>2024-10-21T10:21:46Z</time>
      </trkpt>
      <trkpt lat="45.84299" lon="1.21725">
        <ele>298.5</ele>
        <time>2024-10-21T10:21:47Z</time>
      </trkpt>
      <trkpt lat="45.84299" lon="1.21724">
        <ele>298.5</ele>
        <time>2024-10-21T10:21:48Z</time>
      </trkpt>
      <trkpt lat="45.84299" lon="1.21724">
        <ele>298.5</ele>
        <time>2024-10-21T10:21:49Z</time>
      </trkpt>
      <trkpt lat="45.84299" lon="1.21724">
        <ele>298.5</ele>
        <time>2024-10-21T10:21:50Z</time>
      </trkpt>
      <trkpt lat="45.84299" lon="1.21724">
        <ele>298.5</ele>
        <time>2024-10-21T10:21:51Z</time>
      </trkpt>
      <trkpt lat="45.84299" lon="1.21724">
        <ele>298.5</ele>
        <time>2024-10-21T10:21:52Z</time>
      </trkpt>
      <trkpt lat="45.84299" lon="1.21724">
        <ele>298.5</ele>
        <time>2024-10-21T10:21:53Z</time>
      </trkpt>
      <trkpt lat="45.84299" lon="1.21724">
        <ele>298.5</ele>
        <time>2024-10-21T10:21:54Z</time>
      </trkpt>
      <trkpt lat="45.84299" lon="1.21724">
        <ele>298.6</ele>
        <time>2024-10-21T10:21:55Z</time>
      </trkpt>
      <trkpt lat="45.843" lon="1.21725">
        <ele>298.6</ele>
        <time>2024-10-21T10:21:56Z</time>
      </trkpt>
      <trkpt lat="45.843" lon="1.21725">
        <ele>298.6</ele>
        <time>2024-10-21T10:21:57Z</time>
      </trkpt>
      <trkpt lat="45.84301" lon="1.21727">
        <ele>298.7</ele>
        <time>2024-10-21T10:21:58Z</time>
      </trkpt>
      <trkpt lat="45.84302" lon="1.21728">
        <ele>298.8</ele>
        <time>2024-10-21T10:21:59Z</time>
      </trkpt>
      <trkpt lat="45.84303" lon="1.21729">
        <ele>298.8</ele>
        <time>2024-10-21T10:22:00Z</time>
      </trkpt>
      <trkpt lat="45.84305" lon="1.2173">
        <ele>298.9</ele>
        <time>2024-10-21T10:22:01Z</time>
      </trkpt>
      <trkpt lat="45.84306" lon="1.21731">
        <ele>299</ele>
        <time>2024-10-21T10:22:02Z</time>
      </trkpt>
      <trkpt lat="45.84307" lon="1.21732">
        <ele>299</ele>
        <time>2024-10-21T10:22:03Z</time>
      </trkpt>
      <trkpt lat="45.84309" lon="1.21734">
        <ele>299.1</ele>
        <time>2024-10-21T10:22:04Z</time>
      </trkpt>
      <trkpt lat="45.8431" lon="1.21734">
        <ele>299.1</ele>
        <time>2024-10-21T10:22:05Z</time>
      </trkpt>
      <trkpt lat="45.84311" lon="1.21734">
        <ele>299.2</ele>
        <time>2024-10-21T10:22:06Z</time>
      </trkpt>
      <trkpt lat="45.84312" lon="1.21734">
        <ele>299.2</ele>
        <time>2024-10-21T10:22:07Z</time>
      </trkpt>
      <trkpt lat="45.84313" lon="1.21735">
        <ele>299.2</ele>
        <time>2024-10-21T10:22:08Z</time>
      </trkpt>
      <trkpt lat="45.84314" lon="1.21735">
        <ele>299.3</ele>
        <time>2024-10-21T10:22:09Z</time>
      </trkpt>
      <trkpt lat="45.84315" lon="1.21735">
        <ele>299.3</ele>
        <time>2024-10-21T10:22:10Z</time>
      </trkpt>
      <trkpt lat="45.84316" lon="1.21736">
        <ele>299.3</ele>
        <time>2024-10-21T10:22:11Z</time>
      </trkpt>
      <trkpt lat="45.84317" lon="1.21736">
        <ele>299.4</ele>
        <time>2024-10-21T10:22:12Z</time>
      </trkpt>
      <trkpt lat="45.84318" lon="1.21736">
        <ele>299.4</ele>
        <time>2024-10-21T10:22:13Z</time>
      </trkpt>
      <trkpt lat="45.84319" lon="1.21735">
        <ele>299.5</ele>
        <time>2024-10-21T10:22:14Z</time>
      </trkpt>
      <trkpt lat="45.8432" lon="1.21735">
        <ele>299.5</ele>
        <time>2024-10-21T10:22:15Z</time>
      </trkpt>
      <trkpt lat="45.84322" lon="1.21734">
        <ele>299.6</ele>
        <time>2024-10-21T10:22:16Z</time>
      </trkpt>
      <trkpt lat="45.84323" lon="1.21733">
        <ele>299.6</ele>
        <time>2024-10-21T10:22:17Z</time>
      </trkpt>
      <trkpt lat="45.84323" lon="1.21732">
        <ele>299.6</ele>
        <time>2024-10-21T10:22:18Z</time>
      </trkpt>
      <trkpt lat="45.84322" lon="1.21731">
        <ele>299.6</ele>
        <time>2024-10-21T10:22:19Z</time>
      </trkpt>
      <trkpt lat="45.84322" lon="1.21731">
        <ele>299.6</ele>
        <time>2024-10-21T10:22:20Z</time>
      </trkpt>
      <trkpt lat="45.84322" lon="1.21731">
        <ele>299.6</ele>
        <time>2024-10-21T10:22:21Z</time>
      </trkpt>
      <trkpt lat="45.84322" lon="1.21731">
        <ele>299.6</ele>
        <time>2024-10-21T10:22:22Z</time>
      </trkpt>
      <trkpt lat="45.84322" lon="1.2173">
        <ele>299.6</ele>
        <time>2024-10-21T10:22:23Z</time>
      </trkpt>
      <trkpt lat="45.84322" lon="1.2173">
        <ele>299.6</ele>
        <time>2024-10-21T10:22:24Z</time>
      </trkpt>
      <trkpt lat="45.84322" lon="1.2173">
        <ele>299.6</ele>
        <time>2024-10-21T10:22:25Z</time>
      </trkpt>
      <trkpt lat="45.84322" lon="1.2173">
        <ele>299.6</ele>
        <time>2024-10-21T10:22:26Z</time>
      </trkpt>
      <trkpt lat="45.84322" lon="1.2173">
        <ele>299.6</ele>
        <time>2024-10-21T10:22:27Z</time>
      </trkpt>
      <trkpt lat="45.84322" lon="1.2173">
        <ele>299.6</ele>
        <time>2024-10-21T10:22:28Z</time>
      </trkpt>
      <trkpt lat="45.84322" lon="1.21729">
        <ele>299.6</ele>
        <time>2024-10-21T10:22:29Z</time>
      </trkpt>
      <trkpt lat="45.84322" lon="1.21729">
        <ele>299.6</ele>
        <time>2024-10-21T10:22:30Z</time>
      </trkpt>
      <trkpt lat="45.84322" lon="1.21729">
        <ele>299.5</ele>
        <time>2024-10-21T10:22:31Z</time>
      </trkpt>
      <trkpt lat="45.84322" lon="1.21729">
        <ele>299.5</ele>
        <time>2024-10-21T10:22:32Z</time>
      </trkpt>
      <trkpt lat="45.84322" lon="1.21729">
        <ele>299.5</ele>
        <time>2024-10-21T10:22:33Z</time>
      </trkpt>
      <trkpt lat="45.84322" lon="1.21729">
        <ele>299.5</ele>
        <time>2024-10-21T10:22:34Z</time>
      </trkpt>
      <trkpt lat="45.84322" lon="1.21728">
        <ele>299.5</ele>
        <time>2024-10-21T10:22:35Z</time>
      </trkpt>
      <trkpt lat="45.84321" lon="1.21728">
        <ele>299.5</ele>
        <time>2024-10-21T10:22:36Z</time>
      </trkpt>
      <trkpt lat="45.84321" lon="1.21728">
        <ele>299.5</ele>
        <time>2024-10-21T10:22:37Z</time>
      </trkpt>
      <trkpt lat="45.84321" lon="1.21728">
        <ele>299.5</ele>
        <time>2024-10-21T10:22:38Z</time>
      </trkpt>
      <trkpt lat="45.84321" lon="1.21728">
        <ele>299.5</ele>
        <time>2024-10-21T10:22:39Z</time>
      </trkpt>
      <trkpt lat="45.84321" lon="1.21728">
        <ele>299.5</ele>
        <time>2024-10-21T10:22:40Z</time>
      </trkpt>
      <trkpt lat="45.84321" lon="1.21727">
        <ele>299.5</ele>
        <time>2024-10-21T10:22:41Z</time>
      </trkpt>
      <trkpt lat="45.84321" lon="1.21727">
        <ele>299.5</ele>
        <time>2024-10-21T10:22:42Z</time>
      </trkpt>
      <trkpt lat="45.84321" lon="1.21727">
        <ele>299.5</ele>
        <time>2024-10-21T10:22:43Z</time>
      </trkpt>
      <trkpt lat="45.84321" lon="1.21727">
        <ele>299.5</ele>
        <time>2024-10-21T10:22:44Z</time>
      </trkpt>
      <trkpt lat="45.84321" lon="1.21728">
        <ele>299.5</ele>
        <time>2024-10-21T10:22:45Z</time>
      </trkpt>
      <trkpt lat="45.84321" lon="1.21728">
        <ele>299.5</ele>
        <time>2024-10-21T10:22:46Z</time>
      </trkpt>
      <trkpt lat="45.84322" lon="1.21729">
        <ele>299.5</ele>
        <time>2024-10-21T10:22:47Z</time>
      </trkpt>
      <trkpt lat="45.84322" lon="1.21729">
        <ele>299.5</ele>
        <time>2024-10-21T10:22:48Z</time>
      </trkpt>
      <trkpt lat="45.84322" lon="1.21729">
        <ele>299.5</ele>
        <time>2024-10-21T10:22:49Z</time>
      </trkpt>
      <trkpt lat="45.84322" lon="1.2173">
        <ele>299.5</ele>
        <time>2024-10-21T10:22:50Z</time>
      </trkpt>
      <trkpt lat="45.84322" lon="1.2173">
        <ele>299.5</ele>
        <time>2024-10-21T10:22:51Z</time>
      </trkpt>
      <trkpt lat="45.84322" lon="1.21731">
        <ele>299.5</ele>
        <time>2024-10-21T10:22:52Z</time>
      </trkpt>
      <trkpt lat="45.84323" lon="1.21731">
        <ele>299.5</ele>
        <time>2024-10-21T10:22:53Z</time>
      </trkpt>
      <trkpt lat="45.84323" lon="1.21732">
        <ele>299.5</ele>
        <time>2024-10-21T10:22:54Z</time>
      </trkpt>
      <trkpt lat="45.84323" lon="1.21732">
        <ele>299.5</ele>
        <time>2024-10-21T10:22:55Z</time>
      </trkpt>
      <trkpt lat="45.84323" lon="1.21732">
        <ele>299.5</ele>
        <time>2024-10-21T10:22:56Z</time>
      </trkpt>
      <trkpt lat="45.84323" lon="1.21733">
        <ele>299.5</ele>
        <time>2024-10-21T10:22:57Z</time>
      </trkpt>
      <trkpt lat="45.84323" lon="1.21733">
        <ele>299.5</ele>
        <time>2024-10-21T10:22:58Z</time>
      </trkpt>
      <trkpt lat="45.84325" lon="1.21736">
        <ele>299.4</ele>
        <time>2024-10-21T10:22:59Z</time>
      </trkpt>
      <trkpt lat="45.84327" lon="1.21739">
        <ele>299.4</ele>
        <time>2024-10-21T10:23:00Z</time>
      </trkpt>
      <trkpt lat="45.84327" lon="1.2174">
        <ele>299.4</ele>
        <time>2024-10-21T10:23:01Z</time>
      </trkpt>
      <trkpt lat="45.84328" lon="1.21742">
        <ele>299.3</ele>
        <time>2024-10-21T10:23:02Z</time>
      </trkpt>
      <trkpt lat="45.84329" lon="1.21745">
        <ele>299.3</ele>
        <time>2024-10-21T10:23:03Z</time>
      </trkpt>
      <trkpt lat="45.84329" lon="1.21745">
        <ele>299.3</ele>
        <time>2024-10-21T10:23:04Z</time>
      </trkpt>
      <trkpt lat="45.84329" lon="1.21747">
        <ele>299.3</ele>
        <time>2024-10-21T10:23:05Z</time>
      </trkpt>
      <trkpt lat="45.84329" lon="1.2175">
        <ele>299.2</ele>
        <time>2024-10-21T10:23:06Z</time>
      </trkpt>
      <trkpt lat="45.84329" lon="1.21753">
        <ele>299.2</ele>
        <time>2024-10-21T10:23:07Z</time>
      </trkpt>
      <trkpt lat="45.84329" lon="1.21754">
        <ele>299.2</ele>
        <time>2024-10-21T10:23:08Z</time>
      </trkpt>
      <trkpt lat="45.84329" lon="1.21756">
        <ele>299.2</ele>
        <time>2024-10-21T10:23:09Z</time>
      </trkpt>
      <trkpt lat="45.84329" lon="1.21758">
        <ele>299.1</ele>
        <time>2024-10-21T10:23:10Z</time>
      </trkpt>
      <trkpt lat="45.84329" lon="1.2176">
        <ele>299.1</ele>
        <time>2024-10-21T10:23:11Z</time>
      </trkpt>
      <trkpt lat="45.84329" lon="1.21764">
        <ele>299</ele>
        <time>2024-10-21T10:23:12Z</time>
      </trkpt>
      <trkpt lat="45.84329" lon="1.21766">
        <ele>299</ele>
        <time>2024-10-21T10:23:14Z</time>
      </trkpt>
      <trkpt lat="45.84329" lon="1.21768">
        <ele>299</ele>
        <time>2024-10-21T10:23:15Z</time>
      </trkpt>
      <trkpt lat="45.84329" lon="1.21771">
        <ele>298.9</ele>
        <time>2024-10-21T10:23:16Z</time>
      </trkpt>
      <trkpt lat="45.84329" lon="1.21774">
        <ele>298.9</ele>
        <time>2024-10-21T10:23:17Z</time>
      </trkpt>
      <trkpt lat="45.84329" lon="1.21776">
        <ele>298.8</ele>
        <time>2024-10-21T10:23:18Z</time>
      </trkpt>
      <trkpt lat="45.8433" lon="1.21778">
        <ele>298.8</ele>
        <time>2024-10-21T10:23:19Z</time>
      </trkpt>
      <trkpt lat="45.8433" lon="1.2178">
        <ele>298.7</ele>
        <time>2024-10-21T10:23:20Z</time>
      </trkpt>
      <trkpt lat="45.84329" lon="1.21783">
        <ele>298.7</ele>
        <time>2024-10-21T10:23:22Z</time>
      </trkpt>
      <trkpt lat="45.84329" lon="1.21785">
        <ele>298.7</ele>
        <time>2024-10-21T10:23:23Z</time>
      </trkpt>
      <trkpt lat="45.84329" lon="1.21787">
        <ele>298.6</ele>
        <time>2024-10-21T10:23:24Z</time>
      </trkpt>
      <trkpt lat="45.84329" lon="1.21789">
        <ele>298.6</ele>
        <time>2024-10-21T10:23:25Z</time>
      </trkpt>
      <trkpt lat="45.84329" lon="1.21791">
        <ele>298.5</ele>
        <time>2024-10-21T10:23:26Z</time>
      </trkpt>
      <trkpt lat="45.84329" lon="1.21794">
        <ele>298.4</ele>
        <time>2024-10-21T10:23:27Z</time>
      </trkpt>
      <trkpt lat="45.84329" lon="1.21795">
        <ele>298.4</ele>
        <time>2024-10-21T10:23:28Z</time>
      </trkpt>
      <trkpt lat="45.84329" lon="1.21796">
        <ele>298.4</ele>
        <time>2024-10-21T10:23:29Z</time>
      </trkpt>
      <trkpt lat="45.84329" lon="1.21798">
        <ele>298.3</ele>
        <time>2024-10-21T10:23:30Z</time>
      </trkpt>
      <trkpt lat="45.84328" lon="1.218">
        <ele>298.3</ele>
        <time>2024-10-21T10:23:31Z</time>
      </trkpt>
      <trkpt lat="45.84328" lon="1.21803">
        <ele>298.2</ele>
        <time>2024-10-21T10:23:32Z</time>
      </trkpt>
      <trkpt lat="45.84328" lon="1.21805">
        <ele>298.1</ele>
        <time>2024-10-21T10:23:33Z</time>
      </trkpt>
      <trkpt lat="45.84328" lon="1.21807">
        <ele>298</ele>
        <time>2024-10-21T10:23:34Z</time>
      </trkpt>
      <trkpt lat="45.84328" lon="1.21811">
        <ele>297.9</ele>
        <time>2024-10-21T10:23:36Z</time>
      </trkpt>
      <trkpt lat="45.84328" lon="1.21812">
        <ele>297.9</ele>
        <time>2024-10-21T10:23:37Z</time>
      </trkpt>
      <trkpt lat="45.84328" lon="1.21813">
        <ele>297.8</ele>
        <time>2024-10-21T10:23:38Z</time>
      </trkpt>
      <trkpt lat="45.84328" lon="1.21815">
        <ele>297.8</ele>
        <time>2024-10-21T10:23:39Z</time>
      </trkpt>
      <trkpt lat="45.84329" lon="1.21818">
        <ele>297.7</ele>
        <time>2024-10-21T10:23:40Z</time>
      </trkpt>
      <trkpt lat="45.84329" lon="1.21819">
        <ele>297.7</ele>
        <time>2024-10-21T10:23:41Z</time>
      </trkpt>
      <trkpt lat="45.84329" lon="1.2182">
        <ele>297.6</ele>
        <time>2024-10-21T10:23:42Z</time>
      </trkpt>
      <trkpt lat="45.8433" lon="1.21824">
        <ele>297.5</ele>
        <time>2024-10-21T10:23:43Z</time>
      </trkpt>
      <trkpt lat="45.8433" lon="1.21825">
        <ele>297.5</ele>
        <time>2024-10-21T10:23:44Z</time>
      </trkpt>
      <trkpt lat="45.8433" lon="1.21826">
        <ele>297.4</ele>
        <time>2024-10-21T10:23:45Z</time>
      </trkpt>
      <trkpt lat="45.8433" lon="1.2183">
        <ele>297.2</ele>
        <time>2024-10-21T10:23:46Z</time>
      </trkpt>
      <trkpt lat="45.8433" lon="1.21831">
        <ele>297.2</ele>
        <time>2024-10-21T10:23:47Z</time>
      </trkpt>
      <trkpt lat="45.8433" lon="1.21834">
        <ele>297.1</ele>
        <time>2024-10-21T10:23:48Z</time>
      </trkpt>
      <trkpt lat="45.8433" lon="1.21836">
        <ele>297</ele>
        <time>2024-10-21T10:23:49Z</time>
      </trkpt>
      <trkpt lat="45.84329" lon="1.21837">
        <ele>297</ele>
        <time>2024-10-21T10:23:50Z</time>
      </trkpt>
      <trkpt lat="45.84329" lon="1.21839">
        <ele>296.9</ele>
        <time>2024-10-21T10:23:51Z</time>
      </trkpt>
      <trkpt lat="45.84329" lon="1.21841">
        <ele>296.8</ele>
        <time>2024-10-21T10:23:52Z</time>
      </trkpt>
      <trkpt lat="45.84329" lon="1.21843">
        <ele>296.7</ele>
        <time>2024-10-21T10:23:53Z</time>
      </trkpt>
      <trkpt lat="45.84329" lon="1.21843">
        <ele>296.7</ele>
        <time>2024-10-21T10:23:54Z</time>
      </trkpt>
      <trkpt lat="45.84329" lon="1.21847">
        <ele>296.6</ele>
        <time>2024-10-21T10:23:55Z</time>
      </trkpt>
      <trkpt lat="45.84329" lon="1.21847">
        <ele>296.6</ele>
        <time>2024-10-21T10:23:56Z</time>
      </trkpt>
      <trkpt lat="45.84328" lon="1.2185">
        <ele>296.5</ele>
        <time>2024-10-21T10:23:57Z</time>
      </trkpt>
      <trkpt lat="45.84328" lon="1.21853">
        <ele>296.4</ele>
        <time>2024-10-21T10:23:58Z</time>
      </trkpt>
      <trkpt lat="45.84328" lon="1.21854">
        <ele>296.3</ele>
        <time>2024-10-21T10:23:59Z</time>
      </trkpt>
      <trkpt lat="45.84328" lon="1.21856">
        <ele>296.3</ele>
        <time>2024-10-21T10:24:00Z</time>
      </trkpt>
      <trkpt lat="45.84328" lon="1.21858">
        <ele>296.2</ele>
        <time>2024-10-21T10:24:01Z</time>
      </trkpt>
      <trkpt lat="45.84328" lon="1.21859">
        <ele>296.1</ele>
        <time>2024-10-21T10:24:02Z</time>
      </trkpt>
      <trkpt lat="45.84327" lon="1.21861">
        <ele>296</ele>
        <time>2024-10-21T10:24:03Z</time>
      </trkpt>
      <trkpt lat="45.84327" lon="1.21863">
        <ele>295.9</ele>
        <time>2024-10-21T10:24:04Z</time>
      </trkpt>
      <trkpt lat="45.84326" lon="1.21865">
        <ele>295.9</ele>
        <time>2024-10-21T10:24:05Z</time>
      </trkpt>
      <trkpt lat="45.84325" lon="1.21867">
        <ele>295.7</ele>
        <time>2024-10-21T10:24:06Z</time>
      </trkpt>
      <trkpt lat="45.84325" lon="1.21869">
        <ele>295.6</ele>
        <time>2024-10-21T10:24:07Z</time>
      </trkpt>
      <trkpt lat="45.84324" lon="1.21871">
        <ele>295.5</ele>
        <time>2024-10-21T10:24:08Z</time>
      </trkpt>
      <trkpt lat="45.84324" lon="1.21872">
        <ele>295.4</ele>
        <time>2024-10-21T10:24:09Z</time>
      </trkpt>
      <trkpt lat="45.84323" lon="1.21874">
        <ele>295.3</ele>
        <time>2024-10-21T10:24:10Z</time>
      </trkpt>
      <trkpt lat="45.84323" lon="1.21876">
        <ele>295.2</ele>
        <time>2024-10-21T10:24:11Z</time>
      </trkpt>
      <trkpt lat="45.84322" lon="1.21878">
        <ele>295.1</ele>
        <time>2024-10-21T10:24:12Z</time>
      </trkpt>
      <trkpt lat="45.84321" lon="1.2188">
        <ele>294.9</ele>
        <time>2024-10-21T10:24:13Z</time>
      </trkpt>
      <trkpt lat="45.84321" lon="1.21882">
        <ele>294.8</ele>
        <time>2024-10-21T10:24:14Z</time>
      </trkpt>
      <trkpt lat="45.8432" lon="1.21884">
        <ele>294.7</ele>
        <time>2024-10-21T10:24:15Z</time>
      </trkpt>
      <trkpt lat="45.84319" lon="1.21886">
        <ele>294.5</ele>
        <time>2024-10-21T10:24:16Z</time>
      </trkpt>
      <trkpt lat="45.84319" lon="1.21888">
        <ele>294.4</ele>
        <time>2024-10-21T10:24:17Z</time>
      </trkpt>
      <trkpt lat="45.84318" lon="1.2189">
        <ele>294.3</ele>
        <time>2024-10-21T10:24:18Z</time>
      </trkpt>
      <trkpt lat="45.84317" lon="1.21893">
        <ele>294.1</ele>
        <time>2024-10-21T10:24:19Z</time>
      </trkpt>
      <trkpt lat="45.84317" lon="1.21894">
        <ele>294</ele>
        <time>2024-10-21T10:24:20Z</time>
      </trkpt>
      <trkpt lat="45.84317" lon="1.21895">
        <ele>294</ele>
        <time>2024-10-21T10:24:21Z</time>
      </trkpt>
      <trkpt lat="45.84316" lon="1.21897">
        <ele>293.8</ele>
        <time>2024-10-21T10:24:22Z</time>
      </trkpt>
      <trkpt lat="45.84315" lon="1.21899">
        <ele>293.7</ele>
        <time>2024-10-21T10:24:23Z</time>
      </trkpt>
      <trkpt lat="45.84315" lon="1.21901">
        <ele>293.6</ele>
        <time>2024-10-21T10:24:24Z</time>
      </trkpt>
      <trkpt lat="45.84314" lon="1.21903">
        <ele>293.5</ele>
        <time>2024-10-21T10:24:25Z</time>
      </trkpt>
      <trkpt lat="45.84313" lon="1.21904">
        <ele>293.3</ele>
        <time>2024-10-21T10:24:26Z</time>
      </trkpt>
      <trkpt lat="45.84312" lon="1.21906">
        <ele>293.2</ele>
        <time>2024-10-21T10:24:27Z</time>
      </trkpt>
      <trkpt lat="45.84312" lon="1.21908">
        <ele>293.1</ele>
        <time>2024-10-21T10:24:28Z</time>
      </trkpt>
      <trkpt lat="45.84311" lon="1.21909">
        <ele>293</ele>
        <time>2024-10-21T10:24:29Z</time>
      </trkpt>
      <trkpt lat="45.8431" lon="1.21911">
        <ele>292.8</ele>
        <time>2024-10-21T10:24:30Z</time>
      </trkpt>
      <trkpt lat="45.84309" lon="1.21913">
        <ele>292.7</ele>
        <time>2024-10-21T10:24:31Z</time>
      </trkpt>
      <trkpt lat="45.84309" lon="1.21915">
        <ele>292.6</ele>
        <time>2024-10-21T10:24:32Z</time>
      </trkpt>
      <trkpt lat="45.84308" lon="1.21917">
        <ele>292.5</ele>
        <time>2024-10-21T10:24:33Z</time>
      </trkpt>
      <trkpt lat="45.84307" lon="1.21919">
        <ele>292.3</ele>
        <time>2024-10-21T10:24:34Z</time>
      </trkpt>
      <trkpt lat="45.84307" lon="1.2192">
        <ele>292.2</ele>
        <time>2024-10-21T10:24:35Z</time>
      </trkpt>
      <trkpt lat="45.84306" lon="1.21921">
        <ele>292.1</ele>
        <time>2024-10-21T10:24:36Z</time>
      </trkpt>
      <trkpt lat="45.84306" lon="1.21923">
        <ele>292</ele>
        <time>2024-10-21T10:24:37Z</time>
      </trkpt>
      <trkpt lat="45.84305" lon="1.21925">
        <ele>291.9</ele>
        <time>2024-10-21T10:24:38Z</time>
      </trkpt>
      <trkpt lat="45.84305" lon="1.21927">
        <ele>291.8</ele>
        <time>2024-10-21T10:24:39Z</time>
      </trkpt>
      <trkpt lat="45.84304" lon="1.21929">
        <ele>291.6</ele>
        <time>2024-10-21T10:24:40Z</time>
      </trkpt>
      <trkpt lat="45.84304" lon="1.21931">
        <ele>291.5</ele>
        <time>2024-10-21T10:24:41Z</time>
      </trkpt>
      <trkpt lat="45.84303" lon="1.21933">
        <ele>291.4</ele>
        <time>2024-10-21T10:24:42Z</time>
      </trkpt>
      <trkpt lat="45.84303" lon="1.21934">
        <ele>291.3</ele>
        <time>2024-10-21T10:24:43Z</time>
      </trkpt>
      <trkpt lat="45.84303" lon="1.21936">
        <ele>291.2</ele>
        <time>2024-10-21T10:24:44Z</time>
      </trkpt>
      <trkpt lat="45.84302" lon="1.21938">
        <ele>291</ele>
        <time>2024-10-21T10:24:45Z</time>
      </trkpt>
      <trkpt lat="45.84302" lon="1.2194">
        <ele>290.9</ele>
        <time>2024-10-21T10:24:46Z</time>
      </trkpt>
      <trkpt lat="45.84301" lon="1.21943">
        <ele>290.8</ele>
        <time>2024-10-21T10:24:47Z</time>
      </trkpt>
      <trkpt lat="45.84301" lon="1.21945">
        <ele>290.6</ele>
        <time>2024-10-21T10:24:48Z</time>
      </trkpt>
      <trkpt lat="45.84301" lon="1.21946">
        <ele>290.5</ele>
        <time>2024-10-21T10:24:49Z</time>
      </trkpt>
      <trkpt lat="45.84301" lon="1.21948">
        <ele>290.4</ele>
        <time>2024-10-21T10:24:50Z</time>
      </trkpt>
      <trkpt lat="45.843" lon="1.2195">
        <ele>290.3</ele>
        <time>2024-10-21T10:24:51Z</time>
      </trkpt>
      <trkpt lat="45.843" lon="1.21952">
        <ele>290.2</ele>
        <time>2024-10-21T10:24:52Z</time>
      </trkpt>
      <trkpt lat="45.84299" lon="1.21955">
        <ele>290</ele>
        <time>2024-10-21T10:24:53Z</time>
      </trkpt>
      <trkpt lat="45.84299" lon="1.21955">
        <ele>290</ele>
        <time>2024-10-21T10:24:54Z</time>
      </trkpt>
      <trkpt lat="45.84299" lon="1.21957">
        <ele>289.9</ele>
        <time>2024-10-21T10:24:55Z</time>
      </trkpt>
      <trkpt lat="45.84299" lon="1.21958">
        <ele>289.9</ele>
        <time>2024-10-21T10:24:56Z</time>
      </trkpt>
      <trkpt lat="45.84299" lon="1.21961">
        <ele>289.7</ele>
        <time>2024-10-21T10:24:57Z</time>
      </trkpt>
      <trkpt lat="45.843" lon="1.21962">
        <ele>289.6</ele>
        <time>2024-10-21T10:24:58Z</time>
      </trkpt>
      <trkpt lat="45.843" lon="1.21962">
        <ele>289.6</ele>
        <time>2024-10-21T10:24:59Z</time>
      </trkpt>
      <trkpt lat="45.84299" lon="1.21962">
        <ele>289.6</ele>
        <time>2024-10-21T10:25:00Z</time>
      </trkpt>
      <trkpt lat="45.84299" lon="1.21962">
        <ele>289.6</ele>
        <time>2024-10-21T10:25:01Z</time>
      </trkpt>
      <trkpt lat="45.84299" lon="1.21963">
        <ele>289.6</ele>
        <time>2024-10-21T10:25:02Z</time>
      </trkpt>
      <trkpt lat="45.84299" lon="1.21963">
        <ele>289.5</ele>
        <time>2024-10-21T10:25:03Z</time>
      </trkpt>
      <trkpt lat="45.84299" lon="1.21963">
        <ele>289.5</ele>
        <time>2024-10-21T10:25:04Z</time>
      </trkpt>
      <trkpt lat="45.84299" lon="1.21963">
        <ele>289.5</ele>
        <time>2024-10-21T10:25:05Z</time>
      </trkpt>
      <trkpt lat="45.84298" lon="1.21964">
        <ele>289.5</ele>
        <time>2024-10-21T10:25:06Z</time>
      </trkpt>
      <trkpt lat="45.84298" lon="1.21964">
        <ele>289.5</ele>
        <time>2024-10-21T10:25:07Z</time>
      </trkpt>
      <trkpt lat="45.84298" lon="1.21964">
        <ele>289.4</ele>
        <time>2024-10-21T10:25:08Z</time>
      </trkpt>
      <trkpt lat="45.84298" lon="1.21965">
        <ele>289.4</ele>
        <time>2024-10-21T10:25:09Z</time>
      </trkpt>
      <trkpt lat="45.84298" lon="1.21965">
        <ele>289.4</ele>
        <time>2024-10-21T10:25:10Z</time>
      </trkpt>
      <trkpt lat="45.84298" lon="1.21965">
        <ele>289.4</ele>
        <time>2024-10-21T10:25:11Z</time>
      </trkpt>
      <trkpt lat="45.84298" lon="1.21965">
        <ele>289.4</ele>
        <time>2024-10-21T10:25:12Z</time>
      </trkpt>
      <trkpt lat="45.84297" lon="1.21966">
        <ele>289.3</ele>
        <time>2024-10-21T10:25:13Z</time>
      </trkpt>
      <trkpt lat="45.84297" lon="1.21966">
        <ele>289.3</ele>
        <time>2024-10-21T10:25:14Z</time>
      </trkpt>
      <trkpt lat="45.84297" lon="1.21966">
        <ele>289.3</ele>
        <time>2024-10-21T10:25:15Z</time>
      </trkpt>
      <trkpt lat="45.84297" lon="1.21966">
        <ele>289.3</ele>
        <time>2024-10-21T10:25:16Z</time>
      </trkpt>
      <trkpt lat="45.84297" lon="1.21967">
        <ele>289.3</ele>
        <time>2024-10-21T10:25:17Z</time>
      </trkpt>
      <trkpt lat="45.84297" lon="1.21967">
        <ele>289.3</ele>
        <time>2024-10-21T10:25:18Z</time>
      </trkpt>
      <trkpt lat="45.84296" lon="1.21971">
        <ele>289</ele>
        <time>2024-10-21T10:25:19Z</time>
      </trkpt>
      <trkpt lat="45.84295" lon="1.21977">
        <ele>288.6</ele>
        <time>2024-10-21T10:25:20Z</time>
      </trkpt>
      <trkpt lat="45.84294" lon="1.21979">
        <ele>288.5</ele>
        <time>2024-10-21T10:25:21Z</time>
      </trkpt>
      <trkpt lat="45.84294" lon="1.21981">
        <ele>288.4</ele>
        <time>2024-10-21T10:25:22Z</time>
      </trkpt>
      <trkpt lat="45.84293" lon="1.21983">
        <ele>288.2</ele>
        <time>2024-10-21T10:25:23Z</time>
      </trkpt>
      <trkpt lat="45.84293" lon="1.21985">
        <ele>288.1</ele>
        <time>2024-10-21T10:25:24Z</time>
      </trkpt>
      <trkpt lat="45.84292" lon="1.21988">
        <ele>287.9</ele>
        <time>2024-10-21T10:25:25Z</time>
      </trkpt>
      <trkpt lat="45.84291" lon="1.21988">
        <ele>287.8</ele>
        <time>2024-10-21T10:25:26Z</time>
      </trkpt>
      <trkpt lat="45.84289" lon="1.21988">
        <ele>287.6</ele>
        <time>2024-10-21T10:25:27Z</time>
      </trkpt>
      <trkpt lat="45.84288" lon="1.21988">
        <ele>287.6</ele>
        <time>2024-10-21T10:25:28Z</time>
      </trkpt>
      <trkpt lat="45.84288" lon="1.21989">
        <ele>287.5</ele>
        <time>2024-10-21T10:25:29Z</time>
      </trkpt>
      <trkpt lat="45.84287" lon="1.21992">
        <ele>287.3</ele>
        <time>2024-10-21T10:25:30Z</time>
      </trkpt>
      <trkpt lat="45.84287" lon="1.21993">
        <ele>287.2</ele>
        <time>2024-10-21T10:25:31Z</time>
      </trkpt>
      <trkpt lat="45.84286" lon="1.21995">
        <ele>287.1</ele>
        <time>2024-10-21T10:25:32Z</time>
      </trkpt>
      <trkpt lat="45.84286" lon="1.21997">
        <ele>287</ele>
        <time>2024-10-21T10:25:33Z</time>
      </trkpt>
      <trkpt lat="45.84286" lon="1.21999">
        <ele>286.9</ele>
        <time>2024-10-21T10:25:34Z</time>
      </trkpt>
      <trkpt lat="45.84285" lon="1.22001">
        <ele>286.7</ele>
        <time>2024-10-21T10:25:35Z</time>
      </trkpt>
      <trkpt lat="45.84285" lon="1.22003">
        <ele>286.6</ele>
        <time>2024-10-21T10:25:36Z</time>
      </trkpt>
      <trkpt lat="45.84284" lon="1.22006">
        <ele>286.4</ele>
        <time>2024-10-21T10:25:37Z</time>
      </trkpt>
      <trkpt lat="45.84284" lon="1.22007">
        <ele>286.3</ele>
        <time>2024-10-21T10:25:38Z</time>
      </trkpt>
      <trkpt lat="45.84284" lon="1.22009">
        <ele>286.3</ele>
        <time>2024-10-21T10:25:39Z</time>
      </trkpt>
      <trkpt lat="45.84283" lon="1.22011">
        <ele>286.1</ele>
        <time>2024-10-21T10:25:40Z</time>
      </trkpt>
      <trkpt lat="45.84283" lon="1.22013">
        <ele>286</ele>
        <time>2024-10-21T10:25:41Z</time>
      </trkpt>
      <trkpt lat="45.84283" lon="1.22014">
        <ele>285.9</ele>
        <time>2024-10-21T10:25:42Z</time>
      </trkpt>
      <trkpt lat="45.84282" lon="1.22018">
        <ele>285.7</ele>
        <time>2024-10-21T10:25:43Z</time>
      </trkpt>
      <trkpt lat="45.84281" lon="1.2202">
        <ele>285.5</ele>
        <time>2024-10-21T10:25:44Z</time>
      </trkpt>
      <trkpt lat="45.84281" lon="1.22022">
        <ele>285.4</ele>
        <time>2024-10-21T10:25:45Z</time>
      </trkpt>
      <trkpt lat="45.84281" lon="1.22024">
        <ele>285.3</ele>
        <time>2024-10-21T10:25:46Z</time>
      </trkpt>
      <trkpt lat="45.8428" lon="1.22025">
        <ele>285.2</ele>
        <time>2024-10-21T10:25:47Z</time>
      </trkpt>
      <trkpt lat="45.8428" lon="1.22031">
        <ele>284.9</ele>
        <time>2024-10-21T10:25:48Z</time>
      </trkpt>
      <trkpt lat="45.8428" lon="1.22035">
        <ele>284.7</ele>
        <time>2024-10-21T10:25:49Z</time>
      </trkpt>
      <trkpt lat="45.8428" lon="1.22035">
        <ele>284.6</ele>
        <time>2024-10-21T10:25:50Z</time>
      </trkpt>
      <trkpt lat="45.84279" lon="1.22036">
        <ele>284.6</ele>
        <time>2024-10-21T10:25:51Z</time>
      </trkpt>
      <trkpt lat="45.84279" lon="1.22037">
        <ele>284.5</ele>
        <time>2024-10-21T10:25:52Z</time>
      </trkpt>
      <trkpt lat="45.84278" lon="1.22038">
        <ele>284.4</ele>
        <time>2024-10-21T10:25:53Z</time>
      </trkpt>
      <trkpt lat="45.84277" lon="1.22048">
        <ele>283.8</ele>
        <time>2024-10-21T10:25:54Z</time>
      </trkpt>
      <trkpt lat="45.84277" lon="1.2205">
        <ele>283.7</ele>
        <time>2024-10-21T10:25:56Z</time>
      </trkpt>
      <trkpt lat="45.84277" lon="1.22051">
        <ele>283.6</ele>
        <time>2024-10-21T10:25:57Z</time>
      </trkpt>
      <trkpt lat="45.84276" lon="1.22053">
        <ele>283.6</ele>
        <time>2024-10-21T10:25:58Z</time>
      </trkpt>
      <trkpt lat="45.84276" lon="1.22056">
        <ele>283.4</ele>
        <time>2024-10-21T10:25:59Z</time>
      </trkpt>
      <trkpt lat="45.84276" lon="1.22058">
        <ele>283.2</ele>
        <time>2024-10-21T10:26:00Z</time>
      </trkpt>
      <trkpt lat="45.84275" lon="1.2206">
        <ele>283.1</ele>
        <time>2024-10-21T10:26:01Z</time>
      </trkpt>
      <trkpt lat="45.84275" lon="1.22061">
        <ele>283.1</ele>
        <time>2024-10-21T10:26:02Z</time>
      </trkpt>
      <trkpt lat="45.84275" lon="1.22063">
        <ele>283</ele>
        <time>2024-10-21T10:26:03Z</time>
      </trkpt>
      <trkpt lat="45.84274" lon="1.22065">
        <ele>282.8</ele>
        <time>2024-10-21T10:26:04Z</time>
      </trkpt>
      <trkpt lat="45.84274" lon="1.22067">
        <ele>282.7</ele>
        <time>2024-10-21T10:26:05Z</time>
      </trkpt>
      <trkpt lat="45.84274" lon="1.22068">
        <ele>282.7</ele>
        <time>2024-10-21T10:26:06Z</time>
      </trkpt>
      <trkpt lat="45.84273" lon="1.22071">
        <ele>282.4</ele>
        <time>2024-10-21T10:26:07Z</time>
      </trkpt>
      <trkpt lat="45.84272" lon="1.22073">
        <ele>282.3</ele>
        <time>2024-10-21T10:26:08Z</time>
      </trkpt>
      <trkpt lat="45.84272" lon="1.22075">
        <ele>282.2</ele>
        <time>2024-10-21T10:26:09Z</time>
      </trkpt>
      <trkpt lat="45.84272" lon="1.22075">
        <ele>282.2</ele>
        <time>2024-10-21T10:26:10Z</time>
      </trkpt>
      <trkpt lat="45.84271" lon="1.22075">
        <ele>282.1</ele>
        <time>2024-10-21T10:26:11Z</time>
      </trkpt>
      <trkpt lat="45.84271" lon="1.22077">
        <ele>282</ele>
        <time>2024-10-21T10:26:12Z</time>
      </trkpt>
      <trkpt lat="45.84269" lon="1.22079">
        <ele>281.9</ele>
        <time>2024-10-21T10:26:13Z</time>
      </trkpt>
      <trkpt lat="45.84268" lon="1.2208">
        <ele>281.8</ele>
        <time>2024-10-21T10:26:14Z</time>
      </trkpt>
      <trkpt lat="45.84268" lon="1.22081">
        <ele>281.7</ele>
        <time>2024-10-21T10:26:15Z</time>
      </trkpt>
      <trkpt lat="45.84266" lon="1.22083">
        <ele>281.5</ele>
        <time>2024-10-21T10:26:16Z</time>
      </trkpt>
      <trkpt lat="45.84265" lon="1.22084">
        <ele>281.4</ele>
        <time>2024-10-21T10:26:17Z</time>
      </trkpt>
      <trkpt lat="45.84265" lon="1.22085">
        <ele>281.3</ele>
        <time>2024-10-21T10:26:18Z</time>
      </trkpt>
      <trkpt lat="45.84264" lon="1.22086">
        <ele>281.2</ele>
        <time>2024-10-21T10:26:19Z</time>
      </trkpt>
      <trkpt lat="45.84264" lon="1.22089">
        <ele>281</ele>
        <time>2024-10-21T10:26:20Z</time>
      </trkpt>
      <trkpt lat="45.84264" lon="1.2209">
        <ele>281</ele>
        <time>2024-10-21T10:26:21Z</time>
      </trkpt>
      <trkpt lat="45.84263" lon="1.22091">
        <ele>280.9</ele>
        <time>2024-10-21T10:26:22Z</time>
      </trkpt>
      <trkpt lat="45.84262" lon="1.22093">
        <ele>280.8</ele>
        <time>2024-10-21T10:26:23Z</time>
      </trkpt>
      <trkpt lat="45.84262" lon="1.22095">
        <ele>280.6</ele>
        <time>2024-10-21T10:26:24Z</time>
      </trkpt>
      <trkpt lat="45.84263" lon="1.22096">
        <ele>280.6</ele>
        <time>2024-10-21T10:26:25Z</time>
      </trkpt>
      <trkpt lat="45.84264" lon="1.22097">
        <ele>280.6</ele>
        <time>2024-10-21T10:26:26Z</time>
      </trkpt>
      <trkpt lat="45.84265" lon="1.22099">
        <ele>280.6</ele>
        <time>2024-10-21T10:26:27Z</time>
      </trkpt>
      <trkpt lat="45.84265" lon="1.221">
        <ele>280.6</ele>
        <time>2024-10-21T10:26:28Z</time>
      </trkpt>
      <trkpt lat="45.84266" lon="1.22101">
        <ele>280.6</ele>
        <time>2024-10-21T10:26:29Z</time>
      </trkpt>
      <trkpt lat="45.84268" lon="1.22102">
        <ele>280.6</ele>
        <time>2024-10-21T10:26:30Z</time>
      </trkpt>
      <trkpt lat="45.84269" lon="1.22103">
        <ele>280.6</ele>
        <time>2024-10-21T10:26:31Z</time>
      </trkpt>
      <trkpt lat="45.8427" lon="1.22104">
        <ele>280.6</ele>
        <time>2024-10-21T10:26:32Z</time>
      </trkpt>
      <trkpt lat="45.84271" lon="1.22104">
        <ele>280.6</ele>
        <time>2024-10-21T10:26:33Z</time>
      </trkpt>
      <trkpt lat="45.84272" lon="1.22104">
        <ele>280.6</ele>
        <time>2024-10-21T10:26:34Z</time>
      </trkpt>
      <trkpt lat="45.8428" lon="1.22102">
        <ele>280.6</ele>
        <time>2024-10-21T10:26:35Z</time>
      </trkpt>
      <trkpt lat="45.8428" lon="1.22102">
        <ele>280.6</ele>
        <time>2024-10-21T10:26:36Z</time>
      </trkpt>
      <trkpt lat="45.84281" lon="1.22103">
        <ele>280.6</ele>
        <time>2024-10-21T10:26:37Z</time>
      </trkpt>
      <trkpt lat="45.84281" lon="1.22103">
        <ele>280.6</ele>
        <time>2024-10-21T10:26:38Z</time>
      </trkpt>
      <trkpt lat="45.84282" lon="1.22104">
        <ele>280.6</ele>
        <time>2024-10-21T10:26:39Z</time>
      </trkpt>
      <trkpt lat="45.84283" lon="1.22104">
        <ele>280.6</ele>
        <time>2024-10-21T10:26:40Z</time>
      </trkpt>
      <trkpt lat="45.84284" lon="1.22104">
        <ele>280.6</ele>
        <time>2024-10-21T10:26:41Z</time>
      </trkpt>
      <trkpt lat="45.84285" lon="1.22104">
        <ele>280.6</ele>
        <time>2024-10-21T10:26:42Z</time>
      </trkpt>
      <trkpt lat="45.84289" lon="1.22103">
        <ele>280.6</ele>
        <time>2024-10-21T10:26:43Z</time>
      </trkpt>
      <trkpt lat="45.84292" lon="1.22102">
        <ele>280.6</ele>
        <time>2024-10-21T10:26:44Z</time>
      </trkpt>
      <trkpt lat="45.84293" lon="1.22102">
        <ele>280.6</ele>
        <time>2024-10-21T10:26:46Z</time>
      </trkpt>
      <trkpt lat="45.84295" lon="1.22103">
        <ele>280.6</ele>
        <time>2024-10-21T10:26:47Z</time>
      </trkpt>
      <trkpt lat="45.84295" lon="1.22104">
        <ele>280.7</ele>
        <time>2024-10-21T10:26:48Z</time>
      </trkpt>
      <trkpt lat="45.843" lon="1.22101">
        <ele>280.7</ele>
        <time>2024-10-21T10:26:49Z</time>
      </trkpt>
      <trkpt lat="45.843" lon="1.22101">
        <ele>280.7</ele>
        <time>2024-10-21T10:26:50Z</time>
      </trkpt>
      <trkpt lat="45.84301" lon="1.221">
        <ele>280.7</ele>
        <time>2024-10-21T10:26:51Z</time>
      </trkpt>
      <trkpt lat="45.84302" lon="1.221">
        <ele>280.7</ele>
        <time>2024-10-21T10:26:52Z</time>
      </trkpt>
      <trkpt lat="45.84303" lon="1.221">
        <ele>280.7</ele>
        <time>2024-10-21T10:26:53Z</time>
      </trkpt>
      <trkpt lat="45.84304" lon="1.221">
        <ele>280.7</ele>
        <time>2024-10-21T10:26:54Z</time>
      </trkpt>
      <trkpt lat="45.84305" lon="1.22098">
        <ele>280.7</ele>
        <time>2024-10-21T10:26:55Z</time>
      </trkpt>
      <trkpt lat="45.84306" lon="1.22097">
        <ele>280.7</ele>
        <time>2024-10-21T10:26:56Z</time>
      </trkpt>
      <trkpt lat="45.84307" lon="1.22097">
        <ele>280.7</ele>
        <time>2024-10-21T10:26:57Z</time>
      </trkpt>
      <trkpt lat="45.84308" lon="1.22096">
        <ele>280.7</ele>
        <time>2024-10-21T10:26:58Z</time>
      </trkpt>
      <trkpt lat="45.84309" lon="1.22095">
        <ele>280.7</ele>
        <time>2024-10-21T10:26:59Z</time>
      </trkpt>
      <trkpt lat="45.8431" lon="1.22092">
        <ele>280.7</ele>
        <time>2024-10-21T10:27:00Z</time>
      </trkpt>
      <trkpt lat="45.84311" lon="1.22092">
        <ele>280.7</ele>
        <time>2024-10-21T10:27:01Z</time>
      </trkpt>
      <trkpt lat="45.84311" lon="1.22091">
        <ele>280.7</ele>
        <time>2024-10-21T10:27:02Z</time>
      </trkpt>
      <trkpt lat="45.84312" lon="1.2209">
        <ele>280.7</ele>
        <time>2024-10-21T10:27:03Z</time>
      </trkpt>
      <trkpt lat="45.84312" lon="1.22089">
        <ele>280.7</ele>
        <time>2024-10-21T10:27:04Z</time>
      </trkpt>
      <trkpt lat="45.84311" lon="1.22087">
        <ele>280.7</ele>
        <time>2024-10-21T10:27:05Z</time>
      </trkpt>
      <trkpt lat="45.84312" lon="1.22085">
        <ele>280.7</ele>
        <time>2024-10-21T10:27:06Z</time>
      </trkpt>
      <trkpt lat="45.84312" lon="1.22084">
        <ele>280.7</ele>
        <time>2024-10-21T10:27:07Z</time>
      </trkpt>
      <trkpt lat="45.84312" lon="1.22082">
        <ele>280.7</ele>
        <time>2024-10-21T10:27:08Z</time>
      </trkpt>
      <trkpt lat="45.84312" lon="1.2208">
        <ele>280.7</ele>
        <time>2024-10-21T10:27:09Z</time>
      </trkpt>
      <trkpt lat="45.84312" lon="1.22077">
        <ele>280.7</ele>
        <time>2024-10-21T10:27:10Z</time>
      </trkpt>
      <trkpt lat="45.84312" lon="1.22076">
        <ele>280.7</ele>
        <time>2024-10-21T10:27:11Z</time>
      </trkpt>
      <trkpt lat="45.84312" lon="1.22075">
        <ele>280.7</ele>
        <time>2024-10-21T10:27:12Z</time>
      </trkpt>
      <trkpt lat="45.84312" lon="1.22073">
        <ele>280.7</ele>
        <time>2024-10-21T10:27:13Z</time>
      </trkpt>
      <trkpt lat="45.84312" lon="1.22072">
        <ele>280.7</ele>
        <time>2024-10-21T10:27:14Z</time>
      </trkpt>
      <trkpt lat="45.84312" lon="1.22069">
        <ele>280.7</ele>
        <time>2024-10-21T10:27:15Z</time>
      </trkpt>
      <trkpt lat="45.84312" lon="1.22068">
        <ele>280.7</ele>
        <time>2024-10-21T10:27:16Z</time>
      </trkpt>
      <trkpt lat="45.84312" lon="1.22067">
        <ele>280.7</ele>
        <time>2024-10-21T10:27:17Z</time>
      </trkpt>
      <trkpt lat="45.84312" lon="1.22065">
        <ele>280.7</ele>
        <time>2024-10-21T10:27:18Z</time>
      </trkpt>
      <trkpt lat="45.84313" lon="1.22064">
        <ele>280.7</ele>
        <time>2024-10-21T10:27:19Z</time>
      </trkpt>
      <trkpt lat="45.84314" lon="1.22061">
        <ele>280.7</ele>
        <time>2024-10-21T10:27:20Z</time>
      </trkpt>
      <trkpt lat="45.84314" lon="1.2206">
        <ele>280.7</ele>
        <time>2024-10-21T10:27:21Z</time>
      </trkpt>
      <trkpt lat="45.84315" lon="1.22059">
        <ele>280.7</ele>
        <time>2024-10-21T10:27:22Z</time>
      </trkpt>
      <trkpt lat="45.84317" lon="1.22058">
        <ele>280.7</ele>
        <time>2024-10-21T10:27:23Z</time>
      </trkpt>
      <trkpt lat="45.84319" lon="1.22056">
        <ele>280.7</ele>
        <time>2024-10-21T10:27:24Z</time>
      </trkpt>
      <trkpt lat="45.84321" lon="1.22055">
        <ele>280.7</ele>
        <time>2024-10-21T10:27:25Z</time>
      </trkpt>
      <trkpt lat="45.84323" lon="1.22054">
        <ele>280.7</ele>
        <time>2024-10-21T10:27:26Z</time>
      </trkpt>
      <trkpt lat="45.84324" lon="1.22054">
        <ele>280.7</ele>
        <time>2024-10-21T10:27:27Z</time>
      </trkpt>
      <trkpt lat="45.84325" lon="1.22054">
        <ele>280.7</ele>
        <time>2024-10-21T10:27:28Z</time>
      </trkpt>
      <trkpt lat="45.84329" lon="1.22056">
        <ele>280.7</ele>
        <time>2024-10-21T10:27:29Z</time>
      </trkpt>
      <trkpt lat="45.8433" lon="1.22057">
        <ele>280.7</ele>
        <time>2024-10-21T10:27:30Z</time>
      </trkpt>
      <trkpt lat="45.84332" lon="1.22058">
        <ele>280.7</ele>
        <time>2024-10-21T10:27:31Z</time>
      </trkpt>
      <trkpt lat="45.84333" lon="1.22059">
        <ele>280.7</ele>
        <time>2024-10-21T10:27:32Z</time>
      </trkpt>
      <trkpt lat="45.84334" lon="1.22059">
        <ele>280.7</ele>
        <time>2024-10-21T10:27:33Z</time>
      </trkpt>
      <trkpt lat="45.84337" lon="1.22062">
        <ele>280.7</ele>
        <time>2024-10-21T10:27:34Z</time>
      </trkpt>
      <trkpt lat="45.84337" lon="1.22063">
        <ele>280.7</ele>
        <time>2024-10-21T10:27:35Z</time>
      </trkpt>
      <trkpt lat="45.84339" lon="1.22064">
        <ele>280.7</ele>
        <time>2024-10-21T10:27:36Z</time>
      </trkpt>
      <trkpt lat="45.8434" lon="1.22065">
        <ele>280.7</ele>
        <time>2024-10-21T10:27:37Z</time>
      </trkpt>
      <trkpt lat="45.84341" lon="1.22066">
        <ele>280.7</ele>
        <time>2024-10-21T10:27:38Z</time>
      </trkpt>
      <trkpt lat="45.84343" lon="1.22069">
        <ele>280.7</ele>
        <time>2024-10-21T10:27:39Z</time>
      </trkpt>
      <trkpt lat="45.84344" lon="1.22071">
        <ele>280.7</ele>
        <time>2024-10-21T10:27:40Z</time>
      </trkpt>
      <trkpt lat="45.84344" lon="1.22072">
        <ele>280.7</ele>
        <time>2024-10-21T10:27:41Z</time>
      </trkpt>
      <trkpt lat="45.84346" lon="1.22073">
        <ele>280.7</ele>
        <time>2024-10-21T10:27:42Z</time>
      </trkpt>
      <trkpt lat="45.84347" lon="1.22073">
        <ele>280.7</ele>
        <time>2024-10-21T10:27:43Z</time>
      </trkpt>
      <trkpt lat="45.84349" lon="1.22075">
        <ele>280.7</ele>
        <time>2024-10-21T10:27:44Z</time>
      </trkpt>
      <trkpt lat="45.8435" lon="1.22075">
        <ele>280.7</ele>
        <time>2024-10-21T10:27:45Z</time>
      </trkpt>
      <trkpt lat="45.84351" lon="1.22075">
        <ele>280.7</ele>
        <time>2024-10-21T10:27:46Z</time>
      </trkpt>
      <trkpt lat="45.84352" lon="1.22076">
        <ele>280.7</ele>
        <time>2024-10-21T10:27:47Z</time>
      </trkpt>
      <trkpt lat="45.84353" lon="1.22077">
        <ele>280.7</ele>
        <time>2024-10-21T10:27:48Z</time>
      </trkpt>
      <trkpt lat="45.84356" lon="1.22078">
        <ele>280.7</ele>
        <time>2024-10-21T10:27:49Z</time>
      </trkpt>
      <trkpt lat="45.84357" lon="1.22079">
        <ele>280.7</ele>
        <time>2024-10-21T10:27:50Z</time>
      </trkpt>
      <trkpt lat="45.84358" lon="1.22079">
        <ele>280.8</ele>
        <time>2024-10-21T10:27:51Z</time>
      </trkpt>
      <trkpt lat="45.84359" lon="1.2208">
        <ele>280.8</ele>
        <time>2024-10-21T10:27:52Z</time>
      </trkpt>
      <trkpt lat="45.84361" lon="1.2208">
        <ele>280.8</ele>
        <time>2024-10-21T10:27:53Z</time>
      </trkpt>
      <trkpt lat="45.84362" lon="1.22081">
        <ele>280.8</ele>
        <time>2024-10-21T10:27:54Z</time>
      </trkpt>
      <trkpt lat="45.84363" lon="1.22081">
        <ele>280.8</ele>
        <time>2024-10-21T10:27:55Z</time>
      </trkpt>
      <trkpt lat="45.84367" lon="1.22081">
        <ele>280.8</ele>
        <time>2024-10-21T10:27:56Z</time>
      </trkpt>
      <trkpt lat="45.84369" lon="1.22082">
        <ele>280.8</ele>
        <time>2024-10-21T10:27:58Z</time>
      </trkpt>
      <trkpt lat="45.8437" lon="1.22082">
        <ele>280.8</ele>
        <time>2024-10-21T10:27:59Z</time>
      </trkpt>
      <trkpt lat="45.84372" lon="1.22083">
        <ele>280.8</ele>
        <time>2024-10-21T10:28:00Z</time>
      </trkpt>
      <trkpt lat="45.84373" lon="1.22083">
        <ele>280.8</ele>
        <time>2024-10-21T10:28:01Z</time>
      </trkpt>
      <trkpt lat="45.84374" lon="1.22084">
        <ele>280.8</ele>
        <time>2024-10-21T10:28:02Z</time>
      </trkpt>
      <trkpt lat="45.84375" lon="1.22084">
        <ele>280.8</ele>
        <time>2024-10-21T10:28:03Z</time>
      </trkpt>
      <trkpt lat="45.84375" lon="1.22085">
        <ele>280.8</ele>
        <time>2024-10-21T10:28:04Z</time>
      </trkpt>
      <trkpt lat="45.84378" lon="1.22085">
        <ele>280.8</ele>
        <time>2024-10-21T10:28:05Z</time>
      </trkpt>
      <trkpt lat="45.84379" lon="1.22085">
        <ele>280.8</ele>
        <time>2024-10-21T10:28:06Z</time>
      </trkpt>
      <trkpt lat="45.84381" lon="1.22086">
        <ele>280.8</ele>
        <time>2024-10-21T10:28:07Z</time>
      </trkpt>
      <trkpt lat="45.84382" lon="1.22086">
        <ele>280.8</ele>
        <time>2024-10-21T10:28:08Z</time>
      </trkpt>
      <trkpt lat="45.84383" lon="1.22087">
        <ele>280.8</ele>
        <time>2024-10-21T10:28:09Z</time>
      </trkpt>
      <trkpt lat="45.84384" lon="1.22088">
        <ele>280.8</ele>
        <time>2024-10-21T10:28:10Z</time>
      </trkpt>
      <trkpt lat="45.84386" lon="1.22088">
        <ele>280.8</ele>
        <time>2024-10-21T10:28:11Z</time>
      </trkpt>
      <trkpt lat="45.84388" lon="1.22089">
        <ele>280.8</ele>
        <time>2024-10-21T10:28:12Z</time>
      </trkpt>
      <trkpt lat="45.8439" lon="1.2209">
        <ele>280.8</ele>
        <time>2024-10-21T10:28:13Z</time>
      </trkpt>
      <trkpt lat="45.84391" lon="1.2209">
        <ele>280.8</ele>
        <time>2024-10-21T10:28:14Z</time>
      </trkpt>
      <trkpt lat="45.84391" lon="1.2209">
        <ele>280.8</ele>
        <time>2024-10-21T10:28:15Z</time>
      </trkpt>
      <trkpt lat="45.84392" lon="1.2209">
        <ele>280.8</ele>
        <time>2024-10-21T10:28:16Z</time>
      </trkpt>
      <trkpt lat="45.84393" lon="1.22091">
        <ele>280.8</ele>
        <time>2024-10-21T10:28:17Z</time>
      </trkpt>
      <trkpt lat="45.84394" lon="1.22092">
        <ele>280.8</ele>
        <time>2024-10-21T10:28:18Z</time>
      </trkpt>
      <trkpt lat="45.84395" lon="1.22093">
        <ele>280.8</ele>
        <time>2024-10-21T10:28:19Z</time>
      </trkpt>
      <trkpt lat="45.84397" lon="1.22095">
        <ele>280.6</ele>
        <time>2024-10-21T10:28:20Z</time>
      </trkpt>
      <trkpt lat="45.84397" lon="1.22096">
        <ele>280.6</ele>
        <time>2024-10-21T10:28:21Z</time>
      </trkpt>
      <trkpt lat="45.84398" lon="1.22097">
        <ele>280.6</ele>
        <time>2024-10-21T10:28:22Z</time>
      </trkpt>
      <trkpt lat="45.84398" lon="1.22099">
        <ele>280.5</ele>
        <time>2024-10-21T10:28:23Z</time>
      </trkpt>
      <trkpt lat="45.84399" lon="1.221">
        <ele>280.4</ele>
        <time>2024-10-21T10:28:24Z</time>
      </trkpt>
      <trkpt lat="45.844" lon="1.22101">
        <ele>280.4</ele>
        <time>2024-10-21T10:28:25Z</time>
      </trkpt>
      <trkpt lat="45.84401" lon="1.22102">
        <ele>280.4</ele>
        <time>2024-10-21T10:28:26Z</time>
      </trkpt>
      <trkpt lat="45.84402" lon="1.22104">
        <ele>280.3</ele>
        <time>2024-10-21T10:28:27Z</time>
      </trkpt>
      <trkpt lat="45.84403" lon="1.22104">
        <ele>280.3</ele>
        <time>2024-10-21T10:28:28Z</time>
      </trkpt>
      <trkpt lat="45.84404" lon="1.22105">
        <ele>280.3</ele>
        <time>2024-10-21T10:28:29Z</time>
      </trkpt>
      <trkpt lat="45.84404" lon="1.22106">
        <ele>280.3</ele>
        <time>2024-10-21T10:28:30Z</time>
      </trkpt>
      <trkpt lat="45.84405" lon="1.22107">
        <ele>280.3</ele>
        <time>2024-10-21T10:28:31Z</time>
      </trkpt>
      <trkpt lat="45.84406" lon="1.22109">
        <ele>280.2</ele>
        <time>2024-10-21T10:28:32Z</time>
      </trkpt>
      <trkpt lat="45.84407" lon="1.22111">
        <ele>280.2</ele>
        <time>2024-10-21T10:28:33Z</time>
      </trkpt>
      <trkpt lat="45.84407" lon="1.22112">
        <ele>280.1</ele>
        <time>2024-10-21T10:28:34Z</time>
      </trkpt>
      <trkpt lat="45.84408" lon="1.22113">
        <ele>280.1</ele>
        <time>2024-10-21T10:28:35Z</time>
      </trkpt>
      <trkpt lat="45.84409" lon="1.22114">
        <ele>280.1</ele>
        <time>2024-10-21T10:28:36Z</time>
      </trkpt>
      <trkpt lat="45.8441" lon="1.22115">
        <ele>280.1</ele>
        <time>2024-10-21T10:28:37Z</time>
      </trkpt>
      <trkpt lat="45.84411" lon="1.22117">
        <ele>280.1</ele>
        <time>2024-10-21T10:28:38Z</time>
      </trkpt>
      <trkpt lat="45.84411" lon="1.22119">
        <ele>280.1</ele>
        <time>2024-10-21T10:28:39Z</time>
      </trkpt>
      <trkpt lat="45.84411" lon="1.22121">
        <ele>280</ele>
        <time>2024-10-21T10:28:40Z</time>
      </trkpt>
      <trkpt lat="45.84411" lon="1.22122">
        <ele>280</ele>
        <time>2024-10-21T10:28:42Z</time>
      </trkpt>
      <trkpt lat="45.84412" lon="1.22123">
        <ele>280</ele>
        <time>2024-10-21T10:28:43Z</time>
      </trkpt>
      <trkpt lat="45.84412" lon="1.22124">
        <ele>279.9</ele>
        <time>2024-10-21T10:28:44Z</time>
      </trkpt>
      <trkpt lat="45.84413" lon="1.22125">
        <ele>279.9</ele>
        <time>2024-10-21T10:28:45Z</time>
      </trkpt>
      <trkpt lat="45.84413" lon="1.22127">
        <ele>279.9</ele>
        <time>2024-10-21T10:28:46Z</time>
      </trkpt>
      <trkpt lat="45.84414" lon="1.22129">
        <ele>279.8</ele>
        <time>2024-10-21T10:28:47Z</time>
      </trkpt>
      <trkpt lat="45.84414" lon="1.22131">
        <ele>279.8</ele>
        <time>2024-10-21T10:28:48Z</time>
      </trkpt>
      <trkpt lat="45.84414" lon="1.22132">
        <ele>279.8</ele>
        <time>2024-10-21T10:28:49Z</time>
      </trkpt>
      <trkpt lat="45.84415" lon="1.22133">
        <ele>279.7</ele>
        <time>2024-10-21T10:28:50Z</time>
      </trkpt>
      <trkpt lat="45.84415" lon="1.22135">
        <ele>279.7</ele>
        <time>2024-10-21T10:28:51Z</time>
      </trkpt>
      <trkpt lat="45.84415" lon="1.22138">
        <ele>279.6</ele>
        <time>2024-10-21T10:28:52Z</time>
      </trkpt>
      <trkpt lat="45.84415" lon="1.22139">
        <ele>279.6</ele>
        <time>2024-10-21T10:28:53Z</time>
      </trkpt>
      <trkpt lat="45.84416" lon="1.2214">
        <ele>279.6</ele>
        <time>2024-10-21T10:28:54Z</time>
      </trkpt>
      <trkpt lat="45.84416" lon="1.22142">
        <ele>279.5</ele>
        <time>2024-10-21T10:28:55Z</time>
      </trkpt>
      <trkpt lat="45.84416" lon="1.22144">
        <ele>279.5</ele>
        <time>2024-10-21T10:28:56Z</time>
      </trkpt>
      <trkpt lat="45.84416" lon="1.22145">
        <ele>279.5</ele>
        <time>2024-10-21T10:28:57Z</time>
      </trkpt>
      <trkpt lat="45.84415" lon="1.22146">
        <ele>279.3</ele>
        <time>2024-10-21T10:28:58Z</time>
      </trkpt>
      <trkpt lat="45.84416" lon="1.22147">
        <ele>279.3</ele>
        <time>2024-10-21T10:28:59Z</time>
      </trkpt>
      <trkpt lat="45.84416" lon="1.22147">
        <ele>279.3</ele>
        <time>2024-10-21T10:29:00Z</time>
      </trkpt>
      <trkpt lat="45.84416" lon="1.22147">
        <ele>279.3</ele>
        <time>2024-10-21T10:29:01Z</time>
      </trkpt>
      <trkpt lat="45.84416" lon="1.22148">
        <ele>279.3</ele>
        <time>2024-10-21T10:29:02Z</time>
      </trkpt>
      <trkpt lat="45.84416" lon="1.22149">
        <ele>279.3</ele>
        <time>2024-10-21T10:29:03Z</time>
      </trkpt>
      <trkpt lat="45.84415" lon="1.2215">
        <ele>279.2</ele>
        <time>2024-10-21T10:29:04Z</time>
      </trkpt>
      <trkpt lat="45.84415" lon="1.22151">
        <ele>279.2</ele>
        <time>2024-10-21T10:29:05Z</time>
      </trkpt>
      <trkpt lat="45.84416" lon="1.22153">
        <ele>279.2</ele>
        <time>2024-10-21T10:29:06Z</time>
      </trkpt>
      <trkpt lat="45.84416" lon="1.22155">
        <ele>279.1</ele>
        <time>2024-10-21T10:29:07Z</time>
      </trkpt>
      <trkpt lat="45.84416" lon="1.22155">
        <ele>279.1</ele>
        <time>2024-10-21T10:29:08Z</time>
      </trkpt>
      <trkpt lat="45.84415" lon="1.22156">
        <ele>279.1</ele>
        <time>2024-10-21T10:29:09Z</time>
      </trkpt>
      <trkpt lat="45.84415" lon="1.22157">
        <ele>279.1</ele>
        <time>2024-10-21T10:29:10Z</time>
      </trkpt>
      <trkpt lat="45.84414" lon="1.22159">
        <ele>279</ele>
        <time>2024-10-21T10:29:11Z</time>
      </trkpt>
      <trkpt lat="45.84414" lon="1.22159">
        <ele>279</ele>
        <time>2024-10-21T10:29:12Z</time>
      </trkpt>
      <trkpt lat="45.84414" lon="1.2216">
        <ele>279</ele>
        <time>2024-10-21T10:29:13Z</time>
      </trkpt>
      <trkpt lat="45.84414" lon="1.22161">
        <ele>279</ele>
        <time>2024-10-21T10:29:14Z</time>
      </trkpt>
      <trkpt lat="45.84414" lon="1.22159">
        <ele>279</ele>
        <time>2024-10-21T10:29:15Z</time>
      </trkpt>
      <trkpt lat="45.84415" lon="1.22157">
        <ele>279.1</ele>
        <time>2024-10-21T10:29:16Z</time>
      </trkpt>
      <trkpt lat="45.84414" lon="1.22156">
        <ele>279.1</ele>
        <time>2024-10-21T10:29:17Z</time>
      </trkpt>
      <trkpt lat="45.84414" lon="1.22155">
        <ele>279</ele>
        <time>2024-10-21T10:29:18Z</time>
      </trkpt>
      <trkpt lat="45.84413" lon="1.22154">
        <ele>279</ele>
        <time>2024-10-21T10:29:19Z</time>
      </trkpt>
      <trkpt lat="45.84413" lon="1.22154">
        <ele>279.1</ele>
        <time>2024-10-21T10:29:20Z</time>
      </trkpt>
      <trkpt lat="45.84412" lon="1.22153">
        <ele>279.1</ele>
        <time>2024-10-21T10:29:21Z</time>
      </trkpt>
      <trkpt lat="45.84412" lon="1.22153">
        <ele>279.1</ele>
        <time>2024-10-21T10:29:22Z</time>
      </trkpt>
      <trkpt lat="45.84412" lon="1.22153">
        <ele>279.1</ele>
        <time>2024-10-21T10:29:23Z</time>
      </trkpt>
      <trkpt lat="45.84412" lon="1.22153">
        <ele>279.1</ele>
        <time>2024-10-21T10:29:24Z</time>
      </trkpt>
      <trkpt lat="45.84412" lon="1.22152">
        <ele>279.1</ele>
        <time>2024-10-21T10:29:25Z</time>
      </trkpt>
      <trkpt lat="45.84412" lon="1.22152">
        <ele>279.1</ele>
        <time>2024-10-21T10:29:26Z</time>
      </trkpt>
      <trkpt lat="45.84412" lon="1.22152">
        <ele>279.1</ele>
        <time>2024-10-21T10:29:27Z</time>
      </trkpt>
      <trkpt lat="45.84412" lon="1.22152">
        <ele>279.1</ele>
        <time>2024-10-21T10:29:28Z</time>
      </trkpt>
      <trkpt lat="45.84411" lon="1.22152">
        <ele>279.1</ele>
        <time>2024-10-21T10:29:29Z</time>
      </trkpt>
      <trkpt lat="45.84411" lon="1.22153">
        <ele>279.1</ele>
        <time>2024-10-21T10:29:30Z</time>
      </trkpt>
      <trkpt lat="45.84411" lon="1.22154">
        <ele>279.1</ele>
        <time>2024-10-21T10:29:31Z</time>
      </trkpt>
      <trkpt lat="45.84412" lon="1.22156">
        <ele>279</ele>
        <time>2024-10-21T10:29:32Z</time>
      </trkpt>
      <trkpt lat="45.84412" lon="1.22157">
        <ele>279</ele>
        <time>2024-10-21T10:29:33Z</time>
      </trkpt>
      <trkpt lat="45.84413" lon="1.22159">
        <ele>278.9</ele>
        <time>2024-10-21T10:29:34Z</time>
      </trkpt>
      <trkpt lat="45.84415" lon="1.22162">
        <ele>278.9</ele>
        <time>2024-10-21T10:29:35Z</time>
      </trkpt>
      <trkpt lat="45.84416" lon="1.22163">
        <ele>278.9</ele>
        <time>2024-10-21T10:29:36Z</time>
      </trkpt>
      <trkpt lat="45.84417" lon="1.22164">
        <ele>278.9</ele>
        <time>2024-10-21T10:29:37Z</time>
      </trkpt>
      <trkpt lat="45.84418" lon="1.22165">
        <ele>278.9</ele>
        <time>2024-10-21T10:29:38Z</time>
      </trkpt>
      <trkpt lat="45.84419" lon="1.22166">
        <ele>278.9</ele>
        <time>2024-10-21T10:29:39Z</time>
      </trkpt>
      <trkpt lat="45.84419" lon="1.22166">
        <ele>278.9</ele>
        <time>2024-10-21T10:29:40Z</time>
      </trkpt>
      <trkpt lat="45.84421" lon="1.22167">
        <ele>278.9</ele>
        <time>2024-10-21T10:29:41Z</time>
      </trkpt>
      <trkpt lat="45.84422" lon="1.22169">
        <ele>278.8</ele>
        <time>2024-10-21T10:29:42Z</time>
      </trkpt>
      <trkpt lat="45.84423" lon="1.2217">
        <ele>278.9</ele>
        <time>2024-10-21T10:29:44Z</time>
      </trkpt>
      <trkpt lat="45.84424" lon="1.22171">
        <ele>278.9</ele>
        <time>2024-10-21T10:29:45Z</time>
      </trkpt>
      <trkpt lat="45.84425" lon="1.22172">
        <ele>278.8</ele>
        <time>2024-10-21T10:29:46Z</time>
      </trkpt>
      <trkpt lat="45.84425" lon="1.22173">
        <ele>278.8</ele>
        <time>2024-10-21T10:29:47Z</time>
      </trkpt>
      <trkpt lat="45.84426" lon="1.22174">
        <ele>278.8</ele>
        <time>2024-10-21T10:29:48Z</time>
      </trkpt>
      <trkpt lat="45.84426" lon="1.22175">
        <ele>278.8</ele>
        <time>2024-10-21T10:29:49Z</time>
      </trkpt>
      <trkpt lat="45.84426" lon="1.22176">
        <ele>278.7</ele>
        <time>2024-10-21T10:29:50Z</time>
      </trkpt>
      <trkpt lat="45.84425" lon="1.22178">
        <ele>278.7</ele>
        <time>2024-10-21T10:29:51Z</time>
      </trkpt>
      <trkpt lat="45.84425" lon="1.22179">
        <ele>278.7</ele>
        <time>2024-10-21T10:29:52Z</time>
      </trkpt>
      <trkpt lat="45.84425" lon="1.2218">
        <ele>278.6</ele>
        <time>2024-10-21T10:29:53Z</time>
      </trkpt>
      <trkpt lat="45.84425" lon="1.22182">
        <ele>278.5</ele>
        <time>2024-10-21T10:29:54Z</time>
      </trkpt>
      <trkpt lat="45.84425" lon="1.22183">
        <ele>278.5</ele>
        <time>2024-10-21T10:29:55Z</time>
      </trkpt>
      <trkpt lat="45.84425" lon="1.22187">
        <ele>278.4</ele>
        <time>2024-10-21T10:29:56Z</time>
      </trkpt>
      <trkpt lat="45.84425" lon="1.22188">
        <ele>278.4</ele>
        <time>2024-10-21T10:29:57Z</time>
      </trkpt>
      <trkpt lat="45.84425" lon="1.2219">
        <ele>278.3</ele>
        <time>2024-10-21T10:29:58Z</time>
      </trkpt>
      <trkpt lat="45.84425" lon="1.22192">
        <ele>278.3</ele>
        <time>2024-10-21T10:29:59Z</time>
      </trkpt>
      <trkpt lat="45.84425" lon="1.22193">
        <ele>278.2</ele>
        <time>2024-10-21T10:30:00Z</time>
      </trkpt>
      <trkpt lat="45.84424" lon="1.22197">
        <ele>278.2</ele>
        <time>2024-10-21T10:30:01Z</time>
      </trkpt>
      <trkpt lat="45.84424" lon="1.22199">
        <ele>278.1</ele>
        <time>2024-10-21T10:30:02Z</time>
      </trkpt>
      <trkpt lat="45.84424" lon="1.222">
        <ele>278.1</ele>
        <time>2024-10-21T10:30:03Z</time>
      </trkpt>
      <trkpt lat="45.84424" lon="1.22202">
        <ele>278.1</ele>
        <time>2024-10-21T10:30:04Z</time>
      </trkpt>
      <trkpt lat="45.84424" lon="1.22204">
        <ele>278.1</ele>
        <time>2024-10-21T10:30:05Z</time>
      </trkpt>
      <trkpt lat="45.84424" lon="1.22206">
        <ele>278</ele>
        <time>2024-10-21T10:30:06Z</time>
      </trkpt>
      <trkpt lat="45.84424" lon="1.22207">
        <ele>278</ele>
        <time>2024-10-21T10:30:07Z</time>
      </trkpt>
      <trkpt lat="45.84425" lon="1.22208">
        <ele>278</ele>
        <time>2024-10-21T10:30:08Z</time>
      </trkpt>
      <trkpt lat="45.84426" lon="1.22209">
        <ele>278</ele>
        <time>2024-10-21T10:30:09Z</time>
      </trkpt>
      <trkpt lat="45.84427" lon="1.22212">
        <ele>277.9</ele>
        <time>2024-10-21T10:30:10Z</time>
      </trkpt>
      <trkpt lat="45.84427" lon="1.22214">
        <ele>277.9</ele>
        <time>2024-10-21T10:30:11Z</time>
      </trkpt>
      <trkpt lat="45.84427" lon="1.22216">
        <ele>277.8</ele>
        <time>2024-10-21T10:30:12Z</time>
      </trkpt>
      <trkpt lat="45.84428" lon="1.22218">
        <ele>277.8</ele>
        <time>2024-10-21T10:30:13Z</time>
      </trkpt>
      <trkpt lat="45.84428" lon="1.22219">
        <ele>277.8</ele>
        <time>2024-10-21T10:30:14Z</time>
      </trkpt>
      <trkpt lat="45.84426" lon="1.22224">
        <ele>277.8</ele>
        <time>2024-10-21T10:30:15Z</time>
      </trkpt>
      <trkpt lat="45.84426" lon="1.22224">
        <ele>277.8</ele>
        <time>2024-10-21T10:30:16Z</time>
      </trkpt>
      <trkpt lat="45.84426" lon="1.22225">
        <ele>277.7</ele>
        <time>2024-10-21T10:30:17Z</time>
      </trkpt>
      <trkpt lat="45.84427" lon="1.22227">
        <ele>277.7</ele>
        <time>2024-10-21T10:30:18Z</time>
      </trkpt>
      <trkpt lat="45.84427" lon="1.22229">
        <ele>277.7</ele>
        <time>2024-10-21T10:30:19Z</time>
      </trkpt>
      <trkpt lat="45.84427" lon="1.22232">
        <ele>277.6</ele>
        <time>2024-10-21T10:30:20Z</time>
      </trkpt>
      <trkpt lat="45.84427" lon="1.22234">
        <ele>277.6</ele>
        <time>2024-10-21T10:30:21Z</time>
      </trkpt>
      <trkpt lat="45.84427" lon="1.22235">
        <ele>277.6</ele>
        <time>2024-10-21T10:30:22Z</time>
      </trkpt>
      <trkpt lat="45.84427" lon="1.22237">
        <ele>277.6</ele>
        <time>2024-10-21T10:30:23Z</time>
      </trkpt>
      <trkpt lat="45.84428" lon="1.22238">
        <ele>277.6</ele>
        <time>2024-10-21T10:30:24Z</time>
      </trkpt>
      <trkpt lat="45.84429" lon="1.2224">
        <ele>277.5</ele>
        <time>2024-10-21T10:30:25Z</time>
      </trkpt>
      <trkpt lat="45.84429" lon="1.22243">
        <ele>277.5</ele>
        <time>2024-10-21T10:30:26Z</time>
      </trkpt>
      <trkpt lat="45.84429" lon="1.22244">
        <ele>277.5</ele>
        <time>2024-10-21T10:30:27Z</time>
      </trkpt>
      <trkpt lat="45.8443" lon="1.22246">
        <ele>277.4</ele>
        <time>2024-10-21T10:30:28Z</time>
      </trkpt>
      <trkpt lat="45.8443" lon="1.22248">
        <ele>277.4</ele>
        <time>2024-10-21T10:30:29Z</time>
      </trkpt>
      <trkpt lat="45.84431" lon="1.22249">
        <ele>277.4</ele>
        <time>2024-10-21T10:30:30Z</time>
      </trkpt>
      <trkpt lat="45.84432" lon="1.22252">
        <ele>277.4</ele>
        <time>2024-10-21T10:30:31Z</time>
      </trkpt>
      <trkpt lat="45.84432" lon="1.22253">
        <ele>277.3</ele>
        <time>2024-10-21T10:30:32Z</time>
      </trkpt>
      <trkpt lat="45.84433" lon="1.22255">
        <ele>277.3</ele>
        <time>2024-10-21T10:30:33Z</time>
      </trkpt>
      <trkpt lat="45.84433" lon="1.22257">
        <ele>277.3</ele>
        <time>2024-10-21T10:30:34Z</time>
      </trkpt>
      <trkpt lat="45.84433" lon="1.22258">
        <ele>277.3</ele>
        <time>2024-10-21T10:30:35Z</time>
      </trkpt>
      <trkpt lat="45.84434" lon="1.22261">
        <ele>277.2</ele>
        <time>2024-10-21T10:30:36Z</time>
      </trkpt>
      <trkpt lat="45.84434" lon="1.22263">
        <ele>277.2</ele>
        <time>2024-10-21T10:30:37Z</time>
      </trkpt>
      <trkpt lat="45.84434" lon="1.22265">
        <ele>277.2</ele>
        <time>2024-10-21T10:30:38Z</time>
      </trkpt>
      <trkpt lat="45.84435" lon="1.22266">
        <ele>277.2</ele>
        <time>2024-10-21T10:30:39Z</time>
      </trkpt>
      <trkpt lat="45.84436" lon="1.22268">
        <ele>277.1</ele>
        <time>2024-10-21T10:30:40Z</time>
      </trkpt>
      <trkpt lat="45.84435" lon="1.22271">
        <ele>277.1</ele>
        <time>2024-10-21T10:30:41Z</time>
      </trkpt>
      <trkpt lat="45.84434" lon="1.22273">
        <ele>277.1</ele>
        <time>2024-10-21T10:30:42Z</time>
      </trkpt>
      <trkpt lat="45.84435" lon="1.22275">
        <ele>277</ele>
        <time>2024-10-21T10:30:43Z</time>
      </trkpt>
      <trkpt lat="45.84436" lon="1.22278">
        <ele>277</ele>
        <time>2024-10-21T10:30:44Z</time>
      </trkpt>
      <trkpt lat="45.84436" lon="1.2228">
        <ele>277</ele>
        <time>2024-10-21T10:30:45Z</time>
      </trkpt>
      <trkpt lat="45.84437" lon="1.22281">
        <ele>277</ele>
        <time>2024-10-21T10:30:46Z</time>
      </trkpt>
      <trkpt lat="45.84437" lon="1.22282">
        <ele>277</ele>
        <time>2024-10-21T10:30:47Z</time>
      </trkpt>
      <trkpt lat="45.84438" lon="1.22283">
        <ele>277</ele>
        <time>2024-10-21T10:30:48Z</time>
      </trkpt>
      <trkpt lat="45.8444" lon="1.22286">
        <ele>277</ele>
        <time>2024-10-21T10:30:49Z</time>
      </trkpt>
      <trkpt lat="45.8444" lon="1.22286">
        <ele>277</ele>
        <time>2024-10-21T10:30:50Z</time>
      </trkpt>
      <trkpt lat="45.84441" lon="1.22287">
        <ele>277</ele>
        <time>2024-10-21T10:30:51Z</time>
      </trkpt>
      <trkpt lat="45.84442" lon="1.22288">
        <ele>277</ele>
        <time>2024-10-21T10:30:52Z</time>
      </trkpt>
      <trkpt lat="45.84443" lon="1.22289">
        <ele>277.1</ele>
        <time>2024-10-21T10:30:53Z</time>
      </trkpt>
      <trkpt lat="45.84444" lon="1.2229">
        <ele>277.1</ele>
        <time>2024-10-21T10:30:54Z</time>
      </trkpt>
      <trkpt lat="45.84445" lon="1.2229">
        <ele>277.1</ele>
        <time>2024-10-21T10:30:55Z</time>
      </trkpt>
      <trkpt lat="45.84447" lon="1.22292">
        <ele>277.1</ele>
        <time>2024-10-21T10:30:56Z</time>
      </trkpt>
      <trkpt lat="45.84448" lon="1.22292">
        <ele>277.1</ele>
        <time>2024-10-21T10:30:57Z</time>
      </trkpt>
      <trkpt lat="45.84448" lon="1.22292">
        <ele>277.1</ele>
        <time>2024-10-21T10:30:58Z</time>
      </trkpt>
      <trkpt lat="45.84451" lon="1.22292">
        <ele>277.1</ele>
        <time>2024-10-21T10:30:59Z</time>
      </trkpt>
      <trkpt lat="45.84452" lon="1.22292">
        <ele>277.1</ele>
        <time>2024-10-21T10:31:00Z</time>
      </trkpt>
      <trkpt lat="45.84453" lon="1.22292">
        <ele>277.1</ele>
        <time>2024-10-21T10:31:01Z</time>
      </trkpt>
      <trkpt lat="45.84454" lon="1.22292">
        <ele>277.1</ele>
        <time>2024-10-21T10:31:02Z</time>
      </trkpt>
      <trkpt lat="45.84455" lon="1.22293">
        <ele>277.1</ele>
        <time>2024-10-21T10:31:04Z</time>
      </trkpt>
      <trkpt lat="45.84455" lon="1.22294">
        <ele>277.2</ele>
        <time>2024-10-21T10:31:05Z</time>
      </trkpt>
      <trkpt lat="45.84456" lon="1.22295">
        <ele>277.2</ele>
        <time>2024-10-21T10:31:06Z</time>
      </trkpt>
      <trkpt lat="45.84456" lon="1.22294">
        <ele>277.2</ele>
        <time>2024-10-21T10:31:07Z</time>
      </trkpt>
      <trkpt lat="45.84455" lon="1.22293">
        <ele>277.2</ele>
        <time>2024-10-21T10:31:08Z</time>
      </trkpt>
      <trkpt lat="45.84455" lon="1.22292">
        <ele>277.2</ele>
        <time>2024-10-21T10:31:09Z</time>
      </trkpt>
      <trkpt lat="45.84455" lon="1.22292">
        <ele>277.2</ele>
        <time>2024-10-21T10:31:10Z</time>
      </trkpt>
      <trkpt lat="45.84455" lon="1.22291">
        <ele>277.2</ele>
        <time>2024-10-21T10:31:11Z</time>
      </trkpt>
      <trkpt lat="45.84455" lon="1.22291">
        <ele>277.2</ele>
        <time>2024-10-21T10:31:12Z</time>
      </trkpt>
      <trkpt lat="45.84455" lon="1.22291">
        <ele>277.2</ele>
        <time>2024-10-21T10:31:13Z</time>
      </trkpt>
      <trkpt lat="45.84455" lon="1.22291">
        <ele>277.2</ele>
        <time>2024-10-21T10:31:14Z</time>
      </trkpt>
      <trkpt lat="45.84456" lon="1.22291">
        <ele>277.2</ele>
        <time>2024-10-21T10:31:15Z</time>
      </trkpt>
      <trkpt lat="45.84456" lon="1.22291">
        <ele>277.2</ele>
        <time>2024-10-21T10:31:16Z</time>
      </trkpt>
      <trkpt lat="45.84457" lon="1.22291">
        <ele>277.2</ele>
        <time>2024-10-21T10:31:17Z</time>
      </trkpt>
      <trkpt lat="45.84458" lon="1.22291">
        <ele>277.2</ele>
        <time>2024-10-21T10:31:18Z</time>
      </trkpt>
      <trkpt lat="45.8446" lon="1.22291">
        <ele>277.2</ele>
        <time>2024-10-21T10:31:19Z</time>
      </trkpt>
      <trkpt lat="45.84461" lon="1.22291">
        <ele>277.2</ele>
        <time>2024-10-21T10:31:20Z</time>
      </trkpt>
      <trkpt lat="45.84463" lon="1.2229">
        <ele>277.2</ele>
        <time>2024-10-21T10:31:21Z</time>
      </trkpt>
      <trkpt lat="45.84463" lon="1.2229">
        <ele>277.2</ele>
        <time>2024-10-21T10:31:22Z</time>
      </trkpt>
      <trkpt lat="45.84464" lon="1.2229">
        <ele>277.3</ele>
        <time>2024-10-21T10:31:23Z</time>
      </trkpt>
      <trkpt lat="45.84464" lon="1.22289">
        <ele>277.3</ele>
        <time>2024-10-21T10:31:24Z</time>
      </trkpt>
      <trkpt lat="45.84465" lon="1.22289">
        <ele>277.3</ele>
        <time>2024-10-21T10:31:25Z</time>
      </trkpt>
      <trkpt lat="45.84464" lon="1.22288">
        <ele>277.3</ele>
        <time>2024-10-21T10:31:26Z</time>
      </trkpt>
      <trkpt lat="45.84464" lon="1.22288">
        <ele>277.3</ele>
        <time>2024-10-21T10:31:27Z</time>
      </trkpt>
      <trkpt lat="45.84464" lon="1.22288">
        <ele>277.3</ele>
        <time>2024-10-21T10:31:28Z</time>
      </trkpt>
      <trkpt lat="45.84464" lon="1.22288">
        <ele>277.3</ele>
        <time>2024-10-21T10:31:29Z</time>
      </trkpt>
      <trkpt lat="45.84465" lon="1.22288">
        <ele>277.3</ele>
        <time>2024-10-21T10:31:30Z</time>
      </trkpt>
      <trkpt lat="45.84465" lon="1.22288">
        <ele>277.3</ele>
        <time>2024-10-21T10:31:31Z</time>
      </trkpt>
      <trkpt lat="45.84465" lon="1.22288">
        <ele>277.3</ele>
        <time>2024-10-21T10:31:32Z</time>
      </trkpt>
      <trkpt lat="45.84465" lon="1.22288">
        <ele>277.3</ele>
        <time>2024-10-21T10:31:33Z</time>
      </trkpt>
      <trkpt lat="45.84465" lon="1.22287">
        <ele>277.3</ele>
        <time>2024-10-21T10:31:34Z</time>
      </trkpt>
      <trkpt lat="45.84465" lon="1.22287">
        <ele>277.3</ele>
        <time>2024-10-21T10:31:35Z</time>
      </trkpt>
      <trkpt lat="45.84466" lon="1.22285">
        <ele>277.3</ele>
        <time>2024-10-21T10:31:36Z</time>
      </trkpt>
      <trkpt lat="45.84466" lon="1.22284">
        <ele>277.3</ele>
        <time>2024-10-21T10:31:37Z</time>
      </trkpt>
      <trkpt lat="45.84466" lon="1.22284">
        <ele>277.3</ele>
        <time>2024-10-21T10:31:38Z</time>
      </trkpt>
      <trkpt lat="45.84466" lon="1.22283">
        <ele>277.3</ele>
        <time>2024-10-21T10:31:39Z</time>
      </trkpt>
      <trkpt lat="45.84466" lon="1.22283">
        <ele>277.3</ele>
        <time>2024-10-21T10:31:40Z</time>
      </trkpt>
      <trkpt lat="45.84466" lon="1.22284">
        <ele>277.3</ele>
        <time>2024-10-21T10:31:41Z</time>
      </trkpt>
      <trkpt lat="45.84466" lon="1.22284">
        <ele>277.3</ele>
        <time>2024-10-21T10:31:42Z</time>
      </trkpt>
      <trkpt lat="45.84466" lon="1.22284">
        <ele>277.3</ele>
        <time>2024-10-21T10:31:43Z</time>
      </trkpt>
      <trkpt lat="45.84466" lon="1.22284">
        <ele>277.3</ele>
        <time>2024-10-21T10:31:44Z</time>
      </trkpt>
      <trkpt lat="45.84466" lon="1.22284">
        <ele>277.3</ele>
        <time>2024-10-21T10:31:45Z</time>
      </trkpt>
      <trkpt lat="45.84466" lon="1.22284">
        <ele>277.3</ele>
        <time>2024-10-21T10:31:46Z</time>
      </trkpt>
      <trkpt lat="45.84466" lon="1.22284">
        <ele>277.3</ele>
        <time>2024-10-21T10:31:47Z</time>
      </trkpt>
      <trkpt lat="45.84466" lon="1.22284">
        <ele>277.3</ele>
        <time>2024-10-21T10:31:48Z</time>
      </trkpt>
      <trkpt lat="45.84466" lon="1.22284">
        <ele>277.3</ele>
        <time>2024-10-21T10:31:49Z</time>
      </trkpt>
      <trkpt lat="45.84466" lon="1.22284">
        <ele>277.3</ele>
        <time>2024-10-21T10:31:50Z</time>
      </trkpt>
      <trkpt lat="45.84466" lon="1.22284">
        <ele>277.3</ele>
        <time>2024-10-21T10:31:51Z</time>
      </trkpt>
      <trkpt lat="45.84466" lon="1.22284">
        <ele>277.3</ele>
        <time>2024-10-21T10:31:52Z</time>
      </trkpt>
      <trkpt lat="45.84466" lon="1.22284">
        <ele>277.3</ele>
        <time>2024-10-21T10:31:53Z</time>
      </trkpt>
      <trkpt lat="45.84466" lon="1.22284">
        <ele>277.3</ele>
        <time>2024-10-21T10:31:54Z</time>
      </trkpt>
      <trkpt lat="45.84466" lon="1.22284">
        <ele>277.3</ele>
        <time>2024-10-21T10:31:55Z</time>
      </trkpt>
      <trkpt lat="45.84467" lon="1.22283">
        <ele>277.3</ele>
        <time>2024-10-21T10:31:56Z</time>
      </trkpt>
      <trkpt lat="45.84467" lon="1.22283">
        <ele>277.3</ele>
        <time>2024-10-21T10:31:57Z</time>
      </trkpt>
      <trkpt lat="45.84467" lon="1.22283">
        <ele>277.3</ele>
        <time>2024-10-21T10:31:58Z</time>
      </trkpt>
      <trkpt lat="45.84467" lon="1.22283">
        <ele>277.3</ele>
        <time>2024-10-21T10:31:59Z</time>
      </trkpt>
      <trkpt lat="45.84467" lon="1.22283">
        <ele>277.3</ele>
        <time>2024-10-21T10:32:00Z</time>
      </trkpt>
      <trkpt lat="45.84468" lon="1.22282">
        <ele>277.3</ele>
        <time>2024-10-21T10:32:02Z</time>
      </trkpt>
      <trkpt lat="45.84468" lon="1.22282">
        <ele>277.3</ele>
        <time>2024-10-21T10:32:03Z</time>
      </trkpt>
      <trkpt lat="45.84468" lon="1.22281">
        <ele>277.3</ele>
        <time>2024-10-21T10:32:04Z</time>
      </trkpt>
      <trkpt lat="45.84468" lon="1.22281">
        <ele>277.3</ele>
        <time>2024-10-21T10:32:05Z</time>
      </trkpt>
      <trkpt lat="45.84469" lon="1.22281">
        <ele>277.3</ele>
        <time>2024-10-21T10:32:06Z</time>
      </trkpt>
      <trkpt lat="45.84469" lon="1.22281">
        <ele>277.3</ele>
        <time>2024-10-21T10:32:07Z</time>
      </trkpt>
      <trkpt lat="45.84469" lon="1.22281">
        <ele>277.3</ele>
        <time>2024-10-21T10:32:08Z</time>
      </trkpt>
      <trkpt lat="45.84469" lon="1.22281">
        <ele>277.3</ele>
        <time>2024-10-21T10:32:09Z</time>
      </trkpt>
      <trkpt lat="45.84469" lon="1.22281">
        <ele>277.3</ele>
        <time>2024-10-21T10:32:10Z</time>
      </trkpt>
      <trkpt lat="45.84469" lon="1.22281">
        <ele>277.3</ele>
        <time>2024-10-21T10:32:11Z</time>
      </trkpt>
      <trkpt lat="45.84469" lon="1.22281">
        <ele>277.3</ele>
        <time>2024-10-21T10:32:12Z</time>
      </trkpt>
      <trkpt lat="45.84469" lon="1.2228">
        <ele>277.3</ele>
        <time>2024-10-21T10:32:13Z</time>
      </trkpt>
      <trkpt lat="45.84469" lon="1.2228">
        <ele>277.3</ele>
        <time>2024-10-21T10:32:14Z</time>
      </trkpt>
      <trkpt lat="45.84469" lon="1.2228">
        <ele>277.3</ele>
        <time>2024-10-21T10:32:15Z</time>
      </trkpt>
      <trkpt lat="45.84471" lon="1.2228">
        <ele>277.4</ele>
        <time>2024-10-21T10:32:16Z</time>
      </trkpt>
      <trkpt lat="45.84471" lon="1.2228">
        <ele>277.4</ele>
        <time>2024-10-21T10:32:17Z</time>
      </trkpt>
      <trkpt lat="45.84471" lon="1.2228">
        <ele>277.4</ele>
        <time>2024-10-21T10:32:18Z</time>
      </trkpt>
      <trkpt lat="45.84471" lon="1.2228">
        <ele>277.4</ele>
        <time>2024-10-21T10:32:19Z</time>
      </trkpt>
      <trkpt lat="45.84471" lon="1.2228">
        <ele>277.4</ele>
        <time>2024-10-21T10:32:20Z</time>
      </trkpt>
      <trkpt lat="45.84472" lon="1.2228">
        <ele>277.4</ele>
        <time>2024-10-21T10:32:21Z</time>
      </trkpt>
      <trkpt lat="45.84472" lon="1.2228">
        <ele>277.4</ele>
        <time>2024-10-21T10:32:22Z</time>
      </trkpt>
      <trkpt lat="45.84472" lon="1.2228">
        <ele>277.4</ele>
        <time>2024-10-21T10:32:23Z</time>
      </trkpt>
      <trkpt lat="45.84472" lon="1.2228">
        <ele>277.4</ele>
        <time>2024-10-21T10:32:24Z</time>
      </trkpt>
      <trkpt lat="45.84472" lon="1.2228">
        <ele>277.4</ele>
        <time>2024-10-21T10:32:25Z</time>
      </trkpt>
      <trkpt lat="45.84472" lon="1.2228">
        <ele>277.4</ele>
        <time>2024-10-21T10:32:26Z</time>
      </trkpt>
      <trkpt lat="45.84472" lon="1.2228">
        <ele>277.4</ele>
        <time>2024-10-21T10:32:27Z</time>
      </trkpt>
      <trkpt lat="45.84472" lon="1.2228">
        <ele>277.4</ele>
        <time>2024-10-21T10:32:28Z</time>
      </trkpt>
      <trkpt lat="45.84472" lon="1.2228">
        <ele>277.4</ele>
        <time>2024-10-21T10:32:29Z</time>
      </trkpt>
      <trkpt lat="45.84473" lon="1.2228">
        <ele>277.4</ele>
        <time>2024-10-21T10:32:30Z</time>
      </trkpt>
      <trkpt lat="45.84473" lon="1.22281">
        <ele>277.4</ele>
        <time>2024-10-21T10:32:31Z</time>
      </trkpt>
      <trkpt lat="45.84474" lon="1.22281">
        <ele>277.4</ele>
        <time>2024-10-21T10:32:32Z</time>
      </trkpt>
      <trkpt lat="45.84474" lon="1.22281">
        <ele>277.4</ele>
        <time>2024-10-21T10:32:33Z</time>
      </trkpt>
      <trkpt lat="45.84474" lon="1.22281">
        <ele>277.4</ele>
        <time>2024-10-21T10:32:34Z</time>
      </trkpt>
      <trkpt lat="45.84475" lon="1.22281">
        <ele>277.4</ele>
        <time>2024-10-21T10:32:35Z</time>
      </trkpt>
      <trkpt lat="45.84475" lon="1.22281">
        <ele>277.4</ele>
        <time>2024-10-21T10:32:36Z</time>
      </trkpt>
      <trkpt lat="45.84474" lon="1.22281">
        <ele>277.4</ele>
        <time>2024-10-21T10:32:37Z</time>
      </trkpt>
      <trkpt lat="45.84474" lon="1.22281">
        <ele>277.4</ele>
        <time>2024-10-21T10:32:38Z</time>
      </trkpt>
      <trkpt lat="45.84473" lon="1.22281">
        <ele>277.4</ele>
        <time>2024-10-21T10:32:39Z</time>
      </trkpt>
      <trkpt lat="45.84473" lon="1.22281">
        <ele>277.4</ele>
        <time>2024-10-21T10:32:40Z</time>
      </trkpt>
      <trkpt lat="45.84473" lon="1.22281">
        <ele>277.4</ele>
        <time>2024-10-21T10:32:41Z</time>
      </trkpt>
      <trkpt lat="45.84473" lon="1.22281">
        <ele>277.4</ele>
        <time>2024-10-21T10:32:42Z</time>
      </trkpt>
      <trkpt lat="45.84473" lon="1.2228">
        <ele>277.4</ele>
        <time>2024-10-21T10:32:43Z</time>
      </trkpt>
      <trkpt lat="45.84473" lon="1.2228">
        <ele>277.4</ele>
        <time>2024-10-21T10:32:44Z</time>
      </trkpt>
      <trkpt lat="45.84473" lon="1.2228">
        <ele>277.4</ele>
        <time>2024-10-21T10:32:45Z</time>
      </trkpt>
      <trkpt lat="45.84473" lon="1.2228">
        <ele>277.4</ele>
        <time>2024-10-21T10:32:46Z</time>
      </trkpt>
      <trkpt lat="45.84473" lon="1.22281">
        <ele>277.4</ele>
        <time>2024-10-21T10:32:47Z</time>
      </trkpt>
      <trkpt lat="45.84473" lon="1.22281">
        <ele>277.4</ele>
        <time>2024-10-21T10:32:48Z</time>
      </trkpt>
      <trkpt lat="45.84473" lon="1.22281">
        <ele>277.4</ele>
        <time>2024-10-21T10:32:49Z</time>
      </trkpt>
      <trkpt lat="45.84473" lon="1.22281">
        <ele>277.4</ele>
        <time>2024-10-21T10:32:50Z</time>
      </trkpt>
      <trkpt lat="45.84473" lon="1.22281">
        <ele>277.4</ele>
        <time>2024-10-21T10:32:51Z</time>
      </trkpt>
      <trkpt lat="45.84474" lon="1.22281">
        <ele>277.4</ele>
        <time>2024-10-21T10:32:52Z</time>
      </trkpt>
      <trkpt lat="45.84475" lon="1.2228">
        <ele>277.4</ele>
        <time>2024-10-21T10:32:53Z</time>
      </trkpt>
      <trkpt lat="45.84476" lon="1.2228">
        <ele>277.4</ele>
        <time>2024-10-21T10:32:54Z</time>
      </trkpt>
      <trkpt lat="45.84477" lon="1.2228">
        <ele>277.5</ele>
        <time>2024-10-21T10:32:55Z</time>
      </trkpt>
      <trkpt lat="45.84477" lon="1.22279">
        <ele>277.5</ele>
        <time>2024-10-21T10:32:56Z</time>
      </trkpt>
      <trkpt lat="45.84478" lon="1.2228">
        <ele>277.5</ele>
        <time>2024-10-21T10:32:57Z</time>
      </trkpt>
      <trkpt lat="45.84478" lon="1.2228">
        <ele>277.5</ele>
        <time>2024-10-21T10:32:58Z</time>
      </trkpt>
      <trkpt lat="45.84477" lon="1.2228">
        <ele>277.5</ele>
        <time>2024-10-21T10:32:59Z</time>
      </trkpt>
      <trkpt lat="45.84476" lon="1.22281">
        <ele>277.5</ele>
        <time>2024-10-21T10:33:00Z</time>
      </trkpt>
      <trkpt lat="45.84475" lon="1.22281">
        <ele>277.5</ele>
        <time>2024-10-21T10:33:01Z</time>
      </trkpt>
      <trkpt lat="45.84475" lon="1.22281">
        <ele>277.5</ele>
        <time>2024-10-21T10:33:02Z</time>
      </trkpt>
      <trkpt lat="45.84474" lon="1.2228">
        <ele>277.5</ele>
        <time>2024-10-21T10:33:03Z</time>
      </trkpt>
      <trkpt lat="45.84474" lon="1.22281">
        <ele>277.5</ele>
        <time>2024-10-21T10:33:04Z</time>
      </trkpt>
      <trkpt lat="45.84474" lon="1.22281">
        <ele>277.5</ele>
        <time>2024-10-21T10:33:05Z</time>
      </trkpt>
      <trkpt lat="45.84474" lon="1.22281">
        <ele>277.5</ele>
        <time>2024-10-21T10:33:06Z</time>
      </trkpt>
      <trkpt lat="45.84474" lon="1.22281">
        <ele>277.5</ele>
        <time>2024-10-21T10:33:07Z</time>
      </trkpt>
      <trkpt lat="45.84474" lon="1.22281">
        <ele>277.5</ele>
        <time>2024-10-21T10:33:08Z</time>
      </trkpt>
      <trkpt lat="45.84474" lon="1.22281">
        <ele>277.5</ele>
        <time>2024-10-21T10:33:09Z</time>
      </trkpt>
      <trkpt lat="45.84474" lon="1.22281">
        <ele>277.5</ele>
        <time>2024-10-21T10:33:10Z</time>
      </trkpt>
      <trkpt lat="45.84474" lon="1.22281">
        <ele>277.5</ele>
        <time>2024-10-21T10:33:11Z</time>
      </trkpt>
      <trkpt lat="45.84473" lon="1.22281">
        <ele>277.5</ele>
        <time>2024-10-21T10:33:12Z</time>
      </trkpt>
      <trkpt lat="45.84473" lon="1.22281">
        <ele>277.5</ele>
        <time>2024-10-21T10:33:13Z</time>
      </trkpt>
      <trkpt lat="45.84473" lon="1.22281">
        <ele>277.5</ele>
        <time>2024-10-21T10:33:14Z</time>
      </trkpt>
      <trkpt lat="45.84473" lon="1.22281">
        <ele>277.5</ele>
        <time>2024-10-21T10:33:15Z</time>
      </trkpt>
      <trkpt lat="45.84473" lon="1.22281">
        <ele>277.5</ele>
        <time>2024-10-21T10:33:16Z</time>
      </trkpt>
      <trkpt lat="45.84473" lon="1.22281">
        <ele>277.5</ele>
        <time>2024-10-21T10:33:17Z</time>
      </trkpt>
      <trkpt lat="45.84473" lon="1.22281">
        <ele>277.5</ele>
        <time>2024-10-21T10:33:18Z</time>
      </trkpt>
      <trkpt lat="45.84473" lon="1.22281">
        <ele>277.5</ele>
        <time>2024-10-21T10:33:19Z</time>
      </trkpt>
      <trkpt lat="45.84473" lon="1.22281">
        <ele>277.5</ele>
        <time>2024-10-21T10:33:20Z</time>
      </trkpt>
      <trkpt lat="45.84473" lon="1.22281">
        <ele>277.5</ele>
        <time>2024-10-21T10:33:21Z</time>
      </trkpt>
      <trkpt lat="45.84474" lon="1.22281">
        <ele>277.5</ele>
        <time>2024-10-21T10:33:22Z</time>
      </trkpt>
      <trkpt lat="45.84475" lon="1.22281">
        <ele>277.5</ele>
        <time>2024-10-21T10:33:23Z</time>
      </trkpt>
      <trkpt lat="45.84475" lon="1.22281">
        <ele>277.5</ele>
        <time>2024-10-21T10:33:24Z</time>
      </trkpt>
      <trkpt lat="45.84475" lon="1.22281">
        <ele>277.5</ele>
        <time>2024-10-21T10:33:25Z</time>
      </trkpt>
      <trkpt lat="45.84475" lon="1.22281">
        <ele>277.5</ele>
        <time>2024-10-21T10:33:26Z</time>
      </trkpt>
      <trkpt lat="45.84474" lon="1.22281">
        <ele>277.5</ele>
        <time>2024-10-21T10:33:27Z</time>
      </trkpt>
      <trkpt lat="45.84474" lon="1.22281">
        <ele>277.5</ele>
        <time>2024-10-21T10:33:28Z</time>
      </trkpt>
      <trkpt lat="45.84473" lon="1.22281">
        <ele>277.5</ele>
        <time>2024-10-21T10:33:29Z</time>
      </trkpt>
      <trkpt lat="45.84473" lon="1.22281">
        <ele>277.5</ele>
        <time>2024-10-21T10:33:30Z</time>
      </trkpt>
      <trkpt lat="45.84473" lon="1.22281">
        <ele>277.5</ele>
        <time>2024-10-21T10:33:31Z</time>
      </trkpt>
      <trkpt lat="45.84474" lon="1.22282">
        <ele>277.5</ele>
        <time>2024-10-21T10:33:32Z</time>
      </trkpt>
      <trkpt lat="45.84474" lon="1.22282">
        <ele>277.5</ele>
        <time>2024-10-21T10:33:33Z</time>
      </trkpt>
      <trkpt lat="45.84474" lon="1.22282">
        <ele>277.6</ele>
        <time>2024-10-21T10:33:34Z</time>
      </trkpt>
      <trkpt lat="45.84475" lon="1.22282">
        <ele>277.6</ele>
        <time>2024-10-21T10:33:35Z</time>
      </trkpt>
      <trkpt lat="45.84475" lon="1.22281">
        <ele>277.6</ele>
        <time>2024-10-21T10:33:36Z</time>
      </trkpt>
      <trkpt lat="45.84475" lon="1.22281">
        <ele>277.6</ele>
        <time>2024-10-21T10:33:37Z</time>
      </trkpt>
      <trkpt lat="45.84475" lon="1.22281">
        <ele>277.6</ele>
        <time>2024-10-21T10:33:38Z</time>
      </trkpt>
      <trkpt lat="45.84475" lon="1.22281">
        <ele>277.6</ele>
        <time>2024-10-21T10:33:39Z</time>
      </trkpt>
      <trkpt lat="45.84475" lon="1.2228">
        <ele>277.6</ele>
        <time>2024-10-21T10:33:40Z</time>
      </trkpt>
      <trkpt lat="45.84476" lon="1.2228">
        <ele>277.6</ele>
        <time>2024-10-21T10:33:41Z</time>
      </trkpt>
      <trkpt lat="45.84476" lon="1.2228">
        <ele>277.6</ele>
        <time>2024-10-21T10:33:42Z</time>
      </trkpt>
      <trkpt lat="45.84476" lon="1.2228">
        <ele>277.6</ele>
        <time>2024-10-21T10:33:43Z</time>
      </trkpt>
      <trkpt lat="45.84477" lon="1.2228">
        <ele>277.6</ele>
        <time>2024-10-21T10:33:44Z</time>
      </trkpt>
      <trkpt lat="45.84477" lon="1.2228">
        <ele>277.6</ele>
        <time>2024-10-21T10:33:45Z</time>
      </trkpt>
      <trkpt lat="45.84477" lon="1.2228">
        <ele>277.6</ele>
        <time>2024-10-21T10:33:46Z</time>
      </trkpt>
      <trkpt lat="45.84477" lon="1.2228">
        <ele>277.6</ele>
        <time>2024-10-21T10:33:47Z</time>
      </trkpt>
      <trkpt lat="45.84477" lon="1.22279">
        <ele>277.6</ele>
        <time>2024-10-21T10:33:48Z</time>
      </trkpt>
      <trkpt lat="45.84477" lon="1.22279">
        <ele>277.6</ele>
        <time>2024-10-21T10:33:49Z</time>
      </trkpt>
      <trkpt lat="45.84477" lon="1.22279">
        <ele>277.6</ele>
        <time>2024-10-21T10:33:50Z</time>
      </trkpt>
      <trkpt lat="45.84478" lon="1.22279">
        <ele>277.6</ele>
        <time>2024-10-21T10:33:51Z</time>
      </trkpt>
      <trkpt lat="45.84477" lon="1.22279">
        <ele>277.6</ele>
        <time>2024-10-21T10:33:52Z</time>
      </trkpt>
      <trkpt lat="45.84477" lon="1.2228">
        <ele>277.6</ele>
        <time>2024-10-21T10:33:53Z</time>
      </trkpt>
      <trkpt lat="45.84475" lon="1.2228">
        <ele>277.6</ele>
        <time>2024-10-21T10:33:54Z</time>
      </trkpt>
      <trkpt lat="45.84474" lon="1.22281">
        <ele>277.6</ele>
        <time>2024-10-21T10:33:55Z</time>
      </trkpt>
      <trkpt lat="45.84472" lon="1.22282">
        <ele>277.6</ele>
        <time>2024-10-21T10:33:56Z</time>
      </trkpt>
      <trkpt lat="45.84471" lon="1.22282">
        <ele>277.6</ele>
        <time>2024-10-21T10:33:57Z</time>
      </trkpt>
      <trkpt lat="45.8447" lon="1.22282">
        <ele>277.7</ele>
        <time>2024-10-21T10:33:58Z</time>
      </trkpt>
      <trkpt lat="45.84469" lon="1.22283">
        <ele>277.7</ele>
        <time>2024-10-21T10:33:59Z</time>
      </trkpt>
      <trkpt lat="45.84469" lon="1.22283">
        <ele>277.7</ele>
        <time>2024-10-21T10:34:00Z</time>
      </trkpt>
      <trkpt lat="45.84468" lon="1.22283">
        <ele>277.7</ele>
        <time>2024-10-21T10:34:01Z</time>
      </trkpt>
      <trkpt lat="45.84467" lon="1.22284">
        <ele>277.7</ele>
        <time>2024-10-21T10:34:02Z</time>
      </trkpt>
      <trkpt lat="45.84466" lon="1.22284">
        <ele>277.7</ele>
        <time>2024-10-21T10:34:03Z</time>
      </trkpt>
      <trkpt lat="45.84467" lon="1.22284">
        <ele>277.7</ele>
        <time>2024-10-21T10:34:04Z</time>
      </trkpt>
      <trkpt lat="45.84468" lon="1.22283">
        <ele>277.7</ele>
        <time>2024-10-21T10:34:05Z</time>
      </trkpt>
      <trkpt lat="45.84469" lon="1.22283">
        <ele>277.7</ele>
        <time>2024-10-21T10:34:06Z</time>
      </trkpt>
      <trkpt lat="45.84471" lon="1.22282">
        <ele>277.8</ele>
        <time>2024-10-21T10:34:07Z</time>
      </trkpt>
      <trkpt lat="45.84472" lon="1.22282">
        <ele>277.8</ele>
        <time>2024-10-21T10:34:08Z</time>
      </trkpt>
      <trkpt lat="45.84472" lon="1.22281">
        <ele>277.8</ele>
        <time>2024-10-21T10:34:09Z</time>
      </trkpt>
      <trkpt lat="45.84473" lon="1.22281">
        <ele>277.8</ele>
        <time>2024-10-21T10:34:10Z</time>
      </trkpt>
      <trkpt lat="45.84473" lon="1.22281">
        <ele>277.8</ele>
        <time>2024-10-21T10:34:11Z</time>
      </trkpt>
      <trkpt lat="45.84473" lon="1.22281">
        <ele>277.8</ele>
        <time>2024-10-21T10:34:12Z</time>
      </trkpt>
      <trkpt lat="45.84473" lon="1.22281">
        <ele>277.8</ele>
        <time>2024-10-21T10:34:13Z</time>
      </trkpt>
      <trkpt lat="45.84474" lon="1.22281">
        <ele>277.8</ele>
        <time>2024-10-21T10:34:14Z</time>
      </trkpt>
      <trkpt lat="45.84474" lon="1.22281">
        <ele>277.8</ele>
        <time>2024-10-21T10:34:15Z</time>
      </trkpt>
      <trkpt lat="45.84473" lon="1.22281">
        <ele>277.8</ele>
        <time>2024-10-21T10:34:16Z</time>
      </trkpt>
      <trkpt lat="45.84473" lon="1.22281">
        <ele>277.8</ele>
        <time>2024-10-21T10:34:17Z</time>
      </trkpt>
      <trkpt lat="45.84473" lon="1.22281">
        <ele>277.8</ele>
        <time>2024-10-21T10:34:18Z</time>
      </trkpt>
      <trkpt lat="45.84473" lon="1.22281">
        <ele>277.8</ele>
        <time>2024-10-21T10:34:19Z</time>
      </trkpt>
      <trkpt lat="45.84473" lon="1.22281">
        <ele>277.8</ele>
        <time>2024-10-21T10:34:20Z</time>
      </trkpt>
      <trkpt lat="45.84473" lon="1.22281">
        <ele>277.8</ele>
        <time>2024-10-21T10:34:21Z</time>
      </trkpt>
      <trkpt lat="45.84473" lon="1.22281">
        <ele>277.8</ele>
        <time>2024-10-21T10:34:22Z</time>
      </trkpt>
      <trkpt lat="45.84473" lon="1.22281">
        <ele>277.8</ele>
        <time>2024-10-21T10:34:23Z</time>
      </trkpt>
      <trkpt lat="45.84473" lon="1.22281">
        <ele>277.8</ele>
        <time>2024-10-21T10:34:24Z</time>
      </trkpt>
      <trkpt lat="45.84473" lon="1.22281">
        <ele>277.8</ele>
        <time>2024-10-21T10:34:25Z</time>
      </trkpt>
      <trkpt lat="45.84474" lon="1.22281">
        <ele>277.8</ele>
        <time>2024-10-21T10:34:26Z</time>
      </trkpt>
      <trkpt lat="45.84473" lon="1.22281">
        <ele>277.8</ele>
        <time>2024-10-21T10:34:27Z</time>
      </trkpt>
      <trkpt lat="45.84473" lon="1.22281">
        <ele>277.8</ele>
        <time>2024-10-21T10:34:28Z</time>
      </trkpt>
      <trkpt lat="45.84473" lon="1.22281">
        <ele>277.8</ele>
        <time>2024-10-21T10:34:29Z</time>
      </trkpt>
      <trkpt lat="45.84473" lon="1.22281">
        <ele>277.8</ele>
        <time>2024-10-21T10:34:30Z</time>
      </trkpt>
      <trkpt lat="45.84472" lon="1.22281">
        <ele>277.8</ele>
        <time>2024-10-21T10:34:31Z</time>
      </trkpt>
      <trkpt lat="45.84473" lon="1.22281">
        <ele>277.8</ele>
        <time>2024-10-21T10:34:32Z</time>
      </trkpt>
      <trkpt lat="45.84473" lon="1.22281">
        <ele>277.8</ele>
        <time>2024-10-21T10:34:33Z</time>
      </trkpt>
      <trkpt lat="45.84473" lon="1.22281">
        <ele>277.8</ele>
        <time>2024-10-21T10:34:34Z</time>
      </trkpt>
      <trkpt lat="45.84473" lon="1.22281">
        <ele>277.8</ele>
        <time>2024-10-21T10:34:35Z</time>
      </trkpt>
      <trkpt lat="45.84473" lon="1.22281">
        <ele>277.8</ele>
        <time>2024-10-21T10:34:36Z</time>
      </trkpt>
      <trkpt lat="45.84473" lon="1.22281">
        <ele>277.8</ele>
        <time>2024-10-21T10:34:37Z</time>
      </trkpt>
      <trkpt lat="45.84473" lon="1.22281">
        <ele>277.8</ele>
        <time>2024-10-21T10:34:38Z</time>
      </trkpt>
      <trkpt lat="45.84473" lon="1.22281">
        <ele>277.8</ele>
        <time>2024-10-21T10:34:39Z</time>
      </trkpt>
      <trkpt lat="45.84473" lon="1.22281">
        <ele>277.8</ele>
        <time>2024-10-21T10:34:40Z</time>
      </trkpt>
      <trkpt lat="45.84472" lon="1.22281">
        <ele>277.8</ele>
        <time>2024-10-21T10:34:41Z</time>
      </trkpt>
      <trkpt lat="45.84473" lon="1.22281">
        <ele>277.8</ele>
        <time>2024-10-21T10:34:42Z</time>
      </trkpt>
      <trkpt lat="45.84472" lon="1.22281">
        <ele>277.8</ele>
        <time>2024-10-21T10:34:43Z</time>
      </trkpt>
      <trkpt lat="45.84472" lon="1.22281">
        <ele>277.8</ele>
        <time>2024-10-21T10:34:44Z</time>
      </trkpt>
      <trkpt lat="45.84472" lon="1.22281">
        <ele>277.8</ele>
        <time>2024-10-21T10:34:45Z</time>
      </trkpt>
      <trkpt lat="45.84473" lon="1.2228">
        <ele>277.9</ele>
        <time>2024-10-21T10:34:46Z</time>
      </trkpt>
      <trkpt lat="45.84474" lon="1.2228">
        <ele>277.9</ele>
        <time>2024-10-21T10:34:47Z</time>
      </trkpt>
      <trkpt lat="45.84473" lon="1.22279">
        <ele>277.9</ele>
        <time>2024-10-21T10:34:48Z</time>
      </trkpt>
      <trkpt lat="45.84472" lon="1.22279">
        <ele>277.9</ele>
        <time>2024-10-21T10:34:49Z</time>
      </trkpt>
      <trkpt lat="45.84472" lon="1.22279">
        <ele>277.9</ele>
        <time>2024-10-21T10:34:50Z</time>
      </trkpt>
      <trkpt lat="45.84471" lon="1.22279">
        <ele>277.9</ele>
        <time>2024-10-21T10:34:51Z</time>
      </trkpt>
      <trkpt lat="45.8447" lon="1.22279">
        <ele>277.9</ele>
        <time>2024-10-21T10:34:52Z</time>
      </trkpt>
      <trkpt lat="45.8447" lon="1.22279">
        <ele>277.9</ele>
        <time>2024-10-21T10:34:53Z</time>
      </trkpt>
      <trkpt lat="45.84469" lon="1.22279">
        <ele>277.9</ele>
        <time>2024-10-21T10:34:54Z</time>
      </trkpt>
      <trkpt lat="45.84469" lon="1.2228">
        <ele>277.9</ele>
        <time>2024-10-21T10:34:55Z</time>
      </trkpt>
      <trkpt lat="45.84471" lon="1.22279">
        <ele>277.9</ele>
        <time>2024-10-21T10:34:56Z</time>
      </trkpt>
      <trkpt lat="45.84474" lon="1.22279">
        <ele>278</ele>
        <time>2024-10-21T10:34:57Z</time>
      </trkpt>
      <trkpt lat="45.84474" lon="1.22278">
        <ele>278</ele>
        <time>2024-10-21T10:34:58Z</time>
      </trkpt>
      <trkpt lat="45.84472" lon="1.22278">
        <ele>278</ele>
        <time>2024-10-21T10:34:59Z</time>
      </trkpt>
      <trkpt lat="45.8447" lon="1.22277">
        <ele>278</ele>
        <time>2024-10-21T10:35:00Z</time>
      </trkpt>
      <trkpt lat="45.84469" lon="1.22277">
        <ele>278</ele>
        <time>2024-10-21T10:35:01Z</time>
      </trkpt>
      <trkpt lat="45.8447" lon="1.22279">
        <ele>278.1</ele>
        <time>2024-10-21T10:35:02Z</time>
      </trkpt>
      <trkpt lat="45.84471" lon="1.22279">
        <ele>278.1</ele>
        <time>2024-10-21T10:35:03Z</time>
      </trkpt>
      <trkpt lat="45.84471" lon="1.22279">
        <ele>278.1</ele>
        <time>2024-10-21T10:35:04Z</time>
      </trkpt>
      <trkpt lat="45.84471" lon="1.22278">
        <ele>278.1</ele>
        <time>2024-10-21T10:35:05Z</time>
      </trkpt>
      <trkpt lat="45.84471" lon="1.22278">
        <ele>278.1</ele>
        <time>2024-10-21T10:35:06Z</time>
      </trkpt>
      <trkpt lat="45.84471" lon="1.22278">
        <ele>278.1</ele>
        <time>2024-10-21T10:35:07Z</time>
      </trkpt>
      <trkpt lat="45.84471" lon="1.22278">
        <ele>278.1</ele>
        <time>2024-10-21T10:35:08Z</time>
      </trkpt>
      <trkpt lat="45.84471" lon="1.22278">
        <ele>278.1</ele>
        <time>2024-10-21T10:35:09Z</time>
      </trkpt>
      <trkpt lat="45.84472" lon="1.22278">
        <ele>278.1</ele>
        <time>2024-10-21T10:35:10Z</time>
      </trkpt>
      <trkpt lat="45.84472" lon="1.22278">
        <ele>278.1</ele>
        <time>2024-10-21T10:35:11Z</time>
      </trkpt>
      <trkpt lat="45.84472" lon="1.22278">
        <ele>278.1</ele>
        <time>2024-10-21T10:35:12Z</time>
      </trkpt>
      <trkpt lat="45.84472" lon="1.22278">
        <ele>278.1</ele>
        <time>2024-10-21T10:35:13Z</time>
      </trkpt>
      <trkpt lat="45.84471" lon="1.22278">
        <ele>278.1</ele>
        <time>2024-10-21T10:35:14Z</time>
      </trkpt>
      <trkpt lat="45.84471" lon="1.22278">
        <ele>278.1</ele>
        <time>2024-10-21T10:35:15Z</time>
      </trkpt>
      <trkpt lat="45.84471" lon="1.22278">
        <ele>278.1</ele>
        <time>2024-10-21T10:35:16Z</time>
      </trkpt>
      <trkpt lat="45.84471" lon="1.22277">
        <ele>278.1</ele>
        <time>2024-10-21T10:35:17Z</time>
      </trkpt>
      <trkpt lat="45.84471" lon="1.22277">
        <ele>278.1</ele>
        <time>2024-10-21T10:35:18Z</time>
      </trkpt>
      <trkpt lat="45.84471" lon="1.22277">
        <ele>278.1</ele>
        <time>2024-10-21T10:35:19Z</time>
      </trkpt>
      <trkpt lat="45.84471" lon="1.22277">
        <ele>278.1</ele>
        <time>2024-10-21T10:35:20Z</time>
      </trkpt>
      <trkpt lat="45.84471" lon="1.22277">
        <ele>278.1</ele>
        <time>2024-10-21T10:35:21Z</time>
      </trkpt>
    </trkseg>
  </trk>
</gpx>